<?xml version="1.0" encoding="UTF-8" standalone="no" ?>
<gpx xmlns="http://www.topografix.com/GPX/1/1" xmlns:xsi="http://www.w3.org/2001/XMLSchema-instance" xsi:schemaLocation="http://www.topografix.com/GPX/1/1 http://www.topografix.com/GPX/1/1/gpx.xsd" version="1.1" creator="VisuGPX - https://www.visugpx.com">
  <metadata>
    <name>Pic des 3 Seigneurs / Etang d'Arbu</name>
    <desc><![CDATA[Au départ du col de l'Hers, montée droite vers la crête pour la suivre jusqu'au pic et descente par l'étang d'Arbu.]]></desc>
  </metadata>
  <trk>
    <name><![CDATA[Tracé actuel: 30 OCT 2016 09:32]]></name>
    <trkseg>
      <trkpt lat="42.80641" lon="1.41146">
        <ele>1514.21</ele>
        <time>2016-10-30T08:32:35Z</time>
      </trkpt>
      <trkpt lat="42.80641" lon="1.41147">
        <ele>1514.21</ele>
        <time>2016-10-30T08:32:37Z</time>
      </trkpt>
      <trkpt lat="42.8065" lon="1.4115">
        <ele>1513.25</ele>
        <time>2016-10-30T08:32:47Z</time>
      </trkpt>
      <trkpt lat="42.80652" lon="1.4115">
        <ele>1513.25</ele>
        <time>2016-10-30T08:32:50Z</time>
      </trkpt>
      <trkpt lat="42.80657" lon="1.41154">
        <ele>1513.25</ele>
        <time>2016-10-30T08:33:03Z</time>
      </trkpt>
      <trkpt lat="42.80657" lon="1.41154">
        <ele>1513.25</ele>
        <time>2016-10-30T08:33:12Z</time>
      </trkpt>
      <trkpt lat="42.80657" lon="1.41151">
        <ele>1513.25</ele>
        <time>2016-10-30T08:33:19Z</time>
      </trkpt>
      <trkpt lat="42.80659" lon="1.41151">
        <ele>1513.25</ele>
        <time>2016-10-30T08:33:21Z</time>
      </trkpt>
      <trkpt lat="42.80661" lon="1.41155">
        <ele>1513.25</ele>
        <time>2016-10-30T08:33:33Z</time>
      </trkpt>
      <trkpt lat="42.80664" lon="1.41156">
        <ele>1513.25</ele>
        <time>2016-10-30T08:33:37Z</time>
      </trkpt>
      <trkpt lat="42.80668" lon="1.41159">
        <ele>1513.25</ele>
        <time>2016-10-30T08:33:42Z</time>
      </trkpt>
      <trkpt lat="42.80677" lon="1.41164">
        <ele>1513.25</ele>
        <time>2016-10-30T08:33:53Z</time>
      </trkpt>
      <trkpt lat="42.80683" lon="1.41167">
        <ele>1513.25</ele>
        <time>2016-10-30T08:33:59Z</time>
      </trkpt>
      <trkpt lat="42.80686" lon="1.41167">
        <ele>1513.25</ele>
        <time>2016-10-30T08:34:02Z</time>
      </trkpt>
      <trkpt lat="42.80693" lon="1.41173">
        <ele>1516.14</ele>
        <time>2016-10-30T08:34:13Z</time>
      </trkpt>
      <trkpt lat="42.80698" lon="1.41175">
        <ele>1517.1</ele>
        <time>2016-10-30T08:34:20Z</time>
      </trkpt>
      <trkpt lat="42.80699" lon="1.41177">
        <ele>1517.58</ele>
        <time>2016-10-30T08:34:24Z</time>
      </trkpt>
      <trkpt lat="42.80707" lon="1.4118">
        <ele>1521.42</ele>
        <time>2016-10-30T08:34:36Z</time>
      </trkpt>
      <trkpt lat="42.80714" lon="1.41179">
        <ele>1523.83</ele>
        <time>2016-10-30T08:34:46Z</time>
      </trkpt>
      <trkpt lat="42.80719" lon="1.41179">
        <ele>1523.83</ele>
        <time>2016-10-30T08:34:59Z</time>
      </trkpt>
      <trkpt lat="42.80727" lon="1.41181">
        <ele>1525.27</ele>
        <time>2016-10-30T08:35:11Z</time>
      </trkpt>
      <trkpt lat="42.80733" lon="1.41184">
        <ele>1527.67</ele>
        <time>2016-10-30T08:35:24Z</time>
      </trkpt>
      <trkpt lat="42.80736" lon="1.41185">
        <ele>1531.52</ele>
        <time>2016-10-30T08:35:30Z</time>
      </trkpt>
      <trkpt lat="42.80739" lon="1.41185">
        <ele>1534.4</ele>
        <time>2016-10-30T08:35:35Z</time>
      </trkpt>
      <trkpt lat="42.80741" lon="1.41185">
        <ele>1534.4</ele>
        <time>2016-10-30T08:35:39Z</time>
      </trkpt>
      <trkpt lat="42.80747" lon="1.41184">
        <ele>1534.4</ele>
        <time>2016-10-30T08:35:52Z</time>
      </trkpt>
      <trkpt lat="42.8075" lon="1.41189">
        <ele>1536.32</ele>
        <time>2016-10-30T08:36:01Z</time>
      </trkpt>
      <trkpt lat="42.80755" lon="1.4119">
        <ele>1538.73</ele>
        <time>2016-10-30T08:36:12Z</time>
      </trkpt>
      <trkpt lat="42.80757" lon="1.41191">
        <ele>1541.61</ele>
        <time>2016-10-30T08:36:17Z</time>
      </trkpt>
      <trkpt lat="42.80763" lon="1.41189">
        <ele>1544.5</ele>
        <time>2016-10-30T08:36:29Z</time>
      </trkpt>
      <trkpt lat="42.80766" lon="1.41192">
        <ele>1544.98</ele>
        <time>2016-10-30T08:36:40Z</time>
      </trkpt>
      <trkpt lat="42.80771" lon="1.41194">
        <ele>1548.34</ele>
        <time>2016-10-30T08:36:49Z</time>
      </trkpt>
      <trkpt lat="42.80772" lon="1.41195">
        <ele>1551.22</ele>
        <time>2016-10-30T08:36:54Z</time>
      </trkpt>
      <trkpt lat="42.80778" lon="1.41197">
        <ele>1551.71</ele>
        <time>2016-10-30T08:37:05Z</time>
      </trkpt>
      <trkpt lat="42.8078" lon="1.41201">
        <ele>1553.15</ele>
        <time>2016-10-30T08:37:15Z</time>
      </trkpt>
      <trkpt lat="42.80783" lon="1.412">
        <ele>1554.59</ele>
        <time>2016-10-30T08:37:34Z</time>
      </trkpt>
      <trkpt lat="42.80783" lon="1.41202">
        <ele>1555.07</ele>
        <time>2016-10-30T08:37:56Z</time>
      </trkpt>
      <trkpt lat="42.80787" lon="1.41205">
        <ele>1555.55</ele>
        <time>2016-10-30T08:38:06Z</time>
      </trkpt>
      <trkpt lat="42.80791" lon="1.41207">
        <ele>1557.47</ele>
        <time>2016-10-30T08:38:18Z</time>
      </trkpt>
      <trkpt lat="42.80799" lon="1.41205">
        <ele>1558.92</ele>
        <time>2016-10-30T08:38:29Z</time>
      </trkpt>
      <trkpt lat="42.80804" lon="1.41201">
        <ele>1562.28</ele>
        <time>2016-10-30T08:38:38Z</time>
      </trkpt>
      <trkpt lat="42.80808" lon="1.412">
        <ele>1565.64</ele>
        <time>2016-10-30T08:38:44Z</time>
      </trkpt>
      <trkpt lat="42.80815" lon="1.41203">
        <ele>1566.12</ele>
        <time>2016-10-30T08:38:58Z</time>
      </trkpt>
      <trkpt lat="42.80822" lon="1.41206">
        <ele>1567.57</ele>
        <time>2016-10-30T08:39:10Z</time>
      </trkpt>
      <trkpt lat="42.80828" lon="1.41207">
        <ele>1569.49</ele>
        <time>2016-10-30T08:39:21Z</time>
      </trkpt>
      <trkpt lat="42.80831" lon="1.41208">
        <ele>1572.85</ele>
        <time>2016-10-30T08:39:31Z</time>
      </trkpt>
      <trkpt lat="42.80834" lon="1.41209">
        <ele>1575.74</ele>
        <time>2016-10-30T08:39:36Z</time>
      </trkpt>
      <trkpt lat="42.80842" lon="1.41209">
        <ele>1577.18</ele>
        <time>2016-10-30T08:39:47Z</time>
      </trkpt>
      <trkpt lat="42.80846" lon="1.41212">
        <ele>1577.18</ele>
        <time>2016-10-30T08:40:00Z</time>
      </trkpt>
      <trkpt lat="42.80852" lon="1.41214">
        <ele>1578.14</ele>
        <time>2016-10-30T08:40:22Z</time>
      </trkpt>
      <trkpt lat="42.8086" lon="1.41215">
        <ele>1579.58</ele>
        <time>2016-10-30T08:40:34Z</time>
      </trkpt>
      <trkpt lat="42.80867" lon="1.41217">
        <ele>1581.51</ele>
        <time>2016-10-30T08:40:45Z</time>
      </trkpt>
      <trkpt lat="42.80868" lon="1.41219">
        <ele>1582.47</ele>
        <time>2016-10-30T08:40:57Z</time>
      </trkpt>
      <trkpt lat="42.80869" lon="1.41219">
        <ele>1582.95</ele>
        <time>2016-10-30T08:41:22Z</time>
      </trkpt>
      <trkpt lat="42.80876" lon="1.41221">
        <ele>1584.87</ele>
        <time>2016-10-30T08:41:35Z</time>
      </trkpt>
      <trkpt lat="42.80878" lon="1.41223">
        <ele>1588.24</ele>
        <time>2016-10-30T08:41:40Z</time>
      </trkpt>
      <trkpt lat="42.80882" lon="1.41224">
        <ele>1591.6</ele>
        <time>2016-10-30T08:41:47Z</time>
      </trkpt>
      <trkpt lat="42.80887" lon="1.41229">
        <ele>1591.6</ele>
        <time>2016-10-30T08:41:58Z</time>
      </trkpt>
      <trkpt lat="42.80895" lon="1.41235">
        <ele>1593.04</ele>
        <time>2016-10-30T08:42:09Z</time>
      </trkpt>
      <trkpt lat="42.80898" lon="1.41239">
        <ele>1594.96</ele>
        <time>2016-10-30T08:42:20Z</time>
      </trkpt>
      <trkpt lat="42.80902" lon="1.41242">
        <ele>1595.45</ele>
        <time>2016-10-30T08:42:37Z</time>
      </trkpt>
      <trkpt lat="42.80905" lon="1.41245">
        <ele>1596.41</ele>
        <time>2016-10-30T08:42:47Z</time>
      </trkpt>
      <trkpt lat="42.80908" lon="1.41247">
        <ele>1597.37</ele>
        <time>2016-10-30T08:43:03Z</time>
      </trkpt>
      <trkpt lat="42.80912" lon="1.41252">
        <ele>1599.29</ele>
        <time>2016-10-30T08:43:13Z</time>
      </trkpt>
      <trkpt lat="42.80917" lon="1.41257">
        <ele>1600.25</ele>
        <time>2016-10-30T08:43:21Z</time>
      </trkpt>
      <trkpt lat="42.8092" lon="1.41259">
        <ele>1600.73</ele>
        <time>2016-10-30T08:43:24Z</time>
      </trkpt>
      <trkpt lat="42.80922" lon="1.41262">
        <ele>1601.69</ele>
        <time>2016-10-30T08:43:28Z</time>
      </trkpt>
      <trkpt lat="42.80925" lon="1.41269">
        <ele>1603.62</ele>
        <time>2016-10-30T08:43:39Z</time>
      </trkpt>
      <trkpt lat="42.80927" lon="1.41272">
        <ele>1605.54</ele>
        <time>2016-10-30T08:43:51Z</time>
      </trkpt>
      <trkpt lat="42.80933" lon="1.41278">
        <ele>1606.5</ele>
        <time>2016-10-30T08:44:02Z</time>
      </trkpt>
      <trkpt lat="42.80933" lon="1.4128">
        <ele>1606.98</ele>
        <time>2016-10-30T08:44:05Z</time>
      </trkpt>
      <trkpt lat="42.8094" lon="1.41286">
        <ele>1610.83</ele>
        <time>2016-10-30T08:44:16Z</time>
      </trkpt>
      <trkpt lat="42.80941" lon="1.41286">
        <ele>1612.75</ele>
        <time>2016-10-30T08:44:19Z</time>
      </trkpt>
      <trkpt lat="42.80941" lon="1.41287">
        <ele>1614.67</ele>
        <time>2016-10-30T08:44:23Z</time>
      </trkpt>
      <trkpt lat="42.80947" lon="1.41292">
        <ele>1614.19</ele>
        <time>2016-10-30T08:44:33Z</time>
      </trkpt>
      <trkpt lat="42.80951" lon="1.41293">
        <ele>1614.19</ele>
        <time>2016-10-30T08:44:39Z</time>
      </trkpt>
      <trkpt lat="42.80953" lon="1.41293">
        <ele>1614.19</ele>
        <time>2016-10-30T08:44:41Z</time>
      </trkpt>
      <trkpt lat="42.80961" lon="1.41299">
        <ele>1618.04</ele>
        <time>2016-10-30T08:44:53Z</time>
      </trkpt>
      <trkpt lat="42.80965" lon="1.41307">
        <ele>1620.92</ele>
        <time>2016-10-30T08:45:02Z</time>
      </trkpt>
      <trkpt lat="42.80969" lon="1.41313">
        <ele>1620.92</ele>
        <time>2016-10-30T08:45:12Z</time>
      </trkpt>
      <trkpt lat="42.80972" lon="1.41321">
        <ele>1620.92</ele>
        <time>2016-10-30T08:45:21Z</time>
      </trkpt>
      <trkpt lat="42.80974" lon="1.41324">
        <ele>1621.88</ele>
        <time>2016-10-30T08:45:24Z</time>
      </trkpt>
      <trkpt lat="42.80977" lon="1.41329">
        <ele>1623.32</ele>
        <time>2016-10-30T08:45:34Z</time>
      </trkpt>
      <trkpt lat="42.80979" lon="1.41331">
        <ele>1623.8</ele>
        <time>2016-10-30T08:45:49Z</time>
      </trkpt>
      <trkpt lat="42.80982" lon="1.41337">
        <ele>1624.77</ele>
        <time>2016-10-30T08:45:58Z</time>
      </trkpt>
      <trkpt lat="42.80983" lon="1.41337">
        <ele>1625.73</ele>
        <time>2016-10-30T08:46:14Z</time>
      </trkpt>
      <trkpt lat="42.80983" lon="1.41339">
        <ele>1625.73</ele>
        <time>2016-10-30T08:46:20Z</time>
      </trkpt>
      <trkpt lat="42.80987" lon="1.41347">
        <ele>1627.17</ele>
        <time>2016-10-30T08:46:29Z</time>
      </trkpt>
      <trkpt lat="42.80991" lon="1.41351">
        <ele>1627.65</ele>
        <time>2016-10-30T08:46:36Z</time>
      </trkpt>
      <trkpt lat="42.80994" lon="1.41356">
        <ele>1629.09</ele>
        <time>2016-10-30T08:46:47Z</time>
      </trkpt>
      <trkpt lat="42.80997" lon="1.41361">
        <ele>1631.01</ele>
        <time>2016-10-30T08:46:58Z</time>
      </trkpt>
      <trkpt lat="42.80998" lon="1.41362">
        <ele>1631.01</ele>
        <time>2016-10-30T08:47:00Z</time>
      </trkpt>
      <trkpt lat="42.81002" lon="1.41367">
        <ele>1632.46</ele>
        <time>2016-10-30T08:47:08Z</time>
      </trkpt>
      <trkpt lat="42.81008" lon="1.41372">
        <ele>1635.82</ele>
        <time>2016-10-30T08:47:19Z</time>
      </trkpt>
      <trkpt lat="42.81008" lon="1.41373">
        <ele>1636.78</ele>
        <time>2016-10-30T08:47:20Z</time>
      </trkpt>
      <trkpt lat="42.8101" lon="1.41376">
        <ele>1639.19</ele>
        <time>2016-10-30T08:47:24Z</time>
      </trkpt>
      <trkpt lat="42.81011" lon="1.4138">
        <ele>1640.15</ele>
        <time>2016-10-30T08:47:28Z</time>
      </trkpt>
      <trkpt lat="42.81015" lon="1.41386">
        <ele>1640.15</ele>
        <time>2016-10-30T08:47:39Z</time>
      </trkpt>
      <trkpt lat="42.81018" lon="1.41393">
        <ele>1641.59</ele>
        <time>2016-10-30T08:47:49Z</time>
      </trkpt>
      <trkpt lat="42.81021" lon="1.414">
        <ele>1643.03</ele>
        <time>2016-10-30T08:47:58Z</time>
      </trkpt>
      <trkpt lat="42.81023" lon="1.414">
        <ele>1644.47</ele>
        <time>2016-10-30T08:48:12Z</time>
      </trkpt>
      <trkpt lat="42.81024" lon="1.41401">
        <ele>1644.95</ele>
        <time>2016-10-30T08:48:35Z</time>
      </trkpt>
      <trkpt lat="42.81026" lon="1.41402">
        <ele>1644.95</ele>
        <time>2016-10-30T08:49:02Z</time>
      </trkpt>
      <trkpt lat="42.81027" lon="1.41402">
        <ele>1644.95</ele>
        <time>2016-10-30T08:49:05Z</time>
      </trkpt>
      <trkpt lat="42.81034" lon="1.41398">
        <ele>1645.91</ele>
        <time>2016-10-30T08:49:15Z</time>
      </trkpt>
      <trkpt lat="42.81039" lon="1.41397">
        <ele>1647.36</ele>
        <time>2016-10-30T08:49:25Z</time>
      </trkpt>
      <trkpt lat="42.81043" lon="1.41394">
        <ele>1648.32</ele>
        <time>2016-10-30T08:49:30Z</time>
      </trkpt>
      <trkpt lat="42.81051" lon="1.41391">
        <ele>1650.72</ele>
        <time>2016-10-30T08:49:43Z</time>
      </trkpt>
      <trkpt lat="42.81056" lon="1.41391">
        <ele>1654.09</ele>
        <time>2016-10-30T08:49:51Z</time>
      </trkpt>
      <trkpt lat="42.8106" lon="1.41391">
        <ele>1656.97</ele>
        <time>2016-10-30T08:49:57Z</time>
      </trkpt>
      <trkpt lat="42.81066" lon="1.41391">
        <ele>1657.45</ele>
        <time>2016-10-30T08:50:08Z</time>
      </trkpt>
      <trkpt lat="42.81068" lon="1.4139">
        <ele>1658.41</ele>
        <time>2016-10-30T08:50:19Z</time>
      </trkpt>
      <trkpt lat="42.81069" lon="1.41389">
        <ele>1658.89</ele>
        <time>2016-10-30T08:50:36Z</time>
      </trkpt>
      <trkpt lat="42.81072" lon="1.41389">
        <ele>1659.85</ele>
        <time>2016-10-30T08:50:39Z</time>
      </trkpt>
      <trkpt lat="42.8108" lon="1.41386">
        <ele>1662.26</ele>
        <time>2016-10-30T08:50:53Z</time>
      </trkpt>
      <trkpt lat="42.81085" lon="1.41385">
        <ele>1664.18</ele>
        <time>2016-10-30T08:51:04Z</time>
      </trkpt>
      <trkpt lat="42.81088" lon="1.41381">
        <ele>1665.62</ele>
        <time>2016-10-30T08:51:13Z</time>
      </trkpt>
      <trkpt lat="42.81091" lon="1.41379">
        <ele>1666.1</ele>
        <time>2016-10-30T08:51:17Z</time>
      </trkpt>
      <trkpt lat="42.81095" lon="1.41384">
        <ele>1668.99</ele>
        <time>2016-10-30T08:51:31Z</time>
      </trkpt>
      <trkpt lat="42.81099" lon="1.41381">
        <ele>1670.43</ele>
        <time>2016-10-30T08:51:42Z</time>
      </trkpt>
      <trkpt lat="42.81107" lon="1.41379">
        <ele>1672.35</ele>
        <time>2016-10-30T08:51:53Z</time>
      </trkpt>
      <trkpt lat="42.81108" lon="1.41378">
        <ele>1675.72</ele>
        <time>2016-10-30T08:51:58Z</time>
      </trkpt>
      <trkpt lat="42.81115" lon="1.41379">
        <ele>1676.2</ele>
        <time>2016-10-30T08:52:10Z</time>
      </trkpt>
      <trkpt lat="42.81123" lon="1.41378">
        <ele>1677.64</ele>
        <time>2016-10-30T08:52:22Z</time>
      </trkpt>
      <trkpt lat="42.81127" lon="1.41376">
        <ele>1678.6</ele>
        <time>2016-10-30T08:52:28Z</time>
      </trkpt>
      <trkpt lat="42.8113" lon="1.41375">
        <ele>1679.56</ele>
        <time>2016-10-30T08:52:34Z</time>
      </trkpt>
      <trkpt lat="42.81139" lon="1.41377">
        <ele>1681.96</ele>
        <time>2016-10-30T08:52:48Z</time>
      </trkpt>
      <trkpt lat="42.81147" lon="1.41376">
        <ele>1684.37</ele>
        <time>2016-10-30T08:53:00Z</time>
      </trkpt>
      <trkpt lat="42.81155" lon="1.41375">
        <ele>1685.33</ele>
        <time>2016-10-30T08:53:11Z</time>
      </trkpt>
      <trkpt lat="42.8116" lon="1.41376">
        <ele>1688.69</ele>
        <time>2016-10-30T08:53:22Z</time>
      </trkpt>
      <trkpt lat="42.81163" lon="1.41375">
        <ele>1692.06</ele>
        <time>2016-10-30T08:53:27Z</time>
      </trkpt>
      <trkpt lat="42.81167" lon="1.41375">
        <ele>1693.5</ele>
        <time>2016-10-30T08:53:38Z</time>
      </trkpt>
      <trkpt lat="42.8117" lon="1.41374">
        <ele>1693.98</ele>
        <time>2016-10-30T08:53:49Z</time>
      </trkpt>
      <trkpt lat="42.81176" lon="1.41373">
        <ele>1696.38</ele>
        <time>2016-10-30T08:54:00Z</time>
      </trkpt>
      <trkpt lat="42.8118" lon="1.41372">
        <ele>1697.83</ele>
        <time>2016-10-30T08:54:10Z</time>
      </trkpt>
      <trkpt lat="42.81185" lon="1.41368">
        <ele>1700.23</ele>
        <time>2016-10-30T08:54:22Z</time>
      </trkpt>
      <trkpt lat="42.81189" lon="1.41364">
        <ele>1704.07</ele>
        <time>2016-10-30T08:54:33Z</time>
      </trkpt>
      <trkpt lat="42.8119" lon="1.41363">
        <ele>1706.96</ele>
        <time>2016-10-30T08:54:38Z</time>
      </trkpt>
      <trkpt lat="42.81196" lon="1.41361">
        <ele>1708.4</ele>
        <time>2016-10-30T08:54:49Z</time>
      </trkpt>
      <trkpt lat="42.81205" lon="1.41359">
        <ele>1709.36</ele>
        <time>2016-10-30T08:55:03Z</time>
      </trkpt>
      <trkpt lat="42.81208" lon="1.41358">
        <ele>1710.32</ele>
        <time>2016-10-30T08:55:10Z</time>
      </trkpt>
      <trkpt lat="42.81206" lon="1.41366">
        <ele>1711.76</ele>
        <time>2016-10-30T08:55:24Z</time>
      </trkpt>
      <trkpt lat="42.81203" lon="1.41368">
        <ele>1712.25</ele>
        <time>2016-10-30T08:55:37Z</time>
      </trkpt>
      <trkpt lat="42.81202" lon="1.41368">
        <ele>1712.25</ele>
        <time>2016-10-30T08:55:55Z</time>
      </trkpt>
      <trkpt lat="42.81202" lon="1.41369">
        <ele>1712.25</ele>
        <time>2016-10-30T08:56:16Z</time>
      </trkpt>
      <trkpt lat="42.81203" lon="1.41369">
        <ele>1712.25</ele>
        <time>2016-10-30T08:56:24Z</time>
      </trkpt>
      <trkpt lat="42.81206" lon="1.41368">
        <ele>1712.25</ele>
        <time>2016-10-30T08:56:30Z</time>
      </trkpt>
      <trkpt lat="42.81212" lon="1.4136">
        <ele>1713.21</ele>
        <time>2016-10-30T08:56:40Z</time>
      </trkpt>
      <trkpt lat="42.81213" lon="1.41362">
        <ele>1714.17</ele>
        <time>2016-10-30T08:57:02Z</time>
      </trkpt>
      <trkpt lat="42.81214" lon="1.41363">
        <ele>1714.17</ele>
        <time>2016-10-30T08:57:19Z</time>
      </trkpt>
      <trkpt lat="42.81219" lon="1.41361">
        <ele>1714.65</ele>
        <time>2016-10-30T08:57:29Z</time>
      </trkpt>
      <trkpt lat="42.81228" lon="1.41363">
        <ele>1716.57</ele>
        <time>2016-10-30T08:57:42Z</time>
      </trkpt>
      <trkpt lat="42.8123" lon="1.41364">
        <ele>1717.53</ele>
        <time>2016-10-30T08:57:53Z</time>
      </trkpt>
      <trkpt lat="42.81232" lon="1.41367">
        <ele>1718.97</ele>
        <time>2016-10-30T08:57:59Z</time>
      </trkpt>
      <trkpt lat="42.8124" lon="1.41368">
        <ele>1719.94</ele>
        <time>2016-10-30T08:58:10Z</time>
      </trkpt>
      <trkpt lat="42.81246" lon="1.41368">
        <ele>1722.34</ele>
        <time>2016-10-30T08:58:21Z</time>
      </trkpt>
      <trkpt lat="42.81251" lon="1.41368">
        <ele>1726.18</ele>
        <time>2016-10-30T08:58:33Z</time>
      </trkpt>
      <trkpt lat="42.81253" lon="1.41367">
        <ele>1729.07</ele>
        <time>2016-10-30T08:58:38Z</time>
      </trkpt>
      <trkpt lat="42.81256" lon="1.41367">
        <ele>1730.03</ele>
        <time>2016-10-30T08:58:49Z</time>
      </trkpt>
      <trkpt lat="42.81257" lon="1.41368">
        <ele>1730.51</ele>
        <time>2016-10-30T08:59:00Z</time>
      </trkpt>
      <trkpt lat="42.81259" lon="1.41369">
        <ele>1730.99</ele>
        <time>2016-10-30T08:59:11Z</time>
      </trkpt>
      <trkpt lat="42.81261" lon="1.41372">
        <ele>1731.47</ele>
        <time>2016-10-30T08:59:33Z</time>
      </trkpt>
      <trkpt lat="42.81265" lon="1.41373">
        <ele>1732.43</ele>
        <time>2016-10-30T08:59:49Z</time>
      </trkpt>
      <trkpt lat="42.8127" lon="1.41374">
        <ele>1733.88</ele>
        <time>2016-10-30T08:59:57Z</time>
      </trkpt>
      <trkpt lat="42.81272" lon="1.41374">
        <ele>1734.36</ele>
        <time>2016-10-30T09:00:01Z</time>
      </trkpt>
      <trkpt lat="42.81276" lon="1.41373">
        <ele>1735.8</ele>
        <time>2016-10-30T09:00:14Z</time>
      </trkpt>
      <trkpt lat="42.81281" lon="1.41373">
        <ele>1738.2</ele>
        <time>2016-10-30T09:00:24Z</time>
      </trkpt>
      <trkpt lat="42.81286" lon="1.41375">
        <ele>1740.12</ele>
        <time>2016-10-30T09:00:36Z</time>
      </trkpt>
      <trkpt lat="42.81287" lon="1.41375">
        <ele>1741.57</ele>
        <time>2016-10-30T09:00:47Z</time>
      </trkpt>
      <trkpt lat="42.8129" lon="1.41373">
        <ele>1742.53</ele>
        <time>2016-10-30T09:01:05Z</time>
      </trkpt>
      <trkpt lat="42.81297" lon="1.41374">
        <ele>1744.45</ele>
        <time>2016-10-30T09:01:17Z</time>
      </trkpt>
      <trkpt lat="42.813" lon="1.41375">
        <ele>1748.29</ele>
        <time>2016-10-30T09:01:24Z</time>
      </trkpt>
      <trkpt lat="42.81303" lon="1.41375">
        <ele>1751.66</ele>
        <time>2016-10-30T09:01:29Z</time>
      </trkpt>
      <trkpt lat="42.81307" lon="1.41376">
        <ele>1751.66</ele>
        <time>2016-10-30T09:01:38Z</time>
      </trkpt>
      <trkpt lat="42.8131" lon="1.41378">
        <ele>1753.1</ele>
        <time>2016-10-30T09:01:51Z</time>
      </trkpt>
      <trkpt lat="42.81315" lon="1.41382">
        <ele>1754.06</ele>
        <time>2016-10-30T09:02:01Z</time>
      </trkpt>
      <trkpt lat="42.81321" lon="1.41386">
        <ele>1755.99</ele>
        <time>2016-10-30T09:02:12Z</time>
      </trkpt>
      <trkpt lat="42.81322" lon="1.41388">
        <ele>1757.43</ele>
        <time>2016-10-30T09:02:26Z</time>
      </trkpt>
      <trkpt lat="42.81326" lon="1.41387">
        <ele>1759.35</ele>
        <time>2016-10-30T09:02:38Z</time>
      </trkpt>
      <trkpt lat="42.8133" lon="1.41388">
        <ele>1759.83</ele>
        <time>2016-10-30T09:02:45Z</time>
      </trkpt>
      <trkpt lat="42.81335" lon="1.41389">
        <ele>1762.23</ele>
        <time>2016-10-30T09:02:56Z</time>
      </trkpt>
      <trkpt lat="42.81336" lon="1.41391">
        <ele>1763.2</ele>
        <time>2016-10-30T09:03:07Z</time>
      </trkpt>
      <trkpt lat="42.81341" lon="1.41389">
        <ele>1765.12</ele>
        <time>2016-10-30T09:03:20Z</time>
      </trkpt>
      <trkpt lat="42.81345" lon="1.41391">
        <ele>1767.52</ele>
        <time>2016-10-30T09:03:33Z</time>
      </trkpt>
      <trkpt lat="42.8135" lon="1.41392">
        <ele>1769.44</ele>
        <time>2016-10-30T09:03:43Z</time>
      </trkpt>
      <trkpt lat="42.81352" lon="1.41393">
        <ele>1772.33</ele>
        <time>2016-10-30T09:03:48Z</time>
      </trkpt>
      <trkpt lat="42.81353" lon="1.41394">
        <ele>1773.77</ele>
        <time>2016-10-30T09:03:50Z</time>
      </trkpt>
      <trkpt lat="42.81358" lon="1.41399">
        <ele>1775.21</ele>
        <time>2016-10-30T09:04:01Z</time>
      </trkpt>
      <trkpt lat="42.81364" lon="1.41402">
        <ele>1776.17</ele>
        <time>2016-10-30T09:04:10Z</time>
      </trkpt>
      <trkpt lat="42.81371" lon="1.41403">
        <ele>1777.61</ele>
        <time>2016-10-30T09:04:22Z</time>
      </trkpt>
      <trkpt lat="42.81376" lon="1.41407">
        <ele>1780.02</ele>
        <time>2016-10-30T09:04:35Z</time>
      </trkpt>
      <trkpt lat="42.81379" lon="1.4141">
        <ele>1782.9</ele>
        <time>2016-10-30T09:04:45Z</time>
      </trkpt>
      <trkpt lat="42.81381" lon="1.41412">
        <ele>1785.31</ele>
        <time>2016-10-30T09:05:01Z</time>
      </trkpt>
      <trkpt lat="42.81383" lon="1.41414">
        <ele>1785.31</ele>
        <time>2016-10-30T09:05:33Z</time>
      </trkpt>
      <trkpt lat="42.81386" lon="1.41414">
        <ele>1785.31</ele>
        <time>2016-10-30T09:05:52Z</time>
      </trkpt>
      <trkpt lat="42.81388" lon="1.41416">
        <ele>1785.79</ele>
        <time>2016-10-30T09:06:02Z</time>
      </trkpt>
      <trkpt lat="42.81395" lon="1.41417">
        <ele>1788.19</ele>
        <time>2016-10-30T09:06:14Z</time>
      </trkpt>
      <trkpt lat="42.81397" lon="1.41421">
        <ele>1789.63</ele>
        <time>2016-10-30T09:06:24Z</time>
      </trkpt>
      <trkpt lat="42.814" lon="1.4142">
        <ele>1790.11</ele>
        <time>2016-10-30T09:06:27Z</time>
      </trkpt>
      <trkpt lat="42.81403" lon="1.41421">
        <ele>1793.48</ele>
        <time>2016-10-30T09:06:33Z</time>
      </trkpt>
      <trkpt lat="42.81404" lon="1.41422">
        <ele>1796.84</ele>
        <time>2016-10-30T09:06:39Z</time>
      </trkpt>
      <trkpt lat="42.81407" lon="1.41425">
        <ele>1796.36</ele>
        <time>2016-10-30T09:06:51Z</time>
      </trkpt>
      <trkpt lat="42.81411" lon="1.41426">
        <ele>1796.84</ele>
        <time>2016-10-30T09:07:08Z</time>
      </trkpt>
      <trkpt lat="42.81415" lon="1.41429">
        <ele>1797.8</ele>
        <time>2016-10-30T09:07:17Z</time>
      </trkpt>
      <trkpt lat="42.81421" lon="1.41431">
        <ele>1799.24</ele>
        <time>2016-10-30T09:07:27Z</time>
      </trkpt>
      <trkpt lat="42.81427" lon="1.4143">
        <ele>1800.69</ele>
        <time>2016-10-30T09:07:36Z</time>
      </trkpt>
      <trkpt lat="42.81431" lon="1.41432">
        <ele>1802.61</ele>
        <time>2016-10-30T09:07:44Z</time>
      </trkpt>
      <trkpt lat="42.81434" lon="1.4143">
        <ele>1804.53</ele>
        <time>2016-10-30T09:07:54Z</time>
      </trkpt>
      <trkpt lat="42.81439" lon="1.41431">
        <ele>1806.94</ele>
        <time>2016-10-30T09:08:09Z</time>
      </trkpt>
      <trkpt lat="42.81444" lon="1.41436">
        <ele>1808.38</ele>
        <time>2016-10-30T09:08:21Z</time>
      </trkpt>
      <trkpt lat="42.81447" lon="1.41442">
        <ele>1810.78</ele>
        <time>2016-10-30T09:08:32Z</time>
      </trkpt>
      <trkpt lat="42.81447" lon="1.41448">
        <ele>1812.22</ele>
        <time>2016-10-30T09:08:39Z</time>
      </trkpt>
      <trkpt lat="42.81448" lon="1.41451">
        <ele>1813.18</ele>
        <time>2016-10-30T09:08:45Z</time>
      </trkpt>
      <trkpt lat="42.8145" lon="1.41453">
        <ele>1814.63</ele>
        <time>2016-10-30T09:08:50Z</time>
      </trkpt>
      <trkpt lat="42.81453" lon="1.41458">
        <ele>1815.59</ele>
        <time>2016-10-30T09:08:56Z</time>
      </trkpt>
      <trkpt lat="42.81457" lon="1.41468">
        <ele>1817.99</ele>
        <time>2016-10-30T09:09:08Z</time>
      </trkpt>
      <trkpt lat="42.81459" lon="1.41469">
        <ele>1820.39</ele>
        <time>2016-10-30T09:09:12Z</time>
      </trkpt>
      <trkpt lat="42.8146" lon="1.41471">
        <ele>1822.8</ele>
        <time>2016-10-30T09:09:17Z</time>
      </trkpt>
      <trkpt lat="42.81464" lon="1.41476">
        <ele>1823.28</ele>
        <time>2016-10-30T09:09:29Z</time>
      </trkpt>
      <trkpt lat="42.81464" lon="1.41476">
        <ele>1823.28</ele>
        <time>2016-10-30T09:09:44Z</time>
      </trkpt>
      <trkpt lat="42.81464" lon="1.41477">
        <ele>1823.76</ele>
        <time>2016-10-30T09:10:11Z</time>
      </trkpt>
      <trkpt lat="42.81468" lon="1.41483">
        <ele>1824.24</ele>
        <time>2016-10-30T09:10:22Z</time>
      </trkpt>
      <trkpt lat="42.8147" lon="1.41489">
        <ele>1826.16</ele>
        <time>2016-10-30T09:10:31Z</time>
      </trkpt>
      <trkpt lat="42.81474" lon="1.41496">
        <ele>1829.53</ele>
        <time>2016-10-30T09:10:41Z</time>
      </trkpt>
      <trkpt lat="42.81479" lon="1.41502">
        <ele>1832.41</ele>
        <time>2016-10-30T09:10:51Z</time>
      </trkpt>
      <trkpt lat="42.81484" lon="1.41507">
        <ele>1832.89</ele>
        <time>2016-10-30T09:11:02Z</time>
      </trkpt>
      <trkpt lat="42.81484" lon="1.41509">
        <ele>1833.37</ele>
        <time>2016-10-30T09:11:04Z</time>
      </trkpt>
      <trkpt lat="42.81487" lon="1.41514">
        <ele>1835.29</ele>
        <time>2016-10-30T09:11:15Z</time>
      </trkpt>
      <trkpt lat="42.81488" lon="1.41514">
        <ele>1835.29</ele>
        <time>2016-10-30T09:11:16Z</time>
      </trkpt>
      <trkpt lat="42.81491" lon="1.41518">
        <ele>1836.26</ele>
        <time>2016-10-30T09:11:22Z</time>
      </trkpt>
      <trkpt lat="42.81494" lon="1.41528">
        <ele>1838.18</ele>
        <time>2016-10-30T09:11:35Z</time>
      </trkpt>
      <trkpt lat="42.81496" lon="1.41533">
        <ele>1840.58</ele>
        <time>2016-10-30T09:11:47Z</time>
      </trkpt>
      <trkpt lat="42.81498" lon="1.41535">
        <ele>1841.54</ele>
        <time>2016-10-30T09:11:53Z</time>
      </trkpt>
      <trkpt lat="42.81502" lon="1.41539">
        <ele>1842.98</ele>
        <time>2016-10-30T09:12:01Z</time>
      </trkpt>
      <trkpt lat="42.81504" lon="1.41544">
        <ele>1845.87</ele>
        <time>2016-10-30T09:12:10Z</time>
      </trkpt>
      <trkpt lat="42.81504" lon="1.41544">
        <ele>1849.23</ele>
        <time>2016-10-30T09:12:17Z</time>
      </trkpt>
      <trkpt lat="42.81504" lon="1.41545">
        <ele>1848.27</ele>
        <time>2016-10-30T09:12:40Z</time>
      </trkpt>
      <trkpt lat="42.81507" lon="1.41543">
        <ele>1848.27</ele>
        <time>2016-10-30T09:12:52Z</time>
      </trkpt>
      <trkpt lat="42.81511" lon="1.41543">
        <ele>1849.71</ele>
        <time>2016-10-30T09:13:04Z</time>
      </trkpt>
      <trkpt lat="42.81513" lon="1.41547">
        <ele>1851.16</ele>
        <time>2016-10-30T09:13:15Z</time>
      </trkpt>
      <trkpt lat="42.81517" lon="1.41553">
        <ele>1853.56</ele>
        <time>2016-10-30T09:13:27Z</time>
      </trkpt>
      <trkpt lat="42.8152" lon="1.4156">
        <ele>1855.48</ele>
        <time>2016-10-30T09:13:38Z</time>
      </trkpt>
      <trkpt lat="42.81522" lon="1.41562">
        <ele>1856.44</ele>
        <time>2016-10-30T09:13:41Z</time>
      </trkpt>
      <trkpt lat="42.81525" lon="1.41565">
        <ele>1858.85</ele>
        <time>2016-10-30T09:13:52Z</time>
      </trkpt>
      <trkpt lat="42.81525" lon="1.41561">
        <ele>1860.77</ele>
        <time>2016-10-30T09:14:03Z</time>
      </trkpt>
      <trkpt lat="42.81526" lon="1.41561">
        <ele>1862.21</ele>
        <time>2016-10-30T09:14:19Z</time>
      </trkpt>
      <trkpt lat="42.81526" lon="1.41561">
        <ele>1862.69</ele>
        <time>2016-10-30T09:14:44Z</time>
      </trkpt>
      <trkpt lat="42.81526" lon="1.41561">
        <ele>1863.17</ele>
        <time>2016-10-30T09:15:09Z</time>
      </trkpt>
      <trkpt lat="42.81527" lon="1.41562">
        <ele>1863.17</ele>
        <time>2016-10-30T09:15:34Z</time>
      </trkpt>
      <trkpt lat="42.81529" lon="1.4156">
        <ele>1863.17</ele>
        <time>2016-10-30T09:15:56Z</time>
      </trkpt>
      <trkpt lat="42.81531" lon="1.41565">
        <ele>1864.13</ele>
        <time>2016-10-30T09:16:03Z</time>
      </trkpt>
      <trkpt lat="42.81534" lon="1.41573">
        <ele>1865.58</ele>
        <time>2016-10-30T09:16:14Z</time>
      </trkpt>
      <trkpt lat="42.81538" lon="1.41573">
        <ele>1867.98</ele>
        <time>2016-10-30T09:16:24Z</time>
      </trkpt>
      <trkpt lat="42.81544" lon="1.4157">
        <ele>1869.42</ele>
        <time>2016-10-30T09:16:35Z</time>
      </trkpt>
      <trkpt lat="42.81548" lon="1.41572">
        <ele>1871.34</ele>
        <time>2016-10-30T09:16:43Z</time>
      </trkpt>
      <trkpt lat="42.81551" lon="1.4157">
        <ele>1875.67</ele>
        <time>2016-10-30T09:16:49Z</time>
      </trkpt>
      <trkpt lat="42.81556" lon="1.41572">
        <ele>1877.11</ele>
        <time>2016-10-30T09:17:00Z</time>
      </trkpt>
      <trkpt lat="42.81559" lon="1.41572">
        <ele>1877.59</ele>
        <time>2016-10-30T09:17:11Z</time>
      </trkpt>
      <trkpt lat="42.81564" lon="1.41571">
        <ele>1880</ele>
        <time>2016-10-30T09:17:22Z</time>
      </trkpt>
      <trkpt lat="42.81568" lon="1.41566">
        <ele>1882.4</ele>
        <time>2016-10-30T09:17:35Z</time>
      </trkpt>
      <trkpt lat="42.81568" lon="1.41566">
        <ele>1882.4</ele>
        <time>2016-10-30T09:17:36Z</time>
      </trkpt>
      <trkpt lat="42.81573" lon="1.41567">
        <ele>1884.8</ele>
        <time>2016-10-30T09:17:47Z</time>
      </trkpt>
      <trkpt lat="42.81576" lon="1.41566">
        <ele>1885.76</ele>
        <time>2016-10-30T09:17:57Z</time>
      </trkpt>
      <trkpt lat="42.81579" lon="1.41568">
        <ele>1888.65</ele>
        <time>2016-10-30T09:18:16Z</time>
      </trkpt>
      <trkpt lat="42.8158" lon="1.41573">
        <ele>1890.57</ele>
        <time>2016-10-30T09:18:26Z</time>
      </trkpt>
      <trkpt lat="42.81581" lon="1.41579">
        <ele>1892.97</ele>
        <time>2016-10-30T09:18:39Z</time>
      </trkpt>
      <trkpt lat="42.81581" lon="1.41588">
        <ele>1894.42</ele>
        <time>2016-10-30T09:18:50Z</time>
      </trkpt>
      <trkpt lat="42.81584" lon="1.41594">
        <ele>1895.86</ele>
        <time>2016-10-30T09:19:00Z</time>
      </trkpt>
      <trkpt lat="42.81585" lon="1.41596">
        <ele>1897.78</ele>
        <time>2016-10-30T09:19:09Z</time>
      </trkpt>
      <trkpt lat="42.81585" lon="1.41597">
        <ele>1898.74</ele>
        <time>2016-10-30T09:19:21Z</time>
      </trkpt>
      <trkpt lat="42.8159" lon="1.41601">
        <ele>1899.22</ele>
        <time>2016-10-30T09:19:31Z</time>
      </trkpt>
      <trkpt lat="42.81591" lon="1.41603">
        <ele>1901.14</ele>
        <time>2016-10-30T09:19:40Z</time>
      </trkpt>
      <trkpt lat="42.81593" lon="1.4161">
        <ele>1903.55</ele>
        <time>2016-10-30T09:19:52Z</time>
      </trkpt>
      <trkpt lat="42.81596" lon="1.41614">
        <ele>1905.47</ele>
        <time>2016-10-30T09:20:02Z</time>
      </trkpt>
      <trkpt lat="42.81596" lon="1.41618">
        <ele>1908.35</ele>
        <time>2016-10-30T09:20:07Z</time>
      </trkpt>
      <trkpt lat="42.81597" lon="1.41629">
        <ele>1910.28</ele>
        <time>2016-10-30T09:20:19Z</time>
      </trkpt>
      <trkpt lat="42.81599" lon="1.41632">
        <ele>1910.28</ele>
        <time>2016-10-30T09:20:29Z</time>
      </trkpt>
      <trkpt lat="42.816" lon="1.41632">
        <ele>1910.76</ele>
        <time>2016-10-30T09:20:59Z</time>
      </trkpt>
      <trkpt lat="42.81603" lon="1.41631">
        <ele>1912.68</ele>
        <time>2016-10-30T09:21:11Z</time>
      </trkpt>
      <trkpt lat="42.81609" lon="1.41618">
        <ele>1914.6</ele>
        <time>2016-10-30T09:21:24Z</time>
      </trkpt>
      <trkpt lat="42.81613" lon="1.41615">
        <ele>1916.53</ele>
        <time>2016-10-30T09:21:35Z</time>
      </trkpt>
      <trkpt lat="42.81615" lon="1.41612">
        <ele>1917.49</ele>
        <time>2016-10-30T09:21:39Z</time>
      </trkpt>
      <trkpt lat="42.81617" lon="1.41609">
        <ele>1917.97</ele>
        <time>2016-10-30T09:21:42Z</time>
      </trkpt>
      <trkpt lat="42.81621" lon="1.41605">
        <ele>1920.37</ele>
        <time>2016-10-30T09:21:54Z</time>
      </trkpt>
      <trkpt lat="42.81624" lon="1.41602">
        <ele>1924.22</ele>
        <time>2016-10-30T09:21:58Z</time>
      </trkpt>
      <trkpt lat="42.81629" lon="1.41597">
        <ele>1926.62</ele>
        <time>2016-10-30T09:22:08Z</time>
      </trkpt>
      <trkpt lat="42.81632" lon="1.41597">
        <ele>1926.62</ele>
        <time>2016-10-30T09:22:13Z</time>
      </trkpt>
      <trkpt lat="42.81634" lon="1.41596">
        <ele>1927.1</ele>
        <time>2016-10-30T09:22:17Z</time>
      </trkpt>
      <trkpt lat="42.8164" lon="1.41595">
        <ele>1929.02</ele>
        <time>2016-10-30T09:22:27Z</time>
      </trkpt>
      <trkpt lat="42.81646" lon="1.41594">
        <ele>1930.46</ele>
        <time>2016-10-30T09:22:38Z</time>
      </trkpt>
      <trkpt lat="42.81648" lon="1.41593">
        <ele>1931.43</ele>
        <time>2016-10-30T09:22:41Z</time>
      </trkpt>
      <trkpt lat="42.81655" lon="1.41594">
        <ele>1932.39</ele>
        <time>2016-10-30T09:22:52Z</time>
      </trkpt>
      <trkpt lat="42.81658" lon="1.41599">
        <ele>1934.79</ele>
        <time>2016-10-30T09:23:02Z</time>
      </trkpt>
      <trkpt lat="42.81659" lon="1.416">
        <ele>1935.75</ele>
        <time>2016-10-30T09:23:15Z</time>
      </trkpt>
      <trkpt lat="42.81659" lon="1.416">
        <ele>1936.23</ele>
        <time>2016-10-30T09:23:42Z</time>
      </trkpt>
      <trkpt lat="42.81659" lon="1.416">
        <ele>1936.23</ele>
        <time>2016-10-30T09:23:59Z</time>
      </trkpt>
      <trkpt lat="42.81659" lon="1.41601">
        <ele>1937.19</ele>
        <time>2016-10-30T09:24:17Z</time>
      </trkpt>
      <trkpt lat="42.8166" lon="1.41601">
        <ele>1937.19</ele>
        <time>2016-10-30T09:24:43Z</time>
      </trkpt>
      <trkpt lat="42.81656" lon="1.41602">
        <ele>1937.19</ele>
        <time>2016-10-30T09:25:04Z</time>
      </trkpt>
      <trkpt lat="42.81655" lon="1.41602">
        <ele>1937.19</ele>
        <time>2016-10-30T09:25:15Z</time>
      </trkpt>
      <trkpt lat="42.81655" lon="1.41602">
        <ele>1937.67</ele>
        <time>2016-10-30T09:25:35Z</time>
      </trkpt>
      <trkpt lat="42.81656" lon="1.41602">
        <ele>1937.67</ele>
        <time>2016-10-30T09:25:57Z</time>
      </trkpt>
      <trkpt lat="42.81656" lon="1.41601">
        <ele>1937.67</ele>
        <time>2016-10-30T09:26:27Z</time>
      </trkpt>
      <trkpt lat="42.81656" lon="1.41602">
        <ele>1938.16</ele>
        <time>2016-10-30T09:26:46Z</time>
      </trkpt>
      <trkpt lat="42.81656" lon="1.41602">
        <ele>1938.64</ele>
        <time>2016-10-30T09:27:03Z</time>
      </trkpt>
      <trkpt lat="42.81656" lon="1.41603">
        <ele>1938.64</ele>
        <time>2016-10-30T09:27:33Z</time>
      </trkpt>
      <trkpt lat="42.81656" lon="1.41603">
        <ele>1938.64</ele>
        <time>2016-10-30T09:27:54Z</time>
      </trkpt>
      <trkpt lat="42.81656" lon="1.41603">
        <ele>1938.64</ele>
        <time>2016-10-30T09:28:19Z</time>
      </trkpt>
      <trkpt lat="42.81655" lon="1.41603">
        <ele>1939.12</ele>
        <time>2016-10-30T09:28:36Z</time>
      </trkpt>
      <trkpt lat="42.81656" lon="1.41602">
        <ele>1939.12</ele>
        <time>2016-10-30T09:28:58Z</time>
      </trkpt>
      <trkpt lat="42.81657" lon="1.41602">
        <ele>1939.12</ele>
        <time>2016-10-30T09:29:23Z</time>
      </trkpt>
      <trkpt lat="42.81658" lon="1.41601">
        <ele>1939.12</ele>
        <time>2016-10-30T09:29:48Z</time>
      </trkpt>
      <trkpt lat="42.8166" lon="1.41597">
        <ele>1939.6</ele>
        <time>2016-10-30T09:30:03Z</time>
      </trkpt>
      <trkpt lat="42.81663" lon="1.41595">
        <ele>1940.56</ele>
        <time>2016-10-30T09:30:16Z</time>
      </trkpt>
      <trkpt lat="42.81664" lon="1.41595">
        <ele>1941.04</ele>
        <time>2016-10-30T09:30:31Z</time>
      </trkpt>
      <trkpt lat="42.81666" lon="1.41596">
        <ele>1941.04</ele>
        <time>2016-10-30T09:30:44Z</time>
      </trkpt>
      <trkpt lat="42.81667" lon="1.41595">
        <ele>1941.04</ele>
        <time>2016-10-30T09:31:06Z</time>
      </trkpt>
      <trkpt lat="42.81667" lon="1.41595">
        <ele>1941.04</ele>
        <time>2016-10-30T09:31:38Z</time>
      </trkpt>
      <trkpt lat="42.81667" lon="1.41593">
        <ele>1941.04</ele>
        <time>2016-10-30T09:31:54Z</time>
      </trkpt>
      <trkpt lat="42.81667" lon="1.41594">
        <ele>1941.52</ele>
        <time>2016-10-30T09:32:14Z</time>
      </trkpt>
      <trkpt lat="42.81667" lon="1.41595">
        <ele>1941.52</ele>
        <time>2016-10-30T09:32:39Z</time>
      </trkpt>
      <trkpt lat="42.81666" lon="1.41595">
        <ele>1941.52</ele>
        <time>2016-10-30T09:33:04Z</time>
      </trkpt>
      <trkpt lat="42.81667" lon="1.41596">
        <ele>1942</ele>
        <time>2016-10-30T09:33:19Z</time>
      </trkpt>
      <trkpt lat="42.81667" lon="1.41597">
        <ele>1942</ele>
        <time>2016-10-30T09:33:46Z</time>
      </trkpt>
      <trkpt lat="42.81667" lon="1.41597">
        <ele>1942</ele>
        <time>2016-10-30T09:34:05Z</time>
      </trkpt>
      <trkpt lat="42.81667" lon="1.41597">
        <ele>1942</ele>
        <time>2016-10-30T09:34:24Z</time>
      </trkpt>
      <trkpt lat="42.81667" lon="1.41598">
        <ele>1942</ele>
        <time>2016-10-30T09:34:46Z</time>
      </trkpt>
      <trkpt lat="42.81667" lon="1.41598">
        <ele>1942</ele>
        <time>2016-10-30T09:35:08Z</time>
      </trkpt>
      <trkpt lat="42.81667" lon="1.41598">
        <ele>1942</ele>
        <time>2016-10-30T09:35:33Z</time>
      </trkpt>
      <trkpt lat="42.81667" lon="1.41598">
        <ele>1942</ele>
        <time>2016-10-30T09:35:52Z</time>
      </trkpt>
      <trkpt lat="42.81667" lon="1.41597">
        <ele>1942</ele>
        <time>2016-10-30T09:36:20Z</time>
      </trkpt>
      <trkpt lat="42.81667" lon="1.41596">
        <ele>1942.48</ele>
        <time>2016-10-30T09:36:47Z</time>
      </trkpt>
      <trkpt lat="42.81666" lon="1.41595">
        <ele>1942.48</ele>
        <time>2016-10-30T09:37:18Z</time>
      </trkpt>
      <trkpt lat="42.81667" lon="1.41595">
        <ele>1942.48</ele>
        <time>2016-10-30T09:37:45Z</time>
      </trkpt>
      <trkpt lat="42.81667" lon="1.41596">
        <ele>1942.48</ele>
        <time>2016-10-30T09:38:15Z</time>
      </trkpt>
      <trkpt lat="42.81667" lon="1.41596">
        <ele>1942.48</ele>
        <time>2016-10-30T09:38:37Z</time>
      </trkpt>
      <trkpt lat="42.81667" lon="1.41595">
        <ele>1942.48</ele>
        <time>2016-10-30T09:38:58Z</time>
      </trkpt>
      <trkpt lat="42.81667" lon="1.41595">
        <ele>1942.48</ele>
        <time>2016-10-30T09:39:20Z</time>
      </trkpt>
      <trkpt lat="42.81666" lon="1.41596">
        <ele>1942.48</ele>
        <time>2016-10-30T09:39:45Z</time>
      </trkpt>
      <trkpt lat="42.81667" lon="1.41596">
        <ele>1942.96</ele>
        <time>2016-10-30T09:40:11Z</time>
      </trkpt>
      <trkpt lat="42.81667" lon="1.41597">
        <ele>1942.96</ele>
        <time>2016-10-30T09:40:41Z</time>
      </trkpt>
      <trkpt lat="42.81667" lon="1.41597">
        <ele>1942.96</ele>
        <time>2016-10-30T09:41:01Z</time>
      </trkpt>
      <trkpt lat="42.81666" lon="1.41597">
        <ele>1942.96</ele>
        <time>2016-10-30T09:41:18Z</time>
      </trkpt>
      <trkpt lat="42.81667" lon="1.41597">
        <ele>1942.96</ele>
        <time>2016-10-30T09:41:37Z</time>
      </trkpt>
      <trkpt lat="42.81666" lon="1.41597">
        <ele>1942.96</ele>
        <time>2016-10-30T09:41:55Z</time>
      </trkpt>
      <trkpt lat="42.81667" lon="1.41596">
        <ele>1942.96</ele>
        <time>2016-10-30T09:42:15Z</time>
      </trkpt>
      <trkpt lat="42.81667" lon="1.41596">
        <ele>1942.96</ele>
        <time>2016-10-30T09:42:38Z</time>
      </trkpt>
      <trkpt lat="42.81667" lon="1.41596">
        <ele>1942.96</ele>
        <time>2016-10-30T09:42:56Z</time>
      </trkpt>
      <trkpt lat="42.81667" lon="1.41596">
        <ele>1942.96</ele>
        <time>2016-10-30T09:43:18Z</time>
      </trkpt>
      <trkpt lat="42.81667" lon="1.41596">
        <ele>1942.96</ele>
        <time>2016-10-30T09:43:19Z</time>
      </trkpt>
      <trkpt lat="42.81667" lon="1.41596">
        <ele>1942.96</ele>
        <time>2016-10-30T09:43:30Z</time>
      </trkpt>
      <trkpt lat="42.81667" lon="1.41596">
        <ele>1942.96</ele>
        <time>2016-10-30T09:43:48Z</time>
      </trkpt>
      <trkpt lat="42.81667" lon="1.41596">
        <ele>1943.44</ele>
        <time>2016-10-30T09:44:16Z</time>
      </trkpt>
      <trkpt lat="42.81667" lon="1.41596">
        <ele>1943.44</ele>
        <time>2016-10-30T09:44:34Z</time>
      </trkpt>
      <trkpt lat="42.81667" lon="1.41596">
        <ele>1943.44</ele>
        <time>2016-10-30T09:44:56Z</time>
      </trkpt>
      <trkpt lat="42.81667" lon="1.41595">
        <ele>1943.44</ele>
        <time>2016-10-30T09:45:12Z</time>
      </trkpt>
      <trkpt lat="42.81667" lon="1.41594">
        <ele>1943.44</ele>
        <time>2016-10-30T09:45:36Z</time>
      </trkpt>
      <trkpt lat="42.81666" lon="1.41594">
        <ele>1943.44</ele>
        <time>2016-10-30T09:45:54Z</time>
      </trkpt>
      <trkpt lat="42.81666" lon="1.41593">
        <ele>1943.44</ele>
        <time>2016-10-30T09:46:17Z</time>
      </trkpt>
      <trkpt lat="42.81667" lon="1.41593">
        <ele>1943.44</ele>
        <time>2016-10-30T09:46:37Z</time>
      </trkpt>
      <trkpt lat="42.81667" lon="1.41593">
        <ele>1943.44</ele>
        <time>2016-10-30T09:47:02Z</time>
      </trkpt>
      <trkpt lat="42.81667" lon="1.41593">
        <ele>1943.44</ele>
        <time>2016-10-30T09:47:17Z</time>
      </trkpt>
      <trkpt lat="42.81667" lon="1.41593">
        <ele>1943.44</ele>
        <time>2016-10-30T09:47:38Z</time>
      </trkpt>
      <trkpt lat="42.81667" lon="1.41593">
        <ele>1943.44</ele>
        <time>2016-10-30T09:48:01Z</time>
      </trkpt>
      <trkpt lat="42.81668" lon="1.41593">
        <ele>1943.92</ele>
        <time>2016-10-30T09:48:23Z</time>
      </trkpt>
      <trkpt lat="42.81668" lon="1.41593">
        <ele>1943.92</ele>
        <time>2016-10-30T09:48:47Z</time>
      </trkpt>
      <trkpt lat="42.81668" lon="1.41593">
        <ele>1943.92</ele>
        <time>2016-10-30T09:49:05Z</time>
      </trkpt>
      <trkpt lat="42.81668" lon="1.41593">
        <ele>1943.92</ele>
        <time>2016-10-30T09:49:31Z</time>
      </trkpt>
      <trkpt lat="42.81668" lon="1.41593">
        <ele>1943.92</ele>
        <time>2016-10-30T09:49:55Z</time>
      </trkpt>
      <trkpt lat="42.81668" lon="1.41593">
        <ele>1943.92</ele>
        <time>2016-10-30T09:50:16Z</time>
      </trkpt>
      <trkpt lat="42.81668" lon="1.41593">
        <ele>1943.92</ele>
        <time>2016-10-30T09:50:50Z</time>
      </trkpt>
      <trkpt lat="42.81668" lon="1.41593">
        <ele>1943.92</ele>
        <time>2016-10-30T09:51:09Z</time>
      </trkpt>
      <trkpt lat="42.81668" lon="1.41593">
        <ele>1944.4</ele>
        <time>2016-10-30T09:51:30Z</time>
      </trkpt>
      <trkpt lat="42.81669" lon="1.41591">
        <ele>1944.4</ele>
        <time>2016-10-30T09:51:40Z</time>
      </trkpt>
      <trkpt lat="42.81669" lon="1.41591">
        <ele>1944.4</ele>
        <time>2016-10-30T09:51:58Z</time>
      </trkpt>
      <trkpt lat="42.8167" lon="1.41591">
        <ele>1944.4</ele>
        <time>2016-10-30T09:52:14Z</time>
      </trkpt>
      <trkpt lat="42.81671" lon="1.41591">
        <ele>1944.4</ele>
        <time>2016-10-30T09:52:34Z</time>
      </trkpt>
      <trkpt lat="42.81672" lon="1.41591">
        <ele>1944.4</ele>
        <time>2016-10-30T09:52:57Z</time>
      </trkpt>
      <trkpt lat="42.81671" lon="1.4159">
        <ele>1944.4</ele>
        <time>2016-10-30T09:53:11Z</time>
      </trkpt>
      <trkpt lat="42.81671" lon="1.4159">
        <ele>1944.4</ele>
        <time>2016-10-30T09:53:29Z</time>
      </trkpt>
      <trkpt lat="42.8167" lon="1.4159">
        <ele>1944.4</ele>
        <time>2016-10-30T09:53:49Z</time>
      </trkpt>
      <trkpt lat="42.8167" lon="1.4159">
        <ele>1944.4</ele>
        <time>2016-10-30T09:54:12Z</time>
      </trkpt>
      <trkpt lat="42.8167" lon="1.4159">
        <ele>1944.4</ele>
        <time>2016-10-30T09:54:32Z</time>
      </trkpt>
      <trkpt lat="42.8167" lon="1.41591">
        <ele>1944.4</ele>
        <time>2016-10-30T09:54:51Z</time>
      </trkpt>
      <trkpt lat="42.81671" lon="1.41591">
        <ele>1944.4</ele>
        <time>2016-10-30T09:55:11Z</time>
      </trkpt>
      <trkpt lat="42.81671" lon="1.4159">
        <ele>1944.4</ele>
        <time>2016-10-30T09:55:37Z</time>
      </trkpt>
      <trkpt lat="42.81671" lon="1.4159">
        <ele>1944.88</ele>
        <time>2016-10-30T09:56:05Z</time>
      </trkpt>
      <trkpt lat="42.81673" lon="1.41589">
        <ele>1944.88</ele>
        <time>2016-10-30T09:56:21Z</time>
      </trkpt>
      <trkpt lat="42.81679" lon="1.41582">
        <ele>1944.88</ele>
        <time>2016-10-30T09:56:29Z</time>
      </trkpt>
      <trkpt lat="42.8168" lon="1.41577">
        <ele>1944.88</ele>
        <time>2016-10-30T09:56:33Z</time>
      </trkpt>
      <trkpt lat="42.81686" lon="1.41571">
        <ele>1944.88</ele>
        <time>2016-10-30T09:56:40Z</time>
      </trkpt>
      <trkpt lat="42.81691" lon="1.41564">
        <ele>1944.88</ele>
        <time>2016-10-30T09:56:47Z</time>
      </trkpt>
      <trkpt lat="42.81696" lon="1.41558">
        <ele>1945.36</ele>
        <time>2016-10-30T09:56:54Z</time>
      </trkpt>
      <trkpt lat="42.81697" lon="1.41554">
        <ele>1945.36</ele>
        <time>2016-10-30T09:56:57Z</time>
      </trkpt>
      <trkpt lat="42.81708" lon="1.41546">
        <ele>1945.36</ele>
        <time>2016-10-30T09:57:08Z</time>
      </trkpt>
      <trkpt lat="42.81712" lon="1.41544">
        <ele>1945.36</ele>
        <time>2016-10-30T09:57:12Z</time>
      </trkpt>
      <trkpt lat="42.8172" lon="1.41535">
        <ele>1945.36</ele>
        <time>2016-10-30T09:57:23Z</time>
      </trkpt>
      <trkpt lat="42.81721" lon="1.41534">
        <ele>1945.36</ele>
        <time>2016-10-30T09:57:24Z</time>
      </trkpt>
      <trkpt lat="42.81724" lon="1.41534">
        <ele>1945.36</ele>
        <time>2016-10-30T09:57:27Z</time>
      </trkpt>
      <trkpt lat="42.81731" lon="1.41528">
        <ele>1945.36</ele>
        <time>2016-10-30T09:57:34Z</time>
      </trkpt>
      <trkpt lat="42.81733" lon="1.41529">
        <ele>1945.36</ele>
        <time>2016-10-30T09:57:36Z</time>
      </trkpt>
      <trkpt lat="42.81742" lon="1.41524">
        <ele>1945.36</ele>
        <time>2016-10-30T09:57:46Z</time>
      </trkpt>
      <trkpt lat="42.81754" lon="1.41517">
        <ele>1946.81</ele>
        <time>2016-10-30T09:57:59Z</time>
      </trkpt>
      <trkpt lat="42.81763" lon="1.41515">
        <ele>1948.25</ele>
        <time>2016-10-30T09:58:10Z</time>
      </trkpt>
      <trkpt lat="42.81772" lon="1.41512">
        <ele>1949.21</ele>
        <time>2016-10-30T09:58:20Z</time>
      </trkpt>
      <trkpt lat="42.81775" lon="1.41511">
        <ele>1951.13</ele>
        <time>2016-10-30T09:58:25Z</time>
      </trkpt>
      <trkpt lat="42.8178" lon="1.4151">
        <ele>1954.5</ele>
        <time>2016-10-30T09:58:31Z</time>
      </trkpt>
      <trkpt lat="42.81791" lon="1.41508">
        <ele>1955.46</ele>
        <time>2016-10-30T09:58:43Z</time>
      </trkpt>
      <trkpt lat="42.81797" lon="1.41505">
        <ele>1955.94</ele>
        <time>2016-10-30T09:58:52Z</time>
      </trkpt>
      <trkpt lat="42.81805" lon="1.41513">
        <ele>1957.38</ele>
        <time>2016-10-30T09:59:06Z</time>
      </trkpt>
      <trkpt lat="42.81807" lon="1.41515">
        <ele>1957.38</ele>
        <time>2016-10-30T09:59:11Z</time>
      </trkpt>
      <trkpt lat="42.81813" lon="1.41519">
        <ele>1957.38</ele>
        <time>2016-10-30T09:59:21Z</time>
      </trkpt>
      <trkpt lat="42.8182" lon="1.41521">
        <ele>1957.38</ele>
        <time>2016-10-30T09:59:30Z</time>
      </trkpt>
      <trkpt lat="42.81824" lon="1.41525">
        <ele>1957.38</ele>
        <time>2016-10-30T09:59:35Z</time>
      </trkpt>
      <trkpt lat="42.81831" lon="1.4153">
        <ele>1957.86</ele>
        <time>2016-10-30T09:59:48Z</time>
      </trkpt>
      <trkpt lat="42.81833" lon="1.41533">
        <ele>1958.34</ele>
        <time>2016-10-30T09:59:53Z</time>
      </trkpt>
      <trkpt lat="42.81843" lon="1.41537">
        <ele>1959.78</ele>
        <time>2016-10-30T10:00:07Z</time>
      </trkpt>
      <trkpt lat="42.81848" lon="1.41541">
        <ele>1959.78</ele>
        <time>2016-10-30T10:00:16Z</time>
      </trkpt>
      <trkpt lat="42.81849" lon="1.41543">
        <ele>1959.78</ele>
        <time>2016-10-30T10:00:19Z</time>
      </trkpt>
      <trkpt lat="42.81857" lon="1.41546">
        <ele>1958.82</ele>
        <time>2016-10-30T10:00:28Z</time>
      </trkpt>
      <trkpt lat="42.81868" lon="1.41546">
        <ele>1958.82</ele>
        <time>2016-10-30T10:00:40Z</time>
      </trkpt>
      <trkpt lat="42.8187" lon="1.41546">
        <ele>1958.82</ele>
        <time>2016-10-30T10:00:44Z</time>
      </trkpt>
      <trkpt lat="42.81872" lon="1.41546">
        <ele>1958.82</ele>
        <time>2016-10-30T10:00:48Z</time>
      </trkpt>
      <trkpt lat="42.81875" lon="1.41546">
        <ele>1958.82</ele>
        <time>2016-10-30T10:00:51Z</time>
      </trkpt>
      <trkpt lat="42.81879" lon="1.41551">
        <ele>1957.86</ele>
        <time>2016-10-30T10:00:58Z</time>
      </trkpt>
      <trkpt lat="42.81883" lon="1.41552">
        <ele>1956.9</ele>
        <time>2016-10-30T10:01:03Z</time>
      </trkpt>
      <trkpt lat="42.81885" lon="1.41554">
        <ele>1956.42</ele>
        <time>2016-10-30T10:01:06Z</time>
      </trkpt>
      <trkpt lat="42.81894" lon="1.41561">
        <ele>1954.98</ele>
        <time>2016-10-30T10:01:20Z</time>
      </trkpt>
      <trkpt lat="42.81905" lon="1.41568">
        <ele>1952.57</ele>
        <time>2016-10-30T10:01:34Z</time>
      </trkpt>
      <trkpt lat="42.81913" lon="1.41573">
        <ele>1951.13</ele>
        <time>2016-10-30T10:01:44Z</time>
      </trkpt>
      <trkpt lat="42.8192" lon="1.41578">
        <ele>1947.77</ele>
        <time>2016-10-30T10:01:53Z</time>
      </trkpt>
      <trkpt lat="42.81925" lon="1.4158">
        <ele>1944.4</ele>
        <time>2016-10-30T10:01:59Z</time>
      </trkpt>
      <trkpt lat="42.81928" lon="1.41584">
        <ele>1944.4</ele>
        <time>2016-10-30T10:02:03Z</time>
      </trkpt>
      <trkpt lat="42.81931" lon="1.41586">
        <ele>1944.4</ele>
        <time>2016-10-30T10:02:06Z</time>
      </trkpt>
      <trkpt lat="42.81938" lon="1.4159">
        <ele>1944.4</ele>
        <time>2016-10-30T10:02:15Z</time>
      </trkpt>
      <trkpt lat="42.81941" lon="1.4159">
        <ele>1946.33</ele>
        <time>2016-10-30T10:02:28Z</time>
      </trkpt>
      <trkpt lat="42.81942" lon="1.41587">
        <ele>1947.29</ele>
        <time>2016-10-30T10:02:38Z</time>
      </trkpt>
      <trkpt lat="42.81946" lon="1.41588">
        <ele>1949.21</ele>
        <time>2016-10-30T10:02:48Z</time>
      </trkpt>
      <trkpt lat="42.8195" lon="1.41586">
        <ele>1952.09</ele>
        <time>2016-10-30T10:02:56Z</time>
      </trkpt>
      <trkpt lat="42.81953" lon="1.41588">
        <ele>1954.98</ele>
        <time>2016-10-30T10:03:02Z</time>
      </trkpt>
      <trkpt lat="42.81957" lon="1.41593">
        <ele>1954.98</ele>
        <time>2016-10-30T10:03:14Z</time>
      </trkpt>
      <trkpt lat="42.81958" lon="1.41594">
        <ele>1954.98</ele>
        <time>2016-10-30T10:03:18Z</time>
      </trkpt>
      <trkpt lat="42.81961" lon="1.41603">
        <ele>1955.46</ele>
        <time>2016-10-30T10:03:30Z</time>
      </trkpt>
      <trkpt lat="42.81962" lon="1.41606">
        <ele>1956.42</ele>
        <time>2016-10-30T10:03:33Z</time>
      </trkpt>
      <trkpt lat="42.81967" lon="1.41611">
        <ele>1957.38</ele>
        <time>2016-10-30T10:03:43Z</time>
      </trkpt>
      <trkpt lat="42.81973" lon="1.41618">
        <ele>1959.78</ele>
        <time>2016-10-30T10:03:55Z</time>
      </trkpt>
      <trkpt lat="42.81978" lon="1.41624">
        <ele>1962.19</ele>
        <time>2016-10-30T10:04:08Z</time>
      </trkpt>
      <trkpt lat="42.81981" lon="1.41631">
        <ele>1965.07</ele>
        <time>2016-10-30T10:04:21Z</time>
      </trkpt>
      <trkpt lat="42.81978" lon="1.4163">
        <ele>1965.55</ele>
        <time>2016-10-30T10:04:31Z</time>
      </trkpt>
      <trkpt lat="42.81978" lon="1.41631">
        <ele>1966.51</ele>
        <time>2016-10-30T10:04:55Z</time>
      </trkpt>
      <trkpt lat="42.81977" lon="1.41631">
        <ele>1966.51</ele>
        <time>2016-10-30T10:05:14Z</time>
      </trkpt>
      <trkpt lat="42.81977" lon="1.41631">
        <ele>1966.51</ele>
        <time>2016-10-30T10:05:43Z</time>
      </trkpt>
      <trkpt lat="42.81983" lon="1.41633">
        <ele>1966.51</ele>
        <time>2016-10-30T10:05:59Z</time>
      </trkpt>
      <trkpt lat="42.8199" lon="1.41638">
        <ele>1967.48</ele>
        <time>2016-10-30T10:06:09Z</time>
      </trkpt>
      <trkpt lat="42.8199" lon="1.4164">
        <ele>1967.48</ele>
        <time>2016-10-30T10:06:11Z</time>
      </trkpt>
      <trkpt lat="42.81999" lon="1.4165">
        <ele>1969.88</ele>
        <time>2016-10-30T10:06:25Z</time>
      </trkpt>
      <trkpt lat="42.82001" lon="1.41652">
        <ele>1970.84</ele>
        <time>2016-10-30T10:06:30Z</time>
      </trkpt>
      <trkpt lat="42.82006" lon="1.41656">
        <ele>1974.2</ele>
        <time>2016-10-30T10:06:40Z</time>
      </trkpt>
      <trkpt lat="42.82008" lon="1.41659">
        <ele>1977.57</ele>
        <time>2016-10-30T10:06:45Z</time>
      </trkpt>
      <trkpt lat="42.82005" lon="1.41663">
        <ele>1979.49</ele>
        <time>2016-10-30T10:06:54Z</time>
      </trkpt>
      <trkpt lat="42.82004" lon="1.41665">
        <ele>1979.49</ele>
        <time>2016-10-30T10:07:00Z</time>
      </trkpt>
      <trkpt lat="42.82004" lon="1.41674">
        <ele>1980.93</ele>
        <time>2016-10-30T10:07:13Z</time>
      </trkpt>
      <trkpt lat="42.82007" lon="1.41675">
        <ele>1982.38</ele>
        <time>2016-10-30T10:07:21Z</time>
      </trkpt>
      <trkpt lat="42.82011" lon="1.41681">
        <ele>1984.3</ele>
        <time>2016-10-30T10:07:34Z</time>
      </trkpt>
      <trkpt lat="42.82012" lon="1.41687">
        <ele>1986.22</ele>
        <time>2016-10-30T10:07:44Z</time>
      </trkpt>
      <trkpt lat="42.82015" lon="1.41689">
        <ele>1987.18</ele>
        <time>2016-10-30T10:07:50Z</time>
      </trkpt>
      <trkpt lat="42.82019" lon="1.41696">
        <ele>1989.59</ele>
        <time>2016-10-30T10:08:02Z</time>
      </trkpt>
      <trkpt lat="42.82019" lon="1.417">
        <ele>1992.95</ele>
        <time>2016-10-30T10:08:10Z</time>
      </trkpt>
      <trkpt lat="42.82017" lon="1.417">
        <ele>1996.32</ele>
        <time>2016-10-30T10:08:15Z</time>
      </trkpt>
      <trkpt lat="42.82016" lon="1.417">
        <ele>1994.87</ele>
        <time>2016-10-30T10:08:33Z</time>
      </trkpt>
      <trkpt lat="42.82016" lon="1.41701">
        <ele>1994.39</ele>
        <time>2016-10-30T10:09:03Z</time>
      </trkpt>
      <trkpt lat="42.82015" lon="1.417">
        <ele>1994.39</ele>
        <time>2016-10-30T10:09:27Z</time>
      </trkpt>
      <trkpt lat="42.82015" lon="1.41701">
        <ele>1994.39</ele>
        <time>2016-10-30T10:09:52Z</time>
      </trkpt>
      <trkpt lat="42.82015" lon="1.41701">
        <ele>1994.39</ele>
        <time>2016-10-30T10:10:12Z</time>
      </trkpt>
      <trkpt lat="42.82015" lon="1.41701">
        <ele>1994.39</ele>
        <time>2016-10-30T10:10:40Z</time>
      </trkpt>
      <trkpt lat="42.82015" lon="1.41701">
        <ele>1994.39</ele>
        <time>2016-10-30T10:11:12Z</time>
      </trkpt>
      <trkpt lat="42.82015" lon="1.41701">
        <ele>1994.39</ele>
        <time>2016-10-30T10:11:35Z</time>
      </trkpt>
      <trkpt lat="42.82024" lon="1.41704">
        <ele>1994.39</ele>
        <time>2016-10-30T10:11:47Z</time>
      </trkpt>
      <trkpt lat="42.82032" lon="1.41711">
        <ele>1994.39</ele>
        <time>2016-10-30T10:11:56Z</time>
      </trkpt>
      <trkpt lat="42.82036" lon="1.41716">
        <ele>1994.39</ele>
        <time>2016-10-30T10:12:02Z</time>
      </trkpt>
      <trkpt lat="42.82043" lon="1.41729">
        <ele>1994.87</ele>
        <time>2016-10-30T10:12:15Z</time>
      </trkpt>
      <trkpt lat="42.82054" lon="1.41735">
        <ele>1994.39</ele>
        <time>2016-10-30T10:12:26Z</time>
      </trkpt>
      <trkpt lat="42.82058" lon="1.41737">
        <ele>1994.39</ele>
        <time>2016-10-30T10:12:30Z</time>
      </trkpt>
      <trkpt lat="42.82064" lon="1.41745">
        <ele>1994.39</ele>
        <time>2016-10-30T10:12:40Z</time>
      </trkpt>
      <trkpt lat="42.82065" lon="1.41746">
        <ele>1994.39</ele>
        <time>2016-10-30T10:12:42Z</time>
      </trkpt>
      <trkpt lat="42.82072" lon="1.41748">
        <ele>1995.35</ele>
        <time>2016-10-30T10:12:52Z</time>
      </trkpt>
      <trkpt lat="42.82076" lon="1.4175">
        <ele>1995.83</ele>
        <time>2016-10-30T10:12:56Z</time>
      </trkpt>
      <trkpt lat="42.82086" lon="1.4176">
        <ele>1996.8</ele>
        <time>2016-10-30T10:13:08Z</time>
      </trkpt>
      <trkpt lat="42.82095" lon="1.41766">
        <ele>1998.72</ele>
        <time>2016-10-30T10:13:20Z</time>
      </trkpt>
      <trkpt lat="42.82102" lon="1.41775">
        <ele>2000.16</ele>
        <time>2016-10-30T10:13:31Z</time>
      </trkpt>
      <trkpt lat="42.82103" lon="1.41777">
        <ele>2000.16</ele>
        <time>2016-10-30T10:13:33Z</time>
      </trkpt>
      <trkpt lat="42.82105" lon="1.41783">
        <ele>2001.6</ele>
        <time>2016-10-30T10:13:47Z</time>
      </trkpt>
      <trkpt lat="42.82105" lon="1.41783">
        <ele>2002.08</ele>
        <time>2016-10-30T10:14:07Z</time>
      </trkpt>
      <trkpt lat="42.82104" lon="1.41782">
        <ele>2002.08</ele>
        <time>2016-10-30T10:14:28Z</time>
      </trkpt>
      <trkpt lat="42.82105" lon="1.41783">
        <ele>2002.08</ele>
        <time>2016-10-30T10:14:47Z</time>
      </trkpt>
      <trkpt lat="42.82105" lon="1.41785">
        <ele>2002.08</ele>
        <time>2016-10-30T10:14:50Z</time>
      </trkpt>
      <trkpt lat="42.82108" lon="1.41788">
        <ele>2002.08</ele>
        <time>2016-10-30T10:14:53Z</time>
      </trkpt>
      <trkpt lat="42.82111" lon="1.41792">
        <ele>2002.08</ele>
        <time>2016-10-30T10:14:57Z</time>
      </trkpt>
      <trkpt lat="42.82115" lon="1.41793">
        <ele>2002.08</ele>
        <time>2016-10-30T10:15:01Z</time>
      </trkpt>
      <trkpt lat="42.82117" lon="1.41796">
        <ele>2000.64</ele>
        <time>2016-10-30T10:15:04Z</time>
      </trkpt>
      <trkpt lat="42.82121" lon="1.41798">
        <ele>2000.16</ele>
        <time>2016-10-30T10:15:08Z</time>
      </trkpt>
      <trkpt lat="42.82125" lon="1.41806">
        <ele>1999.2</ele>
        <time>2016-10-30T10:15:16Z</time>
      </trkpt>
      <trkpt lat="42.82133" lon="1.41815">
        <ele>1995.35</ele>
        <time>2016-10-30T10:15:28Z</time>
      </trkpt>
      <trkpt lat="42.82135" lon="1.41818">
        <ele>1991.99</ele>
        <time>2016-10-30T10:15:33Z</time>
      </trkpt>
      <trkpt lat="42.82135" lon="1.41819">
        <ele>1991.99</ele>
        <time>2016-10-30T10:15:34Z</time>
      </trkpt>
      <trkpt lat="42.82138" lon="1.41823">
        <ele>1991.03</ele>
        <time>2016-10-30T10:15:38Z</time>
      </trkpt>
      <trkpt lat="42.82142" lon="1.41827">
        <ele>1991.03</ele>
        <time>2016-10-30T10:15:42Z</time>
      </trkpt>
      <trkpt lat="42.82143" lon="1.4183">
        <ele>1991.03</ele>
        <time>2016-10-30T10:15:44Z</time>
      </trkpt>
      <trkpt lat="42.82148" lon="1.41835">
        <ele>1989.59</ele>
        <time>2016-10-30T10:15:52Z</time>
      </trkpt>
      <trkpt lat="42.82151" lon="1.41834">
        <ele>1989.1</ele>
        <time>2016-10-30T10:15:55Z</time>
      </trkpt>
      <trkpt lat="42.82159" lon="1.41838">
        <ele>1985.26</ele>
        <time>2016-10-30T10:16:05Z</time>
      </trkpt>
      <trkpt lat="42.82159" lon="1.41839">
        <ele>1984.78</ele>
        <time>2016-10-30T10:16:06Z</time>
      </trkpt>
      <trkpt lat="42.82162" lon="1.41845">
        <ele>1982.38</ele>
        <time>2016-10-30T10:16:11Z</time>
      </trkpt>
      <trkpt lat="42.82166" lon="1.41848">
        <ele>1981.9</ele>
        <time>2016-10-30T10:16:21Z</time>
      </trkpt>
      <trkpt lat="42.82173" lon="1.41855">
        <ele>1980.45</ele>
        <time>2016-10-30T10:16:33Z</time>
      </trkpt>
      <trkpt lat="42.82174" lon="1.41857">
        <ele>1980.45</ele>
        <time>2016-10-30T10:16:34Z</time>
      </trkpt>
      <trkpt lat="42.82182" lon="1.41866">
        <ele>1978.53</ele>
        <time>2016-10-30T10:16:46Z</time>
      </trkpt>
      <trkpt lat="42.82183" lon="1.41867">
        <ele>1977.57</ele>
        <time>2016-10-30T10:16:48Z</time>
      </trkpt>
      <trkpt lat="42.82187" lon="1.41874">
        <ele>1976.61</ele>
        <time>2016-10-30T10:16:56Z</time>
      </trkpt>
      <trkpt lat="42.82193" lon="1.41881">
        <ele>1975.17</ele>
        <time>2016-10-30T10:17:05Z</time>
      </trkpt>
      <trkpt lat="42.82199" lon="1.4189">
        <ele>1972.28</ele>
        <time>2016-10-30T10:17:18Z</time>
      </trkpt>
      <trkpt lat="42.82207" lon="1.41895">
        <ele>1969.88</ele>
        <time>2016-10-30T10:17:31Z</time>
      </trkpt>
      <trkpt lat="42.82213" lon="1.41899">
        <ele>1966.03</ele>
        <time>2016-10-30T10:17:39Z</time>
      </trkpt>
      <trkpt lat="42.82215" lon="1.41901">
        <ele>1962.67</ele>
        <time>2016-10-30T10:17:43Z</time>
      </trkpt>
      <trkpt lat="42.82216" lon="1.41901">
        <ele>1962.19</ele>
        <time>2016-10-30T10:17:45Z</time>
      </trkpt>
      <trkpt lat="42.82224" lon="1.41904">
        <ele>1962.19</ele>
        <time>2016-10-30T10:17:55Z</time>
      </trkpt>
      <trkpt lat="42.82234" lon="1.41914">
        <ele>1960.75</ele>
        <time>2016-10-30T10:18:08Z</time>
      </trkpt>
      <trkpt lat="42.82235" lon="1.41914">
        <ele>1960.75</ele>
        <time>2016-10-30T10:18:09Z</time>
      </trkpt>
      <trkpt lat="42.82238" lon="1.41916">
        <ele>1959.78</ele>
        <time>2016-10-30T10:18:12Z</time>
      </trkpt>
      <trkpt lat="42.82252" lon="1.41928">
        <ele>1958.82</ele>
        <time>2016-10-30T10:18:28Z</time>
      </trkpt>
      <trkpt lat="42.82255" lon="1.4193">
        <ele>1958.34</ele>
        <time>2016-10-30T10:18:32Z</time>
      </trkpt>
      <trkpt lat="42.82267" lon="1.41931">
        <ele>1957.86</ele>
        <time>2016-10-30T10:18:44Z</time>
      </trkpt>
      <trkpt lat="42.82271" lon="1.41933">
        <ele>1957.38</ele>
        <time>2016-10-30T10:18:56Z</time>
      </trkpt>
      <trkpt lat="42.82276" lon="1.41935">
        <ele>1957.38</ele>
        <time>2016-10-30T10:19:01Z</time>
      </trkpt>
      <trkpt lat="42.82291" lon="1.41939">
        <ele>1957.38</ele>
        <time>2016-10-30T10:19:14Z</time>
      </trkpt>
      <trkpt lat="42.82292" lon="1.41939">
        <ele>1957.38</ele>
        <time>2016-10-30T10:19:15Z</time>
      </trkpt>
      <trkpt lat="42.82302" lon="1.41944">
        <ele>1957.38</ele>
        <time>2016-10-30T10:19:26Z</time>
      </trkpt>
      <trkpt lat="42.82308" lon="1.41946">
        <ele>1958.82</ele>
        <time>2016-10-30T10:19:34Z</time>
      </trkpt>
      <trkpt lat="42.8231" lon="1.41948">
        <ele>1958.82</ele>
        <time>2016-10-30T10:19:36Z</time>
      </trkpt>
      <trkpt lat="42.8232" lon="1.41953">
        <ele>1960.27</ele>
        <time>2016-10-30T10:19:48Z</time>
      </trkpt>
      <trkpt lat="42.82331" lon="1.41958">
        <ele>1962.19</ele>
        <time>2016-10-30T10:20:00Z</time>
      </trkpt>
      <trkpt lat="42.82341" lon="1.41962">
        <ele>1962.67</ele>
        <time>2016-10-30T10:20:11Z</time>
      </trkpt>
      <trkpt lat="42.82352" lon="1.41968">
        <ele>1963.15</ele>
        <time>2016-10-30T10:20:24Z</time>
      </trkpt>
      <trkpt lat="42.82356" lon="1.41969">
        <ele>1963.15</ele>
        <time>2016-10-30T10:20:28Z</time>
      </trkpt>
      <trkpt lat="42.82358" lon="1.4197">
        <ele>1963.15</ele>
        <time>2016-10-30T10:20:30Z</time>
      </trkpt>
      <trkpt lat="42.82359" lon="1.41971">
        <ele>1963.15</ele>
        <time>2016-10-30T10:20:32Z</time>
      </trkpt>
      <trkpt lat="42.82361" lon="1.41972">
        <ele>1963.63</ele>
        <time>2016-10-30T10:20:34Z</time>
      </trkpt>
      <trkpt lat="42.82363" lon="1.41973">
        <ele>1963.63</ele>
        <time>2016-10-30T10:20:36Z</time>
      </trkpt>
      <trkpt lat="42.82365" lon="1.41975">
        <ele>1963.63</ele>
        <time>2016-10-30T10:20:38Z</time>
      </trkpt>
      <trkpt lat="42.82367" lon="1.41976">
        <ele>1963.63</ele>
        <time>2016-10-30T10:20:40Z</time>
      </trkpt>
      <trkpt lat="42.82368" lon="1.41977">
        <ele>1963.63</ele>
        <time>2016-10-30T10:20:42Z</time>
      </trkpt>
      <trkpt lat="42.82372" lon="1.41979">
        <ele>1963.63</ele>
        <time>2016-10-30T10:20:46Z</time>
      </trkpt>
      <trkpt lat="42.82375" lon="1.4198">
        <ele>1963.63</ele>
        <time>2016-10-30T10:20:49Z</time>
      </trkpt>
      <trkpt lat="42.82377" lon="1.41981">
        <ele>1964.11</ele>
        <time>2016-10-30T10:20:51Z</time>
      </trkpt>
      <trkpt lat="42.82382" lon="1.41985">
        <ele>1964.11</ele>
        <time>2016-10-30T10:20:56Z</time>
      </trkpt>
      <trkpt lat="42.82383" lon="1.41988">
        <ele>1964.59</ele>
        <time>2016-10-30T10:20:59Z</time>
      </trkpt>
      <trkpt lat="42.82388" lon="1.41993">
        <ele>1965.07</ele>
        <time>2016-10-30T10:21:05Z</time>
      </trkpt>
      <trkpt lat="42.8239" lon="1.41997">
        <ele>1965.55</ele>
        <time>2016-10-30T10:21:10Z</time>
      </trkpt>
      <trkpt lat="42.82396" lon="1.42002">
        <ele>1966.99</ele>
        <time>2016-10-30T10:21:19Z</time>
      </trkpt>
      <trkpt lat="42.82398" lon="1.42005">
        <ele>1966.99</ele>
        <time>2016-10-30T10:21:22Z</time>
      </trkpt>
      <trkpt lat="42.82403" lon="1.42016">
        <ele>1969.4</ele>
        <time>2016-10-30T10:21:34Z</time>
      </trkpt>
      <trkpt lat="42.8241" lon="1.42022">
        <ele>1970.84</ele>
        <time>2016-10-30T10:21:46Z</time>
      </trkpt>
      <trkpt lat="42.82413" lon="1.42024">
        <ele>1971.32</ele>
        <time>2016-10-30T10:21:50Z</time>
      </trkpt>
      <trkpt lat="42.82419" lon="1.42027">
        <ele>1972.28</ele>
        <time>2016-10-30T10:21:57Z</time>
      </trkpt>
      <trkpt lat="42.82426" lon="1.42038">
        <ele>1974.2</ele>
        <time>2016-10-30T10:22:10Z</time>
      </trkpt>
      <trkpt lat="42.82429" lon="1.42043">
        <ele>1975.17</ele>
        <time>2016-10-30T10:22:17Z</time>
      </trkpt>
      <trkpt lat="42.82433" lon="1.42048">
        <ele>1976.61</ele>
        <time>2016-10-30T10:22:24Z</time>
      </trkpt>
      <trkpt lat="42.82438" lon="1.42057">
        <ele>1978.53</ele>
        <time>2016-10-30T10:22:36Z</time>
      </trkpt>
      <trkpt lat="42.82441" lon="1.42066">
        <ele>1979.97</ele>
        <time>2016-10-30T10:22:46Z</time>
      </trkpt>
      <trkpt lat="42.82446" lon="1.42077">
        <ele>1981.9</ele>
        <time>2016-10-30T10:22:59Z</time>
      </trkpt>
      <trkpt lat="42.82452" lon="1.42082">
        <ele>1983.82</ele>
        <time>2016-10-30T10:23:09Z</time>
      </trkpt>
      <trkpt lat="42.82458" lon="1.42093">
        <ele>1985.74</ele>
        <time>2016-10-30T10:23:22Z</time>
      </trkpt>
      <trkpt lat="42.82462" lon="1.42098">
        <ele>1986.7</ele>
        <time>2016-10-30T10:23:29Z</time>
      </trkpt>
      <trkpt lat="42.82469" lon="1.42107">
        <ele>1990.07</ele>
        <time>2016-10-30T10:23:43Z</time>
      </trkpt>
      <trkpt lat="42.82472" lon="1.42113">
        <ele>1991.03</ele>
        <time>2016-10-30T10:23:50Z</time>
      </trkpt>
      <trkpt lat="42.82477" lon="1.42123">
        <ele>1992.95</ele>
        <time>2016-10-30T10:24:02Z</time>
      </trkpt>
      <trkpt lat="42.82482" lon="1.42129">
        <ele>1994.87</ele>
        <time>2016-10-30T10:24:13Z</time>
      </trkpt>
      <trkpt lat="42.82487" lon="1.42138">
        <ele>1997.28</ele>
        <time>2016-10-30T10:24:24Z</time>
      </trkpt>
      <trkpt lat="42.82491" lon="1.42149">
        <ele>1998.72</ele>
        <time>2016-10-30T10:24:35Z</time>
      </trkpt>
      <trkpt lat="42.82496" lon="1.42161">
        <ele>2000.64</ele>
        <time>2016-10-30T10:24:46Z</time>
      </trkpt>
      <trkpt lat="42.82496" lon="1.42163">
        <ele>2000.64</ele>
        <time>2016-10-30T10:24:48Z</time>
      </trkpt>
      <trkpt lat="42.82496" lon="1.42167">
        <ele>2001.12</ele>
        <time>2016-10-30T10:24:51Z</time>
      </trkpt>
      <trkpt lat="42.82497" lon="1.42174">
        <ele>2001.6</ele>
        <time>2016-10-30T10:24:56Z</time>
      </trkpt>
      <trkpt lat="42.82497" lon="1.42177">
        <ele>2002.08</ele>
        <time>2016-10-30T10:24:58Z</time>
      </trkpt>
      <trkpt lat="42.82499" lon="1.42181">
        <ele>2002.56</ele>
        <time>2016-10-30T10:25:01Z</time>
      </trkpt>
      <trkpt lat="42.82503" lon="1.42191">
        <ele>2002.56</ele>
        <time>2016-10-30T10:25:08Z</time>
      </trkpt>
      <trkpt lat="42.82505" lon="1.42196">
        <ele>2003.52</ele>
        <time>2016-10-30T10:25:12Z</time>
      </trkpt>
      <trkpt lat="42.82512" lon="1.42213">
        <ele>2004.01</ele>
        <time>2016-10-30T10:25:24Z</time>
      </trkpt>
      <trkpt lat="42.82512" lon="1.42216">
        <ele>2004.01</ele>
        <time>2016-10-30T10:25:26Z</time>
      </trkpt>
      <trkpt lat="42.82517" lon="1.42227">
        <ele>2005.93</ele>
        <time>2016-10-30T10:25:38Z</time>
      </trkpt>
      <trkpt lat="42.8252" lon="1.42239">
        <ele>2008.33</ele>
        <time>2016-10-30T10:25:50Z</time>
      </trkpt>
      <trkpt lat="42.82523" lon="1.42247">
        <ele>2010.25</ele>
        <time>2016-10-30T10:25:58Z</time>
      </trkpt>
      <trkpt lat="42.82527" lon="1.42257">
        <ele>2012.18</ele>
        <time>2016-10-30T10:26:09Z</time>
      </trkpt>
      <trkpt lat="42.82529" lon="1.42261">
        <ele>2013.14</ele>
        <time>2016-10-30T10:26:14Z</time>
      </trkpt>
      <trkpt lat="42.82532" lon="1.42268">
        <ele>2016.02</ele>
        <time>2016-10-30T10:26:20Z</time>
      </trkpt>
      <trkpt lat="42.82538" lon="1.42281">
        <ele>2016.5</ele>
        <time>2016-10-30T10:26:32Z</time>
      </trkpt>
      <trkpt lat="42.82539" lon="1.42283">
        <ele>2016.5</ele>
        <time>2016-10-30T10:26:34Z</time>
      </trkpt>
      <trkpt lat="42.82544" lon="1.42289">
        <ele>2016.98</ele>
        <time>2016-10-30T10:26:41Z</time>
      </trkpt>
      <trkpt lat="42.82548" lon="1.42297">
        <ele>2017.94</ele>
        <time>2016-10-30T10:26:49Z</time>
      </trkpt>
      <trkpt lat="42.82551" lon="1.42306">
        <ele>2019.39</ele>
        <time>2016-10-30T10:26:58Z</time>
      </trkpt>
      <trkpt lat="42.82553" lon="1.42312">
        <ele>2020.35</ele>
        <time>2016-10-30T10:27:03Z</time>
      </trkpt>
      <trkpt lat="42.82556" lon="1.42317">
        <ele>2020.83</ele>
        <time>2016-10-30T10:27:09Z</time>
      </trkpt>
      <trkpt lat="42.82557" lon="1.42331">
        <ele>2022.27</ele>
        <time>2016-10-30T10:27:21Z</time>
      </trkpt>
      <trkpt lat="42.82563" lon="1.42339">
        <ele>2023.71</ele>
        <time>2016-10-30T10:27:32Z</time>
      </trkpt>
      <trkpt lat="42.82564" lon="1.42342">
        <ele>2024.19</ele>
        <time>2016-10-30T10:27:35Z</time>
      </trkpt>
      <trkpt lat="42.82566" lon="1.4235">
        <ele>2025.15</ele>
        <time>2016-10-30T10:27:42Z</time>
      </trkpt>
      <trkpt lat="42.8257" lon="1.42358">
        <ele>2026.12</ele>
        <time>2016-10-30T10:27:50Z</time>
      </trkpt>
      <trkpt lat="42.82574" lon="1.42364">
        <ele>2027.56</ele>
        <time>2016-10-30T10:27:57Z</time>
      </trkpt>
      <trkpt lat="42.82574" lon="1.42368">
        <ele>2028.04</ele>
        <time>2016-10-30T10:28:01Z</time>
      </trkpt>
      <trkpt lat="42.82573" lon="1.42373">
        <ele>2029</ele>
        <time>2016-10-30T10:28:08Z</time>
      </trkpt>
      <trkpt lat="42.82576" lon="1.42382">
        <ele>2031.88</ele>
        <time>2016-10-30T10:28:19Z</time>
      </trkpt>
      <trkpt lat="42.82574" lon="1.42385">
        <ele>2035.25</ele>
        <time>2016-10-30T10:28:24Z</time>
      </trkpt>
      <trkpt lat="42.82572" lon="1.42386">
        <ele>2036.69</ele>
        <time>2016-10-30T10:28:40Z</time>
      </trkpt>
      <trkpt lat="42.82572" lon="1.42386">
        <ele>2036.69</ele>
        <time>2016-10-30T10:28:51Z</time>
      </trkpt>
      <trkpt lat="42.82571" lon="1.42386">
        <ele>2036.69</ele>
        <time>2016-10-30T10:29:05Z</time>
      </trkpt>
      <trkpt lat="42.82571" lon="1.42386">
        <ele>2036.69</ele>
        <time>2016-10-30T10:29:24Z</time>
      </trkpt>
      <trkpt lat="42.82571" lon="1.42386">
        <ele>2036.69</ele>
        <time>2016-10-30T10:29:40Z</time>
      </trkpt>
      <trkpt lat="42.82572" lon="1.42386">
        <ele>2036.69</ele>
        <time>2016-10-30T10:29:54Z</time>
      </trkpt>
      <trkpt lat="42.82572" lon="1.42386">
        <ele>2036.69</ele>
        <time>2016-10-30T10:30:21Z</time>
      </trkpt>
      <trkpt lat="42.82572" lon="1.42386">
        <ele>2036.69</ele>
        <time>2016-10-30T10:30:36Z</time>
      </trkpt>
      <trkpt lat="42.82572" lon="1.42385">
        <ele>2036.69</ele>
        <time>2016-10-30T10:31:04Z</time>
      </trkpt>
      <trkpt lat="42.82572" lon="1.42385">
        <ele>2036.69</ele>
        <time>2016-10-30T10:31:31Z</time>
      </trkpt>
      <trkpt lat="42.82573" lon="1.42385">
        <ele>2035.73</ele>
        <time>2016-10-30T10:31:53Z</time>
      </trkpt>
      <trkpt lat="42.82572" lon="1.42385">
        <ele>2035.73</ele>
        <time>2016-10-30T10:32:12Z</time>
      </trkpt>
      <trkpt lat="42.82572" lon="1.42385">
        <ele>2036.21</ele>
        <time>2016-10-30T10:32:45Z</time>
      </trkpt>
      <trkpt lat="42.82572" lon="1.42385">
        <ele>2036.21</ele>
        <time>2016-10-30T10:33:18Z</time>
      </trkpt>
      <trkpt lat="42.82573" lon="1.42385">
        <ele>2036.21</ele>
        <time>2016-10-30T10:33:50Z</time>
      </trkpt>
      <trkpt lat="42.82573" lon="1.42385">
        <ele>2036.21</ele>
        <time>2016-10-30T10:34:16Z</time>
      </trkpt>
      <trkpt lat="42.82573" lon="1.42385">
        <ele>2036.21</ele>
        <time>2016-10-30T10:34:43Z</time>
      </trkpt>
      <trkpt lat="42.82573" lon="1.42386">
        <ele>2036.21</ele>
        <time>2016-10-30T10:35:03Z</time>
      </trkpt>
      <trkpt lat="42.82573" lon="1.42385">
        <ele>2036.21</ele>
        <time>2016-10-30T10:35:27Z</time>
      </trkpt>
      <trkpt lat="42.82572" lon="1.42386">
        <ele>2036.21</ele>
        <time>2016-10-30T10:35:53Z</time>
      </trkpt>
      <trkpt lat="42.82575" lon="1.42391">
        <ele>2036.21</ele>
        <time>2016-10-30T10:36:10Z</time>
      </trkpt>
      <trkpt lat="42.82577" lon="1.42397">
        <ele>2036.21</ele>
        <time>2016-10-30T10:36:21Z</time>
      </trkpt>
      <trkpt lat="42.82579" lon="1.42402">
        <ele>2036.69</ele>
        <time>2016-10-30T10:36:30Z</time>
      </trkpt>
      <trkpt lat="42.82579" lon="1.42414">
        <ele>2036.21</ele>
        <time>2016-10-30T10:36:44Z</time>
      </trkpt>
      <trkpt lat="42.82579" lon="1.42417">
        <ele>2034.77</ele>
        <time>2016-10-30T10:36:47Z</time>
      </trkpt>
      <trkpt lat="42.82578" lon="1.42429">
        <ele>2032.84</ele>
        <time>2016-10-30T10:37:00Z</time>
      </trkpt>
      <trkpt lat="42.82578" lon="1.42432">
        <ele>2032.84</ele>
        <time>2016-10-30T10:37:03Z</time>
      </trkpt>
      <trkpt lat="42.82581" lon="1.42442">
        <ele>2031.4</ele>
        <time>2016-10-30T10:37:16Z</time>
      </trkpt>
      <trkpt lat="42.82581" lon="1.42458">
        <ele>2029.48</ele>
        <time>2016-10-30T10:37:27Z</time>
      </trkpt>
      <trkpt lat="42.82584" lon="1.42469">
        <ele>2027.08</ele>
        <time>2016-10-30T10:37:33Z</time>
      </trkpt>
      <trkpt lat="42.82584" lon="1.42475">
        <ele>2022.75</ele>
        <time>2016-10-30T10:37:39Z</time>
      </trkpt>
      <trkpt lat="42.82585" lon="1.42476">
        <ele>2024.19</ele>
        <time>2016-10-30T10:37:53Z</time>
      </trkpt>
      <trkpt lat="42.82584" lon="1.42476">
        <ele>2024.67</ele>
        <time>2016-10-30T10:38:14Z</time>
      </trkpt>
      <trkpt lat="42.82587" lon="1.42479">
        <ele>2024.67</ele>
        <time>2016-10-30T10:38:18Z</time>
      </trkpt>
      <trkpt lat="42.82591" lon="1.42486">
        <ele>2025.15</ele>
        <time>2016-10-30T10:38:27Z</time>
      </trkpt>
      <trkpt lat="42.82592" lon="1.4249">
        <ele>2025.15</ele>
        <time>2016-10-30T10:38:32Z</time>
      </trkpt>
      <trkpt lat="42.82593" lon="1.42492">
        <ele>2025.64</ele>
        <time>2016-10-30T10:38:42Z</time>
      </trkpt>
      <trkpt lat="42.82594" lon="1.42495">
        <ele>2026.6</ele>
        <time>2016-10-30T10:39:03Z</time>
      </trkpt>
      <trkpt lat="42.82594" lon="1.42495">
        <ele>2026.6</ele>
        <time>2016-10-30T10:39:05Z</time>
      </trkpt>
      <trkpt lat="42.82597" lon="1.42498">
        <ele>2027.08</ele>
        <time>2016-10-30T10:39:11Z</time>
      </trkpt>
      <trkpt lat="42.82602" lon="1.42508">
        <ele>2027.56</ele>
        <time>2016-10-30T10:39:23Z</time>
      </trkpt>
      <trkpt lat="42.82606" lon="1.42514">
        <ele>2029</ele>
        <time>2016-10-30T10:39:35Z</time>
      </trkpt>
      <trkpt lat="42.82608" lon="1.42517">
        <ele>2031.4</ele>
        <time>2016-10-30T10:39:50Z</time>
      </trkpt>
      <trkpt lat="42.82608" lon="1.42518">
        <ele>2031.4</ele>
        <time>2016-10-30T10:40:03Z</time>
      </trkpt>
      <trkpt lat="42.82608" lon="1.42518">
        <ele>2031.4</ele>
        <time>2016-10-30T10:40:21Z</time>
      </trkpt>
      <trkpt lat="42.82608" lon="1.42518">
        <ele>2031.4</ele>
        <time>2016-10-30T10:40:48Z</time>
      </trkpt>
      <trkpt lat="42.82609" lon="1.42521">
        <ele>2031.4</ele>
        <time>2016-10-30T10:41:12Z</time>
      </trkpt>
      <trkpt lat="42.8261" lon="1.42522">
        <ele>2031.4</ele>
        <time>2016-10-30T10:41:36Z</time>
      </trkpt>
      <trkpt lat="42.82614" lon="1.42529">
        <ele>2031.4</ele>
        <time>2016-10-30T10:41:48Z</time>
      </trkpt>
      <trkpt lat="42.82616" lon="1.42531">
        <ele>2031.88</ele>
        <time>2016-10-30T10:42:05Z</time>
      </trkpt>
      <trkpt lat="42.82616" lon="1.42533">
        <ele>2032.84</ele>
        <time>2016-10-30T10:42:18Z</time>
      </trkpt>
      <trkpt lat="42.82616" lon="1.42534">
        <ele>2033.81</ele>
        <time>2016-10-30T10:42:43Z</time>
      </trkpt>
      <trkpt lat="42.82615" lon="1.42533">
        <ele>2033.81</ele>
        <time>2016-10-30T10:43:20Z</time>
      </trkpt>
      <trkpt lat="42.82616" lon="1.42534">
        <ele>2034.29</ele>
        <time>2016-10-30T10:43:54Z</time>
      </trkpt>
      <trkpt lat="42.82617" lon="1.42536">
        <ele>2034.29</ele>
        <time>2016-10-30T10:43:58Z</time>
      </trkpt>
      <trkpt lat="42.82623" lon="1.42546">
        <ele>2034.29</ele>
        <time>2016-10-30T10:44:08Z</time>
      </trkpt>
      <trkpt lat="42.82626" lon="1.42549">
        <ele>2034.29</ele>
        <time>2016-10-30T10:44:12Z</time>
      </trkpt>
      <trkpt lat="42.82636" lon="1.42572">
        <ele>2030.92</ele>
        <time>2016-10-30T10:44:29Z</time>
      </trkpt>
      <trkpt lat="42.82638" lon="1.42581">
        <ele>2030.44</ele>
        <time>2016-10-30T10:44:35Z</time>
      </trkpt>
      <trkpt lat="42.82647" lon="1.42593">
        <ele>2029.96</ele>
        <time>2016-10-30T10:44:47Z</time>
      </trkpt>
      <trkpt lat="42.82652" lon="1.42605">
        <ele>2029.96</ele>
        <time>2016-10-30T10:44:58Z</time>
      </trkpt>
      <trkpt lat="42.82653" lon="1.42608">
        <ele>2029.96</ele>
        <time>2016-10-30T10:45:00Z</time>
      </trkpt>
      <trkpt lat="42.82655" lon="1.42612">
        <ele>2030.92</ele>
        <time>2016-10-30T10:45:05Z</time>
      </trkpt>
      <trkpt lat="42.82656" lon="1.42614">
        <ele>2031.4</ele>
        <time>2016-10-30T10:45:07Z</time>
      </trkpt>
      <trkpt lat="42.82662" lon="1.42623">
        <ele>2032.84</ele>
        <time>2016-10-30T10:45:16Z</time>
      </trkpt>
      <trkpt lat="42.82669" lon="1.42639">
        <ele>2033.81</ele>
        <time>2016-10-30T10:45:29Z</time>
      </trkpt>
      <trkpt lat="42.82671" lon="1.42642">
        <ele>2034.29</ele>
        <time>2016-10-30T10:45:32Z</time>
      </trkpt>
      <trkpt lat="42.82677" lon="1.42656">
        <ele>2034.29</ele>
        <time>2016-10-30T10:45:44Z</time>
      </trkpt>
      <trkpt lat="42.8268" lon="1.42661">
        <ele>2034.29</ele>
        <time>2016-10-30T10:45:48Z</time>
      </trkpt>
      <trkpt lat="42.82681" lon="1.42665">
        <ele>2034.29</ele>
        <time>2016-10-30T10:45:51Z</time>
      </trkpt>
      <trkpt lat="42.82682" lon="1.42671">
        <ele>2034.29</ele>
        <time>2016-10-30T10:45:56Z</time>
      </trkpt>
      <trkpt lat="42.82683" lon="1.42674">
        <ele>2034.29</ele>
        <time>2016-10-30T10:45:58Z</time>
      </trkpt>
      <trkpt lat="42.82686" lon="1.42687">
        <ele>2034.29</ele>
        <time>2016-10-30T10:46:08Z</time>
      </trkpt>
      <trkpt lat="42.82687" lon="1.42689">
        <ele>2034.29</ele>
        <time>2016-10-30T10:46:10Z</time>
      </trkpt>
      <trkpt lat="42.82692" lon="1.42707">
        <ele>2032.84</ele>
        <time>2016-10-30T10:46:22Z</time>
      </trkpt>
      <trkpt lat="42.82694" lon="1.4272">
        <ele>2031.88</ele>
        <time>2016-10-30T10:46:31Z</time>
      </trkpt>
      <trkpt lat="42.82696" lon="1.42723">
        <ele>2031.88</ele>
        <time>2016-10-30T10:46:34Z</time>
      </trkpt>
      <trkpt lat="42.82695" lon="1.42738">
        <ele>2029.96</ele>
        <time>2016-10-30T10:46:45Z</time>
      </trkpt>
      <trkpt lat="42.82696" lon="1.42749">
        <ele>2029.48</ele>
        <time>2016-10-30T10:46:53Z</time>
      </trkpt>
      <trkpt lat="42.82696" lon="1.42755">
        <ele>2029</ele>
        <time>2016-10-30T10:46:58Z</time>
      </trkpt>
      <trkpt lat="42.82698" lon="1.42776">
        <ele>2028.52</ele>
        <time>2016-10-30T10:47:12Z</time>
      </trkpt>
      <trkpt lat="42.827" lon="1.42793">
        <ele>2028.04</ele>
        <time>2016-10-30T10:47:25Z</time>
      </trkpt>
      <trkpt lat="42.82703" lon="1.42806">
        <ele>2027.56</ele>
        <time>2016-10-30T10:47:38Z</time>
      </trkpt>
      <trkpt lat="42.82705" lon="1.42811">
        <ele>2027.56</ele>
        <time>2016-10-30T10:47:42Z</time>
      </trkpt>
      <trkpt lat="42.82707" lon="1.42816">
        <ele>2027.56</ele>
        <time>2016-10-30T10:47:46Z</time>
      </trkpt>
      <trkpt lat="42.82712" lon="1.42825">
        <ele>2027.56</ele>
        <time>2016-10-30T10:47:53Z</time>
      </trkpt>
      <trkpt lat="42.82713" lon="1.42828">
        <ele>2027.56</ele>
        <time>2016-10-30T10:47:55Z</time>
      </trkpt>
      <trkpt lat="42.82716" lon="1.42831">
        <ele>2027.56</ele>
        <time>2016-10-30T10:47:58Z</time>
      </trkpt>
      <trkpt lat="42.8272" lon="1.42838">
        <ele>2027.56</ele>
        <time>2016-10-30T10:48:03Z</time>
      </trkpt>
      <trkpt lat="42.8272" lon="1.4284">
        <ele>2027.56</ele>
        <time>2016-10-30T10:48:05Z</time>
      </trkpt>
      <trkpt lat="42.82723" lon="1.42843">
        <ele>2027.56</ele>
        <time>2016-10-30T10:48:08Z</time>
      </trkpt>
      <trkpt lat="42.82728" lon="1.42854">
        <ele>2029</ele>
        <time>2016-10-30T10:48:19Z</time>
      </trkpt>
      <trkpt lat="42.8273" lon="1.42855">
        <ele>2029.48</ele>
        <time>2016-10-30T10:48:21Z</time>
      </trkpt>
      <trkpt lat="42.82735" lon="1.42866">
        <ele>2030.92</ele>
        <time>2016-10-30T10:48:32Z</time>
      </trkpt>
      <trkpt lat="42.82738" lon="1.42875">
        <ele>2032.84</ele>
        <time>2016-10-30T10:48:43Z</time>
      </trkpt>
      <trkpt lat="42.8274" lon="1.4288">
        <ele>2033.81</ele>
        <time>2016-10-30T10:48:55Z</time>
      </trkpt>
      <trkpt lat="42.82743" lon="1.42884">
        <ele>2034.77</ele>
        <time>2016-10-30T10:49:04Z</time>
      </trkpt>
      <trkpt lat="42.82745" lon="1.42886">
        <ele>2034.77</ele>
        <time>2016-10-30T10:49:06Z</time>
      </trkpt>
      <trkpt lat="42.82749" lon="1.42894">
        <ele>2034.77</ele>
        <time>2016-10-30T10:49:13Z</time>
      </trkpt>
      <trkpt lat="42.82749" lon="1.42906">
        <ele>2035.25</ele>
        <time>2016-10-30T10:49:25Z</time>
      </trkpt>
      <trkpt lat="42.82752" lon="1.42911">
        <ele>2036.69</ele>
        <time>2016-10-30T10:49:33Z</time>
      </trkpt>
      <trkpt lat="42.8276" lon="1.42918">
        <ele>2037.65</ele>
        <time>2016-10-30T10:49:45Z</time>
      </trkpt>
      <trkpt lat="42.82761" lon="1.4292">
        <ele>2038.13</ele>
        <time>2016-10-30T10:49:48Z</time>
      </trkpt>
      <trkpt lat="42.82763" lon="1.42922">
        <ele>2038.13</ele>
        <time>2016-10-30T10:49:51Z</time>
      </trkpt>
      <trkpt lat="42.82765" lon="1.42922">
        <ele>2038.13</ele>
        <time>2016-10-30T10:49:55Z</time>
      </trkpt>
      <trkpt lat="42.82771" lon="1.42924">
        <ele>2038.13</ele>
        <time>2016-10-30T10:50:05Z</time>
      </trkpt>
      <trkpt lat="42.82773" lon="1.42926">
        <ele>2038.13</ele>
        <time>2016-10-30T10:50:10Z</time>
      </trkpt>
      <trkpt lat="42.82774" lon="1.42929">
        <ele>2036.69</ele>
        <time>2016-10-30T10:50:12Z</time>
      </trkpt>
      <trkpt lat="42.82782" lon="1.42935">
        <ele>2036.69</ele>
        <time>2016-10-30T10:50:22Z</time>
      </trkpt>
      <trkpt lat="42.82783" lon="1.42937">
        <ele>2036.21</ele>
        <time>2016-10-30T10:50:26Z</time>
      </trkpt>
      <trkpt lat="42.82791" lon="1.42944">
        <ele>2035.73</ele>
        <time>2016-10-30T10:50:37Z</time>
      </trkpt>
      <trkpt lat="42.82793" lon="1.42946">
        <ele>2034.77</ele>
        <time>2016-10-30T10:50:40Z</time>
      </trkpt>
      <trkpt lat="42.82798" lon="1.42953">
        <ele>2034.29</ele>
        <time>2016-10-30T10:50:51Z</time>
      </trkpt>
      <trkpt lat="42.82799" lon="1.42955">
        <ele>2033.81</ele>
        <time>2016-10-30T10:50:53Z</time>
      </trkpt>
      <trkpt lat="42.82804" lon="1.42963">
        <ele>2032.84</ele>
        <time>2016-10-30T10:51:04Z</time>
      </trkpt>
      <trkpt lat="42.82806" lon="1.42965">
        <ele>2031.88</ele>
        <time>2016-10-30T10:51:16Z</time>
      </trkpt>
      <trkpt lat="42.82809" lon="1.42968">
        <ele>2030.92</ele>
        <time>2016-10-30T10:51:30Z</time>
      </trkpt>
      <trkpt lat="42.82812" lon="1.42971">
        <ele>2029.48</ele>
        <time>2016-10-30T10:51:37Z</time>
      </trkpt>
      <trkpt lat="42.82815" lon="1.42975">
        <ele>2028.52</ele>
        <time>2016-10-30T10:51:48Z</time>
      </trkpt>
      <trkpt lat="42.82817" lon="1.42975">
        <ele>2027.56</ele>
        <time>2016-10-30T10:52:03Z</time>
      </trkpt>
      <trkpt lat="42.82817" lon="1.42974">
        <ele>2027.08</ele>
        <time>2016-10-30T10:52:08Z</time>
      </trkpt>
      <trkpt lat="42.82823" lon="1.4298">
        <ele>2026.6</ele>
        <time>2016-10-30T10:52:17Z</time>
      </trkpt>
      <trkpt lat="42.82824" lon="1.42982">
        <ele>2026.6</ele>
        <time>2016-10-30T10:52:20Z</time>
      </trkpt>
      <trkpt lat="42.82829" lon="1.42988">
        <ele>2026.12</ele>
        <time>2016-10-30T10:52:32Z</time>
      </trkpt>
      <trkpt lat="42.82833" lon="1.42997">
        <ele>2025.64</ele>
        <time>2016-10-30T10:52:43Z</time>
      </trkpt>
      <trkpt lat="42.82833" lon="1.42997">
        <ele>2025.64</ele>
        <time>2016-10-30T10:52:44Z</time>
      </trkpt>
      <trkpt lat="42.82839" lon="1.43011">
        <ele>2025.15</ele>
        <time>2016-10-30T10:52:56Z</time>
      </trkpt>
      <trkpt lat="42.82843" lon="1.43015">
        <ele>2025.15</ele>
        <time>2016-10-30T10:53:05Z</time>
      </trkpt>
      <trkpt lat="42.82843" lon="1.43016">
        <ele>2025.15</ele>
        <time>2016-10-30T10:53:07Z</time>
      </trkpt>
      <trkpt lat="42.82846" lon="1.43022">
        <ele>2024.19</ele>
        <time>2016-10-30T10:53:15Z</time>
      </trkpt>
      <trkpt lat="42.82851" lon="1.43031">
        <ele>2024.19</ele>
        <time>2016-10-30T10:53:24Z</time>
      </trkpt>
      <trkpt lat="42.82854" lon="1.4304">
        <ele>2023.71</ele>
        <time>2016-10-30T10:53:35Z</time>
      </trkpt>
      <trkpt lat="42.82855" lon="1.43042">
        <ele>2023.71</ele>
        <time>2016-10-30T10:53:38Z</time>
      </trkpt>
      <trkpt lat="42.82857" lon="1.43051">
        <ele>2026.12</ele>
        <time>2016-10-30T10:53:50Z</time>
      </trkpt>
      <trkpt lat="42.82854" lon="1.43054">
        <ele>2027.56</ele>
        <time>2016-10-30T10:54:00Z</time>
      </trkpt>
      <trkpt lat="42.82851" lon="1.43055">
        <ele>2029</ele>
        <time>2016-10-30T10:54:11Z</time>
      </trkpt>
      <trkpt lat="42.82854" lon="1.43061">
        <ele>2030.44</ele>
        <time>2016-10-30T10:54:26Z</time>
      </trkpt>
      <trkpt lat="42.82854" lon="1.43061">
        <ele>2030.92</ele>
        <time>2016-10-30T10:54:27Z</time>
      </trkpt>
      <trkpt lat="42.82856" lon="1.43065">
        <ele>2031.4</ele>
        <time>2016-10-30T10:54:31Z</time>
      </trkpt>
      <trkpt lat="42.82858" lon="1.43068">
        <ele>2031.4</ele>
        <time>2016-10-30T10:54:34Z</time>
      </trkpt>
      <trkpt lat="42.8286" lon="1.4307">
        <ele>2031.88</ele>
        <time>2016-10-30T10:54:37Z</time>
      </trkpt>
      <trkpt lat="42.82864" lon="1.43081">
        <ele>2033.33</ele>
        <time>2016-10-30T10:54:49Z</time>
      </trkpt>
      <trkpt lat="42.82866" lon="1.43084">
        <ele>2033.81</ele>
        <time>2016-10-30T10:54:52Z</time>
      </trkpt>
      <trkpt lat="42.82868" lon="1.43086">
        <ele>2033.81</ele>
        <time>2016-10-30T10:54:55Z</time>
      </trkpt>
      <trkpt lat="42.82869" lon="1.43091">
        <ele>2035.25</ele>
        <time>2016-10-30T10:55:00Z</time>
      </trkpt>
      <trkpt lat="42.82874" lon="1.431">
        <ele>2036.69</ele>
        <time>2016-10-30T10:55:14Z</time>
      </trkpt>
      <trkpt lat="42.82877" lon="1.43106">
        <ele>2038.13</ele>
        <time>2016-10-30T10:55:25Z</time>
      </trkpt>
      <trkpt lat="42.82881" lon="1.43114">
        <ele>2040.54</ele>
        <time>2016-10-30T10:55:37Z</time>
      </trkpt>
      <trkpt lat="42.82882" lon="1.43118">
        <ele>2041.02</ele>
        <time>2016-10-30T10:55:41Z</time>
      </trkpt>
      <trkpt lat="42.82881" lon="1.4312">
        <ele>2042.46</ele>
        <time>2016-10-30T10:55:57Z</time>
      </trkpt>
      <trkpt lat="42.82882" lon="1.43124">
        <ele>2042.94</ele>
        <time>2016-10-30T10:56:18Z</time>
      </trkpt>
      <trkpt lat="42.82886" lon="1.43132">
        <ele>2044.38</ele>
        <time>2016-10-30T10:56:28Z</time>
      </trkpt>
      <trkpt lat="42.82887" lon="1.43134">
        <ele>2044.38</ele>
        <time>2016-10-30T10:56:30Z</time>
      </trkpt>
      <trkpt lat="42.82889" lon="1.43142">
        <ele>2044.86</ele>
        <time>2016-10-30T10:56:36Z</time>
      </trkpt>
      <trkpt lat="42.8289" lon="1.43144">
        <ele>2045.34</ele>
        <time>2016-10-30T10:56:38Z</time>
      </trkpt>
      <trkpt lat="42.82891" lon="1.43147">
        <ele>2045.34</ele>
        <time>2016-10-30T10:56:41Z</time>
      </trkpt>
      <trkpt lat="42.82892" lon="1.43152">
        <ele>2045.82</ele>
        <time>2016-10-30T10:56:45Z</time>
      </trkpt>
      <trkpt lat="42.82895" lon="1.43162">
        <ele>2046.78</ele>
        <time>2016-10-30T10:56:55Z</time>
      </trkpt>
      <trkpt lat="42.82895" lon="1.43165">
        <ele>2047.26</ele>
        <time>2016-10-30T10:56:57Z</time>
      </trkpt>
      <trkpt lat="42.82897" lon="1.43175">
        <ele>2049.19</ele>
        <time>2016-10-30T10:57:09Z</time>
      </trkpt>
      <trkpt lat="42.82898" lon="1.4318">
        <ele>2050.15</ele>
        <time>2016-10-30T10:57:15Z</time>
      </trkpt>
      <trkpt lat="42.82897" lon="1.43189">
        <ele>2052.55</ele>
        <time>2016-10-30T10:57:27Z</time>
      </trkpt>
      <trkpt lat="42.82897" lon="1.432">
        <ele>2053.99</ele>
        <time>2016-10-30T10:57:39Z</time>
      </trkpt>
      <trkpt lat="42.82896" lon="1.43206">
        <ele>2055.92</ele>
        <time>2016-10-30T10:57:50Z</time>
      </trkpt>
      <trkpt lat="42.82894" lon="1.4321">
        <ele>2056.4</ele>
        <time>2016-10-30T10:58:11Z</time>
      </trkpt>
      <trkpt lat="42.82895" lon="1.43212">
        <ele>2056.4</ele>
        <time>2016-10-30T10:58:13Z</time>
      </trkpt>
      <trkpt lat="42.82895" lon="1.43225">
        <ele>2056.4</ele>
        <time>2016-10-30T10:58:24Z</time>
      </trkpt>
      <trkpt lat="42.82893" lon="1.43232">
        <ele>2056.4</ele>
        <time>2016-10-30T10:58:36Z</time>
      </trkpt>
      <trkpt lat="42.8289" lon="1.43242">
        <ele>2056.4</ele>
        <time>2016-10-30T10:58:49Z</time>
      </trkpt>
      <trkpt lat="42.82891" lon="1.43243">
        <ele>2055.44</ele>
        <time>2016-10-30T10:59:13Z</time>
      </trkpt>
      <trkpt lat="42.82891" lon="1.43244">
        <ele>2055.44</ele>
        <time>2016-10-30T10:59:21Z</time>
      </trkpt>
      <trkpt lat="42.82891" lon="1.43249">
        <ele>2054.96</ele>
        <time>2016-10-30T10:59:31Z</time>
      </trkpt>
      <trkpt lat="42.8289" lon="1.43257">
        <ele>2053.03</ele>
        <time>2016-10-30T10:59:42Z</time>
      </trkpt>
      <trkpt lat="42.82889" lon="1.43267">
        <ele>2048.71</ele>
        <time>2016-10-30T10:59:49Z</time>
      </trkpt>
      <trkpt lat="42.82889" lon="1.43268">
        <ele>2048.23</ele>
        <time>2016-10-30T10:59:50Z</time>
      </trkpt>
      <trkpt lat="42.82896" lon="1.43286">
        <ele>2047.75</ele>
        <time>2016-10-30T11:00:04Z</time>
      </trkpt>
      <trkpt lat="42.829" lon="1.43293">
        <ele>2047.75</ele>
        <time>2016-10-30T11:00:12Z</time>
      </trkpt>
      <trkpt lat="42.82902" lon="1.433">
        <ele>2047.75</ele>
        <time>2016-10-30T11:00:18Z</time>
      </trkpt>
      <trkpt lat="42.82907" lon="1.4331">
        <ele>2047.75</ele>
        <time>2016-10-30T11:00:30Z</time>
      </trkpt>
      <trkpt lat="42.82906" lon="1.43312">
        <ele>2047.75</ele>
        <time>2016-10-30T11:00:35Z</time>
      </trkpt>
      <trkpt lat="42.82907" lon="1.43317">
        <ele>2047.75</ele>
        <time>2016-10-30T11:00:39Z</time>
      </trkpt>
      <trkpt lat="42.82908" lon="1.43327">
        <ele>2047.75</ele>
        <time>2016-10-30T11:00:46Z</time>
      </trkpt>
      <trkpt lat="42.8291" lon="1.43335">
        <ele>2046.78</ele>
        <time>2016-10-30T11:01:00Z</time>
      </trkpt>
      <trkpt lat="42.82913" lon="1.43338">
        <ele>2046.78</ele>
        <time>2016-10-30T11:01:09Z</time>
      </trkpt>
      <trkpt lat="42.82915" lon="1.43349">
        <ele>2044.86</ele>
        <time>2016-10-30T11:01:17Z</time>
      </trkpt>
      <trkpt lat="42.82918" lon="1.43353">
        <ele>2044.38</ele>
        <time>2016-10-30T11:01:21Z</time>
      </trkpt>
      <trkpt lat="42.8292" lon="1.43359">
        <ele>2043.9</ele>
        <time>2016-10-30T11:01:25Z</time>
      </trkpt>
      <trkpt lat="42.82928" lon="1.43367">
        <ele>2042.94</ele>
        <time>2016-10-30T11:01:36Z</time>
      </trkpt>
      <trkpt lat="42.82929" lon="1.43369">
        <ele>2042.46</ele>
        <time>2016-10-30T11:01:38Z</time>
      </trkpt>
      <trkpt lat="42.82929" lon="1.43373">
        <ele>2042.46</ele>
        <time>2016-10-30T11:01:41Z</time>
      </trkpt>
      <trkpt lat="42.82931" lon="1.43374">
        <ele>2041.98</ele>
        <time>2016-10-30T11:01:44Z</time>
      </trkpt>
      <trkpt lat="42.82931" lon="1.43376">
        <ele>2041.98</ele>
        <time>2016-10-30T11:01:47Z</time>
      </trkpt>
      <trkpt lat="42.82933" lon="1.43383">
        <ele>2041.02</ele>
        <time>2016-10-30T11:01:55Z</time>
      </trkpt>
      <trkpt lat="42.82928" lon="1.43395">
        <ele>2040.05</ele>
        <time>2016-10-30T11:02:06Z</time>
      </trkpt>
      <trkpt lat="42.8293" lon="1.434">
        <ele>2040.05</ele>
        <time>2016-10-30T11:02:21Z</time>
      </trkpt>
      <trkpt lat="42.82936" lon="1.43412">
        <ele>2040.05</ele>
        <time>2016-10-30T11:02:31Z</time>
      </trkpt>
      <trkpt lat="42.82936" lon="1.43415">
        <ele>2040.05</ele>
        <time>2016-10-30T11:02:33Z</time>
      </trkpt>
      <trkpt lat="42.82937" lon="1.43418">
        <ele>2040.05</ele>
        <time>2016-10-30T11:02:36Z</time>
      </trkpt>
      <trkpt lat="42.82937" lon="1.43421">
        <ele>2040.05</ele>
        <time>2016-10-30T11:02:38Z</time>
      </trkpt>
      <trkpt lat="42.82936" lon="1.43431">
        <ele>2040.05</ele>
        <time>2016-10-30T11:02:46Z</time>
      </trkpt>
      <trkpt lat="42.82938" lon="1.43436">
        <ele>2040.05</ele>
        <time>2016-10-30T11:02:51Z</time>
      </trkpt>
      <trkpt lat="42.8294" lon="1.43439">
        <ele>2041.02</ele>
        <time>2016-10-30T11:02:57Z</time>
      </trkpt>
      <trkpt lat="42.82943" lon="1.43445">
        <ele>2041.02</ele>
        <time>2016-10-30T11:03:02Z</time>
      </trkpt>
      <trkpt lat="42.82945" lon="1.43447">
        <ele>2041.98</ele>
        <time>2016-10-30T11:03:05Z</time>
      </trkpt>
      <trkpt lat="42.82943" lon="1.43454">
        <ele>2042.94</ele>
        <time>2016-10-30T11:03:18Z</time>
      </trkpt>
      <trkpt lat="42.82943" lon="1.43453">
        <ele>2042.94</ele>
        <time>2016-10-30T11:03:35Z</time>
      </trkpt>
      <trkpt lat="42.82942" lon="1.43453">
        <ele>2043.42</ele>
        <time>2016-10-30T11:03:57Z</time>
      </trkpt>
      <trkpt lat="42.82943" lon="1.43452">
        <ele>2043.42</ele>
        <time>2016-10-30T11:04:15Z</time>
      </trkpt>
      <trkpt lat="42.82945" lon="1.43453">
        <ele>2043.42</ele>
        <time>2016-10-30T11:04:19Z</time>
      </trkpt>
      <trkpt lat="42.82948" lon="1.43458">
        <ele>2043.42</ele>
        <time>2016-10-30T11:04:27Z</time>
      </trkpt>
      <trkpt lat="42.8295" lon="1.43462">
        <ele>2045.82</ele>
        <time>2016-10-30T11:04:38Z</time>
      </trkpt>
      <trkpt lat="42.82952" lon="1.43465">
        <ele>2046.78</ele>
        <time>2016-10-30T11:04:50Z</time>
      </trkpt>
      <trkpt lat="42.82953" lon="1.43467">
        <ele>2047.75</ele>
        <time>2016-10-30T11:05:04Z</time>
      </trkpt>
      <trkpt lat="42.82957" lon="1.4347">
        <ele>2049.19</ele>
        <time>2016-10-30T11:05:14Z</time>
      </trkpt>
      <trkpt lat="42.82958" lon="1.43478">
        <ele>2051.11</ele>
        <time>2016-10-30T11:05:28Z</time>
      </trkpt>
      <trkpt lat="42.82959" lon="1.43484">
        <ele>2054.47</ele>
        <time>2016-10-30T11:05:40Z</time>
      </trkpt>
      <trkpt lat="42.82961" lon="1.43486">
        <ele>2057.84</ele>
        <time>2016-10-30T11:05:45Z</time>
      </trkpt>
      <trkpt lat="42.82965" lon="1.43486">
        <ele>2059.28</ele>
        <time>2016-10-30T11:05:57Z</time>
      </trkpt>
      <trkpt lat="42.82964" lon="1.43488">
        <ele>2059.76</ele>
        <time>2016-10-30T11:06:06Z</time>
      </trkpt>
      <trkpt lat="42.82965" lon="1.4349">
        <ele>2060.72</ele>
        <time>2016-10-30T11:06:20Z</time>
      </trkpt>
      <trkpt lat="42.82968" lon="1.43491">
        <ele>2062.65</ele>
        <time>2016-10-30T11:06:31Z</time>
      </trkpt>
      <trkpt lat="42.82966" lon="1.43491">
        <ele>2063.61</ele>
        <time>2016-10-30T11:06:42Z</time>
      </trkpt>
      <trkpt lat="42.82966" lon="1.43492">
        <ele>2064.09</ele>
        <time>2016-10-30T11:06:56Z</time>
      </trkpt>
      <trkpt lat="42.82966" lon="1.43493">
        <ele>2064.57</ele>
        <time>2016-10-30T11:07:07Z</time>
      </trkpt>
      <trkpt lat="42.82965" lon="1.43498">
        <ele>2065.53</ele>
        <time>2016-10-30T11:07:19Z</time>
      </trkpt>
      <trkpt lat="42.82964" lon="1.43503">
        <ele>2067.45</ele>
        <time>2016-10-30T11:07:28Z</time>
      </trkpt>
      <trkpt lat="42.82968" lon="1.43508">
        <ele>2068.89</ele>
        <time>2016-10-30T11:07:39Z</time>
      </trkpt>
      <trkpt lat="42.82966" lon="1.43515">
        <ele>2070.82</ele>
        <time>2016-10-30T11:07:49Z</time>
      </trkpt>
      <trkpt lat="42.82967" lon="1.43518">
        <ele>2071.78</ele>
        <time>2016-10-30T11:08:05Z</time>
      </trkpt>
      <trkpt lat="42.82961" lon="1.43522">
        <ele>2072.26</ele>
        <time>2016-10-30T11:08:11Z</time>
      </trkpt>
      <trkpt lat="42.82958" lon="1.43526">
        <ele>2072.26</ele>
        <time>2016-10-30T11:08:16Z</time>
      </trkpt>
      <trkpt lat="42.82954" lon="1.43533">
        <ele>2073.22</ele>
        <time>2016-10-30T11:08:28Z</time>
      </trkpt>
      <trkpt lat="42.82952" lon="1.4354">
        <ele>2075.14</ele>
        <time>2016-10-30T11:08:39Z</time>
      </trkpt>
      <trkpt lat="42.82956" lon="1.43546">
        <ele>2076.59</ele>
        <time>2016-10-30T11:08:50Z</time>
      </trkpt>
      <trkpt lat="42.82956" lon="1.4355">
        <ele>2079.95</ele>
        <time>2016-10-30T11:09:01Z</time>
      </trkpt>
      <trkpt lat="42.82957" lon="1.43551">
        <ele>2083.31</ele>
        <time>2016-10-30T11:09:09Z</time>
      </trkpt>
      <trkpt lat="42.82959" lon="1.43553">
        <ele>2083.31</ele>
        <time>2016-10-30T11:09:18Z</time>
      </trkpt>
      <trkpt lat="42.8296" lon="1.43556">
        <ele>2083.31</ele>
        <time>2016-10-30T11:09:33Z</time>
      </trkpt>
      <trkpt lat="42.82959" lon="1.43555">
        <ele>2083.79</ele>
        <time>2016-10-30T11:09:53Z</time>
      </trkpt>
      <trkpt lat="42.82959" lon="1.43556">
        <ele>2083.79</ele>
        <time>2016-10-30T11:10:17Z</time>
      </trkpt>
      <trkpt lat="42.8296" lon="1.43558">
        <ele>2084.28</ele>
        <time>2016-10-30T11:10:28Z</time>
      </trkpt>
      <trkpt lat="42.8296" lon="1.43561">
        <ele>2086.2</ele>
        <time>2016-10-30T11:10:38Z</time>
      </trkpt>
      <trkpt lat="42.82959" lon="1.43561">
        <ele>2086.68</ele>
        <time>2016-10-30T11:10:57Z</time>
      </trkpt>
      <trkpt lat="42.82955" lon="1.43561">
        <ele>2087.16</ele>
        <time>2016-10-30T11:11:05Z</time>
      </trkpt>
      <trkpt lat="42.82951" lon="1.43562">
        <ele>2087.16</ele>
        <time>2016-10-30T11:11:09Z</time>
      </trkpt>
      <trkpt lat="42.8295" lon="1.43564">
        <ele>2087.64</ele>
        <time>2016-10-30T11:11:12Z</time>
      </trkpt>
      <trkpt lat="42.82949" lon="1.43566">
        <ele>2087.64</ele>
        <time>2016-10-30T11:11:15Z</time>
      </trkpt>
      <trkpt lat="42.82949" lon="1.43568">
        <ele>2088.12</ele>
        <time>2016-10-30T11:11:21Z</time>
      </trkpt>
      <trkpt lat="42.82947" lon="1.4357">
        <ele>2088.12</ele>
        <time>2016-10-30T11:11:23Z</time>
      </trkpt>
      <trkpt lat="42.82947" lon="1.43576">
        <ele>2089.08</ele>
        <time>2016-10-30T11:11:35Z</time>
      </trkpt>
      <trkpt lat="42.82946" lon="1.43579">
        <ele>2090.52</ele>
        <time>2016-10-30T11:11:39Z</time>
      </trkpt>
      <trkpt lat="42.82945" lon="1.43587">
        <ele>2091.97</ele>
        <time>2016-10-30T11:11:50Z</time>
      </trkpt>
      <trkpt lat="42.82946" lon="1.43594">
        <ele>2092.93</ele>
        <time>2016-10-30T11:12:05Z</time>
      </trkpt>
      <trkpt lat="42.82946" lon="1.43601">
        <ele>2093.89</ele>
        <time>2016-10-30T11:12:16Z</time>
      </trkpt>
      <trkpt lat="42.82944" lon="1.43607">
        <ele>2095.81</ele>
        <time>2016-10-30T11:12:30Z</time>
      </trkpt>
      <trkpt lat="42.82945" lon="1.43608">
        <ele>2097.25</ele>
        <time>2016-10-30T11:12:46Z</time>
      </trkpt>
      <trkpt lat="42.82948" lon="1.43607">
        <ele>2098.7</ele>
        <time>2016-10-30T11:12:57Z</time>
      </trkpt>
      <trkpt lat="42.82951" lon="1.43605">
        <ele>2100.62</ele>
        <time>2016-10-30T11:13:08Z</time>
      </trkpt>
      <trkpt lat="42.82953" lon="1.43604">
        <ele>2101.58</ele>
        <time>2016-10-30T11:13:20Z</time>
      </trkpt>
      <trkpt lat="42.82952" lon="1.43604">
        <ele>2102.54</ele>
        <time>2016-10-30T11:13:33Z</time>
      </trkpt>
      <trkpt lat="42.82955" lon="1.43605">
        <ele>2103.5</ele>
        <time>2016-10-30T11:13:42Z</time>
      </trkpt>
      <trkpt lat="42.82958" lon="1.43601">
        <ele>2105.91</ele>
        <time>2016-10-30T11:13:53Z</time>
      </trkpt>
      <trkpt lat="42.82959" lon="1.43601">
        <ele>2106.39</ele>
        <time>2016-10-30T11:13:57Z</time>
      </trkpt>
      <trkpt lat="42.82963" lon="1.436">
        <ele>2108.79</ele>
        <time>2016-10-30T11:14:08Z</time>
      </trkpt>
      <trkpt lat="42.82963" lon="1.43595">
        <ele>2110.23</ele>
        <time>2016-10-30T11:14:18Z</time>
      </trkpt>
      <trkpt lat="42.82963" lon="1.43595">
        <ele>2110.71</ele>
        <time>2016-10-30T11:14:34Z</time>
      </trkpt>
      <trkpt lat="42.82963" lon="1.43595">
        <ele>2111.19</ele>
        <time>2016-10-30T11:14:59Z</time>
      </trkpt>
      <trkpt lat="42.82963" lon="1.43596">
        <ele>2111.19</ele>
        <time>2016-10-30T11:15:25Z</time>
      </trkpt>
      <trkpt lat="42.82963" lon="1.43596">
        <ele>2111.19</ele>
        <time>2016-10-30T11:15:56Z</time>
      </trkpt>
      <trkpt lat="42.82964" lon="1.43596">
        <ele>2110.23</ele>
        <time>2016-10-30T11:16:27Z</time>
      </trkpt>
      <trkpt lat="42.82963" lon="1.43597">
        <ele>2110.23</ele>
        <time>2016-10-30T11:16:57Z</time>
      </trkpt>
      <trkpt lat="42.82964" lon="1.43596">
        <ele>2110.23</ele>
        <time>2016-10-30T11:17:28Z</time>
      </trkpt>
      <trkpt lat="42.82964" lon="1.43596">
        <ele>2110.23</ele>
        <time>2016-10-30T11:17:53Z</time>
      </trkpt>
      <trkpt lat="42.82964" lon="1.43596">
        <ele>2110.71</ele>
        <time>2016-10-30T11:18:14Z</time>
      </trkpt>
      <trkpt lat="42.82963" lon="1.43596">
        <ele>2110.71</ele>
        <time>2016-10-30T11:18:41Z</time>
      </trkpt>
      <trkpt lat="42.82963" lon="1.43596">
        <ele>2110.71</ele>
        <time>2016-10-30T11:19:08Z</time>
      </trkpt>
      <trkpt lat="42.82963" lon="1.43596">
        <ele>2110.71</ele>
        <time>2016-10-30T11:19:37Z</time>
      </trkpt>
      <trkpt lat="42.82963" lon="1.43595">
        <ele>2110.71</ele>
        <time>2016-10-30T11:19:59Z</time>
      </trkpt>
      <trkpt lat="42.82963" lon="1.43596">
        <ele>2110.71</ele>
        <time>2016-10-30T11:20:28Z</time>
      </trkpt>
      <trkpt lat="42.82964" lon="1.43596">
        <ele>2110.71</ele>
        <time>2016-10-30T11:20:55Z</time>
      </trkpt>
      <trkpt lat="42.82962" lon="1.43595">
        <ele>2110.71</ele>
        <time>2016-10-30T11:21:08Z</time>
      </trkpt>
      <trkpt lat="42.82961" lon="1.43594">
        <ele>2110.71</ele>
        <time>2016-10-30T11:21:36Z</time>
      </trkpt>
      <trkpt lat="42.82962" lon="1.43593">
        <ele>2110.71</ele>
        <time>2016-10-30T11:21:56Z</time>
      </trkpt>
      <trkpt lat="42.82962" lon="1.43593">
        <ele>2112.15</ele>
        <time>2016-10-30T11:22:02Z</time>
      </trkpt>
      <trkpt lat="42.82964" lon="1.43593">
        <ele>2112.15</ele>
        <time>2016-10-30T11:22:29Z</time>
      </trkpt>
      <trkpt lat="42.82965" lon="1.43594">
        <ele>2112.15</ele>
        <time>2016-10-30T11:22:37Z</time>
      </trkpt>
      <trkpt lat="42.82968" lon="1.43603">
        <ele>2112.15</ele>
        <time>2016-10-30T11:22:49Z</time>
      </trkpt>
      <trkpt lat="42.82969" lon="1.43605">
        <ele>2112.15</ele>
        <time>2016-10-30T11:23:01Z</time>
      </trkpt>
      <trkpt lat="42.82968" lon="1.43607">
        <ele>2112.15</ele>
        <time>2016-10-30T11:23:06Z</time>
      </trkpt>
      <trkpt lat="42.82964" lon="1.43613">
        <ele>2114.08</ele>
        <time>2016-10-30T11:23:17Z</time>
      </trkpt>
      <trkpt lat="42.82965" lon="1.43622">
        <ele>2115.04</ele>
        <time>2016-10-30T11:23:30Z</time>
      </trkpt>
      <trkpt lat="42.82966" lon="1.43626">
        <ele>2116.48</ele>
        <time>2016-10-30T11:23:41Z</time>
      </trkpt>
      <trkpt lat="42.82968" lon="1.4363">
        <ele>2118.4</ele>
        <time>2016-10-30T11:23:51Z</time>
      </trkpt>
      <trkpt lat="42.82971" lon="1.43634">
        <ele>2119.84</ele>
        <time>2016-10-30T11:24:04Z</time>
      </trkpt>
      <trkpt lat="42.82967" lon="1.4364">
        <ele>2121.77</ele>
        <time>2016-10-30T11:24:16Z</time>
      </trkpt>
      <trkpt lat="42.82968" lon="1.43643">
        <ele>2123.21</ele>
        <time>2016-10-30T11:24:29Z</time>
      </trkpt>
      <trkpt lat="42.82972" lon="1.43647">
        <ele>2124.65</ele>
        <time>2016-10-30T11:24:40Z</time>
      </trkpt>
      <trkpt lat="42.82972" lon="1.4365">
        <ele>2126.57</ele>
        <time>2016-10-30T11:24:51Z</time>
      </trkpt>
      <trkpt lat="42.8297" lon="1.43652">
        <ele>2127.53</ele>
        <time>2016-10-30T11:25:05Z</time>
      </trkpt>
      <trkpt lat="42.8297" lon="1.43652">
        <ele>2128.02</ele>
        <time>2016-10-30T11:25:06Z</time>
      </trkpt>
      <trkpt lat="42.8297" lon="1.43659">
        <ele>2128.98</ele>
        <time>2016-10-30T11:25:15Z</time>
      </trkpt>
      <trkpt lat="42.82968" lon="1.43666">
        <ele>2130.9</ele>
        <time>2016-10-30T11:25:26Z</time>
      </trkpt>
      <trkpt lat="42.82968" lon="1.43667">
        <ele>2131.86</ele>
        <time>2016-10-30T11:25:35Z</time>
      </trkpt>
      <trkpt lat="42.8297" lon="1.43671">
        <ele>2132.82</ele>
        <time>2016-10-30T11:25:48Z</time>
      </trkpt>
      <trkpt lat="42.82969" lon="1.43673">
        <ele>2132.82</ele>
        <time>2016-10-30T11:25:50Z</time>
      </trkpt>
      <trkpt lat="42.82969" lon="1.43683">
        <ele>2134.26</ele>
        <time>2016-10-30T11:26:02Z</time>
      </trkpt>
      <trkpt lat="42.82967" lon="1.43687">
        <ele>2135.23</ele>
        <time>2016-10-30T11:26:07Z</time>
      </trkpt>
      <trkpt lat="42.82968" lon="1.4369">
        <ele>2135.71</ele>
        <time>2016-10-30T11:26:17Z</time>
      </trkpt>
      <trkpt lat="42.82971" lon="1.43695">
        <ele>2137.63</ele>
        <time>2016-10-30T11:26:30Z</time>
      </trkpt>
      <trkpt lat="42.8297" lon="1.43703">
        <ele>2139.07</ele>
        <time>2016-10-30T11:26:39Z</time>
      </trkpt>
      <trkpt lat="42.82968" lon="1.43707">
        <ele>2140.03</ele>
        <time>2016-10-30T11:26:50Z</time>
      </trkpt>
      <trkpt lat="42.82968" lon="1.43709">
        <ele>2140.03</ele>
        <time>2016-10-30T11:27:10Z</time>
      </trkpt>
      <trkpt lat="42.82963" lon="1.43713">
        <ele>2140.03</ele>
        <time>2016-10-30T11:27:18Z</time>
      </trkpt>
      <trkpt lat="42.82965" lon="1.43722">
        <ele>2140.03</ele>
        <time>2016-10-30T11:27:30Z</time>
      </trkpt>
      <trkpt lat="42.82965" lon="1.43725">
        <ele>2140.03</ele>
        <time>2016-10-30T11:27:34Z</time>
      </trkpt>
      <trkpt lat="42.82964" lon="1.43728">
        <ele>2140.03</ele>
        <time>2016-10-30T11:27:37Z</time>
      </trkpt>
      <trkpt lat="42.82964" lon="1.43732">
        <ele>2138.59</ele>
        <time>2016-10-30T11:27:47Z</time>
      </trkpt>
      <trkpt lat="42.82965" lon="1.43735">
        <ele>2138.59</ele>
        <time>2016-10-30T11:28:06Z</time>
      </trkpt>
      <trkpt lat="42.82966" lon="1.43742">
        <ele>2138.59</ele>
        <time>2016-10-30T11:28:17Z</time>
      </trkpt>
      <trkpt lat="42.82968" lon="1.43743">
        <ele>2140.51</ele>
        <time>2016-10-30T11:28:21Z</time>
      </trkpt>
      <trkpt lat="42.82971" lon="1.43745">
        <ele>2140.03</ele>
        <time>2016-10-30T11:28:35Z</time>
      </trkpt>
      <trkpt lat="42.82974" lon="1.43746">
        <ele>2140.03</ele>
        <time>2016-10-30T11:28:43Z</time>
      </trkpt>
      <trkpt lat="42.82978" lon="1.43748">
        <ele>2140.03</ele>
        <time>2016-10-30T11:28:51Z</time>
      </trkpt>
      <trkpt lat="42.82982" lon="1.4375">
        <ele>2140.03</ele>
        <time>2016-10-30T11:28:58Z</time>
      </trkpt>
      <trkpt lat="42.82986" lon="1.43752">
        <ele>2141.95</ele>
        <time>2016-10-30T11:29:09Z</time>
      </trkpt>
      <trkpt lat="42.82985" lon="1.43755">
        <ele>2142.92</ele>
        <time>2016-10-30T11:29:26Z</time>
      </trkpt>
      <trkpt lat="42.82986" lon="1.43764">
        <ele>2142.92</ele>
        <time>2016-10-30T11:29:36Z</time>
      </trkpt>
      <trkpt lat="42.82986" lon="1.43769">
        <ele>2143.4</ele>
        <time>2016-10-30T11:29:46Z</time>
      </trkpt>
      <trkpt lat="42.82986" lon="1.43769">
        <ele>2144.36</ele>
        <time>2016-10-30T11:29:49Z</time>
      </trkpt>
      <trkpt lat="42.82985" lon="1.43772">
        <ele>2146.28</ele>
        <time>2016-10-30T11:30:02Z</time>
      </trkpt>
      <trkpt lat="42.82986" lon="1.43778">
        <ele>2147.72</ele>
        <time>2016-10-30T11:30:14Z</time>
      </trkpt>
      <trkpt lat="42.82986" lon="1.43779">
        <ele>2148.2</ele>
        <time>2016-10-30T11:30:16Z</time>
      </trkpt>
      <trkpt lat="42.82985" lon="1.43782">
        <ele>2149.65</ele>
        <time>2016-10-30T11:30:27Z</time>
      </trkpt>
      <trkpt lat="42.82984" lon="1.43783">
        <ele>2150.61</ele>
        <time>2016-10-30T11:30:37Z</time>
      </trkpt>
      <trkpt lat="42.82979" lon="1.43785">
        <ele>2152.53</ele>
        <time>2016-10-30T11:30:48Z</time>
      </trkpt>
      <trkpt lat="42.82976" lon="1.43785">
        <ele>2153.97</ele>
        <time>2016-10-30T11:31:01Z</time>
      </trkpt>
      <trkpt lat="42.82977" lon="1.43786">
        <ele>2154.45</ele>
        <time>2016-10-30T11:31:10Z</time>
      </trkpt>
      <trkpt lat="42.82977" lon="1.43795">
        <ele>2155.41</ele>
        <time>2016-10-30T11:31:21Z</time>
      </trkpt>
      <trkpt lat="42.82976" lon="1.43799">
        <ele>2155.41</ele>
        <time>2016-10-30T11:31:24Z</time>
      </trkpt>
      <trkpt lat="42.82976" lon="1.438">
        <ele>2156.86</ele>
        <time>2016-10-30T11:31:37Z</time>
      </trkpt>
      <trkpt lat="42.82976" lon="1.43804">
        <ele>2157.82</ele>
        <time>2016-10-30T11:31:48Z</time>
      </trkpt>
      <trkpt lat="42.82978" lon="1.43808">
        <ele>2157.82</ele>
        <time>2016-10-30T11:32:03Z</time>
      </trkpt>
      <trkpt lat="42.8298" lon="1.43816">
        <ele>2158.78</ele>
        <time>2016-10-30T11:32:15Z</time>
      </trkpt>
      <trkpt lat="42.82985" lon="1.43824">
        <ele>2160.22</ele>
        <time>2016-10-30T11:32:26Z</time>
      </trkpt>
      <trkpt lat="42.82992" lon="1.43828">
        <ele>2162.62</ele>
        <time>2016-10-30T11:32:37Z</time>
      </trkpt>
      <trkpt lat="42.82993" lon="1.43831">
        <ele>2164.55</ele>
        <time>2016-10-30T11:32:53Z</time>
      </trkpt>
      <trkpt lat="42.82993" lon="1.43831">
        <ele>2165.03</ele>
        <time>2016-10-30T11:32:59Z</time>
      </trkpt>
      <trkpt lat="42.82995" lon="1.43835">
        <ele>2165.51</ele>
        <time>2016-10-30T11:33:10Z</time>
      </trkpt>
      <trkpt lat="42.82994" lon="1.43836">
        <ele>2166.95</ele>
        <time>2016-10-30T11:33:37Z</time>
      </trkpt>
      <trkpt lat="42.82993" lon="1.43842">
        <ele>2166.95</ele>
        <time>2016-10-30T11:33:47Z</time>
      </trkpt>
      <trkpt lat="42.82996" lon="1.43848">
        <ele>2167.91</ele>
        <time>2016-10-30T11:34:01Z</time>
      </trkpt>
      <trkpt lat="42.83" lon="1.43852">
        <ele>2168.87</ele>
        <time>2016-10-30T11:34:11Z</time>
      </trkpt>
      <trkpt lat="42.83" lon="1.43859">
        <ele>2169.35</ele>
        <time>2016-10-30T11:34:19Z</time>
      </trkpt>
      <trkpt lat="42.82997" lon="1.43868">
        <ele>2170.79</ele>
        <time>2016-10-30T11:34:30Z</time>
      </trkpt>
      <trkpt lat="42.82998" lon="1.43877">
        <ele>2173.2</ele>
        <time>2016-10-30T11:34:43Z</time>
      </trkpt>
      <trkpt lat="42.83" lon="1.43881">
        <ele>2174.64</ele>
        <time>2016-10-30T11:35:01Z</time>
      </trkpt>
      <trkpt lat="42.83002" lon="1.43881">
        <ele>2175.12</ele>
        <time>2016-10-30T11:35:04Z</time>
      </trkpt>
      <trkpt lat="42.83004" lon="1.43882">
        <ele>2176.08</ele>
        <time>2016-10-30T11:35:09Z</time>
      </trkpt>
      <trkpt lat="42.83004" lon="1.43886">
        <ele>2177.52</ele>
        <time>2016-10-30T11:35:21Z</time>
      </trkpt>
      <trkpt lat="42.83008" lon="1.43889">
        <ele>2178.97</ele>
        <time>2016-10-30T11:35:29Z</time>
      </trkpt>
      <trkpt lat="42.83011" lon="1.43891">
        <ele>2179.45</ele>
        <time>2016-10-30T11:35:35Z</time>
      </trkpt>
      <trkpt lat="42.83009" lon="1.43893">
        <ele>2180.89</ele>
        <time>2016-10-30T11:35:47Z</time>
      </trkpt>
      <trkpt lat="42.83008" lon="1.43893">
        <ele>2182.33</ele>
        <time>2016-10-30T11:36:02Z</time>
      </trkpt>
      <trkpt lat="42.83008" lon="1.43893">
        <ele>2182.33</ele>
        <time>2016-10-30T11:36:31Z</time>
      </trkpt>
      <trkpt lat="42.83008" lon="1.43895">
        <ele>2182.33</ele>
        <time>2016-10-30T11:36:50Z</time>
      </trkpt>
      <trkpt lat="42.83009" lon="1.43897">
        <ele>2182.33</ele>
        <time>2016-10-30T11:36:54Z</time>
      </trkpt>
      <trkpt lat="42.8301" lon="1.43909">
        <ele>2182.81</ele>
        <time>2016-10-30T11:37:07Z</time>
      </trkpt>
      <trkpt lat="42.8301" lon="1.43915">
        <ele>2183.29</ele>
        <time>2016-10-30T11:37:21Z</time>
      </trkpt>
      <trkpt lat="42.83014" lon="1.43925">
        <ele>2182.33</ele>
        <time>2016-10-30T11:37:32Z</time>
      </trkpt>
      <trkpt lat="42.83016" lon="1.43926">
        <ele>2182.33</ele>
        <time>2016-10-30T11:37:40Z</time>
      </trkpt>
      <trkpt lat="42.83019" lon="1.43934">
        <ele>2182.33</ele>
        <time>2016-10-30T11:37:50Z</time>
      </trkpt>
      <trkpt lat="42.83023" lon="1.43935">
        <ele>2182.33</ele>
        <time>2016-10-30T11:37:53Z</time>
      </trkpt>
      <trkpt lat="42.83024" lon="1.43939">
        <ele>2182.33</ele>
        <time>2016-10-30T11:38:07Z</time>
      </trkpt>
      <trkpt lat="42.83024" lon="1.43939">
        <ele>2182.33</ele>
        <time>2016-10-30T11:38:26Z</time>
      </trkpt>
      <trkpt lat="42.83023" lon="1.43939">
        <ele>2182.33</ele>
        <time>2016-10-30T11:38:44Z</time>
      </trkpt>
      <trkpt lat="42.83023" lon="1.43939">
        <ele>2182.33</ele>
        <time>2016-10-30T11:39:15Z</time>
      </trkpt>
      <trkpt lat="42.83024" lon="1.43941">
        <ele>2182.33</ele>
        <time>2016-10-30T11:39:32Z</time>
      </trkpt>
      <trkpt lat="42.83025" lon="1.43941">
        <ele>2182.33</ele>
        <time>2016-10-30T11:39:42Z</time>
      </trkpt>
      <trkpt lat="42.83027" lon="1.43943">
        <ele>2182.33</ele>
        <time>2016-10-30T11:39:44Z</time>
      </trkpt>
      <trkpt lat="42.83032" lon="1.43953">
        <ele>2183.29</ele>
        <time>2016-10-30T11:39:56Z</time>
      </trkpt>
      <trkpt lat="42.83035" lon="1.43959">
        <ele>2183.29</ele>
        <time>2016-10-30T11:40:05Z</time>
      </trkpt>
      <trkpt lat="42.83031" lon="1.43966">
        <ele>2185.21</ele>
        <time>2016-10-30T11:40:17Z</time>
      </trkpt>
      <trkpt lat="42.83031" lon="1.4397">
        <ele>2185.69</ele>
        <time>2016-10-30T11:40:20Z</time>
      </trkpt>
      <trkpt lat="42.83031" lon="1.43972">
        <ele>2187.62</ele>
        <time>2016-10-30T11:40:31Z</time>
      </trkpt>
      <trkpt lat="42.83031" lon="1.43979">
        <ele>2187.62</ele>
        <time>2016-10-30T11:40:43Z</time>
      </trkpt>
      <trkpt lat="42.83035" lon="1.43983">
        <ele>2188.1</ele>
        <time>2016-10-30T11:40:56Z</time>
      </trkpt>
      <trkpt lat="42.83038" lon="1.43984">
        <ele>2188.58</ele>
        <time>2016-10-30T11:41:13Z</time>
      </trkpt>
      <trkpt lat="42.83041" lon="1.43986">
        <ele>2189.06</ele>
        <time>2016-10-30T11:41:29Z</time>
      </trkpt>
      <trkpt lat="42.83042" lon="1.43989">
        <ele>2190.5</ele>
        <time>2016-10-30T11:41:40Z</time>
      </trkpt>
      <trkpt lat="42.83044" lon="1.43993">
        <ele>2191.46</ele>
        <time>2016-10-30T11:41:49Z</time>
      </trkpt>
      <trkpt lat="42.83045" lon="1.44">
        <ele>2193.39</ele>
        <time>2016-10-30T11:42:01Z</time>
      </trkpt>
      <trkpt lat="42.83046" lon="1.44006">
        <ele>2193.87</ele>
        <time>2016-10-30T11:42:14Z</time>
      </trkpt>
      <trkpt lat="42.83049" lon="1.44008">
        <ele>2195.79</ele>
        <time>2016-10-30T11:42:25Z</time>
      </trkpt>
      <trkpt lat="42.83049" lon="1.44008">
        <ele>2196.27</ele>
        <time>2016-10-30T11:42:34Z</time>
      </trkpt>
      <trkpt lat="42.83052" lon="1.44011">
        <ele>2196.75</ele>
        <time>2016-10-30T11:42:44Z</time>
      </trkpt>
      <trkpt lat="42.83049" lon="1.44012">
        <ele>2196.75</ele>
        <time>2016-10-30T11:42:55Z</time>
      </trkpt>
      <trkpt lat="42.8305" lon="1.44013">
        <ele>2196.75</ele>
        <time>2016-10-30T11:43:14Z</time>
      </trkpt>
      <trkpt lat="42.83051" lon="1.44012">
        <ele>2196.75</ele>
        <time>2016-10-30T11:43:36Z</time>
      </trkpt>
      <trkpt lat="42.83051" lon="1.44013">
        <ele>2196.75</ele>
        <time>2016-10-30T11:43:38Z</time>
      </trkpt>
      <trkpt lat="42.83054" lon="1.44014">
        <ele>2196.75</ele>
        <time>2016-10-30T11:43:51Z</time>
      </trkpt>
      <trkpt lat="42.83054" lon="1.44013">
        <ele>2196.75</ele>
        <time>2016-10-30T11:44:10Z</time>
      </trkpt>
      <trkpt lat="42.83053" lon="1.44013">
        <ele>2196.75</ele>
        <time>2016-10-30T11:44:29Z</time>
      </trkpt>
      <trkpt lat="42.83053" lon="1.44013">
        <ele>2196.75</ele>
        <time>2016-10-30T11:44:54Z</time>
      </trkpt>
      <trkpt lat="42.83053" lon="1.44014">
        <ele>2196.75</ele>
        <time>2016-10-30T11:45:19Z</time>
      </trkpt>
      <trkpt lat="42.83052" lon="1.44016">
        <ele>2196.75</ele>
        <time>2016-10-30T11:45:43Z</time>
      </trkpt>
      <trkpt lat="42.83051" lon="1.44014">
        <ele>2196.75</ele>
        <time>2016-10-30T11:45:54Z</time>
      </trkpt>
      <trkpt lat="42.83051" lon="1.44013">
        <ele>2196.75</ele>
        <time>2016-10-30T11:46:10Z</time>
      </trkpt>
      <trkpt lat="42.83051" lon="1.44014">
        <ele>2196.75</ele>
        <time>2016-10-30T11:46:31Z</time>
      </trkpt>
      <trkpt lat="42.8305" lon="1.44012">
        <ele>2196.75</ele>
        <time>2016-10-30T11:46:54Z</time>
      </trkpt>
      <trkpt lat="42.8305" lon="1.44012">
        <ele>2197.23</ele>
        <time>2016-10-30T11:47:18Z</time>
      </trkpt>
      <trkpt lat="42.8305" lon="1.44011">
        <ele>2197.23</ele>
        <time>2016-10-30T11:47:52Z</time>
      </trkpt>
      <trkpt lat="42.8305" lon="1.44012">
        <ele>2197.23</ele>
        <time>2016-10-30T11:48:11Z</time>
      </trkpt>
      <trkpt lat="42.83049" lon="1.44012">
        <ele>2197.23</ele>
        <time>2016-10-30T11:48:30Z</time>
      </trkpt>
      <trkpt lat="42.83049" lon="1.44012">
        <ele>2197.23</ele>
        <time>2016-10-30T11:48:57Z</time>
      </trkpt>
      <trkpt lat="42.83049" lon="1.44012">
        <ele>2197.23</ele>
        <time>2016-10-30T11:49:30Z</time>
      </trkpt>
      <trkpt lat="42.83049" lon="1.44012">
        <ele>2197.23</ele>
        <time>2016-10-30T11:50:03Z</time>
      </trkpt>
      <trkpt lat="42.83049" lon="1.44012">
        <ele>2197.23</ele>
        <time>2016-10-30T11:50:35Z</time>
      </trkpt>
      <trkpt lat="42.83049" lon="1.44012">
        <ele>2197.23</ele>
        <time>2016-10-30T11:51:04Z</time>
      </trkpt>
      <trkpt lat="42.83049" lon="1.44013">
        <ele>2197.71</ele>
        <time>2016-10-30T11:51:21Z</time>
      </trkpt>
      <trkpt lat="42.8305" lon="1.44012">
        <ele>2197.71</ele>
        <time>2016-10-30T11:51:39Z</time>
      </trkpt>
      <trkpt lat="42.8305" lon="1.44011">
        <ele>2197.71</ele>
        <time>2016-10-30T11:51:56Z</time>
      </trkpt>
      <trkpt lat="42.8305" lon="1.4401">
        <ele>2197.71</ele>
        <time>2016-10-30T11:52:28Z</time>
      </trkpt>
      <trkpt lat="42.83049" lon="1.4401">
        <ele>2197.71</ele>
        <time>2016-10-30T11:52:45Z</time>
      </trkpt>
      <trkpt lat="42.83049" lon="1.4401">
        <ele>2197.71</ele>
        <time>2016-10-30T11:53:00Z</time>
      </trkpt>
      <trkpt lat="42.83049" lon="1.4401">
        <ele>2198.19</ele>
        <time>2016-10-30T11:53:21Z</time>
      </trkpt>
      <trkpt lat="42.83049" lon="1.4401">
        <ele>2198.19</ele>
        <time>2016-10-30T11:53:44Z</time>
      </trkpt>
      <trkpt lat="42.83049" lon="1.4401">
        <ele>2198.67</ele>
        <time>2016-10-30T11:54:10Z</time>
      </trkpt>
      <trkpt lat="42.83049" lon="1.4401">
        <ele>2198.67</ele>
        <time>2016-10-30T11:54:26Z</time>
      </trkpt>
      <trkpt lat="42.83049" lon="1.4401">
        <ele>2198.67</ele>
        <time>2016-10-30T11:54:55Z</time>
      </trkpt>
      <trkpt lat="42.83049" lon="1.44011">
        <ele>2198.67</ele>
        <time>2016-10-30T11:55:13Z</time>
      </trkpt>
      <trkpt lat="42.83049" lon="1.44011">
        <ele>2198.67</ele>
        <time>2016-10-30T11:55:34Z</time>
      </trkpt>
      <trkpt lat="42.83049" lon="1.44011">
        <ele>2198.67</ele>
        <time>2016-10-30T11:55:54Z</time>
      </trkpt>
      <trkpt lat="42.83049" lon="1.44011">
        <ele>2198.67</ele>
        <time>2016-10-30T11:56:16Z</time>
      </trkpt>
      <trkpt lat="42.83048" lon="1.44012">
        <ele>2198.67</ele>
        <time>2016-10-30T11:56:37Z</time>
      </trkpt>
      <trkpt lat="42.83047" lon="1.44012">
        <ele>2198.67</ele>
        <time>2016-10-30T11:57:01Z</time>
      </trkpt>
      <trkpt lat="42.83047" lon="1.44012">
        <ele>2198.67</ele>
        <time>2016-10-30T11:57:17Z</time>
      </trkpt>
      <trkpt lat="42.83047" lon="1.44012">
        <ele>2198.67</ele>
        <time>2016-10-30T11:57:41Z</time>
      </trkpt>
      <trkpt lat="42.83048" lon="1.44012">
        <ele>2198.67</ele>
        <time>2016-10-30T11:58:00Z</time>
      </trkpt>
      <trkpt lat="42.83048" lon="1.44011">
        <ele>2198.67</ele>
        <time>2016-10-30T11:58:27Z</time>
      </trkpt>
      <trkpt lat="42.83048" lon="1.44012">
        <ele>2198.67</ele>
        <time>2016-10-30T11:58:58Z</time>
      </trkpt>
      <trkpt lat="42.83048" lon="1.44011">
        <ele>2198.67</ele>
        <time>2016-10-30T11:59:16Z</time>
      </trkpt>
      <trkpt lat="42.83048" lon="1.44011">
        <ele>2198.19</ele>
        <time>2016-10-30T11:59:44Z</time>
      </trkpt>
      <trkpt lat="42.83048" lon="1.44012">
        <ele>2198.19</ele>
        <time>2016-10-30T12:00:07Z</time>
      </trkpt>
      <trkpt lat="42.83048" lon="1.44012">
        <ele>2198.19</ele>
        <time>2016-10-30T12:00:34Z</time>
      </trkpt>
      <trkpt lat="42.83048" lon="1.44012">
        <ele>2198.19</ele>
        <time>2016-10-30T12:00:51Z</time>
      </trkpt>
      <trkpt lat="42.83047" lon="1.44012">
        <ele>2198.19</ele>
        <time>2016-10-30T12:01:17Z</time>
      </trkpt>
      <trkpt lat="42.83048" lon="1.44011">
        <ele>2198.19</ele>
        <time>2016-10-30T12:01:47Z</time>
      </trkpt>
      <trkpt lat="42.83049" lon="1.44011">
        <ele>2198.19</ele>
        <time>2016-10-30T12:02:07Z</time>
      </trkpt>
      <trkpt lat="42.83049" lon="1.44011">
        <ele>2198.19</ele>
        <time>2016-10-30T12:02:26Z</time>
      </trkpt>
      <trkpt lat="42.83049" lon="1.44011">
        <ele>2198.19</ele>
        <time>2016-10-30T12:02:42Z</time>
      </trkpt>
      <trkpt lat="42.83049" lon="1.44011">
        <ele>2198.19</ele>
        <time>2016-10-30T12:03:10Z</time>
      </trkpt>
      <trkpt lat="42.83049" lon="1.4401">
        <ele>2198.19</ele>
        <time>2016-10-30T12:03:44Z</time>
      </trkpt>
      <trkpt lat="42.83049" lon="1.44011">
        <ele>2198.19</ele>
        <time>2016-10-30T12:03:59Z</time>
      </trkpt>
      <trkpt lat="42.83048" lon="1.44011">
        <ele>2198.67</ele>
        <time>2016-10-30T12:04:32Z</time>
      </trkpt>
      <trkpt lat="42.83048" lon="1.44011">
        <ele>2198.67</ele>
        <time>2016-10-30T12:04:54Z</time>
      </trkpt>
      <trkpt lat="42.83048" lon="1.44011">
        <ele>2198.67</ele>
        <time>2016-10-30T12:05:17Z</time>
      </trkpt>
      <trkpt lat="42.83048" lon="1.44011">
        <ele>2198.67</ele>
        <time>2016-10-30T12:05:46Z</time>
      </trkpt>
      <trkpt lat="42.83048" lon="1.44011">
        <ele>2198.67</ele>
        <time>2016-10-30T12:06:12Z</time>
      </trkpt>
      <trkpt lat="42.83049" lon="1.44011">
        <ele>2198.67</ele>
        <time>2016-10-30T12:06:32Z</time>
      </trkpt>
      <trkpt lat="42.83048" lon="1.44011">
        <ele>2198.67</ele>
        <time>2016-10-30T12:06:52Z</time>
      </trkpt>
      <trkpt lat="42.83047" lon="1.44013">
        <ele>2198.67</ele>
        <time>2016-10-30T12:07:09Z</time>
      </trkpt>
      <trkpt lat="42.83045" lon="1.44013">
        <ele>2198.67</ele>
        <time>2016-10-30T12:07:30Z</time>
      </trkpt>
      <trkpt lat="42.83045" lon="1.44014">
        <ele>2198.67</ele>
        <time>2016-10-30T12:07:48Z</time>
      </trkpt>
      <trkpt lat="42.83045" lon="1.44014">
        <ele>2198.67</ele>
        <time>2016-10-30T12:08:07Z</time>
      </trkpt>
      <trkpt lat="42.83045" lon="1.44014">
        <ele>2198.67</ele>
        <time>2016-10-30T12:08:32Z</time>
      </trkpt>
      <trkpt lat="42.83046" lon="1.44012">
        <ele>2198.67</ele>
        <time>2016-10-30T12:08:54Z</time>
      </trkpt>
      <trkpt lat="42.83047" lon="1.44012">
        <ele>2198.67</ele>
        <time>2016-10-30T12:09:10Z</time>
      </trkpt>
      <trkpt lat="42.83047" lon="1.44012">
        <ele>2198.67</ele>
        <time>2016-10-30T12:09:30Z</time>
      </trkpt>
      <trkpt lat="42.83047" lon="1.44012">
        <ele>2198.67</ele>
        <time>2016-10-30T12:09:45Z</time>
      </trkpt>
      <trkpt lat="42.83048" lon="1.44012">
        <ele>2198.67</ele>
        <time>2016-10-30T12:09:49Z</time>
      </trkpt>
      <trkpt lat="42.82861" lon="1.43517">
        <ele>2016.02</ele>
        <time>2016-10-30T13:22:32Z</time>
      </trkpt>
      <trkpt lat="42.82864" lon="1.4352">
        <ele>2016.02</ele>
        <time>2016-10-30T13:22:33Z</time>
      </trkpt>
      <trkpt lat="42.82856" lon="1.43491">
        <ele>2018.91</ele>
        <time>2016-10-30T13:22:48Z</time>
      </trkpt>
      <trkpt lat="42.82857" lon="1.43491">
        <ele>2022.27</ele>
        <time>2016-10-30T13:22:59Z</time>
      </trkpt>
      <trkpt lat="42.82858" lon="1.4349">
        <ele>2025.15</ele>
        <time>2016-10-30T13:23:20Z</time>
      </trkpt>
      <trkpt lat="42.82859" lon="1.43494">
        <ele>2026.6</ele>
        <time>2016-10-30T13:23:37Z</time>
      </trkpt>
      <trkpt lat="42.82859" lon="1.43493">
        <ele>2028.04</ele>
        <time>2016-10-30T13:23:58Z</time>
      </trkpt>
      <trkpt lat="42.82859" lon="1.43494">
        <ele>2028.52</ele>
        <time>2016-10-30T13:24:15Z</time>
      </trkpt>
      <trkpt lat="42.82858" lon="1.43493">
        <ele>2028.52</ele>
        <time>2016-10-30T13:24:28Z</time>
      </trkpt>
      <trkpt lat="42.82858" lon="1.43492">
        <ele>2028.52</ele>
        <time>2016-10-30T13:24:51Z</time>
      </trkpt>
      <trkpt lat="42.82857" lon="1.43491">
        <ele>2028.52</ele>
        <time>2016-10-30T13:25:14Z</time>
      </trkpt>
      <trkpt lat="42.82857" lon="1.4349">
        <ele>2028.52</ele>
        <time>2016-10-30T13:25:30Z</time>
      </trkpt>
      <trkpt lat="42.82857" lon="1.43489">
        <ele>2028.52</ele>
        <time>2016-10-30T13:25:52Z</time>
      </trkpt>
      <trkpt lat="42.82857" lon="1.43489">
        <ele>2028.52</ele>
        <time>2016-10-30T13:26:08Z</time>
      </trkpt>
      <trkpt lat="42.82857" lon="1.43489">
        <ele>2028.52</ele>
        <time>2016-10-30T13:26:23Z</time>
      </trkpt>
      <trkpt lat="42.82856" lon="1.43489">
        <ele>2028.52</ele>
        <time>2016-10-30T13:26:38Z</time>
      </trkpt>
      <trkpt lat="42.82857" lon="1.43489">
        <ele>2028.52</ele>
        <time>2016-10-30T13:26:58Z</time>
      </trkpt>
      <trkpt lat="42.82858" lon="1.43482">
        <ele>2026.6</ele>
        <time>2016-10-30T13:27:12Z</time>
      </trkpt>
      <trkpt lat="42.82858" lon="1.43482">
        <ele>2025.15</ele>
        <time>2016-10-30T13:27:24Z</time>
      </trkpt>
      <trkpt lat="42.8286" lon="1.43479">
        <ele>2024.19</ele>
        <time>2016-10-30T13:27:31Z</time>
      </trkpt>
      <trkpt lat="42.8286" lon="1.43473">
        <ele>2020.83</ele>
        <time>2016-10-30T13:27:40Z</time>
      </trkpt>
      <trkpt lat="42.8286" lon="1.43472">
        <ele>2020.35</ele>
        <time>2016-10-30T13:27:41Z</time>
      </trkpt>
      <trkpt lat="42.82859" lon="1.4347">
        <ele>2017.94</ele>
        <time>2016-10-30T13:27:43Z</time>
      </trkpt>
      <trkpt lat="42.82859" lon="1.43468">
        <ele>2016.02</ele>
        <time>2016-10-30T13:27:53Z</time>
      </trkpt>
      <trkpt lat="42.82859" lon="1.43467">
        <ele>2016.98</ele>
        <time>2016-10-30T13:28:10Z</time>
      </trkpt>
      <trkpt lat="42.82859" lon="1.43465">
        <ele>2016.98</ele>
        <time>2016-10-30T13:28:22Z</time>
      </trkpt>
      <trkpt lat="42.82859" lon="1.43465">
        <ele>2016.98</ele>
        <time>2016-10-30T13:28:31Z</time>
      </trkpt>
      <trkpt lat="42.82858" lon="1.43459">
        <ele>2015.54</ele>
        <time>2016-10-30T13:28:41Z</time>
      </trkpt>
      <trkpt lat="42.82858" lon="1.43459">
        <ele>2012.18</ele>
        <time>2016-10-30T13:28:47Z</time>
      </trkpt>
      <trkpt lat="42.82858" lon="1.43459">
        <ele>2011.7</ele>
        <time>2016-10-30T13:28:56Z</time>
      </trkpt>
      <trkpt lat="42.82856" lon="1.43457">
        <ele>2011.7</ele>
        <time>2016-10-30T13:28:59Z</time>
      </trkpt>
      <trkpt lat="42.8285" lon="1.43455">
        <ele>2011.22</ele>
        <time>2016-10-30T13:29:08Z</time>
      </trkpt>
      <trkpt lat="42.82844" lon="1.4345">
        <ele>2009.29</ele>
        <time>2016-10-30T13:29:17Z</time>
      </trkpt>
      <trkpt lat="42.82842" lon="1.43446">
        <ele>2008.81</ele>
        <time>2016-10-30T13:29:20Z</time>
      </trkpt>
      <trkpt lat="42.82841" lon="1.43444">
        <ele>2007.37</ele>
        <time>2016-10-30T13:29:22Z</time>
      </trkpt>
      <trkpt lat="42.82838" lon="1.43442">
        <ele>2003.52</ele>
        <time>2016-10-30T13:29:27Z</time>
      </trkpt>
      <trkpt lat="42.82839" lon="1.43442">
        <ele>2003.52</ele>
        <time>2016-10-30T13:29:41Z</time>
      </trkpt>
      <trkpt lat="42.82839" lon="1.43442">
        <ele>2003.52</ele>
        <time>2016-10-30T13:29:42Z</time>
      </trkpt>
      <trkpt lat="42.82836" lon="1.43442">
        <ele>2004.49</ele>
        <time>2016-10-30T13:29:55Z</time>
      </trkpt>
      <trkpt lat="42.82835" lon="1.43442">
        <ele>2004.49</ele>
        <time>2016-10-30T13:30:17Z</time>
      </trkpt>
      <trkpt lat="42.82832" lon="1.43443">
        <ele>2004.49</ele>
        <time>2016-10-30T13:30:33Z</time>
      </trkpt>
      <trkpt lat="42.82831" lon="1.43441">
        <ele>2004.49</ele>
        <time>2016-10-30T13:30:44Z</time>
      </trkpt>
      <trkpt lat="42.82818" lon="1.43439">
        <ele>2004.49</ele>
        <time>2016-10-30T13:30:57Z</time>
      </trkpt>
      <trkpt lat="42.8281" lon="1.43445">
        <ele>2004.49</ele>
        <time>2016-10-30T13:31:05Z</time>
      </trkpt>
      <trkpt lat="42.82804" lon="1.43445">
        <ele>2004.49</ele>
        <time>2016-10-30T13:31:11Z</time>
      </trkpt>
      <trkpt lat="42.82802" lon="1.43442">
        <ele>2004.49</ele>
        <time>2016-10-30T13:31:16Z</time>
      </trkpt>
      <trkpt lat="42.82802" lon="1.4344">
        <ele>2004.49</ele>
        <time>2016-10-30T13:31:20Z</time>
      </trkpt>
      <trkpt lat="42.828" lon="1.43441">
        <ele>2003.04</ele>
        <time>2016-10-30T13:31:24Z</time>
      </trkpt>
      <trkpt lat="42.82797" lon="1.43441">
        <ele>2002.56</ele>
        <time>2016-10-30T13:31:28Z</time>
      </trkpt>
      <trkpt lat="42.82787" lon="1.43455">
        <ele>2000.64</ele>
        <time>2016-10-30T13:31:41Z</time>
      </trkpt>
      <trkpt lat="42.82786" lon="1.43456">
        <ele>2000.64</ele>
        <time>2016-10-30T13:31:43Z</time>
      </trkpt>
      <trkpt lat="42.82786" lon="1.43458">
        <ele>1999.68</ele>
        <time>2016-10-30T13:31:45Z</time>
      </trkpt>
      <trkpt lat="42.82777" lon="1.43465">
        <ele>1996.32</ele>
        <time>2016-10-30T13:31:56Z</time>
      </trkpt>
      <trkpt lat="42.82774" lon="1.43466">
        <ele>1994.39</ele>
        <time>2016-10-30T13:31:59Z</time>
      </trkpt>
      <trkpt lat="42.82774" lon="1.43464">
        <ele>1993.43</ele>
        <time>2016-10-30T13:32:05Z</time>
      </trkpt>
      <trkpt lat="42.82778" lon="1.43467">
        <ele>1993.43</ele>
        <time>2016-10-30T13:32:10Z</time>
      </trkpt>
      <trkpt lat="42.82779" lon="1.43474">
        <ele>1994.87</ele>
        <time>2016-10-30T13:32:18Z</time>
      </trkpt>
      <trkpt lat="42.82782" lon="1.43481">
        <ele>1995.35</ele>
        <time>2016-10-30T13:32:26Z</time>
      </trkpt>
      <trkpt lat="42.82782" lon="1.43486">
        <ele>1995.83</ele>
        <time>2016-10-30T13:32:31Z</time>
      </trkpt>
      <trkpt lat="42.82781" lon="1.43491">
        <ele>1995.83</ele>
        <time>2016-10-30T13:32:35Z</time>
      </trkpt>
      <trkpt lat="42.82776" lon="1.43496">
        <ele>1995.83</ele>
        <time>2016-10-30T13:32:40Z</time>
      </trkpt>
      <trkpt lat="42.82768" lon="1.43497">
        <ele>1994.87</ele>
        <time>2016-10-30T13:32:47Z</time>
      </trkpt>
      <trkpt lat="42.82764" lon="1.43497">
        <ele>1994.39</ele>
        <time>2016-10-30T13:32:59Z</time>
      </trkpt>
      <trkpt lat="42.82762" lon="1.43498">
        <ele>1993.43</ele>
        <time>2016-10-30T13:33:10Z</time>
      </trkpt>
      <trkpt lat="42.82761" lon="1.43499">
        <ele>1993.43</ele>
        <time>2016-10-30T13:33:29Z</time>
      </trkpt>
      <trkpt lat="42.82756" lon="1.43502">
        <ele>1992.95</ele>
        <time>2016-10-30T13:33:35Z</time>
      </trkpt>
      <trkpt lat="42.82749" lon="1.43505">
        <ele>1991.51</ele>
        <time>2016-10-30T13:33:45Z</time>
      </trkpt>
      <trkpt lat="42.82746" lon="1.43507">
        <ele>1990.55</ele>
        <time>2016-10-30T13:33:51Z</time>
      </trkpt>
      <trkpt lat="42.82742" lon="1.43502">
        <ele>1989.59</ele>
        <time>2016-10-30T13:34:02Z</time>
      </trkpt>
      <trkpt lat="42.82741" lon="1.43501">
        <ele>1988.14</ele>
        <time>2016-10-30T13:34:17Z</time>
      </trkpt>
      <trkpt lat="42.82738" lon="1.43496">
        <ele>1987.18</ele>
        <time>2016-10-30T13:34:33Z</time>
      </trkpt>
      <trkpt lat="42.82732" lon="1.43492">
        <ele>1985.74</ele>
        <time>2016-10-30T13:34:43Z</time>
      </trkpt>
      <trkpt lat="42.82731" lon="1.43491">
        <ele>1983.82</ele>
        <time>2016-10-30T13:34:58Z</time>
      </trkpt>
      <trkpt lat="42.82731" lon="1.43491">
        <ele>1983.82</ele>
        <time>2016-10-30T13:35:01Z</time>
      </trkpt>
      <trkpt lat="42.8273" lon="1.4349">
        <ele>1983.34</ele>
        <time>2016-10-30T13:35:03Z</time>
      </trkpt>
      <trkpt lat="42.82724" lon="1.43486">
        <ele>1982.38</ele>
        <time>2016-10-30T13:35:15Z</time>
      </trkpt>
      <trkpt lat="42.82719" lon="1.43484">
        <ele>1978.53</ele>
        <time>2016-10-30T13:35:22Z</time>
      </trkpt>
      <trkpt lat="42.82719" lon="1.43484">
        <ele>1978.05</ele>
        <time>2016-10-30T13:35:24Z</time>
      </trkpt>
      <trkpt lat="42.82718" lon="1.43485">
        <ele>1977.09</ele>
        <time>2016-10-30T13:35:32Z</time>
      </trkpt>
      <trkpt lat="42.82708" lon="1.43491">
        <ele>1977.09</ele>
        <time>2016-10-30T13:35:43Z</time>
      </trkpt>
      <trkpt lat="42.82706" lon="1.43493">
        <ele>1975.17</ele>
        <time>2016-10-30T13:35:55Z</time>
      </trkpt>
      <trkpt lat="42.82706" lon="1.43492">
        <ele>1974.69</ele>
        <time>2016-10-30T13:36:16Z</time>
      </trkpt>
      <trkpt lat="42.82706" lon="1.43491">
        <ele>1974.69</ele>
        <time>2016-10-30T13:36:56Z</time>
      </trkpt>
      <trkpt lat="42.82701" lon="1.43494">
        <ele>1974.69</ele>
        <time>2016-10-30T13:37:13Z</time>
      </trkpt>
      <trkpt lat="42.82698" lon="1.43494">
        <ele>1973.72</ele>
        <time>2016-10-30T13:37:28Z</time>
      </trkpt>
      <trkpt lat="42.82693" lon="1.43495">
        <ele>1972.76</ele>
        <time>2016-10-30T13:37:44Z</time>
      </trkpt>
      <trkpt lat="42.82688" lon="1.43501">
        <ele>1971.32</ele>
        <time>2016-10-30T13:37:55Z</time>
      </trkpt>
      <trkpt lat="42.82685" lon="1.43503">
        <ele>1970.84</ele>
        <time>2016-10-30T13:37:58Z</time>
      </trkpt>
      <trkpt lat="42.8268" lon="1.43511">
        <ele>1968.44</ele>
        <time>2016-10-30T13:38:07Z</time>
      </trkpt>
      <trkpt lat="42.82678" lon="1.43522">
        <ele>1967.48</ele>
        <time>2016-10-30T13:38:16Z</time>
      </trkpt>
      <trkpt lat="42.82675" lon="1.43526">
        <ele>1966.99</ele>
        <time>2016-10-30T13:38:20Z</time>
      </trkpt>
      <trkpt lat="42.82673" lon="1.43533">
        <ele>1966.03</ele>
        <time>2016-10-30T13:38:26Z</time>
      </trkpt>
      <trkpt lat="42.82671" lon="1.43538">
        <ele>1964.59</ele>
        <time>2016-10-30T13:38:32Z</time>
      </trkpt>
      <trkpt lat="42.82673" lon="1.43544">
        <ele>1960.75</ele>
        <time>2016-10-30T13:38:39Z</time>
      </trkpt>
      <trkpt lat="42.82673" lon="1.43546">
        <ele>1957.38</ele>
        <time>2016-10-30T13:38:43Z</time>
      </trkpt>
      <trkpt lat="42.82669" lon="1.43552">
        <ele>1955.94</ele>
        <time>2016-10-30T13:38:54Z</time>
      </trkpt>
      <trkpt lat="42.82668" lon="1.43553">
        <ele>1955.94</ele>
        <time>2016-10-30T13:38:56Z</time>
      </trkpt>
      <trkpt lat="42.82663" lon="1.43556">
        <ele>1954.5</ele>
        <time>2016-10-30T13:39:03Z</time>
      </trkpt>
      <trkpt lat="42.82661" lon="1.43556">
        <ele>1954.02</ele>
        <time>2016-10-30T13:39:08Z</time>
      </trkpt>
      <trkpt lat="42.82652" lon="1.43549">
        <ele>1953.06</ele>
        <time>2016-10-30T13:39:20Z</time>
      </trkpt>
      <trkpt lat="42.82649" lon="1.43547">
        <ele>1953.06</ele>
        <time>2016-10-30T13:39:24Z</time>
      </trkpt>
      <trkpt lat="42.8264" lon="1.43547">
        <ele>1951.13</ele>
        <time>2016-10-30T13:39:34Z</time>
      </trkpt>
      <trkpt lat="42.82635" lon="1.43549">
        <ele>1950.65</ele>
        <time>2016-10-30T13:39:40Z</time>
      </trkpt>
      <trkpt lat="42.82628" lon="1.43557">
        <ele>1950.17</ele>
        <time>2016-10-30T13:39:50Z</time>
      </trkpt>
      <trkpt lat="42.82621" lon="1.43565">
        <ele>1949.21</ele>
        <time>2016-10-30T13:40:00Z</time>
      </trkpt>
      <trkpt lat="42.82618" lon="1.43574">
        <ele>1947.29</ele>
        <time>2016-10-30T13:40:12Z</time>
      </trkpt>
      <trkpt lat="42.82618" lon="1.43577">
        <ele>1946.33</ele>
        <time>2016-10-30T13:40:16Z</time>
      </trkpt>
      <trkpt lat="42.82613" lon="1.43582">
        <ele>1945.85</ele>
        <time>2016-10-30T13:40:28Z</time>
      </trkpt>
      <trkpt lat="42.82612" lon="1.43583">
        <ele>1945.36</ele>
        <time>2016-10-30T13:40:29Z</time>
      </trkpt>
      <trkpt lat="42.82611" lon="1.43589">
        <ele>1945.36</ele>
        <time>2016-10-30T13:40:33Z</time>
      </trkpt>
      <trkpt lat="42.82608" lon="1.43592">
        <ele>1944.88</ele>
        <time>2016-10-30T13:40:36Z</time>
      </trkpt>
      <trkpt lat="42.82593" lon="1.43591">
        <ele>1943.92</ele>
        <time>2016-10-30T13:40:50Z</time>
      </trkpt>
      <trkpt lat="42.82593" lon="1.43591">
        <ele>1943.92</ele>
        <time>2016-10-30T13:40:51Z</time>
      </trkpt>
      <trkpt lat="42.8258" lon="1.43597">
        <ele>1943.92</ele>
        <time>2016-10-30T13:41:04Z</time>
      </trkpt>
      <trkpt lat="42.82575" lon="1.43599">
        <ele>1943.44</ele>
        <time>2016-10-30T13:41:15Z</time>
      </trkpt>
      <trkpt lat="42.8257" lon="1.43601">
        <ele>1942.96</ele>
        <time>2016-10-30T13:41:25Z</time>
      </trkpt>
      <trkpt lat="42.82564" lon="1.43601">
        <ele>1942.48</ele>
        <time>2016-10-30T13:41:32Z</time>
      </trkpt>
      <trkpt lat="42.82561" lon="1.43599">
        <ele>1941.52</ele>
        <time>2016-10-30T13:41:36Z</time>
      </trkpt>
      <trkpt lat="42.82554" lon="1.43595">
        <ele>1940.56</ele>
        <time>2016-10-30T13:41:49Z</time>
      </trkpt>
      <trkpt lat="42.82551" lon="1.43595">
        <ele>1939.6</ele>
        <time>2016-10-30T13:41:56Z</time>
      </trkpt>
      <trkpt lat="42.82548" lon="1.43595">
        <ele>1937.67</ele>
        <time>2016-10-30T13:42:04Z</time>
      </trkpt>
      <trkpt lat="42.82544" lon="1.43594">
        <ele>1937.19</ele>
        <time>2016-10-30T13:42:09Z</time>
      </trkpt>
      <trkpt lat="42.82541" lon="1.43596">
        <ele>1936.71</ele>
        <time>2016-10-30T13:42:12Z</time>
      </trkpt>
      <trkpt lat="42.82534" lon="1.43594">
        <ele>1934.79</ele>
        <time>2016-10-30T13:42:22Z</time>
      </trkpt>
      <trkpt lat="42.82531" lon="1.43591">
        <ele>1933.83</ele>
        <time>2016-10-30T13:42:31Z</time>
      </trkpt>
      <trkpt lat="42.8253" lon="1.43591">
        <ele>1932.39</ele>
        <time>2016-10-30T13:42:52Z</time>
      </trkpt>
      <trkpt lat="42.82528" lon="1.4359">
        <ele>1932.39</ele>
        <time>2016-10-30T13:42:56Z</time>
      </trkpt>
      <trkpt lat="42.82525" lon="1.43588">
        <ele>1931.43</ele>
        <time>2016-10-30T13:42:59Z</time>
      </trkpt>
      <trkpt lat="42.82521" lon="1.43586">
        <ele>1930.95</ele>
        <time>2016-10-30T13:43:03Z</time>
      </trkpt>
      <trkpt lat="42.82518" lon="1.43582">
        <ele>1930.46</ele>
        <time>2016-10-30T13:43:07Z</time>
      </trkpt>
      <trkpt lat="42.82515" lon="1.4358">
        <ele>1929.98</ele>
        <time>2016-10-30T13:43:10Z</time>
      </trkpt>
      <trkpt lat="42.82507" lon="1.4358">
        <ele>1928.06</ele>
        <time>2016-10-30T13:43:20Z</time>
      </trkpt>
      <trkpt lat="42.82503" lon="1.43579">
        <ele>1927.58</ele>
        <time>2016-10-30T13:43:30Z</time>
      </trkpt>
      <trkpt lat="42.82499" lon="1.43578">
        <ele>1926.14</ele>
        <time>2016-10-30T13:43:42Z</time>
      </trkpt>
      <trkpt lat="42.82497" lon="1.43577">
        <ele>1924.22</ele>
        <time>2016-10-30T13:43:56Z</time>
      </trkpt>
      <trkpt lat="42.82496" lon="1.43578">
        <ele>1923.74</ele>
        <time>2016-10-30T13:44:08Z</time>
      </trkpt>
      <trkpt lat="42.82496" lon="1.43577">
        <ele>1923.25</ele>
        <time>2016-10-30T13:44:34Z</time>
      </trkpt>
      <trkpt lat="42.82496" lon="1.43577">
        <ele>1922.77</ele>
        <time>2016-10-30T13:44:58Z</time>
      </trkpt>
      <trkpt lat="42.82495" lon="1.43576">
        <ele>1922.77</ele>
        <time>2016-10-30T13:45:21Z</time>
      </trkpt>
      <trkpt lat="42.82495" lon="1.43575">
        <ele>1922.77</ele>
        <time>2016-10-30T13:45:38Z</time>
      </trkpt>
      <trkpt lat="42.82494" lon="1.43576">
        <ele>1922.77</ele>
        <time>2016-10-30T13:45:58Z</time>
      </trkpt>
      <trkpt lat="42.82495" lon="1.43575">
        <ele>1922.29</ele>
        <time>2016-10-30T13:46:29Z</time>
      </trkpt>
      <trkpt lat="42.82495" lon="1.43574">
        <ele>1921.81</ele>
        <time>2016-10-30T13:46:59Z</time>
      </trkpt>
      <trkpt lat="42.82495" lon="1.43573">
        <ele>1921.81</ele>
        <time>2016-10-30T13:47:19Z</time>
      </trkpt>
      <trkpt lat="42.82492" lon="1.43572">
        <ele>1921.33</ele>
        <time>2016-10-30T13:47:29Z</time>
      </trkpt>
      <trkpt lat="42.82492" lon="1.43572">
        <ele>1920.85</ele>
        <time>2016-10-30T13:47:32Z</time>
      </trkpt>
      <trkpt lat="42.8249" lon="1.43573">
        <ele>1920.85</ele>
        <time>2016-10-30T13:47:34Z</time>
      </trkpt>
      <trkpt lat="42.82482" lon="1.43569">
        <ele>1918.45</ele>
        <time>2016-10-30T13:47:43Z</time>
      </trkpt>
      <trkpt lat="42.82481" lon="1.43563">
        <ele>1917.97</ele>
        <time>2016-10-30T13:47:49Z</time>
      </trkpt>
      <trkpt lat="42.82479" lon="1.43563">
        <ele>1917.49</ele>
        <time>2016-10-30T13:47:51Z</time>
      </trkpt>
      <trkpt lat="42.82472" lon="1.43554">
        <ele>1916.04</ele>
        <time>2016-10-30T13:48:01Z</time>
      </trkpt>
      <trkpt lat="42.82466" lon="1.43552">
        <ele>1915.08</ele>
        <time>2016-10-30T13:48:11Z</time>
      </trkpt>
      <trkpt lat="42.82462" lon="1.43547">
        <ele>1912.2</ele>
        <time>2016-10-30T13:48:18Z</time>
      </trkpt>
      <trkpt lat="42.8246" lon="1.43544">
        <ele>1908.83</ele>
        <time>2016-10-30T13:48:23Z</time>
      </trkpt>
      <trkpt lat="42.82454" lon="1.4354">
        <ele>1908.35</ele>
        <time>2016-10-30T13:48:34Z</time>
      </trkpt>
      <trkpt lat="42.82451" lon="1.43538">
        <ele>1908.35</ele>
        <time>2016-10-30T13:48:39Z</time>
      </trkpt>
      <trkpt lat="42.82447" lon="1.43535">
        <ele>1907.87</ele>
        <time>2016-10-30T13:48:43Z</time>
      </trkpt>
      <trkpt lat="42.82445" lon="1.43532">
        <ele>1907.39</ele>
        <time>2016-10-30T13:48:48Z</time>
      </trkpt>
      <trkpt lat="42.82443" lon="1.43531">
        <ele>1906.91</ele>
        <time>2016-10-30T13:48:51Z</time>
      </trkpt>
      <trkpt lat="42.82441" lon="1.43527">
        <ele>1904.99</ele>
        <time>2016-10-30T13:48:58Z</time>
      </trkpt>
      <trkpt lat="42.82435" lon="1.43523">
        <ele>1901.63</ele>
        <time>2016-10-30T13:49:05Z</time>
      </trkpt>
      <trkpt lat="42.82434" lon="1.43518">
        <ele>1898.74</ele>
        <time>2016-10-30T13:49:09Z</time>
      </trkpt>
      <trkpt lat="42.82433" lon="1.43516">
        <ele>1897.78</ele>
        <time>2016-10-30T13:49:11Z</time>
      </trkpt>
      <trkpt lat="42.82427" lon="1.43512">
        <ele>1896.82</ele>
        <time>2016-10-30T13:49:19Z</time>
      </trkpt>
      <trkpt lat="42.82424" lon="1.43512">
        <ele>1896.82</ele>
        <time>2016-10-30T13:49:22Z</time>
      </trkpt>
      <trkpt lat="42.82417" lon="1.43505">
        <ele>1895.86</ele>
        <time>2016-10-30T13:49:31Z</time>
      </trkpt>
      <trkpt lat="42.82415" lon="1.43497">
        <ele>1894.9</ele>
        <time>2016-10-30T13:49:42Z</time>
      </trkpt>
      <trkpt lat="42.82413" lon="1.4349">
        <ele>1894.9</ele>
        <time>2016-10-30T13:49:51Z</time>
      </trkpt>
      <trkpt lat="42.82412" lon="1.43489">
        <ele>1894.9</ele>
        <time>2016-10-30T13:49:53Z</time>
      </trkpt>
      <trkpt lat="42.8241" lon="1.43488">
        <ele>1894.9</ele>
        <time>2016-10-30T13:49:56Z</time>
      </trkpt>
      <trkpt lat="42.82407" lon="1.43486">
        <ele>1894.42</ele>
        <time>2016-10-30T13:50:00Z</time>
      </trkpt>
      <trkpt lat="42.82406" lon="1.43484">
        <ele>1893.45</ele>
        <time>2016-10-30T13:50:02Z</time>
      </trkpt>
      <trkpt lat="42.82407" lon="1.43482">
        <ele>1893.93</ele>
        <time>2016-10-30T13:50:04Z</time>
      </trkpt>
      <trkpt lat="42.82409" lon="1.43473">
        <ele>1892.49</ele>
        <time>2016-10-30T13:50:14Z</time>
      </trkpt>
      <trkpt lat="42.82404" lon="1.43458">
        <ele>1892.49</ele>
        <time>2016-10-30T13:50:27Z</time>
      </trkpt>
      <trkpt lat="42.82404" lon="1.43456">
        <ele>1892.49</ele>
        <time>2016-10-30T13:50:29Z</time>
      </trkpt>
      <trkpt lat="42.82395" lon="1.4345">
        <ele>1892.49</ele>
        <time>2016-10-30T13:50:43Z</time>
      </trkpt>
      <trkpt lat="42.82393" lon="1.43449">
        <ele>1892.49</ele>
        <time>2016-10-30T13:50:46Z</time>
      </trkpt>
      <trkpt lat="42.82388" lon="1.43446">
        <ele>1892.49</ele>
        <time>2016-10-30T13:51:00Z</time>
      </trkpt>
      <trkpt lat="42.82388" lon="1.43447">
        <ele>1892.01</ele>
        <time>2016-10-30T13:51:20Z</time>
      </trkpt>
      <trkpt lat="42.82388" lon="1.43447">
        <ele>1892.01</ele>
        <time>2016-10-30T13:51:43Z</time>
      </trkpt>
      <trkpt lat="42.82389" lon="1.43447">
        <ele>1892.01</ele>
        <time>2016-10-30T13:52:15Z</time>
      </trkpt>
      <trkpt lat="42.82388" lon="1.43445">
        <ele>1892.01</ele>
        <time>2016-10-30T13:52:28Z</time>
      </trkpt>
      <trkpt lat="42.82387" lon="1.43444">
        <ele>1891.53</ele>
        <time>2016-10-30T13:52:52Z</time>
      </trkpt>
      <trkpt lat="42.82386" lon="1.43442">
        <ele>1891.53</ele>
        <time>2016-10-30T13:53:12Z</time>
      </trkpt>
      <trkpt lat="42.82387" lon="1.43441">
        <ele>1891.53</ele>
        <time>2016-10-30T13:53:25Z</time>
      </trkpt>
      <trkpt lat="42.82388" lon="1.43442">
        <ele>1891.05</ele>
        <time>2016-10-30T13:53:48Z</time>
      </trkpt>
      <trkpt lat="42.82388" lon="1.43443">
        <ele>1891.05</ele>
        <time>2016-10-30T13:54:13Z</time>
      </trkpt>
      <trkpt lat="42.82388" lon="1.43443">
        <ele>1891.05</ele>
        <time>2016-10-30T13:54:35Z</time>
      </trkpt>
      <trkpt lat="42.82387" lon="1.43444">
        <ele>1891.05</ele>
        <time>2016-10-30T13:54:49Z</time>
      </trkpt>
      <trkpt lat="42.82387" lon="1.43444">
        <ele>1891.05</ele>
        <time>2016-10-30T13:55:06Z</time>
      </trkpt>
      <trkpt lat="42.82388" lon="1.43444">
        <ele>1891.05</ele>
        <time>2016-10-30T13:55:23Z</time>
      </trkpt>
      <trkpt lat="42.82387" lon="1.43442">
        <ele>1891.05</ele>
        <time>2016-10-30T13:55:36Z</time>
      </trkpt>
      <trkpt lat="42.82386" lon="1.43436">
        <ele>1890.09</ele>
        <time>2016-10-30T13:55:42Z</time>
      </trkpt>
      <trkpt lat="42.82384" lon="1.43432">
        <ele>1889.13</ele>
        <time>2016-10-30T13:55:48Z</time>
      </trkpt>
      <trkpt lat="42.82378" lon="1.4343">
        <ele>1887.21</ele>
        <time>2016-10-30T13:56:00Z</time>
      </trkpt>
      <trkpt lat="42.82378" lon="1.4343">
        <ele>1886.72</ele>
        <time>2016-10-30T13:56:01Z</time>
      </trkpt>
      <trkpt lat="42.82375" lon="1.43424">
        <ele>1885.76</ele>
        <time>2016-10-30T13:56:07Z</time>
      </trkpt>
      <trkpt lat="42.82371" lon="1.43418">
        <ele>1883.84</ele>
        <time>2016-10-30T13:56:17Z</time>
      </trkpt>
      <trkpt lat="42.82369" lon="1.43417">
        <ele>1882.4</ele>
        <time>2016-10-30T13:56:20Z</time>
      </trkpt>
      <trkpt lat="42.82364" lon="1.43418">
        <ele>1879.51</ele>
        <time>2016-10-30T13:56:24Z</time>
      </trkpt>
      <trkpt lat="42.82364" lon="1.4341">
        <ele>1876.15</ele>
        <time>2016-10-30T13:56:35Z</time>
      </trkpt>
      <trkpt lat="42.82363" lon="1.43405">
        <ele>1875.67</ele>
        <time>2016-10-30T13:56:41Z</time>
      </trkpt>
      <trkpt lat="42.82361" lon="1.43398">
        <ele>1874.71</ele>
        <time>2016-10-30T13:56:48Z</time>
      </trkpt>
      <trkpt lat="42.82356" lon="1.434">
        <ele>1870.86</ele>
        <time>2016-10-30T13:56:56Z</time>
      </trkpt>
      <trkpt lat="42.82353" lon="1.43402">
        <ele>1868.46</ele>
        <time>2016-10-30T13:56:59Z</time>
      </trkpt>
      <trkpt lat="42.82346" lon="1.43397">
        <ele>1866.06</ele>
        <time>2016-10-30T13:57:09Z</time>
      </trkpt>
      <trkpt lat="42.82343" lon="1.43395">
        <ele>1866.06</ele>
        <time>2016-10-30T13:57:12Z</time>
      </trkpt>
      <trkpt lat="42.8234" lon="1.43389">
        <ele>1865.09</ele>
        <time>2016-10-30T13:57:22Z</time>
      </trkpt>
      <trkpt lat="42.82338" lon="1.43386">
        <ele>1864.13</ele>
        <time>2016-10-30T13:57:32Z</time>
      </trkpt>
      <trkpt lat="42.82332" lon="1.43376">
        <ele>1861.73</ele>
        <time>2016-10-30T13:57:46Z</time>
      </trkpt>
      <trkpt lat="42.82331" lon="1.43377">
        <ele>1859.33</ele>
        <time>2016-10-30T13:57:49Z</time>
      </trkpt>
      <trkpt lat="42.82327" lon="1.43378">
        <ele>1856.92</ele>
        <time>2016-10-30T13:57:56Z</time>
      </trkpt>
      <trkpt lat="42.82327" lon="1.43377">
        <ele>1856.92</ele>
        <time>2016-10-30T13:58:04Z</time>
      </trkpt>
      <trkpt lat="42.82326" lon="1.43375">
        <ele>1856.92</ele>
        <time>2016-10-30T13:58:06Z</time>
      </trkpt>
      <trkpt lat="42.82326" lon="1.43372">
        <ele>1856.44</ele>
        <time>2016-10-30T13:58:16Z</time>
      </trkpt>
      <trkpt lat="42.82324" lon="1.43369">
        <ele>1854.52</ele>
        <time>2016-10-30T13:58:26Z</time>
      </trkpt>
      <trkpt lat="42.82323" lon="1.43368">
        <ele>1853.08</ele>
        <time>2016-10-30T13:58:51Z</time>
      </trkpt>
      <trkpt lat="42.82323" lon="1.43366">
        <ele>1853.08</ele>
        <time>2016-10-30T13:59:09Z</time>
      </trkpt>
      <trkpt lat="42.82324" lon="1.43365">
        <ele>1852.6</ele>
        <time>2016-10-30T13:59:17Z</time>
      </trkpt>
      <trkpt lat="42.82321" lon="1.43362">
        <ele>1851.16</ele>
        <time>2016-10-30T13:59:23Z</time>
      </trkpt>
      <trkpt lat="42.82324" lon="1.43361">
        <ele>1850.19</ele>
        <time>2016-10-30T13:59:27Z</time>
      </trkpt>
      <trkpt lat="42.82324" lon="1.43355">
        <ele>1848.75</ele>
        <time>2016-10-30T13:59:32Z</time>
      </trkpt>
      <trkpt lat="42.82322" lon="1.43352">
        <ele>1844.91</ele>
        <time>2016-10-30T13:59:36Z</time>
      </trkpt>
      <trkpt lat="42.82322" lon="1.43351">
        <ele>1842.02</ele>
        <time>2016-10-30T13:59:39Z</time>
      </trkpt>
      <trkpt lat="42.82321" lon="1.43351">
        <ele>1842.02</ele>
        <time>2016-10-30T13:59:40Z</time>
      </trkpt>
      <trkpt lat="42.82321" lon="1.4335">
        <ele>1840.58</ele>
        <time>2016-10-30T13:59:42Z</time>
      </trkpt>
      <trkpt lat="42.82321" lon="1.4335">
        <ele>1841.06</ele>
        <time>2016-10-30T13:59:43Z</time>
      </trkpt>
      <trkpt lat="42.8232" lon="1.43345">
        <ele>1841.54</ele>
        <time>2016-10-30T13:59:51Z</time>
      </trkpt>
      <trkpt lat="42.82317" lon="1.43341">
        <ele>1841.06</ele>
        <time>2016-10-30T13:59:58Z</time>
      </trkpt>
      <trkpt lat="42.82313" lon="1.43339">
        <ele>1840.58</ele>
        <time>2016-10-30T14:00:07Z</time>
      </trkpt>
      <trkpt lat="42.82311" lon="1.4334">
        <ele>1840.1</ele>
        <time>2016-10-30T14:00:11Z</time>
      </trkpt>
      <trkpt lat="42.8231" lon="1.4334">
        <ele>1839.62</ele>
        <time>2016-10-30T14:00:13Z</time>
      </trkpt>
      <trkpt lat="42.82307" lon="1.43337">
        <ele>1838.66</ele>
        <time>2016-10-30T14:00:16Z</time>
      </trkpt>
      <trkpt lat="42.82301" lon="1.43331">
        <ele>1834.81</ele>
        <time>2016-10-30T14:00:23Z</time>
      </trkpt>
      <trkpt lat="42.823" lon="1.43329">
        <ele>1833.37</ele>
        <time>2016-10-30T14:00:25Z</time>
      </trkpt>
      <trkpt lat="42.82299" lon="1.43326">
        <ele>1831.45</ele>
        <time>2016-10-30T14:00:28Z</time>
      </trkpt>
      <trkpt lat="42.82294" lon="1.43323">
        <ele>1830.97</ele>
        <time>2016-10-30T14:00:38Z</time>
      </trkpt>
      <trkpt lat="42.82291" lon="1.43322">
        <ele>1830.97</ele>
        <time>2016-10-30T14:00:49Z</time>
      </trkpt>
      <trkpt lat="42.82288" lon="1.43324">
        <ele>1830.97</ele>
        <time>2016-10-30T14:00:57Z</time>
      </trkpt>
      <trkpt lat="42.82286" lon="1.43325">
        <ele>1830.49</ele>
        <time>2016-10-30T14:01:00Z</time>
      </trkpt>
      <trkpt lat="42.82282" lon="1.43325">
        <ele>1829.53</ele>
        <time>2016-10-30T14:01:04Z</time>
      </trkpt>
      <trkpt lat="42.82278" lon="1.43326">
        <ele>1828.56</ele>
        <time>2016-10-30T14:01:08Z</time>
      </trkpt>
      <trkpt lat="42.82277" lon="1.43328">
        <ele>1828.08</ele>
        <time>2016-10-30T14:01:10Z</time>
      </trkpt>
      <trkpt lat="42.82278" lon="1.43329">
        <ele>1828.08</ele>
        <time>2016-10-30T14:01:12Z</time>
      </trkpt>
      <trkpt lat="42.82273" lon="1.43337">
        <ele>1824.24</ele>
        <time>2016-10-30T14:01:19Z</time>
      </trkpt>
      <trkpt lat="42.82271" lon="1.43339">
        <ele>1823.76</ele>
        <time>2016-10-30T14:01:21Z</time>
      </trkpt>
      <trkpt lat="42.82269" lon="1.43336">
        <ele>1823.28</ele>
        <time>2016-10-30T14:01:26Z</time>
      </trkpt>
      <trkpt lat="42.82264" lon="1.43336">
        <ele>1822.8</ele>
        <time>2016-10-30T14:01:31Z</time>
      </trkpt>
      <trkpt lat="42.82262" lon="1.4334">
        <ele>1821.84</ele>
        <time>2016-10-30T14:01:35Z</time>
      </trkpt>
      <trkpt lat="42.8226" lon="1.43341">
        <ele>1821.35</ele>
        <time>2016-10-30T14:01:41Z</time>
      </trkpt>
      <trkpt lat="42.82258" lon="1.43343">
        <ele>1820.87</ele>
        <time>2016-10-30T14:01:45Z</time>
      </trkpt>
      <trkpt lat="42.82252" lon="1.43339">
        <ele>1818.95</ele>
        <time>2016-10-30T14:01:55Z</time>
      </trkpt>
      <trkpt lat="42.82251" lon="1.4334">
        <ele>1817.99</ele>
        <time>2016-10-30T14:02:07Z</time>
      </trkpt>
      <trkpt lat="42.8225" lon="1.43339">
        <ele>1817.51</ele>
        <time>2016-10-30T14:02:20Z</time>
      </trkpt>
      <trkpt lat="42.8225" lon="1.43336">
        <ele>1817.51</ele>
        <time>2016-10-30T14:02:25Z</time>
      </trkpt>
      <trkpt lat="42.82243" lon="1.43335">
        <ele>1817.51</ele>
        <time>2016-10-30T14:02:34Z</time>
      </trkpt>
      <trkpt lat="42.8224" lon="1.43334">
        <ele>1817.51</ele>
        <time>2016-10-30T14:02:38Z</time>
      </trkpt>
      <trkpt lat="42.82236" lon="1.43336">
        <ele>1816.55</ele>
        <time>2016-10-30T14:02:42Z</time>
      </trkpt>
      <trkpt lat="42.8223" lon="1.43337">
        <ele>1816.07</ele>
        <time>2016-10-30T14:02:53Z</time>
      </trkpt>
      <trkpt lat="42.8223" lon="1.43337">
        <ele>1816.07</ele>
        <time>2016-10-30T14:03:04Z</time>
      </trkpt>
      <trkpt lat="42.82231" lon="1.43335">
        <ele>1815.59</ele>
        <time>2016-10-30T14:03:19Z</time>
      </trkpt>
      <trkpt lat="42.82231" lon="1.43334">
        <ele>1815.59</ele>
        <time>2016-10-30T14:03:47Z</time>
      </trkpt>
      <trkpt lat="42.82229" lon="1.43333">
        <ele>1815.11</ele>
        <time>2016-10-30T14:04:07Z</time>
      </trkpt>
      <trkpt lat="42.82229" lon="1.43333">
        <ele>1815.11</ele>
        <time>2016-10-30T14:04:25Z</time>
      </trkpt>
      <trkpt lat="42.82229" lon="1.43333">
        <ele>1815.11</ele>
        <time>2016-10-30T14:04:45Z</time>
      </trkpt>
      <trkpt lat="42.82229" lon="1.43334">
        <ele>1815.11</ele>
        <time>2016-10-30T14:05:06Z</time>
      </trkpt>
      <trkpt lat="42.82228" lon="1.43333">
        <ele>1815.11</ele>
        <time>2016-10-30T14:05:36Z</time>
      </trkpt>
      <trkpt lat="42.82229" lon="1.43333">
        <ele>1815.11</ele>
        <time>2016-10-30T14:05:58Z</time>
      </trkpt>
      <trkpt lat="42.82229" lon="1.43335">
        <ele>1814.63</ele>
        <time>2016-10-30T14:06:26Z</time>
      </trkpt>
      <trkpt lat="42.82229" lon="1.43336">
        <ele>1814.63</ele>
        <time>2016-10-30T14:06:39Z</time>
      </trkpt>
      <trkpt lat="42.82229" lon="1.43336">
        <ele>1814.63</ele>
        <time>2016-10-30T14:07:06Z</time>
      </trkpt>
      <trkpt lat="42.82229" lon="1.43336">
        <ele>1814.63</ele>
        <time>2016-10-30T14:07:25Z</time>
      </trkpt>
      <trkpt lat="42.8223" lon="1.43337">
        <ele>1814.63</ele>
        <time>2016-10-30T14:07:53Z</time>
      </trkpt>
      <trkpt lat="42.82228" lon="1.43336">
        <ele>1814.63</ele>
        <time>2016-10-30T14:08:21Z</time>
      </trkpt>
      <trkpt lat="42.82224" lon="1.43338">
        <ele>1814.63</ele>
        <time>2016-10-30T14:08:27Z</time>
      </trkpt>
      <trkpt lat="42.82222" lon="1.43339">
        <ele>1814.63</ele>
        <time>2016-10-30T14:08:43Z</time>
      </trkpt>
      <trkpt lat="42.82221" lon="1.43339">
        <ele>1814.63</ele>
        <time>2016-10-30T14:08:52Z</time>
      </trkpt>
      <trkpt lat="42.82213" lon="1.4334">
        <ele>1814.15</ele>
        <time>2016-10-30T14:09:03Z</time>
      </trkpt>
      <trkpt lat="42.82205" lon="1.4334">
        <ele>1811.74</ele>
        <time>2016-10-30T14:09:14Z</time>
      </trkpt>
      <trkpt lat="42.82204" lon="1.43339">
        <ele>1811.26</ele>
        <time>2016-10-30T14:09:18Z</time>
      </trkpt>
      <trkpt lat="42.82202" lon="1.43341">
        <ele>1810.78</ele>
        <time>2016-10-30T14:09:21Z</time>
      </trkpt>
      <trkpt lat="42.82198" lon="1.43342">
        <ele>1808.86</ele>
        <time>2016-10-30T14:09:25Z</time>
      </trkpt>
      <trkpt lat="42.82193" lon="1.43345">
        <ele>1804.05</ele>
        <time>2016-10-30T14:09:30Z</time>
      </trkpt>
      <trkpt lat="42.82191" lon="1.43346">
        <ele>1803.09</ele>
        <time>2016-10-30T14:09:31Z</time>
      </trkpt>
      <trkpt lat="42.82187" lon="1.43345">
        <ele>1801.65</ele>
        <time>2016-10-30T14:09:34Z</time>
      </trkpt>
      <trkpt lat="42.82184" lon="1.43344">
        <ele>1804.53</ele>
        <time>2016-10-30T14:09:42Z</time>
      </trkpt>
      <trkpt lat="42.82184" lon="1.43343">
        <ele>1805.97</ele>
        <time>2016-10-30T14:09:46Z</time>
      </trkpt>
      <trkpt lat="42.82179" lon="1.43339">
        <ele>1804.05</ele>
        <time>2016-10-30T14:09:56Z</time>
      </trkpt>
      <trkpt lat="42.82178" lon="1.43339">
        <ele>1803.09</ele>
        <time>2016-10-30T14:10:04Z</time>
      </trkpt>
      <trkpt lat="42.82177" lon="1.43343">
        <ele>1802.13</ele>
        <time>2016-10-30T14:10:07Z</time>
      </trkpt>
      <trkpt lat="42.82174" lon="1.43347">
        <ele>1801.17</ele>
        <time>2016-10-30T14:10:14Z</time>
      </trkpt>
      <trkpt lat="42.82169" lon="1.43346">
        <ele>1797.8</ele>
        <time>2016-10-30T14:10:24Z</time>
      </trkpt>
      <trkpt lat="42.82169" lon="1.43346">
        <ele>1795.88</ele>
        <time>2016-10-30T14:10:43Z</time>
      </trkpt>
      <trkpt lat="42.82168" lon="1.43346">
        <ele>1795.88</ele>
        <time>2016-10-30T14:10:46Z</time>
      </trkpt>
      <trkpt lat="42.82166" lon="1.43348">
        <ele>1795.88</ele>
        <time>2016-10-30T14:10:56Z</time>
      </trkpt>
      <trkpt lat="42.82163" lon="1.43347">
        <ele>1793.48</ele>
        <time>2016-10-30T14:11:09Z</time>
      </trkpt>
      <trkpt lat="42.82161" lon="1.43349">
        <ele>1791.55</ele>
        <time>2016-10-30T14:11:20Z</time>
      </trkpt>
      <trkpt lat="42.82161" lon="1.43351">
        <ele>1790.59</ele>
        <time>2016-10-30T14:11:28Z</time>
      </trkpt>
      <trkpt lat="42.82159" lon="1.43354">
        <ele>1788.19</ele>
        <time>2016-10-30T14:11:43Z</time>
      </trkpt>
      <trkpt lat="42.82159" lon="1.43354">
        <ele>1788.19</ele>
        <time>2016-10-30T14:11:48Z</time>
      </trkpt>
      <trkpt lat="42.8216" lon="1.43366">
        <ele>1787.23</ele>
        <time>2016-10-30T14:12:01Z</time>
      </trkpt>
      <trkpt lat="42.8216" lon="1.4337">
        <ele>1786.75</ele>
        <time>2016-10-30T14:12:13Z</time>
      </trkpt>
      <trkpt lat="42.8216" lon="1.43371">
        <ele>1785.31</ele>
        <time>2016-10-30T14:12:27Z</time>
      </trkpt>
      <trkpt lat="42.82158" lon="1.43376">
        <ele>1783.86</ele>
        <time>2016-10-30T14:12:39Z</time>
      </trkpt>
      <trkpt lat="42.82158" lon="1.43376">
        <ele>1783.86</ele>
        <time>2016-10-30T14:12:41Z</time>
      </trkpt>
      <trkpt lat="42.82157" lon="1.43381">
        <ele>1781.94</ele>
        <time>2016-10-30T14:12:50Z</time>
      </trkpt>
      <trkpt lat="42.82155" lon="1.43385">
        <ele>1778.58</ele>
        <time>2016-10-30T14:13:00Z</time>
      </trkpt>
      <trkpt lat="42.82153" lon="1.43386">
        <ele>1776.65</ele>
        <time>2016-10-30T14:13:24Z</time>
      </trkpt>
      <trkpt lat="42.82152" lon="1.43391">
        <ele>1776.65</ele>
        <time>2016-10-30T14:13:36Z</time>
      </trkpt>
      <trkpt lat="42.82152" lon="1.4339">
        <ele>1776.17</ele>
        <time>2016-10-30T14:13:44Z</time>
      </trkpt>
      <trkpt lat="42.82155" lon="1.43392">
        <ele>1775.69</ele>
        <time>2016-10-30T14:13:49Z</time>
      </trkpt>
      <trkpt lat="42.82153" lon="1.43396">
        <ele>1773.77</ele>
        <time>2016-10-30T14:14:01Z</time>
      </trkpt>
      <trkpt lat="42.82152" lon="1.43397">
        <ele>1772.81</ele>
        <time>2016-10-30T14:14:24Z</time>
      </trkpt>
      <trkpt lat="42.82151" lon="1.43397">
        <ele>1772.33</ele>
        <time>2016-10-30T14:14:42Z</time>
      </trkpt>
      <trkpt lat="42.8215" lon="1.43397">
        <ele>1772.33</ele>
        <time>2016-10-30T14:14:44Z</time>
      </trkpt>
      <trkpt lat="42.82149" lon="1.43402">
        <ele>1771.37</ele>
        <time>2016-10-30T14:14:52Z</time>
      </trkpt>
      <trkpt lat="42.82143" lon="1.43408">
        <ele>1769.44</ele>
        <time>2016-10-30T14:15:03Z</time>
      </trkpt>
      <trkpt lat="42.82142" lon="1.43409">
        <ele>1768.96</ele>
        <time>2016-10-30T14:15:08Z</time>
      </trkpt>
      <trkpt lat="42.8214" lon="1.43412">
        <ele>1767.52</ele>
        <time>2016-10-30T14:15:21Z</time>
      </trkpt>
      <trkpt lat="42.82137" lon="1.43414">
        <ele>1766.08</ele>
        <time>2016-10-30T14:15:28Z</time>
      </trkpt>
      <trkpt lat="42.82136" lon="1.43418">
        <ele>1763.68</ele>
        <time>2016-10-30T14:15:41Z</time>
      </trkpt>
      <trkpt lat="42.82136" lon="1.43418">
        <ele>1762.71</ele>
        <time>2016-10-30T14:15:58Z</time>
      </trkpt>
      <trkpt lat="42.82135" lon="1.43418">
        <ele>1762.23</ele>
        <time>2016-10-30T14:16:09Z</time>
      </trkpt>
      <trkpt lat="42.82136" lon="1.43422">
        <ele>1761.75</ele>
        <time>2016-10-30T14:16:21Z</time>
      </trkpt>
      <trkpt lat="42.82134" lon="1.43429">
        <ele>1760.31</ele>
        <time>2016-10-30T14:16:29Z</time>
      </trkpt>
      <trkpt lat="42.82128" lon="1.43434">
        <ele>1759.83</ele>
        <time>2016-10-30T14:16:34Z</time>
      </trkpt>
      <trkpt lat="42.82124" lon="1.43443">
        <ele>1757.91</ele>
        <time>2016-10-30T14:16:44Z</time>
      </trkpt>
      <trkpt lat="42.82123" lon="1.43446">
        <ele>1757.43</ele>
        <time>2016-10-30T14:16:53Z</time>
      </trkpt>
      <trkpt lat="42.82123" lon="1.43444">
        <ele>1756.95</ele>
        <time>2016-10-30T14:17:17Z</time>
      </trkpt>
      <trkpt lat="42.82124" lon="1.43443">
        <ele>1756.95</ele>
        <time>2016-10-30T14:17:34Z</time>
      </trkpt>
      <trkpt lat="42.82124" lon="1.43442">
        <ele>1756.95</ele>
        <time>2016-10-30T14:17:55Z</time>
      </trkpt>
      <trkpt lat="42.82124" lon="1.43443">
        <ele>1756.95</ele>
        <time>2016-10-30T14:18:17Z</time>
      </trkpt>
      <trkpt lat="42.82124" lon="1.43444">
        <ele>1756.95</ele>
        <time>2016-10-30T14:18:30Z</time>
      </trkpt>
      <trkpt lat="42.82125" lon="1.43445">
        <ele>1756.95</ele>
        <time>2016-10-30T14:18:49Z</time>
      </trkpt>
      <trkpt lat="42.82125" lon="1.43447">
        <ele>1756.95</ele>
        <time>2016-10-30T14:18:51Z</time>
      </trkpt>
      <trkpt lat="42.82121" lon="1.43451">
        <ele>1756.95</ele>
        <time>2016-10-30T14:18:55Z</time>
      </trkpt>
      <trkpt lat="42.82118" lon="1.43458">
        <ele>1756.47</ele>
        <time>2016-10-30T14:19:03Z</time>
      </trkpt>
      <trkpt lat="42.82112" lon="1.4347">
        <ele>1755.5</ele>
        <time>2016-10-30T14:19:15Z</time>
      </trkpt>
      <trkpt lat="42.8211" lon="1.4347">
        <ele>1755.02</ele>
        <time>2016-10-30T14:19:18Z</time>
      </trkpt>
      <trkpt lat="42.82108" lon="1.43472">
        <ele>1755.02</ele>
        <time>2016-10-30T14:19:21Z</time>
      </trkpt>
      <trkpt lat="42.82107" lon="1.43479">
        <ele>1753.1</ele>
        <time>2016-10-30T14:19:29Z</time>
      </trkpt>
      <trkpt lat="42.82108" lon="1.43484">
        <ele>1752.62</ele>
        <time>2016-10-30T14:19:41Z</time>
      </trkpt>
      <trkpt lat="42.82105" lon="1.43489">
        <ele>1751.18</ele>
        <time>2016-10-30T14:19:51Z</time>
      </trkpt>
      <trkpt lat="42.82105" lon="1.43488">
        <ele>1750.7</ele>
        <time>2016-10-30T14:20:06Z</time>
      </trkpt>
      <trkpt lat="42.82105" lon="1.43487">
        <ele>1750.7</ele>
        <time>2016-10-30T14:20:20Z</time>
      </trkpt>
      <trkpt lat="42.82106" lon="1.43487">
        <ele>1750.7</ele>
        <time>2016-10-30T14:20:41Z</time>
      </trkpt>
      <trkpt lat="42.82106" lon="1.43487">
        <ele>1750.22</ele>
        <time>2016-10-30T14:21:03Z</time>
      </trkpt>
      <trkpt lat="42.82106" lon="1.43486">
        <ele>1749.74</ele>
        <time>2016-10-30T14:21:38Z</time>
      </trkpt>
      <trkpt lat="42.82106" lon="1.43488">
        <ele>1749.74</ele>
        <time>2016-10-30T14:21:52Z</time>
      </trkpt>
      <trkpt lat="42.82106" lon="1.43489">
        <ele>1749.74</ele>
        <time>2016-10-30T14:22:07Z</time>
      </trkpt>
      <trkpt lat="42.82106" lon="1.43487">
        <ele>1749.74</ele>
        <time>2016-10-30T14:22:30Z</time>
      </trkpt>
      <trkpt lat="42.82106" lon="1.43489">
        <ele>1749.74</ele>
        <time>2016-10-30T14:22:36Z</time>
      </trkpt>
      <trkpt lat="42.82104" lon="1.43498">
        <ele>1748.78</ele>
        <time>2016-10-30T14:22:48Z</time>
      </trkpt>
      <trkpt lat="42.82103" lon="1.435">
        <ele>1748.78</ele>
        <time>2016-10-30T14:22:50Z</time>
      </trkpt>
      <trkpt lat="42.82103" lon="1.43505">
        <ele>1747.81</ele>
        <time>2016-10-30T14:22:54Z</time>
      </trkpt>
      <trkpt lat="42.821" lon="1.43509">
        <ele>1744.93</ele>
        <time>2016-10-30T14:23:00Z</time>
      </trkpt>
      <trkpt lat="42.821" lon="1.43515">
        <ele>1742.05</ele>
        <time>2016-10-30T14:23:05Z</time>
      </trkpt>
      <trkpt lat="42.82095" lon="1.43526">
        <ele>1742.05</ele>
        <time>2016-10-30T14:23:16Z</time>
      </trkpt>
      <trkpt lat="42.82096" lon="1.43534">
        <ele>1741.57</ele>
        <time>2016-10-30T14:23:23Z</time>
      </trkpt>
      <trkpt lat="42.82094" lon="1.43546">
        <ele>1740.12</ele>
        <time>2016-10-30T14:23:33Z</time>
      </trkpt>
      <trkpt lat="42.82093" lon="1.43548">
        <ele>1740.12</ele>
        <time>2016-10-30T14:23:42Z</time>
      </trkpt>
      <trkpt lat="42.82095" lon="1.4355">
        <ele>1740.12</ele>
        <time>2016-10-30T14:23:44Z</time>
      </trkpt>
      <trkpt lat="42.82094" lon="1.43552">
        <ele>1740.12</ele>
        <time>2016-10-30T14:23:46Z</time>
      </trkpt>
      <trkpt lat="42.82096" lon="1.43557">
        <ele>1740.12</ele>
        <time>2016-10-30T14:23:56Z</time>
      </trkpt>
      <trkpt lat="42.82096" lon="1.43558">
        <ele>1740.12</ele>
        <time>2016-10-30T14:23:57Z</time>
      </trkpt>
      <trkpt lat="42.82098" lon="1.43559">
        <ele>1741.57</ele>
        <time>2016-10-30T14:24:00Z</time>
      </trkpt>
      <trkpt lat="42.82101" lon="1.43562">
        <ele>1741.57</ele>
        <time>2016-10-30T14:24:04Z</time>
      </trkpt>
      <trkpt lat="42.82103" lon="1.43567">
        <ele>1743.49</ele>
        <time>2016-10-30T14:24:13Z</time>
      </trkpt>
      <trkpt lat="42.82103" lon="1.43568">
        <ele>1744.45</ele>
        <time>2016-10-30T14:24:32Z</time>
      </trkpt>
      <trkpt lat="42.82103" lon="1.43567">
        <ele>1744.93</ele>
        <time>2016-10-30T14:24:52Z</time>
      </trkpt>
      <trkpt lat="42.82102" lon="1.43565">
        <ele>1744.45</ele>
        <time>2016-10-30T14:25:14Z</time>
      </trkpt>
      <trkpt lat="42.82102" lon="1.43568">
        <ele>1744.45</ele>
        <time>2016-10-30T14:25:34Z</time>
      </trkpt>
      <trkpt lat="42.82101" lon="1.43567">
        <ele>1744.45</ele>
        <time>2016-10-30T14:25:49Z</time>
      </trkpt>
      <trkpt lat="42.821" lon="1.43571">
        <ele>1744.45</ele>
        <time>2016-10-30T14:25:52Z</time>
      </trkpt>
      <trkpt lat="42.821" lon="1.43574">
        <ele>1744.45</ele>
        <time>2016-10-30T14:25:56Z</time>
      </trkpt>
      <trkpt lat="42.821" lon="1.43577">
        <ele>1743.01</ele>
        <time>2016-10-30T14:26:01Z</time>
      </trkpt>
      <trkpt lat="42.82099" lon="1.43579">
        <ele>1742.53</ele>
        <time>2016-10-30T14:26:05Z</time>
      </trkpt>
      <trkpt lat="42.82102" lon="1.43581">
        <ele>1741.08</ele>
        <time>2016-10-30T14:26:09Z</time>
      </trkpt>
      <trkpt lat="42.82102" lon="1.43583">
        <ele>1738.68</ele>
        <time>2016-10-30T14:26:12Z</time>
      </trkpt>
      <trkpt lat="42.82098" lon="1.43589">
        <ele>1734.36</ele>
        <time>2016-10-30T14:26:18Z</time>
      </trkpt>
      <trkpt lat="42.82099" lon="1.43592">
        <ele>1735.8</ele>
        <time>2016-10-30T14:26:35Z</time>
      </trkpt>
      <trkpt lat="42.82098" lon="1.43593">
        <ele>1735.32</ele>
        <time>2016-10-30T14:26:52Z</time>
      </trkpt>
      <trkpt lat="42.82098" lon="1.43592">
        <ele>1735.32</ele>
        <time>2016-10-30T14:27:18Z</time>
      </trkpt>
      <trkpt lat="42.82098" lon="1.43592">
        <ele>1735.32</ele>
        <time>2016-10-30T14:27:49Z</time>
      </trkpt>
      <trkpt lat="42.82099" lon="1.43593">
        <ele>1735.8</ele>
        <time>2016-10-30T14:28:13Z</time>
      </trkpt>
      <trkpt lat="42.82097" lon="1.43592">
        <ele>1735.8</ele>
        <time>2016-10-30T14:28:27Z</time>
      </trkpt>
      <trkpt lat="42.82096" lon="1.43599">
        <ele>1735.8</ele>
        <time>2016-10-30T14:28:34Z</time>
      </trkpt>
      <trkpt lat="42.82095" lon="1.436">
        <ele>1735.8</ele>
        <time>2016-10-30T14:28:36Z</time>
      </trkpt>
      <trkpt lat="42.82094" lon="1.43603">
        <ele>1734.36</ele>
        <time>2016-10-30T14:28:38Z</time>
      </trkpt>
      <trkpt lat="42.82096" lon="1.43609">
        <ele>1733.39</ele>
        <time>2016-10-30T14:28:42Z</time>
      </trkpt>
      <trkpt lat="42.82097" lon="1.43615">
        <ele>1733.39</ele>
        <time>2016-10-30T14:28:46Z</time>
      </trkpt>
      <trkpt lat="42.82095" lon="1.43617">
        <ele>1732.43</ele>
        <time>2016-10-30T14:28:48Z</time>
      </trkpt>
      <trkpt lat="42.82091" lon="1.43621">
        <ele>1731.95</ele>
        <time>2016-10-30T14:28:53Z</time>
      </trkpt>
      <trkpt lat="42.82088" lon="1.43628">
        <ele>1731.47</ele>
        <time>2016-10-30T14:28:59Z</time>
      </trkpt>
      <trkpt lat="42.82083" lon="1.43631">
        <ele>1731.47</ele>
        <time>2016-10-30T14:29:09Z</time>
      </trkpt>
      <trkpt lat="42.82083" lon="1.43631">
        <ele>1732.91</ele>
        <time>2016-10-30T14:29:29Z</time>
      </trkpt>
      <trkpt lat="42.82084" lon="1.43632">
        <ele>1732.91</ele>
        <time>2016-10-30T14:29:33Z</time>
      </trkpt>
      <trkpt lat="42.82083" lon="1.43635">
        <ele>1732.43</ele>
        <time>2016-10-30T14:29:36Z</time>
      </trkpt>
      <trkpt lat="42.8208" lon="1.43636">
        <ele>1732.43</ele>
        <time>2016-10-30T14:29:39Z</time>
      </trkpt>
      <trkpt lat="42.82076" lon="1.43635">
        <ele>1732.43</ele>
        <time>2016-10-30T14:29:43Z</time>
      </trkpt>
      <trkpt lat="42.82074" lon="1.43631">
        <ele>1733.39</ele>
        <time>2016-10-30T14:29:47Z</time>
      </trkpt>
      <trkpt lat="42.82075" lon="1.43626">
        <ele>1734.84</ele>
        <time>2016-10-30T14:29:59Z</time>
      </trkpt>
      <trkpt lat="42.82075" lon="1.43625">
        <ele>1735.8</ele>
        <time>2016-10-30T14:30:21Z</time>
      </trkpt>
      <trkpt lat="42.82075" lon="1.43625">
        <ele>1736.28</ele>
        <time>2016-10-30T14:30:44Z</time>
      </trkpt>
      <trkpt lat="42.82076" lon="1.43629">
        <ele>1736.28</ele>
        <time>2016-10-30T14:30:59Z</time>
      </trkpt>
      <trkpt lat="42.82072" lon="1.4364">
        <ele>1734.84</ele>
        <time>2016-10-30T14:31:08Z</time>
      </trkpt>
      <trkpt lat="42.82066" lon="1.43649">
        <ele>1734.84</ele>
        <time>2016-10-30T14:31:18Z</time>
      </trkpt>
      <trkpt lat="42.82059" lon="1.43655">
        <ele>1734.84</ele>
        <time>2016-10-30T14:31:27Z</time>
      </trkpt>
      <trkpt lat="42.82058" lon="1.43656">
        <ele>1734.84</ele>
        <time>2016-10-30T14:31:28Z</time>
      </trkpt>
      <trkpt lat="42.82056" lon="1.43669">
        <ele>1734.84</ele>
        <time>2016-10-30T14:31:38Z</time>
      </trkpt>
      <trkpt lat="42.82053" lon="1.43677">
        <ele>1734.84</ele>
        <time>2016-10-30T14:31:47Z</time>
      </trkpt>
      <trkpt lat="42.82054" lon="1.43687">
        <ele>1733.88</ele>
        <time>2016-10-30T14:31:53Z</time>
      </trkpt>
      <trkpt lat="42.82052" lon="1.43692">
        <ele>1733.39</ele>
        <time>2016-10-30T14:31:58Z</time>
      </trkpt>
      <trkpt lat="42.82043" lon="1.43702">
        <ele>1733.39</ele>
        <time>2016-10-30T14:32:09Z</time>
      </trkpt>
      <trkpt lat="42.82039" lon="1.43704">
        <ele>1733.39</ele>
        <time>2016-10-30T14:32:22Z</time>
      </trkpt>
      <trkpt lat="42.8204" lon="1.43704">
        <ele>1734.36</ele>
        <time>2016-10-30T14:32:42Z</time>
      </trkpt>
      <trkpt lat="42.8204" lon="1.43704">
        <ele>1734.36</ele>
        <time>2016-10-30T14:33:01Z</time>
      </trkpt>
      <trkpt lat="42.8204" lon="1.43705">
        <ele>1734.36</ele>
        <time>2016-10-30T14:33:26Z</time>
      </trkpt>
      <trkpt lat="42.8204" lon="1.43705">
        <ele>1734.36</ele>
        <time>2016-10-30T14:33:46Z</time>
      </trkpt>
      <trkpt lat="42.8204" lon="1.43705">
        <ele>1734.36</ele>
        <time>2016-10-30T14:34:06Z</time>
      </trkpt>
      <trkpt lat="42.8204" lon="1.43705">
        <ele>1734.36</ele>
        <time>2016-10-30T14:34:34Z</time>
      </trkpt>
      <trkpt lat="42.82039" lon="1.43704">
        <ele>1734.36</ele>
        <time>2016-10-30T14:35:04Z</time>
      </trkpt>
      <trkpt lat="42.82039" lon="1.43705">
        <ele>1734.36</ele>
        <time>2016-10-30T14:35:22Z</time>
      </trkpt>
      <trkpt lat="42.82039" lon="1.43704">
        <ele>1734.36</ele>
        <time>2016-10-30T14:35:49Z</time>
      </trkpt>
      <trkpt lat="42.82039" lon="1.43704">
        <ele>1733.88</ele>
        <time>2016-10-30T14:36:16Z</time>
      </trkpt>
      <trkpt lat="42.82039" lon="1.43705">
        <ele>1733.88</ele>
        <time>2016-10-30T14:36:30Z</time>
      </trkpt>
      <trkpt lat="42.82039" lon="1.43705">
        <ele>1733.88</ele>
        <time>2016-10-30T14:36:54Z</time>
      </trkpt>
      <trkpt lat="42.82038" lon="1.43705">
        <ele>1733.88</ele>
        <time>2016-10-30T14:37:18Z</time>
      </trkpt>
      <trkpt lat="42.82038" lon="1.43706">
        <ele>1733.88</ele>
        <time>2016-10-30T14:37:32Z</time>
      </trkpt>
      <trkpt lat="42.82038" lon="1.43706">
        <ele>1733.88</ele>
        <time>2016-10-30T14:37:57Z</time>
      </trkpt>
      <trkpt lat="42.82038" lon="1.43704">
        <ele>1733.88</ele>
        <time>2016-10-30T14:38:17Z</time>
      </trkpt>
      <trkpt lat="42.82038" lon="1.43705">
        <ele>1733.88</ele>
        <time>2016-10-30T14:38:33Z</time>
      </trkpt>
      <trkpt lat="42.82034" lon="1.43709">
        <ele>1733.88</ele>
        <time>2016-10-30T14:38:43Z</time>
      </trkpt>
      <trkpt lat="42.82026" lon="1.43716">
        <ele>1732.91</ele>
        <time>2016-10-30T14:38:53Z</time>
      </trkpt>
      <trkpt lat="42.82018" lon="1.43726">
        <ele>1732.43</ele>
        <time>2016-10-30T14:39:04Z</time>
      </trkpt>
      <trkpt lat="42.82008" lon="1.43737">
        <ele>1731.95</ele>
        <time>2016-10-30T14:39:16Z</time>
      </trkpt>
      <trkpt lat="42.82002" lon="1.43734">
        <ele>1731.95</ele>
        <time>2016-10-30T14:39:26Z</time>
      </trkpt>
      <trkpt lat="42.81999" lon="1.43734">
        <ele>1731.95</ele>
        <time>2016-10-30T14:39:31Z</time>
      </trkpt>
      <trkpt lat="42.81996" lon="1.43737">
        <ele>1731.95</ele>
        <time>2016-10-30T14:39:44Z</time>
      </trkpt>
      <trkpt lat="42.8199" lon="1.43741">
        <ele>1731.95</ele>
        <time>2016-10-30T14:39:53Z</time>
      </trkpt>
      <trkpt lat="42.81988" lon="1.43742">
        <ele>1731.95</ele>
        <time>2016-10-30T14:39:55Z</time>
      </trkpt>
      <trkpt lat="42.81989" lon="1.4374">
        <ele>1731.95</ele>
        <time>2016-10-30T14:40:06Z</time>
      </trkpt>
      <trkpt lat="42.81989" lon="1.4374">
        <ele>1730.99</ele>
        <time>2016-10-30T14:40:19Z</time>
      </trkpt>
      <trkpt lat="42.8199" lon="1.4374">
        <ele>1730.99</ele>
        <time>2016-10-30T14:40:39Z</time>
      </trkpt>
      <trkpt lat="42.8199" lon="1.43741">
        <ele>1730.99</ele>
        <time>2016-10-30T14:40:56Z</time>
      </trkpt>
      <trkpt lat="42.8199" lon="1.4374">
        <ele>1730.99</ele>
        <time>2016-10-30T14:41:09Z</time>
      </trkpt>
      <trkpt lat="42.8199" lon="1.4374">
        <ele>1730.99</ele>
        <time>2016-10-30T14:41:23Z</time>
      </trkpt>
      <trkpt lat="42.81992" lon="1.4374">
        <ele>1730.99</ele>
        <time>2016-10-30T14:41:44Z</time>
      </trkpt>
      <trkpt lat="42.81991" lon="1.43742">
        <ele>1730.99</ele>
        <time>2016-10-30T14:42:04Z</time>
      </trkpt>
      <trkpt lat="42.8199" lon="1.4374">
        <ele>1730.99</ele>
        <time>2016-10-30T14:42:28Z</time>
      </trkpt>
      <trkpt lat="42.81991" lon="1.4374">
        <ele>1730.51</ele>
        <time>2016-10-30T14:42:49Z</time>
      </trkpt>
      <trkpt lat="42.81991" lon="1.43739">
        <ele>1730.51</ele>
        <time>2016-10-30T14:43:08Z</time>
      </trkpt>
      <trkpt lat="42.81991" lon="1.4374">
        <ele>1730.51</ele>
        <time>2016-10-30T14:43:29Z</time>
      </trkpt>
      <trkpt lat="42.81991" lon="1.4374">
        <ele>1730.51</ele>
        <time>2016-10-30T14:43:49Z</time>
      </trkpt>
      <trkpt lat="42.8199" lon="1.43741">
        <ele>1730.51</ele>
        <time>2016-10-30T14:44:01Z</time>
      </trkpt>
      <trkpt lat="42.8199" lon="1.4374">
        <ele>1730.51</ele>
        <time>2016-10-30T14:44:14Z</time>
      </trkpt>
      <trkpt lat="42.8199" lon="1.4374">
        <ele>1730.51</ele>
        <time>2016-10-30T14:44:31Z</time>
      </trkpt>
      <trkpt lat="42.8199" lon="1.4374">
        <ele>1730.51</ele>
        <time>2016-10-30T14:44:49Z</time>
      </trkpt>
      <trkpt lat="42.8199" lon="1.43741">
        <ele>1730.51</ele>
        <time>2016-10-30T14:45:11Z</time>
      </trkpt>
      <trkpt lat="42.81991" lon="1.4374">
        <ele>1730.51</ele>
        <time>2016-10-30T14:45:37Z</time>
      </trkpt>
      <trkpt lat="42.8199" lon="1.43739">
        <ele>1730.51</ele>
        <time>2016-10-30T14:45:55Z</time>
      </trkpt>
      <trkpt lat="42.81991" lon="1.43739">
        <ele>1730.03</ele>
        <time>2016-10-30T14:46:16Z</time>
      </trkpt>
      <trkpt lat="42.8199" lon="1.43739">
        <ele>1730.03</ele>
        <time>2016-10-30T14:46:30Z</time>
      </trkpt>
      <trkpt lat="42.8199" lon="1.43739">
        <ele>1730.03</ele>
        <time>2016-10-30T14:46:49Z</time>
      </trkpt>
      <trkpt lat="42.8199" lon="1.4374">
        <ele>1730.03</ele>
        <time>2016-10-30T14:47:12Z</time>
      </trkpt>
      <trkpt lat="42.8199" lon="1.43739">
        <ele>1730.03</ele>
        <time>2016-10-30T14:47:31Z</time>
      </trkpt>
      <trkpt lat="42.8199" lon="1.43739">
        <ele>1730.03</ele>
        <time>2016-10-30T14:47:54Z</time>
      </trkpt>
      <trkpt lat="42.81991" lon="1.43739">
        <ele>1730.03</ele>
        <time>2016-10-30T14:48:18Z</time>
      </trkpt>
      <trkpt lat="42.81991" lon="1.43739">
        <ele>1730.03</ele>
        <time>2016-10-30T14:48:40Z</time>
      </trkpt>
      <trkpt lat="42.81991" lon="1.43739">
        <ele>1730.03</ele>
        <time>2016-10-30T14:48:57Z</time>
      </trkpt>
      <trkpt lat="42.81991" lon="1.4374">
        <ele>1730.03</ele>
        <time>2016-10-30T14:49:21Z</time>
      </trkpt>
      <trkpt lat="42.81991" lon="1.4374">
        <ele>1730.03</ele>
        <time>2016-10-30T14:49:41Z</time>
      </trkpt>
      <trkpt lat="42.81991" lon="1.4374">
        <ele>1730.03</ele>
        <time>2016-10-30T14:49:55Z</time>
      </trkpt>
      <trkpt lat="42.81991" lon="1.4374">
        <ele>1730.03</ele>
        <time>2016-10-30T14:50:16Z</time>
      </trkpt>
      <trkpt lat="42.8199" lon="1.43739">
        <ele>1729.07</ele>
        <time>2016-10-30T14:50:34Z</time>
      </trkpt>
      <trkpt lat="42.8199" lon="1.4374">
        <ele>1729.07</ele>
        <time>2016-10-30T14:50:57Z</time>
      </trkpt>
      <trkpt lat="42.81991" lon="1.4374">
        <ele>1729.07</ele>
        <time>2016-10-30T14:51:08Z</time>
      </trkpt>
      <trkpt lat="42.8199" lon="1.43739">
        <ele>1729.07</ele>
        <time>2016-10-30T14:51:31Z</time>
      </trkpt>
      <trkpt lat="42.81991" lon="1.43738">
        <ele>1729.07</ele>
        <time>2016-10-30T14:51:51Z</time>
      </trkpt>
      <trkpt lat="42.81989" lon="1.43739">
        <ele>1729.07</ele>
        <time>2016-10-30T14:52:09Z</time>
      </trkpt>
      <trkpt lat="42.81988" lon="1.4374">
        <ele>1729.07</ele>
        <time>2016-10-30T14:52:35Z</time>
      </trkpt>
      <trkpt lat="42.81988" lon="1.43739">
        <ele>1728.59</ele>
        <time>2016-10-30T14:53:01Z</time>
      </trkpt>
      <trkpt lat="42.81988" lon="1.4374">
        <ele>1728.59</ele>
        <time>2016-10-30T14:53:28Z</time>
      </trkpt>
      <trkpt lat="42.81988" lon="1.4374">
        <ele>1728.11</ele>
        <time>2016-10-30T14:53:55Z</time>
      </trkpt>
      <trkpt lat="42.81988" lon="1.4374">
        <ele>1728.11</ele>
        <time>2016-10-30T14:54:17Z</time>
      </trkpt>
      <trkpt lat="42.81989" lon="1.4374">
        <ele>1728.11</ele>
        <time>2016-10-30T14:54:44Z</time>
      </trkpt>
      <trkpt lat="42.81989" lon="1.4374">
        <ele>1728.11</ele>
        <time>2016-10-30T14:55:05Z</time>
      </trkpt>
      <trkpt lat="42.81987" lon="1.43739">
        <ele>1728.11</ele>
        <time>2016-10-30T14:55:17Z</time>
      </trkpt>
      <trkpt lat="42.81979" lon="1.43727">
        <ele>1727.63</ele>
        <time>2016-10-30T14:55:27Z</time>
      </trkpt>
      <trkpt lat="42.81979" lon="1.43723">
        <ele>1726.67</ele>
        <time>2016-10-30T14:55:31Z</time>
      </trkpt>
      <trkpt lat="42.81974" lon="1.4372">
        <ele>1727.15</ele>
        <time>2016-10-30T14:55:39Z</time>
      </trkpt>
      <trkpt lat="42.81965" lon="1.43716">
        <ele>1728.11</ele>
        <time>2016-10-30T14:55:49Z</time>
      </trkpt>
      <trkpt lat="42.81957" lon="1.43716">
        <ele>1729.07</ele>
        <time>2016-10-30T14:55:56Z</time>
      </trkpt>
      <trkpt lat="42.81955" lon="1.43716">
        <ele>1729.07</ele>
        <time>2016-10-30T14:55:58Z</time>
      </trkpt>
      <trkpt lat="42.81949" lon="1.43726">
        <ele>1730.03</ele>
        <time>2016-10-30T14:56:06Z</time>
      </trkpt>
      <trkpt lat="42.81945" lon="1.43732">
        <ele>1730.03</ele>
        <time>2016-10-30T14:56:11Z</time>
      </trkpt>
      <trkpt lat="42.81937" lon="1.43734">
        <ele>1730.51</ele>
        <time>2016-10-30T14:56:18Z</time>
      </trkpt>
      <trkpt lat="42.81935" lon="1.43733">
        <ele>1730.51</ele>
        <time>2016-10-30T14:56:20Z</time>
      </trkpt>
      <trkpt lat="42.81932" lon="1.43731">
        <ele>1730.51</ele>
        <time>2016-10-30T14:56:27Z</time>
      </trkpt>
      <trkpt lat="42.81923" lon="1.43719">
        <ele>1730.51</ele>
        <time>2016-10-30T14:56:37Z</time>
      </trkpt>
      <trkpt lat="42.81919" lon="1.43716">
        <ele>1730.51</ele>
        <time>2016-10-30T14:56:42Z</time>
      </trkpt>
      <trkpt lat="42.81907" lon="1.43716">
        <ele>1730.51</ele>
        <time>2016-10-30T14:56:50Z</time>
      </trkpt>
      <trkpt lat="42.81905" lon="1.43714">
        <ele>1730.51</ele>
        <time>2016-10-30T14:56:58Z</time>
      </trkpt>
      <trkpt lat="42.81904" lon="1.43718">
        <ele>1730.51</ele>
        <time>2016-10-30T14:57:01Z</time>
      </trkpt>
      <trkpt lat="42.81903" lon="1.43719">
        <ele>1730.51</ele>
        <time>2016-10-30T14:57:03Z</time>
      </trkpt>
      <trkpt lat="42.81898" lon="1.43728">
        <ele>1729.07</ele>
        <time>2016-10-30T14:57:10Z</time>
      </trkpt>
      <trkpt lat="42.81893" lon="1.4373">
        <ele>1728.11</ele>
        <time>2016-10-30T14:57:15Z</time>
      </trkpt>
      <trkpt lat="42.81892" lon="1.43734">
        <ele>1727.63</ele>
        <time>2016-10-30T14:57:18Z</time>
      </trkpt>
      <trkpt lat="42.81884" lon="1.43744">
        <ele>1727.15</ele>
        <time>2016-10-30T14:57:28Z</time>
      </trkpt>
      <trkpt lat="42.81884" lon="1.43747">
        <ele>1727.15</ele>
        <time>2016-10-30T14:57:30Z</time>
      </trkpt>
      <trkpt lat="42.81875" lon="1.43758">
        <ele>1727.15</ele>
        <time>2016-10-30T14:57:41Z</time>
      </trkpt>
      <trkpt lat="42.81873" lon="1.43763">
        <ele>1726.67</ele>
        <time>2016-10-30T14:57:49Z</time>
      </trkpt>
      <trkpt lat="42.81875" lon="1.43765">
        <ele>1726.67</ele>
        <time>2016-10-30T14:57:51Z</time>
      </trkpt>
      <trkpt lat="42.81873" lon="1.43778">
        <ele>1726.18</ele>
        <time>2016-10-30T14:58:01Z</time>
      </trkpt>
      <trkpt lat="42.81877" lon="1.43785">
        <ele>1726.18</ele>
        <time>2016-10-30T14:58:07Z</time>
      </trkpt>
      <trkpt lat="42.81874" lon="1.43788">
        <ele>1726.18</ele>
        <time>2016-10-30T14:58:20Z</time>
      </trkpt>
      <trkpt lat="42.81877" lon="1.43788">
        <ele>1726.18</ele>
        <time>2016-10-30T14:58:23Z</time>
      </trkpt>
      <trkpt lat="42.81884" lon="1.43787">
        <ele>1725.7</ele>
        <time>2016-10-30T14:58:32Z</time>
      </trkpt>
      <trkpt lat="42.81891" lon="1.43791">
        <ele>1725.7</ele>
        <time>2016-10-30T14:58:42Z</time>
      </trkpt>
      <trkpt lat="42.81891" lon="1.43796">
        <ele>1725.7</ele>
        <time>2016-10-30T14:58:45Z</time>
      </trkpt>
      <trkpt lat="42.8189" lon="1.43802">
        <ele>1725.7</ele>
        <time>2016-10-30T14:58:54Z</time>
      </trkpt>
      <trkpt lat="42.81887" lon="1.43807">
        <ele>1725.7</ele>
        <time>2016-10-30T14:58:58Z</time>
      </trkpt>
      <trkpt lat="42.81881" lon="1.43811">
        <ele>1724.74</ele>
        <time>2016-10-30T14:59:07Z</time>
      </trkpt>
      <trkpt lat="42.81879" lon="1.43812">
        <ele>1724.26</ele>
        <time>2016-10-30T14:59:09Z</time>
      </trkpt>
      <trkpt lat="42.81875" lon="1.43815">
        <ele>1720.9</ele>
        <time>2016-10-30T14:59:14Z</time>
      </trkpt>
      <trkpt lat="42.8187" lon="1.43814">
        <ele>1718.49</ele>
        <time>2016-10-30T14:59:24Z</time>
      </trkpt>
      <trkpt lat="42.81869" lon="1.43816">
        <ele>1718.49</ele>
        <time>2016-10-30T14:59:26Z</time>
      </trkpt>
      <trkpt lat="42.81866" lon="1.43816">
        <ele>1718.01</ele>
        <time>2016-10-30T14:59:29Z</time>
      </trkpt>
      <trkpt lat="42.81864" lon="1.43817">
        <ele>1717.53</ele>
        <time>2016-10-30T14:59:33Z</time>
      </trkpt>
      <trkpt lat="42.81858" lon="1.43819">
        <ele>1717.05</ele>
        <time>2016-10-30T14:59:39Z</time>
      </trkpt>
      <trkpt lat="42.81853" lon="1.43824">
        <ele>1716.09</ele>
        <time>2016-10-30T14:59:45Z</time>
      </trkpt>
      <trkpt lat="42.81851" lon="1.43825">
        <ele>1716.09</ele>
        <time>2016-10-30T14:59:47Z</time>
      </trkpt>
      <trkpt lat="42.8184" lon="1.43827">
        <ele>1715.61</ele>
        <time>2016-10-30T14:59:57Z</time>
      </trkpt>
      <trkpt lat="42.81833" lon="1.43826">
        <ele>1714.65</ele>
        <time>2016-10-30T15:00:05Z</time>
      </trkpt>
      <trkpt lat="42.81831" lon="1.43828">
        <ele>1714.65</ele>
        <time>2016-10-30T15:00:07Z</time>
      </trkpt>
      <trkpt lat="42.81822" lon="1.43829">
        <ele>1714.17</ele>
        <time>2016-10-30T15:00:16Z</time>
      </trkpt>
      <trkpt lat="42.81813" lon="1.43827">
        <ele>1712.73</ele>
        <time>2016-10-30T15:00:27Z</time>
      </trkpt>
      <trkpt lat="42.81811" lon="1.43821">
        <ele>1712.73</ele>
        <time>2016-10-30T15:00:36Z</time>
      </trkpt>
      <trkpt lat="42.81806" lon="1.43816">
        <ele>1711.76</ele>
        <time>2016-10-30T15:00:46Z</time>
      </trkpt>
      <trkpt lat="42.81799" lon="1.43815">
        <ele>1709.84</ele>
        <time>2016-10-30T15:00:54Z</time>
      </trkpt>
      <trkpt lat="42.81794" lon="1.43816">
        <ele>1709.36</ele>
        <time>2016-10-30T15:01:02Z</time>
      </trkpt>
      <trkpt lat="42.81791" lon="1.43817">
        <ele>1708.88</ele>
        <time>2016-10-30T15:01:05Z</time>
      </trkpt>
      <trkpt lat="42.81791" lon="1.43818">
        <ele>1708.88</ele>
        <time>2016-10-30T15:01:06Z</time>
      </trkpt>
      <trkpt lat="42.8179" lon="1.4382">
        <ele>1707.92</ele>
        <time>2016-10-30T15:01:07Z</time>
      </trkpt>
      <trkpt lat="42.81788" lon="1.43825">
        <ele>1704.55</ele>
        <time>2016-10-30T15:01:14Z</time>
      </trkpt>
      <trkpt lat="42.81787" lon="1.43825">
        <ele>1703.59</ele>
        <time>2016-10-30T15:01:15Z</time>
      </trkpt>
      <trkpt lat="42.81785" lon="1.43825">
        <ele>1701.19</ele>
        <time>2016-10-30T15:01:18Z</time>
      </trkpt>
      <trkpt lat="42.81784" lon="1.43826">
        <ele>1700.23</ele>
        <time>2016-10-30T15:01:19Z</time>
      </trkpt>
      <trkpt lat="42.81783" lon="1.43825">
        <ele>1700.23</ele>
        <time>2016-10-30T15:01:20Z</time>
      </trkpt>
      <trkpt lat="42.8178" lon="1.43826">
        <ele>1700.71</ele>
        <time>2016-10-30T15:01:22Z</time>
      </trkpt>
      <trkpt lat="42.81775" lon="1.43833">
        <ele>1702.15</ele>
        <time>2016-10-30T15:01:30Z</time>
      </trkpt>
      <trkpt lat="42.81774" lon="1.43834">
        <ele>1702.15</ele>
        <time>2016-10-30T15:01:32Z</time>
      </trkpt>
      <trkpt lat="42.81765" lon="1.43835">
        <ele>1705.04</ele>
        <time>2016-10-30T15:01:41Z</time>
      </trkpt>
      <trkpt lat="42.81764" lon="1.43834">
        <ele>1706</ele>
        <time>2016-10-30T15:01:42Z</time>
      </trkpt>
      <trkpt lat="42.81763" lon="1.43833">
        <ele>1706.48</ele>
        <time>2016-10-30T15:01:43Z</time>
      </trkpt>
      <trkpt lat="42.81758" lon="1.43831">
        <ele>1707.92</ele>
        <time>2016-10-30T15:01:47Z</time>
      </trkpt>
      <trkpt lat="42.81754" lon="1.43833">
        <ele>1707.92</ele>
        <time>2016-10-30T15:01:52Z</time>
      </trkpt>
      <trkpt lat="42.8175" lon="1.43832">
        <ele>1707.92</ele>
        <time>2016-10-30T15:01:58Z</time>
      </trkpt>
      <trkpt lat="42.81747" lon="1.43832">
        <ele>1707.92</ele>
        <time>2016-10-30T15:02:01Z</time>
      </trkpt>
      <trkpt lat="42.81745" lon="1.43831">
        <ele>1707.92</ele>
        <time>2016-10-30T15:02:04Z</time>
      </trkpt>
      <trkpt lat="42.81744" lon="1.4383">
        <ele>1707.92</ele>
        <time>2016-10-30T15:02:05Z</time>
      </trkpt>
      <trkpt lat="42.81743" lon="1.43829">
        <ele>1707.92</ele>
        <time>2016-10-30T15:02:06Z</time>
      </trkpt>
      <trkpt lat="42.81741" lon="1.43827">
        <ele>1707.92</ele>
        <time>2016-10-30T15:02:08Z</time>
      </trkpt>
      <trkpt lat="42.81739" lon="1.43826">
        <ele>1707.92</ele>
        <time>2016-10-30T15:02:11Z</time>
      </trkpt>
      <trkpt lat="42.81735" lon="1.43825">
        <ele>1707.92</ele>
        <time>2016-10-30T15:02:17Z</time>
      </trkpt>
      <trkpt lat="42.81734" lon="1.43823">
        <ele>1708.88</ele>
        <time>2016-10-30T15:02:21Z</time>
      </trkpt>
      <trkpt lat="42.81729" lon="1.43824">
        <ele>1709.84</ele>
        <time>2016-10-30T15:02:25Z</time>
      </trkpt>
      <trkpt lat="42.81728" lon="1.43823">
        <ele>1709.84</ele>
        <time>2016-10-30T15:02:26Z</time>
      </trkpt>
      <trkpt lat="42.81727" lon="1.43823">
        <ele>1709.36</ele>
        <time>2016-10-30T15:02:27Z</time>
      </trkpt>
      <trkpt lat="42.81725" lon="1.43822">
        <ele>1710.32</ele>
        <time>2016-10-30T15:02:28Z</time>
      </trkpt>
      <trkpt lat="42.81724" lon="1.43822">
        <ele>1709.84</ele>
        <time>2016-10-30T15:02:29Z</time>
      </trkpt>
      <trkpt lat="42.81722" lon="1.43821">
        <ele>1710.8</ele>
        <time>2016-10-30T15:02:37Z</time>
      </trkpt>
      <trkpt lat="42.81716" lon="1.4382">
        <ele>1711.28</ele>
        <time>2016-10-30T15:02:46Z</time>
      </trkpt>
      <trkpt lat="42.81714" lon="1.43819">
        <ele>1711.28</ele>
        <time>2016-10-30T15:02:47Z</time>
      </trkpt>
      <trkpt lat="42.81714" lon="1.43818">
        <ele>1711.28</ele>
        <time>2016-10-30T15:02:48Z</time>
      </trkpt>
      <trkpt lat="42.81709" lon="1.4381">
        <ele>1712.73</ele>
        <time>2016-10-30T15:02:58Z</time>
      </trkpt>
      <trkpt lat="42.81708" lon="1.43811">
        <ele>1715.13</ele>
        <time>2016-10-30T15:03:02Z</time>
      </trkpt>
      <trkpt lat="42.81705" lon="1.43811">
        <ele>1718.01</ele>
        <time>2016-10-30T15:03:06Z</time>
      </trkpt>
      <trkpt lat="42.81701" lon="1.43808">
        <ele>1718.97</ele>
        <time>2016-10-30T15:03:10Z</time>
      </trkpt>
      <trkpt lat="42.81701" lon="1.43807">
        <ele>1719.46</ele>
        <time>2016-10-30T15:03:11Z</time>
      </trkpt>
      <trkpt lat="42.81697" lon="1.43804">
        <ele>1718.97</ele>
        <time>2016-10-30T15:03:16Z</time>
      </trkpt>
      <trkpt lat="42.81693" lon="1.43807">
        <ele>1718.97</ele>
        <time>2016-10-30T15:03:20Z</time>
      </trkpt>
      <trkpt lat="42.81691" lon="1.43807">
        <ele>1718.97</ele>
        <time>2016-10-30T15:03:21Z</time>
      </trkpt>
      <trkpt lat="42.81687" lon="1.43806">
        <ele>1718.97</ele>
        <time>2016-10-30T15:03:25Z</time>
      </trkpt>
      <trkpt lat="42.81685" lon="1.43806">
        <ele>1718.97</ele>
        <time>2016-10-30T15:03:26Z</time>
      </trkpt>
      <trkpt lat="42.81684" lon="1.43806">
        <ele>1718.97</ele>
        <time>2016-10-30T15:03:27Z</time>
      </trkpt>
      <trkpt lat="42.81683" lon="1.43805">
        <ele>1718.97</ele>
        <time>2016-10-30T15:03:28Z</time>
      </trkpt>
      <trkpt lat="42.81682" lon="1.43804">
        <ele>1718.97</ele>
        <time>2016-10-30T15:03:29Z</time>
      </trkpt>
      <trkpt lat="42.81681" lon="1.43803">
        <ele>1718.97</ele>
        <time>2016-10-30T15:03:30Z</time>
      </trkpt>
      <trkpt lat="42.81675" lon="1.43803">
        <ele>1718.97</ele>
        <time>2016-10-30T15:03:39Z</time>
      </trkpt>
      <trkpt lat="42.81674" lon="1.43808">
        <ele>1718.97</ele>
        <time>2016-10-30T15:03:43Z</time>
      </trkpt>
      <trkpt lat="42.81665" lon="1.43799">
        <ele>1717.53</ele>
        <time>2016-10-30T15:03:54Z</time>
      </trkpt>
      <trkpt lat="42.81663" lon="1.43799">
        <ele>1717.05</ele>
        <time>2016-10-30T15:03:59Z</time>
      </trkpt>
      <trkpt lat="42.81661" lon="1.43798">
        <ele>1715.61</ele>
        <time>2016-10-30T15:04:03Z</time>
      </trkpt>
      <trkpt lat="42.8166" lon="1.43798">
        <ele>1715.13</ele>
        <time>2016-10-30T15:04:06Z</time>
      </trkpt>
      <trkpt lat="42.81656" lon="1.438">
        <ele>1712.25</ele>
        <time>2016-10-30T15:04:11Z</time>
      </trkpt>
      <trkpt lat="42.81655" lon="1.43801">
        <ele>1711.28</ele>
        <time>2016-10-30T15:04:12Z</time>
      </trkpt>
      <trkpt lat="42.81653" lon="1.43801">
        <ele>1709.36</ele>
        <time>2016-10-30T15:04:15Z</time>
      </trkpt>
      <trkpt lat="42.8165" lon="1.43799">
        <ele>1707.44</ele>
        <time>2016-10-30T15:04:18Z</time>
      </trkpt>
      <trkpt lat="42.81643" lon="1.43796">
        <ele>1706.48</ele>
        <time>2016-10-30T15:04:29Z</time>
      </trkpt>
      <trkpt lat="42.81643" lon="1.43798">
        <ele>1706.48</ele>
        <time>2016-10-30T15:04:32Z</time>
      </trkpt>
      <trkpt lat="42.81643" lon="1.43805">
        <ele>1706</ele>
        <time>2016-10-30T15:04:36Z</time>
      </trkpt>
      <trkpt lat="42.8164" lon="1.43811">
        <ele>1704.55</ele>
        <time>2016-10-30T15:04:41Z</time>
      </trkpt>
      <trkpt lat="42.81637" lon="1.4381">
        <ele>1704.07</ele>
        <time>2016-10-30T15:04:44Z</time>
      </trkpt>
      <trkpt lat="42.81634" lon="1.43805">
        <ele>1702.15</ele>
        <time>2016-10-30T15:04:48Z</time>
      </trkpt>
      <trkpt lat="42.81633" lon="1.43801">
        <ele>1700.23</ele>
        <time>2016-10-30T15:04:50Z</time>
      </trkpt>
      <trkpt lat="42.81632" lon="1.43797">
        <ele>1697.34</ele>
        <time>2016-10-30T15:04:53Z</time>
      </trkpt>
      <trkpt lat="42.81631" lon="1.43795">
        <ele>1696.38</ele>
        <time>2016-10-30T15:04:55Z</time>
      </trkpt>
      <trkpt lat="42.81628" lon="1.4379">
        <ele>1696.38</ele>
        <time>2016-10-30T15:04:59Z</time>
      </trkpt>
      <trkpt lat="42.81624" lon="1.43786">
        <ele>1696.38</ele>
        <time>2016-10-30T15:05:08Z</time>
      </trkpt>
      <trkpt lat="42.81623" lon="1.43781">
        <ele>1696.38</ele>
        <time>2016-10-30T15:05:12Z</time>
      </trkpt>
      <trkpt lat="42.81619" lon="1.43776">
        <ele>1696.38</ele>
        <time>2016-10-30T15:05:20Z</time>
      </trkpt>
      <trkpt lat="42.81618" lon="1.43772">
        <ele>1695.42</ele>
        <time>2016-10-30T15:05:28Z</time>
      </trkpt>
      <trkpt lat="42.81614" lon="1.4377">
        <ele>1693.98</ele>
        <time>2016-10-30T15:05:36Z</time>
      </trkpt>
      <trkpt lat="42.81613" lon="1.43775">
        <ele>1690.14</ele>
        <time>2016-10-30T15:05:42Z</time>
      </trkpt>
      <trkpt lat="42.81613" lon="1.43779">
        <ele>1689.17</ele>
        <time>2016-10-30T15:05:44Z</time>
      </trkpt>
      <trkpt lat="42.81609" lon="1.4378">
        <ele>1687.25</ele>
        <time>2016-10-30T15:05:48Z</time>
      </trkpt>
      <trkpt lat="42.81604" lon="1.43778">
        <ele>1687.25</ele>
        <time>2016-10-30T15:05:53Z</time>
      </trkpt>
      <trkpt lat="42.81601" lon="1.43778">
        <ele>1687.25</ele>
        <time>2016-10-30T15:05:57Z</time>
      </trkpt>
      <trkpt lat="42.81592" lon="1.43778">
        <ele>1685.81</ele>
        <time>2016-10-30T15:06:08Z</time>
      </trkpt>
      <trkpt lat="42.81587" lon="1.4378">
        <ele>1683.41</ele>
        <time>2016-10-30T15:06:19Z</time>
      </trkpt>
      <trkpt lat="42.81584" lon="1.43782">
        <ele>1680.04</ele>
        <time>2016-10-30T15:06:25Z</time>
      </trkpt>
      <trkpt lat="42.81579" lon="1.43784">
        <ele>1677.16</ele>
        <time>2016-10-30T15:06:31Z</time>
      </trkpt>
      <trkpt lat="42.81574" lon="1.43785">
        <ele>1677.16</ele>
        <time>2016-10-30T15:06:36Z</time>
      </trkpt>
      <trkpt lat="42.8157" lon="1.43784">
        <ele>1677.16</ele>
        <time>2016-10-30T15:06:40Z</time>
      </trkpt>
      <trkpt lat="42.81564" lon="1.43787">
        <ele>1676.68</ele>
        <time>2016-10-30T15:06:47Z</time>
      </trkpt>
      <trkpt lat="42.81561" lon="1.43792">
        <ele>1675.72</ele>
        <time>2016-10-30T15:06:54Z</time>
      </trkpt>
      <trkpt lat="42.81555" lon="1.43792">
        <ele>1675.23</ele>
        <time>2016-10-30T15:06:59Z</time>
      </trkpt>
      <trkpt lat="42.81544" lon="1.4379">
        <ele>1671.87</ele>
        <time>2016-10-30T15:07:10Z</time>
      </trkpt>
      <trkpt lat="42.81543" lon="1.43789">
        <ele>1671.87</ele>
        <time>2016-10-30T15:07:12Z</time>
      </trkpt>
      <trkpt lat="42.8154" lon="1.43787">
        <ele>1669.47</ele>
        <time>2016-10-30T15:07:15Z</time>
      </trkpt>
      <trkpt lat="42.81537" lon="1.43787">
        <ele>1667.54</ele>
        <time>2016-10-30T15:07:18Z</time>
      </trkpt>
      <trkpt lat="42.81533" lon="1.43783">
        <ele>1667.06</ele>
        <time>2016-10-30T15:07:22Z</time>
      </trkpt>
      <trkpt lat="42.81526" lon="1.43779">
        <ele>1666.58</ele>
        <time>2016-10-30T15:07:31Z</time>
      </trkpt>
      <trkpt lat="42.81521" lon="1.43771">
        <ele>1665.62</ele>
        <time>2016-10-30T15:07:38Z</time>
      </trkpt>
      <trkpt lat="42.8151" lon="1.4377">
        <ele>1663.7</ele>
        <time>2016-10-30T15:07:49Z</time>
      </trkpt>
      <trkpt lat="42.81505" lon="1.43771">
        <ele>1661.3</ele>
        <time>2016-10-30T15:08:01Z</time>
      </trkpt>
      <trkpt lat="42.81505" lon="1.43771">
        <ele>1660.33</ele>
        <time>2016-10-30T15:08:17Z</time>
      </trkpt>
      <trkpt lat="42.81505" lon="1.43771">
        <ele>1659.85</ele>
        <time>2016-10-30T15:08:21Z</time>
      </trkpt>
      <trkpt lat="42.81502" lon="1.4377">
        <ele>1659.37</ele>
        <time>2016-10-30T15:08:30Z</time>
      </trkpt>
      <trkpt lat="42.81499" lon="1.43775">
        <ele>1658.41</ele>
        <time>2016-10-30T15:08:34Z</time>
      </trkpt>
      <trkpt lat="42.81497" lon="1.43779">
        <ele>1657.93</ele>
        <time>2016-10-30T15:08:37Z</time>
      </trkpt>
      <trkpt lat="42.81496" lon="1.43783">
        <ele>1657.45</ele>
        <time>2016-10-30T15:08:40Z</time>
      </trkpt>
      <trkpt lat="42.81493" lon="1.43783">
        <ele>1656.97</ele>
        <time>2016-10-30T15:08:46Z</time>
      </trkpt>
      <trkpt lat="42.81491" lon="1.43781">
        <ele>1656.49</ele>
        <time>2016-10-30T15:08:48Z</time>
      </trkpt>
      <trkpt lat="42.81488" lon="1.43783">
        <ele>1656.01</ele>
        <time>2016-10-30T15:08:52Z</time>
      </trkpt>
      <trkpt lat="42.81485" lon="1.43783">
        <ele>1655.53</ele>
        <time>2016-10-30T15:08:54Z</time>
      </trkpt>
      <trkpt lat="42.81481" lon="1.43789">
        <ele>1654.09</ele>
        <time>2016-10-30T15:09:02Z</time>
      </trkpt>
      <trkpt lat="42.81476" lon="1.43794">
        <ele>1653.6</ele>
        <time>2016-10-30T15:09:09Z</time>
      </trkpt>
      <trkpt lat="42.81471" lon="1.43792">
        <ele>1650.72</ele>
        <time>2016-10-30T15:09:16Z</time>
      </trkpt>
      <trkpt lat="42.81472" lon="1.43787">
        <ele>1646.4</ele>
        <time>2016-10-30T15:09:21Z</time>
      </trkpt>
      <trkpt lat="42.81473" lon="1.43785">
        <ele>1645.43</ele>
        <time>2016-10-30T15:09:23Z</time>
      </trkpt>
      <trkpt lat="42.81474" lon="1.43776">
        <ele>1644.47</ele>
        <time>2016-10-30T15:09:34Z</time>
      </trkpt>
      <trkpt lat="42.81473" lon="1.43775">
        <ele>1644.47</ele>
        <time>2016-10-30T15:09:35Z</time>
      </trkpt>
      <trkpt lat="42.81467" lon="1.43772">
        <ele>1643.03</ele>
        <time>2016-10-30T15:09:46Z</time>
      </trkpt>
      <trkpt lat="42.81464" lon="1.43772">
        <ele>1642.55</ele>
        <time>2016-10-30T15:09:49Z</time>
      </trkpt>
      <trkpt lat="42.81457" lon="1.43773">
        <ele>1639.67</ele>
        <time>2016-10-30T15:09:58Z</time>
      </trkpt>
      <trkpt lat="42.81453" lon="1.43773">
        <ele>1635.82</ele>
        <time>2016-10-30T15:10:02Z</time>
      </trkpt>
      <trkpt lat="42.8145" lon="1.43772">
        <ele>1632.46</ele>
        <time>2016-10-30T15:10:06Z</time>
      </trkpt>
      <trkpt lat="42.81445" lon="1.43769">
        <ele>1632.46</ele>
        <time>2016-10-30T15:10:16Z</time>
      </trkpt>
      <trkpt lat="42.81444" lon="1.43769">
        <ele>1632.46</ele>
        <time>2016-10-30T15:10:17Z</time>
      </trkpt>
      <trkpt lat="42.8144" lon="1.43765">
        <ele>1629.57</ele>
        <time>2016-10-30T15:10:25Z</time>
      </trkpt>
      <trkpt lat="42.81438" lon="1.4377">
        <ele>1626.69</ele>
        <time>2016-10-30T15:10:31Z</time>
      </trkpt>
      <trkpt lat="42.81435" lon="1.43777">
        <ele>1630.05</ele>
        <time>2016-10-30T15:10:39Z</time>
      </trkpt>
      <trkpt lat="42.81431" lon="1.43781">
        <ele>1631.98</ele>
        <time>2016-10-30T15:10:45Z</time>
      </trkpt>
      <trkpt lat="42.81425" lon="1.43782">
        <ele>1630.53</ele>
        <time>2016-10-30T15:10:50Z</time>
      </trkpt>
      <trkpt lat="42.81418" lon="1.43781">
        <ele>1626.69</ele>
        <time>2016-10-30T15:10:56Z</time>
      </trkpt>
      <trkpt lat="42.81413" lon="1.43782">
        <ele>1624.28</ele>
        <time>2016-10-30T15:11:01Z</time>
      </trkpt>
      <trkpt lat="42.81406" lon="1.43782">
        <ele>1623.8</ele>
        <time>2016-10-30T15:11:08Z</time>
      </trkpt>
      <trkpt lat="42.81399" lon="1.43785">
        <ele>1623.8</ele>
        <time>2016-10-30T15:11:14Z</time>
      </trkpt>
      <trkpt lat="42.81393" lon="1.43788">
        <ele>1623.8</ele>
        <time>2016-10-30T15:11:19Z</time>
      </trkpt>
      <trkpt lat="42.81387" lon="1.43791">
        <ele>1623.32</ele>
        <time>2016-10-30T15:11:24Z</time>
      </trkpt>
      <trkpt lat="42.81385" lon="1.43791">
        <ele>1623.32</ele>
        <time>2016-10-30T15:11:26Z</time>
      </trkpt>
      <trkpt lat="42.81378" lon="1.43797">
        <ele>1622.84</ele>
        <time>2016-10-30T15:11:33Z</time>
      </trkpt>
      <trkpt lat="42.81377" lon="1.43801">
        <ele>1622.84</ele>
        <time>2016-10-30T15:11:36Z</time>
      </trkpt>
      <trkpt lat="42.81372" lon="1.43801">
        <ele>1622.84</ele>
        <time>2016-10-30T15:11:41Z</time>
      </trkpt>
      <trkpt lat="42.8137" lon="1.43799">
        <ele>1622.84</ele>
        <time>2016-10-30T15:11:43Z</time>
      </trkpt>
      <trkpt lat="42.81361" lon="1.43802">
        <ele>1621.4</ele>
        <time>2016-10-30T15:11:50Z</time>
      </trkpt>
      <trkpt lat="42.81355" lon="1.43806">
        <ele>1620.92</ele>
        <time>2016-10-30T15:11:56Z</time>
      </trkpt>
      <trkpt lat="42.81352" lon="1.43814">
        <ele>1620.44</ele>
        <time>2016-10-30T15:12:03Z</time>
      </trkpt>
      <trkpt lat="42.81347" lon="1.43821">
        <ele>1619</ele>
        <time>2016-10-30T15:12:14Z</time>
      </trkpt>
      <trkpt lat="42.81347" lon="1.43821">
        <ele>1619</ele>
        <time>2016-10-30T15:12:15Z</time>
      </trkpt>
      <trkpt lat="42.81343" lon="1.43818">
        <ele>1616.11</ele>
        <time>2016-10-30T15:12:22Z</time>
      </trkpt>
      <trkpt lat="42.81342" lon="1.43817">
        <ele>1614.67</ele>
        <time>2016-10-30T15:12:24Z</time>
      </trkpt>
      <trkpt lat="42.81339" lon="1.43813">
        <ele>1610.35</ele>
        <time>2016-10-30T15:12:32Z</time>
      </trkpt>
      <trkpt lat="42.81339" lon="1.43812">
        <ele>1610.83</ele>
        <time>2016-10-30T15:12:33Z</time>
      </trkpt>
      <trkpt lat="42.81332" lon="1.43807">
        <ele>1609.86</ele>
        <time>2016-10-30T15:12:46Z</time>
      </trkpt>
      <trkpt lat="42.81333" lon="1.43806">
        <ele>1609.38</ele>
        <time>2016-10-30T15:12:49Z</time>
      </trkpt>
      <trkpt lat="42.8133" lon="1.43801">
        <ele>1605.54</ele>
        <time>2016-10-30T15:12:58Z</time>
      </trkpt>
      <trkpt lat="42.81329" lon="1.438">
        <ele>1602.17</ele>
        <time>2016-10-30T15:13:02Z</time>
      </trkpt>
      <trkpt lat="42.81327" lon="1.43799">
        <ele>1600.73</ele>
        <time>2016-10-30T15:13:04Z</time>
      </trkpt>
      <trkpt lat="42.81326" lon="1.43794">
        <ele>1599.77</ele>
        <time>2016-10-30T15:13:16Z</time>
      </trkpt>
      <trkpt lat="42.81326" lon="1.43795">
        <ele>1599.77</ele>
        <time>2016-10-30T15:13:17Z</time>
      </trkpt>
      <trkpt lat="42.81319" lon="1.43792">
        <ele>1599.77</ele>
        <time>2016-10-30T15:13:27Z</time>
      </trkpt>
      <trkpt lat="42.81317" lon="1.43791">
        <ele>1598.81</ele>
        <time>2016-10-30T15:13:29Z</time>
      </trkpt>
      <trkpt lat="42.81313" lon="1.43786">
        <ele>1597.37</ele>
        <time>2016-10-30T15:13:39Z</time>
      </trkpt>
      <trkpt lat="42.81306" lon="1.43783">
        <ele>1594</ele>
        <time>2016-10-30T15:13:47Z</time>
      </trkpt>
      <trkpt lat="42.81303" lon="1.4378">
        <ele>1590.64</ele>
        <time>2016-10-30T15:13:51Z</time>
      </trkpt>
      <trkpt lat="42.81299" lon="1.43774">
        <ele>1588.24</ele>
        <time>2016-10-30T15:14:02Z</time>
      </trkpt>
      <trkpt lat="42.81297" lon="1.43772">
        <ele>1587.27</ele>
        <time>2016-10-30T15:14:12Z</time>
      </trkpt>
      <trkpt lat="42.81296" lon="1.43769">
        <ele>1586.31</ele>
        <time>2016-10-30T15:14:17Z</time>
      </trkpt>
      <trkpt lat="42.81297" lon="1.43767">
        <ele>1581.99</ele>
        <time>2016-10-30T15:14:25Z</time>
      </trkpt>
      <trkpt lat="42.81297" lon="1.43766">
        <ele>1580.06</ele>
        <time>2016-10-30T15:14:29Z</time>
      </trkpt>
      <trkpt lat="42.81296" lon="1.43761">
        <ele>1580.54</ele>
        <time>2016-10-30T15:14:34Z</time>
      </trkpt>
      <trkpt lat="42.81294" lon="1.43759">
        <ele>1580.06</ele>
        <time>2016-10-30T15:14:37Z</time>
      </trkpt>
      <trkpt lat="42.81295" lon="1.43756">
        <ele>1579.58</ele>
        <time>2016-10-30T15:14:41Z</time>
      </trkpt>
      <trkpt lat="42.81296" lon="1.43753">
        <ele>1579.1</ele>
        <time>2016-10-30T15:14:44Z</time>
      </trkpt>
      <trkpt lat="42.81294" lon="1.43748">
        <ele>1575.74</ele>
        <time>2016-10-30T15:14:51Z</time>
      </trkpt>
      <trkpt lat="42.81295" lon="1.43747">
        <ele>1573.33</ele>
        <time>2016-10-30T15:14:56Z</time>
      </trkpt>
      <trkpt lat="42.81295" lon="1.43744">
        <ele>1572.85</ele>
        <time>2016-10-30T15:14:59Z</time>
      </trkpt>
      <trkpt lat="42.81293" lon="1.43741">
        <ele>1572.37</ele>
        <time>2016-10-30T15:15:02Z</time>
      </trkpt>
      <trkpt lat="42.81292" lon="1.43737">
        <ele>1572.37</ele>
        <time>2016-10-30T15:15:05Z</time>
      </trkpt>
      <trkpt lat="42.81292" lon="1.43732">
        <ele>1571.89</ele>
        <time>2016-10-30T15:15:08Z</time>
      </trkpt>
      <trkpt lat="42.81289" lon="1.43722">
        <ele>1569.01</ele>
        <time>2016-10-30T15:15:15Z</time>
      </trkpt>
      <trkpt lat="42.81287" lon="1.43722">
        <ele>1565.64</ele>
        <time>2016-10-30T15:15:21Z</time>
      </trkpt>
      <trkpt lat="42.81287" lon="1.43712">
        <ele>1565.64</ele>
        <time>2016-10-30T15:15:34Z</time>
      </trkpt>
      <trkpt lat="42.81287" lon="1.43712">
        <ele>1567.09</ele>
        <time>2016-10-30T15:15:57Z</time>
      </trkpt>
      <trkpt lat="42.81287" lon="1.43712">
        <ele>1567.09</ele>
        <time>2016-10-30T15:16:09Z</time>
      </trkpt>
      <trkpt lat="42.81287" lon="1.43712">
        <ele>1567.09</ele>
        <time>2016-10-30T15:16:25Z</time>
      </trkpt>
      <trkpt lat="42.81287" lon="1.43717">
        <ele>1567.09</ele>
        <time>2016-10-30T15:16:31Z</time>
      </trkpt>
      <trkpt lat="42.81287" lon="1.4372">
        <ele>1567.09</ele>
        <time>2016-10-30T15:16:45Z</time>
      </trkpt>
      <trkpt lat="42.81284" lon="1.43724">
        <ele>1566.61</ele>
        <time>2016-10-30T15:17:04Z</time>
      </trkpt>
      <trkpt lat="42.81283" lon="1.43725">
        <ele>1566.61</ele>
        <time>2016-10-30T15:17:06Z</time>
      </trkpt>
      <trkpt lat="42.81276" lon="1.43732">
        <ele>1563.24</ele>
        <time>2016-10-30T15:17:16Z</time>
      </trkpt>
      <trkpt lat="42.81274" lon="1.43732">
        <ele>1559.88</ele>
        <time>2016-10-30T15:17:21Z</time>
      </trkpt>
      <trkpt lat="42.81272" lon="1.43731">
        <ele>1558.43</ele>
        <time>2016-10-30T15:17:23Z</time>
      </trkpt>
      <trkpt lat="42.81271" lon="1.43729">
        <ele>1557.47</ele>
        <time>2016-10-30T15:17:25Z</time>
      </trkpt>
      <trkpt lat="42.81269" lon="1.43731">
        <ele>1556.03</ele>
        <time>2016-10-30T15:17:34Z</time>
      </trkpt>
      <trkpt lat="42.81268" lon="1.43732">
        <ele>1556.03</ele>
        <time>2016-10-30T15:17:35Z</time>
      </trkpt>
      <trkpt lat="42.81264" lon="1.43732">
        <ele>1554.59</ele>
        <time>2016-10-30T15:17:43Z</time>
      </trkpt>
      <trkpt lat="42.81258" lon="1.43732">
        <ele>1553.15</ele>
        <time>2016-10-30T15:17:53Z</time>
      </trkpt>
      <trkpt lat="42.81253" lon="1.43731">
        <ele>1551.22</ele>
        <time>2016-10-30T15:18:02Z</time>
      </trkpt>
      <trkpt lat="42.8125" lon="1.4373">
        <ele>1548.34</ele>
        <time>2016-10-30T15:18:09Z</time>
      </trkpt>
      <trkpt lat="42.81248" lon="1.4373">
        <ele>1544.98</ele>
        <time>2016-10-30T15:18:13Z</time>
      </trkpt>
      <trkpt lat="42.81246" lon="1.43726">
        <ele>1542.57</ele>
        <time>2016-10-30T15:18:20Z</time>
      </trkpt>
      <trkpt lat="42.81244" lon="1.43721">
        <ele>1542.57</ele>
        <time>2016-10-30T15:18:29Z</time>
      </trkpt>
      <trkpt lat="42.81246" lon="1.4371">
        <ele>1539.21</ele>
        <time>2016-10-30T15:18:41Z</time>
      </trkpt>
      <trkpt lat="42.81249" lon="1.437">
        <ele>1537.29</ele>
        <time>2016-10-30T15:18:52Z</time>
      </trkpt>
      <trkpt lat="42.81248" lon="1.43699">
        <ele>1535.36</ele>
        <time>2016-10-30T15:18:54Z</time>
      </trkpt>
      <trkpt lat="42.81243" lon="1.437">
        <ele>1531.52</ele>
        <time>2016-10-30T15:18:59Z</time>
      </trkpt>
      <trkpt lat="42.81234" lon="1.43699">
        <ele>1529.11</ele>
        <time>2016-10-30T15:19:11Z</time>
      </trkpt>
      <trkpt lat="42.81232" lon="1.43689">
        <ele>1527.67</ele>
        <time>2016-10-30T15:19:22Z</time>
      </trkpt>
      <trkpt lat="42.81235" lon="1.43681">
        <ele>1524.31</ele>
        <time>2016-10-30T15:19:33Z</time>
      </trkpt>
      <trkpt lat="42.81235" lon="1.43679">
        <ele>1520.46</ele>
        <time>2016-10-30T15:19:38Z</time>
      </trkpt>
      <trkpt lat="42.81234" lon="1.43675">
        <ele>1519.02</ele>
        <time>2016-10-30T15:19:49Z</time>
      </trkpt>
      <trkpt lat="42.81233" lon="1.43674">
        <ele>1519.02</ele>
        <time>2016-10-30T15:19:51Z</time>
      </trkpt>
      <trkpt lat="42.81231" lon="1.43666">
        <ele>1517.58</ele>
        <time>2016-10-30T15:20:01Z</time>
      </trkpt>
      <trkpt lat="42.81231" lon="1.43661">
        <ele>1517.1</ele>
        <time>2016-10-30T15:20:05Z</time>
      </trkpt>
      <trkpt lat="42.81231" lon="1.43659">
        <ele>1515.66</ele>
        <time>2016-10-30T15:20:07Z</time>
      </trkpt>
      <trkpt lat="42.81233" lon="1.43656">
        <ele>1511.81</ele>
        <time>2016-10-30T15:20:12Z</time>
      </trkpt>
      <trkpt lat="42.8123" lon="1.43655">
        <ele>1509.41</ele>
        <time>2016-10-30T15:20:17Z</time>
      </trkpt>
      <trkpt lat="42.81228" lon="1.4365">
        <ele>1508.45</ele>
        <time>2016-10-30T15:20:24Z</time>
      </trkpt>
      <trkpt lat="42.81226" lon="1.43647">
        <ele>1508.45</ele>
        <time>2016-10-30T15:20:26Z</time>
      </trkpt>
      <trkpt lat="42.81221" lon="1.43641">
        <ele>1506.04</ele>
        <time>2016-10-30T15:20:37Z</time>
      </trkpt>
      <trkpt lat="42.81218" lon="1.43638">
        <ele>1503.16</ele>
        <time>2016-10-30T15:20:42Z</time>
      </trkpt>
      <trkpt lat="42.81214" lon="1.43634">
        <ele>1499.79</ele>
        <time>2016-10-30T15:20:46Z</time>
      </trkpt>
      <trkpt lat="42.81215" lon="1.43629">
        <ele>1498.35</ele>
        <time>2016-10-30T15:20:50Z</time>
      </trkpt>
      <trkpt lat="42.81222" lon="1.43623">
        <ele>1498.35</ele>
        <time>2016-10-30T15:21:01Z</time>
      </trkpt>
      <trkpt lat="42.81224" lon="1.43614">
        <ele>1496.43</ele>
        <time>2016-10-30T15:21:10Z</time>
      </trkpt>
      <trkpt lat="42.81225" lon="1.43611">
        <ele>1495.95</ele>
        <time>2016-10-30T15:21:13Z</time>
      </trkpt>
      <trkpt lat="42.81226" lon="1.43609">
        <ele>1495.47</ele>
        <time>2016-10-30T15:21:16Z</time>
      </trkpt>
      <trkpt lat="42.81226" lon="1.43607">
        <ele>1495.47</ele>
        <time>2016-10-30T15:21:18Z</time>
      </trkpt>
      <trkpt lat="42.81225" lon="1.43604">
        <ele>1491.62</ele>
        <time>2016-10-30T15:21:25Z</time>
      </trkpt>
      <trkpt lat="42.81222" lon="1.43599">
        <ele>1488.74</ele>
        <time>2016-10-30T15:21:33Z</time>
      </trkpt>
      <trkpt lat="42.8122" lon="1.43597">
        <ele>1488.74</ele>
        <time>2016-10-30T15:21:37Z</time>
      </trkpt>
      <trkpt lat="42.81218" lon="1.43591">
        <ele>1487.78</ele>
        <time>2016-10-30T15:21:44Z</time>
      </trkpt>
      <trkpt lat="42.81215" lon="1.43588">
        <ele>1487.3</ele>
        <time>2016-10-30T15:21:48Z</time>
      </trkpt>
      <trkpt lat="42.81215" lon="1.43583">
        <ele>1485.85</ele>
        <time>2016-10-30T15:21:54Z</time>
      </trkpt>
      <trkpt lat="42.81214" lon="1.43575">
        <ele>1481.53</ele>
        <time>2016-10-30T15:22:02Z</time>
      </trkpt>
      <trkpt lat="42.81213" lon="1.43575">
        <ele>1479.61</ele>
        <time>2016-10-30T15:22:05Z</time>
      </trkpt>
      <trkpt lat="42.81208" lon="1.43566">
        <ele>1477.68</ele>
        <time>2016-10-30T15:22:16Z</time>
      </trkpt>
      <trkpt lat="42.81207" lon="1.43565">
        <ele>1477.68</ele>
        <time>2016-10-30T15:22:18Z</time>
      </trkpt>
      <trkpt lat="42.81214" lon="1.43553">
        <ele>1476.24</ele>
        <time>2016-10-30T15:22:28Z</time>
      </trkpt>
      <trkpt lat="42.81224" lon="1.43541">
        <ele>1473.84</ele>
        <time>2016-10-30T15:22:39Z</time>
      </trkpt>
      <trkpt lat="42.81227" lon="1.43536">
        <ele>1473.36</ele>
        <time>2016-10-30T15:22:43Z</time>
      </trkpt>
      <trkpt lat="42.81228" lon="1.43533">
        <ele>1472.88</ele>
        <time>2016-10-30T15:22:46Z</time>
      </trkpt>
      <trkpt lat="42.81229" lon="1.43529">
        <ele>1472.4</ele>
        <time>2016-10-30T15:22:49Z</time>
      </trkpt>
      <trkpt lat="42.8123" lon="1.43519">
        <ele>1471.92</ele>
        <time>2016-10-30T15:22:54Z</time>
      </trkpt>
      <trkpt lat="42.81231" lon="1.43517">
        <ele>1470.95</ele>
        <time>2016-10-30T15:22:56Z</time>
      </trkpt>
      <trkpt lat="42.81233" lon="1.43513">
        <ele>1470.47</ele>
        <time>2016-10-30T15:23:00Z</time>
      </trkpt>
      <trkpt lat="42.81233" lon="1.43498">
        <ele>1466.15</ele>
        <time>2016-10-30T15:23:10Z</time>
      </trkpt>
      <trkpt lat="42.81233" lon="1.43491">
        <ele>1463.74</ele>
        <time>2016-10-30T15:23:15Z</time>
      </trkpt>
      <trkpt lat="42.81234" lon="1.43477">
        <ele>1463.26</ele>
        <time>2016-10-30T15:23:25Z</time>
      </trkpt>
      <trkpt lat="42.81238" lon="1.43462">
        <ele>1461.34</ele>
        <time>2016-10-30T15:23:36Z</time>
      </trkpt>
      <trkpt lat="42.81238" lon="1.43455">
        <ele>1459.42</ele>
        <time>2016-10-30T15:23:41Z</time>
      </trkpt>
      <trkpt lat="42.81237" lon="1.43451">
        <ele>1455.09</ele>
        <time>2016-10-30T15:23:47Z</time>
      </trkpt>
      <trkpt lat="42.81237" lon="1.4345">
        <ele>1454.61</ele>
        <time>2016-10-30T15:23:59Z</time>
      </trkpt>
      <trkpt lat="42.81239" lon="1.43442">
        <ele>1454.61</ele>
        <time>2016-10-30T15:24:05Z</time>
      </trkpt>
      <trkpt lat="42.81236" lon="1.43434">
        <ele>1454.61</ele>
        <time>2016-10-30T15:24:16Z</time>
      </trkpt>
      <trkpt lat="42.81235" lon="1.43434">
        <ele>1454.13</ele>
        <time>2016-10-30T15:24:17Z</time>
      </trkpt>
      <trkpt lat="42.81234" lon="1.43432">
        <ele>1453.17</ele>
        <time>2016-10-30T15:24:21Z</time>
      </trkpt>
      <trkpt lat="42.81232" lon="1.43431">
        <ele>1449.81</ele>
        <time>2016-10-30T15:24:25Z</time>
      </trkpt>
      <trkpt lat="42.81229" lon="1.43433">
        <ele>1445.96</ele>
        <time>2016-10-30T15:24:32Z</time>
      </trkpt>
      <trkpt lat="42.81228" lon="1.43431">
        <ele>1445.96</ele>
        <time>2016-10-30T15:24:34Z</time>
      </trkpt>
      <trkpt lat="42.81226" lon="1.43431">
        <ele>1445.96</ele>
        <time>2016-10-30T15:24:36Z</time>
      </trkpt>
      <trkpt lat="42.81222" lon="1.43433">
        <ele>1445.96</ele>
        <time>2016-10-30T15:24:43Z</time>
      </trkpt>
      <trkpt lat="42.81215" lon="1.43436">
        <ele>1445</ele>
        <time>2016-10-30T15:24:52Z</time>
      </trkpt>
      <trkpt lat="42.8121" lon="1.43433">
        <ele>1442.6</ele>
        <time>2016-10-30T15:24:57Z</time>
      </trkpt>
      <trkpt lat="42.8121" lon="1.43427">
        <ele>1438.27</ele>
        <time>2016-10-30T15:25:02Z</time>
      </trkpt>
      <trkpt lat="42.81211" lon="1.43416">
        <ele>1436.35</ele>
        <time>2016-10-30T15:25:11Z</time>
      </trkpt>
      <trkpt lat="42.81205" lon="1.43406">
        <ele>1435.87</ele>
        <time>2016-10-30T15:25:22Z</time>
      </trkpt>
      <trkpt lat="42.81202" lon="1.43402">
        <ele>1435.87</ele>
        <time>2016-10-30T15:25:25Z</time>
      </trkpt>
      <trkpt lat="42.81189" lon="1.43389">
        <ele>1434.42</ele>
        <time>2016-10-30T15:25:38Z</time>
      </trkpt>
      <trkpt lat="42.81177" lon="1.43376">
        <ele>1431.06</ele>
        <time>2016-10-30T15:25:50Z</time>
      </trkpt>
      <trkpt lat="42.81177" lon="1.43371">
        <ele>1428.66</ele>
        <time>2016-10-30T15:25:54Z</time>
      </trkpt>
      <trkpt lat="42.81172" lon="1.43366">
        <ele>1426.73</ele>
        <time>2016-10-30T15:26:00Z</time>
      </trkpt>
      <trkpt lat="42.81168" lon="1.43358">
        <ele>1426.73</ele>
        <time>2016-10-30T15:26:06Z</time>
      </trkpt>
      <trkpt lat="42.81165" lon="1.43343">
        <ele>1426.73</ele>
        <time>2016-10-30T15:26:15Z</time>
      </trkpt>
      <trkpt lat="42.81162" lon="1.43337">
        <ele>1425.29</ele>
        <time>2016-10-30T15:26:25Z</time>
      </trkpt>
      <trkpt lat="42.81165" lon="1.43329">
        <ele>1425.29</ele>
        <time>2016-10-30T15:26:30Z</time>
      </trkpt>
      <trkpt lat="42.81169" lon="1.43321">
        <ele>1424.81</ele>
        <time>2016-10-30T15:26:36Z</time>
      </trkpt>
      <trkpt lat="42.81167" lon="1.43314">
        <ele>1424.33</ele>
        <time>2016-10-30T15:26:41Z</time>
      </trkpt>
      <trkpt lat="42.81162" lon="1.43308">
        <ele>1423.37</ele>
        <time>2016-10-30T15:26:48Z</time>
      </trkpt>
      <trkpt lat="42.81157" lon="1.43286">
        <ele>1421.93</ele>
        <time>2016-10-30T15:27:02Z</time>
      </trkpt>
      <trkpt lat="42.81156" lon="1.43284">
        <ele>1421.93</ele>
        <time>2016-10-30T15:27:05Z</time>
      </trkpt>
      <trkpt lat="42.81155" lon="1.43273">
        <ele>1420.49</ele>
        <time>2016-10-30T15:27:14Z</time>
      </trkpt>
      <trkpt lat="42.81145" lon="1.43255">
        <ele>1420</ele>
        <time>2016-10-30T15:27:26Z</time>
      </trkpt>
      <trkpt lat="42.81133" lon="1.43232">
        <ele>1419.04</ele>
        <time>2016-10-30T15:27:38Z</time>
      </trkpt>
      <trkpt lat="42.81126" lon="1.43223">
        <ele>1418.08</ele>
        <time>2016-10-30T15:27:45Z</time>
      </trkpt>
      <trkpt lat="42.81121" lon="1.43202">
        <ele>1417.6</ele>
        <time>2016-10-30T15:27:57Z</time>
      </trkpt>
      <trkpt lat="42.8112" lon="1.43199">
        <ele>1417.6</ele>
        <time>2016-10-30T15:27:59Z</time>
      </trkpt>
      <trkpt lat="42.81115" lon="1.43182">
        <ele>1415.68</ele>
        <time>2016-10-30T15:28:09Z</time>
      </trkpt>
      <trkpt lat="42.81113" lon="1.43167">
        <ele>1414.72</ele>
        <time>2016-10-30T15:28:17Z</time>
      </trkpt>
      <trkpt lat="42.81112" lon="1.43162">
        <ele>1414.72</ele>
        <time>2016-10-30T15:28:21Z</time>
      </trkpt>
      <trkpt lat="42.81108" lon="1.43148">
        <ele>1414.72</ele>
        <time>2016-10-30T15:28:29Z</time>
      </trkpt>
      <trkpt lat="42.81107" lon="1.43144">
        <ele>1414.72</ele>
        <time>2016-10-30T15:28:32Z</time>
      </trkpt>
      <trkpt lat="42.81108" lon="1.43141">
        <ele>1414.72</ele>
        <time>2016-10-30T15:28:35Z</time>
      </trkpt>
      <trkpt lat="42.81106" lon="1.43136">
        <ele>1414.72</ele>
        <time>2016-10-30T15:28:39Z</time>
      </trkpt>
      <trkpt lat="42.81103" lon="1.43119">
        <ele>1414.72</ele>
        <time>2016-10-30T15:28:48Z</time>
      </trkpt>
      <trkpt lat="42.81104" lon="1.43114">
        <ele>1414.72</ele>
        <time>2016-10-30T15:28:51Z</time>
      </trkpt>
      <trkpt lat="42.81104" lon="1.43112">
        <ele>1414.72</ele>
        <time>2016-10-30T15:28:53Z</time>
      </trkpt>
      <trkpt lat="42.81097" lon="1.43096">
        <ele>1414.72</ele>
        <time>2016-10-30T15:29:04Z</time>
      </trkpt>
      <trkpt lat="42.81097" lon="1.43093">
        <ele>1414.72</ele>
        <time>2016-10-30T15:29:05Z</time>
      </trkpt>
      <trkpt lat="42.81096" lon="1.43081">
        <ele>1414.72</ele>
        <time>2016-10-30T15:29:12Z</time>
      </trkpt>
      <trkpt lat="42.81096" lon="1.43073">
        <ele>1414.24</ele>
        <time>2016-10-30T15:29:18Z</time>
      </trkpt>
      <trkpt lat="42.81094" lon="1.43058">
        <ele>1414.24</ele>
        <time>2016-10-30T15:29:28Z</time>
      </trkpt>
      <trkpt lat="42.81095" lon="1.43045">
        <ele>1415.68</ele>
        <time>2016-10-30T15:29:38Z</time>
      </trkpt>
      <trkpt lat="42.81096" lon="1.43041">
        <ele>1415.68</ele>
        <time>2016-10-30T15:29:42Z</time>
      </trkpt>
      <trkpt lat="42.81096" lon="1.43039">
        <ele>1415.68</ele>
        <time>2016-10-30T15:29:44Z</time>
      </trkpt>
      <trkpt lat="42.81094" lon="1.43032">
        <ele>1416.16</ele>
        <time>2016-10-30T15:29:49Z</time>
      </trkpt>
      <trkpt lat="42.81094" lon="1.43027">
        <ele>1416.16</ele>
        <time>2016-10-30T15:29:52Z</time>
      </trkpt>
      <trkpt lat="42.81092" lon="1.43021">
        <ele>1416.64</ele>
        <time>2016-10-30T15:29:56Z</time>
      </trkpt>
      <trkpt lat="42.81091" lon="1.43017">
        <ele>1416.64</ele>
        <time>2016-10-30T15:29:59Z</time>
      </trkpt>
      <trkpt lat="42.8109" lon="1.43015">
        <ele>1416.64</ele>
        <time>2016-10-30T15:30:01Z</time>
      </trkpt>
      <trkpt lat="42.81079" lon="1.42991">
        <ele>1415.2</ele>
        <time>2016-10-30T15:30:17Z</time>
      </trkpt>
      <trkpt lat="42.81077" lon="1.42988">
        <ele>1415.2</ele>
        <time>2016-10-30T15:30:18Z</time>
      </trkpt>
      <trkpt lat="42.81076" lon="1.42973">
        <ele>1415.2</ele>
        <time>2016-10-30T15:30:28Z</time>
      </trkpt>
      <trkpt lat="42.81072" lon="1.42958">
        <ele>1415.2</ele>
        <time>2016-10-30T15:30:36Z</time>
      </trkpt>
      <trkpt lat="42.8107" lon="1.42941">
        <ele>1415.2</ele>
        <time>2016-10-30T15:30:47Z</time>
      </trkpt>
      <trkpt lat="42.81069" lon="1.42936">
        <ele>1415.2</ele>
        <time>2016-10-30T15:30:50Z</time>
      </trkpt>
      <trkpt lat="42.81065" lon="1.42923">
        <ele>1415.2</ele>
        <time>2016-10-30T15:31:01Z</time>
      </trkpt>
      <trkpt lat="42.81066" lon="1.42917">
        <ele>1415.2</ele>
        <time>2016-10-30T15:31:05Z</time>
      </trkpt>
      <trkpt lat="42.81065" lon="1.42906">
        <ele>1415.2</ele>
        <time>2016-10-30T15:31:12Z</time>
      </trkpt>
      <trkpt lat="42.81064" lon="1.42901">
        <ele>1415.2</ele>
        <time>2016-10-30T15:31:16Z</time>
      </trkpt>
      <trkpt lat="42.81062" lon="1.42891">
        <ele>1415.2</ele>
        <time>2016-10-30T15:31:22Z</time>
      </trkpt>
      <trkpt lat="42.8106" lon="1.42883">
        <ele>1415.2</ele>
        <time>2016-10-30T15:31:27Z</time>
      </trkpt>
      <trkpt lat="42.81055" lon="1.42867">
        <ele>1414.24</ele>
        <time>2016-10-30T15:31:38Z</time>
      </trkpt>
      <trkpt lat="42.8105" lon="1.4285">
        <ele>1415.68</ele>
        <time>2016-10-30T15:31:51Z</time>
      </trkpt>
      <trkpt lat="42.81048" lon="1.42848">
        <ele>1415.68</ele>
        <time>2016-10-30T15:31:53Z</time>
      </trkpt>
      <trkpt lat="42.81046" lon="1.42843">
        <ele>1415.68</ele>
        <time>2016-10-30T15:31:57Z</time>
      </trkpt>
      <trkpt lat="42.81045" lon="1.42837">
        <ele>1416.64</ele>
        <time>2016-10-30T15:32:03Z</time>
      </trkpt>
      <trkpt lat="42.81037" lon="1.42829">
        <ele>1417.6</ele>
        <time>2016-10-30T15:32:14Z</time>
      </trkpt>
      <trkpt lat="42.81036" lon="1.42828">
        <ele>1417.6</ele>
        <time>2016-10-30T15:32:16Z</time>
      </trkpt>
      <trkpt lat="42.81033" lon="1.42826">
        <ele>1418.56</ele>
        <time>2016-10-30T15:32:20Z</time>
      </trkpt>
      <trkpt lat="42.81031" lon="1.42824">
        <ele>1419.04</ele>
        <time>2016-10-30T15:32:22Z</time>
      </trkpt>
      <trkpt lat="42.8103" lon="1.42822">
        <ele>1419.04</ele>
        <time>2016-10-30T15:32:24Z</time>
      </trkpt>
      <trkpt lat="42.81026" lon="1.42819">
        <ele>1418.56</ele>
        <time>2016-10-30T15:32:28Z</time>
      </trkpt>
      <trkpt lat="42.81025" lon="1.42815">
        <ele>1419.52</ele>
        <time>2016-10-30T15:32:32Z</time>
      </trkpt>
      <trkpt lat="42.81024" lon="1.4281">
        <ele>1420.49</ele>
        <time>2016-10-30T15:32:42Z</time>
      </trkpt>
      <trkpt lat="42.81021" lon="1.42807">
        <ele>1420.49</ele>
        <time>2016-10-30T15:32:46Z</time>
      </trkpt>
      <trkpt lat="42.81017" lon="1.42804">
        <ele>1420</ele>
        <time>2016-10-30T15:32:51Z</time>
      </trkpt>
      <trkpt lat="42.81014" lon="1.42799">
        <ele>1420.49</ele>
        <time>2016-10-30T15:32:57Z</time>
      </trkpt>
      <trkpt lat="42.81009" lon="1.42794">
        <ele>1420.97</ele>
        <time>2016-10-30T15:33:04Z</time>
      </trkpt>
      <trkpt lat="42.81004" lon="1.4279">
        <ele>1420.97</ele>
        <time>2016-10-30T15:33:08Z</time>
      </trkpt>
      <trkpt lat="42.80991" lon="1.4279">
        <ele>1421.45</ele>
        <time>2016-10-30T15:33:18Z</time>
      </trkpt>
      <trkpt lat="42.80983" lon="1.42788">
        <ele>1421.45</ele>
        <time>2016-10-30T15:33:25Z</time>
      </trkpt>
      <trkpt lat="42.80969" lon="1.42792">
        <ele>1420.49</ele>
        <time>2016-10-30T15:33:36Z</time>
      </trkpt>
      <trkpt lat="42.8096" lon="1.42795">
        <ele>1419.52</ele>
        <time>2016-10-30T15:33:43Z</time>
      </trkpt>
      <trkpt lat="42.80947" lon="1.42795">
        <ele>1418.56</ele>
        <time>2016-10-30T15:33:55Z</time>
      </trkpt>
      <trkpt lat="42.80937" lon="1.42798">
        <ele>1418.56</ele>
        <time>2016-10-30T15:34:02Z</time>
      </trkpt>
      <trkpt lat="42.80933" lon="1.42801">
        <ele>1418.56</ele>
        <time>2016-10-30T15:34:05Z</time>
      </trkpt>
      <trkpt lat="42.80922" lon="1.42807">
        <ele>1417.6</ele>
        <time>2016-10-30T15:34:13Z</time>
      </trkpt>
      <trkpt lat="42.80912" lon="1.42815">
        <ele>1414.24</ele>
        <time>2016-10-30T15:34:23Z</time>
      </trkpt>
      <trkpt lat="42.80909" lon="1.42817">
        <ele>1411.83</ele>
        <time>2016-10-30T15:34:26Z</time>
      </trkpt>
      <trkpt lat="42.80897" lon="1.4282">
        <ele>1409.91</ele>
        <time>2016-10-30T15:34:37Z</time>
      </trkpt>
      <trkpt lat="42.80895" lon="1.4282">
        <ele>1409.91</ele>
        <time>2016-10-30T15:34:39Z</time>
      </trkpt>
      <trkpt lat="42.80885" lon="1.42823">
        <ele>1409.43</ele>
        <time>2016-10-30T15:34:49Z</time>
      </trkpt>
      <trkpt lat="42.80883" lon="1.42823">
        <ele>1409.43</ele>
        <time>2016-10-30T15:34:52Z</time>
      </trkpt>
      <trkpt lat="42.80876" lon="1.42825">
        <ele>1409.43</ele>
        <time>2016-10-30T15:34:58Z</time>
      </trkpt>
      <trkpt lat="42.80866" lon="1.42825">
        <ele>1409.43</ele>
        <time>2016-10-30T15:35:06Z</time>
      </trkpt>
      <trkpt lat="42.80862" lon="1.42827">
        <ele>1409.43</ele>
        <time>2016-10-30T15:35:10Z</time>
      </trkpt>
      <trkpt lat="42.80859" lon="1.42827">
        <ele>1409.43</ele>
        <time>2016-10-30T15:35:12Z</time>
      </trkpt>
      <trkpt lat="42.80854" lon="1.42828">
        <ele>1409.43</ele>
        <time>2016-10-30T15:35:17Z</time>
      </trkpt>
      <trkpt lat="42.80851" lon="1.42829">
        <ele>1409.43</ele>
        <time>2016-10-30T15:35:20Z</time>
      </trkpt>
      <trkpt lat="42.80845" lon="1.4283">
        <ele>1409.43</ele>
        <time>2016-10-30T15:35:24Z</time>
      </trkpt>
      <trkpt lat="42.8084" lon="1.42827">
        <ele>1408.95</ele>
        <time>2016-10-30T15:35:29Z</time>
      </trkpt>
      <trkpt lat="42.80833" lon="1.42828">
        <ele>1408.95</ele>
        <time>2016-10-30T15:35:34Z</time>
      </trkpt>
      <trkpt lat="42.80814" lon="1.4282">
        <ele>1407.99</ele>
        <time>2016-10-30T15:35:48Z</time>
      </trkpt>
      <trkpt lat="42.80791" lon="1.42815">
        <ele>1406.07</ele>
        <time>2016-10-30T15:36:03Z</time>
      </trkpt>
      <trkpt lat="42.80789" lon="1.42812">
        <ele>1405.58</ele>
        <time>2016-10-30T15:36:07Z</time>
      </trkpt>
      <trkpt lat="42.80779" lon="1.428">
        <ele>1405.1</ele>
        <time>2016-10-30T15:36:17Z</time>
      </trkpt>
      <trkpt lat="42.80776" lon="1.42793">
        <ele>1404.62</ele>
        <time>2016-10-30T15:36:22Z</time>
      </trkpt>
      <trkpt lat="42.80766" lon="1.4277">
        <ele>1403.18</ele>
        <time>2016-10-30T15:36:34Z</time>
      </trkpt>
      <trkpt lat="42.80761" lon="1.42755">
        <ele>1402.22</ele>
        <time>2016-10-30T15:36:42Z</time>
      </trkpt>
      <trkpt lat="42.80762" lon="1.42746">
        <ele>1401.74</ele>
        <time>2016-10-30T15:36:47Z</time>
      </trkpt>
      <trkpt lat="42.80761" lon="1.42724">
        <ele>1400.78</ele>
        <time>2016-10-30T15:36:58Z</time>
      </trkpt>
      <trkpt lat="42.80761" lon="1.42707">
        <ele>1400.3</ele>
        <time>2016-10-30T15:37:06Z</time>
      </trkpt>
      <trkpt lat="42.80762" lon="1.427">
        <ele>1399.34</ele>
        <time>2016-10-30T15:37:10Z</time>
      </trkpt>
      <trkpt lat="42.80762" lon="1.42695">
        <ele>1398.86</ele>
        <time>2016-10-30T15:37:12Z</time>
      </trkpt>
      <trkpt lat="42.80764" lon="1.42677">
        <ele>1398.37</ele>
        <time>2016-10-30T15:37:22Z</time>
      </trkpt>
      <trkpt lat="42.80764" lon="1.42674">
        <ele>1398.37</ele>
        <time>2016-10-30T15:37:24Z</time>
      </trkpt>
      <trkpt lat="42.80767" lon="1.42651">
        <ele>1396.93</ele>
        <time>2016-10-30T15:37:36Z</time>
      </trkpt>
      <trkpt lat="42.80768" lon="1.42649">
        <ele>1396.93</ele>
        <time>2016-10-30T15:37:37Z</time>
      </trkpt>
      <trkpt lat="42.80768" lon="1.42644">
        <ele>1396.93</ele>
        <time>2016-10-30T15:37:40Z</time>
      </trkpt>
      <trkpt lat="42.80769" lon="1.42643">
        <ele>1395.97</ele>
        <time>2016-10-30T15:37:57Z</time>
      </trkpt>
      <trkpt lat="42.8077" lon="1.42638">
        <ele>1395.49</ele>
        <time>2016-10-30T15:38:07Z</time>
      </trkpt>
      <trkpt lat="42.80771" lon="1.42625">
        <ele>1394.53</ele>
        <time>2016-10-30T15:38:16Z</time>
      </trkpt>
      <trkpt lat="42.80777" lon="1.42599">
        <ele>1393.57</ele>
        <time>2016-10-30T15:38:30Z</time>
      </trkpt>
      <trkpt lat="42.8078" lon="1.4258">
        <ele>1393.09</ele>
        <time>2016-10-30T15:38:40Z</time>
      </trkpt>
      <trkpt lat="42.80784" lon="1.42562">
        <ele>1392.61</ele>
        <time>2016-10-30T15:38:50Z</time>
      </trkpt>
      <trkpt lat="42.80785" lon="1.4256">
        <ele>1392.61</ele>
        <time>2016-10-30T15:38:51Z</time>
      </trkpt>
      <trkpt lat="42.80785" lon="1.42551">
        <ele>1392.61</ele>
        <time>2016-10-30T15:38:56Z</time>
      </trkpt>
      <trkpt lat="42.80785" lon="1.42549">
        <ele>1392.61</ele>
        <time>2016-10-30T15:38:57Z</time>
      </trkpt>
      <trkpt lat="42.80788" lon="1.42545">
        <ele>1392.13</ele>
        <time>2016-10-30T15:39:00Z</time>
      </trkpt>
      <trkpt lat="42.80793" lon="1.4253">
        <ele>1392.13</ele>
        <time>2016-10-30T15:39:09Z</time>
      </trkpt>
      <trkpt lat="42.80795" lon="1.42526">
        <ele>1391.17</ele>
        <time>2016-10-30T15:39:11Z</time>
      </trkpt>
      <trkpt lat="42.80795" lon="1.42524">
        <ele>1391.17</ele>
        <time>2016-10-30T15:39:13Z</time>
      </trkpt>
      <trkpt lat="42.80796" lon="1.4251">
        <ele>1390.68</ele>
        <time>2016-10-30T15:39:23Z</time>
      </trkpt>
      <trkpt lat="42.80798" lon="1.42503">
        <ele>1390.68</ele>
        <time>2016-10-30T15:39:27Z</time>
      </trkpt>
      <trkpt lat="42.808" lon="1.42492">
        <ele>1390.2</ele>
        <time>2016-10-30T15:39:34Z</time>
      </trkpt>
      <trkpt lat="42.808" lon="1.42484">
        <ele>1389.72</ele>
        <time>2016-10-30T15:39:38Z</time>
      </trkpt>
      <trkpt lat="42.80803" lon="1.4248">
        <ele>1389.72</ele>
        <time>2016-10-30T15:39:41Z</time>
      </trkpt>
      <trkpt lat="42.80809" lon="1.42467">
        <ele>1388.28</ele>
        <time>2016-10-30T15:39:53Z</time>
      </trkpt>
      <trkpt lat="42.80809" lon="1.42465">
        <ele>1388.28</ele>
        <time>2016-10-30T15:39:54Z</time>
      </trkpt>
      <trkpt lat="42.80795" lon="1.42457">
        <ele>1388.28</ele>
        <time>2016-10-30T15:40:05Z</time>
      </trkpt>
      <trkpt lat="42.80793" lon="1.42455">
        <ele>1388.28</ele>
        <time>2016-10-30T15:40:07Z</time>
      </trkpt>
      <trkpt lat="42.80791" lon="1.42439">
        <ele>1388.28</ele>
        <time>2016-10-30T15:40:16Z</time>
      </trkpt>
      <trkpt lat="42.80788" lon="1.42434">
        <ele>1388.28</ele>
        <time>2016-10-30T15:40:20Z</time>
      </trkpt>
      <trkpt lat="42.80779" lon="1.42415">
        <ele>1388.28</ele>
        <time>2016-10-30T15:40:32Z</time>
      </trkpt>
      <trkpt lat="42.80778" lon="1.42411">
        <ele>1389.24</ele>
        <time>2016-10-30T15:40:35Z</time>
      </trkpt>
      <trkpt lat="42.80771" lon="1.42407">
        <ele>1389.72</ele>
        <time>2016-10-30T15:40:42Z</time>
      </trkpt>
      <trkpt lat="42.80762" lon="1.42394">
        <ele>1389.72</ele>
        <time>2016-10-30T15:40:51Z</time>
      </trkpt>
      <trkpt lat="42.8076" lon="1.4239">
        <ele>1389.24</ele>
        <time>2016-10-30T15:41:00Z</time>
      </trkpt>
      <trkpt lat="42.80755" lon="1.42381">
        <ele>1389.24</ele>
        <time>2016-10-30T15:41:16Z</time>
      </trkpt>
      <trkpt lat="42.80746" lon="1.42365">
        <ele>1389.24</ele>
        <time>2016-10-30T15:41:27Z</time>
      </trkpt>
      <trkpt lat="42.80745" lon="1.4236">
        <ele>1389.24</ele>
        <time>2016-10-30T15:41:32Z</time>
      </trkpt>
      <trkpt lat="42.80738" lon="1.42348">
        <ele>1389.72</ele>
        <time>2016-10-30T15:41:40Z</time>
      </trkpt>
      <trkpt lat="42.80731" lon="1.42336">
        <ele>1389.72</ele>
        <time>2016-10-30T15:41:48Z</time>
      </trkpt>
      <trkpt lat="42.80727" lon="1.42325">
        <ele>1390.2</ele>
        <time>2016-10-30T15:41:56Z</time>
      </trkpt>
      <trkpt lat="42.80725" lon="1.42316">
        <ele>1390.2</ele>
        <time>2016-10-30T15:42:02Z</time>
      </trkpt>
      <trkpt lat="42.80723" lon="1.42311">
        <ele>1390.2</ele>
        <time>2016-10-30T15:42:05Z</time>
      </trkpt>
      <trkpt lat="42.80719" lon="1.4229">
        <ele>1390.2</ele>
        <time>2016-10-30T15:42:17Z</time>
      </trkpt>
      <trkpt lat="42.80718" lon="1.42284">
        <ele>1390.2</ele>
        <time>2016-10-30T15:42:21Z</time>
      </trkpt>
      <trkpt lat="42.80718" lon="1.42276">
        <ele>1390.2</ele>
        <time>2016-10-30T15:42:26Z</time>
      </trkpt>
      <trkpt lat="42.80715" lon="1.42259">
        <ele>1390.2</ele>
        <time>2016-10-30T15:42:35Z</time>
      </trkpt>
      <trkpt lat="42.80716" lon="1.42256">
        <ele>1390.68</ele>
        <time>2016-10-30T15:42:38Z</time>
      </trkpt>
      <trkpt lat="42.80717" lon="1.42252">
        <ele>1391.17</ele>
        <time>2016-10-30T15:42:41Z</time>
      </trkpt>
      <trkpt lat="42.80713" lon="1.42236">
        <ele>1392.13</ele>
        <time>2016-10-30T15:42:53Z</time>
      </trkpt>
      <trkpt lat="42.8071" lon="1.42225">
        <ele>1392.13</ele>
        <time>2016-10-30T15:43:01Z</time>
      </trkpt>
      <trkpt lat="42.80708" lon="1.42218">
        <ele>1392.13</ele>
        <time>2016-10-30T15:43:06Z</time>
      </trkpt>
      <trkpt lat="42.80707" lon="1.42215">
        <ele>1392.61</ele>
        <time>2016-10-30T15:43:08Z</time>
      </trkpt>
      <trkpt lat="42.80707" lon="1.42205">
        <ele>1393.57</ele>
        <time>2016-10-30T15:43:18Z</time>
      </trkpt>
      <trkpt lat="42.80705" lon="1.42203">
        <ele>1394.05</ele>
        <time>2016-10-30T15:43:20Z</time>
      </trkpt>
      <trkpt lat="42.80705" lon="1.42195">
        <ele>1395.49</ele>
        <time>2016-10-30T15:43:26Z</time>
      </trkpt>
      <trkpt lat="42.80704" lon="1.42193">
        <ele>1395.49</ele>
        <time>2016-10-30T15:43:28Z</time>
      </trkpt>
      <trkpt lat="42.80702" lon="1.42188">
        <ele>1397.41</ele>
        <time>2016-10-30T15:43:34Z</time>
      </trkpt>
      <trkpt lat="42.80696" lon="1.42183">
        <ele>1399.34</ele>
        <time>2016-10-30T15:43:39Z</time>
      </trkpt>
      <trkpt lat="42.8069" lon="1.42167">
        <ele>1399.34</ele>
        <time>2016-10-30T15:43:52Z</time>
      </trkpt>
      <trkpt lat="42.8069" lon="1.42167">
        <ele>1399.34</ele>
        <time>2016-10-30T15:43:53Z</time>
      </trkpt>
      <trkpt lat="42.80679" lon="1.42154">
        <ele>1398.37</ele>
        <time>2016-10-30T15:44:05Z</time>
      </trkpt>
      <trkpt lat="42.80673" lon="1.42147">
        <ele>1399.82</ele>
        <time>2016-10-30T15:44:14Z</time>
      </trkpt>
      <trkpt lat="42.80667" lon="1.42133">
        <ele>1401.74</ele>
        <time>2016-10-30T15:44:25Z</time>
      </trkpt>
      <trkpt lat="42.80663" lon="1.42121">
        <ele>1403.66</ele>
        <time>2016-10-30T15:44:37Z</time>
      </trkpt>
      <trkpt lat="42.80662" lon="1.42119">
        <ele>1403.66</ele>
        <time>2016-10-30T15:44:39Z</time>
      </trkpt>
      <trkpt lat="42.80661" lon="1.42116">
        <ele>1404.62</ele>
        <time>2016-10-30T15:44:41Z</time>
      </trkpt>
      <trkpt lat="42.8066" lon="1.42113">
        <ele>1404.62</ele>
        <time>2016-10-30T15:44:45Z</time>
      </trkpt>
      <trkpt lat="42.80657" lon="1.42097">
        <ele>1406.55</ele>
        <time>2016-10-30T15:44:55Z</time>
      </trkpt>
      <trkpt lat="42.80658" lon="1.42095">
        <ele>1406.55</ele>
        <time>2016-10-30T15:44:57Z</time>
      </trkpt>
      <trkpt lat="42.8066" lon="1.4208">
        <ele>1407.99</ele>
        <time>2016-10-30T15:45:10Z</time>
      </trkpt>
      <trkpt lat="42.80659" lon="1.42065">
        <ele>1409.43</ele>
        <time>2016-10-30T15:45:22Z</time>
      </trkpt>
      <trkpt lat="42.80655" lon="1.42063">
        <ele>1409.91</ele>
        <time>2016-10-30T15:45:34Z</time>
      </trkpt>
      <trkpt lat="42.80655" lon="1.42063">
        <ele>1409.91</ele>
        <time>2016-10-30T15:45:40Z</time>
      </trkpt>
      <trkpt lat="42.80654" lon="1.4206">
        <ele>1410.39</ele>
        <time>2016-10-30T15:45:42Z</time>
      </trkpt>
      <trkpt lat="42.80644" lon="1.42043">
        <ele>1410.87</ele>
        <time>2016-10-30T15:45:54Z</time>
      </trkpt>
      <trkpt lat="42.80631" lon="1.42036">
        <ele>1411.35</ele>
        <time>2016-10-30T15:46:05Z</time>
      </trkpt>
      <trkpt lat="42.80624" lon="1.42031">
        <ele>1412.31</ele>
        <time>2016-10-30T15:46:12Z</time>
      </trkpt>
      <trkpt lat="42.80622" lon="1.42024">
        <ele>1412.79</ele>
        <time>2016-10-30T15:46:17Z</time>
      </trkpt>
      <trkpt lat="42.8062" lon="1.4202">
        <ele>1412.79</ele>
        <time>2016-10-30T15:46:20Z</time>
      </trkpt>
      <trkpt lat="42.80618" lon="1.42007">
        <ele>1413.76</ele>
        <time>2016-10-30T15:46:28Z</time>
      </trkpt>
      <trkpt lat="42.80617" lon="1.41995">
        <ele>1414.72</ele>
        <time>2016-10-30T15:46:36Z</time>
      </trkpt>
      <trkpt lat="42.80618" lon="1.41992">
        <ele>1414.72</ele>
        <time>2016-10-30T15:46:38Z</time>
      </trkpt>
      <trkpt lat="42.80616" lon="1.41985">
        <ele>1415.2</ele>
        <time>2016-10-30T15:46:43Z</time>
      </trkpt>
      <trkpt lat="42.80614" lon="1.41976">
        <ele>1415.68</ele>
        <time>2016-10-30T15:46:48Z</time>
      </trkpt>
      <trkpt lat="42.80609" lon="1.41964">
        <ele>1416.64</ele>
        <time>2016-10-30T15:46:56Z</time>
      </trkpt>
      <trkpt lat="42.80609" lon="1.41958">
        <ele>1416.64</ele>
        <time>2016-10-30T15:47:00Z</time>
      </trkpt>
      <trkpt lat="42.80604" lon="1.41943">
        <ele>1418.08</ele>
        <time>2016-10-30T15:47:10Z</time>
      </trkpt>
      <trkpt lat="42.80603" lon="1.41939">
        <ele>1418.56</ele>
        <time>2016-10-30T15:47:13Z</time>
      </trkpt>
      <trkpt lat="42.80595" lon="1.41919">
        <ele>1420</ele>
        <time>2016-10-30T15:47:26Z</time>
      </trkpt>
      <trkpt lat="42.80593" lon="1.41912">
        <ele>1420.97</ele>
        <time>2016-10-30T15:47:30Z</time>
      </trkpt>
      <trkpt lat="42.80591" lon="1.41908">
        <ele>1421.45</ele>
        <time>2016-10-30T15:47:33Z</time>
      </trkpt>
      <trkpt lat="42.80588" lon="1.41896">
        <ele>1421.93</ele>
        <time>2016-10-30T15:47:40Z</time>
      </trkpt>
      <trkpt lat="42.80588" lon="1.4189">
        <ele>1422.41</ele>
        <time>2016-10-30T15:47:44Z</time>
      </trkpt>
      <trkpt lat="42.80586" lon="1.41878">
        <ele>1423.37</ele>
        <time>2016-10-30T15:47:51Z</time>
      </trkpt>
      <trkpt lat="42.80586" lon="1.41874">
        <ele>1423.37</ele>
        <time>2016-10-30T15:47:54Z</time>
      </trkpt>
      <trkpt lat="42.80586" lon="1.41867">
        <ele>1423.85</ele>
        <time>2016-10-30T15:47:58Z</time>
      </trkpt>
      <trkpt lat="42.80586" lon="1.41862">
        <ele>1424.33</ele>
        <time>2016-10-30T15:48:01Z</time>
      </trkpt>
      <trkpt lat="42.80587" lon="1.41843">
        <ele>1425.77</ele>
        <time>2016-10-30T15:48:12Z</time>
      </trkpt>
      <trkpt lat="42.80587" lon="1.4183">
        <ele>1426.73</ele>
        <time>2016-10-30T15:48:20Z</time>
      </trkpt>
      <trkpt lat="42.80588" lon="1.41812">
        <ele>1428.18</ele>
        <time>2016-10-30T15:48:31Z</time>
      </trkpt>
      <trkpt lat="42.80589" lon="1.41794">
        <ele>1429.62</ele>
        <time>2016-10-30T15:48:41Z</time>
      </trkpt>
      <trkpt lat="42.80591" lon="1.41777">
        <ele>1430.58</ele>
        <time>2016-10-30T15:48:51Z</time>
      </trkpt>
      <trkpt lat="42.80591" lon="1.41772">
        <ele>1431.06</ele>
        <time>2016-10-30T15:48:54Z</time>
      </trkpt>
      <trkpt lat="42.80591" lon="1.4177">
        <ele>1431.06</ele>
        <time>2016-10-30T15:48:55Z</time>
      </trkpt>
      <trkpt lat="42.80591" lon="1.41769">
        <ele>1431.54</ele>
        <time>2016-10-30T15:48:56Z</time>
      </trkpt>
      <trkpt lat="42.80591" lon="1.41767">
        <ele>1431.54</ele>
        <time>2016-10-30T15:48:57Z</time>
      </trkpt>
      <trkpt lat="42.80591" lon="1.41765">
        <ele>1431.54</ele>
        <time>2016-10-30T15:48:58Z</time>
      </trkpt>
      <trkpt lat="42.80591" lon="1.41749">
        <ele>1433.46</ele>
        <time>2016-10-30T15:49:08Z</time>
      </trkpt>
      <trkpt lat="42.80592" lon="1.41747">
        <ele>1433.46</ele>
        <time>2016-10-30T15:49:09Z</time>
      </trkpt>
      <trkpt lat="42.80592" lon="1.41745">
        <ele>1433.46</ele>
        <time>2016-10-30T15:49:10Z</time>
      </trkpt>
      <trkpt lat="42.80592" lon="1.41743">
        <ele>1433.46</ele>
        <time>2016-10-30T15:49:11Z</time>
      </trkpt>
      <trkpt lat="42.80593" lon="1.41742">
        <ele>1433.94</ele>
        <time>2016-10-30T15:49:12Z</time>
      </trkpt>
      <trkpt lat="42.80593" lon="1.4174">
        <ele>1433.94</ele>
        <time>2016-10-30T15:49:13Z</time>
      </trkpt>
      <trkpt lat="42.80593" lon="1.41738">
        <ele>1433.94</ele>
        <time>2016-10-30T15:49:14Z</time>
      </trkpt>
      <trkpt lat="42.80593" lon="1.41737">
        <ele>1433.94</ele>
        <time>2016-10-30T15:49:15Z</time>
      </trkpt>
      <trkpt lat="42.80593" lon="1.41735">
        <ele>1433.94</ele>
        <time>2016-10-30T15:49:16Z</time>
      </trkpt>
      <trkpt lat="42.80593" lon="1.41733">
        <ele>1434.42</ele>
        <time>2016-10-30T15:49:17Z</time>
      </trkpt>
      <trkpt lat="42.80597" lon="1.41724">
        <ele>1434.42</ele>
        <time>2016-10-30T15:49:24Z</time>
      </trkpt>
      <trkpt lat="42.80597" lon="1.41723">
        <ele>1434.42</ele>
        <time>2016-10-30T15:49:25Z</time>
      </trkpt>
      <trkpt lat="42.80597" lon="1.41722">
        <ele>1434.91</ele>
        <time>2016-10-30T15:49:26Z</time>
      </trkpt>
      <trkpt lat="42.80596" lon="1.4172">
        <ele>1434.91</ele>
        <time>2016-10-30T15:49:27Z</time>
      </trkpt>
      <trkpt lat="42.80597" lon="1.41718">
        <ele>1434.91</ele>
        <time>2016-10-30T15:49:28Z</time>
      </trkpt>
      <trkpt lat="42.80597" lon="1.41717">
        <ele>1434.91</ele>
        <time>2016-10-30T15:49:29Z</time>
      </trkpt>
      <trkpt lat="42.80598" lon="1.41716">
        <ele>1434.91</ele>
        <time>2016-10-30T15:49:30Z</time>
      </trkpt>
      <trkpt lat="42.80599" lon="1.41715">
        <ele>1435.39</ele>
        <time>2016-10-30T15:49:31Z</time>
      </trkpt>
      <trkpt lat="42.80602" lon="1.41712">
        <ele>1435.39</ele>
        <time>2016-10-30T15:49:34Z</time>
      </trkpt>
      <trkpt lat="42.80604" lon="1.4171">
        <ele>1435.87</ele>
        <time>2016-10-30T15:49:37Z</time>
      </trkpt>
      <trkpt lat="42.80608" lon="1.41709">
        <ele>1437.31</ele>
        <time>2016-10-30T15:49:41Z</time>
      </trkpt>
      <trkpt lat="42.80614" lon="1.41708">
        <ele>1440.67</ele>
        <time>2016-10-30T15:49:48Z</time>
      </trkpt>
      <trkpt lat="42.80616" lon="1.41708">
        <ele>1442.11</ele>
        <time>2016-10-30T15:49:50Z</time>
      </trkpt>
      <trkpt lat="42.80619" lon="1.41711">
        <ele>1443.56</ele>
        <time>2016-10-30T15:49:54Z</time>
      </trkpt>
      <trkpt lat="42.80629" lon="1.41714">
        <ele>1443.56</ele>
        <time>2016-10-30T15:50:05Z</time>
      </trkpt>
      <trkpt lat="42.80634" lon="1.41714">
        <ele>1445</ele>
        <time>2016-10-30T15:50:17Z</time>
      </trkpt>
      <trkpt lat="42.80636" lon="1.41717">
        <ele>1447.88</ele>
        <time>2016-10-30T15:50:23Z</time>
      </trkpt>
      <trkpt lat="42.80639" lon="1.41718">
        <ele>1451.73</ele>
        <time>2016-10-30T15:50:28Z</time>
      </trkpt>
      <trkpt lat="42.80641" lon="1.41717">
        <ele>1452.21</ele>
        <time>2016-10-30T15:50:42Z</time>
      </trkpt>
      <trkpt lat="42.80646" lon="1.41717">
        <ele>1454.61</ele>
        <time>2016-10-30T15:50:54Z</time>
      </trkpt>
      <trkpt lat="42.80649" lon="1.4172">
        <ele>1457.5</ele>
        <time>2016-10-30T15:50:58Z</time>
      </trkpt>
      <trkpt lat="42.80654" lon="1.41719">
        <ele>1458.46</ele>
        <time>2016-10-30T15:51:00Z</time>
      </trkpt>
      <trkpt lat="42.80656" lon="1.4172">
        <ele>1458.94</ele>
        <time>2016-10-30T15:51:02Z</time>
      </trkpt>
      <trkpt lat="42.8066" lon="1.41725">
        <ele>1458.94</ele>
        <time>2016-10-30T15:51:06Z</time>
      </trkpt>
      <trkpt lat="42.80664" lon="1.4173">
        <ele>1458.94</ele>
        <time>2016-10-30T15:51:10Z</time>
      </trkpt>
      <trkpt lat="42.80668" lon="1.41736">
        <ele>1458.94</ele>
        <time>2016-10-30T15:51:15Z</time>
      </trkpt>
      <trkpt lat="42.8067" lon="1.4174">
        <ele>1458.94</ele>
        <time>2016-10-30T15:51:18Z</time>
      </trkpt>
      <trkpt lat="42.80673" lon="1.41745">
        <ele>1458.94</ele>
        <time>2016-10-30T15:51:23Z</time>
      </trkpt>
      <trkpt lat="42.80676" lon="1.41747">
        <ele>1458.94</ele>
        <time>2016-10-30T15:51:35Z</time>
      </trkpt>
      <trkpt lat="42.80677" lon="1.41747">
        <ele>1458.94</ele>
        <time>2016-10-30T15:51:50Z</time>
      </trkpt>
      <trkpt lat="42.80679" lon="1.41754">
        <ele>1458.94</ele>
        <time>2016-10-30T15:52:13Z</time>
      </trkpt>
      <trkpt lat="42.8068" lon="1.41759">
        <ele>1459.42</ele>
        <time>2016-10-30T15:52:17Z</time>
      </trkpt>
      <trkpt lat="42.80685" lon="1.41774">
        <ele>1459.9</ele>
        <time>2016-10-30T15:52:28Z</time>
      </trkpt>
      <trkpt lat="42.80688" lon="1.41782">
        <ele>1460.38</ele>
        <time>2016-10-30T15:52:34Z</time>
      </trkpt>
      <trkpt lat="42.8069" lon="1.41789">
        <ele>1460.86</ele>
        <time>2016-10-30T15:52:39Z</time>
      </trkpt>
      <trkpt lat="42.8069" lon="1.41792">
        <ele>1461.34</ele>
        <time>2016-10-30T15:52:41Z</time>
      </trkpt>
      <trkpt lat="42.80692" lon="1.41797">
        <ele>1461.82</ele>
        <time>2016-10-30T15:52:47Z</time>
      </trkpt>
      <trkpt lat="42.80692" lon="1.418">
        <ele>1461.82</ele>
        <time>2016-10-30T15:52:49Z</time>
      </trkpt>
      <trkpt lat="42.80695" lon="1.41806">
        <ele>1462.78</ele>
        <time>2016-10-30T15:52:54Z</time>
      </trkpt>
      <trkpt lat="42.80697" lon="1.41811">
        <ele>1463.26</ele>
        <time>2016-10-30T15:52:58Z</time>
      </trkpt>
      <trkpt lat="42.80697" lon="1.41816">
        <ele>1463.26</ele>
        <time>2016-10-30T15:53:01Z</time>
      </trkpt>
      <trkpt lat="42.80699" lon="1.41825">
        <ele>1463.74</ele>
        <time>2016-10-30T15:53:07Z</time>
      </trkpt>
      <trkpt lat="42.80699" lon="1.41828">
        <ele>1464.23</ele>
        <time>2016-10-30T15:53:09Z</time>
      </trkpt>
      <trkpt lat="42.80702" lon="1.41842">
        <ele>1464.71</ele>
        <time>2016-10-30T15:53:18Z</time>
      </trkpt>
      <trkpt lat="42.80703" lon="1.41851">
        <ele>1465.67</ele>
        <time>2016-10-30T15:53:26Z</time>
      </trkpt>
      <trkpt lat="42.80704" lon="1.41856">
        <ele>1466.15</ele>
        <time>2016-10-30T15:53:37Z</time>
      </trkpt>
      <trkpt lat="42.80704" lon="1.4186">
        <ele>1466.63</ele>
        <time>2016-10-30T15:53:39Z</time>
      </trkpt>
      <trkpt lat="42.80706" lon="1.41864">
        <ele>1466.63</ele>
        <time>2016-10-30T15:53:43Z</time>
      </trkpt>
      <trkpt lat="42.80707" lon="1.41876">
        <ele>1467.11</ele>
        <time>2016-10-30T15:53:50Z</time>
      </trkpt>
      <trkpt lat="42.80711" lon="1.41887">
        <ele>1467.59</ele>
        <time>2016-10-30T15:53:57Z</time>
      </trkpt>
      <trkpt lat="42.80713" lon="1.41898">
        <ele>1468.55</ele>
        <time>2016-10-30T15:54:03Z</time>
      </trkpt>
      <trkpt lat="42.80713" lon="1.41908">
        <ele>1469.03</ele>
        <time>2016-10-30T15:54:09Z</time>
      </trkpt>
      <trkpt lat="42.80716" lon="1.41922">
        <ele>1469.51</ele>
        <time>2016-10-30T15:54:17Z</time>
      </trkpt>
      <trkpt lat="42.80717" lon="1.41932">
        <ele>1469.99</ele>
        <time>2016-10-30T15:54:23Z</time>
      </trkpt>
      <trkpt lat="42.80717" lon="1.4194">
        <ele>1470.47</ele>
        <time>2016-10-30T15:54:27Z</time>
      </trkpt>
      <trkpt lat="42.80717" lon="1.41944">
        <ele>1470.47</ele>
        <time>2016-10-30T15:54:30Z</time>
      </trkpt>
      <trkpt lat="42.80718" lon="1.41955">
        <ele>1470.95</ele>
        <time>2016-10-30T15:54:37Z</time>
      </trkpt>
      <trkpt lat="42.80717" lon="1.41963">
        <ele>1471.92</ele>
        <time>2016-10-30T15:54:41Z</time>
      </trkpt>
      <trkpt lat="42.80715" lon="1.41972">
        <ele>1472.4</ele>
        <time>2016-10-30T15:54:47Z</time>
      </trkpt>
      <trkpt lat="42.80714" lon="1.41979">
        <ele>1472.4</ele>
        <time>2016-10-30T15:54:51Z</time>
      </trkpt>
      <trkpt lat="42.80713" lon="1.41985">
        <ele>1472.88</ele>
        <time>2016-10-30T15:54:55Z</time>
      </trkpt>
      <trkpt lat="42.80711" lon="1.42">
        <ele>1473.84</ele>
        <time>2016-10-30T15:55:05Z</time>
      </trkpt>
      <trkpt lat="42.80715" lon="1.42014">
        <ele>1474.32</ele>
        <time>2016-10-30T15:55:15Z</time>
      </trkpt>
      <trkpt lat="42.80719" lon="1.4202">
        <ele>1475.28</ele>
        <time>2016-10-30T15:55:30Z</time>
      </trkpt>
      <trkpt lat="42.80722" lon="1.4202">
        <ele>1475.28</ele>
        <time>2016-10-30T15:55:34Z</time>
      </trkpt>
      <trkpt lat="42.80728" lon="1.42006">
        <ele>1475.76</ele>
        <time>2016-10-30T15:55:44Z</time>
      </trkpt>
      <trkpt lat="42.8073" lon="1.41992">
        <ele>1476.24</ele>
        <time>2016-10-30T15:55:52Z</time>
      </trkpt>
      <trkpt lat="42.80731" lon="1.41985">
        <ele>1476.24</ele>
        <time>2016-10-30T15:55:56Z</time>
      </trkpt>
      <trkpt lat="42.80732" lon="1.41981">
        <ele>1476.72</ele>
        <time>2016-10-30T15:55:58Z</time>
      </trkpt>
      <trkpt lat="42.80732" lon="1.41977">
        <ele>1476.72</ele>
        <time>2016-10-30T15:56:01Z</time>
      </trkpt>
      <trkpt lat="42.80734" lon="1.41964">
        <ele>1477.68</ele>
        <time>2016-10-30T15:56:09Z</time>
      </trkpt>
      <trkpt lat="42.80734" lon="1.41944">
        <ele>1478.65</ele>
        <time>2016-10-30T15:56:21Z</time>
      </trkpt>
      <trkpt lat="42.80734" lon="1.41942">
        <ele>1478.65</ele>
        <time>2016-10-30T15:56:22Z</time>
      </trkpt>
      <trkpt lat="42.80733" lon="1.41935">
        <ele>1478.65</ele>
        <time>2016-10-30T15:56:26Z</time>
      </trkpt>
      <trkpt lat="42.80734" lon="1.41927">
        <ele>1479.13</ele>
        <time>2016-10-30T15:56:30Z</time>
      </trkpt>
      <trkpt lat="42.80733" lon="1.41922">
        <ele>1479.13</ele>
        <time>2016-10-30T15:56:33Z</time>
      </trkpt>
      <trkpt lat="42.80734" lon="1.41917">
        <ele>1479.13</ele>
        <time>2016-10-30T15:56:36Z</time>
      </trkpt>
      <trkpt lat="42.80734" lon="1.41902">
        <ele>1479.61</ele>
        <time>2016-10-30T15:56:44Z</time>
      </trkpt>
      <trkpt lat="42.80733" lon="1.41892">
        <ele>1480.09</ele>
        <time>2016-10-30T15:56:49Z</time>
      </trkpt>
      <trkpt lat="42.80734" lon="1.41868">
        <ele>1481.05</ele>
        <time>2016-10-30T15:57:02Z</time>
      </trkpt>
      <trkpt lat="42.80735" lon="1.41859">
        <ele>1481.05</ele>
        <time>2016-10-30T15:57:07Z</time>
      </trkpt>
      <trkpt lat="42.80735" lon="1.41851">
        <ele>1481.53</ele>
        <time>2016-10-30T15:57:11Z</time>
      </trkpt>
      <trkpt lat="42.80736" lon="1.41836">
        <ele>1482.01</ele>
        <time>2016-10-30T15:57:18Z</time>
      </trkpt>
      <trkpt lat="42.80736" lon="1.41816">
        <ele>1482.49</ele>
        <time>2016-10-30T15:57:28Z</time>
      </trkpt>
      <trkpt lat="42.80736" lon="1.4181">
        <ele>1482.97</ele>
        <time>2016-10-30T15:57:31Z</time>
      </trkpt>
      <trkpt lat="42.80737" lon="1.41799">
        <ele>1483.93</ele>
        <time>2016-10-30T15:57:38Z</time>
      </trkpt>
      <trkpt lat="42.80741" lon="1.41779">
        <ele>1484.89</ele>
        <time>2016-10-30T15:57:50Z</time>
      </trkpt>
      <trkpt lat="42.80743" lon="1.41757">
        <ele>1485.37</ele>
        <time>2016-10-30T15:58:03Z</time>
      </trkpt>
      <trkpt lat="42.80742" lon="1.41746">
        <ele>1485.85</ele>
        <time>2016-10-30T15:58:09Z</time>
      </trkpt>
      <trkpt lat="42.80743" lon="1.4173">
        <ele>1486.34</ele>
        <time>2016-10-30T15:58:19Z</time>
      </trkpt>
      <trkpt lat="42.80743" lon="1.41726">
        <ele>1486.82</ele>
        <time>2016-10-30T15:58:22Z</time>
      </trkpt>
      <trkpt lat="42.80737" lon="1.41702">
        <ele>1487.78</ele>
        <time>2016-10-30T15:58:35Z</time>
      </trkpt>
      <trkpt lat="42.80735" lon="1.41697">
        <ele>1487.78</ele>
        <time>2016-10-30T15:58:38Z</time>
      </trkpt>
      <trkpt lat="42.80731" lon="1.41687">
        <ele>1488.26</ele>
        <time>2016-10-30T15:58:45Z</time>
      </trkpt>
      <trkpt lat="42.80728" lon="1.41682">
        <ele>1488.26</ele>
        <time>2016-10-30T15:58:49Z</time>
      </trkpt>
      <trkpt lat="42.80718" lon="1.41665">
        <ele>1489.22</ele>
        <time>2016-10-30T15:59:02Z</time>
      </trkpt>
      <trkpt lat="42.80718" lon="1.41664">
        <ele>1490.18</ele>
        <time>2016-10-30T15:59:03Z</time>
      </trkpt>
      <trkpt lat="42.80715" lon="1.41654">
        <ele>1489.7</ele>
        <time>2016-10-30T15:59:09Z</time>
      </trkpt>
      <trkpt lat="42.80713" lon="1.41646">
        <ele>1490.66</ele>
        <time>2016-10-30T15:59:14Z</time>
      </trkpt>
      <trkpt lat="42.8071" lon="1.41632">
        <ele>1491.62</ele>
        <time>2016-10-30T15:59:22Z</time>
      </trkpt>
      <trkpt lat="42.80707" lon="1.41613">
        <ele>1492.1</ele>
        <time>2016-10-30T15:59:32Z</time>
      </trkpt>
      <trkpt lat="42.80709" lon="1.41605">
        <ele>1492.58</ele>
        <time>2016-10-30T15:59:36Z</time>
      </trkpt>
      <trkpt lat="42.80706" lon="1.41588">
        <ele>1493.06</ele>
        <time>2016-10-30T15:59:47Z</time>
      </trkpt>
      <trkpt lat="42.80706" lon="1.41582">
        <ele>1493.55</ele>
        <time>2016-10-30T15:59:52Z</time>
      </trkpt>
      <trkpt lat="42.80702" lon="1.41572">
        <ele>1494.03</ele>
        <time>2016-10-30T15:59:58Z</time>
      </trkpt>
      <trkpt lat="42.80699" lon="1.41553">
        <ele>1494.99</ele>
        <time>2016-10-30T16:00:09Z</time>
      </trkpt>
      <trkpt lat="42.80698" lon="1.41552">
        <ele>1494.99</ele>
        <time>2016-10-30T16:00:10Z</time>
      </trkpt>
      <trkpt lat="42.80689" lon="1.41535">
        <ele>1496.43</ele>
        <time>2016-10-30T16:00:22Z</time>
      </trkpt>
      <trkpt lat="42.80689" lon="1.41533">
        <ele>1496.43</ele>
        <time>2016-10-30T16:00:23Z</time>
      </trkpt>
      <trkpt lat="42.80685" lon="1.41524">
        <ele>1496.91</ele>
        <time>2016-10-30T16:00:29Z</time>
      </trkpt>
      <trkpt lat="42.80683" lon="1.41511">
        <ele>1497.39</ele>
        <time>2016-10-30T16:00:36Z</time>
      </trkpt>
      <trkpt lat="42.8068" lon="1.415">
        <ele>1497.87</ele>
        <time>2016-10-30T16:00:42Z</time>
      </trkpt>
      <trkpt lat="42.80678" lon="1.41495">
        <ele>1497.87</ele>
        <time>2016-10-30T16:00:45Z</time>
      </trkpt>
      <trkpt lat="42.80674" lon="1.41476">
        <ele>1498.35</ele>
        <time>2016-10-30T16:00:56Z</time>
      </trkpt>
      <trkpt lat="42.80671" lon="1.41463">
        <ele>1498.83</ele>
        <time>2016-10-30T16:01:04Z</time>
      </trkpt>
      <trkpt lat="42.80667" lon="1.41442">
        <ele>1499.79</ele>
        <time>2016-10-30T16:01:16Z</time>
      </trkpt>
      <trkpt lat="42.80666" lon="1.41439">
        <ele>1499.79</ele>
        <time>2016-10-30T16:01:18Z</time>
      </trkpt>
      <trkpt lat="42.80665" lon="1.41429">
        <ele>1499.79</ele>
        <time>2016-10-30T16:01:23Z</time>
      </trkpt>
      <trkpt lat="42.80665" lon="1.41425">
        <ele>1499.79</ele>
        <time>2016-10-30T16:01:25Z</time>
      </trkpt>
      <trkpt lat="42.80661" lon="1.41404">
        <ele>1501.24</ele>
        <time>2016-10-30T16:01:37Z</time>
      </trkpt>
      <trkpt lat="42.80662" lon="1.414">
        <ele>1501.24</ele>
        <time>2016-10-30T16:01:41Z</time>
      </trkpt>
      <trkpt lat="42.8066" lon="1.4139">
        <ele>1501.72</ele>
        <time>2016-10-30T16:01:47Z</time>
      </trkpt>
      <trkpt lat="42.80659" lon="1.41387">
        <ele>1502.2</ele>
        <time>2016-10-30T16:01:49Z</time>
      </trkpt>
      <trkpt lat="42.80657" lon="1.41381">
        <ele>1502.2</ele>
        <time>2016-10-30T16:01:52Z</time>
      </trkpt>
      <trkpt lat="42.80657" lon="1.41377">
        <ele>1502.2</ele>
        <time>2016-10-30T16:01:54Z</time>
      </trkpt>
      <trkpt lat="42.80657" lon="1.41375">
        <ele>1502.68</ele>
        <time>2016-10-30T16:01:55Z</time>
      </trkpt>
      <trkpt lat="42.80656" lon="1.41373">
        <ele>1502.68</ele>
        <time>2016-10-30T16:01:56Z</time>
      </trkpt>
      <trkpt lat="42.80656" lon="1.41372">
        <ele>1502.68</ele>
        <time>2016-10-30T16:01:57Z</time>
      </trkpt>
      <trkpt lat="42.80655" lon="1.41363">
        <ele>1503.16</ele>
        <time>2016-10-30T16:02:02Z</time>
      </trkpt>
      <trkpt lat="42.80655" lon="1.41358">
        <ele>1503.16</ele>
        <time>2016-10-30T16:02:06Z</time>
      </trkpt>
      <trkpt lat="42.80654" lon="1.41356">
        <ele>1503.64</ele>
        <time>2016-10-30T16:02:07Z</time>
      </trkpt>
      <trkpt lat="42.80654" lon="1.41354">
        <ele>1503.64</ele>
        <time>2016-10-30T16:02:08Z</time>
      </trkpt>
      <trkpt lat="42.80654" lon="1.41353">
        <ele>1503.64</ele>
        <time>2016-10-30T16:02:09Z</time>
      </trkpt>
      <trkpt lat="42.80654" lon="1.41351">
        <ele>1503.64</ele>
        <time>2016-10-30T16:02:10Z</time>
      </trkpt>
      <trkpt lat="42.80654" lon="1.41348">
        <ele>1503.64</ele>
        <time>2016-10-30T16:02:11Z</time>
      </trkpt>
      <trkpt lat="42.80653" lon="1.41346">
        <ele>1503.64</ele>
        <time>2016-10-30T16:02:12Z</time>
      </trkpt>
      <trkpt lat="42.80652" lon="1.41337">
        <ele>1505.08</ele>
        <time>2016-10-30T16:02:18Z</time>
      </trkpt>
      <trkpt lat="42.80651" lon="1.41335">
        <ele>1505.08</ele>
        <time>2016-10-30T16:02:19Z</time>
      </trkpt>
      <trkpt lat="42.80651" lon="1.41333">
        <ele>1505.08</ele>
        <time>2016-10-30T16:02:20Z</time>
      </trkpt>
      <trkpt lat="42.80651" lon="1.41332">
        <ele>1505.08</ele>
        <time>2016-10-30T16:02:21Z</time>
      </trkpt>
      <trkpt lat="42.8065" lon="1.4133">
        <ele>1505.08</ele>
        <time>2016-10-30T16:02:22Z</time>
      </trkpt>
      <trkpt lat="42.8065" lon="1.41328">
        <ele>1505.56</ele>
        <time>2016-10-30T16:02:23Z</time>
      </trkpt>
      <trkpt lat="42.80649" lon="1.41327">
        <ele>1505.56</ele>
        <time>2016-10-30T16:02:24Z</time>
      </trkpt>
      <trkpt lat="42.80649" lon="1.41325">
        <ele>1505.56</ele>
        <time>2016-10-30T16:02:25Z</time>
      </trkpt>
      <trkpt lat="42.80649" lon="1.41323">
        <ele>1505.56</ele>
        <time>2016-10-30T16:02:26Z</time>
      </trkpt>
      <trkpt lat="42.80649" lon="1.4132">
        <ele>1505.56</ele>
        <time>2016-10-30T16:02:27Z</time>
      </trkpt>
      <trkpt lat="42.80647" lon="1.4131">
        <ele>1506.04</ele>
        <time>2016-10-30T16:02:33Z</time>
      </trkpt>
      <trkpt lat="42.80647" lon="1.41308">
        <ele>1506.04</ele>
        <time>2016-10-30T16:02:34Z</time>
      </trkpt>
      <trkpt lat="42.80647" lon="1.41306">
        <ele>1506.04</ele>
        <time>2016-10-30T16:02:35Z</time>
      </trkpt>
      <trkpt lat="42.80647" lon="1.41304">
        <ele>1506.04</ele>
        <time>2016-10-30T16:02:36Z</time>
      </trkpt>
      <trkpt lat="42.80646" lon="1.41303">
        <ele>1506.52</ele>
        <time>2016-10-30T16:02:37Z</time>
      </trkpt>
      <trkpt lat="42.80646" lon="1.41301">
        <ele>1506.52</ele>
        <time>2016-10-30T16:02:38Z</time>
      </trkpt>
      <trkpt lat="42.80645" lon="1.413">
        <ele>1506.52</ele>
        <time>2016-10-30T16:02:39Z</time>
      </trkpt>
      <trkpt lat="42.80645" lon="1.41298">
        <ele>1506.52</ele>
        <time>2016-10-30T16:02:40Z</time>
      </trkpt>
      <trkpt lat="42.80643" lon="1.41287">
        <ele>1507</ele>
        <time>2016-10-30T16:02:47Z</time>
      </trkpt>
      <trkpt lat="42.80643" lon="1.41285">
        <ele>1507</ele>
        <time>2016-10-30T16:02:48Z</time>
      </trkpt>
      <trkpt lat="42.80642" lon="1.41283">
        <ele>1507</ele>
        <time>2016-10-30T16:02:49Z</time>
      </trkpt>
      <trkpt lat="42.8064" lon="1.41273">
        <ele>1507.48</ele>
        <time>2016-10-30T16:02:55Z</time>
      </trkpt>
      <trkpt lat="42.80639" lon="1.41266">
        <ele>1507.48</ele>
        <time>2016-10-30T16:02:59Z</time>
      </trkpt>
      <trkpt lat="42.80639" lon="1.41264">
        <ele>1507.48</ele>
        <time>2016-10-30T16:03:00Z</time>
      </trkpt>
      <trkpt lat="42.80638" lon="1.41252">
        <ele>1508.45</ele>
        <time>2016-10-30T16:03:07Z</time>
      </trkpt>
      <trkpt lat="42.80638" lon="1.41249">
        <ele>1508.45</ele>
        <time>2016-10-30T16:03:09Z</time>
      </trkpt>
      <trkpt lat="42.80638" lon="1.4124">
        <ele>1508.93</ele>
        <time>2016-10-30T16:03:14Z</time>
      </trkpt>
      <trkpt lat="42.80638" lon="1.41238">
        <ele>1508.93</ele>
        <time>2016-10-30T16:03:15Z</time>
      </trkpt>
      <trkpt lat="42.80637" lon="1.41224">
        <ele>1509.89</ele>
        <time>2016-10-30T16:03:22Z</time>
      </trkpt>
      <trkpt lat="42.80637" lon="1.41222">
        <ele>1509.89</ele>
        <time>2016-10-30T16:03:23Z</time>
      </trkpt>
      <trkpt lat="42.80637" lon="1.4122">
        <ele>1509.89</ele>
        <time>2016-10-30T16:03:24Z</time>
      </trkpt>
      <trkpt lat="42.80638" lon="1.41218">
        <ele>1509.89</ele>
        <time>2016-10-30T16:03:25Z</time>
      </trkpt>
      <trkpt lat="42.80638" lon="1.41217">
        <ele>1510.37</ele>
        <time>2016-10-30T16:03:26Z</time>
      </trkpt>
      <trkpt lat="42.80639" lon="1.412">
        <ele>1510.85</ele>
        <time>2016-10-30T16:03:36Z</time>
      </trkpt>
      <trkpt lat="42.8064" lon="1.41179">
        <ele>1511.33</ele>
        <time>2016-10-30T16:03:48Z</time>
      </trkpt>
      <trkpt lat="42.80639" lon="1.41174">
        <ele>1511.33</ele>
        <time>2016-10-30T16:03:51Z</time>
      </trkpt>
      <trkpt lat="42.80639" lon="1.41172">
        <ele>1511.33</ele>
        <time>2016-10-30T16:03:52Z</time>
      </trkpt>
      <trkpt lat="42.80638" lon="1.41171">
        <ele>1511.33</ele>
        <time>2016-10-30T16:03:53Z</time>
      </trkpt>
      <trkpt lat="42.80638" lon="1.41169">
        <ele>1511.33</ele>
        <time>2016-10-30T16:03:54Z</time>
      </trkpt>
      <trkpt lat="42.80639" lon="1.41159">
        <ele>1511.33</ele>
        <time>2016-10-30T16:04:02Z</time>
      </trkpt>
      <trkpt lat="42.8064" lon="1.41156">
        <ele>1511.81</ele>
        <time>2016-10-30T16:04:14Z</time>
      </trkpt>
      <trkpt lat="42.80638" lon="1.41152">
        <ele>1511.81</ele>
        <time>2016-10-30T16:04:26Z</time>
      </trkpt>
      <trkpt lat="42.80639" lon="1.41152">
        <ele>1511.81</ele>
        <time>2016-10-30T16:04:39Z</time>
      </trkpt>
      <trkpt lat="42.80639" lon="1.41151">
        <ele>1511.81</ele>
        <time>2016-10-30T16:04:44Z</time>
      </trkpt>
    </trkseg>
  </trk>
  <trk>
    <name><![CDATA[Tracé actuel: 31 OCT 2016 09:41]]></name>
    <trkseg>
      <trkpt lat="42.84029" lon="1.48559">
        <ele>1027.79</ele>
        <time>2016-10-31T08:41:19Z</time>
      </trkpt>
      <trkpt lat="42.84029" lon="1.48559">
        <ele>1027.79</ele>
        <time>2016-10-31T08:41:20Z</time>
      </trkpt>
    </trkseg>
  </trk>
  <trk>
    <name><![CDATA[Tracé actuel: 31 OCT 2016 09:41]]></name>
    <trkseg>
      <trkpt lat="42.84031" lon="1.48555">
        <ele>1027.79</ele>
        <time>2016-10-31T08:41:24Z</time>
      </trkpt>
      <trkpt lat="42.84027" lon="1.48537">
        <ele>1027.79</ele>
        <time>2016-10-31T08:41:51Z</time>
      </trkpt>
      <trkpt lat="42.84036" lon="1.48528">
        <ele>1026.83</ele>
        <time>2016-10-31T08:42:06Z</time>
      </trkpt>
      <trkpt lat="42.84034" lon="1.48523">
        <ele>1026.83</ele>
        <time>2016-10-31T08:42:20Z</time>
      </trkpt>
      <trkpt lat="42.84034" lon="1.48517">
        <ele>1026.83</ele>
        <time>2016-10-31T08:42:33Z</time>
      </trkpt>
      <trkpt lat="42.84035" lon="1.48517">
        <ele>1026.83</ele>
        <time>2016-10-31T08:42:46Z</time>
      </trkpt>
      <trkpt lat="42.84036" lon="1.48518">
        <ele>1026.83</ele>
        <time>2016-10-31T08:43:06Z</time>
      </trkpt>
      <trkpt lat="42.84036" lon="1.48519">
        <ele>1026.83</ele>
        <time>2016-10-31T08:43:23Z</time>
      </trkpt>
      <trkpt lat="42.84037" lon="1.4852">
        <ele>1026.83</ele>
        <time>2016-10-31T08:43:42Z</time>
      </trkpt>
      <trkpt lat="42.84037" lon="1.4852">
        <ele>1026.83</ele>
        <time>2016-10-31T08:43:51Z</time>
      </trkpt>
      <trkpt lat="42.84035" lon="1.48516">
        <ele>1026.83</ele>
        <time>2016-10-31T08:43:55Z</time>
      </trkpt>
      <trkpt lat="42.84034" lon="1.48512">
        <ele>1026.83</ele>
        <time>2016-10-31T08:43:58Z</time>
      </trkpt>
      <trkpt lat="42.84033" lon="1.48501">
        <ele>1027.79</ele>
        <time>2016-10-31T08:44:11Z</time>
      </trkpt>
      <trkpt lat="42.84031" lon="1.48491">
        <ele>1028.75</ele>
        <time>2016-10-31T08:44:21Z</time>
      </trkpt>
      <trkpt lat="42.84031" lon="1.48476">
        <ele>1031.15</ele>
        <time>2016-10-31T08:44:32Z</time>
      </trkpt>
      <trkpt lat="42.84026" lon="1.48465">
        <ele>1032.11</ele>
        <time>2016-10-31T08:44:42Z</time>
      </trkpt>
      <trkpt lat="42.84018" lon="1.48451">
        <ele>1033.07</ele>
        <time>2016-10-31T08:44:51Z</time>
      </trkpt>
      <trkpt lat="42.84014" lon="1.48434">
        <ele>1034.04</ele>
        <time>2016-10-31T08:45:01Z</time>
      </trkpt>
      <trkpt lat="42.84011" lon="1.4843">
        <ele>1034.04</ele>
        <time>2016-10-31T08:45:04Z</time>
      </trkpt>
      <trkpt lat="42.84009" lon="1.48424">
        <ele>1034.52</ele>
        <time>2016-10-31T08:45:09Z</time>
      </trkpt>
      <trkpt lat="42.84007" lon="1.4841">
        <ele>1035</ele>
        <time>2016-10-31T08:45:18Z</time>
      </trkpt>
      <trkpt lat="42.84003" lon="1.48396">
        <ele>1035.96</ele>
        <time>2016-10-31T08:45:28Z</time>
      </trkpt>
      <trkpt lat="42.84001" lon="1.4838">
        <ele>1035.96</ele>
        <time>2016-10-31T08:45:38Z</time>
      </trkpt>
      <trkpt lat="42.84001" lon="1.48378">
        <ele>1036.44</ele>
        <time>2016-10-31T08:45:39Z</time>
      </trkpt>
      <trkpt lat="42.84" lon="1.48359">
        <ele>1036.92</ele>
        <time>2016-10-31T08:45:50Z</time>
      </trkpt>
      <trkpt lat="42.83997" lon="1.4834">
        <ele>1037.4</ele>
        <time>2016-10-31T08:46:01Z</time>
      </trkpt>
      <trkpt lat="42.83995" lon="1.48332">
        <ele>1037.4</ele>
        <time>2016-10-31T08:46:05Z</time>
      </trkpt>
      <trkpt lat="42.83987" lon="1.48313">
        <ele>1038.84</ele>
        <time>2016-10-31T08:46:17Z</time>
      </trkpt>
      <trkpt lat="42.83981" lon="1.48296">
        <ele>1039.32</ele>
        <time>2016-10-31T08:46:26Z</time>
      </trkpt>
      <trkpt lat="42.83975" lon="1.48275">
        <ele>1039.32</ele>
        <time>2016-10-31T08:46:38Z</time>
      </trkpt>
      <trkpt lat="42.83972" lon="1.48247">
        <ele>1039.8</ele>
        <time>2016-10-31T08:46:51Z</time>
      </trkpt>
      <trkpt lat="42.83972" lon="1.48245">
        <ele>1039.8</ele>
        <time>2016-10-31T08:46:52Z</time>
      </trkpt>
      <trkpt lat="42.83972" lon="1.48236">
        <ele>1039.8</ele>
        <time>2016-10-31T08:46:58Z</time>
      </trkpt>
      <trkpt lat="42.83972" lon="1.4823">
        <ele>1040.28</ele>
        <time>2016-10-31T08:47:02Z</time>
      </trkpt>
      <trkpt lat="42.83973" lon="1.48219">
        <ele>1040.76</ele>
        <time>2016-10-31T08:47:13Z</time>
      </trkpt>
      <trkpt lat="42.83972" lon="1.48216">
        <ele>1040.76</ele>
        <time>2016-10-31T08:47:25Z</time>
      </trkpt>
      <trkpt lat="42.83975" lon="1.48214">
        <ele>1040.76</ele>
        <time>2016-10-31T08:47:41Z</time>
      </trkpt>
      <trkpt lat="42.83976" lon="1.48212">
        <ele>1040.76</ele>
        <time>2016-10-31T08:47:43Z</time>
      </trkpt>
      <trkpt lat="42.83974" lon="1.48189">
        <ele>1040.76</ele>
        <time>2016-10-31T08:47:57Z</time>
      </trkpt>
      <trkpt lat="42.83972" lon="1.48167">
        <ele>1041.25</ele>
        <time>2016-10-31T08:48:09Z</time>
      </trkpt>
      <trkpt lat="42.83968" lon="1.4815">
        <ele>1042.21</ele>
        <time>2016-10-31T08:48:18Z</time>
      </trkpt>
      <trkpt lat="42.83965" lon="1.48134">
        <ele>1042.69</ele>
        <time>2016-10-31T08:48:25Z</time>
      </trkpt>
      <trkpt lat="42.83965" lon="1.48132">
        <ele>1042.69</ele>
        <time>2016-10-31T08:48:26Z</time>
      </trkpt>
      <trkpt lat="42.83964" lon="1.4813">
        <ele>1042.69</ele>
        <time>2016-10-31T08:48:27Z</time>
      </trkpt>
      <trkpt lat="42.83964" lon="1.48129">
        <ele>1042.69</ele>
        <time>2016-10-31T08:48:28Z</time>
      </trkpt>
      <trkpt lat="42.83963" lon="1.48127">
        <ele>1042.69</ele>
        <time>2016-10-31T08:48:29Z</time>
      </trkpt>
      <trkpt lat="42.83963" lon="1.48125">
        <ele>1042.69</ele>
        <time>2016-10-31T08:48:30Z</time>
      </trkpt>
      <trkpt lat="42.83962" lon="1.48124">
        <ele>1042.69</ele>
        <time>2016-10-31T08:48:31Z</time>
      </trkpt>
      <trkpt lat="42.83962" lon="1.48121">
        <ele>1043.17</ele>
        <time>2016-10-31T08:48:32Z</time>
      </trkpt>
      <trkpt lat="42.83961" lon="1.48119">
        <ele>1043.17</ele>
        <time>2016-10-31T08:48:33Z</time>
      </trkpt>
      <trkpt lat="42.83958" lon="1.4811">
        <ele>1043.65</ele>
        <time>2016-10-31T08:48:38Z</time>
      </trkpt>
      <trkpt lat="42.83958" lon="1.48108">
        <ele>1043.65</ele>
        <time>2016-10-31T08:48:39Z</time>
      </trkpt>
      <trkpt lat="42.83955" lon="1.48089">
        <ele>1044.61</ele>
        <time>2016-10-31T08:48:49Z</time>
      </trkpt>
      <trkpt lat="42.83955" lon="1.48069">
        <ele>1045.09</ele>
        <time>2016-10-31T08:48:59Z</time>
      </trkpt>
      <trkpt lat="42.83955" lon="1.48067">
        <ele>1045.09</ele>
        <time>2016-10-31T08:49:00Z</time>
      </trkpt>
      <trkpt lat="42.83955" lon="1.48065">
        <ele>1046.05</ele>
        <time>2016-10-31T08:49:01Z</time>
      </trkpt>
      <trkpt lat="42.83954" lon="1.48063">
        <ele>1046.05</ele>
        <time>2016-10-31T08:49:02Z</time>
      </trkpt>
      <trkpt lat="42.83953" lon="1.48061">
        <ele>1046.05</ele>
        <time>2016-10-31T08:49:03Z</time>
      </trkpt>
      <trkpt lat="42.83953" lon="1.48059">
        <ele>1046.05</ele>
        <time>2016-10-31T08:49:04Z</time>
      </trkpt>
      <trkpt lat="42.83953" lon="1.48058">
        <ele>1046.05</ele>
        <time>2016-10-31T08:49:05Z</time>
      </trkpt>
      <trkpt lat="42.83952" lon="1.48056">
        <ele>1046.05</ele>
        <time>2016-10-31T08:49:06Z</time>
      </trkpt>
      <trkpt lat="42.83952" lon="1.48054">
        <ele>1046.05</ele>
        <time>2016-10-31T08:49:07Z</time>
      </trkpt>
      <trkpt lat="42.83952" lon="1.48052">
        <ele>1046.53</ele>
        <time>2016-10-31T08:49:08Z</time>
      </trkpt>
      <trkpt lat="42.83952" lon="1.48029">
        <ele>1047.01</ele>
        <time>2016-10-31T08:49:20Z</time>
      </trkpt>
      <trkpt lat="42.83954" lon="1.48016">
        <ele>1047.49</ele>
        <time>2016-10-31T08:49:27Z</time>
      </trkpt>
      <trkpt lat="42.83955" lon="1.48014">
        <ele>1047.49</ele>
        <time>2016-10-31T08:49:28Z</time>
      </trkpt>
      <trkpt lat="42.83955" lon="1.48013">
        <ele>1047.49</ele>
        <time>2016-10-31T08:49:29Z</time>
      </trkpt>
      <trkpt lat="42.83955" lon="1.48001">
        <ele>1048.45</ele>
        <time>2016-10-31T08:49:38Z</time>
      </trkpt>
      <trkpt lat="42.83955" lon="1.47999">
        <ele>1048.45</ele>
        <time>2016-10-31T08:49:39Z</time>
      </trkpt>
      <trkpt lat="42.83956" lon="1.47996">
        <ele>1048.45</ele>
        <time>2016-10-31T08:49:40Z</time>
      </trkpt>
      <trkpt lat="42.83956" lon="1.47993">
        <ele>1048.45</ele>
        <time>2016-10-31T08:49:41Z</time>
      </trkpt>
      <trkpt lat="42.83953" lon="1.47981">
        <ele>1048.94</ele>
        <time>2016-10-31T08:49:51Z</time>
      </trkpt>
      <trkpt lat="42.83949" lon="1.47966">
        <ele>1050.38</ele>
        <time>2016-10-31T08:49:59Z</time>
      </trkpt>
      <trkpt lat="42.83948" lon="1.47965">
        <ele>1050.38</ele>
        <time>2016-10-31T08:50:00Z</time>
      </trkpt>
      <trkpt lat="42.83947" lon="1.47964">
        <ele>1050.38</ele>
        <time>2016-10-31T08:50:01Z</time>
      </trkpt>
      <trkpt lat="42.83944" lon="1.47957">
        <ele>1050.86</ele>
        <time>2016-10-31T08:50:06Z</time>
      </trkpt>
      <trkpt lat="42.8394" lon="1.47943">
        <ele>1052.3</ele>
        <time>2016-10-31T08:50:15Z</time>
      </trkpt>
      <trkpt lat="42.83938" lon="1.47937">
        <ele>1052.78</ele>
        <time>2016-10-31T08:50:19Z</time>
      </trkpt>
      <trkpt lat="42.83937" lon="1.47935">
        <ele>1052.78</ele>
        <time>2016-10-31T08:50:22Z</time>
      </trkpt>
      <trkpt lat="42.83936" lon="1.47923">
        <ele>1054.22</ele>
        <time>2016-10-31T08:50:30Z</time>
      </trkpt>
      <trkpt lat="42.83936" lon="1.47916">
        <ele>1054.7</ele>
        <time>2016-10-31T08:50:34Z</time>
      </trkpt>
      <trkpt lat="42.83936" lon="1.47913">
        <ele>1055.18</ele>
        <time>2016-10-31T08:50:36Z</time>
      </trkpt>
      <trkpt lat="42.83936" lon="1.47911">
        <ele>1055.18</ele>
        <time>2016-10-31T08:50:37Z</time>
      </trkpt>
      <trkpt lat="42.83933" lon="1.47898">
        <ele>1056.15</ele>
        <time>2016-10-31T08:50:46Z</time>
      </trkpt>
      <trkpt lat="42.8393" lon="1.47889">
        <ele>1057.11</ele>
        <time>2016-10-31T08:50:52Z</time>
      </trkpt>
      <trkpt lat="42.83929" lon="1.47887">
        <ele>1057.59</ele>
        <time>2016-10-31T08:50:53Z</time>
      </trkpt>
      <trkpt lat="42.83929" lon="1.47885">
        <ele>1058.07</ele>
        <time>2016-10-31T08:50:54Z</time>
      </trkpt>
      <trkpt lat="42.83923" lon="1.47873">
        <ele>1059.03</ele>
        <time>2016-10-31T08:51:03Z</time>
      </trkpt>
      <trkpt lat="42.8392" lon="1.47867">
        <ele>1059.51</ele>
        <time>2016-10-31T08:51:08Z</time>
      </trkpt>
      <trkpt lat="42.83919" lon="1.47865">
        <ele>1059.99</ele>
        <time>2016-10-31T08:51:09Z</time>
      </trkpt>
      <trkpt lat="42.83917" lon="1.47863">
        <ele>1059.99</ele>
        <time>2016-10-31T08:51:11Z</time>
      </trkpt>
      <trkpt lat="42.83916" lon="1.47862">
        <ele>1059.99</ele>
        <time>2016-10-31T08:51:12Z</time>
      </trkpt>
      <trkpt lat="42.83914" lon="1.47859">
        <ele>1060.95</ele>
        <time>2016-10-31T08:51:16Z</time>
      </trkpt>
      <trkpt lat="42.83914" lon="1.47858">
        <ele>1060.95</ele>
        <time>2016-10-31T08:51:17Z</time>
      </trkpt>
      <trkpt lat="42.83913" lon="1.47856">
        <ele>1061.43</ele>
        <time>2016-10-31T08:51:18Z</time>
      </trkpt>
      <trkpt lat="42.83907" lon="1.47847">
        <ele>1062.39</ele>
        <time>2016-10-31T08:51:29Z</time>
      </trkpt>
      <trkpt lat="42.83904" lon="1.47834">
        <ele>1063.36</ele>
        <time>2016-10-31T08:51:38Z</time>
      </trkpt>
      <trkpt lat="42.83901" lon="1.47819">
        <ele>1063.84</ele>
        <time>2016-10-31T08:51:47Z</time>
      </trkpt>
      <trkpt lat="42.83897" lon="1.478">
        <ele>1064.8</ele>
        <time>2016-10-31T08:51:57Z</time>
      </trkpt>
      <trkpt lat="42.83895" lon="1.47786">
        <ele>1065.76</ele>
        <time>2016-10-31T08:52:05Z</time>
      </trkpt>
      <trkpt lat="42.83895" lon="1.47785">
        <ele>1065.76</ele>
        <time>2016-10-31T08:52:06Z</time>
      </trkpt>
      <trkpt lat="42.83894" lon="1.47783">
        <ele>1066.24</ele>
        <time>2016-10-31T08:52:07Z</time>
      </trkpt>
      <trkpt lat="42.83894" lon="1.47781">
        <ele>1066.24</ele>
        <time>2016-10-31T08:52:08Z</time>
      </trkpt>
      <trkpt lat="42.83894" lon="1.47779">
        <ele>1066.24</ele>
        <time>2016-10-31T08:52:09Z</time>
      </trkpt>
      <trkpt lat="42.83894" lon="1.47764">
        <ele>1066.72</ele>
        <time>2016-10-31T08:52:19Z</time>
      </trkpt>
      <trkpt lat="42.83894" lon="1.47747">
        <ele>1067.2</ele>
        <time>2016-10-31T08:52:29Z</time>
      </trkpt>
      <trkpt lat="42.83894" lon="1.47745">
        <ele>1067.2</ele>
        <time>2016-10-31T08:52:30Z</time>
      </trkpt>
      <trkpt lat="42.83895" lon="1.47742">
        <ele>1067.68</ele>
        <time>2016-10-31T08:52:32Z</time>
      </trkpt>
      <trkpt lat="42.83895" lon="1.4774">
        <ele>1067.68</ele>
        <time>2016-10-31T08:52:33Z</time>
      </trkpt>
      <trkpt lat="42.83896" lon="1.47737">
        <ele>1067.68</ele>
        <time>2016-10-31T08:52:35Z</time>
      </trkpt>
      <trkpt lat="42.83899" lon="1.47713">
        <ele>1068.16</ele>
        <time>2016-10-31T08:52:48Z</time>
      </trkpt>
      <trkpt lat="42.83899" lon="1.47712">
        <ele>1068.16</ele>
        <time>2016-10-31T08:52:49Z</time>
      </trkpt>
      <trkpt lat="42.839" lon="1.4771">
        <ele>1068.16</ele>
        <time>2016-10-31T08:52:50Z</time>
      </trkpt>
      <trkpt lat="42.839" lon="1.47708">
        <ele>1068.16</ele>
        <time>2016-10-31T08:52:51Z</time>
      </trkpt>
      <trkpt lat="42.839" lon="1.47706">
        <ele>1068.16</ele>
        <time>2016-10-31T08:52:52Z</time>
      </trkpt>
      <trkpt lat="42.83901" lon="1.47704">
        <ele>1068.16</ele>
        <time>2016-10-31T08:52:53Z</time>
      </trkpt>
      <trkpt lat="42.83901" lon="1.47702">
        <ele>1068.16</ele>
        <time>2016-10-31T08:52:54Z</time>
      </trkpt>
      <trkpt lat="42.839" lon="1.47701">
        <ele>1068.16</ele>
        <time>2016-10-31T08:52:55Z</time>
      </trkpt>
      <trkpt lat="42.839" lon="1.47699">
        <ele>1068.16</ele>
        <time>2016-10-31T08:52:56Z</time>
      </trkpt>
      <trkpt lat="42.839" lon="1.47697">
        <ele>1068.16</ele>
        <time>2016-10-31T08:52:57Z</time>
      </trkpt>
      <trkpt lat="42.83901" lon="1.47696">
        <ele>1068.16</ele>
        <time>2016-10-31T08:52:58Z</time>
      </trkpt>
      <trkpt lat="42.83901" lon="1.47694">
        <ele>1068.16</ele>
        <time>2016-10-31T08:52:59Z</time>
      </trkpt>
      <trkpt lat="42.83901" lon="1.47692">
        <ele>1068.16</ele>
        <time>2016-10-31T08:53:00Z</time>
      </trkpt>
      <trkpt lat="42.83901" lon="1.47669">
        <ele>1068.16</ele>
        <time>2016-10-31T08:53:13Z</time>
      </trkpt>
      <trkpt lat="42.839" lon="1.47662">
        <ele>1068.16</ele>
        <time>2016-10-31T08:53:18Z</time>
      </trkpt>
      <trkpt lat="42.839" lon="1.4766">
        <ele>1068.16</ele>
        <time>2016-10-31T08:53:19Z</time>
      </trkpt>
      <trkpt lat="42.839" lon="1.47648">
        <ele>1068.16</ele>
        <time>2016-10-31T08:53:27Z</time>
      </trkpt>
      <trkpt lat="42.839" lon="1.47647">
        <ele>1068.16</ele>
        <time>2016-10-31T08:53:28Z</time>
      </trkpt>
      <trkpt lat="42.839" lon="1.47645">
        <ele>1068.16</ele>
        <time>2016-10-31T08:53:29Z</time>
      </trkpt>
      <trkpt lat="42.839" lon="1.47643">
        <ele>1068.16</ele>
        <time>2016-10-31T08:53:30Z</time>
      </trkpt>
      <trkpt lat="42.839" lon="1.47629">
        <ele>1068.16</ele>
        <time>2016-10-31T08:53:38Z</time>
      </trkpt>
      <trkpt lat="42.839" lon="1.47627">
        <ele>1068.16</ele>
        <time>2016-10-31T08:53:39Z</time>
      </trkpt>
      <trkpt lat="42.839" lon="1.47625">
        <ele>1068.16</ele>
        <time>2016-10-31T08:53:40Z</time>
      </trkpt>
      <trkpt lat="42.839" lon="1.47623">
        <ele>1068.16</ele>
        <time>2016-10-31T08:53:41Z</time>
      </trkpt>
      <trkpt lat="42.83899" lon="1.47622">
        <ele>1068.16</ele>
        <time>2016-10-31T08:53:42Z</time>
      </trkpt>
      <trkpt lat="42.83896" lon="1.4761">
        <ele>1068.16</ele>
        <time>2016-10-31T08:53:51Z</time>
      </trkpt>
      <trkpt lat="42.83896" lon="1.47607">
        <ele>1068.16</ele>
        <time>2016-10-31T08:53:52Z</time>
      </trkpt>
      <trkpt lat="42.83896" lon="1.47605">
        <ele>1068.16</ele>
        <time>2016-10-31T08:53:53Z</time>
      </trkpt>
      <trkpt lat="42.83887" lon="1.47592">
        <ele>1068.16</ele>
        <time>2016-10-31T08:54:05Z</time>
      </trkpt>
      <trkpt lat="42.83887" lon="1.47591">
        <ele>1068.16</ele>
        <time>2016-10-31T08:54:17Z</time>
      </trkpt>
      <trkpt lat="42.83887" lon="1.47592">
        <ele>1068.16</ele>
        <time>2016-10-31T08:54:34Z</time>
      </trkpt>
      <trkpt lat="42.83886" lon="1.47593">
        <ele>1068.16</ele>
        <time>2016-10-31T08:54:51Z</time>
      </trkpt>
      <trkpt lat="42.83885" lon="1.47593">
        <ele>1068.16</ele>
        <time>2016-10-31T08:55:06Z</time>
      </trkpt>
      <trkpt lat="42.83884" lon="1.47592">
        <ele>1068.16</ele>
        <time>2016-10-31T08:55:29Z</time>
      </trkpt>
      <trkpt lat="42.83884" lon="1.47592">
        <ele>1068.64</ele>
        <time>2016-10-31T08:55:42Z</time>
      </trkpt>
      <trkpt lat="42.83883" lon="1.47592">
        <ele>1068.64</ele>
        <time>2016-10-31T08:56:00Z</time>
      </trkpt>
      <trkpt lat="42.83883" lon="1.47591">
        <ele>1068.64</ele>
        <time>2016-10-31T08:56:17Z</time>
      </trkpt>
      <trkpt lat="42.83884" lon="1.47589">
        <ele>1068.64</ele>
        <time>2016-10-31T08:56:36Z</time>
      </trkpt>
      <trkpt lat="42.83884" lon="1.4759">
        <ele>1068.64</ele>
        <time>2016-10-31T08:56:53Z</time>
      </trkpt>
      <trkpt lat="42.83884" lon="1.47592">
        <ele>1068.64</ele>
        <time>2016-10-31T08:57:13Z</time>
      </trkpt>
      <trkpt lat="42.83884" lon="1.47592">
        <ele>1069.12</ele>
        <time>2016-10-31T08:57:37Z</time>
      </trkpt>
      <trkpt lat="42.83884" lon="1.47591">
        <ele>1069.12</ele>
        <time>2016-10-31T08:57:55Z</time>
      </trkpt>
      <trkpt lat="42.83884" lon="1.47592">
        <ele>1069.12</ele>
        <time>2016-10-31T08:58:19Z</time>
      </trkpt>
      <trkpt lat="42.83885" lon="1.47592">
        <ele>1069.12</ele>
        <time>2016-10-31T08:58:42Z</time>
      </trkpt>
      <trkpt lat="42.83886" lon="1.47592">
        <ele>1069.6</ele>
        <time>2016-10-31T08:59:06Z</time>
      </trkpt>
      <trkpt lat="42.83887" lon="1.47591">
        <ele>1069.6</ele>
        <time>2016-10-31T08:59:24Z</time>
      </trkpt>
      <trkpt lat="42.83887" lon="1.47588">
        <ele>1069.6</ele>
        <time>2016-10-31T08:59:41Z</time>
      </trkpt>
      <trkpt lat="42.83883" lon="1.47579">
        <ele>1069.6</ele>
        <time>2016-10-31T08:59:48Z</time>
      </trkpt>
      <trkpt lat="42.83883" lon="1.47577">
        <ele>1069.6</ele>
        <time>2016-10-31T08:59:49Z</time>
      </trkpt>
      <trkpt lat="42.83883" lon="1.47575">
        <ele>1069.6</ele>
        <time>2016-10-31T08:59:50Z</time>
      </trkpt>
      <trkpt lat="42.83882" lon="1.47573">
        <ele>1069.6</ele>
        <time>2016-10-31T08:59:51Z</time>
      </trkpt>
      <trkpt lat="42.83882" lon="1.47571">
        <ele>1069.6</ele>
        <time>2016-10-31T08:59:52Z</time>
      </trkpt>
      <trkpt lat="42.83881" lon="1.47557">
        <ele>1070.57</ele>
        <time>2016-10-31T09:00:03Z</time>
      </trkpt>
      <trkpt lat="42.8388" lon="1.47547">
        <ele>1073.93</ele>
        <time>2016-10-31T09:00:11Z</time>
      </trkpt>
      <trkpt lat="42.83881" lon="1.47536">
        <ele>1076.33</ele>
        <time>2016-10-31T09:00:22Z</time>
      </trkpt>
      <trkpt lat="42.83881" lon="1.4753">
        <ele>1076.33</ele>
        <time>2016-10-31T09:00:27Z</time>
      </trkpt>
      <trkpt lat="42.8388" lon="1.47517">
        <ele>1076.33</ele>
        <time>2016-10-31T09:00:38Z</time>
      </trkpt>
      <trkpt lat="42.83878" lon="1.47507">
        <ele>1077.29</ele>
        <time>2016-10-31T09:00:44Z</time>
      </trkpt>
      <trkpt lat="42.83878" lon="1.47505">
        <ele>1077.29</ele>
        <time>2016-10-31T09:00:45Z</time>
      </trkpt>
      <trkpt lat="42.83876" lon="1.47488">
        <ele>1079.22</ele>
        <time>2016-10-31T09:00:56Z</time>
      </trkpt>
      <trkpt lat="42.83875" lon="1.47485">
        <ele>1078.74</ele>
        <time>2016-10-31T09:00:57Z</time>
      </trkpt>
      <trkpt lat="42.83875" lon="1.47468">
        <ele>1080.66</ele>
        <time>2016-10-31T09:01:09Z</time>
      </trkpt>
      <trkpt lat="42.83873" lon="1.47454">
        <ele>1082.58</ele>
        <time>2016-10-31T09:01:19Z</time>
      </trkpt>
      <trkpt lat="42.83873" lon="1.47447">
        <ele>1083.54</ele>
        <time>2016-10-31T09:01:23Z</time>
      </trkpt>
      <trkpt lat="42.83875" lon="1.4743">
        <ele>1086.43</ele>
        <time>2016-10-31T09:01:34Z</time>
      </trkpt>
      <trkpt lat="42.83876" lon="1.47423">
        <ele>1089.79</ele>
        <time>2016-10-31T09:01:39Z</time>
      </trkpt>
      <trkpt lat="42.83874" lon="1.47417">
        <ele>1091.23</ele>
        <time>2016-10-31T09:01:42Z</time>
      </trkpt>
      <trkpt lat="42.83874" lon="1.47415">
        <ele>1091.23</ele>
        <time>2016-10-31T09:01:43Z</time>
      </trkpt>
      <trkpt lat="42.83873" lon="1.47406">
        <ele>1091.23</ele>
        <time>2016-10-31T09:01:52Z</time>
      </trkpt>
      <trkpt lat="42.83872" lon="1.47402">
        <ele>1091.23</ele>
        <time>2016-10-31T09:01:57Z</time>
      </trkpt>
      <trkpt lat="42.83867" lon="1.47394">
        <ele>1092.2</ele>
        <time>2016-10-31T09:02:07Z</time>
      </trkpt>
      <trkpt lat="42.8386" lon="1.47383">
        <ele>1093.64</ele>
        <time>2016-10-31T09:02:17Z</time>
      </trkpt>
      <trkpt lat="42.83858" lon="1.47375">
        <ele>1094.6</ele>
        <time>2016-10-31T09:02:27Z</time>
      </trkpt>
      <trkpt lat="42.83856" lon="1.47365">
        <ele>1095.08</ele>
        <time>2016-10-31T09:02:46Z</time>
      </trkpt>
      <trkpt lat="42.83854" lon="1.47358">
        <ele>1095.56</ele>
        <time>2016-10-31T09:02:50Z</time>
      </trkpt>
      <trkpt lat="42.83848" lon="1.47346">
        <ele>1097</ele>
        <time>2016-10-31T09:03:02Z</time>
      </trkpt>
      <trkpt lat="42.83847" lon="1.47345">
        <ele>1097</ele>
        <time>2016-10-31T09:03:03Z</time>
      </trkpt>
      <trkpt lat="42.83843" lon="1.47329">
        <ele>1097.96</ele>
        <time>2016-10-31T09:03:13Z</time>
      </trkpt>
      <trkpt lat="42.83843" lon="1.47314">
        <ele>1098.44</ele>
        <time>2016-10-31T09:03:23Z</time>
      </trkpt>
      <trkpt lat="42.83847" lon="1.47303">
        <ele>1099.4</ele>
        <time>2016-10-31T09:03:33Z</time>
      </trkpt>
      <trkpt lat="42.83848" lon="1.473">
        <ele>1099.4</ele>
        <time>2016-10-31T09:03:34Z</time>
      </trkpt>
      <trkpt lat="42.8385" lon="1.47294">
        <ele>1099.4</ele>
        <time>2016-10-31T09:03:37Z</time>
      </trkpt>
      <trkpt lat="42.83851" lon="1.47293">
        <ele>1099.89</ele>
        <time>2016-10-31T09:03:38Z</time>
      </trkpt>
      <trkpt lat="42.83855" lon="1.47288">
        <ele>1099.89</ele>
        <time>2016-10-31T09:03:42Z</time>
      </trkpt>
      <trkpt lat="42.83859" lon="1.47286">
        <ele>1099.89</ele>
        <time>2016-10-31T09:03:45Z</time>
      </trkpt>
      <trkpt lat="42.83866" lon="1.47267">
        <ele>1100.37</ele>
        <time>2016-10-31T09:03:56Z</time>
      </trkpt>
      <trkpt lat="42.83866" lon="1.47255">
        <ele>1100.85</ele>
        <time>2016-10-31T09:04:02Z</time>
      </trkpt>
      <trkpt lat="42.83865" lon="1.47251">
        <ele>1100.85</ele>
        <time>2016-10-31T09:04:04Z</time>
      </trkpt>
      <trkpt lat="42.83866" lon="1.47244">
        <ele>1101.33</ele>
        <time>2016-10-31T09:04:09Z</time>
      </trkpt>
      <trkpt lat="42.83867" lon="1.47239">
        <ele>1101.33</ele>
        <time>2016-10-31T09:04:13Z</time>
      </trkpt>
      <trkpt lat="42.83867" lon="1.47237">
        <ele>1101.33</ele>
        <time>2016-10-31T09:04:14Z</time>
      </trkpt>
      <trkpt lat="42.83867" lon="1.47226">
        <ele>1101.81</ele>
        <time>2016-10-31T09:04:21Z</time>
      </trkpt>
      <trkpt lat="42.83871" lon="1.4721">
        <ele>1103.73</ele>
        <time>2016-10-31T09:04:33Z</time>
      </trkpt>
      <trkpt lat="42.83873" lon="1.47201">
        <ele>1104.21</ele>
        <time>2016-10-31T09:04:41Z</time>
      </trkpt>
      <trkpt lat="42.83874" lon="1.472">
        <ele>1104.69</ele>
        <time>2016-10-31T09:04:42Z</time>
      </trkpt>
      <trkpt lat="42.83876" lon="1.47198">
        <ele>1104.69</ele>
        <time>2016-10-31T09:04:44Z</time>
      </trkpt>
      <trkpt lat="42.83877" lon="1.47196">
        <ele>1104.69</ele>
        <time>2016-10-31T09:04:46Z</time>
      </trkpt>
      <trkpt lat="42.83877" lon="1.47193">
        <ele>1105.17</ele>
        <time>2016-10-31T09:04:47Z</time>
      </trkpt>
      <trkpt lat="42.83877" lon="1.47192">
        <ele>1105.17</ele>
        <time>2016-10-31T09:04:48Z</time>
      </trkpt>
      <trkpt lat="42.8388" lon="1.47184">
        <ele>1106.13</ele>
        <time>2016-10-31T09:04:53Z</time>
      </trkpt>
      <trkpt lat="42.8388" lon="1.47181">
        <ele>1106.13</ele>
        <time>2016-10-31T09:04:55Z</time>
      </trkpt>
      <trkpt lat="42.83881" lon="1.47179">
        <ele>1106.61</ele>
        <time>2016-10-31T09:04:56Z</time>
      </trkpt>
      <trkpt lat="42.83881" lon="1.47175">
        <ele>1106.61</ele>
        <time>2016-10-31T09:04:59Z</time>
      </trkpt>
      <trkpt lat="42.83881" lon="1.47169">
        <ele>1107.1</ele>
        <time>2016-10-31T09:05:02Z</time>
      </trkpt>
      <trkpt lat="42.83875" lon="1.47149">
        <ele>1108.54</ele>
        <time>2016-10-31T09:05:15Z</time>
      </trkpt>
      <trkpt lat="42.83869" lon="1.47136">
        <ele>1109.98</ele>
        <time>2016-10-31T09:05:26Z</time>
      </trkpt>
      <trkpt lat="42.83865" lon="1.47123">
        <ele>1110.94</ele>
        <time>2016-10-31T09:05:37Z</time>
      </trkpt>
      <trkpt lat="42.83867" lon="1.47112">
        <ele>1111.9</ele>
        <time>2016-10-31T09:05:44Z</time>
      </trkpt>
      <trkpt lat="42.83867" lon="1.47102">
        <ele>1113.34</ele>
        <time>2016-10-31T09:05:51Z</time>
      </trkpt>
      <trkpt lat="42.83867" lon="1.47092">
        <ele>1114.31</ele>
        <time>2016-10-31T09:05:58Z</time>
      </trkpt>
      <trkpt lat="42.83867" lon="1.47082">
        <ele>1117.67</ele>
        <time>2016-10-31T09:06:05Z</time>
      </trkpt>
      <trkpt lat="42.83868" lon="1.4707">
        <ele>1119.11</ele>
        <time>2016-10-31T09:06:15Z</time>
      </trkpt>
      <trkpt lat="42.83872" lon="1.47063">
        <ele>1119.59</ele>
        <time>2016-10-31T09:06:24Z</time>
      </trkpt>
      <trkpt lat="42.83875" lon="1.47061">
        <ele>1120.07</ele>
        <time>2016-10-31T09:06:26Z</time>
      </trkpt>
      <trkpt lat="42.83878" lon="1.47058">
        <ele>1121.03</ele>
        <time>2016-10-31T09:06:30Z</time>
      </trkpt>
      <trkpt lat="42.83882" lon="1.47054">
        <ele>1121.52</ele>
        <time>2016-10-31T09:06:34Z</time>
      </trkpt>
      <trkpt lat="42.8389" lon="1.47044">
        <ele>1122.96</ele>
        <time>2016-10-31T09:06:44Z</time>
      </trkpt>
      <trkpt lat="42.83894" lon="1.47036">
        <ele>1124.4</ele>
        <time>2016-10-31T09:06:53Z</time>
      </trkpt>
      <trkpt lat="42.83893" lon="1.4703">
        <ele>1124.88</ele>
        <time>2016-10-31T09:06:58Z</time>
      </trkpt>
      <trkpt lat="42.8389" lon="1.47021">
        <ele>1125.36</ele>
        <time>2016-10-31T09:07:12Z</time>
      </trkpt>
      <trkpt lat="42.83891" lon="1.47007">
        <ele>1126.32</ele>
        <time>2016-10-31T09:07:25Z</time>
      </trkpt>
      <trkpt lat="42.83889" lon="1.46994">
        <ele>1127.28</ele>
        <time>2016-10-31T09:07:34Z</time>
      </trkpt>
      <trkpt lat="42.83889" lon="1.4699">
        <ele>1127.76</ele>
        <time>2016-10-31T09:07:37Z</time>
      </trkpt>
      <trkpt lat="42.83888" lon="1.46977">
        <ele>1130.65</ele>
        <time>2016-10-31T09:07:49Z</time>
      </trkpt>
      <trkpt lat="42.83887" lon="1.46968">
        <ele>1133.53</ele>
        <time>2016-10-31T09:07:55Z</time>
      </trkpt>
      <trkpt lat="42.83887" lon="1.46964">
        <ele>1135.45</ele>
        <time>2016-10-31T09:07:58Z</time>
      </trkpt>
      <trkpt lat="42.83885" lon="1.46955">
        <ele>1135.94</ele>
        <time>2016-10-31T09:08:08Z</time>
      </trkpt>
      <trkpt lat="42.83884" lon="1.46945">
        <ele>1135.94</ele>
        <time>2016-10-31T09:08:21Z</time>
      </trkpt>
      <trkpt lat="42.83883" lon="1.46942">
        <ele>1135.94</ele>
        <time>2016-10-31T09:08:23Z</time>
      </trkpt>
      <trkpt lat="42.8388" lon="1.46932">
        <ele>1136.42</ele>
        <time>2016-10-31T09:08:32Z</time>
      </trkpt>
      <trkpt lat="42.83878" lon="1.46929">
        <ele>1136.9</ele>
        <time>2016-10-31T09:08:34Z</time>
      </trkpt>
      <trkpt lat="42.83877" lon="1.46916">
        <ele>1136.9</ele>
        <time>2016-10-31T09:08:42Z</time>
      </trkpt>
      <trkpt lat="42.83877" lon="1.46909">
        <ele>1137.38</ele>
        <time>2016-10-31T09:08:47Z</time>
      </trkpt>
      <trkpt lat="42.83876" lon="1.46905">
        <ele>1137.38</ele>
        <time>2016-10-31T09:08:49Z</time>
      </trkpt>
      <trkpt lat="42.83877" lon="1.46896">
        <ele>1137.86</ele>
        <time>2016-10-31T09:08:55Z</time>
      </trkpt>
      <trkpt lat="42.83878" lon="1.46885">
        <ele>1138.34</ele>
        <time>2016-10-31T09:09:03Z</time>
      </trkpt>
      <trkpt lat="42.8388" lon="1.4687">
        <ele>1139.78</ele>
        <time>2016-10-31T09:09:13Z</time>
      </trkpt>
      <trkpt lat="42.8388" lon="1.46856">
        <ele>1140.74</ele>
        <time>2016-10-31T09:09:24Z</time>
      </trkpt>
      <trkpt lat="42.83881" lon="1.46848">
        <ele>1141.22</ele>
        <time>2016-10-31T09:09:30Z</time>
      </trkpt>
      <trkpt lat="42.83886" lon="1.46833">
        <ele>1143.63</ele>
        <time>2016-10-31T09:09:42Z</time>
      </trkpt>
      <trkpt lat="42.83888" lon="1.46825">
        <ele>1144.59</ele>
        <time>2016-10-31T09:09:51Z</time>
      </trkpt>
      <trkpt lat="42.8389" lon="1.4681">
        <ele>1146.03</ele>
        <time>2016-10-31T09:10:03Z</time>
      </trkpt>
      <trkpt lat="42.83891" lon="1.46804">
        <ele>1146.51</ele>
        <time>2016-10-31T09:10:08Z</time>
      </trkpt>
      <trkpt lat="42.83891" lon="1.46794">
        <ele>1147.95</ele>
        <time>2016-10-31T09:10:19Z</time>
      </trkpt>
      <trkpt lat="42.83892" lon="1.46779">
        <ele>1149.39</ele>
        <time>2016-10-31T09:10:28Z</time>
      </trkpt>
      <trkpt lat="42.83897" lon="1.46767">
        <ele>1150.84</ele>
        <time>2016-10-31T09:10:40Z</time>
      </trkpt>
      <trkpt lat="42.83897" lon="1.46761">
        <ele>1151.32</ele>
        <time>2016-10-31T09:10:48Z</time>
      </trkpt>
      <trkpt lat="42.83897" lon="1.46754">
        <ele>1152.76</ele>
        <time>2016-10-31T09:11:04Z</time>
      </trkpt>
      <trkpt lat="42.83898" lon="1.46747">
        <ele>1153.24</ele>
        <time>2016-10-31T09:11:13Z</time>
      </trkpt>
      <trkpt lat="42.83901" lon="1.46735">
        <ele>1154.68</ele>
        <time>2016-10-31T09:11:23Z</time>
      </trkpt>
      <trkpt lat="42.83903" lon="1.46719">
        <ele>1155.64</ele>
        <time>2016-10-31T09:11:36Z</time>
      </trkpt>
      <trkpt lat="42.83904" lon="1.46718">
        <ele>1155.64</ele>
        <time>2016-10-31T09:11:38Z</time>
      </trkpt>
      <trkpt lat="42.83905" lon="1.46704">
        <ele>1156.6</ele>
        <time>2016-10-31T09:11:49Z</time>
      </trkpt>
      <trkpt lat="42.83907" lon="1.46693">
        <ele>1157.08</ele>
        <time>2016-10-31T09:11:57Z</time>
      </trkpt>
      <trkpt lat="42.83908" lon="1.46677">
        <ele>1159.01</ele>
        <time>2016-10-31T09:12:08Z</time>
      </trkpt>
      <trkpt lat="42.83909" lon="1.46667">
        <ele>1159.97</ele>
        <time>2016-10-31T09:12:18Z</time>
      </trkpt>
      <trkpt lat="42.83912" lon="1.46652">
        <ele>1160.93</ele>
        <time>2016-10-31T09:12:30Z</time>
      </trkpt>
      <trkpt lat="42.83912" lon="1.46648">
        <ele>1161.41</ele>
        <time>2016-10-31T09:12:33Z</time>
      </trkpt>
      <trkpt lat="42.83913" lon="1.46631">
        <ele>1163.33</ele>
        <time>2016-10-31T09:12:46Z</time>
      </trkpt>
      <trkpt lat="42.83915" lon="1.46619">
        <ele>1164.29</ele>
        <time>2016-10-31T09:12:55Z</time>
      </trkpt>
      <trkpt lat="42.83917" lon="1.46616">
        <ele>1164.29</ele>
        <time>2016-10-31T09:12:58Z</time>
      </trkpt>
      <trkpt lat="42.83918" lon="1.46607">
        <ele>1165.26</ele>
        <time>2016-10-31T09:13:06Z</time>
      </trkpt>
      <trkpt lat="42.83918" lon="1.46599">
        <ele>1166.7</ele>
        <time>2016-10-31T09:13:14Z</time>
      </trkpt>
      <trkpt lat="42.83915" lon="1.46594">
        <ele>1166.7</ele>
        <time>2016-10-31T09:13:18Z</time>
      </trkpt>
      <trkpt lat="42.83915" lon="1.46591">
        <ele>1167.18</ele>
        <time>2016-10-31T09:13:21Z</time>
      </trkpt>
      <trkpt lat="42.8391" lon="1.46581">
        <ele>1168.14</ele>
        <time>2016-10-31T09:13:29Z</time>
      </trkpt>
      <trkpt lat="42.83905" lon="1.46566">
        <ele>1168.62</ele>
        <time>2016-10-31T09:13:38Z</time>
      </trkpt>
      <trkpt lat="42.83903" lon="1.46562">
        <ele>1169.1</ele>
        <time>2016-10-31T09:13:42Z</time>
      </trkpt>
      <trkpt lat="42.83904" lon="1.46559">
        <ele>1170.06</ele>
        <time>2016-10-31T09:13:44Z</time>
      </trkpt>
      <trkpt lat="42.83902" lon="1.46556">
        <ele>1170.06</ele>
        <time>2016-10-31T09:13:46Z</time>
      </trkpt>
      <trkpt lat="42.839" lon="1.46547">
        <ele>1170.54</ele>
        <time>2016-10-31T09:13:52Z</time>
      </trkpt>
      <trkpt lat="42.839" lon="1.46537">
        <ele>1171.02</ele>
        <time>2016-10-31T09:13:58Z</time>
      </trkpt>
      <trkpt lat="42.839" lon="1.46525">
        <ele>1171.5</ele>
        <time>2016-10-31T09:14:06Z</time>
      </trkpt>
      <trkpt lat="42.83899" lon="1.46518">
        <ele>1171.5</ele>
        <time>2016-10-31T09:14:11Z</time>
      </trkpt>
      <trkpt lat="42.83898" lon="1.4651">
        <ele>1171.5</ele>
        <time>2016-10-31T09:14:17Z</time>
      </trkpt>
      <trkpt lat="42.83897" lon="1.46497">
        <ele>1171.98</ele>
        <time>2016-10-31T09:14:26Z</time>
      </trkpt>
      <trkpt lat="42.83895" lon="1.46492">
        <ele>1172.47</ele>
        <time>2016-10-31T09:14:39Z</time>
      </trkpt>
      <trkpt lat="42.83893" lon="1.46493">
        <ele>1172.95</ele>
        <time>2016-10-31T09:15:03Z</time>
      </trkpt>
      <trkpt lat="42.8389" lon="1.46488">
        <ele>1173.43</ele>
        <time>2016-10-31T09:15:10Z</time>
      </trkpt>
      <trkpt lat="42.8389" lon="1.46485">
        <ele>1173.43</ele>
        <time>2016-10-31T09:15:12Z</time>
      </trkpt>
      <trkpt lat="42.83891" lon="1.4648">
        <ele>1173.43</ele>
        <time>2016-10-31T09:15:24Z</time>
      </trkpt>
      <trkpt lat="42.83891" lon="1.46478">
        <ele>1173.91</ele>
        <time>2016-10-31T09:15:38Z</time>
      </trkpt>
      <trkpt lat="42.83891" lon="1.46478">
        <ele>1173.91</ele>
        <time>2016-10-31T09:15:53Z</time>
      </trkpt>
      <trkpt lat="42.8389" lon="1.46479">
        <ele>1173.91</ele>
        <time>2016-10-31T09:16:12Z</time>
      </trkpt>
      <trkpt lat="42.8389" lon="1.46479">
        <ele>1172.95</ele>
        <time>2016-10-31T09:16:36Z</time>
      </trkpt>
      <trkpt lat="42.8389" lon="1.4648">
        <ele>1172.95</ele>
        <time>2016-10-31T09:16:44Z</time>
      </trkpt>
      <trkpt lat="42.8389" lon="1.46478">
        <ele>1172.95</ele>
        <time>2016-10-31T09:16:53Z</time>
      </trkpt>
      <trkpt lat="42.83891" lon="1.46478">
        <ele>1172.95</ele>
        <time>2016-10-31T09:17:05Z</time>
      </trkpt>
      <trkpt lat="42.83893" lon="1.46482">
        <ele>1172.95</ele>
        <time>2016-10-31T09:17:10Z</time>
      </trkpt>
      <trkpt lat="42.83897" lon="1.46486">
        <ele>1172.95</ele>
        <time>2016-10-31T09:17:17Z</time>
      </trkpt>
      <trkpt lat="42.83906" lon="1.46495">
        <ele>1172.95</ele>
        <time>2016-10-31T09:17:27Z</time>
      </trkpt>
      <trkpt lat="42.83908" lon="1.46495">
        <ele>1172.95</ele>
        <time>2016-10-31T09:17:41Z</time>
      </trkpt>
      <trkpt lat="42.83908" lon="1.46495">
        <ele>1172.95</ele>
        <time>2016-10-31T09:17:59Z</time>
      </trkpt>
      <trkpt lat="42.83897" lon="1.46487">
        <ele>1172.95</ele>
        <time>2016-10-31T09:18:11Z</time>
      </trkpt>
      <trkpt lat="42.83894" lon="1.46479">
        <ele>1174.39</ele>
        <time>2016-10-31T09:18:21Z</time>
      </trkpt>
      <trkpt lat="42.83894" lon="1.46478">
        <ele>1174.39</ele>
        <time>2016-10-31T09:18:29Z</time>
      </trkpt>
      <trkpt lat="42.83889" lon="1.46473">
        <ele>1174.39</ele>
        <time>2016-10-31T09:18:34Z</time>
      </trkpt>
      <trkpt lat="42.83888" lon="1.46465">
        <ele>1174.87</ele>
        <time>2016-10-31T09:18:39Z</time>
      </trkpt>
      <trkpt lat="42.83887" lon="1.46453">
        <ele>1174.87</ele>
        <time>2016-10-31T09:18:45Z</time>
      </trkpt>
      <trkpt lat="42.83887" lon="1.46435">
        <ele>1174.87</ele>
        <time>2016-10-31T09:18:54Z</time>
      </trkpt>
      <trkpt lat="42.83892" lon="1.46427">
        <ele>1175.35</ele>
        <time>2016-10-31T09:18:59Z</time>
      </trkpt>
      <trkpt lat="42.83897" lon="1.4642">
        <ele>1175.83</ele>
        <time>2016-10-31T09:19:04Z</time>
      </trkpt>
      <trkpt lat="42.83898" lon="1.46418">
        <ele>1175.83</ele>
        <time>2016-10-31T09:19:05Z</time>
      </trkpt>
      <trkpt lat="42.83898" lon="1.46403">
        <ele>1176.31</ele>
        <time>2016-10-31T09:19:13Z</time>
      </trkpt>
      <trkpt lat="42.83897" lon="1.46395">
        <ele>1176.31</ele>
        <time>2016-10-31T09:19:17Z</time>
      </trkpt>
      <trkpt lat="42.83896" lon="1.4639">
        <ele>1176.79</ele>
        <time>2016-10-31T09:19:19Z</time>
      </trkpt>
      <trkpt lat="42.83897" lon="1.46388">
        <ele>1176.79</ele>
        <time>2016-10-31T09:19:21Z</time>
      </trkpt>
      <trkpt lat="42.83902" lon="1.46376">
        <ele>1177.75</ele>
        <time>2016-10-31T09:19:28Z</time>
      </trkpt>
      <trkpt lat="42.83902" lon="1.46374">
        <ele>1178.23</ele>
        <time>2016-10-31T09:19:29Z</time>
      </trkpt>
      <trkpt lat="42.83904" lon="1.4637">
        <ele>1178.23</ele>
        <time>2016-10-31T09:19:32Z</time>
      </trkpt>
      <trkpt lat="42.83904" lon="1.46364">
        <ele>1178.23</ele>
        <time>2016-10-31T09:19:35Z</time>
      </trkpt>
      <trkpt lat="42.83905" lon="1.46354">
        <ele>1178.71</ele>
        <time>2016-10-31T09:19:41Z</time>
      </trkpt>
      <trkpt lat="42.83907" lon="1.46341">
        <ele>1179.19</ele>
        <time>2016-10-31T09:19:50Z</time>
      </trkpt>
      <trkpt lat="42.83908" lon="1.46337">
        <ele>1179.19</ele>
        <time>2016-10-31T09:19:53Z</time>
      </trkpt>
      <trkpt lat="42.83908" lon="1.46329">
        <ele>1179.67</ele>
        <time>2016-10-31T09:20:02Z</time>
      </trkpt>
      <trkpt lat="42.83914" lon="1.46328">
        <ele>1179.67</ele>
        <time>2016-10-31T09:20:11Z</time>
      </trkpt>
      <trkpt lat="42.83916" lon="1.46327">
        <ele>1179.67</ele>
        <time>2016-10-31T09:20:13Z</time>
      </trkpt>
      <trkpt lat="42.83912" lon="1.46331">
        <ele>1179.67</ele>
        <time>2016-10-31T09:20:23Z</time>
      </trkpt>
      <trkpt lat="42.83907" lon="1.46331">
        <ele>1179.67</ele>
        <time>2016-10-31T09:20:27Z</time>
      </trkpt>
      <trkpt lat="42.83899" lon="1.46322">
        <ele>1179.67</ele>
        <time>2016-10-31T09:20:35Z</time>
      </trkpt>
      <trkpt lat="42.83894" lon="1.46314">
        <ele>1179.67</ele>
        <time>2016-10-31T09:20:42Z</time>
      </trkpt>
      <trkpt lat="42.83893" lon="1.46307">
        <ele>1179.67</ele>
        <time>2016-10-31T09:20:46Z</time>
      </trkpt>
      <trkpt lat="42.83893" lon="1.46301">
        <ele>1179.67</ele>
        <time>2016-10-31T09:20:49Z</time>
      </trkpt>
      <trkpt lat="42.83893" lon="1.46296">
        <ele>1179.67</ele>
        <time>2016-10-31T09:20:54Z</time>
      </trkpt>
      <trkpt lat="42.83894" lon="1.46291">
        <ele>1179.67</ele>
        <time>2016-10-31T09:20:58Z</time>
      </trkpt>
      <trkpt lat="42.83894" lon="1.46285">
        <ele>1179.67</ele>
        <time>2016-10-31T09:21:02Z</time>
      </trkpt>
      <trkpt lat="42.83893" lon="1.46279">
        <ele>1179.67</ele>
        <time>2016-10-31T09:21:06Z</time>
      </trkpt>
      <trkpt lat="42.83895" lon="1.46275">
        <ele>1179.67</ele>
        <time>2016-10-31T09:21:09Z</time>
      </trkpt>
      <trkpt lat="42.83892" lon="1.46262">
        <ele>1180.16</ele>
        <time>2016-10-31T09:21:19Z</time>
      </trkpt>
      <trkpt lat="42.83892" lon="1.46251">
        <ele>1180.64</ele>
        <time>2016-10-31T09:21:28Z</time>
      </trkpt>
      <trkpt lat="42.83891" lon="1.46251">
        <ele>1181.6</ele>
        <time>2016-10-31T09:21:41Z</time>
      </trkpt>
      <trkpt lat="42.83889" lon="1.46251">
        <ele>1182.08</ele>
        <time>2016-10-31T09:22:10Z</time>
      </trkpt>
      <trkpt lat="42.8389" lon="1.46251">
        <ele>1182.08</ele>
        <time>2016-10-31T09:22:30Z</time>
      </trkpt>
      <trkpt lat="42.8389" lon="1.46253">
        <ele>1182.08</ele>
        <time>2016-10-31T09:22:51Z</time>
      </trkpt>
      <trkpt lat="42.8389" lon="1.46253">
        <ele>1182.08</ele>
        <time>2016-10-31T09:23:09Z</time>
      </trkpt>
      <trkpt lat="42.83889" lon="1.46244">
        <ele>1182.08</ele>
        <time>2016-10-31T09:23:15Z</time>
      </trkpt>
      <trkpt lat="42.83891" lon="1.46239">
        <ele>1182.08</ele>
        <time>2016-10-31T09:23:18Z</time>
      </trkpt>
      <trkpt lat="42.8389" lon="1.46238">
        <ele>1182.08</ele>
        <time>2016-10-31T09:23:19Z</time>
      </trkpt>
      <trkpt lat="42.83887" lon="1.46233">
        <ele>1182.08</ele>
        <time>2016-10-31T09:23:25Z</time>
      </trkpt>
      <trkpt lat="42.83884" lon="1.46229">
        <ele>1182.08</ele>
        <time>2016-10-31T09:23:31Z</time>
      </trkpt>
      <trkpt lat="42.83883" lon="1.46228">
        <ele>1182.08</ele>
        <time>2016-10-31T09:23:33Z</time>
      </trkpt>
      <trkpt lat="42.83874" lon="1.46219">
        <ele>1182.56</ele>
        <time>2016-10-31T09:23:44Z</time>
      </trkpt>
      <trkpt lat="42.83871" lon="1.46212">
        <ele>1183.52</ele>
        <time>2016-10-31T09:23:53Z</time>
      </trkpt>
      <trkpt lat="42.83871" lon="1.46211">
        <ele>1183.52</ele>
        <time>2016-10-31T09:23:54Z</time>
      </trkpt>
      <trkpt lat="42.83875" lon="1.46199">
        <ele>1184.48</ele>
        <time>2016-10-31T09:24:03Z</time>
      </trkpt>
      <trkpt lat="42.83874" lon="1.46194">
        <ele>1187.37</ele>
        <time>2016-10-31T09:24:06Z</time>
      </trkpt>
      <trkpt lat="42.83874" lon="1.46194">
        <ele>1187.37</ele>
        <time>2016-10-31T09:24:07Z</time>
      </trkpt>
      <trkpt lat="42.83879" lon="1.4619">
        <ele>1185.44</ele>
        <time>2016-10-31T09:24:10Z</time>
      </trkpt>
      <trkpt lat="42.83881" lon="1.46186">
        <ele>1189.29</ele>
        <time>2016-10-31T09:24:14Z</time>
      </trkpt>
      <trkpt lat="42.83882" lon="1.46181">
        <ele>1196.5</ele>
        <time>2016-10-31T09:24:21Z</time>
      </trkpt>
      <trkpt lat="42.83882" lon="1.46181">
        <ele>1200.82</ele>
        <time>2016-10-31T09:24:22Z</time>
      </trkpt>
      <trkpt lat="42.83882" lon="1.4618">
        <ele>1182.56</ele>
        <time>2016-10-31T09:24:23Z</time>
      </trkpt>
      <trkpt lat="42.83884" lon="1.4618">
        <ele>1186.4</ele>
        <time>2016-10-31T09:24:26Z</time>
      </trkpt>
      <trkpt lat="42.83882" lon="1.46177">
        <ele>1185.92</ele>
        <time>2016-10-31T09:24:42Z</time>
      </trkpt>
      <trkpt lat="42.83881" lon="1.46178">
        <ele>1185.92</ele>
        <time>2016-10-31T09:25:04Z</time>
      </trkpt>
      <trkpt lat="42.83882" lon="1.4618">
        <ele>1185.92</ele>
        <time>2016-10-31T09:25:31Z</time>
      </trkpt>
      <trkpt lat="42.83881" lon="1.46179">
        <ele>1186.4</ele>
        <time>2016-10-31T09:25:48Z</time>
      </trkpt>
      <trkpt lat="42.83881" lon="1.46179">
        <ele>1186.4</ele>
        <time>2016-10-31T09:26:11Z</time>
      </trkpt>
      <trkpt lat="42.83882" lon="1.46184">
        <ele>1186.4</ele>
        <time>2016-10-31T09:26:25Z</time>
      </trkpt>
      <trkpt lat="42.83881" lon="1.46184">
        <ele>1186.4</ele>
        <time>2016-10-31T09:26:44Z</time>
      </trkpt>
      <trkpt lat="42.8388" lon="1.46185">
        <ele>1186.4</ele>
        <time>2016-10-31T09:27:02Z</time>
      </trkpt>
      <trkpt lat="42.83879" lon="1.46186">
        <ele>1186.4</ele>
        <time>2016-10-31T09:27:24Z</time>
      </trkpt>
      <trkpt lat="42.83878" lon="1.46182">
        <ele>1186.4</ele>
        <time>2016-10-31T09:27:46Z</time>
      </trkpt>
      <trkpt lat="42.83878" lon="1.46183">
        <ele>1186.4</ele>
        <time>2016-10-31T09:28:10Z</time>
      </trkpt>
      <trkpt lat="42.83877" lon="1.46184">
        <ele>1186.4</ele>
        <time>2016-10-31T09:28:29Z</time>
      </trkpt>
      <trkpt lat="42.83874" lon="1.46199">
        <ele>1186.4</ele>
        <time>2016-10-31T09:28:39Z</time>
      </trkpt>
      <trkpt lat="42.83873" lon="1.462">
        <ele>1186.4</ele>
        <time>2016-10-31T09:28:40Z</time>
      </trkpt>
      <trkpt lat="42.83869" lon="1.46202">
        <ele>1186.4</ele>
        <time>2016-10-31T09:28:49Z</time>
      </trkpt>
      <trkpt lat="42.83867" lon="1.46201">
        <ele>1186.4</ele>
        <time>2016-10-31T09:28:51Z</time>
      </trkpt>
      <trkpt lat="42.83862" lon="1.46206">
        <ele>1185.44</ele>
        <time>2016-10-31T09:28:58Z</time>
      </trkpt>
      <trkpt lat="42.83861" lon="1.46207">
        <ele>1184.96</ele>
        <time>2016-10-31T09:29:01Z</time>
      </trkpt>
      <trkpt lat="42.83854" lon="1.46212">
        <ele>1184.48</ele>
        <time>2016-10-31T09:29:11Z</time>
      </trkpt>
      <trkpt lat="42.83848" lon="1.46213">
        <ele>1184.48</ele>
        <time>2016-10-31T09:29:21Z</time>
      </trkpt>
      <trkpt lat="42.83845" lon="1.46208">
        <ele>1184.48</ele>
        <time>2016-10-31T09:29:25Z</time>
      </trkpt>
      <trkpt lat="42.8384" lon="1.462">
        <ele>1184.48</ele>
        <time>2016-10-31T09:29:34Z</time>
      </trkpt>
      <trkpt lat="42.83839" lon="1.46196">
        <ele>1185.44</ele>
        <time>2016-10-31T09:29:37Z</time>
      </trkpt>
      <trkpt lat="42.83839" lon="1.46193">
        <ele>1185.92</ele>
        <time>2016-10-31T09:29:39Z</time>
      </trkpt>
      <trkpt lat="42.83839" lon="1.46192">
        <ele>1185.92</ele>
        <time>2016-10-31T09:29:40Z</time>
      </trkpt>
      <trkpt lat="42.83841" lon="1.46186">
        <ele>1185.92</ele>
        <time>2016-10-31T09:29:44Z</time>
      </trkpt>
      <trkpt lat="42.83839" lon="1.46178">
        <ele>1185.92</ele>
        <time>2016-10-31T09:29:52Z</time>
      </trkpt>
      <trkpt lat="42.83836" lon="1.46173">
        <ele>1185.92</ele>
        <time>2016-10-31T09:29:56Z</time>
      </trkpt>
      <trkpt lat="42.83839" lon="1.46164">
        <ele>1186.4</ele>
        <time>2016-10-31T09:30:05Z</time>
      </trkpt>
      <trkpt lat="42.8384" lon="1.46161">
        <ele>1186.4</ele>
        <time>2016-10-31T09:30:09Z</time>
      </trkpt>
      <trkpt lat="42.83838" lon="1.46145">
        <ele>1186.88</ele>
        <time>2016-10-31T09:30:19Z</time>
      </trkpt>
      <trkpt lat="42.83836" lon="1.46137">
        <ele>1187.37</ele>
        <time>2016-10-31T09:30:25Z</time>
      </trkpt>
      <trkpt lat="42.83834" lon="1.46133">
        <ele>1187.37</ele>
        <time>2016-10-31T09:30:27Z</time>
      </trkpt>
      <trkpt lat="42.83834" lon="1.46132">
        <ele>1187.37</ele>
        <time>2016-10-31T09:30:28Z</time>
      </trkpt>
      <trkpt lat="42.83831" lon="1.46125">
        <ele>1187.85</ele>
        <time>2016-10-31T09:30:33Z</time>
      </trkpt>
      <trkpt lat="42.83828" lon="1.46113">
        <ele>1187.85</ele>
        <time>2016-10-31T09:30:40Z</time>
      </trkpt>
      <trkpt lat="42.83827" lon="1.46111">
        <ele>1187.85</ele>
        <time>2016-10-31T09:30:42Z</time>
      </trkpt>
      <trkpt lat="42.83824" lon="1.46096">
        <ele>1188.33</ele>
        <time>2016-10-31T09:30:52Z</time>
      </trkpt>
      <trkpt lat="42.83821" lon="1.46086">
        <ele>1188.81</ele>
        <time>2016-10-31T09:30:59Z</time>
      </trkpt>
      <trkpt lat="42.83821" lon="1.46085">
        <ele>1188.81</ele>
        <time>2016-10-31T09:31:00Z</time>
      </trkpt>
      <trkpt lat="42.83822" lon="1.46079">
        <ele>1189.29</ele>
        <time>2016-10-31T09:31:04Z</time>
      </trkpt>
      <trkpt lat="42.83823" lon="1.46075">
        <ele>1189.29</ele>
        <time>2016-10-31T09:31:07Z</time>
      </trkpt>
      <trkpt lat="42.83824" lon="1.46067">
        <ele>1190.25</ele>
        <time>2016-10-31T09:31:13Z</time>
      </trkpt>
      <trkpt lat="42.83825" lon="1.46056">
        <ele>1190.73</ele>
        <time>2016-10-31T09:31:21Z</time>
      </trkpt>
      <trkpt lat="42.83828" lon="1.46052">
        <ele>1190.73</ele>
        <time>2016-10-31T09:31:25Z</time>
      </trkpt>
      <trkpt lat="42.83828" lon="1.46047">
        <ele>1190.73</ele>
        <time>2016-10-31T09:31:29Z</time>
      </trkpt>
      <trkpt lat="42.83828" lon="1.46043">
        <ele>1191.21</ele>
        <time>2016-10-31T09:31:36Z</time>
      </trkpt>
      <trkpt lat="42.83829" lon="1.46032">
        <ele>1192.65</ele>
        <time>2016-10-31T09:31:48Z</time>
      </trkpt>
      <trkpt lat="42.8383" lon="1.46028">
        <ele>1193.13</ele>
        <time>2016-10-31T09:31:53Z</time>
      </trkpt>
      <trkpt lat="42.83832" lon="1.46026">
        <ele>1194.58</ele>
        <time>2016-10-31T09:32:03Z</time>
      </trkpt>
      <trkpt lat="42.83831" lon="1.46026">
        <ele>1194.09</ele>
        <time>2016-10-31T09:32:04Z</time>
      </trkpt>
      <trkpt lat="42.8383" lon="1.46024">
        <ele>1194.58</ele>
        <time>2016-10-31T09:32:08Z</time>
      </trkpt>
      <trkpt lat="42.83834" lon="1.4602">
        <ele>1196.02</ele>
        <time>2016-10-31T09:32:13Z</time>
      </trkpt>
      <trkpt lat="42.83815" lon="1.46002">
        <ele>1196.98</ele>
        <time>2016-10-31T09:32:27Z</time>
      </trkpt>
      <trkpt lat="42.83814" lon="1.45998">
        <ele>1197.46</ele>
        <time>2016-10-31T09:32:31Z</time>
      </trkpt>
      <trkpt lat="42.83803" lon="1.45985">
        <ele>1199.38</ele>
        <time>2016-10-31T09:32:45Z</time>
      </trkpt>
      <trkpt lat="42.83796" lon="1.45978">
        <ele>1200.82</ele>
        <time>2016-10-31T09:32:57Z</time>
      </trkpt>
      <trkpt lat="42.83794" lon="1.45967">
        <ele>1202.27</ele>
        <time>2016-10-31T09:33:07Z</time>
      </trkpt>
      <trkpt lat="42.8379" lon="1.45963">
        <ele>1204.67</ele>
        <time>2016-10-31T09:33:18Z</time>
      </trkpt>
      <trkpt lat="42.83787" lon="1.45949">
        <ele>1206.11</ele>
        <time>2016-10-31T09:33:28Z</time>
      </trkpt>
      <trkpt lat="42.83782" lon="1.45942">
        <ele>1207.07</ele>
        <time>2016-10-31T09:33:40Z</time>
      </trkpt>
      <trkpt lat="42.83779" lon="1.4594">
        <ele>1208.51</ele>
        <time>2016-10-31T09:33:56Z</time>
      </trkpt>
      <trkpt lat="42.83773" lon="1.4594">
        <ele>1209.48</ele>
        <time>2016-10-31T09:34:07Z</time>
      </trkpt>
      <trkpt lat="42.83769" lon="1.45933">
        <ele>1211.4</ele>
        <time>2016-10-31T09:34:17Z</time>
      </trkpt>
      <trkpt lat="42.83768" lon="1.45924">
        <ele>1213.32</ele>
        <time>2016-10-31T09:34:30Z</time>
      </trkpt>
      <trkpt lat="42.83763" lon="1.45923">
        <ele>1215.24</ele>
        <time>2016-10-31T09:34:37Z</time>
      </trkpt>
      <trkpt lat="42.83762" lon="1.45915">
        <ele>1217.65</ele>
        <time>2016-10-31T09:34:49Z</time>
      </trkpt>
      <trkpt lat="42.83758" lon="1.45909">
        <ele>1219.57</ele>
        <time>2016-10-31T09:34:59Z</time>
      </trkpt>
      <trkpt lat="42.83752" lon="1.4591">
        <ele>1221.01</ele>
        <time>2016-10-31T09:35:10Z</time>
      </trkpt>
      <trkpt lat="42.83744" lon="1.45912">
        <ele>1222.93</ele>
        <time>2016-10-31T09:35:22Z</time>
      </trkpt>
      <trkpt lat="42.83742" lon="1.45917">
        <ele>1225.34</ele>
        <time>2016-10-31T09:35:33Z</time>
      </trkpt>
      <trkpt lat="42.83736" lon="1.45921">
        <ele>1227.74</ele>
        <time>2016-10-31T09:35:46Z</time>
      </trkpt>
      <trkpt lat="42.83737" lon="1.45925">
        <ele>1229.18</ele>
        <time>2016-10-31T09:36:10Z</time>
      </trkpt>
      <trkpt lat="42.83735" lon="1.45926">
        <ele>1229.66</ele>
        <time>2016-10-31T09:36:15Z</time>
      </trkpt>
      <trkpt lat="42.8373" lon="1.45933">
        <ele>1231.11</ele>
        <time>2016-10-31T09:36:25Z</time>
      </trkpt>
      <trkpt lat="42.83728" lon="1.45935">
        <ele>1232.07</ele>
        <time>2016-10-31T09:36:32Z</time>
      </trkpt>
      <trkpt lat="42.83723" lon="1.4593">
        <ele>1233.51</ele>
        <time>2016-10-31T09:36:42Z</time>
      </trkpt>
      <trkpt lat="42.83723" lon="1.45931">
        <ele>1233.99</ele>
        <time>2016-10-31T09:36:43Z</time>
      </trkpt>
      <trkpt lat="42.83718" lon="1.45935">
        <ele>1235.91</ele>
        <time>2016-10-31T09:36:54Z</time>
      </trkpt>
      <trkpt lat="42.83717" lon="1.45937">
        <ele>1236.87</ele>
        <time>2016-10-31T09:36:59Z</time>
      </trkpt>
      <trkpt lat="42.83716" lon="1.45926">
        <ele>1239.28</ele>
        <time>2016-10-31T09:37:12Z</time>
      </trkpt>
      <trkpt lat="42.83713" lon="1.4592">
        <ele>1241.2</ele>
        <time>2016-10-31T09:37:22Z</time>
      </trkpt>
      <trkpt lat="42.83712" lon="1.45919">
        <ele>1241.2</ele>
        <time>2016-10-31T09:37:24Z</time>
      </trkpt>
      <trkpt lat="42.83707" lon="1.45922">
        <ele>1243.12</ele>
        <time>2016-10-31T09:37:35Z</time>
      </trkpt>
      <trkpt lat="42.83706" lon="1.45923">
        <ele>1243.6</ele>
        <time>2016-10-31T09:37:37Z</time>
      </trkpt>
      <trkpt lat="42.83703" lon="1.45919">
        <ele>1245.53</ele>
        <time>2016-10-31T09:37:47Z</time>
      </trkpt>
      <trkpt lat="42.83698" lon="1.45914">
        <ele>1247.45</ele>
        <time>2016-10-31T09:37:58Z</time>
      </trkpt>
      <trkpt lat="42.83698" lon="1.45909">
        <ele>1248.41</ele>
        <time>2016-10-31T09:38:04Z</time>
      </trkpt>
      <trkpt lat="42.83695" lon="1.45907">
        <ele>1250.81</ele>
        <time>2016-10-31T09:38:16Z</time>
      </trkpt>
      <trkpt lat="42.83691" lon="1.45909">
        <ele>1252.25</ele>
        <time>2016-10-31T09:38:27Z</time>
      </trkpt>
      <trkpt lat="42.83692" lon="1.45909">
        <ele>1253.22</ele>
        <time>2016-10-31T09:38:48Z</time>
      </trkpt>
      <trkpt lat="42.83692" lon="1.45906">
        <ele>1253.7</ele>
        <time>2016-10-31T09:39:09Z</time>
      </trkpt>
      <trkpt lat="42.83691" lon="1.45904">
        <ele>1254.66</ele>
        <time>2016-10-31T09:39:15Z</time>
      </trkpt>
      <trkpt lat="42.83687" lon="1.45898">
        <ele>1255.62</ele>
        <time>2016-10-31T09:39:26Z</time>
      </trkpt>
      <trkpt lat="42.83686" lon="1.45886">
        <ele>1257.54</ele>
        <time>2016-10-31T09:39:39Z</time>
      </trkpt>
      <trkpt lat="42.83682" lon="1.45881">
        <ele>1258.98</ele>
        <time>2016-10-31T09:39:50Z</time>
      </trkpt>
      <trkpt lat="42.83682" lon="1.45885">
        <ele>1261.87</ele>
        <time>2016-10-31T09:40:03Z</time>
      </trkpt>
      <trkpt lat="42.83681" lon="1.45878">
        <ele>1264.75</ele>
        <time>2016-10-31T09:40:09Z</time>
      </trkpt>
      <trkpt lat="42.83677" lon="1.4588">
        <ele>1266.67</ele>
        <time>2016-10-31T09:40:19Z</time>
      </trkpt>
      <trkpt lat="42.83677" lon="1.45886">
        <ele>1266.67</ele>
        <time>2016-10-31T09:40:29Z</time>
      </trkpt>
      <trkpt lat="42.83674" lon="1.45884">
        <ele>1268.12</ele>
        <time>2016-10-31T09:40:40Z</time>
      </trkpt>
      <trkpt lat="42.83669" lon="1.45877">
        <ele>1270.04</ele>
        <time>2016-10-31T09:40:51Z</time>
      </trkpt>
      <trkpt lat="42.83665" lon="1.45875">
        <ele>1271.48</ele>
        <time>2016-10-31T09:41:01Z</time>
      </trkpt>
      <trkpt lat="42.8366" lon="1.45869">
        <ele>1273.88</ele>
        <time>2016-10-31T09:41:12Z</time>
      </trkpt>
      <trkpt lat="42.83662" lon="1.45858">
        <ele>1275.81</ele>
        <time>2016-10-31T09:41:24Z</time>
      </trkpt>
      <trkpt lat="42.8366" lon="1.45857">
        <ele>1277.73</ele>
        <time>2016-10-31T09:41:34Z</time>
      </trkpt>
      <trkpt lat="42.83656" lon="1.45858">
        <ele>1280.61</ele>
        <time>2016-10-31T09:41:48Z</time>
      </trkpt>
      <trkpt lat="42.83653" lon="1.45858">
        <ele>1283.98</ele>
        <time>2016-10-31T09:41:55Z</time>
      </trkpt>
      <trkpt lat="42.83651" lon="1.45861">
        <ele>1284.94</ele>
        <time>2016-10-31T09:42:07Z</time>
      </trkpt>
      <trkpt lat="42.8365" lon="1.45861">
        <ele>1284.94</ele>
        <time>2016-10-31T09:42:09Z</time>
      </trkpt>
      <trkpt lat="42.83644" lon="1.45859">
        <ele>1286.38</ele>
        <time>2016-10-31T09:42:19Z</time>
      </trkpt>
      <trkpt lat="42.83641" lon="1.45859">
        <ele>1286.86</ele>
        <time>2016-10-31T09:42:23Z</time>
      </trkpt>
      <trkpt lat="42.8364" lon="1.45865">
        <ele>1288.78</ele>
        <time>2016-10-31T09:42:34Z</time>
      </trkpt>
      <trkpt lat="42.83637" lon="1.4587">
        <ele>1291.19</ele>
        <time>2016-10-31T09:42:45Z</time>
      </trkpt>
      <trkpt lat="42.83635" lon="1.45872">
        <ele>1292.63</ele>
        <time>2016-10-31T09:43:07Z</time>
      </trkpt>
      <trkpt lat="42.83635" lon="1.45871">
        <ele>1293.11</ele>
        <time>2016-10-31T09:43:28Z</time>
      </trkpt>
      <trkpt lat="42.83633" lon="1.45861">
        <ele>1294.55</ele>
        <time>2016-10-31T09:43:38Z</time>
      </trkpt>
      <trkpt lat="42.83627" lon="1.45859">
        <ele>1295.99</ele>
        <time>2016-10-31T09:43:50Z</time>
      </trkpt>
      <trkpt lat="42.83629" lon="1.45862">
        <ele>1298.4</ele>
        <time>2016-10-31T09:44:06Z</time>
      </trkpt>
      <trkpt lat="42.83627" lon="1.45863">
        <ele>1299.36</ele>
        <time>2016-10-31T09:44:26Z</time>
      </trkpt>
      <trkpt lat="42.83626" lon="1.4587">
        <ele>1301.28</ele>
        <time>2016-10-31T09:44:35Z</time>
      </trkpt>
      <trkpt lat="42.83622" lon="1.4587">
        <ele>1302.72</ele>
        <time>2016-10-31T09:44:46Z</time>
      </trkpt>
      <trkpt lat="42.83615" lon="1.45865">
        <ele>1305.13</ele>
        <time>2016-10-31T09:44:57Z</time>
      </trkpt>
      <trkpt lat="42.83612" lon="1.45864">
        <ele>1307.53</ele>
        <time>2016-10-31T09:45:09Z</time>
      </trkpt>
      <trkpt lat="42.8361" lon="1.45859">
        <ele>1310.9</ele>
        <time>2016-10-31T09:45:15Z</time>
      </trkpt>
      <trkpt lat="42.8361" lon="1.45856">
        <ele>1311.86</ele>
        <time>2016-10-31T09:45:34Z</time>
      </trkpt>
      <trkpt lat="42.83606" lon="1.45852">
        <ele>1311.86</ele>
        <time>2016-10-31T09:45:46Z</time>
      </trkpt>
      <trkpt lat="42.83604" lon="1.45844">
        <ele>1313.78</ele>
        <time>2016-10-31T09:45:57Z</time>
      </trkpt>
      <trkpt lat="42.83601" lon="1.45837">
        <ele>1315.7</ele>
        <time>2016-10-31T09:46:08Z</time>
      </trkpt>
      <trkpt lat="42.83597" lon="1.45824">
        <ele>1317.62</ele>
        <time>2016-10-31T09:46:20Z</time>
      </trkpt>
      <trkpt lat="42.83596" lon="1.45817">
        <ele>1319.07</ele>
        <time>2016-10-31T09:46:30Z</time>
      </trkpt>
      <trkpt lat="42.83594" lon="1.45808">
        <ele>1320.51</ele>
        <time>2016-10-31T09:46:43Z</time>
      </trkpt>
      <trkpt lat="42.83591" lon="1.45798">
        <ele>1322.43</ele>
        <time>2016-10-31T09:46:53Z</time>
      </trkpt>
      <trkpt lat="42.83587" lon="1.45793">
        <ele>1323.87</ele>
        <time>2016-10-31T09:47:04Z</time>
      </trkpt>
      <trkpt lat="42.83582" lon="1.45788">
        <ele>1326.28</ele>
        <time>2016-10-31T09:47:16Z</time>
      </trkpt>
      <trkpt lat="42.83578" lon="1.45784">
        <ele>1327.72</ele>
        <time>2016-10-31T09:47:25Z</time>
      </trkpt>
      <trkpt lat="42.83573" lon="1.45781">
        <ele>1330.12</ele>
        <time>2016-10-31T09:47:39Z</time>
      </trkpt>
      <trkpt lat="42.8357" lon="1.45775">
        <ele>1331.56</ele>
        <time>2016-10-31T09:47:51Z</time>
      </trkpt>
      <trkpt lat="42.83563" lon="1.45765">
        <ele>1332.52</ele>
        <time>2016-10-31T09:48:02Z</time>
      </trkpt>
      <trkpt lat="42.8356" lon="1.45754">
        <ele>1334.45</ele>
        <time>2016-10-31T09:48:12Z</time>
      </trkpt>
      <trkpt lat="42.83557" lon="1.45746">
        <ele>1335.41</ele>
        <time>2016-10-31T09:48:22Z</time>
      </trkpt>
      <trkpt lat="42.83557" lon="1.45743">
        <ele>1335.89</ele>
        <time>2016-10-31T09:48:43Z</time>
      </trkpt>
      <trkpt lat="42.83557" lon="1.45743">
        <ele>1336.37</ele>
        <time>2016-10-31T09:48:59Z</time>
      </trkpt>
      <trkpt lat="42.83561" lon="1.45744">
        <ele>1336.37</ele>
        <time>2016-10-31T09:49:25Z</time>
      </trkpt>
      <trkpt lat="42.83561" lon="1.45745">
        <ele>1336.37</ele>
        <time>2016-10-31T09:49:49Z</time>
      </trkpt>
      <trkpt lat="42.83561" lon="1.45744">
        <ele>1336.85</ele>
        <time>2016-10-31T09:50:04Z</time>
      </trkpt>
      <trkpt lat="42.83558" lon="1.45731">
        <ele>1337.81</ele>
        <time>2016-10-31T09:50:15Z</time>
      </trkpt>
      <trkpt lat="42.83556" lon="1.45727">
        <ele>1338.29</ele>
        <time>2016-10-31T09:50:20Z</time>
      </trkpt>
      <trkpt lat="42.83549" lon="1.45715">
        <ele>1340.22</ele>
        <time>2016-10-31T09:50:31Z</time>
      </trkpt>
      <trkpt lat="42.83545" lon="1.45703">
        <ele>1342.14</ele>
        <time>2016-10-31T09:50:42Z</time>
      </trkpt>
      <trkpt lat="42.83545" lon="1.45691">
        <ele>1344.06</ele>
        <time>2016-10-31T09:50:52Z</time>
      </trkpt>
      <trkpt lat="42.83544" lon="1.45682">
        <ele>1346.46</ele>
        <time>2016-10-31T09:51:03Z</time>
      </trkpt>
      <trkpt lat="42.83542" lon="1.45675">
        <ele>1349.83</ele>
        <time>2016-10-31T09:51:13Z</time>
      </trkpt>
      <trkpt lat="42.83541" lon="1.45671">
        <ele>1351.75</ele>
        <time>2016-10-31T09:51:23Z</time>
      </trkpt>
      <trkpt lat="42.83535" lon="1.45663">
        <ele>1351.75</ele>
        <time>2016-10-31T09:51:33Z</time>
      </trkpt>
      <trkpt lat="42.83531" lon="1.45652">
        <ele>1352.71</ele>
        <time>2016-10-31T09:51:43Z</time>
      </trkpt>
      <trkpt lat="42.83529" lon="1.45651">
        <ele>1353.19</ele>
        <time>2016-10-31T09:51:49Z</time>
      </trkpt>
      <trkpt lat="42.83521" lon="1.45643">
        <ele>1353.67</ele>
        <time>2016-10-31T09:52:03Z</time>
      </trkpt>
      <trkpt lat="42.8351" lon="1.45638">
        <ele>1353.67</ele>
        <time>2016-10-31T09:52:16Z</time>
      </trkpt>
      <trkpt lat="42.83501" lon="1.45639">
        <ele>1355.12</ele>
        <time>2016-10-31T09:52:27Z</time>
      </trkpt>
      <trkpt lat="42.83491" lon="1.45638">
        <ele>1356.56</ele>
        <time>2016-10-31T09:52:38Z</time>
      </trkpt>
      <trkpt lat="42.83482" lon="1.45639">
        <ele>1358</ele>
        <time>2016-10-31T09:52:49Z</time>
      </trkpt>
      <trkpt lat="42.83476" lon="1.45639">
        <ele>1359.44</ele>
        <time>2016-10-31T09:52:59Z</time>
      </trkpt>
      <trkpt lat="42.83468" lon="1.45635">
        <ele>1359.92</ele>
        <time>2016-10-31T09:53:08Z</time>
      </trkpt>
      <trkpt lat="42.83461" lon="1.45635">
        <ele>1361.36</ele>
        <time>2016-10-31T09:53:19Z</time>
      </trkpt>
      <trkpt lat="42.83461" lon="1.45635">
        <ele>1361.84</ele>
        <time>2016-10-31T09:53:22Z</time>
      </trkpt>
      <trkpt lat="42.83458" lon="1.45635">
        <ele>1363.77</ele>
        <time>2016-10-31T09:53:32Z</time>
      </trkpt>
      <trkpt lat="42.83454" lon="1.45634">
        <ele>1365.21</ele>
        <time>2016-10-31T09:53:43Z</time>
      </trkpt>
      <trkpt lat="42.83447" lon="1.4563">
        <ele>1367.61</ele>
        <time>2016-10-31T09:53:56Z</time>
      </trkpt>
      <trkpt lat="42.8344" lon="1.45627">
        <ele>1369.54</ele>
        <time>2016-10-31T09:54:09Z</time>
      </trkpt>
      <trkpt lat="42.83435" lon="1.45627">
        <ele>1371.94</ele>
        <time>2016-10-31T09:54:20Z</time>
      </trkpt>
      <trkpt lat="42.8343" lon="1.45628">
        <ele>1374.34</ele>
        <time>2016-10-31T09:54:39Z</time>
      </trkpt>
      <trkpt lat="42.83429" lon="1.4563">
        <ele>1376.26</ele>
        <time>2016-10-31T09:54:54Z</time>
      </trkpt>
      <trkpt lat="42.83425" lon="1.4563">
        <ele>1377.23</ele>
        <time>2016-10-31T09:55:05Z</time>
      </trkpt>
      <trkpt lat="42.83422" lon="1.45631">
        <ele>1378.67</ele>
        <time>2016-10-31T09:55:15Z</time>
      </trkpt>
      <trkpt lat="42.83421" lon="1.45634">
        <ele>1381.07</ele>
        <time>2016-10-31T09:55:27Z</time>
      </trkpt>
      <trkpt lat="42.83418" lon="1.45635">
        <ele>1382.03</ele>
        <time>2016-10-31T09:55:40Z</time>
      </trkpt>
      <trkpt lat="42.8341" lon="1.45635">
        <ele>1383.96</ele>
        <time>2016-10-31T09:55:52Z</time>
      </trkpt>
      <trkpt lat="42.83408" lon="1.45636">
        <ele>1384.92</ele>
        <time>2016-10-31T09:55:59Z</time>
      </trkpt>
      <trkpt lat="42.834" lon="1.45635">
        <ele>1388.76</ele>
        <time>2016-10-31T09:56:11Z</time>
      </trkpt>
      <trkpt lat="42.83397" lon="1.45634">
        <ele>1392.13</ele>
        <time>2016-10-31T09:56:19Z</time>
      </trkpt>
      <trkpt lat="42.83396" lon="1.45634">
        <ele>1392.13</ele>
        <time>2016-10-31T09:56:22Z</time>
      </trkpt>
      <trkpt lat="42.83387" lon="1.45626">
        <ele>1392.61</ele>
        <time>2016-10-31T09:56:33Z</time>
      </trkpt>
      <trkpt lat="42.83383" lon="1.45621">
        <ele>1394.05</ele>
        <time>2016-10-31T09:56:47Z</time>
      </trkpt>
      <trkpt lat="42.83381" lon="1.45621">
        <ele>1394.53</ele>
        <time>2016-10-31T09:57:04Z</time>
      </trkpt>
      <trkpt lat="42.83376" lon="1.45619">
        <ele>1395.49</ele>
        <time>2016-10-31T09:57:14Z</time>
      </trkpt>
      <trkpt lat="42.83373" lon="1.45615">
        <ele>1396.45</ele>
        <time>2016-10-31T09:57:18Z</time>
      </trkpt>
      <trkpt lat="42.8337" lon="1.45613">
        <ele>1396.93</ele>
        <time>2016-10-31T09:57:23Z</time>
      </trkpt>
      <trkpt lat="42.83366" lon="1.45612">
        <ele>1397.41</ele>
        <time>2016-10-31T09:57:27Z</time>
      </trkpt>
      <trkpt lat="42.83361" lon="1.4561">
        <ele>1398.86</ele>
        <time>2016-10-31T09:57:39Z</time>
      </trkpt>
      <trkpt lat="42.83357" lon="1.45606">
        <ele>1400.3</ele>
        <time>2016-10-31T09:57:54Z</time>
      </trkpt>
      <trkpt lat="42.83352" lon="1.45601">
        <ele>1400.3</ele>
        <time>2016-10-31T09:58:00Z</time>
      </trkpt>
      <trkpt lat="42.8335" lon="1.45598">
        <ele>1400.3</ele>
        <time>2016-10-31T09:58:03Z</time>
      </trkpt>
      <trkpt lat="42.83348" lon="1.45596">
        <ele>1400.3</ele>
        <time>2016-10-31T09:58:13Z</time>
      </trkpt>
      <trkpt lat="42.83349" lon="1.45592">
        <ele>1400.3</ele>
        <time>2016-10-31T09:58:17Z</time>
      </trkpt>
      <trkpt lat="42.83342" lon="1.4558">
        <ele>1400.3</ele>
        <time>2016-10-31T09:58:28Z</time>
      </trkpt>
      <trkpt lat="42.83335" lon="1.45569">
        <ele>1401.26</ele>
        <time>2016-10-31T09:58:40Z</time>
      </trkpt>
      <trkpt lat="42.83331" lon="1.45567">
        <ele>1401.74</ele>
        <time>2016-10-31T09:58:52Z</time>
      </trkpt>
      <trkpt lat="42.83327" lon="1.45563">
        <ele>1402.22</ele>
        <time>2016-10-31T09:59:16Z</time>
      </trkpt>
      <trkpt lat="42.83329" lon="1.4556">
        <ele>1403.18</ele>
        <time>2016-10-31T09:59:48Z</time>
      </trkpt>
      <trkpt lat="42.83326" lon="1.4556">
        <ele>1403.18</ele>
        <time>2016-10-31T10:00:05Z</time>
      </trkpt>
      <trkpt lat="42.83324" lon="1.45559">
        <ele>1403.18</ele>
        <time>2016-10-31T10:00:07Z</time>
      </trkpt>
      <trkpt lat="42.83317" lon="1.4556">
        <ele>1403.66</ele>
        <time>2016-10-31T10:00:17Z</time>
      </trkpt>
      <trkpt lat="42.83309" lon="1.4556">
        <ele>1404.62</ele>
        <time>2016-10-31T10:00:29Z</time>
      </trkpt>
      <trkpt lat="42.83299" lon="1.45559">
        <ele>1407.03</ele>
        <time>2016-10-31T10:00:42Z</time>
      </trkpt>
      <trkpt lat="42.83294" lon="1.45555">
        <ele>1407.99</ele>
        <time>2016-10-31T10:00:47Z</time>
      </trkpt>
      <trkpt lat="42.83284" lon="1.45545">
        <ele>1408.95</ele>
        <time>2016-10-31T10:01:01Z</time>
      </trkpt>
      <trkpt lat="42.83277" lon="1.4554">
        <ele>1409.43</ele>
        <time>2016-10-31T10:01:11Z</time>
      </trkpt>
      <trkpt lat="42.83272" lon="1.45535">
        <ele>1410.87</ele>
        <time>2016-10-31T10:01:18Z</time>
      </trkpt>
      <trkpt lat="42.83268" lon="1.45531">
        <ele>1411.35</ele>
        <time>2016-10-31T10:01:25Z</time>
      </trkpt>
      <trkpt lat="42.83267" lon="1.45523">
        <ele>1412.31</ele>
        <time>2016-10-31T10:01:35Z</time>
      </trkpt>
      <trkpt lat="42.83266" lon="1.45522">
        <ele>1412.79</ele>
        <time>2016-10-31T10:01:42Z</time>
      </trkpt>
      <trkpt lat="42.83266" lon="1.45519">
        <ele>1413.28</ele>
        <time>2016-10-31T10:01:50Z</time>
      </trkpt>
      <trkpt lat="42.83265" lon="1.45516">
        <ele>1413.76</ele>
        <time>2016-10-31T10:01:54Z</time>
      </trkpt>
      <trkpt lat="42.83262" lon="1.45509">
        <ele>1414.72</ele>
        <time>2016-10-31T10:02:04Z</time>
      </trkpt>
      <trkpt lat="42.83261" lon="1.45502">
        <ele>1416.64</ele>
        <time>2016-10-31T10:02:16Z</time>
      </trkpt>
      <trkpt lat="42.83256" lon="1.45496">
        <ele>1418.08</ele>
        <time>2016-10-31T10:02:26Z</time>
      </trkpt>
      <trkpt lat="42.83254" lon="1.45493">
        <ele>1419.52</ele>
        <time>2016-10-31T10:02:37Z</time>
      </trkpt>
      <trkpt lat="42.83257" lon="1.45487">
        <ele>1420.97</ele>
        <time>2016-10-31T10:02:47Z</time>
      </trkpt>
      <trkpt lat="42.83255" lon="1.45483">
        <ele>1421.93</ele>
        <time>2016-10-31T10:02:55Z</time>
      </trkpt>
      <trkpt lat="42.83255" lon="1.45481">
        <ele>1422.89</ele>
        <time>2016-10-31T10:02:59Z</time>
      </trkpt>
      <trkpt lat="42.83255" lon="1.45476">
        <ele>1424.33</ele>
        <time>2016-10-31T10:03:09Z</time>
      </trkpt>
      <trkpt lat="42.83256" lon="1.45472">
        <ele>1425.77</ele>
        <time>2016-10-31T10:03:21Z</time>
      </trkpt>
      <trkpt lat="42.83259" lon="1.45466">
        <ele>1427.21</ele>
        <time>2016-10-31T10:03:32Z</time>
      </trkpt>
      <trkpt lat="42.83253" lon="1.45459">
        <ele>1429.62</ele>
        <time>2016-10-31T10:03:46Z</time>
      </trkpt>
      <trkpt lat="42.83257" lon="1.45457">
        <ele>1430.58</ele>
        <time>2016-10-31T10:03:52Z</time>
      </trkpt>
      <trkpt lat="42.83262" lon="1.45454">
        <ele>1433.94</ele>
        <time>2016-10-31T10:03:59Z</time>
      </trkpt>
      <trkpt lat="42.83262" lon="1.45447">
        <ele>1435.87</ele>
        <time>2016-10-31T10:04:07Z</time>
      </trkpt>
      <trkpt lat="42.83263" lon="1.4544">
        <ele>1436.35</ele>
        <time>2016-10-31T10:04:17Z</time>
      </trkpt>
      <trkpt lat="42.83266" lon="1.45436">
        <ele>1437.79</ele>
        <time>2016-10-31T10:04:30Z</time>
      </trkpt>
      <trkpt lat="42.83269" lon="1.45434">
        <ele>1439.23</ele>
        <time>2016-10-31T10:04:38Z</time>
      </trkpt>
      <trkpt lat="42.83268" lon="1.45419">
        <ele>1440.67</ele>
        <time>2016-10-31T10:04:50Z</time>
      </trkpt>
      <trkpt lat="42.83266" lon="1.45411">
        <ele>1442.11</ele>
        <time>2016-10-31T10:04:58Z</time>
      </trkpt>
      <trkpt lat="42.83266" lon="1.45407">
        <ele>1442.6</ele>
        <time>2016-10-31T10:05:01Z</time>
      </trkpt>
      <trkpt lat="42.83271" lon="1.45401">
        <ele>1444.04</ele>
        <time>2016-10-31T10:05:12Z</time>
      </trkpt>
      <trkpt lat="42.83275" lon="1.45398">
        <ele>1444.52</ele>
        <time>2016-10-31T10:05:17Z</time>
      </trkpt>
      <trkpt lat="42.83276" lon="1.45396">
        <ele>1444.52</ele>
        <time>2016-10-31T10:05:19Z</time>
      </trkpt>
      <trkpt lat="42.8328" lon="1.45389">
        <ele>1446.44</ele>
        <time>2016-10-31T10:05:29Z</time>
      </trkpt>
      <trkpt lat="42.83281" lon="1.45383">
        <ele>1447.4</ele>
        <time>2016-10-31T10:05:35Z</time>
      </trkpt>
      <trkpt lat="42.83279" lon="1.45374">
        <ele>1448.84</ele>
        <time>2016-10-31T10:05:44Z</time>
      </trkpt>
      <trkpt lat="42.8328" lon="1.45373">
        <ele>1449.32</ele>
        <time>2016-10-31T10:05:45Z</time>
      </trkpt>
      <trkpt lat="42.8328" lon="1.4537">
        <ele>1449.32</ele>
        <time>2016-10-31T10:05:47Z</time>
      </trkpt>
      <trkpt lat="42.83279" lon="1.45365">
        <ele>1450.29</ele>
        <time>2016-10-31T10:05:53Z</time>
      </trkpt>
      <trkpt lat="42.83278" lon="1.45359">
        <ele>1451.25</ele>
        <time>2016-10-31T10:05:58Z</time>
      </trkpt>
      <trkpt lat="42.8328" lon="1.45353">
        <ele>1452.21</ele>
        <time>2016-10-31T10:06:05Z</time>
      </trkpt>
      <trkpt lat="42.83277" lon="1.45344">
        <ele>1453.17</ele>
        <time>2016-10-31T10:06:14Z</time>
      </trkpt>
      <trkpt lat="42.83274" lon="1.45336">
        <ele>1455.09</ele>
        <time>2016-10-31T10:06:24Z</time>
      </trkpt>
      <trkpt lat="42.8327" lon="1.45327">
        <ele>1456.05</ele>
        <time>2016-10-31T10:06:35Z</time>
      </trkpt>
      <trkpt lat="42.83268" lon="1.45325">
        <ele>1457.02</ele>
        <time>2016-10-31T10:06:48Z</time>
      </trkpt>
      <trkpt lat="42.8326" lon="1.45317">
        <ele>1458.46</ele>
        <time>2016-10-31T10:07:00Z</time>
      </trkpt>
      <trkpt lat="42.83253" lon="1.45309">
        <ele>1459.9</ele>
        <time>2016-10-31T10:07:11Z</time>
      </trkpt>
      <trkpt lat="42.83246" lon="1.45305">
        <ele>1461.82</ele>
        <time>2016-10-31T10:07:22Z</time>
      </trkpt>
      <trkpt lat="42.83238" lon="1.45302">
        <ele>1463.26</ele>
        <time>2016-10-31T10:07:33Z</time>
      </trkpt>
      <trkpt lat="42.83235" lon="1.45296">
        <ele>1464.23</ele>
        <time>2016-10-31T10:07:39Z</time>
      </trkpt>
      <trkpt lat="42.83232" lon="1.4529">
        <ele>1465.19</ele>
        <time>2016-10-31T10:07:45Z</time>
      </trkpt>
      <trkpt lat="42.83232" lon="1.45284">
        <ele>1465.67</ele>
        <time>2016-10-31T10:07:51Z</time>
      </trkpt>
      <trkpt lat="42.83232" lon="1.4528">
        <ele>1466.15</ele>
        <time>2016-10-31T10:07:57Z</time>
      </trkpt>
      <trkpt lat="42.83233" lon="1.45279">
        <ele>1466.15</ele>
        <time>2016-10-31T10:07:59Z</time>
      </trkpt>
      <trkpt lat="42.83235" lon="1.45278">
        <ele>1466.63</ele>
        <time>2016-10-31T10:08:07Z</time>
      </trkpt>
      <trkpt lat="42.83236" lon="1.45278">
        <ele>1467.11</ele>
        <time>2016-10-31T10:08:21Z</time>
      </trkpt>
      <trkpt lat="42.83235" lon="1.45278">
        <ele>1467.59</ele>
        <time>2016-10-31T10:08:42Z</time>
      </trkpt>
      <trkpt lat="42.83236" lon="1.45279">
        <ele>1467.59</ele>
        <time>2016-10-31T10:08:57Z</time>
      </trkpt>
      <trkpt lat="42.83237" lon="1.45281">
        <ele>1467.59</ele>
        <time>2016-10-31T10:09:13Z</time>
      </trkpt>
      <trkpt lat="42.83236" lon="1.45284">
        <ele>1467.59</ele>
        <time>2016-10-31T10:09:15Z</time>
      </trkpt>
      <trkpt lat="42.83234" lon="1.45285">
        <ele>1467.59</ele>
        <time>2016-10-31T10:09:18Z</time>
      </trkpt>
      <trkpt lat="42.83235" lon="1.45294">
        <ele>1467.59</ele>
        <time>2016-10-31T10:09:26Z</time>
      </trkpt>
      <trkpt lat="42.83236" lon="1.45297">
        <ele>1467.59</ele>
        <time>2016-10-31T10:09:28Z</time>
      </trkpt>
      <trkpt lat="42.83236" lon="1.453">
        <ele>1467.59</ele>
        <time>2016-10-31T10:09:30Z</time>
      </trkpt>
      <trkpt lat="42.83234" lon="1.45301">
        <ele>1467.59</ele>
        <time>2016-10-31T10:09:33Z</time>
      </trkpt>
      <trkpt lat="42.83232" lon="1.45302">
        <ele>1468.07</ele>
        <time>2016-10-31T10:09:35Z</time>
      </trkpt>
      <trkpt lat="42.8323" lon="1.45303">
        <ele>1468.07</ele>
        <time>2016-10-31T10:09:37Z</time>
      </trkpt>
      <trkpt lat="42.83221" lon="1.45301">
        <ele>1468.07</ele>
        <time>2016-10-31T10:09:49Z</time>
      </trkpt>
      <trkpt lat="42.83214" lon="1.45302">
        <ele>1469.03</ele>
        <time>2016-10-31T10:09:59Z</time>
      </trkpt>
      <trkpt lat="42.83209" lon="1.45304">
        <ele>1470.95</ele>
        <time>2016-10-31T10:10:11Z</time>
      </trkpt>
      <trkpt lat="42.83205" lon="1.45306">
        <ele>1472.4</ele>
        <time>2016-10-31T10:10:21Z</time>
      </trkpt>
      <trkpt lat="42.83202" lon="1.45308">
        <ele>1472.88</ele>
        <time>2016-10-31T10:10:24Z</time>
      </trkpt>
      <trkpt lat="42.83195" lon="1.45302">
        <ele>1474.8</ele>
        <time>2016-10-31T10:10:37Z</time>
      </trkpt>
      <trkpt lat="42.83189" lon="1.453">
        <ele>1475.76</ele>
        <time>2016-10-31T10:10:46Z</time>
      </trkpt>
      <trkpt lat="42.83183" lon="1.45301">
        <ele>1477.68</ele>
        <time>2016-10-31T10:10:58Z</time>
      </trkpt>
      <trkpt lat="42.83181" lon="1.45301">
        <ele>1478.16</ele>
        <time>2016-10-31T10:11:00Z</time>
      </trkpt>
      <trkpt lat="42.83172" lon="1.45299">
        <ele>1481.05</ele>
        <time>2016-10-31T10:11:11Z</time>
      </trkpt>
      <trkpt lat="42.83168" lon="1.45298">
        <ele>1484.41</ele>
        <time>2016-10-31T10:11:20Z</time>
      </trkpt>
      <trkpt lat="42.83167" lon="1.45299">
        <ele>1484.41</ele>
        <time>2016-10-31T10:11:33Z</time>
      </trkpt>
      <trkpt lat="42.83167" lon="1.45297">
        <ele>1484.89</ele>
        <time>2016-10-31T10:11:49Z</time>
      </trkpt>
      <trkpt lat="42.83167" lon="1.45298">
        <ele>1484.89</ele>
        <time>2016-10-31T10:12:06Z</time>
      </trkpt>
      <trkpt lat="42.83166" lon="1.45297">
        <ele>1484.89</ele>
        <time>2016-10-31T10:12:20Z</time>
      </trkpt>
      <trkpt lat="42.83165" lon="1.45298">
        <ele>1484.89</ele>
        <time>2016-10-31T10:12:34Z</time>
      </trkpt>
      <trkpt lat="42.83167" lon="1.45298">
        <ele>1485.37</ele>
        <time>2016-10-31T10:12:49Z</time>
      </trkpt>
      <trkpt lat="42.83166" lon="1.45298">
        <ele>1485.85</ele>
        <time>2016-10-31T10:13:05Z</time>
      </trkpt>
      <trkpt lat="42.83165" lon="1.453">
        <ele>1485.85</ele>
        <time>2016-10-31T10:13:32Z</time>
      </trkpt>
      <trkpt lat="42.83165" lon="1.45298">
        <ele>1485.85</ele>
        <time>2016-10-31T10:13:44Z</time>
      </trkpt>
      <trkpt lat="42.83165" lon="1.45298">
        <ele>1485.85</ele>
        <time>2016-10-31T10:13:58Z</time>
      </trkpt>
      <trkpt lat="42.83165" lon="1.45298">
        <ele>1485.85</ele>
        <time>2016-10-31T10:14:12Z</time>
      </trkpt>
      <trkpt lat="42.83164" lon="1.45299">
        <ele>1486.34</ele>
        <time>2016-10-31T10:14:30Z</time>
      </trkpt>
      <trkpt lat="42.83163" lon="1.45299">
        <ele>1486.34</ele>
        <time>2016-10-31T10:14:55Z</time>
      </trkpt>
      <trkpt lat="42.83164" lon="1.45299">
        <ele>1486.34</ele>
        <time>2016-10-31T10:15:17Z</time>
      </trkpt>
      <trkpt lat="42.83163" lon="1.45298">
        <ele>1486.82</ele>
        <time>2016-10-31T10:15:36Z</time>
      </trkpt>
      <trkpt lat="42.83163" lon="1.45297">
        <ele>1486.82</ele>
        <time>2016-10-31T10:15:54Z</time>
      </trkpt>
      <trkpt lat="42.83163" lon="1.45297">
        <ele>1486.82</ele>
        <time>2016-10-31T10:16:10Z</time>
      </trkpt>
      <trkpt lat="42.83163" lon="1.45296">
        <ele>1486.82</ele>
        <time>2016-10-31T10:16:33Z</time>
      </trkpt>
      <trkpt lat="42.83163" lon="1.45296">
        <ele>1486.82</ele>
        <time>2016-10-31T10:16:47Z</time>
      </trkpt>
      <trkpt lat="42.83162" lon="1.45296">
        <ele>1486.82</ele>
        <time>2016-10-31T10:17:05Z</time>
      </trkpt>
      <trkpt lat="42.83163" lon="1.45296">
        <ele>1487.3</ele>
        <time>2016-10-31T10:17:31Z</time>
      </trkpt>
      <trkpt lat="42.83162" lon="1.45297">
        <ele>1487.3</ele>
        <time>2016-10-31T10:17:52Z</time>
      </trkpt>
      <trkpt lat="42.83162" lon="1.45296">
        <ele>1487.3</ele>
        <time>2016-10-31T10:18:09Z</time>
      </trkpt>
      <trkpt lat="42.83161" lon="1.45296">
        <ele>1487.3</ele>
        <time>2016-10-31T10:18:22Z</time>
      </trkpt>
      <trkpt lat="42.8316" lon="1.45295">
        <ele>1488.26</ele>
        <time>2016-10-31T10:18:42Z</time>
      </trkpt>
      <trkpt lat="42.8316" lon="1.45294">
        <ele>1488.26</ele>
        <time>2016-10-31T10:18:58Z</time>
      </trkpt>
      <trkpt lat="42.8316" lon="1.45294">
        <ele>1488.26</ele>
        <time>2016-10-31T10:19:17Z</time>
      </trkpt>
      <trkpt lat="42.8316" lon="1.45294">
        <ele>1488.26</ele>
        <time>2016-10-31T10:19:33Z</time>
      </trkpt>
      <trkpt lat="42.83163" lon="1.45296">
        <ele>1488.26</ele>
        <time>2016-10-31T10:19:54Z</time>
      </trkpt>
      <trkpt lat="42.83162" lon="1.45296">
        <ele>1488.26</ele>
        <time>2016-10-31T10:20:08Z</time>
      </trkpt>
      <trkpt lat="42.83162" lon="1.45297">
        <ele>1488.26</ele>
        <time>2016-10-31T10:20:25Z</time>
      </trkpt>
      <trkpt lat="42.83161" lon="1.45297">
        <ele>1488.26</ele>
        <time>2016-10-31T10:20:45Z</time>
      </trkpt>
      <trkpt lat="42.8316" lon="1.45297">
        <ele>1488.74</ele>
        <time>2016-10-31T10:21:02Z</time>
      </trkpt>
      <trkpt lat="42.83161" lon="1.45296">
        <ele>1488.74</ele>
        <time>2016-10-31T10:21:21Z</time>
      </trkpt>
      <trkpt lat="42.83161" lon="1.45295">
        <ele>1488.74</ele>
        <time>2016-10-31T10:21:35Z</time>
      </trkpt>
      <trkpt lat="42.8316" lon="1.45296">
        <ele>1488.74</ele>
        <time>2016-10-31T10:21:48Z</time>
      </trkpt>
      <trkpt lat="42.8316" lon="1.45294">
        <ele>1488.74</ele>
        <time>2016-10-31T10:22:01Z</time>
      </trkpt>
      <trkpt lat="42.83161" lon="1.45294">
        <ele>1488.74</ele>
        <time>2016-10-31T10:22:29Z</time>
      </trkpt>
      <trkpt lat="42.83162" lon="1.45294">
        <ele>1488.74</ele>
        <time>2016-10-31T10:22:49Z</time>
      </trkpt>
      <trkpt lat="42.83157" lon="1.45293">
        <ele>1488.74</ele>
        <time>2016-10-31T10:23:00Z</time>
      </trkpt>
      <trkpt lat="42.83153" lon="1.45289">
        <ele>1490.18</ele>
        <time>2016-10-31T10:23:12Z</time>
      </trkpt>
      <trkpt lat="42.83142" lon="1.45291">
        <ele>1491.14</ele>
        <time>2016-10-31T10:23:25Z</time>
      </trkpt>
      <trkpt lat="42.83135" lon="1.45289">
        <ele>1492.58</ele>
        <time>2016-10-31T10:23:35Z</time>
      </trkpt>
      <trkpt lat="42.83127" lon="1.45285">
        <ele>1494.99</ele>
        <time>2016-10-31T10:23:47Z</time>
      </trkpt>
      <trkpt lat="42.83121" lon="1.45282">
        <ele>1496.91</ele>
        <time>2016-10-31T10:23:59Z</time>
      </trkpt>
      <trkpt lat="42.83114" lon="1.45279">
        <ele>1499.79</ele>
        <time>2016-10-31T10:24:13Z</time>
      </trkpt>
      <trkpt lat="42.83112" lon="1.45277">
        <ele>1501.24</ele>
        <time>2016-10-31T10:24:33Z</time>
      </trkpt>
      <trkpt lat="42.83105" lon="1.45276">
        <ele>1502.2</ele>
        <time>2016-10-31T10:24:43Z</time>
      </trkpt>
      <trkpt lat="42.83095" lon="1.45276">
        <ele>1504.6</ele>
        <time>2016-10-31T10:24:56Z</time>
      </trkpt>
      <trkpt lat="42.83093" lon="1.45275">
        <ele>1505.08</ele>
        <time>2016-10-31T10:24:59Z</time>
      </trkpt>
      <trkpt lat="42.83084" lon="1.45272">
        <ele>1506.52</ele>
        <time>2016-10-31T10:25:10Z</time>
      </trkpt>
      <trkpt lat="42.83078" lon="1.45272">
        <ele>1508.45</ele>
        <time>2016-10-31T10:25:21Z</time>
      </trkpt>
      <trkpt lat="42.83076" lon="1.45272">
        <ele>1509.41</ele>
        <time>2016-10-31T10:25:27Z</time>
      </trkpt>
      <trkpt lat="42.83071" lon="1.45273">
        <ele>1511.81</ele>
        <time>2016-10-31T10:25:39Z</time>
      </trkpt>
      <trkpt lat="42.83069" lon="1.45274">
        <ele>1515.18</ele>
        <time>2016-10-31T10:25:45Z</time>
      </trkpt>
      <trkpt lat="42.83067" lon="1.45276">
        <ele>1518.54</ele>
        <time>2016-10-31T10:25:50Z</time>
      </trkpt>
      <trkpt lat="42.83064" lon="1.45275">
        <ele>1519.02</ele>
        <time>2016-10-31T10:26:01Z</time>
      </trkpt>
      <trkpt lat="42.83061" lon="1.45272">
        <ele>1519.98</ele>
        <time>2016-10-31T10:26:13Z</time>
      </trkpt>
      <trkpt lat="42.83056" lon="1.45266">
        <ele>1521.9</ele>
        <time>2016-10-31T10:26:25Z</time>
      </trkpt>
      <trkpt lat="42.83052" lon="1.45266">
        <ele>1523.35</ele>
        <time>2016-10-31T10:26:36Z</time>
      </trkpt>
      <trkpt lat="42.83046" lon="1.4526">
        <ele>1525.75</ele>
        <time>2016-10-31T10:26:48Z</time>
      </trkpt>
      <trkpt lat="42.83044" lon="1.45257">
        <ele>1528.15</ele>
        <time>2016-10-31T10:27:03Z</time>
      </trkpt>
      <trkpt lat="42.83042" lon="1.45252">
        <ele>1529.11</ele>
        <time>2016-10-31T10:27:10Z</time>
      </trkpt>
      <trkpt lat="42.83039" lon="1.45247">
        <ele>1531.04</ele>
        <time>2016-10-31T10:27:20Z</time>
      </trkpt>
      <trkpt lat="42.83039" lon="1.45245">
        <ele>1531.52</ele>
        <time>2016-10-31T10:27:30Z</time>
      </trkpt>
      <trkpt lat="42.83036" lon="1.45244">
        <ele>1532</ele>
        <time>2016-10-31T10:27:36Z</time>
      </trkpt>
      <trkpt lat="42.83035" lon="1.45239">
        <ele>1534.4</ele>
        <time>2016-10-31T10:27:47Z</time>
      </trkpt>
      <trkpt lat="42.83034" lon="1.45238">
        <ele>1535.84</ele>
        <time>2016-10-31T10:27:58Z</time>
      </trkpt>
      <trkpt lat="42.83031" lon="1.45235">
        <ele>1539.69</ele>
        <time>2016-10-31T10:28:04Z</time>
      </trkpt>
      <trkpt lat="42.83021" lon="1.45229">
        <ele>1542.57</ele>
        <time>2016-10-31T10:28:19Z</time>
      </trkpt>
      <trkpt lat="42.83015" lon="1.45227">
        <ele>1543.05</ele>
        <time>2016-10-31T10:28:29Z</time>
      </trkpt>
      <trkpt lat="42.83012" lon="1.45225">
        <ele>1544.5</ele>
        <time>2016-10-31T10:28:39Z</time>
      </trkpt>
      <trkpt lat="42.83016" lon="1.45228">
        <ele>1545.94</ele>
        <time>2016-10-31T10:28:57Z</time>
      </trkpt>
      <trkpt lat="42.8302" lon="1.45234">
        <ele>1548.34</ele>
        <time>2016-10-31T10:29:09Z</time>
      </trkpt>
      <trkpt lat="42.8302" lon="1.45239">
        <ele>1549.78</ele>
        <time>2016-10-31T10:29:21Z</time>
      </trkpt>
      <trkpt lat="42.83016" lon="1.45242">
        <ele>1551.71</ele>
        <time>2016-10-31T10:29:31Z</time>
      </trkpt>
      <trkpt lat="42.83013" lon="1.45243">
        <ele>1552.67</ele>
        <time>2016-10-31T10:29:49Z</time>
      </trkpt>
      <trkpt lat="42.8301" lon="1.4524">
        <ele>1553.15</ele>
        <time>2016-10-31T10:30:04Z</time>
      </trkpt>
      <trkpt lat="42.83006" lon="1.45238">
        <ele>1555.07</ele>
        <time>2016-10-31T10:30:15Z</time>
      </trkpt>
      <trkpt lat="42.83003" lon="1.45238">
        <ele>1557.95</ele>
        <time>2016-10-31T10:30:25Z</time>
      </trkpt>
      <trkpt lat="42.83002" lon="1.45236">
        <ele>1560.84</ele>
        <time>2016-10-31T10:30:30Z</time>
      </trkpt>
      <trkpt lat="42.83" lon="1.45237">
        <ele>1562.76</ele>
        <time>2016-10-31T10:30:42Z</time>
      </trkpt>
      <trkpt lat="42.83001" lon="1.45238">
        <ele>1563.24</ele>
        <time>2016-10-31T10:30:58Z</time>
      </trkpt>
      <trkpt lat="42.83" lon="1.45244">
        <ele>1565.16</ele>
        <time>2016-10-31T10:31:09Z</time>
      </trkpt>
      <trkpt lat="42.83" lon="1.45248">
        <ele>1566.12</ele>
        <time>2016-10-31T10:31:17Z</time>
      </trkpt>
      <trkpt lat="42.83001" lon="1.45254">
        <ele>1569.01</ele>
        <time>2016-10-31T10:31:29Z</time>
      </trkpt>
      <trkpt lat="42.83002" lon="1.45262">
        <ele>1570.45</ele>
        <time>2016-10-31T10:31:39Z</time>
      </trkpt>
      <trkpt lat="42.83001" lon="1.45269">
        <ele>1572.37</ele>
        <time>2016-10-31T10:31:49Z</time>
      </trkpt>
      <trkpt lat="42.82997" lon="1.45272">
        <ele>1574.3</ele>
        <time>2016-10-31T10:31:59Z</time>
      </trkpt>
      <trkpt lat="42.82992" lon="1.45281">
        <ele>1577.18</ele>
        <time>2016-10-31T10:32:13Z</time>
      </trkpt>
      <trkpt lat="42.82991" lon="1.45281">
        <ele>1577.66</ele>
        <time>2016-10-31T10:32:16Z</time>
      </trkpt>
      <trkpt lat="42.82987" lon="1.45275">
        <ele>1580.06</ele>
        <time>2016-10-31T10:32:27Z</time>
      </trkpt>
      <trkpt lat="42.82987" lon="1.45278">
        <ele>1581.99</ele>
        <time>2016-10-31T10:32:37Z</time>
      </trkpt>
      <trkpt lat="42.82986" lon="1.45294">
        <ele>1583.91</ele>
        <time>2016-10-31T10:32:51Z</time>
      </trkpt>
      <trkpt lat="42.82984" lon="1.45298">
        <ele>1585.83</ele>
        <time>2016-10-31T10:33:04Z</time>
      </trkpt>
      <trkpt lat="42.8298" lon="1.45303">
        <ele>1588.24</ele>
        <time>2016-10-31T10:33:15Z</time>
      </trkpt>
      <trkpt lat="42.82977" lon="1.45307">
        <ele>1590.64</ele>
        <time>2016-10-31T10:33:25Z</time>
      </trkpt>
      <trkpt lat="42.82975" lon="1.45309">
        <ele>1594</ele>
        <time>2016-10-31T10:33:31Z</time>
      </trkpt>
      <trkpt lat="42.82975" lon="1.45314">
        <ele>1595.93</ele>
        <time>2016-10-31T10:33:43Z</time>
      </trkpt>
      <trkpt lat="42.82974" lon="1.45316">
        <ele>1596.41</ele>
        <time>2016-10-31T10:33:57Z</time>
      </trkpt>
      <trkpt lat="42.82971" lon="1.4532">
        <ele>1598.33</ele>
        <time>2016-10-31T10:34:08Z</time>
      </trkpt>
      <trkpt lat="42.82971" lon="1.45326">
        <ele>1599.77</ele>
        <time>2016-10-31T10:34:20Z</time>
      </trkpt>
      <trkpt lat="42.8297" lon="1.4533">
        <ele>1603.62</ele>
        <time>2016-10-31T10:34:27Z</time>
      </trkpt>
      <trkpt lat="42.82969" lon="1.45332">
        <ele>1606.98</ele>
        <time>2016-10-31T10:34:33Z</time>
      </trkpt>
      <trkpt lat="42.82966" lon="1.45337">
        <ele>1607.46</ele>
        <time>2016-10-31T10:34:46Z</time>
      </trkpt>
      <trkpt lat="42.82966" lon="1.45341">
        <ele>1608.9</ele>
        <time>2016-10-31T10:34:56Z</time>
      </trkpt>
      <trkpt lat="42.82964" lon="1.45344">
        <ele>1612.27</ele>
        <time>2016-10-31T10:35:08Z</time>
      </trkpt>
      <trkpt lat="42.82962" lon="1.45347">
        <ele>1616.11</ele>
        <time>2016-10-31T10:35:15Z</time>
      </trkpt>
      <trkpt lat="42.82958" lon="1.45351">
        <ele>1617.07</ele>
        <time>2016-10-31T10:35:27Z</time>
      </trkpt>
      <trkpt lat="42.82956" lon="1.45352">
        <ele>1618.04</ele>
        <time>2016-10-31T10:35:39Z</time>
      </trkpt>
      <trkpt lat="42.82957" lon="1.45353">
        <ele>1618.04</ele>
        <time>2016-10-31T10:35:53Z</time>
      </trkpt>
      <trkpt lat="42.82955" lon="1.45353">
        <ele>1618.52</ele>
        <time>2016-10-31T10:36:12Z</time>
      </trkpt>
      <trkpt lat="42.82955" lon="1.45354">
        <ele>1618.52</ele>
        <time>2016-10-31T10:36:28Z</time>
      </trkpt>
      <trkpt lat="42.82956" lon="1.45353">
        <ele>1618.52</ele>
        <time>2016-10-31T10:36:45Z</time>
      </trkpt>
      <trkpt lat="42.82952" lon="1.45357">
        <ele>1619.48</ele>
        <time>2016-10-31T10:36:57Z</time>
      </trkpt>
      <trkpt lat="42.82949" lon="1.45362">
        <ele>1620.44</ele>
        <time>2016-10-31T10:37:04Z</time>
      </trkpt>
      <trkpt lat="42.82947" lon="1.45363">
        <ele>1620.44</ele>
        <time>2016-10-31T10:37:06Z</time>
      </trkpt>
      <trkpt lat="42.82942" lon="1.45363">
        <ele>1620.44</ele>
        <time>2016-10-31T10:37:13Z</time>
      </trkpt>
      <trkpt lat="42.82939" lon="1.45364">
        <ele>1620.92</ele>
        <time>2016-10-31T10:37:17Z</time>
      </trkpt>
      <trkpt lat="42.82933" lon="1.45369">
        <ele>1621.4</ele>
        <time>2016-10-31T10:37:26Z</time>
      </trkpt>
      <trkpt lat="42.82939" lon="1.45383">
        <ele>1623.32</ele>
        <time>2016-10-31T10:37:39Z</time>
      </trkpt>
      <trkpt lat="42.82942" lon="1.45391">
        <ele>1624.28</ele>
        <time>2016-10-31T10:37:49Z</time>
      </trkpt>
      <trkpt lat="42.82941" lon="1.45394">
        <ele>1625.25</ele>
        <time>2016-10-31T10:37:54Z</time>
      </trkpt>
      <trkpt lat="42.82941" lon="1.45402">
        <ele>1626.69</ele>
        <time>2016-10-31T10:38:07Z</time>
      </trkpt>
      <trkpt lat="42.82941" lon="1.45402">
        <ele>1627.17</ele>
        <time>2016-10-31T10:38:23Z</time>
      </trkpt>
      <trkpt lat="42.82942" lon="1.45402">
        <ele>1627.65</ele>
        <time>2016-10-31T10:38:35Z</time>
      </trkpt>
      <trkpt lat="42.82943" lon="1.45401">
        <ele>1627.65</ele>
        <time>2016-10-31T10:38:49Z</time>
      </trkpt>
      <trkpt lat="42.82943" lon="1.454">
        <ele>1627.65</ele>
        <time>2016-10-31T10:39:05Z</time>
      </trkpt>
      <trkpt lat="42.82943" lon="1.45401">
        <ele>1627.65</ele>
        <time>2016-10-31T10:39:31Z</time>
      </trkpt>
      <trkpt lat="42.82943" lon="1.45401">
        <ele>1628.13</ele>
        <time>2016-10-31T10:39:52Z</time>
      </trkpt>
      <trkpt lat="42.82944" lon="1.45403">
        <ele>1628.13</ele>
        <time>2016-10-31T10:40:06Z</time>
      </trkpt>
      <trkpt lat="42.82948" lon="1.45415">
        <ele>1629.09</ele>
        <time>2016-10-31T10:40:19Z</time>
      </trkpt>
      <trkpt lat="42.82944" lon="1.45417">
        <ele>1630.53</ele>
        <time>2016-10-31T10:40:30Z</time>
      </trkpt>
      <trkpt lat="42.82942" lon="1.45419">
        <ele>1630.53</ele>
        <time>2016-10-31T10:40:59Z</time>
      </trkpt>
      <trkpt lat="42.82941" lon="1.45421">
        <ele>1631.01</ele>
        <time>2016-10-31T10:41:15Z</time>
      </trkpt>
      <trkpt lat="42.82938" lon="1.45421">
        <ele>1632.46</ele>
        <time>2016-10-31T10:41:25Z</time>
      </trkpt>
      <trkpt lat="42.82935" lon="1.45421">
        <ele>1633.9</ele>
        <time>2016-10-31T10:41:47Z</time>
      </trkpt>
      <trkpt lat="42.82928" lon="1.45425">
        <ele>1635.82</ele>
        <time>2016-10-31T10:41:57Z</time>
      </trkpt>
      <trkpt lat="42.82922" lon="1.45424">
        <ele>1638.7</ele>
        <time>2016-10-31T10:42:03Z</time>
      </trkpt>
      <trkpt lat="42.82921" lon="1.45424">
        <ele>1640.15</ele>
        <time>2016-10-31T10:42:06Z</time>
      </trkpt>
      <trkpt lat="42.82914" lon="1.45425">
        <ele>1641.11</ele>
        <time>2016-10-31T10:42:17Z</time>
      </trkpt>
      <trkpt lat="42.82908" lon="1.45426">
        <ele>1642.55</ele>
        <time>2016-10-31T10:42:28Z</time>
      </trkpt>
      <trkpt lat="42.82906" lon="1.45428">
        <ele>1643.51</ele>
        <time>2016-10-31T10:42:40Z</time>
      </trkpt>
      <trkpt lat="42.82903" lon="1.45431">
        <ele>1645.43</ele>
        <time>2016-10-31T10:42:51Z</time>
      </trkpt>
      <trkpt lat="42.829" lon="1.45434">
        <ele>1647.84</ele>
        <time>2016-10-31T10:43:03Z</time>
      </trkpt>
      <trkpt lat="42.82903" lon="1.45439">
        <ele>1650.24</ele>
        <time>2016-10-31T10:43:15Z</time>
      </trkpt>
      <trkpt lat="42.82905" lon="1.45444">
        <ele>1651.2</ele>
        <time>2016-10-31T10:43:22Z</time>
      </trkpt>
      <trkpt lat="42.82914" lon="1.45451">
        <ele>1653.6</ele>
        <time>2016-10-31T10:43:35Z</time>
      </trkpt>
      <trkpt lat="42.82922" lon="1.45454">
        <ele>1655.05</ele>
        <time>2016-10-31T10:43:46Z</time>
      </trkpt>
      <trkpt lat="42.82923" lon="1.45455">
        <ele>1655.05</ele>
        <time>2016-10-31T10:43:48Z</time>
      </trkpt>
      <trkpt lat="42.82925" lon="1.45461">
        <ele>1656.97</ele>
        <time>2016-10-31T10:43:57Z</time>
      </trkpt>
      <trkpt lat="42.82925" lon="1.45465">
        <ele>1657.45</ele>
        <time>2016-10-31T10:44:01Z</time>
      </trkpt>
      <trkpt lat="42.82927" lon="1.45475">
        <ele>1658.41</ele>
        <time>2016-10-31T10:44:13Z</time>
      </trkpt>
      <trkpt lat="42.82929" lon="1.45482">
        <ele>1660.81</ele>
        <time>2016-10-31T10:44:24Z</time>
      </trkpt>
      <trkpt lat="42.82931" lon="1.45489">
        <ele>1662.26</ele>
        <time>2016-10-31T10:44:33Z</time>
      </trkpt>
      <trkpt lat="42.82932" lon="1.45491">
        <ele>1662.74</ele>
        <time>2016-10-31T10:44:36Z</time>
      </trkpt>
      <trkpt lat="42.82938" lon="1.45502">
        <ele>1664.66</ele>
        <time>2016-10-31T10:44:48Z</time>
      </trkpt>
      <trkpt lat="42.82943" lon="1.45507">
        <ele>1666.58</ele>
        <time>2016-10-31T10:44:57Z</time>
      </trkpt>
      <trkpt lat="42.82949" lon="1.45511">
        <ele>1667.54</ele>
        <time>2016-10-31T10:45:06Z</time>
      </trkpt>
      <trkpt lat="42.82952" lon="1.4552">
        <ele>1669.95</ele>
        <time>2016-10-31T10:45:18Z</time>
      </trkpt>
      <trkpt lat="42.82952" lon="1.45524">
        <ele>1671.87</ele>
        <time>2016-10-31T10:45:28Z</time>
      </trkpt>
      <trkpt lat="42.82952" lon="1.45527">
        <ele>1673.31</ele>
        <time>2016-10-31T10:45:42Z</time>
      </trkpt>
      <trkpt lat="42.82952" lon="1.45527">
        <ele>1673.79</ele>
        <time>2016-10-31T10:46:16Z</time>
      </trkpt>
      <trkpt lat="42.82951" lon="1.45528">
        <ele>1673.79</ele>
        <time>2016-10-31T10:46:40Z</time>
      </trkpt>
      <trkpt lat="42.8295" lon="1.45529">
        <ele>1673.79</ele>
        <time>2016-10-31T10:46:42Z</time>
      </trkpt>
      <trkpt lat="42.82945" lon="1.45537">
        <ele>1675.23</ele>
        <time>2016-10-31T10:46:52Z</time>
      </trkpt>
      <trkpt lat="42.82944" lon="1.45538">
        <ele>1675.23</ele>
        <time>2016-10-31T10:46:55Z</time>
      </trkpt>
      <trkpt lat="42.82939" lon="1.45541">
        <ele>1676.68</ele>
        <time>2016-10-31T10:47:04Z</time>
      </trkpt>
      <trkpt lat="42.8293" lon="1.4554">
        <ele>1679.08</ele>
        <time>2016-10-31T10:47:16Z</time>
      </trkpt>
      <trkpt lat="42.82925" lon="1.45541">
        <ele>1680.04</ele>
        <time>2016-10-31T10:47:27Z</time>
      </trkpt>
      <trkpt lat="42.8292" lon="1.45544">
        <ele>1681.48</ele>
        <time>2016-10-31T10:47:38Z</time>
      </trkpt>
      <trkpt lat="42.82911" lon="1.45542">
        <ele>1682.93</ele>
        <time>2016-10-31T10:47:53Z</time>
      </trkpt>
      <trkpt lat="42.82909" lon="1.45541">
        <ele>1683.41</ele>
        <time>2016-10-31T10:47:57Z</time>
      </trkpt>
      <trkpt lat="42.82906" lon="1.45539">
        <ele>1683.89</ele>
        <time>2016-10-31T10:48:02Z</time>
      </trkpt>
      <trkpt lat="42.82904" lon="1.45538">
        <ele>1684.85</ele>
        <time>2016-10-31T10:48:04Z</time>
      </trkpt>
      <trkpt lat="42.82895" lon="1.45535">
        <ele>1685.81</ele>
        <time>2016-10-31T10:48:16Z</time>
      </trkpt>
      <trkpt lat="42.82896" lon="1.45535">
        <ele>1687.25</ele>
        <time>2016-10-31T10:48:32Z</time>
      </trkpt>
      <trkpt lat="42.82898" lon="1.45541">
        <ele>1688.69</ele>
        <time>2016-10-31T10:48:49Z</time>
      </trkpt>
      <trkpt lat="42.829" lon="1.45546">
        <ele>1689.65</ele>
        <time>2016-10-31T10:49:01Z</time>
      </trkpt>
      <trkpt lat="42.82901" lon="1.45545">
        <ele>1690.62</ele>
        <time>2016-10-31T10:49:29Z</time>
      </trkpt>
      <trkpt lat="42.82901" lon="1.45549">
        <ele>1691.1</ele>
        <time>2016-10-31T10:49:57Z</time>
      </trkpt>
      <trkpt lat="42.82901" lon="1.45556">
        <ele>1691.58</ele>
        <time>2016-10-31T10:50:09Z</time>
      </trkpt>
      <trkpt lat="42.829" lon="1.45557">
        <ele>1692.06</ele>
        <time>2016-10-31T10:50:32Z</time>
      </trkpt>
      <trkpt lat="42.82895" lon="1.45557">
        <ele>1693.5</ele>
        <time>2016-10-31T10:50:44Z</time>
      </trkpt>
      <trkpt lat="42.82895" lon="1.45562">
        <ele>1694.94</ele>
        <time>2016-10-31T10:50:55Z</time>
      </trkpt>
      <trkpt lat="42.82894" lon="1.45564">
        <ele>1695.42</ele>
        <time>2016-10-31T10:50:57Z</time>
      </trkpt>
      <trkpt lat="42.82893" lon="1.45565">
        <ele>1695.9</ele>
        <time>2016-10-31T10:51:00Z</time>
      </trkpt>
      <trkpt lat="42.82888" lon="1.4557">
        <ele>1697.83</ele>
        <time>2016-10-31T10:51:11Z</time>
      </trkpt>
      <trkpt lat="42.82885" lon="1.45571">
        <ele>1701.19</ele>
        <time>2016-10-31T10:51:18Z</time>
      </trkpt>
      <trkpt lat="42.82882" lon="1.45571">
        <ele>1703.59</ele>
        <time>2016-10-31T10:51:27Z</time>
      </trkpt>
      <trkpt lat="42.82876" lon="1.45573">
        <ele>1704.07</ele>
        <time>2016-10-31T10:51:39Z</time>
      </trkpt>
      <trkpt lat="42.82876" lon="1.45574">
        <ele>1705.04</ele>
        <time>2016-10-31T10:51:57Z</time>
      </trkpt>
      <trkpt lat="42.82869" lon="1.45574">
        <ele>1706.48</ele>
        <time>2016-10-31T10:52:09Z</time>
      </trkpt>
      <trkpt lat="42.82866" lon="1.45576">
        <ele>1708.4</ele>
        <time>2016-10-31T10:52:22Z</time>
      </trkpt>
      <trkpt lat="42.82864" lon="1.45579">
        <ele>1709.84</ele>
        <time>2016-10-31T10:52:27Z</time>
      </trkpt>
      <trkpt lat="42.82859" lon="1.45583">
        <ele>1711.28</ele>
        <time>2016-10-31T10:52:37Z</time>
      </trkpt>
      <trkpt lat="42.82858" lon="1.45586">
        <ele>1713.21</ele>
        <time>2016-10-31T10:52:45Z</time>
      </trkpt>
      <trkpt lat="42.82857" lon="1.45591">
        <ele>1715.13</ele>
        <time>2016-10-31T10:52:56Z</time>
      </trkpt>
      <trkpt lat="42.82853" lon="1.45595">
        <ele>1718.97</ele>
        <time>2016-10-31T10:53:04Z</time>
      </trkpt>
      <trkpt lat="42.8285" lon="1.45597">
        <ele>1720.9</ele>
        <time>2016-10-31T10:53:16Z</time>
      </trkpt>
      <trkpt lat="42.82846" lon="1.45604">
        <ele>1720.9</ele>
        <time>2016-10-31T10:53:26Z</time>
      </trkpt>
      <trkpt lat="42.82846" lon="1.45604">
        <ele>1720.9</ele>
        <time>2016-10-31T10:53:27Z</time>
      </trkpt>
      <trkpt lat="42.82844" lon="1.45608">
        <ele>1721.86</ele>
        <time>2016-10-31T10:53:34Z</time>
      </trkpt>
      <trkpt lat="42.82839" lon="1.45614">
        <ele>1723.3</ele>
        <time>2016-10-31T10:53:45Z</time>
      </trkpt>
      <trkpt lat="42.82838" lon="1.45617">
        <ele>1724.26</ele>
        <time>2016-10-31T10:53:50Z</time>
      </trkpt>
      <trkpt lat="42.82834" lon="1.45627">
        <ele>1726.18</ele>
        <time>2016-10-31T10:54:03Z</time>
      </trkpt>
      <trkpt lat="42.82827" lon="1.45631">
        <ele>1727.63</ele>
        <time>2016-10-31T10:54:15Z</time>
      </trkpt>
      <trkpt lat="42.82824" lon="1.45636">
        <ele>1729.07</ele>
        <time>2016-10-31T10:54:25Z</time>
      </trkpt>
      <trkpt lat="42.82821" lon="1.4564">
        <ele>1731.47</ele>
        <time>2016-10-31T10:54:36Z</time>
      </trkpt>
      <trkpt lat="42.82822" lon="1.45641">
        <ele>1731.47</ele>
        <time>2016-10-31T10:54:37Z</time>
      </trkpt>
      <trkpt lat="42.82823" lon="1.45643">
        <ele>1731.95</ele>
        <time>2016-10-31T10:54:40Z</time>
      </trkpt>
      <trkpt lat="42.82818" lon="1.45649">
        <ele>1733.88</ele>
        <time>2016-10-31T10:54:50Z</time>
      </trkpt>
      <trkpt lat="42.82811" lon="1.45656">
        <ele>1735.32</ele>
        <time>2016-10-31T10:55:03Z</time>
      </trkpt>
      <trkpt lat="42.82805" lon="1.45661">
        <ele>1736.76</ele>
        <time>2016-10-31T10:55:13Z</time>
      </trkpt>
      <trkpt lat="42.828" lon="1.45665">
        <ele>1738.68</ele>
        <time>2016-10-31T10:55:25Z</time>
      </trkpt>
      <trkpt lat="42.828" lon="1.4567">
        <ele>1739.64</ele>
        <time>2016-10-31T10:55:37Z</time>
      </trkpt>
      <trkpt lat="42.82802" lon="1.45672">
        <ele>1742.05</ele>
        <time>2016-10-31T10:55:51Z</time>
      </trkpt>
      <trkpt lat="42.82804" lon="1.45674">
        <ele>1742.53</ele>
        <time>2016-10-31T10:56:12Z</time>
      </trkpt>
      <trkpt lat="42.82806" lon="1.45679">
        <ele>1744.45</ele>
        <time>2016-10-31T10:56:20Z</time>
      </trkpt>
      <trkpt lat="42.82804" lon="1.4569">
        <ele>1746.37</ele>
        <time>2016-10-31T10:56:33Z</time>
      </trkpt>
      <trkpt lat="42.82805" lon="1.45694">
        <ele>1747.33</ele>
        <time>2016-10-31T10:56:37Z</time>
      </trkpt>
      <trkpt lat="42.82808" lon="1.45706">
        <ele>1748.78</ele>
        <time>2016-10-31T10:56:50Z</time>
      </trkpt>
      <trkpt lat="42.82806" lon="1.45711">
        <ele>1751.18</ele>
        <time>2016-10-31T10:57:01Z</time>
      </trkpt>
      <trkpt lat="42.82812" lon="1.45715">
        <ele>1753.58</ele>
        <time>2016-10-31T10:57:13Z</time>
      </trkpt>
      <trkpt lat="42.82814" lon="1.45718">
        <ele>1755.02</ele>
        <time>2016-10-31T10:57:20Z</time>
      </trkpt>
      <trkpt lat="42.82821" lon="1.4572">
        <ele>1757.43</ele>
        <time>2016-10-31T10:57:34Z</time>
      </trkpt>
      <trkpt lat="42.82828" lon="1.45724">
        <ele>1759.83</ele>
        <time>2016-10-31T10:57:46Z</time>
      </trkpt>
      <trkpt lat="42.82831" lon="1.45728">
        <ele>1761.27</ele>
        <time>2016-10-31T10:57:59Z</time>
      </trkpt>
      <trkpt lat="42.82837" lon="1.45732">
        <ele>1762.23</ele>
        <time>2016-10-31T10:58:07Z</time>
      </trkpt>
      <trkpt lat="42.82845" lon="1.45736">
        <ele>1764.64</ele>
        <time>2016-10-31T10:58:18Z</time>
      </trkpt>
      <trkpt lat="42.82848" lon="1.4574">
        <ele>1765.12</ele>
        <time>2016-10-31T10:58:23Z</time>
      </trkpt>
      <trkpt lat="42.82851" lon="1.45744">
        <ele>1766.56</ele>
        <time>2016-10-31T10:58:29Z</time>
      </trkpt>
      <trkpt lat="42.82853" lon="1.45753">
        <ele>1768</ele>
        <time>2016-10-31T10:58:40Z</time>
      </trkpt>
      <trkpt lat="42.8284" lon="1.45757">
        <ele>1771.37</ele>
        <time>2016-10-31T10:58:54Z</time>
      </trkpt>
      <trkpt lat="42.82836" lon="1.45758">
        <ele>1773.29</ele>
        <time>2016-10-31T10:58:58Z</time>
      </trkpt>
      <trkpt lat="42.82833" lon="1.45758">
        <ele>1774.73</ele>
        <time>2016-10-31T10:59:00Z</time>
      </trkpt>
      <trkpt lat="42.82823" lon="1.45761">
        <ele>1775.69</ele>
        <time>2016-10-31T10:59:12Z</time>
      </trkpt>
      <trkpt lat="42.82817" lon="1.45762">
        <ele>1775.69</ele>
        <time>2016-10-31T10:59:25Z</time>
      </trkpt>
      <trkpt lat="42.82812" lon="1.45762">
        <ele>1776.17</ele>
        <time>2016-10-31T10:59:42Z</time>
      </trkpt>
      <trkpt lat="42.82808" lon="1.45763">
        <ele>1776.17</ele>
        <time>2016-10-31T10:59:46Z</time>
      </trkpt>
      <trkpt lat="42.82794" lon="1.45765">
        <ele>1778.1</ele>
        <time>2016-10-31T11:00:01Z</time>
      </trkpt>
      <trkpt lat="42.82781" lon="1.45766">
        <ele>1780.02</ele>
        <time>2016-10-31T11:00:15Z</time>
      </trkpt>
      <trkpt lat="42.82769" lon="1.45768">
        <ele>1780.98</ele>
        <time>2016-10-31T11:00:26Z</time>
      </trkpt>
      <trkpt lat="42.82768" lon="1.45769">
        <ele>1781.94</ele>
        <time>2016-10-31T11:00:28Z</time>
      </trkpt>
      <trkpt lat="42.82765" lon="1.45769">
        <ele>1781.46</ele>
        <time>2016-10-31T11:00:31Z</time>
      </trkpt>
      <trkpt lat="42.82763" lon="1.4577">
        <ele>1781.94</ele>
        <time>2016-10-31T11:00:33Z</time>
      </trkpt>
      <trkpt lat="42.82762" lon="1.45771">
        <ele>1782.42</ele>
        <time>2016-10-31T11:00:35Z</time>
      </trkpt>
      <trkpt lat="42.82756" lon="1.45774">
        <ele>1782.42</ele>
        <time>2016-10-31T11:00:42Z</time>
      </trkpt>
      <trkpt lat="42.82754" lon="1.45774">
        <ele>1782.42</ele>
        <time>2016-10-31T11:00:44Z</time>
      </trkpt>
      <trkpt lat="42.82742" lon="1.45782">
        <ele>1782.42</ele>
        <time>2016-10-31T11:00:56Z</time>
      </trkpt>
      <trkpt lat="42.82732" lon="1.45787">
        <ele>1782.9</ele>
        <time>2016-10-31T11:01:06Z</time>
      </trkpt>
      <trkpt lat="42.82719" lon="1.45792">
        <ele>1783.86</ele>
        <time>2016-10-31T11:01:18Z</time>
      </trkpt>
      <trkpt lat="42.82714" lon="1.45796">
        <ele>1783.86</ele>
        <time>2016-10-31T11:01:24Z</time>
      </trkpt>
      <trkpt lat="42.82709" lon="1.458">
        <ele>1784.82</ele>
        <time>2016-10-31T11:01:29Z</time>
      </trkpt>
      <trkpt lat="42.82703" lon="1.45801">
        <ele>1785.79</ele>
        <time>2016-10-31T11:01:36Z</time>
      </trkpt>
      <trkpt lat="42.82701" lon="1.458">
        <ele>1786.27</ele>
        <time>2016-10-31T11:01:38Z</time>
      </trkpt>
      <trkpt lat="42.82694" lon="1.45803">
        <ele>1788.19</ele>
        <time>2016-10-31T11:01:48Z</time>
      </trkpt>
      <trkpt lat="42.82687" lon="1.45806">
        <ele>1791.07</ele>
        <time>2016-10-31T11:01:58Z</time>
      </trkpt>
      <trkpt lat="42.82683" lon="1.45808">
        <ele>1794.44</ele>
        <time>2016-10-31T11:02:03Z</time>
      </trkpt>
      <trkpt lat="42.82675" lon="1.45812">
        <ele>1795.88</ele>
        <time>2016-10-31T11:02:15Z</time>
      </trkpt>
      <trkpt lat="42.82665" lon="1.45819">
        <ele>1796.36</ele>
        <time>2016-10-31T11:02:27Z</time>
      </trkpt>
      <trkpt lat="42.82655" lon="1.45824">
        <ele>1794.92</ele>
        <time>2016-10-31T11:02:39Z</time>
      </trkpt>
      <trkpt lat="42.82654" lon="1.45824">
        <ele>1794.92</ele>
        <time>2016-10-31T11:02:41Z</time>
      </trkpt>
      <trkpt lat="42.8265" lon="1.45825">
        <ele>1794.44</ele>
        <time>2016-10-31T11:02:44Z</time>
      </trkpt>
      <trkpt lat="42.82648" lon="1.45828">
        <ele>1793.96</ele>
        <time>2016-10-31T11:02:48Z</time>
      </trkpt>
      <trkpt lat="42.82644" lon="1.45834">
        <ele>1793.48</ele>
        <time>2016-10-31T11:02:55Z</time>
      </trkpt>
      <trkpt lat="42.82642" lon="1.45835">
        <ele>1793.48</ele>
        <time>2016-10-31T11:02:57Z</time>
      </trkpt>
      <trkpt lat="42.82639" lon="1.45838">
        <ele>1793.48</ele>
        <time>2016-10-31T11:03:02Z</time>
      </trkpt>
      <trkpt lat="42.82638" lon="1.45841">
        <ele>1793.48</ele>
        <time>2016-10-31T11:03:05Z</time>
      </trkpt>
      <trkpt lat="42.82638" lon="1.45844">
        <ele>1793</ele>
        <time>2016-10-31T11:03:07Z</time>
      </trkpt>
      <trkpt lat="42.82638" lon="1.45851">
        <ele>1793</ele>
        <time>2016-10-31T11:03:13Z</time>
      </trkpt>
      <trkpt lat="42.82636" lon="1.45862">
        <ele>1793</ele>
        <time>2016-10-31T11:03:26Z</time>
      </trkpt>
      <trkpt lat="42.82634" lon="1.45867">
        <ele>1793</ele>
        <time>2016-10-31T11:03:31Z</time>
      </trkpt>
      <trkpt lat="42.82626" lon="1.45879">
        <ele>1794.44</ele>
        <time>2016-10-31T11:03:43Z</time>
      </trkpt>
      <trkpt lat="42.82626" lon="1.45881">
        <ele>1794.92</ele>
        <time>2016-10-31T11:03:45Z</time>
      </trkpt>
      <trkpt lat="42.82619" lon="1.4589">
        <ele>1795.88</ele>
        <time>2016-10-31T11:03:57Z</time>
      </trkpt>
      <trkpt lat="42.8262" lon="1.45892">
        <ele>1797.32</ele>
        <time>2016-10-31T11:04:11Z</time>
      </trkpt>
      <trkpt lat="42.8262" lon="1.45895">
        <ele>1797.8</ele>
        <time>2016-10-31T11:04:31Z</time>
      </trkpt>
      <trkpt lat="42.82619" lon="1.45898">
        <ele>1798.28</ele>
        <time>2016-10-31T11:04:45Z</time>
      </trkpt>
      <trkpt lat="42.82618" lon="1.45898">
        <ele>1798.76</ele>
        <time>2016-10-31T11:04:59Z</time>
      </trkpt>
      <trkpt lat="42.82618" lon="1.45899">
        <ele>1798.76</ele>
        <time>2016-10-31T11:05:18Z</time>
      </trkpt>
      <trkpt lat="42.82617" lon="1.45899">
        <ele>1798.76</ele>
        <time>2016-10-31T11:05:40Z</time>
      </trkpt>
      <trkpt lat="42.82617" lon="1.45898">
        <ele>1798.76</ele>
        <time>2016-10-31T11:05:55Z</time>
      </trkpt>
      <trkpt lat="42.82614" lon="1.45899">
        <ele>1798.76</ele>
        <time>2016-10-31T11:06:07Z</time>
      </trkpt>
      <trkpt lat="42.82614" lon="1.45899">
        <ele>1798.76</ele>
        <time>2016-10-31T11:06:29Z</time>
      </trkpt>
      <trkpt lat="42.82616" lon="1.45899">
        <ele>1798.76</ele>
        <time>2016-10-31T11:06:53Z</time>
      </trkpt>
      <trkpt lat="42.82615" lon="1.459">
        <ele>1798.76</ele>
        <time>2016-10-31T11:07:08Z</time>
      </trkpt>
      <trkpt lat="42.82612" lon="1.459">
        <ele>1798.76</ele>
        <time>2016-10-31T11:07:11Z</time>
      </trkpt>
      <trkpt lat="42.82603" lon="1.45902">
        <ele>1798.76</ele>
        <time>2016-10-31T11:07:20Z</time>
      </trkpt>
      <trkpt lat="42.82591" lon="1.45903">
        <ele>1798.76</ele>
        <time>2016-10-31T11:07:33Z</time>
      </trkpt>
      <trkpt lat="42.82587" lon="1.45903">
        <ele>1798.76</ele>
        <time>2016-10-31T11:07:36Z</time>
      </trkpt>
      <trkpt lat="42.82584" lon="1.459">
        <ele>1798.76</ele>
        <time>2016-10-31T11:07:41Z</time>
      </trkpt>
      <trkpt lat="42.82579" lon="1.45894">
        <ele>1798.76</ele>
        <time>2016-10-31T11:07:55Z</time>
      </trkpt>
      <trkpt lat="42.82571" lon="1.4589">
        <ele>1797.32</ele>
        <time>2016-10-31T11:08:09Z</time>
      </trkpt>
      <trkpt lat="42.82569" lon="1.45889">
        <ele>1796.36</ele>
        <time>2016-10-31T11:08:26Z</time>
      </trkpt>
      <trkpt lat="42.82566" lon="1.45887">
        <ele>1795.88</ele>
        <time>2016-10-31T11:08:43Z</time>
      </trkpt>
      <trkpt lat="42.82562" lon="1.45886">
        <ele>1795.4</ele>
        <time>2016-10-31T11:08:52Z</time>
      </trkpt>
      <trkpt lat="42.82562" lon="1.45886">
        <ele>1794.44</ele>
        <time>2016-10-31T11:09:19Z</time>
      </trkpt>
      <trkpt lat="42.82563" lon="1.45886">
        <ele>1794.44</ele>
        <time>2016-10-31T11:09:45Z</time>
      </trkpt>
      <trkpt lat="42.82563" lon="1.45885">
        <ele>1794.44</ele>
        <time>2016-10-31T11:10:12Z</time>
      </trkpt>
      <trkpt lat="42.82563" lon="1.45886">
        <ele>1794.92</ele>
        <time>2016-10-31T11:10:34Z</time>
      </trkpt>
      <trkpt lat="42.82563" lon="1.45886">
        <ele>1794.92</ele>
        <time>2016-10-31T11:11:01Z</time>
      </trkpt>
      <trkpt lat="42.82563" lon="1.45886">
        <ele>1794.92</ele>
        <time>2016-10-31T11:11:27Z</time>
      </trkpt>
      <trkpt lat="42.82563" lon="1.45887">
        <ele>1794.92</ele>
        <time>2016-10-31T11:11:52Z</time>
      </trkpt>
      <trkpt lat="42.82563" lon="1.45889">
        <ele>1794.92</ele>
        <time>2016-10-31T11:12:13Z</time>
      </trkpt>
      <trkpt lat="42.82563" lon="1.45888">
        <ele>1794.92</ele>
        <time>2016-10-31T11:12:16Z</time>
      </trkpt>
      <trkpt lat="42.82571" lon="1.4589">
        <ele>1796.36</ele>
        <time>2016-10-31T11:12:29Z</time>
      </trkpt>
      <trkpt lat="42.82577" lon="1.4589">
        <ele>1796.84</ele>
        <time>2016-10-31T11:12:39Z</time>
      </trkpt>
      <trkpt lat="42.82584" lon="1.45893">
        <ele>1797.32</ele>
        <time>2016-10-31T11:12:51Z</time>
      </trkpt>
      <trkpt lat="42.8259" lon="1.45895">
        <ele>1798.28</ele>
        <time>2016-10-31T11:12:58Z</time>
      </trkpt>
      <trkpt lat="42.82592" lon="1.45896">
        <ele>1798.28</ele>
        <time>2016-10-31T11:13:01Z</time>
      </trkpt>
      <trkpt lat="42.82597" lon="1.45894">
        <ele>1798.76</ele>
        <time>2016-10-31T11:13:07Z</time>
      </trkpt>
      <trkpt lat="42.826" lon="1.459">
        <ele>1798.76</ele>
        <time>2016-10-31T11:13:17Z</time>
      </trkpt>
      <trkpt lat="42.82603" lon="1.459">
        <ele>1799.24</ele>
        <time>2016-10-31T11:13:28Z</time>
      </trkpt>
      <trkpt lat="42.82613" lon="1.459">
        <ele>1799.73</ele>
        <time>2016-10-31T11:13:41Z</time>
      </trkpt>
      <trkpt lat="42.82617" lon="1.459">
        <ele>1799.73</ele>
        <time>2016-10-31T11:13:55Z</time>
      </trkpt>
      <trkpt lat="42.82616" lon="1.459">
        <ele>1799.73</ele>
        <time>2016-10-31T11:14:04Z</time>
      </trkpt>
      <trkpt lat="42.8262" lon="1.45897">
        <ele>1799.73</ele>
        <time>2016-10-31T11:14:09Z</time>
      </trkpt>
      <trkpt lat="42.82624" lon="1.45887">
        <ele>1799.73</ele>
        <time>2016-10-31T11:14:20Z</time>
      </trkpt>
      <trkpt lat="42.82629" lon="1.45876">
        <ele>1798.76</ele>
        <time>2016-10-31T11:14:28Z</time>
      </trkpt>
      <trkpt lat="42.82633" lon="1.4587">
        <ele>1797.8</ele>
        <time>2016-10-31T11:14:35Z</time>
      </trkpt>
      <trkpt lat="42.82638" lon="1.45865">
        <ele>1797.32</ele>
        <time>2016-10-31T11:14:41Z</time>
      </trkpt>
      <trkpt lat="42.82643" lon="1.45864">
        <ele>1796.84</ele>
        <time>2016-10-31T11:14:45Z</time>
      </trkpt>
      <trkpt lat="42.82648" lon="1.45858">
        <ele>1796.36</ele>
        <time>2016-10-31T11:14:55Z</time>
      </trkpt>
      <trkpt lat="42.82654" lon="1.4586">
        <ele>1798.28</ele>
        <time>2016-10-31T11:15:07Z</time>
      </trkpt>
      <trkpt lat="42.82653" lon="1.45857">
        <ele>1799.73</ele>
        <time>2016-10-31T11:15:12Z</time>
      </trkpt>
      <trkpt lat="42.82655" lon="1.45854">
        <ele>1800.69</ele>
        <time>2016-10-31T11:15:19Z</time>
      </trkpt>
      <trkpt lat="42.82659" lon="1.45851">
        <ele>1803.09</ele>
        <time>2016-10-31T11:15:30Z</time>
      </trkpt>
      <trkpt lat="42.82663" lon="1.45852">
        <ele>1806.94</ele>
        <time>2016-10-31T11:15:41Z</time>
      </trkpt>
      <trkpt lat="42.82667" lon="1.45853">
        <ele>1810.3</ele>
        <time>2016-10-31T11:15:49Z</time>
      </trkpt>
      <trkpt lat="42.82669" lon="1.45851">
        <ele>1810.3</ele>
        <time>2016-10-31T11:15:54Z</time>
      </trkpt>
      <trkpt lat="42.82674" lon="1.45852">
        <ele>1810.3</ele>
        <time>2016-10-31T11:16:05Z</time>
      </trkpt>
      <trkpt lat="42.82676" lon="1.45851">
        <ele>1810.3</ele>
        <time>2016-10-31T11:16:33Z</time>
      </trkpt>
      <trkpt lat="42.82675" lon="1.45849">
        <ele>1810.3</ele>
        <time>2016-10-31T11:16:59Z</time>
      </trkpt>
      <trkpt lat="42.82675" lon="1.4585">
        <ele>1810.3</ele>
        <time>2016-10-31T11:17:19Z</time>
      </trkpt>
      <trkpt lat="42.82675" lon="1.4585">
        <ele>1810.3</ele>
        <time>2016-10-31T11:17:46Z</time>
      </trkpt>
      <trkpt lat="42.82675" lon="1.4585">
        <ele>1810.3</ele>
        <time>2016-10-31T11:18:09Z</time>
      </trkpt>
      <trkpt lat="42.82675" lon="1.45851">
        <ele>1810.3</ele>
        <time>2016-10-31T11:18:37Z</time>
      </trkpt>
      <trkpt lat="42.82675" lon="1.45851">
        <ele>1810.3</ele>
        <time>2016-10-31T11:18:59Z</time>
      </trkpt>
      <trkpt lat="42.82674" lon="1.45851">
        <ele>1810.3</ele>
        <time>2016-10-31T11:19:23Z</time>
      </trkpt>
      <trkpt lat="42.82673" lon="1.4585">
        <ele>1810.3</ele>
        <time>2016-10-31T11:19:24Z</time>
      </trkpt>
      <trkpt lat="42.8267" lon="1.45849">
        <ele>1810.3</ele>
        <time>2016-10-31T11:19:42Z</time>
      </trkpt>
      <trkpt lat="42.82669" lon="1.4585">
        <ele>1810.3</ele>
        <time>2016-10-31T11:19:50Z</time>
      </trkpt>
      <trkpt lat="42.82661" lon="1.45852">
        <ele>1808.86</ele>
        <time>2016-10-31T11:20:03Z</time>
      </trkpt>
      <trkpt lat="42.82657" lon="1.4585">
        <ele>1806.45</ele>
        <time>2016-10-31T11:20:15Z</time>
      </trkpt>
      <trkpt lat="42.82654" lon="1.45852">
        <ele>1804.05</ele>
        <time>2016-10-31T11:20:30Z</time>
      </trkpt>
      <trkpt lat="42.82652" lon="1.45851">
        <ele>1803.57</ele>
        <time>2016-10-31T11:20:33Z</time>
      </trkpt>
      <trkpt lat="42.8265" lon="1.4585">
        <ele>1802.61</ele>
        <time>2016-10-31T11:20:42Z</time>
      </trkpt>
      <trkpt lat="42.82648" lon="1.45853">
        <ele>1800.21</ele>
        <time>2016-10-31T11:20:54Z</time>
      </trkpt>
      <trkpt lat="42.82644" lon="1.45854">
        <ele>1798.76</ele>
        <time>2016-10-31T11:21:05Z</time>
      </trkpt>
      <trkpt lat="42.82642" lon="1.45855">
        <ele>1797.8</ele>
        <time>2016-10-31T11:21:13Z</time>
      </trkpt>
      <trkpt lat="42.82641" lon="1.45857">
        <ele>1796.84</ele>
        <time>2016-10-31T11:21:15Z</time>
      </trkpt>
      <trkpt lat="42.82637" lon="1.45863">
        <ele>1796.36</ele>
        <time>2016-10-31T11:21:22Z</time>
      </trkpt>
      <trkpt lat="42.8263" lon="1.45873">
        <ele>1796.36</ele>
        <time>2016-10-31T11:21:33Z</time>
      </trkpt>
      <trkpt lat="42.82629" lon="1.45874">
        <ele>1796.36</ele>
        <time>2016-10-31T11:21:35Z</time>
      </trkpt>
      <trkpt lat="42.82624" lon="1.45884">
        <ele>1797.8</ele>
        <time>2016-10-31T11:21:46Z</time>
      </trkpt>
      <trkpt lat="42.82623" lon="1.45885">
        <ele>1797.8</ele>
        <time>2016-10-31T11:21:47Z</time>
      </trkpt>
      <trkpt lat="42.82621" lon="1.45886">
        <ele>1797.8</ele>
        <time>2016-10-31T11:21:49Z</time>
      </trkpt>
      <trkpt lat="42.82618" lon="1.4589">
        <ele>1797.8</ele>
        <time>2016-10-31T11:21:53Z</time>
      </trkpt>
      <trkpt lat="42.82611" lon="1.45896">
        <ele>1798.76</ele>
        <time>2016-10-31T11:22:00Z</time>
      </trkpt>
      <trkpt lat="42.82599" lon="1.459">
        <ele>1799.24</ele>
        <time>2016-10-31T11:22:12Z</time>
      </trkpt>
      <trkpt lat="42.82598" lon="1.459">
        <ele>1799.24</ele>
        <time>2016-10-31T11:22:13Z</time>
      </trkpt>
      <trkpt lat="42.82596" lon="1.45901">
        <ele>1799.24</ele>
        <time>2016-10-31T11:22:15Z</time>
      </trkpt>
      <trkpt lat="42.8258" lon="1.45902">
        <ele>1799.73</ele>
        <time>2016-10-31T11:22:30Z</time>
      </trkpt>
      <trkpt lat="42.82568" lon="1.45906">
        <ele>1799.73</ele>
        <time>2016-10-31T11:22:42Z</time>
      </trkpt>
      <trkpt lat="42.82567" lon="1.45907">
        <ele>1799.73</ele>
        <time>2016-10-31T11:22:43Z</time>
      </trkpt>
      <trkpt lat="42.82557" lon="1.4591">
        <ele>1800.21</ele>
        <time>2016-10-31T11:22:53Z</time>
      </trkpt>
      <trkpt lat="42.82546" lon="1.45909">
        <ele>1801.17</ele>
        <time>2016-10-31T11:23:06Z</time>
      </trkpt>
      <trkpt lat="42.82542" lon="1.45909">
        <ele>1801.17</ele>
        <time>2016-10-31T11:23:10Z</time>
      </trkpt>
      <trkpt lat="42.82535" lon="1.45906">
        <ele>1801.65</ele>
        <time>2016-10-31T11:23:23Z</time>
      </trkpt>
      <trkpt lat="42.8253" lon="1.45906">
        <ele>1801.65</ele>
        <time>2016-10-31T11:23:38Z</time>
      </trkpt>
      <trkpt lat="42.82525" lon="1.45904">
        <ele>1801.65</ele>
        <time>2016-10-31T11:23:42Z</time>
      </trkpt>
      <trkpt lat="42.82518" lon="1.45905">
        <ele>1801.65</ele>
        <time>2016-10-31T11:23:49Z</time>
      </trkpt>
      <trkpt lat="42.82514" lon="1.45906">
        <ele>1801.65</ele>
        <time>2016-10-31T11:23:53Z</time>
      </trkpt>
      <trkpt lat="42.82506" lon="1.45906">
        <ele>1801.65</ele>
        <time>2016-10-31T11:24:02Z</time>
      </trkpt>
      <trkpt lat="42.82505" lon="1.45908">
        <ele>1801.65</ele>
        <time>2016-10-31T11:24:05Z</time>
      </trkpt>
      <trkpt lat="42.82498" lon="1.45914">
        <ele>1801.65</ele>
        <time>2016-10-31T11:24:16Z</time>
      </trkpt>
      <trkpt lat="42.82495" lon="1.45915">
        <ele>1802.13</ele>
        <time>2016-10-31T11:24:19Z</time>
      </trkpt>
      <trkpt lat="42.82492" lon="1.45918">
        <ele>1803.57</ele>
        <time>2016-10-31T11:24:24Z</time>
      </trkpt>
      <trkpt lat="42.82489" lon="1.45917">
        <ele>1804.05</ele>
        <time>2016-10-31T11:24:28Z</time>
      </trkpt>
      <trkpt lat="42.82486" lon="1.45919">
        <ele>1805.97</ele>
        <time>2016-10-31T11:24:31Z</time>
      </trkpt>
      <trkpt lat="42.82485" lon="1.4592">
        <ele>1806.94</ele>
        <time>2016-10-31T11:24:33Z</time>
      </trkpt>
      <trkpt lat="42.82479" lon="1.45921">
        <ele>1808.38</ele>
        <time>2016-10-31T11:24:40Z</time>
      </trkpt>
      <trkpt lat="42.82476" lon="1.45922">
        <ele>1808.38</ele>
        <time>2016-10-31T11:24:42Z</time>
      </trkpt>
      <trkpt lat="42.82473" lon="1.45923">
        <ele>1808.38</ele>
        <time>2016-10-31T11:24:46Z</time>
      </trkpt>
      <trkpt lat="42.82464" lon="1.45928">
        <ele>1808.38</ele>
        <time>2016-10-31T11:24:58Z</time>
      </trkpt>
      <trkpt lat="42.8246" lon="1.4593">
        <ele>1808.38</ele>
        <time>2016-10-31T11:25:03Z</time>
      </trkpt>
      <trkpt lat="42.82458" lon="1.4593">
        <ele>1808.38</ele>
        <time>2016-10-31T11:25:05Z</time>
      </trkpt>
      <trkpt lat="42.8245" lon="1.4593">
        <ele>1806.94</ele>
        <time>2016-10-31T11:25:13Z</time>
      </trkpt>
      <trkpt lat="42.82443" lon="1.45935">
        <ele>1806.94</ele>
        <time>2016-10-31T11:25:20Z</time>
      </trkpt>
      <trkpt lat="42.8244" lon="1.45938">
        <ele>1806.45</ele>
        <time>2016-10-31T11:25:25Z</time>
      </trkpt>
      <trkpt lat="42.82438" lon="1.45941">
        <ele>1806.45</ele>
        <time>2016-10-31T11:25:29Z</time>
      </trkpt>
      <trkpt lat="42.82435" lon="1.45942">
        <ele>1806.45</ele>
        <time>2016-10-31T11:25:39Z</time>
      </trkpt>
      <trkpt lat="42.82432" lon="1.45944">
        <ele>1806.45</ele>
        <time>2016-10-31T11:25:53Z</time>
      </trkpt>
      <trkpt lat="42.82434" lon="1.45945">
        <ele>1806.45</ele>
        <time>2016-10-31T11:26:08Z</time>
      </trkpt>
      <trkpt lat="42.82431" lon="1.45945">
        <ele>1805.97</ele>
        <time>2016-10-31T11:26:24Z</time>
      </trkpt>
      <trkpt lat="42.82424" lon="1.45949">
        <ele>1805.49</ele>
        <time>2016-10-31T11:26:36Z</time>
      </trkpt>
      <trkpt lat="42.82423" lon="1.45949">
        <ele>1805.01</ele>
        <time>2016-10-31T11:26:56Z</time>
      </trkpt>
      <trkpt lat="42.82422" lon="1.45949">
        <ele>1805.01</ele>
        <time>2016-10-31T11:27:02Z</time>
      </trkpt>
      <trkpt lat="42.82416" lon="1.45947">
        <ele>1804.05</ele>
        <time>2016-10-31T11:27:15Z</time>
      </trkpt>
      <trkpt lat="42.82415" lon="1.45947">
        <ele>1804.05</ele>
        <time>2016-10-31T11:27:32Z</time>
      </trkpt>
      <trkpt lat="42.82414" lon="1.45946">
        <ele>1804.05</ele>
        <time>2016-10-31T11:27:38Z</time>
      </trkpt>
      <trkpt lat="42.82407" lon="1.45945">
        <ele>1803.09</ele>
        <time>2016-10-31T11:27:51Z</time>
      </trkpt>
      <trkpt lat="42.82401" lon="1.45956">
        <ele>1801.17</ele>
        <time>2016-10-31T11:28:04Z</time>
      </trkpt>
      <trkpt lat="42.82396" lon="1.45959">
        <ele>1799.24</ele>
        <time>2016-10-31T11:28:21Z</time>
      </trkpt>
      <trkpt lat="42.82395" lon="1.45962">
        <ele>1799.24</ele>
        <time>2016-10-31T11:28:26Z</time>
      </trkpt>
      <trkpt lat="42.82389" lon="1.45973">
        <ele>1796.84</ele>
        <time>2016-10-31T11:28:37Z</time>
      </trkpt>
      <trkpt lat="42.82382" lon="1.45979">
        <ele>1795.4</ele>
        <time>2016-10-31T11:28:48Z</time>
      </trkpt>
      <trkpt lat="42.82377" lon="1.45985">
        <ele>1795.4</ele>
        <time>2016-10-31T11:28:59Z</time>
      </trkpt>
      <trkpt lat="42.82374" lon="1.45988">
        <ele>1794.92</ele>
        <time>2016-10-31T11:29:10Z</time>
      </trkpt>
      <trkpt lat="42.8237" lon="1.45991">
        <ele>1794.92</ele>
        <time>2016-10-31T11:29:19Z</time>
      </trkpt>
      <trkpt lat="42.8237" lon="1.4599">
        <ele>1794.92</ele>
        <time>2016-10-31T11:29:44Z</time>
      </trkpt>
      <trkpt lat="42.82369" lon="1.45992">
        <ele>1794.92</ele>
        <time>2016-10-31T11:29:46Z</time>
      </trkpt>
      <trkpt lat="42.82368" lon="1.46">
        <ele>1794.92</ele>
        <time>2016-10-31T11:29:59Z</time>
      </trkpt>
      <trkpt lat="42.82368" lon="1.46003">
        <ele>1794.92</ele>
        <time>2016-10-31T11:30:02Z</time>
      </trkpt>
      <trkpt lat="42.82362" lon="1.46006">
        <ele>1794.44</ele>
        <time>2016-10-31T11:30:07Z</time>
      </trkpt>
      <trkpt lat="42.82352" lon="1.46012">
        <ele>1793</ele>
        <time>2016-10-31T11:30:22Z</time>
      </trkpt>
      <trkpt lat="42.82346" lon="1.46017">
        <ele>1793</ele>
        <time>2016-10-31T11:30:33Z</time>
      </trkpt>
      <trkpt lat="42.8234" lon="1.4602">
        <ele>1793</ele>
        <time>2016-10-31T11:30:41Z</time>
      </trkpt>
      <trkpt lat="42.82328" lon="1.46021">
        <ele>1793</ele>
        <time>2016-10-31T11:30:54Z</time>
      </trkpt>
      <trkpt lat="42.82319" lon="1.46024">
        <ele>1793</ele>
        <time>2016-10-31T11:31:05Z</time>
      </trkpt>
      <trkpt lat="42.82311" lon="1.46026">
        <ele>1793</ele>
        <time>2016-10-31T11:31:16Z</time>
      </trkpt>
      <trkpt lat="42.82307" lon="1.46029">
        <ele>1793</ele>
        <time>2016-10-31T11:31:22Z</time>
      </trkpt>
      <trkpt lat="42.82297" lon="1.4603">
        <ele>1791.55</ele>
        <time>2016-10-31T11:31:35Z</time>
      </trkpt>
      <trkpt lat="42.82289" lon="1.46032">
        <ele>1790.11</ele>
        <time>2016-10-31T11:31:48Z</time>
      </trkpt>
      <trkpt lat="42.82283" lon="1.46033">
        <ele>1788.19</ele>
        <time>2016-10-31T11:32:01Z</time>
      </trkpt>
      <trkpt lat="42.82281" lon="1.46031">
        <ele>1786.75</ele>
        <time>2016-10-31T11:32:12Z</time>
      </trkpt>
      <trkpt lat="42.82276" lon="1.46033">
        <ele>1785.31</ele>
        <time>2016-10-31T11:32:26Z</time>
      </trkpt>
      <trkpt lat="42.82276" lon="1.46034">
        <ele>1785.31</ele>
        <time>2016-10-31T11:32:29Z</time>
      </trkpt>
      <trkpt lat="42.82278" lon="1.46037">
        <ele>1784.82</ele>
        <time>2016-10-31T11:32:33Z</time>
      </trkpt>
      <trkpt lat="42.82277" lon="1.46042">
        <ele>1783.86</ele>
        <time>2016-10-31T11:32:39Z</time>
      </trkpt>
      <trkpt lat="42.82278" lon="1.46046">
        <ele>1782.9</ele>
        <time>2016-10-31T11:32:43Z</time>
      </trkpt>
      <trkpt lat="42.82272" lon="1.46053">
        <ele>1781.46</ele>
        <time>2016-10-31T11:32:54Z</time>
      </trkpt>
      <trkpt lat="42.82265" lon="1.46058">
        <ele>1780.02</ele>
        <time>2016-10-31T11:33:07Z</time>
      </trkpt>
      <trkpt lat="42.82266" lon="1.46058">
        <ele>1778.58</ele>
        <time>2016-10-31T11:33:27Z</time>
      </trkpt>
      <trkpt lat="42.82265" lon="1.46058">
        <ele>1778.1</ele>
        <time>2016-10-31T11:33:53Z</time>
      </trkpt>
      <trkpt lat="42.82264" lon="1.46054">
        <ele>1778.58</ele>
        <time>2016-10-31T11:34:08Z</time>
      </trkpt>
      <trkpt lat="42.82262" lon="1.4605">
        <ele>1778.58</ele>
        <time>2016-10-31T11:34:18Z</time>
      </trkpt>
      <trkpt lat="42.82259" lon="1.4605">
        <ele>1779.54</ele>
        <time>2016-10-31T11:34:25Z</time>
      </trkpt>
      <trkpt lat="42.82256" lon="1.4605">
        <ele>1779.54</ele>
        <time>2016-10-31T11:34:28Z</time>
      </trkpt>
      <trkpt lat="42.82253" lon="1.46053">
        <ele>1780.5</ele>
        <time>2016-10-31T11:34:31Z</time>
      </trkpt>
      <trkpt lat="42.82249" lon="1.46054">
        <ele>1780.5</ele>
        <time>2016-10-31T11:34:35Z</time>
      </trkpt>
      <trkpt lat="42.82241" lon="1.46051">
        <ele>1781.94</ele>
        <time>2016-10-31T11:34:45Z</time>
      </trkpt>
      <trkpt lat="42.82237" lon="1.46049">
        <ele>1782.42</ele>
        <time>2016-10-31T11:34:51Z</time>
      </trkpt>
      <trkpt lat="42.82236" lon="1.46048">
        <ele>1782.9</ele>
        <time>2016-10-31T11:34:53Z</time>
      </trkpt>
      <trkpt lat="42.82232" lon="1.46048">
        <ele>1784.34</ele>
        <time>2016-10-31T11:35:00Z</time>
      </trkpt>
      <trkpt lat="42.82225" lon="1.46046">
        <ele>1785.79</ele>
        <time>2016-10-31T11:35:12Z</time>
      </trkpt>
      <trkpt lat="42.82218" lon="1.4605">
        <ele>1785.79</ele>
        <time>2016-10-31T11:35:24Z</time>
      </trkpt>
      <trkpt lat="42.82213" lon="1.46052">
        <ele>1784.82</ele>
        <time>2016-10-31T11:35:31Z</time>
      </trkpt>
      <trkpt lat="42.82211" lon="1.46051">
        <ele>1784.34</ele>
        <time>2016-10-31T11:35:46Z</time>
      </trkpt>
      <trkpt lat="42.82212" lon="1.46047">
        <ele>1783.38</ele>
        <time>2016-10-31T11:35:57Z</time>
      </trkpt>
      <trkpt lat="42.82209" lon="1.46044">
        <ele>1782.42</ele>
        <time>2016-10-31T11:36:08Z</time>
      </trkpt>
      <trkpt lat="42.82207" lon="1.4604">
        <ele>1780.5</ele>
        <time>2016-10-31T11:36:20Z</time>
      </trkpt>
      <trkpt lat="42.82208" lon="1.46041">
        <ele>1780.02</ele>
        <time>2016-10-31T11:36:35Z</time>
      </trkpt>
      <trkpt lat="42.82206" lon="1.46041">
        <ele>1779.54</ele>
        <time>2016-10-31T11:36:49Z</time>
      </trkpt>
      <trkpt lat="42.82206" lon="1.46039">
        <ele>1779.54</ele>
        <time>2016-10-31T11:36:59Z</time>
      </trkpt>
      <trkpt lat="42.82206" lon="1.46042">
        <ele>1779.54</ele>
        <time>2016-10-31T11:37:08Z</time>
      </trkpt>
      <trkpt lat="42.82206" lon="1.46043">
        <ele>1759.35</ele>
        <time>2016-10-31T12:30:58Z</time>
      </trkpt>
      <trkpt lat="42.82209" lon="1.46041">
        <ele>1759.35</ele>
        <time>2016-10-31T12:30:59Z</time>
      </trkpt>
      <trkpt lat="42.82206" lon="1.46042">
        <ele>1762.71</ele>
        <time>2016-10-31T12:31:05Z</time>
      </trkpt>
      <trkpt lat="42.82207" lon="1.46042">
        <ele>1766.08</ele>
        <time>2016-10-31T12:31:10Z</time>
      </trkpt>
      <trkpt lat="42.82207" lon="1.46041">
        <ele>1768.96</ele>
        <time>2016-10-31T12:31:16Z</time>
      </trkpt>
      <trkpt lat="42.82207" lon="1.46041">
        <ele>1772.33</ele>
        <time>2016-10-31T12:31:24Z</time>
      </trkpt>
      <trkpt lat="42.82206" lon="1.46041">
        <ele>1775.69</ele>
        <time>2016-10-31T12:31:35Z</time>
      </trkpt>
      <trkpt lat="42.82208" lon="1.46041">
        <ele>1778.58</ele>
        <time>2016-10-31T12:31:51Z</time>
      </trkpt>
      <trkpt lat="42.82208" lon="1.46042">
        <ele>1780.5</ele>
        <time>2016-10-31T12:32:04Z</time>
      </trkpt>
      <trkpt lat="42.82209" lon="1.46045">
        <ele>1782.9</ele>
        <time>2016-10-31T12:32:19Z</time>
      </trkpt>
      <trkpt lat="42.82207" lon="1.46047">
        <ele>1782.9</ele>
        <time>2016-10-31T12:32:22Z</time>
      </trkpt>
      <trkpt lat="42.82201" lon="1.46054">
        <ele>1784.34</ele>
        <time>2016-10-31T12:32:32Z</time>
      </trkpt>
      <trkpt lat="42.82199" lon="1.46057">
        <ele>1785.79</ele>
        <time>2016-10-31T12:32:35Z</time>
      </trkpt>
      <trkpt lat="42.82198" lon="1.46058">
        <ele>1785.79</ele>
        <time>2016-10-31T12:32:36Z</time>
      </trkpt>
      <trkpt lat="42.82195" lon="1.46062">
        <ele>1785.79</ele>
        <time>2016-10-31T12:32:40Z</time>
      </trkpt>
      <trkpt lat="42.82189" lon="1.46069">
        <ele>1785.79</ele>
        <time>2016-10-31T12:32:47Z</time>
      </trkpt>
      <trkpt lat="42.82182" lon="1.46076">
        <ele>1785.79</ele>
        <time>2016-10-31T12:32:55Z</time>
      </trkpt>
      <trkpt lat="42.82176" lon="1.46078">
        <ele>1785.79</ele>
        <time>2016-10-31T12:33:00Z</time>
      </trkpt>
      <trkpt lat="42.82175" lon="1.46079">
        <ele>1785.79</ele>
        <time>2016-10-31T12:33:02Z</time>
      </trkpt>
      <trkpt lat="42.82166" lon="1.46081">
        <ele>1785.79</ele>
        <time>2016-10-31T12:33:10Z</time>
      </trkpt>
      <trkpt lat="42.8216" lon="1.46083">
        <ele>1785.79</ele>
        <time>2016-10-31T12:33:15Z</time>
      </trkpt>
      <trkpt lat="42.82155" lon="1.46086">
        <ele>1786.75</ele>
        <time>2016-10-31T12:33:21Z</time>
      </trkpt>
      <trkpt lat="42.82152" lon="1.46088">
        <ele>1787.23</ele>
        <time>2016-10-31T12:33:24Z</time>
      </trkpt>
      <trkpt lat="42.82141" lon="1.46094">
        <ele>1788.19</ele>
        <time>2016-10-31T12:33:37Z</time>
      </trkpt>
      <trkpt lat="42.82131" lon="1.46101">
        <ele>1788.19</ele>
        <time>2016-10-31T12:33:49Z</time>
      </trkpt>
      <trkpt lat="42.82129" lon="1.46101">
        <ele>1788.19</ele>
        <time>2016-10-31T12:33:51Z</time>
      </trkpt>
      <trkpt lat="42.82121" lon="1.46095">
        <ele>1788.19</ele>
        <time>2016-10-31T12:33:58Z</time>
      </trkpt>
      <trkpt lat="42.82112" lon="1.46092">
        <ele>1788.67</ele>
        <time>2016-10-31T12:34:07Z</time>
      </trkpt>
      <trkpt lat="42.82109" lon="1.46095">
        <ele>1789.15</ele>
        <time>2016-10-31T12:34:11Z</time>
      </trkpt>
      <trkpt lat="42.82105" lon="1.46096">
        <ele>1789.63</ele>
        <time>2016-10-31T12:34:15Z</time>
      </trkpt>
      <trkpt lat="42.82098" lon="1.46103">
        <ele>1790.11</ele>
        <time>2016-10-31T12:34:23Z</time>
      </trkpt>
      <trkpt lat="42.82096" lon="1.46102">
        <ele>1790.11</ele>
        <time>2016-10-31T12:34:25Z</time>
      </trkpt>
      <trkpt lat="42.82089" lon="1.46106">
        <ele>1791.55</ele>
        <time>2016-10-31T12:34:36Z</time>
      </trkpt>
      <trkpt lat="42.82088" lon="1.46106">
        <ele>1791.55</ele>
        <time>2016-10-31T12:34:38Z</time>
      </trkpt>
      <trkpt lat="42.82074" lon="1.46104">
        <ele>1792.03</ele>
        <time>2016-10-31T12:34:49Z</time>
      </trkpt>
      <trkpt lat="42.82063" lon="1.461">
        <ele>1792.03</ele>
        <time>2016-10-31T12:34:58Z</time>
      </trkpt>
      <trkpt lat="42.82055" lon="1.46099">
        <ele>1792.03</ele>
        <time>2016-10-31T12:35:05Z</time>
      </trkpt>
      <trkpt lat="42.82052" lon="1.461">
        <ele>1792.52</ele>
        <time>2016-10-31T12:35:08Z</time>
      </trkpt>
      <trkpt lat="42.8205" lon="1.46101">
        <ele>1793</ele>
        <time>2016-10-31T12:35:10Z</time>
      </trkpt>
      <trkpt lat="42.82047" lon="1.46103">
        <ele>1793.48</ele>
        <time>2016-10-31T12:35:13Z</time>
      </trkpt>
      <trkpt lat="42.82045" lon="1.46103">
        <ele>1793.48</ele>
        <time>2016-10-31T12:35:15Z</time>
      </trkpt>
      <trkpt lat="42.82043" lon="1.46105">
        <ele>1794.44</ele>
        <time>2016-10-31T12:35:18Z</time>
      </trkpt>
      <trkpt lat="42.82042" lon="1.46111">
        <ele>1795.4</ele>
        <time>2016-10-31T12:35:23Z</time>
      </trkpt>
      <trkpt lat="42.82036" lon="1.46115">
        <ele>1796.36</ele>
        <time>2016-10-31T12:35:31Z</time>
      </trkpt>
      <trkpt lat="42.82035" lon="1.46117">
        <ele>1796.84</ele>
        <time>2016-10-31T12:35:33Z</time>
      </trkpt>
      <trkpt lat="42.82034" lon="1.46119">
        <ele>1797.32</ele>
        <time>2016-10-31T12:35:35Z</time>
      </trkpt>
      <trkpt lat="42.8203" lon="1.4612">
        <ele>1798.76</ele>
        <time>2016-10-31T12:35:39Z</time>
      </trkpt>
      <trkpt lat="42.82026" lon="1.46117">
        <ele>1802.61</ele>
        <time>2016-10-31T12:35:44Z</time>
      </trkpt>
      <trkpt lat="42.82022" lon="1.46118">
        <ele>1804.05</ele>
        <time>2016-10-31T12:35:48Z</time>
      </trkpt>
      <trkpt lat="42.82014" lon="1.46123">
        <ele>1804.05</ele>
        <time>2016-10-31T12:35:58Z</time>
      </trkpt>
      <trkpt lat="42.82005" lon="1.46125">
        <ele>1805.01</ele>
        <time>2016-10-31T12:36:09Z</time>
      </trkpt>
      <trkpt lat="42.81995" lon="1.46126">
        <ele>1808.38</ele>
        <time>2016-10-31T12:36:23Z</time>
      </trkpt>
      <trkpt lat="42.81992" lon="1.46126">
        <ele>1811.74</ele>
        <time>2016-10-31T12:36:28Z</time>
      </trkpt>
      <trkpt lat="42.81991" lon="1.46124">
        <ele>1812.7</ele>
        <time>2016-10-31T12:36:30Z</time>
      </trkpt>
      <trkpt lat="42.81987" lon="1.46119">
        <ele>1813.66</ele>
        <time>2016-10-31T12:36:40Z</time>
      </trkpt>
      <trkpt lat="42.81981" lon="1.4612">
        <ele>1814.63</ele>
        <time>2016-10-31T12:36:51Z</time>
      </trkpt>
      <trkpt lat="42.81977" lon="1.46118">
        <ele>1817.03</ele>
        <time>2016-10-31T12:36:59Z</time>
      </trkpt>
      <trkpt lat="42.81974" lon="1.46119">
        <ele>1821.35</ele>
        <time>2016-10-31T12:37:05Z</time>
      </trkpt>
      <trkpt lat="42.81969" lon="1.4612">
        <ele>1822.32</ele>
        <time>2016-10-31T12:37:16Z</time>
      </trkpt>
      <trkpt lat="42.81962" lon="1.46121">
        <ele>1823.76</ele>
        <time>2016-10-31T12:37:28Z</time>
      </trkpt>
      <trkpt lat="42.81961" lon="1.4612">
        <ele>1824.24</ele>
        <time>2016-10-31T12:37:31Z</time>
      </trkpt>
      <trkpt lat="42.8196" lon="1.46115">
        <ele>1828.56</ele>
        <time>2016-10-31T12:37:37Z</time>
      </trkpt>
      <trkpt lat="42.81959" lon="1.46114">
        <ele>1828.08</ele>
        <time>2016-10-31T12:37:59Z</time>
      </trkpt>
      <trkpt lat="42.81959" lon="1.46114">
        <ele>1828.08</ele>
        <time>2016-10-31T12:38:25Z</time>
      </trkpt>
      <trkpt lat="42.81959" lon="1.46113">
        <ele>1828.08</ele>
        <time>2016-10-31T12:38:49Z</time>
      </trkpt>
      <trkpt lat="42.81959" lon="1.46113">
        <ele>1828.08</ele>
        <time>2016-10-31T12:38:55Z</time>
      </trkpt>
      <trkpt lat="42.81959" lon="1.46113">
        <ele>1828.08</ele>
        <time>2016-10-31T12:39:09Z</time>
      </trkpt>
      <trkpt lat="42.81957" lon="1.46113">
        <ele>1828.08</ele>
        <time>2016-10-31T12:39:24Z</time>
      </trkpt>
      <trkpt lat="42.81955" lon="1.46113">
        <ele>1828.08</ele>
        <time>2016-10-31T12:39:27Z</time>
      </trkpt>
      <trkpt lat="42.81953" lon="1.46112">
        <ele>1828.08</ele>
        <time>2016-10-31T12:39:30Z</time>
      </trkpt>
      <trkpt lat="42.81947" lon="1.46117">
        <ele>1830.01</ele>
        <time>2016-10-31T12:39:38Z</time>
      </trkpt>
      <trkpt lat="42.81944" lon="1.46115">
        <ele>1832.41</ele>
        <time>2016-10-31T12:39:43Z</time>
      </trkpt>
      <trkpt lat="42.81941" lon="1.46116">
        <ele>1836.26</ele>
        <time>2016-10-31T12:39:50Z</time>
      </trkpt>
      <trkpt lat="42.81937" lon="1.4612">
        <ele>1836.74</ele>
        <time>2016-10-31T12:40:02Z</time>
      </trkpt>
      <trkpt lat="42.81932" lon="1.46121">
        <ele>1838.18</ele>
        <time>2016-10-31T12:40:12Z</time>
      </trkpt>
      <trkpt lat="42.81927" lon="1.46122">
        <ele>1841.54</ele>
        <time>2016-10-31T12:40:22Z</time>
      </trkpt>
      <trkpt lat="42.81924" lon="1.46123">
        <ele>1844.43</ele>
        <time>2016-10-31T12:40:27Z</time>
      </trkpt>
      <trkpt lat="42.8192" lon="1.46123">
        <ele>1845.87</ele>
        <time>2016-10-31T12:40:36Z</time>
      </trkpt>
      <trkpt lat="42.81919" lon="1.46123">
        <ele>1845.87</ele>
        <time>2016-10-31T12:40:37Z</time>
      </trkpt>
      <trkpt lat="42.81915" lon="1.4613">
        <ele>1846.83</ele>
        <time>2016-10-31T12:40:49Z</time>
      </trkpt>
      <trkpt lat="42.81909" lon="1.46133">
        <ele>1848.75</ele>
        <time>2016-10-31T12:40:59Z</time>
      </trkpt>
      <trkpt lat="42.81906" lon="1.46136">
        <ele>1849.23</ele>
        <time>2016-10-31T12:41:03Z</time>
      </trkpt>
      <trkpt lat="42.81903" lon="1.46137">
        <ele>1851.16</ele>
        <time>2016-10-31T12:41:10Z</time>
      </trkpt>
      <trkpt lat="42.819" lon="1.46142">
        <ele>1852.12</ele>
        <time>2016-10-31T12:41:16Z</time>
      </trkpt>
      <trkpt lat="42.81893" lon="1.46144">
        <ele>1853.08</ele>
        <time>2016-10-31T12:41:23Z</time>
      </trkpt>
      <trkpt lat="42.81889" lon="1.46141">
        <ele>1854.52</ele>
        <time>2016-10-31T12:41:33Z</time>
      </trkpt>
      <trkpt lat="42.81886" lon="1.46141">
        <ele>1855</ele>
        <time>2016-10-31T12:41:37Z</time>
      </trkpt>
      <trkpt lat="42.81884" lon="1.46145">
        <ele>1855.96</ele>
        <time>2016-10-31T12:41:42Z</time>
      </trkpt>
      <trkpt lat="42.81878" lon="1.46151">
        <ele>1856.92</ele>
        <time>2016-10-31T12:41:54Z</time>
      </trkpt>
      <trkpt lat="42.81871" lon="1.46155">
        <ele>1856.92</ele>
        <time>2016-10-31T12:42:01Z</time>
      </trkpt>
      <trkpt lat="42.81864" lon="1.46158">
        <ele>1858.37</ele>
        <time>2016-10-31T12:42:10Z</time>
      </trkpt>
      <trkpt lat="42.81861" lon="1.46161">
        <ele>1858.37</ele>
        <time>2016-10-31T12:42:13Z</time>
      </trkpt>
      <trkpt lat="42.81857" lon="1.46163">
        <ele>1859.33</ele>
        <time>2016-10-31T12:42:25Z</time>
      </trkpt>
      <trkpt lat="42.81856" lon="1.46163">
        <ele>1860.29</ele>
        <time>2016-10-31T12:42:39Z</time>
      </trkpt>
      <trkpt lat="42.81857" lon="1.46162">
        <ele>1860.29</ele>
        <time>2016-10-31T12:42:51Z</time>
      </trkpt>
      <trkpt lat="42.81856" lon="1.46163">
        <ele>1860.77</ele>
        <time>2016-10-31T12:43:03Z</time>
      </trkpt>
      <trkpt lat="42.81855" lon="1.46163">
        <ele>1860.77</ele>
        <time>2016-10-31T12:43:08Z</time>
      </trkpt>
      <trkpt lat="42.81846" lon="1.46174">
        <ele>1860.77</ele>
        <time>2016-10-31T12:43:20Z</time>
      </trkpt>
      <trkpt lat="42.81844" lon="1.46177">
        <ele>1860.77</ele>
        <time>2016-10-31T12:43:24Z</time>
      </trkpt>
      <trkpt lat="42.81839" lon="1.46176">
        <ele>1861.25</ele>
        <time>2016-10-31T12:43:29Z</time>
      </trkpt>
      <trkpt lat="42.81837" lon="1.4618">
        <ele>1861.73</ele>
        <time>2016-10-31T12:43:33Z</time>
      </trkpt>
      <trkpt lat="42.81831" lon="1.46184">
        <ele>1863.17</ele>
        <time>2016-10-31T12:43:43Z</time>
      </trkpt>
      <trkpt lat="42.81825" lon="1.46185">
        <ele>1865.58</ele>
        <time>2016-10-31T12:43:53Z</time>
      </trkpt>
      <trkpt lat="42.8182" lon="1.46183">
        <ele>1867.02</ele>
        <time>2016-10-31T12:44:03Z</time>
      </trkpt>
      <trkpt lat="42.81815" lon="1.46184">
        <ele>1870.38</ele>
        <time>2016-10-31T12:44:10Z</time>
      </trkpt>
      <trkpt lat="42.81811" lon="1.46182">
        <ele>1873.75</ele>
        <time>2016-10-31T12:44:17Z</time>
      </trkpt>
      <trkpt lat="42.81808" lon="1.46179">
        <ele>1873.75</ele>
        <time>2016-10-31T12:44:23Z</time>
      </trkpt>
      <trkpt lat="42.81804" lon="1.46173">
        <ele>1874.23</ele>
        <time>2016-10-31T12:44:35Z</time>
      </trkpt>
      <trkpt lat="42.818" lon="1.46169">
        <ele>1876.15</ele>
        <time>2016-10-31T12:44:47Z</time>
      </trkpt>
      <trkpt lat="42.81796" lon="1.46167">
        <ele>1878.55</ele>
        <time>2016-10-31T12:44:58Z</time>
      </trkpt>
      <trkpt lat="42.81796" lon="1.46165">
        <ele>1882.4</ele>
        <time>2016-10-31T12:45:05Z</time>
      </trkpt>
      <trkpt lat="42.81795" lon="1.46163">
        <ele>1882.88</ele>
        <time>2016-10-31T12:45:20Z</time>
      </trkpt>
      <trkpt lat="42.81794" lon="1.46159">
        <ele>1882.88</ele>
        <time>2016-10-31T12:45:24Z</time>
      </trkpt>
      <trkpt lat="42.81793" lon="1.46156">
        <ele>1882.88</ele>
        <time>2016-10-31T12:45:27Z</time>
      </trkpt>
      <trkpt lat="42.8179" lon="1.46151">
        <ele>1882.88</ele>
        <time>2016-10-31T12:45:37Z</time>
      </trkpt>
      <trkpt lat="42.81787" lon="1.46149">
        <ele>1884.8</ele>
        <time>2016-10-31T12:45:47Z</time>
      </trkpt>
      <trkpt lat="42.81782" lon="1.46146">
        <ele>1886.24</ele>
        <time>2016-10-31T12:45:57Z</time>
      </trkpt>
      <trkpt lat="42.81778" lon="1.46144">
        <ele>1890.09</ele>
        <time>2016-10-31T12:46:03Z</time>
      </trkpt>
      <trkpt lat="42.81775" lon="1.46141">
        <ele>1892.01</ele>
        <time>2016-10-31T12:46:15Z</time>
      </trkpt>
      <trkpt lat="42.8177" lon="1.46137">
        <ele>1892.49</ele>
        <time>2016-10-31T12:46:25Z</time>
      </trkpt>
      <trkpt lat="42.81768" lon="1.46136">
        <ele>1893.45</ele>
        <time>2016-10-31T12:46:27Z</time>
      </trkpt>
      <trkpt lat="42.81764" lon="1.46135">
        <ele>1895.86</ele>
        <time>2016-10-31T12:46:39Z</time>
      </trkpt>
      <trkpt lat="42.81759" lon="1.46136">
        <ele>1899.22</ele>
        <time>2016-10-31T12:46:47Z</time>
      </trkpt>
      <trkpt lat="42.81756" lon="1.46134">
        <ele>1902.11</ele>
        <time>2016-10-31T12:46:52Z</time>
      </trkpt>
      <trkpt lat="42.81752" lon="1.4613">
        <ele>1903.55</ele>
        <time>2016-10-31T12:47:03Z</time>
      </trkpt>
      <trkpt lat="42.81751" lon="1.46129">
        <ele>1903.55</ele>
        <time>2016-10-31T12:47:04Z</time>
      </trkpt>
      <trkpt lat="42.81745" lon="1.46127">
        <ele>1904.03</ele>
        <time>2016-10-31T12:47:16Z</time>
      </trkpt>
      <trkpt lat="42.81742" lon="1.46126">
        <ele>1907.39</ele>
        <time>2016-10-31T12:47:26Z</time>
      </trkpt>
      <trkpt lat="42.81741" lon="1.46127">
        <ele>1907.87</ele>
        <time>2016-10-31T12:47:27Z</time>
      </trkpt>
      <trkpt lat="42.81738" lon="1.4613">
        <ele>1910.76</ele>
        <time>2016-10-31T12:47:34Z</time>
      </trkpt>
      <trkpt lat="42.81732" lon="1.4613">
        <ele>1911.24</ele>
        <time>2016-10-31T12:47:45Z</time>
      </trkpt>
      <trkpt lat="42.81727" lon="1.46132">
        <ele>1912.68</ele>
        <time>2016-10-31T12:47:55Z</time>
      </trkpt>
      <trkpt lat="42.81724" lon="1.46129">
        <ele>1915.08</ele>
        <time>2016-10-31T12:48:09Z</time>
      </trkpt>
      <trkpt lat="42.81725" lon="1.46128">
        <ele>1916.53</ele>
        <time>2016-10-31T12:48:32Z</time>
      </trkpt>
      <trkpt lat="42.81721" lon="1.4613">
        <ele>1916.53</ele>
        <time>2016-10-31T12:48:50Z</time>
      </trkpt>
      <trkpt lat="42.81714" lon="1.46131">
        <ele>1918.45</ele>
        <time>2016-10-31T12:49:00Z</time>
      </trkpt>
      <trkpt lat="42.81708" lon="1.46133">
        <ele>1921.33</ele>
        <time>2016-10-31T12:49:09Z</time>
      </trkpt>
      <trkpt lat="42.81705" lon="1.46133">
        <ele>1924.7</ele>
        <time>2016-10-31T12:49:14Z</time>
      </trkpt>
      <trkpt lat="42.81699" lon="1.4613">
        <ele>1927.1</ele>
        <time>2016-10-31T12:49:28Z</time>
      </trkpt>
      <trkpt lat="42.81695" lon="1.46128">
        <ele>1928.06</ele>
        <time>2016-10-31T12:49:37Z</time>
      </trkpt>
      <trkpt lat="42.81691" lon="1.46132">
        <ele>1930.46</ele>
        <time>2016-10-31T12:49:49Z</time>
      </trkpt>
      <trkpt lat="42.81688" lon="1.46136">
        <ele>1933.83</ele>
        <time>2016-10-31T12:49:57Z</time>
      </trkpt>
      <trkpt lat="42.81687" lon="1.46139">
        <ele>1937.19</ele>
        <time>2016-10-31T12:50:04Z</time>
      </trkpt>
      <trkpt lat="42.81686" lon="1.46141">
        <ele>1937.19</ele>
        <time>2016-10-31T12:50:17Z</time>
      </trkpt>
      <trkpt lat="42.81684" lon="1.46144">
        <ele>1937.19</ele>
        <time>2016-10-31T12:50:35Z</time>
      </trkpt>
      <trkpt lat="42.81679" lon="1.46145">
        <ele>1938.64</ele>
        <time>2016-10-31T12:50:46Z</time>
      </trkpt>
      <trkpt lat="42.81675" lon="1.46144">
        <ele>1941.52</ele>
        <time>2016-10-31T12:50:58Z</time>
      </trkpt>
      <trkpt lat="42.81673" lon="1.46144">
        <ele>1944.88</ele>
        <time>2016-10-31T12:51:03Z</time>
      </trkpt>
      <trkpt lat="42.81671" lon="1.46144">
        <ele>1946.81</ele>
        <time>2016-10-31T12:51:06Z</time>
      </trkpt>
      <trkpt lat="42.81669" lon="1.46143">
        <ele>1946.81</ele>
        <time>2016-10-31T12:51:10Z</time>
      </trkpt>
      <trkpt lat="42.81665" lon="1.46143">
        <ele>1947.29</ele>
        <time>2016-10-31T12:51:21Z</time>
      </trkpt>
      <trkpt lat="42.81662" lon="1.46144">
        <ele>1949.21</ele>
        <time>2016-10-31T12:51:32Z</time>
      </trkpt>
      <trkpt lat="42.81661" lon="1.46143">
        <ele>1949.69</ele>
        <time>2016-10-31T12:51:35Z</time>
      </trkpt>
      <trkpt lat="42.81659" lon="1.46144">
        <ele>1950.65</ele>
        <time>2016-10-31T12:51:41Z</time>
      </trkpt>
      <trkpt lat="42.81655" lon="1.46149">
        <ele>1954.02</ele>
        <time>2016-10-31T12:51:52Z</time>
      </trkpt>
      <trkpt lat="42.81652" lon="1.4615">
        <ele>1957.38</ele>
        <time>2016-10-31T12:51:56Z</time>
      </trkpt>
      <trkpt lat="42.81652" lon="1.4615">
        <ele>1957.38</ele>
        <time>2016-10-31T12:51:57Z</time>
      </trkpt>
      <trkpt lat="42.81651" lon="1.46149">
        <ele>1957.86</ele>
        <time>2016-10-31T12:52:11Z</time>
      </trkpt>
      <trkpt lat="42.81651" lon="1.46149">
        <ele>1956.42</ele>
        <time>2016-10-31T12:52:19Z</time>
      </trkpt>
      <trkpt lat="42.81652" lon="1.46149">
        <ele>1956.42</ele>
        <time>2016-10-31T12:52:34Z</time>
      </trkpt>
      <trkpt lat="42.81651" lon="1.46149">
        <ele>1956.9</ele>
        <time>2016-10-31T12:52:59Z</time>
      </trkpt>
      <trkpt lat="42.81652" lon="1.46149">
        <ele>1956.9</ele>
        <time>2016-10-31T12:53:25Z</time>
      </trkpt>
      <trkpt lat="42.81651" lon="1.46149">
        <ele>1956.9</ele>
        <time>2016-10-31T12:53:49Z</time>
      </trkpt>
      <trkpt lat="42.8165" lon="1.46149">
        <ele>1956.9</ele>
        <time>2016-10-31T12:53:59Z</time>
      </trkpt>
      <trkpt lat="42.8165" lon="1.4615">
        <ele>1956.9</ele>
        <time>2016-10-31T12:54:06Z</time>
      </trkpt>
      <trkpt lat="42.81652" lon="1.46154">
        <ele>1956.9</ele>
        <time>2016-10-31T12:54:11Z</time>
      </trkpt>
      <trkpt lat="42.81654" lon="1.46163">
        <ele>1956.9</ele>
        <time>2016-10-31T12:54:19Z</time>
      </trkpt>
      <trkpt lat="42.81654" lon="1.46167">
        <ele>1956.9</ele>
        <time>2016-10-31T12:54:22Z</time>
      </trkpt>
      <trkpt lat="42.81655" lon="1.46169">
        <ele>1957.86</ele>
        <time>2016-10-31T12:54:24Z</time>
      </trkpt>
      <trkpt lat="42.81655" lon="1.46175">
        <ele>1958.82</ele>
        <time>2016-10-31T12:54:30Z</time>
      </trkpt>
      <trkpt lat="42.81656" lon="1.46181">
        <ele>1960.27</ele>
        <time>2016-10-31T12:54:36Z</time>
      </trkpt>
      <trkpt lat="42.81656" lon="1.46184">
        <ele>1960.75</ele>
        <time>2016-10-31T12:54:39Z</time>
      </trkpt>
      <trkpt lat="42.81659" lon="1.46192">
        <ele>1963.15</ele>
        <time>2016-10-31T12:54:50Z</time>
      </trkpt>
      <trkpt lat="42.81659" lon="1.46195">
        <ele>1963.63</ele>
        <time>2016-10-31T12:54:54Z</time>
      </trkpt>
      <trkpt lat="42.81658" lon="1.46202">
        <ele>1966.03</ele>
        <time>2016-10-31T12:55:05Z</time>
      </trkpt>
      <trkpt lat="42.8166" lon="1.46209">
        <ele>1969.88</ele>
        <time>2016-10-31T12:55:13Z</time>
      </trkpt>
      <trkpt lat="42.8166" lon="1.46215">
        <ele>1971.8</ele>
        <time>2016-10-31T12:55:18Z</time>
      </trkpt>
      <trkpt lat="42.8166" lon="1.46218">
        <ele>1972.76</ele>
        <time>2016-10-31T12:55:22Z</time>
      </trkpt>
      <trkpt lat="42.81661" lon="1.46221">
        <ele>1972.76</ele>
        <time>2016-10-31T12:55:25Z</time>
      </trkpt>
      <trkpt lat="42.8166" lon="1.46232">
        <ele>1973.24</ele>
        <time>2016-10-31T12:55:35Z</time>
      </trkpt>
      <trkpt lat="42.81659" lon="1.46235">
        <ele>1973.24</ele>
        <time>2016-10-31T12:55:38Z</time>
      </trkpt>
      <trkpt lat="42.8166" lon="1.46244">
        <ele>1974.69</ele>
        <time>2016-10-31T12:55:48Z</time>
      </trkpt>
      <trkpt lat="42.8166" lon="1.46244">
        <ele>1974.69</ele>
        <time>2016-10-31T12:55:49Z</time>
      </trkpt>
      <trkpt lat="42.81662" lon="1.46256">
        <ele>1977.57</ele>
        <time>2016-10-31T12:56:03Z</time>
      </trkpt>
      <trkpt lat="42.81662" lon="1.46258">
        <ele>1980.93</ele>
        <time>2016-10-31T12:56:08Z</time>
      </trkpt>
      <trkpt lat="42.81663" lon="1.46267">
        <ele>1983.34</ele>
        <time>2016-10-31T12:56:20Z</time>
      </trkpt>
      <trkpt lat="42.81664" lon="1.46276">
        <ele>1984.3</ele>
        <time>2016-10-31T12:56:32Z</time>
      </trkpt>
      <trkpt lat="42.81664" lon="1.46283">
        <ele>1986.22</ele>
        <time>2016-10-31T12:56:43Z</time>
      </trkpt>
      <trkpt lat="42.81663" lon="1.46292">
        <ele>1989.1</ele>
        <time>2016-10-31T12:56:54Z</time>
      </trkpt>
      <trkpt lat="42.81663" lon="1.46297">
        <ele>1992.47</ele>
        <time>2016-10-31T12:56:59Z</time>
      </trkpt>
      <trkpt lat="42.81663" lon="1.46302">
        <ele>1994.87</ele>
        <time>2016-10-31T12:57:08Z</time>
      </trkpt>
      <trkpt lat="42.81662" lon="1.46313">
        <ele>1995.35</ele>
        <time>2016-10-31T12:57:21Z</time>
      </trkpt>
      <trkpt lat="42.81663" lon="1.46321">
        <ele>1996.8</ele>
        <time>2016-10-31T12:57:32Z</time>
      </trkpt>
      <trkpt lat="42.81663" lon="1.46323">
        <ele>1996.8</ele>
        <time>2016-10-31T12:57:34Z</time>
      </trkpt>
      <trkpt lat="42.81663" lon="1.46326">
        <ele>1997.76</ele>
        <time>2016-10-31T12:57:37Z</time>
      </trkpt>
      <trkpt lat="42.81666" lon="1.46334">
        <ele>2000.64</ele>
        <time>2016-10-31T12:57:50Z</time>
      </trkpt>
      <trkpt lat="42.81667" lon="1.46341">
        <ele>2003.52</ele>
        <time>2016-10-31T12:58:00Z</time>
      </trkpt>
      <trkpt lat="42.81667" lon="1.46344">
        <ele>2006.41</ele>
        <time>2016-10-31T12:58:05Z</time>
      </trkpt>
      <trkpt lat="42.81668" lon="1.46347">
        <ele>2007.85</ele>
        <time>2016-10-31T12:58:14Z</time>
      </trkpt>
      <trkpt lat="42.81669" lon="1.46357">
        <ele>2008.81</ele>
        <time>2016-10-31T12:58:25Z</time>
      </trkpt>
      <trkpt lat="42.81671" lon="1.46367">
        <ele>2010.73</ele>
        <time>2016-10-31T12:58:36Z</time>
      </trkpt>
      <trkpt lat="42.81671" lon="1.46375">
        <ele>2013.62</ele>
        <time>2016-10-31T12:58:49Z</time>
      </trkpt>
      <trkpt lat="42.81672" lon="1.46377">
        <ele>2015.54</ele>
        <time>2016-10-31T12:59:04Z</time>
      </trkpt>
      <trkpt lat="42.81672" lon="1.46378">
        <ele>2016.02</ele>
        <time>2016-10-31T12:59:29Z</time>
      </trkpt>
      <trkpt lat="42.81672" lon="1.46378">
        <ele>2016.02</ele>
        <time>2016-10-31T12:59:34Z</time>
      </trkpt>
      <trkpt lat="42.81669" lon="1.46389">
        <ele>2017.46</ele>
        <time>2016-10-31T12:59:47Z</time>
      </trkpt>
      <trkpt lat="42.81667" lon="1.46394">
        <ele>2020.35</ele>
        <time>2016-10-31T12:59:56Z</time>
      </trkpt>
      <trkpt lat="42.81666" lon="1.46396">
        <ele>2023.71</ele>
        <time>2016-10-31T13:00:01Z</time>
      </trkpt>
      <trkpt lat="42.81663" lon="1.46402">
        <ele>2024.67</ele>
        <time>2016-10-31T13:00:12Z</time>
      </trkpt>
      <trkpt lat="42.81661" lon="1.46407">
        <ele>2026.12</ele>
        <time>2016-10-31T13:00:22Z</time>
      </trkpt>
      <trkpt lat="42.81661" lon="1.46407">
        <ele>2026.12</ele>
        <time>2016-10-31T13:00:24Z</time>
      </trkpt>
      <trkpt lat="42.81658" lon="1.46416">
        <ele>2028.52</ele>
        <time>2016-10-31T13:00:37Z</time>
      </trkpt>
      <trkpt lat="42.81657" lon="1.46419">
        <ele>2031.88</ele>
        <time>2016-10-31T13:00:43Z</time>
      </trkpt>
      <trkpt lat="42.81654" lon="1.46424">
        <ele>2034.77</ele>
        <time>2016-10-31T13:00:54Z</time>
      </trkpt>
      <trkpt lat="42.81652" lon="1.46431">
        <ele>2035.25</ele>
        <time>2016-10-31T13:01:05Z</time>
      </trkpt>
      <trkpt lat="42.81648" lon="1.46439">
        <ele>2037.65</ele>
        <time>2016-10-31T13:01:18Z</time>
      </trkpt>
      <trkpt lat="42.81649" lon="1.46444">
        <ele>2040.54</ele>
        <time>2016-10-31T13:01:26Z</time>
      </trkpt>
      <trkpt lat="42.8165" lon="1.46446">
        <ele>2043.42</ele>
        <time>2016-10-31T13:01:32Z</time>
      </trkpt>
      <trkpt lat="42.81654" lon="1.46454">
        <ele>2043.9</ele>
        <time>2016-10-31T13:01:43Z</time>
      </trkpt>
      <trkpt lat="42.81654" lon="1.46455">
        <ele>2043.9</ele>
        <time>2016-10-31T13:01:44Z</time>
      </trkpt>
      <trkpt lat="42.81652" lon="1.46461">
        <ele>2045.34</ele>
        <time>2016-10-31T13:01:56Z</time>
      </trkpt>
      <trkpt lat="42.8165" lon="1.46469">
        <ele>2047.26</ele>
        <time>2016-10-31T13:02:08Z</time>
      </trkpt>
      <trkpt lat="42.81653" lon="1.46475">
        <ele>2049.19</ele>
        <time>2016-10-31T13:02:18Z</time>
      </trkpt>
      <trkpt lat="42.81653" lon="1.46482">
        <ele>2052.55</ele>
        <time>2016-10-31T13:02:27Z</time>
      </trkpt>
      <trkpt lat="42.81654" lon="1.46487">
        <ele>2055.92</ele>
        <time>2016-10-31T13:02:34Z</time>
      </trkpt>
      <trkpt lat="42.81653" lon="1.4649">
        <ele>2055.92</ele>
        <time>2016-10-31T13:02:37Z</time>
      </trkpt>
      <trkpt lat="42.8165" lon="1.46499">
        <ele>2055.92</ele>
        <time>2016-10-31T13:02:48Z</time>
      </trkpt>
      <trkpt lat="42.81647" lon="1.46503">
        <ele>2056.88</ele>
        <time>2016-10-31T13:02:53Z</time>
      </trkpt>
      <trkpt lat="42.81642" lon="1.46507">
        <ele>2058.32</ele>
        <time>2016-10-31T13:03:02Z</time>
      </trkpt>
      <trkpt lat="42.81641" lon="1.46516">
        <ele>2060.24</ele>
        <time>2016-10-31T13:03:13Z</time>
      </trkpt>
      <trkpt lat="42.8164" lon="1.46518">
        <ele>2061.68</ele>
        <time>2016-10-31T13:03:20Z</time>
      </trkpt>
      <trkpt lat="42.81639" lon="1.46524">
        <ele>2062.65</ele>
        <time>2016-10-31T13:03:30Z</time>
      </trkpt>
      <trkpt lat="42.81637" lon="1.46526">
        <ele>2064.57</ele>
        <time>2016-10-31T13:03:39Z</time>
      </trkpt>
      <trkpt lat="42.81635" lon="1.46535">
        <ele>2066.01</ele>
        <time>2016-10-31T13:03:49Z</time>
      </trkpt>
      <trkpt lat="42.81632" lon="1.46539">
        <ele>2068.41</ele>
        <time>2016-10-31T13:04:01Z</time>
      </trkpt>
      <trkpt lat="42.81635" lon="1.46541">
        <ele>2068.89</ele>
        <time>2016-10-31T13:04:07Z</time>
      </trkpt>
      <trkpt lat="42.81638" lon="1.46542">
        <ele>2069.38</ele>
        <time>2016-10-31T13:04:11Z</time>
      </trkpt>
      <trkpt lat="42.81644" lon="1.46549">
        <ele>2071.78</ele>
        <time>2016-10-31T13:04:22Z</time>
      </trkpt>
      <trkpt lat="42.81647" lon="1.46552">
        <ele>2074.66</ele>
        <time>2016-10-31T13:04:28Z</time>
      </trkpt>
      <trkpt lat="42.81652" lon="1.46556">
        <ele>2077.55</ele>
        <time>2016-10-31T13:04:37Z</time>
      </trkpt>
      <trkpt lat="42.81658" lon="1.46562">
        <ele>2077.55</ele>
        <time>2016-10-31T13:04:49Z</time>
      </trkpt>
      <trkpt lat="42.81661" lon="1.46565">
        <ele>2078.03</ele>
        <time>2016-10-31T13:04:54Z</time>
      </trkpt>
      <trkpt lat="42.81667" lon="1.46569">
        <ele>2079.47</ele>
        <time>2016-10-31T13:05:03Z</time>
      </trkpt>
      <trkpt lat="42.81674" lon="1.46576">
        <ele>2080.91</ele>
        <time>2016-10-31T13:05:15Z</time>
      </trkpt>
      <trkpt lat="42.81678" lon="1.46579">
        <ele>2082.35</ele>
        <time>2016-10-31T13:05:25Z</time>
      </trkpt>
      <trkpt lat="42.8168" lon="1.46581">
        <ele>2083.79</ele>
        <time>2016-10-31T13:05:29Z</time>
      </trkpt>
      <trkpt lat="42.81682" lon="1.46583">
        <ele>2084.28</ele>
        <time>2016-10-31T13:05:33Z</time>
      </trkpt>
      <trkpt lat="42.81691" lon="1.46592">
        <ele>2086.2</ele>
        <time>2016-10-31T13:05:44Z</time>
      </trkpt>
      <trkpt lat="42.81702" lon="1.46601">
        <ele>2087.64</ele>
        <time>2016-10-31T13:05:56Z</time>
      </trkpt>
      <trkpt lat="42.81709" lon="1.46611">
        <ele>2088.12</ele>
        <time>2016-10-31T13:06:07Z</time>
      </trkpt>
      <trkpt lat="42.81711" lon="1.46613">
        <ele>2088.6</ele>
        <time>2016-10-31T13:06:10Z</time>
      </trkpt>
      <trkpt lat="42.81711" lon="1.46617">
        <ele>2088.6</ele>
        <time>2016-10-31T13:06:26Z</time>
      </trkpt>
      <trkpt lat="42.81711" lon="1.46617">
        <ele>2088.6</ele>
        <time>2016-10-31T13:06:33Z</time>
      </trkpt>
      <trkpt lat="42.81708" lon="1.46628">
        <ele>2088.6</ele>
        <time>2016-10-31T13:06:43Z</time>
      </trkpt>
      <trkpt lat="42.81706" lon="1.4664">
        <ele>2091.97</ele>
        <time>2016-10-31T13:06:55Z</time>
      </trkpt>
      <trkpt lat="42.81705" lon="1.46645">
        <ele>2094.85</ele>
        <time>2016-10-31T13:07:00Z</time>
      </trkpt>
      <trkpt lat="42.81705" lon="1.4665">
        <ele>2096.29</ele>
        <time>2016-10-31T13:07:05Z</time>
      </trkpt>
      <trkpt lat="42.81705" lon="1.46653">
        <ele>2096.29</ele>
        <time>2016-10-31T13:07:08Z</time>
      </trkpt>
      <trkpt lat="42.81706" lon="1.46655">
        <ele>2096.29</ele>
        <time>2016-10-31T13:07:10Z</time>
      </trkpt>
      <trkpt lat="42.81706" lon="1.46659">
        <ele>2096.29</ele>
        <time>2016-10-31T13:07:16Z</time>
      </trkpt>
      <trkpt lat="42.81705" lon="1.46662">
        <ele>2096.29</ele>
        <time>2016-10-31T13:07:28Z</time>
      </trkpt>
      <trkpt lat="42.81705" lon="1.46664">
        <ele>2096.29</ele>
        <time>2016-10-31T13:07:49Z</time>
      </trkpt>
      <trkpt lat="42.81704" lon="1.46665">
        <ele>2096.29</ele>
        <time>2016-10-31T13:08:08Z</time>
      </trkpt>
      <trkpt lat="42.81702" lon="1.46664">
        <ele>2096.77</ele>
        <time>2016-10-31T13:08:21Z</time>
      </trkpt>
      <trkpt lat="42.81702" lon="1.4667">
        <ele>2096.77</ele>
        <time>2016-10-31T13:08:31Z</time>
      </trkpt>
      <trkpt lat="42.81702" lon="1.46668">
        <ele>2096.77</ele>
        <time>2016-10-31T13:08:35Z</time>
      </trkpt>
      <trkpt lat="42.81701" lon="1.46662">
        <ele>2096.77</ele>
        <time>2016-10-31T13:08:46Z</time>
      </trkpt>
      <trkpt lat="42.81701" lon="1.46664">
        <ele>2096.77</ele>
        <time>2016-10-31T13:09:02Z</time>
      </trkpt>
      <trkpt lat="42.81702" lon="1.46662">
        <ele>2096.77</ele>
        <time>2016-10-31T13:09:27Z</time>
      </trkpt>
      <trkpt lat="42.81702" lon="1.46664">
        <ele>2096.77</ele>
        <time>2016-10-31T13:09:28Z</time>
      </trkpt>
      <trkpt lat="42.81704" lon="1.46668">
        <ele>2096.77</ele>
        <time>2016-10-31T13:09:31Z</time>
      </trkpt>
      <trkpt lat="42.81706" lon="1.46677">
        <ele>2096.77</ele>
        <time>2016-10-31T13:09:43Z</time>
      </trkpt>
      <trkpt lat="42.81711" lon="1.46693">
        <ele>2095.81</ele>
        <time>2016-10-31T13:09:56Z</time>
      </trkpt>
      <trkpt lat="42.81716" lon="1.46704">
        <ele>2094.85</ele>
        <time>2016-10-31T13:10:03Z</time>
      </trkpt>
      <trkpt lat="42.81725" lon="1.46719">
        <ele>2092.93</ele>
        <time>2016-10-31T13:10:13Z</time>
      </trkpt>
      <trkpt lat="42.8173" lon="1.46724">
        <ele>2092.45</ele>
        <time>2016-10-31T13:10:18Z</time>
      </trkpt>
      <trkpt lat="42.8174" lon="1.46739">
        <ele>2090.52</ele>
        <time>2016-10-31T13:10:30Z</time>
      </trkpt>
      <trkpt lat="42.81752" lon="1.46758">
        <ele>2087.64</ele>
        <time>2016-10-31T13:10:45Z</time>
      </trkpt>
      <trkpt lat="42.81754" lon="1.46771">
        <ele>2086.68</ele>
        <time>2016-10-31T13:10:52Z</time>
      </trkpt>
      <trkpt lat="42.81757" lon="1.4678">
        <ele>2085.24</ele>
        <time>2016-10-31T13:10:58Z</time>
      </trkpt>
      <trkpt lat="42.81765" lon="1.46795">
        <ele>2084.76</ele>
        <time>2016-10-31T13:11:08Z</time>
      </trkpt>
      <trkpt lat="42.81769" lon="1.46806">
        <ele>2084.28</ele>
        <time>2016-10-31T13:11:14Z</time>
      </trkpt>
      <trkpt lat="42.81772" lon="1.4682">
        <ele>2084.76</ele>
        <time>2016-10-31T13:11:23Z</time>
      </trkpt>
      <trkpt lat="42.81773" lon="1.4683">
        <ele>2084.76</ele>
        <time>2016-10-31T13:11:30Z</time>
      </trkpt>
      <trkpt lat="42.81776" lon="1.46838">
        <ele>2084.76</ele>
        <time>2016-10-31T13:11:36Z</time>
      </trkpt>
      <trkpt lat="42.8178" lon="1.46856">
        <ele>2085.72</ele>
        <time>2016-10-31T13:11:48Z</time>
      </trkpt>
      <trkpt lat="42.81784" lon="1.46869">
        <ele>2085.72</ele>
        <time>2016-10-31T13:11:57Z</time>
      </trkpt>
      <trkpt lat="42.81789" lon="1.46882">
        <ele>2085.72</ele>
        <time>2016-10-31T13:12:05Z</time>
      </trkpt>
      <trkpt lat="42.81794" lon="1.46894">
        <ele>2085.72</ele>
        <time>2016-10-31T13:12:13Z</time>
      </trkpt>
      <trkpt lat="42.81795" lon="1.46897">
        <ele>2085.72</ele>
        <time>2016-10-31T13:12:15Z</time>
      </trkpt>
      <trkpt lat="42.81798" lon="1.46905">
        <ele>2085.72</ele>
        <time>2016-10-31T13:12:20Z</time>
      </trkpt>
      <trkpt lat="42.81802" lon="1.46914">
        <ele>2085.72</ele>
        <time>2016-10-31T13:12:32Z</time>
      </trkpt>
      <trkpt lat="42.81803" lon="1.46912">
        <ele>2085.72</ele>
        <time>2016-10-31T13:12:39Z</time>
      </trkpt>
      <trkpt lat="42.81804" lon="1.46913">
        <ele>2085.72</ele>
        <time>2016-10-31T13:12:54Z</time>
      </trkpt>
      <trkpt lat="42.81805" lon="1.46913">
        <ele>2084.76</ele>
        <time>2016-10-31T13:13:20Z</time>
      </trkpt>
      <trkpt lat="42.81805" lon="1.46913">
        <ele>2084.76</ele>
        <time>2016-10-31T13:13:35Z</time>
      </trkpt>
      <trkpt lat="42.81804" lon="1.46919">
        <ele>2084.76</ele>
        <time>2016-10-31T13:13:50Z</time>
      </trkpt>
      <trkpt lat="42.81804" lon="1.46919">
        <ele>2084.76</ele>
        <time>2016-10-31T13:13:53Z</time>
      </trkpt>
      <trkpt lat="42.81807" lon="1.46943">
        <ele>2084.76</ele>
        <time>2016-10-31T13:14:07Z</time>
      </trkpt>
      <trkpt lat="42.81805" lon="1.46963">
        <ele>2084.76</ele>
        <time>2016-10-31T13:14:19Z</time>
      </trkpt>
      <trkpt lat="42.81805" lon="1.4697">
        <ele>2084.76</ele>
        <time>2016-10-31T13:14:24Z</time>
      </trkpt>
      <trkpt lat="42.81802" lon="1.4699">
        <ele>2082.83</ele>
        <time>2016-10-31T13:14:35Z</time>
      </trkpt>
      <trkpt lat="42.81799" lon="1.46996">
        <ele>2082.35</ele>
        <time>2016-10-31T13:14:39Z</time>
      </trkpt>
      <trkpt lat="42.81791" lon="1.47017">
        <ele>2079.47</ele>
        <time>2016-10-31T13:14:52Z</time>
      </trkpt>
      <trkpt lat="42.81792" lon="1.47027">
        <ele>2078.03</ele>
        <time>2016-10-31T13:14:57Z</time>
      </trkpt>
      <trkpt lat="42.81792" lon="1.47035">
        <ele>2075.14</ele>
        <time>2016-10-31T13:15:02Z</time>
      </trkpt>
      <trkpt lat="42.81794" lon="1.47054">
        <ele>2073.7</ele>
        <time>2016-10-31T13:15:15Z</time>
      </trkpt>
      <trkpt lat="42.81797" lon="1.47063">
        <ele>2073.7</ele>
        <time>2016-10-31T13:15:29Z</time>
      </trkpt>
      <trkpt lat="42.81799" lon="1.47068">
        <ele>2073.7</ele>
        <time>2016-10-31T13:15:32Z</time>
      </trkpt>
      <trkpt lat="42.81804" lon="1.47078">
        <ele>2074.66</ele>
        <time>2016-10-31T13:15:40Z</time>
      </trkpt>
      <trkpt lat="42.81806" lon="1.47085">
        <ele>2075.14</ele>
        <time>2016-10-31T13:15:44Z</time>
      </trkpt>
      <trkpt lat="42.81808" lon="1.4709">
        <ele>2075.14</ele>
        <time>2016-10-31T13:15:47Z</time>
      </trkpt>
      <trkpt lat="42.81809" lon="1.47095">
        <ele>2075.14</ele>
        <time>2016-10-31T13:15:51Z</time>
      </trkpt>
      <trkpt lat="42.8181" lon="1.47098">
        <ele>2075.62</ele>
        <time>2016-10-31T13:15:53Z</time>
      </trkpt>
      <trkpt lat="42.8181" lon="1.47101">
        <ele>2075.62</ele>
        <time>2016-10-31T13:15:56Z</time>
      </trkpt>
      <trkpt lat="42.81819" lon="1.47123">
        <ele>2076.1</ele>
        <time>2016-10-31T13:16:10Z</time>
      </trkpt>
      <trkpt lat="42.8182" lon="1.47125">
        <ele>2076.1</ele>
        <time>2016-10-31T13:16:12Z</time>
      </trkpt>
      <trkpt lat="42.81822" lon="1.47134">
        <ele>2076.1</ele>
        <time>2016-10-31T13:16:23Z</time>
      </trkpt>
      <trkpt lat="42.81828" lon="1.47142">
        <ele>2076.1</ele>
        <time>2016-10-31T13:16:30Z</time>
      </trkpt>
      <trkpt lat="42.81832" lon="1.47157">
        <ele>2076.1</ele>
        <time>2016-10-31T13:16:40Z</time>
      </trkpt>
      <trkpt lat="42.81833" lon="1.47166">
        <ele>2074.66</ele>
        <time>2016-10-31T13:16:45Z</time>
      </trkpt>
      <trkpt lat="42.8184" lon="1.47187">
        <ele>2072.26</ele>
        <time>2016-10-31T13:16:59Z</time>
      </trkpt>
      <trkpt lat="42.81841" lon="1.4719">
        <ele>2072.74</ele>
        <time>2016-10-31T13:17:01Z</time>
      </trkpt>
      <trkpt lat="42.81845" lon="1.47195">
        <ele>2072.26</ele>
        <time>2016-10-31T13:17:05Z</time>
      </trkpt>
      <trkpt lat="42.81857" lon="1.47212">
        <ele>2069.86</ele>
        <time>2016-10-31T13:17:19Z</time>
      </trkpt>
      <trkpt lat="42.81866" lon="1.47226">
        <ele>2068.41</ele>
        <time>2016-10-31T13:17:30Z</time>
      </trkpt>
      <trkpt lat="42.81876" lon="1.47241">
        <ele>2066.97</ele>
        <time>2016-10-31T13:17:42Z</time>
      </trkpt>
      <trkpt lat="42.81883" lon="1.47258">
        <ele>2066.01</ele>
        <time>2016-10-31T13:17:53Z</time>
      </trkpt>
      <trkpt lat="42.81891" lon="1.47271">
        <ele>2066.01</ele>
        <time>2016-10-31T13:18:04Z</time>
      </trkpt>
      <trkpt lat="42.81897" lon="1.47283">
        <ele>2066.01</ele>
        <time>2016-10-31T13:18:14Z</time>
      </trkpt>
      <trkpt lat="42.81903" lon="1.47291">
        <ele>2068.89</ele>
        <time>2016-10-31T13:18:24Z</time>
      </trkpt>
      <trkpt lat="42.81908" lon="1.47296">
        <ele>2072.26</ele>
        <time>2016-10-31T13:18:30Z</time>
      </trkpt>
      <trkpt lat="42.81913" lon="1.47303">
        <ele>2073.22</ele>
        <time>2016-10-31T13:18:38Z</time>
      </trkpt>
      <trkpt lat="42.81918" lon="1.47308">
        <ele>2073.22</ele>
        <time>2016-10-31T13:18:45Z</time>
      </trkpt>
      <trkpt lat="42.81919" lon="1.4731">
        <ele>2073.22</ele>
        <time>2016-10-31T13:18:47Z</time>
      </trkpt>
      <trkpt lat="42.81925" lon="1.47322">
        <ele>2075.14</ele>
        <time>2016-10-31T13:18:59Z</time>
      </trkpt>
      <trkpt lat="42.81925" lon="1.47323">
        <ele>2075.14</ele>
        <time>2016-10-31T13:19:00Z</time>
      </trkpt>
      <trkpt lat="42.81925" lon="1.47325">
        <ele>2075.14</ele>
        <time>2016-10-31T13:19:02Z</time>
      </trkpt>
      <trkpt lat="42.81927" lon="1.4733">
        <ele>2075.62</ele>
        <time>2016-10-31T13:19:06Z</time>
      </trkpt>
      <trkpt lat="42.81933" lon="1.47338">
        <ele>2077.07</ele>
        <time>2016-10-31T13:19:16Z</time>
      </trkpt>
      <trkpt lat="42.81935" lon="1.47346">
        <ele>2078.51</ele>
        <time>2016-10-31T13:19:23Z</time>
      </trkpt>
      <trkpt lat="42.8194" lon="1.47355">
        <ele>2079.95</ele>
        <time>2016-10-31T13:19:32Z</time>
      </trkpt>
      <trkpt lat="42.81941" lon="1.4736">
        <ele>2081.39</ele>
        <time>2016-10-31T13:19:38Z</time>
      </trkpt>
      <trkpt lat="42.81945" lon="1.47375">
        <ele>2082.83</ele>
        <time>2016-10-31T13:19:50Z</time>
      </trkpt>
      <trkpt lat="42.8195" lon="1.47385">
        <ele>2085.24</ele>
        <time>2016-10-31T13:20:00Z</time>
      </trkpt>
      <trkpt lat="42.81953" lon="1.47395">
        <ele>2086.68</ele>
        <time>2016-10-31T13:20:11Z</time>
      </trkpt>
      <trkpt lat="42.81956" lon="1.47407">
        <ele>2088.6</ele>
        <time>2016-10-31T13:20:22Z</time>
      </trkpt>
      <trkpt lat="42.81958" lon="1.47415">
        <ele>2090.04</ele>
        <time>2016-10-31T13:20:32Z</time>
      </trkpt>
      <trkpt lat="42.8196" lon="1.47423">
        <ele>2091.49</ele>
        <time>2016-10-31T13:20:41Z</time>
      </trkpt>
      <trkpt lat="42.81966" lon="1.47436">
        <ele>2093.41</ele>
        <time>2016-10-31T13:20:52Z</time>
      </trkpt>
      <trkpt lat="42.81967" lon="1.47441">
        <ele>2094.37</ele>
        <time>2016-10-31T13:20:57Z</time>
      </trkpt>
      <trkpt lat="42.81969" lon="1.47446">
        <ele>2095.33</ele>
        <time>2016-10-31T13:21:02Z</time>
      </trkpt>
      <trkpt lat="42.8197" lon="1.47448">
        <ele>2095.81</ele>
        <time>2016-10-31T13:21:04Z</time>
      </trkpt>
      <trkpt lat="42.81973" lon="1.47459">
        <ele>2097.25</ele>
        <time>2016-10-31T13:21:16Z</time>
      </trkpt>
      <trkpt lat="42.81976" lon="1.47467">
        <ele>2099.18</ele>
        <time>2016-10-31T13:21:25Z</time>
      </trkpt>
      <trkpt lat="42.8198" lon="1.47475">
        <ele>2100.62</ele>
        <time>2016-10-31T13:21:33Z</time>
      </trkpt>
      <trkpt lat="42.81984" lon="1.4749">
        <ele>2102.54</ele>
        <time>2016-10-31T13:21:45Z</time>
      </trkpt>
      <trkpt lat="42.81985" lon="1.47492">
        <ele>2103.02</ele>
        <time>2016-10-31T13:21:47Z</time>
      </trkpt>
      <trkpt lat="42.81986" lon="1.47495">
        <ele>2103.02</ele>
        <time>2016-10-31T13:21:49Z</time>
      </trkpt>
      <trkpt lat="42.81986" lon="1.47504">
        <ele>2103.5</ele>
        <time>2016-10-31T13:21:55Z</time>
      </trkpt>
      <trkpt lat="42.81988" lon="1.47511">
        <ele>2104.46</ele>
        <time>2016-10-31T13:22:08Z</time>
      </trkpt>
      <trkpt lat="42.81988" lon="1.47511">
        <ele>2104.46</ele>
        <time>2016-10-31T13:22:09Z</time>
      </trkpt>
      <trkpt lat="42.81987" lon="1.47526">
        <ele>2104.94</ele>
        <time>2016-10-31T13:22:20Z</time>
      </trkpt>
      <trkpt lat="42.81988" lon="1.47538">
        <ele>2105.91</ele>
        <time>2016-10-31T13:22:28Z</time>
      </trkpt>
      <trkpt lat="42.81988" lon="1.47539">
        <ele>2105.91</ele>
        <time>2016-10-31T13:22:29Z</time>
      </trkpt>
      <trkpt lat="42.81989" lon="1.47544">
        <ele>2106.39</ele>
        <time>2016-10-31T13:22:33Z</time>
      </trkpt>
      <trkpt lat="42.8199" lon="1.47551">
        <ele>2106.87</ele>
        <time>2016-10-31T13:22:38Z</time>
      </trkpt>
      <trkpt lat="42.81993" lon="1.47556">
        <ele>2107.35</ele>
        <time>2016-10-31T13:22:43Z</time>
      </trkpt>
      <trkpt lat="42.81996" lon="1.47564">
        <ele>2107.83</ele>
        <time>2016-10-31T13:22:49Z</time>
      </trkpt>
      <trkpt lat="42.81998" lon="1.4757">
        <ele>2109.27</ele>
        <time>2016-10-31T13:22:54Z</time>
      </trkpt>
      <trkpt lat="42.81998" lon="1.47574">
        <ele>2109.75</ele>
        <time>2016-10-31T13:22:57Z</time>
      </trkpt>
      <trkpt lat="42.82004" lon="1.47582">
        <ele>2111.19</ele>
        <time>2016-10-31T13:23:07Z</time>
      </trkpt>
      <trkpt lat="42.82008" lon="1.47591">
        <ele>2114.56</ele>
        <time>2016-10-31T13:23:16Z</time>
      </trkpt>
      <trkpt lat="42.8201" lon="1.47594">
        <ele>2117.44</ele>
        <time>2016-10-31T13:23:21Z</time>
      </trkpt>
      <trkpt lat="42.82013" lon="1.47599">
        <ele>2118.4</ele>
        <time>2016-10-31T13:23:25Z</time>
      </trkpt>
      <trkpt lat="42.82015" lon="1.47603">
        <ele>2118.4</ele>
        <time>2016-10-31T13:23:28Z</time>
      </trkpt>
      <trkpt lat="42.82017" lon="1.47608">
        <ele>2118.4</ele>
        <time>2016-10-31T13:23:32Z</time>
      </trkpt>
      <trkpt lat="42.82018" lon="1.4761">
        <ele>2118.4</ele>
        <time>2016-10-31T13:23:34Z</time>
      </trkpt>
      <trkpt lat="42.8202" lon="1.47627">
        <ele>2118.4</ele>
        <time>2016-10-31T13:23:45Z</time>
      </trkpt>
      <trkpt lat="42.8202" lon="1.4763">
        <ele>2118.88</ele>
        <time>2016-10-31T13:23:48Z</time>
      </trkpt>
      <trkpt lat="42.82023" lon="1.47636">
        <ele>2119.84</ele>
        <time>2016-10-31T13:23:54Z</time>
      </trkpt>
      <trkpt lat="42.82025" lon="1.47641">
        <ele>2119.84</ele>
        <time>2016-10-31T13:23:57Z</time>
      </trkpt>
      <trkpt lat="42.8203" lon="1.47647">
        <ele>2120.81</ele>
        <time>2016-10-31T13:24:05Z</time>
      </trkpt>
      <trkpt lat="42.82029" lon="1.47657">
        <ele>2121.77</ele>
        <time>2016-10-31T13:24:12Z</time>
      </trkpt>
      <trkpt lat="42.82034" lon="1.47663">
        <ele>2122.73</ele>
        <time>2016-10-31T13:24:19Z</time>
      </trkpt>
      <trkpt lat="42.82035" lon="1.47666">
        <ele>2123.21</ele>
        <time>2016-10-31T13:24:21Z</time>
      </trkpt>
      <trkpt lat="42.82042" lon="1.47673">
        <ele>2124.17</ele>
        <time>2016-10-31T13:24:31Z</time>
      </trkpt>
      <trkpt lat="42.8205" lon="1.47684">
        <ele>2126.57</ele>
        <time>2016-10-31T13:24:44Z</time>
      </trkpt>
      <trkpt lat="42.82053" lon="1.47689">
        <ele>2127.05</ele>
        <time>2016-10-31T13:24:48Z</time>
      </trkpt>
      <trkpt lat="42.82058" lon="1.47695">
        <ele>2128.02</ele>
        <time>2016-10-31T13:24:55Z</time>
      </trkpt>
      <trkpt lat="42.82061" lon="1.47699">
        <ele>2129.46</ele>
        <time>2016-10-31T13:25:00Z</time>
      </trkpt>
      <trkpt lat="42.82066" lon="1.47703">
        <ele>2130.42</ele>
        <time>2016-10-31T13:25:07Z</time>
      </trkpt>
      <trkpt lat="42.82068" lon="1.47703">
        <ele>2130.9</ele>
        <time>2016-10-31T13:25:09Z</time>
      </trkpt>
      <trkpt lat="42.82073" lon="1.47704">
        <ele>2132.34</ele>
        <time>2016-10-31T13:25:15Z</time>
      </trkpt>
      <trkpt lat="42.8208" lon="1.47708">
        <ele>2133.3</ele>
        <time>2016-10-31T13:25:25Z</time>
      </trkpt>
      <trkpt lat="42.82087" lon="1.47712">
        <ele>2133.78</ele>
        <time>2016-10-31T13:25:34Z</time>
      </trkpt>
      <trkpt lat="42.82089" lon="1.47714">
        <ele>2134.74</ele>
        <time>2016-10-31T13:25:47Z</time>
      </trkpt>
      <trkpt lat="42.82089" lon="1.47715">
        <ele>2135.23</ele>
        <time>2016-10-31T13:26:10Z</time>
      </trkpt>
      <trkpt lat="42.8209" lon="1.47718">
        <ele>2135.23</ele>
        <time>2016-10-31T13:26:24Z</time>
      </trkpt>
      <trkpt lat="42.8209" lon="1.47718">
        <ele>2135.71</ele>
        <time>2016-10-31T13:26:45Z</time>
      </trkpt>
      <trkpt lat="42.8209" lon="1.47718">
        <ele>2136.19</ele>
        <time>2016-10-31T13:27:05Z</time>
      </trkpt>
      <trkpt lat="42.8209" lon="1.47719">
        <ele>2136.19</ele>
        <time>2016-10-31T13:27:23Z</time>
      </trkpt>
      <trkpt lat="42.82091" lon="1.4772">
        <ele>2136.19</ele>
        <time>2016-10-31T13:27:24Z</time>
      </trkpt>
      <trkpt lat="42.82094" lon="1.47728">
        <ele>2136.19</ele>
        <time>2016-10-31T13:27:30Z</time>
      </trkpt>
      <trkpt lat="42.82093" lon="1.47736">
        <ele>2136.19</ele>
        <time>2016-10-31T13:27:36Z</time>
      </trkpt>
      <trkpt lat="42.82093" lon="1.4774">
        <ele>2136.19</ele>
        <time>2016-10-31T13:27:39Z</time>
      </trkpt>
      <trkpt lat="42.82094" lon="1.47754">
        <ele>2137.63</ele>
        <time>2016-10-31T13:27:50Z</time>
      </trkpt>
      <trkpt lat="42.82097" lon="1.47772">
        <ele>2139.07</ele>
        <time>2016-10-31T13:28:02Z</time>
      </trkpt>
      <trkpt lat="42.82098" lon="1.47785">
        <ele>2140.03</ele>
        <time>2016-10-31T13:28:12Z</time>
      </trkpt>
      <trkpt lat="42.821" lon="1.47799">
        <ele>2141.95</ele>
        <time>2016-10-31T13:28:24Z</time>
      </trkpt>
      <trkpt lat="42.82101" lon="1.47806">
        <ele>2142.92</ele>
        <time>2016-10-31T13:28:30Z</time>
      </trkpt>
      <trkpt lat="42.82102" lon="1.47808">
        <ele>2143.4</ele>
        <time>2016-10-31T13:28:32Z</time>
      </trkpt>
      <trkpt lat="42.82102" lon="1.47811">
        <ele>2143.88</ele>
        <time>2016-10-31T13:28:34Z</time>
      </trkpt>
      <trkpt lat="42.82103" lon="1.47815">
        <ele>2144.36</ele>
        <time>2016-10-31T13:28:37Z</time>
      </trkpt>
      <trkpt lat="42.82104" lon="1.47825">
        <ele>2147.24</ele>
        <time>2016-10-31T13:28:47Z</time>
      </trkpt>
      <trkpt lat="42.82105" lon="1.47829">
        <ele>2150.61</ele>
        <time>2016-10-31T13:28:52Z</time>
      </trkpt>
      <trkpt lat="42.82105" lon="1.47837">
        <ele>2151.57</ele>
        <time>2016-10-31T13:28:59Z</time>
      </trkpt>
      <trkpt lat="42.82106" lon="1.47842">
        <ele>2151.57</ele>
        <time>2016-10-31T13:29:04Z</time>
      </trkpt>
      <trkpt lat="42.82108" lon="1.47858">
        <ele>2153.01</ele>
        <time>2016-10-31T13:29:16Z</time>
      </trkpt>
      <trkpt lat="42.82109" lon="1.47873">
        <ele>2155.41</ele>
        <time>2016-10-31T13:29:28Z</time>
      </trkpt>
      <trkpt lat="42.82111" lon="1.47885">
        <ele>2156.86</ele>
        <time>2016-10-31T13:29:39Z</time>
      </trkpt>
      <trkpt lat="42.82112" lon="1.47887">
        <ele>2156.86</ele>
        <time>2016-10-31T13:29:41Z</time>
      </trkpt>
      <trkpt lat="42.82115" lon="1.47892">
        <ele>2157.34</ele>
        <time>2016-10-31T13:29:45Z</time>
      </trkpt>
      <trkpt lat="42.82114" lon="1.47898">
        <ele>2157.34</ele>
        <time>2016-10-31T13:29:50Z</time>
      </trkpt>
      <trkpt lat="42.82113" lon="1.479">
        <ele>2158.3</ele>
        <time>2016-10-31T13:29:52Z</time>
      </trkpt>
      <trkpt lat="42.82116" lon="1.47905">
        <ele>2158.78</ele>
        <time>2016-10-31T13:29:57Z</time>
      </trkpt>
      <trkpt lat="42.8212" lon="1.47913">
        <ele>2159.26</ele>
        <time>2016-10-31T13:30:04Z</time>
      </trkpt>
      <trkpt lat="42.82121" lon="1.47916">
        <ele>2159.26</ele>
        <time>2016-10-31T13:30:06Z</time>
      </trkpt>
      <trkpt lat="42.82123" lon="1.47919">
        <ele>2159.26</ele>
        <time>2016-10-31T13:30:09Z</time>
      </trkpt>
      <trkpt lat="42.82129" lon="1.47933">
        <ele>2159.74</ele>
        <time>2016-10-31T13:30:19Z</time>
      </trkpt>
      <trkpt lat="42.8213" lon="1.47943">
        <ele>2160.22</ele>
        <time>2016-10-31T13:30:28Z</time>
      </trkpt>
      <trkpt lat="42.8213" lon="1.47942">
        <ele>2160.22</ele>
        <time>2016-10-31T13:30:41Z</time>
      </trkpt>
      <trkpt lat="42.82138" lon="1.47943">
        <ele>2160.22</ele>
        <time>2016-10-31T13:30:53Z</time>
      </trkpt>
      <trkpt lat="42.82142" lon="1.47943">
        <ele>2160.22</ele>
        <time>2016-10-31T13:31:08Z</time>
      </trkpt>
      <trkpt lat="42.82143" lon="1.47944">
        <ele>2160.22</ele>
        <time>2016-10-31T13:31:10Z</time>
      </trkpt>
      <trkpt lat="42.82145" lon="1.47945">
        <ele>2160.22</ele>
        <time>2016-10-31T13:31:12Z</time>
      </trkpt>
      <trkpt lat="42.82158" lon="1.47948">
        <ele>2159.26</ele>
        <time>2016-10-31T13:31:26Z</time>
      </trkpt>
      <trkpt lat="42.82158" lon="1.47948">
        <ele>2159.26</ele>
        <time>2016-10-31T13:31:29Z</time>
      </trkpt>
      <trkpt lat="42.82161" lon="1.47948">
        <ele>2158.3</ele>
        <time>2016-10-31T13:31:32Z</time>
      </trkpt>
      <trkpt lat="42.82164" lon="1.47949">
        <ele>2157.34</ele>
        <time>2016-10-31T13:31:45Z</time>
      </trkpt>
      <trkpt lat="42.82163" lon="1.47949">
        <ele>2156.86</ele>
        <time>2016-10-31T13:32:03Z</time>
      </trkpt>
      <trkpt lat="42.82164" lon="1.47949">
        <ele>2156.86</ele>
        <time>2016-10-31T13:32:22Z</time>
      </trkpt>
      <trkpt lat="42.82163" lon="1.47949">
        <ele>2156.86</ele>
        <time>2016-10-31T13:32:45Z</time>
      </trkpt>
      <trkpt lat="42.82163" lon="1.47949">
        <ele>2157.34</ele>
        <time>2016-10-31T13:33:00Z</time>
      </trkpt>
      <trkpt lat="42.82163" lon="1.4795">
        <ele>2157.34</ele>
        <time>2016-10-31T13:33:30Z</time>
      </trkpt>
      <trkpt lat="42.82163" lon="1.47949">
        <ele>2157.34</ele>
        <time>2016-10-31T13:33:54Z</time>
      </trkpt>
      <trkpt lat="42.82163" lon="1.4795">
        <ele>2157.34</ele>
        <time>2016-10-31T13:34:16Z</time>
      </trkpt>
      <trkpt lat="42.82163" lon="1.47949">
        <ele>2157.34</ele>
        <time>2016-10-31T13:34:33Z</time>
      </trkpt>
      <trkpt lat="42.82163" lon="1.47949">
        <ele>2157.34</ele>
        <time>2016-10-31T13:34:58Z</time>
      </trkpt>
      <trkpt lat="42.82163" lon="1.47949">
        <ele>2157.34</ele>
        <time>2016-10-31T13:35:22Z</time>
      </trkpt>
      <trkpt lat="42.82164" lon="1.47949">
        <ele>2157.34</ele>
        <time>2016-10-31T13:35:37Z</time>
      </trkpt>
      <trkpt lat="42.82166" lon="1.47948">
        <ele>2156.86</ele>
        <time>2016-10-31T13:35:47Z</time>
      </trkpt>
      <trkpt lat="42.82167" lon="1.47948">
        <ele>2156.37</ele>
        <time>2016-10-31T13:36:01Z</time>
      </trkpt>
      <trkpt lat="42.82167" lon="1.47953">
        <ele>2155.41</ele>
        <time>2016-10-31T13:36:10Z</time>
      </trkpt>
      <trkpt lat="42.8217" lon="1.47952">
        <ele>2153.49</ele>
        <time>2016-10-31T13:36:21Z</time>
      </trkpt>
      <trkpt lat="42.82174" lon="1.47948">
        <ele>2151.57</ele>
        <time>2016-10-31T13:36:30Z</time>
      </trkpt>
      <trkpt lat="42.82175" lon="1.47949">
        <ele>2148.2</ele>
        <time>2016-10-31T13:36:36Z</time>
      </trkpt>
      <trkpt lat="42.82175" lon="1.47949">
        <ele>2147.72</ele>
        <time>2016-10-31T13:36:37Z</time>
      </trkpt>
      <trkpt lat="42.82177" lon="1.47953">
        <ele>2147.24</ele>
        <time>2016-10-31T13:36:43Z</time>
      </trkpt>
      <trkpt lat="42.82179" lon="1.47954">
        <ele>2147.24</ele>
        <time>2016-10-31T13:36:47Z</time>
      </trkpt>
      <trkpt lat="42.82181" lon="1.47956">
        <ele>2146.28</ele>
        <time>2016-10-31T13:36:58Z</time>
      </trkpt>
      <trkpt lat="42.82184" lon="1.47955">
        <ele>2144.36</ele>
        <time>2016-10-31T13:37:09Z</time>
      </trkpt>
      <trkpt lat="42.82189" lon="1.47962">
        <ele>2142.44</ele>
        <time>2016-10-31T13:37:20Z</time>
      </trkpt>
      <trkpt lat="42.8219" lon="1.47964">
        <ele>2139.07</ele>
        <time>2016-10-31T13:37:25Z</time>
      </trkpt>
      <trkpt lat="42.8219" lon="1.47966">
        <ele>2135.71</ele>
        <time>2016-10-31T13:37:29Z</time>
      </trkpt>
      <trkpt lat="42.82193" lon="1.47966">
        <ele>2134.74</ele>
        <time>2016-10-31T13:37:41Z</time>
      </trkpt>
      <trkpt lat="42.82194" lon="1.47966">
        <ele>2133.78</ele>
        <time>2016-10-31T13:37:51Z</time>
      </trkpt>
      <trkpt lat="42.82195" lon="1.47964">
        <ele>2133.3</ele>
        <time>2016-10-31T13:37:57Z</time>
      </trkpt>
      <trkpt lat="42.82198" lon="1.47964">
        <ele>2132.34</ele>
        <time>2016-10-31T13:38:06Z</time>
      </trkpt>
      <trkpt lat="42.82199" lon="1.47964">
        <ele>2130.42</ele>
        <time>2016-10-31T13:38:22Z</time>
      </trkpt>
      <trkpt lat="42.822" lon="1.47965">
        <ele>2129.94</ele>
        <time>2016-10-31T13:38:30Z</time>
      </trkpt>
      <trkpt lat="42.82204" lon="1.47968">
        <ele>2128.5</ele>
        <time>2016-10-31T13:38:42Z</time>
      </trkpt>
      <trkpt lat="42.82206" lon="1.47971">
        <ele>2125.13</ele>
        <time>2016-10-31T13:38:49Z</time>
      </trkpt>
      <trkpt lat="42.82206" lon="1.47972">
        <ele>2124.17</ele>
        <time>2016-10-31T13:38:50Z</time>
      </trkpt>
      <trkpt lat="42.82207" lon="1.47974">
        <ele>2121.77</ele>
        <time>2016-10-31T13:38:55Z</time>
      </trkpt>
      <trkpt lat="42.82209" lon="1.47978">
        <ele>2121.29</ele>
        <time>2016-10-31T13:39:04Z</time>
      </trkpt>
      <trkpt lat="42.82209" lon="1.47978">
        <ele>2121.29</ele>
        <time>2016-10-31T13:39:05Z</time>
      </trkpt>
      <trkpt lat="42.8221" lon="1.4798">
        <ele>2121.29</ele>
        <time>2016-10-31T13:39:08Z</time>
      </trkpt>
      <trkpt lat="42.82213" lon="1.4798">
        <ele>2119.84</ele>
        <time>2016-10-31T13:39:16Z</time>
      </trkpt>
      <trkpt lat="42.82217" lon="1.47982">
        <ele>2117.44</ele>
        <time>2016-10-31T13:39:27Z</time>
      </trkpt>
      <trkpt lat="42.82218" lon="1.47976">
        <ele>2113.6</ele>
        <time>2016-10-31T13:39:33Z</time>
      </trkpt>
      <trkpt lat="42.82221" lon="1.47978">
        <ele>2110.71</ele>
        <time>2016-10-31T13:39:38Z</time>
      </trkpt>
      <trkpt lat="42.82224" lon="1.47984">
        <ele>2110.71</ele>
        <time>2016-10-31T13:39:49Z</time>
      </trkpt>
      <trkpt lat="42.82229" lon="1.4799">
        <ele>2108.31</ele>
        <time>2016-10-31T13:40:01Z</time>
      </trkpt>
      <trkpt lat="42.82233" lon="1.47994">
        <ele>2106.39</ele>
        <time>2016-10-31T13:40:12Z</time>
      </trkpt>
      <trkpt lat="42.82235" lon="1.47998">
        <ele>2103.5</ele>
        <time>2016-10-31T13:40:23Z</time>
      </trkpt>
      <trkpt lat="42.82235" lon="1.48">
        <ele>2102.06</ele>
        <time>2016-10-31T13:40:36Z</time>
      </trkpt>
      <trkpt lat="42.82239" lon="1.48006">
        <ele>2101.1</ele>
        <time>2016-10-31T13:40:47Z</time>
      </trkpt>
      <trkpt lat="42.8224" lon="1.4801">
        <ele>2100.14</ele>
        <time>2016-10-31T13:40:54Z</time>
      </trkpt>
      <trkpt lat="42.82242" lon="1.48013">
        <ele>2100.14</ele>
        <time>2016-10-31T13:40:57Z</time>
      </trkpt>
      <trkpt lat="42.82247" lon="1.48023">
        <ele>2096.29</ele>
        <time>2016-10-31T13:41:08Z</time>
      </trkpt>
      <trkpt lat="42.82248" lon="1.48024">
        <ele>2095.33</ele>
        <time>2016-10-31T13:41:09Z</time>
      </trkpt>
      <trkpt lat="42.82252" lon="1.48027">
        <ele>2093.89</ele>
        <time>2016-10-31T13:41:14Z</time>
      </trkpt>
      <trkpt lat="42.82258" lon="1.48038">
        <ele>2091.97</ele>
        <time>2016-10-31T13:41:26Z</time>
      </trkpt>
      <trkpt lat="42.8226" lon="1.48045">
        <ele>2091</ele>
        <time>2016-10-31T13:41:34Z</time>
      </trkpt>
      <trkpt lat="42.82262" lon="1.48048">
        <ele>2089.56</ele>
        <time>2016-10-31T13:41:47Z</time>
      </trkpt>
      <trkpt lat="42.82268" lon="1.48056">
        <ele>2087.64</ele>
        <time>2016-10-31T13:41:58Z</time>
      </trkpt>
      <trkpt lat="42.82276" lon="1.48063">
        <ele>2084.76</ele>
        <time>2016-10-31T13:42:09Z</time>
      </trkpt>
      <trkpt lat="42.8228" lon="1.48067">
        <ele>2081.39</ele>
        <time>2016-10-31T13:42:14Z</time>
      </trkpt>
      <trkpt lat="42.82281" lon="1.4807">
        <ele>2080.43</ele>
        <time>2016-10-31T13:42:16Z</time>
      </trkpt>
      <trkpt lat="42.82282" lon="1.48073">
        <ele>2079.95</ele>
        <time>2016-10-31T13:42:18Z</time>
      </trkpt>
      <trkpt lat="42.82288" lon="1.4808">
        <ele>2079.95</ele>
        <time>2016-10-31T13:42:28Z</time>
      </trkpt>
      <trkpt lat="42.82292" lon="1.48082">
        <ele>2078.51</ele>
        <time>2016-10-31T13:42:36Z</time>
      </trkpt>
      <trkpt lat="42.82294" lon="1.48085">
        <ele>2078.03</ele>
        <time>2016-10-31T13:42:39Z</time>
      </trkpt>
      <trkpt lat="42.82298" lon="1.48087">
        <ele>2077.07</ele>
        <time>2016-10-31T13:42:46Z</time>
      </trkpt>
      <trkpt lat="42.82301" lon="1.48077">
        <ele>2074.66</ele>
        <time>2016-10-31T13:42:57Z</time>
      </trkpt>
      <trkpt lat="42.82303" lon="1.48074">
        <ele>2070.34</ele>
        <time>2016-10-31T13:43:01Z</time>
      </trkpt>
      <trkpt lat="42.82305" lon="1.48074">
        <ele>2067.45</ele>
        <time>2016-10-31T13:43:04Z</time>
      </trkpt>
      <trkpt lat="42.8231" lon="1.48077">
        <ele>2066.49</ele>
        <time>2016-10-31T13:43:11Z</time>
      </trkpt>
      <trkpt lat="42.82312" lon="1.48082">
        <ele>2066.01</ele>
        <time>2016-10-31T13:43:15Z</time>
      </trkpt>
      <trkpt lat="42.82319" lon="1.4809">
        <ele>2065.05</ele>
        <time>2016-10-31T13:43:23Z</time>
      </trkpt>
      <trkpt lat="42.82323" lon="1.48097">
        <ele>2059.76</ele>
        <time>2016-10-31T13:43:28Z</time>
      </trkpt>
      <trkpt lat="42.82324" lon="1.48098">
        <ele>2058.8</ele>
        <time>2016-10-31T13:43:29Z</time>
      </trkpt>
      <trkpt lat="42.82327" lon="1.481">
        <ele>2057.36</ele>
        <time>2016-10-31T13:43:32Z</time>
      </trkpt>
      <trkpt lat="42.82328" lon="1.48101">
        <ele>2058.32</ele>
        <time>2016-10-31T13:43:33Z</time>
      </trkpt>
      <trkpt lat="42.82332" lon="1.48108">
        <ele>2057.36</ele>
        <time>2016-10-31T13:43:38Z</time>
      </trkpt>
      <trkpt lat="42.82334" lon="1.48112">
        <ele>2057.36</ele>
        <time>2016-10-31T13:43:41Z</time>
      </trkpt>
      <trkpt lat="42.82337" lon="1.48116">
        <ele>2057.36</ele>
        <time>2016-10-31T13:43:45Z</time>
      </trkpt>
      <trkpt lat="42.82339" lon="1.4812">
        <ele>2057.36</ele>
        <time>2016-10-31T13:43:48Z</time>
      </trkpt>
      <trkpt lat="42.82342" lon="1.48126">
        <ele>2056.88</ele>
        <time>2016-10-31T13:43:53Z</time>
      </trkpt>
      <trkpt lat="42.82351" lon="1.48141">
        <ele>2054.96</ele>
        <time>2016-10-31T13:44:04Z</time>
      </trkpt>
      <trkpt lat="42.82353" lon="1.48142">
        <ele>2055.44</ele>
        <time>2016-10-31T13:44:06Z</time>
      </trkpt>
      <trkpt lat="42.82354" lon="1.48146">
        <ele>2054.96</ele>
        <time>2016-10-31T13:44:09Z</time>
      </trkpt>
      <trkpt lat="42.82359" lon="1.48152">
        <ele>2053.51</ele>
        <time>2016-10-31T13:44:16Z</time>
      </trkpt>
      <trkpt lat="42.82365" lon="1.48156">
        <ele>2053.03</ele>
        <time>2016-10-31T13:44:23Z</time>
      </trkpt>
      <trkpt lat="42.82369" lon="1.48165">
        <ele>2051.11</ele>
        <time>2016-10-31T13:44:31Z</time>
      </trkpt>
      <trkpt lat="42.82371" lon="1.48169">
        <ele>2050.63</ele>
        <time>2016-10-31T13:44:35Z</time>
      </trkpt>
      <trkpt lat="42.82376" lon="1.48172">
        <ele>2049.19</ele>
        <time>2016-10-31T13:44:40Z</time>
      </trkpt>
      <trkpt lat="42.82379" lon="1.4818">
        <ele>2048.23</ele>
        <time>2016-10-31T13:44:47Z</time>
      </trkpt>
      <trkpt lat="42.82382" lon="1.48191">
        <ele>2047.26</ele>
        <time>2016-10-31T13:44:55Z</time>
      </trkpt>
      <trkpt lat="42.82385" lon="1.48201">
        <ele>2045.82</ele>
        <time>2016-10-31T13:45:02Z</time>
      </trkpt>
      <trkpt lat="42.82392" lon="1.48211">
        <ele>2044.38</ele>
        <time>2016-10-31T13:45:13Z</time>
      </trkpt>
      <trkpt lat="42.82392" lon="1.48211">
        <ele>2044.38</ele>
        <time>2016-10-31T13:45:14Z</time>
      </trkpt>
      <trkpt lat="42.82398" lon="1.48211">
        <ele>2040.05</ele>
        <time>2016-10-31T13:45:27Z</time>
      </trkpt>
      <trkpt lat="42.82399" lon="1.48211">
        <ele>2038.13</ele>
        <time>2016-10-31T13:45:44Z</time>
      </trkpt>
      <trkpt lat="42.824" lon="1.48212">
        <ele>2038.13</ele>
        <time>2016-10-31T13:46:02Z</time>
      </trkpt>
      <trkpt lat="42.824" lon="1.48212">
        <ele>2038.13</ele>
        <time>2016-10-31T13:46:22Z</time>
      </trkpt>
      <trkpt lat="42.82401" lon="1.48214">
        <ele>2038.13</ele>
        <time>2016-10-31T13:46:35Z</time>
      </trkpt>
      <trkpt lat="42.82401" lon="1.48219">
        <ele>2038.13</ele>
        <time>2016-10-31T13:46:40Z</time>
      </trkpt>
      <trkpt lat="42.82402" lon="1.48223">
        <ele>2038.13</ele>
        <time>2016-10-31T13:46:43Z</time>
      </trkpt>
      <trkpt lat="42.82405" lon="1.48235">
        <ele>2036.69</ele>
        <time>2016-10-31T13:46:51Z</time>
      </trkpt>
      <trkpt lat="42.82408" lon="1.48239">
        <ele>2036.21</ele>
        <time>2016-10-31T13:46:55Z</time>
      </trkpt>
      <trkpt lat="42.82411" lon="1.48244">
        <ele>2035.73</ele>
        <time>2016-10-31T13:46:59Z</time>
      </trkpt>
      <trkpt lat="42.82413" lon="1.48244">
        <ele>2035.25</ele>
        <time>2016-10-31T13:47:01Z</time>
      </trkpt>
      <trkpt lat="42.82415" lon="1.48252">
        <ele>2032.84</ele>
        <time>2016-10-31T13:47:08Z</time>
      </trkpt>
      <trkpt lat="42.82417" lon="1.48255">
        <ele>2030.92</ele>
        <time>2016-10-31T13:47:11Z</time>
      </trkpt>
      <trkpt lat="42.82417" lon="1.48257">
        <ele>2029.48</ele>
        <time>2016-10-31T13:47:13Z</time>
      </trkpt>
      <trkpt lat="42.82423" lon="1.48261">
        <ele>2027.08</ele>
        <time>2016-10-31T13:47:19Z</time>
      </trkpt>
      <trkpt lat="42.8243" lon="1.48261">
        <ele>2026.12</ele>
        <time>2016-10-31T13:47:25Z</time>
      </trkpt>
      <trkpt lat="42.82432" lon="1.48259">
        <ele>2026.12</ele>
        <time>2016-10-31T13:47:27Z</time>
      </trkpt>
      <trkpt lat="42.82438" lon="1.48255">
        <ele>2022.75</ele>
        <time>2016-10-31T13:47:37Z</time>
      </trkpt>
      <trkpt lat="42.8244" lon="1.48254">
        <ele>2021.31</ele>
        <time>2016-10-31T13:47:39Z</time>
      </trkpt>
      <trkpt lat="42.82447" lon="1.48254">
        <ele>2016.98</ele>
        <time>2016-10-31T13:47:46Z</time>
      </trkpt>
      <trkpt lat="42.82451" lon="1.48253">
        <ele>2016.5</ele>
        <time>2016-10-31T13:47:50Z</time>
      </trkpt>
      <trkpt lat="42.82453" lon="1.48255">
        <ele>2016.5</ele>
        <time>2016-10-31T13:47:54Z</time>
      </trkpt>
      <trkpt lat="42.82454" lon="1.48257">
        <ele>2016.5</ele>
        <time>2016-10-31T13:47:58Z</time>
      </trkpt>
      <trkpt lat="42.82457" lon="1.48255">
        <ele>2016.02</ele>
        <time>2016-10-31T13:48:01Z</time>
      </trkpt>
      <trkpt lat="42.82458" lon="1.48254">
        <ele>2015.54</ele>
        <time>2016-10-31T13:48:03Z</time>
      </trkpt>
      <trkpt lat="42.82461" lon="1.48254">
        <ele>2015.06</ele>
        <time>2016-10-31T13:48:06Z</time>
      </trkpt>
      <trkpt lat="42.82464" lon="1.48261">
        <ele>2011.7</ele>
        <time>2016-10-31T13:48:13Z</time>
      </trkpt>
      <trkpt lat="42.82465" lon="1.48266">
        <ele>2008.33</ele>
        <time>2016-10-31T13:48:17Z</time>
      </trkpt>
      <trkpt lat="42.82465" lon="1.48267">
        <ele>2007.85</ele>
        <time>2016-10-31T13:48:18Z</time>
      </trkpt>
      <trkpt lat="42.82471" lon="1.48272">
        <ele>2006.89</ele>
        <time>2016-10-31T13:48:23Z</time>
      </trkpt>
      <trkpt lat="42.82477" lon="1.48271">
        <ele>2006.41</ele>
        <time>2016-10-31T13:48:34Z</time>
      </trkpt>
      <trkpt lat="42.8248" lon="1.48272">
        <ele>2005.93</ele>
        <time>2016-10-31T13:48:40Z</time>
      </trkpt>
      <trkpt lat="42.82484" lon="1.48288">
        <ele>2003.52</ele>
        <time>2016-10-31T13:48:52Z</time>
      </trkpt>
      <trkpt lat="42.82489" lon="1.48293">
        <ele>2001.12</ele>
        <time>2016-10-31T13:49:02Z</time>
      </trkpt>
      <trkpt lat="42.8249" lon="1.48291">
        <ele>2000.16</ele>
        <time>2016-10-31T13:49:04Z</time>
      </trkpt>
      <trkpt lat="42.82491" lon="1.48289">
        <ele>1999.2</ele>
        <time>2016-10-31T13:49:06Z</time>
      </trkpt>
      <trkpt lat="42.82495" lon="1.48284">
        <ele>1995.35</ele>
        <time>2016-10-31T13:49:11Z</time>
      </trkpt>
      <trkpt lat="42.82498" lon="1.48281">
        <ele>1994.39</ele>
        <time>2016-10-31T13:49:15Z</time>
      </trkpt>
      <trkpt lat="42.82501" lon="1.4828">
        <ele>1994.39</ele>
        <time>2016-10-31T13:49:19Z</time>
      </trkpt>
      <trkpt lat="42.82503" lon="1.48268">
        <ele>1994.39</ele>
        <time>2016-10-31T13:49:28Z</time>
      </trkpt>
      <trkpt lat="42.82507" lon="1.48258">
        <ele>1992.95</ele>
        <time>2016-10-31T13:49:39Z</time>
      </trkpt>
      <trkpt lat="42.82509" lon="1.4826">
        <ele>1992.47</ele>
        <time>2016-10-31T13:49:42Z</time>
      </trkpt>
      <trkpt lat="42.82511" lon="1.48264">
        <ele>1990.07</ele>
        <time>2016-10-31T13:49:47Z</time>
      </trkpt>
      <trkpt lat="42.82515" lon="1.48264">
        <ele>1987.18</ele>
        <time>2016-10-31T13:49:51Z</time>
      </trkpt>
      <trkpt lat="42.82519" lon="1.48269">
        <ele>1984.78</ele>
        <time>2016-10-31T13:50:00Z</time>
      </trkpt>
      <trkpt lat="42.82527" lon="1.48263">
        <ele>1983.34</ele>
        <time>2016-10-31T13:50:13Z</time>
      </trkpt>
      <trkpt lat="42.82527" lon="1.48261">
        <ele>1982.86</ele>
        <time>2016-10-31T13:50:15Z</time>
      </trkpt>
      <trkpt lat="42.82529" lon="1.48249">
        <ele>1980.93</ele>
        <time>2016-10-31T13:50:26Z</time>
      </trkpt>
      <trkpt lat="42.82533" lon="1.4825">
        <ele>1978.53</ele>
        <time>2016-10-31T13:50:35Z</time>
      </trkpt>
      <trkpt lat="42.82536" lon="1.48254">
        <ele>1978.05</ele>
        <time>2016-10-31T13:50:39Z</time>
      </trkpt>
      <trkpt lat="42.8254" lon="1.48256">
        <ele>1977.57</ele>
        <time>2016-10-31T13:50:43Z</time>
      </trkpt>
      <trkpt lat="42.82542" lon="1.48258">
        <ele>1977.09</ele>
        <time>2016-10-31T13:50:46Z</time>
      </trkpt>
      <trkpt lat="42.82543" lon="1.48261">
        <ele>1976.13</ele>
        <time>2016-10-31T13:50:56Z</time>
      </trkpt>
      <trkpt lat="42.82539" lon="1.48266">
        <ele>1976.13</ele>
        <time>2016-10-31T13:51:02Z</time>
      </trkpt>
      <trkpt lat="42.8254" lon="1.48271">
        <ele>1976.13</ele>
        <time>2016-10-31T13:51:06Z</time>
      </trkpt>
      <trkpt lat="42.82536" lon="1.48283">
        <ele>1976.13</ele>
        <time>2016-10-31T13:51:16Z</time>
      </trkpt>
      <trkpt lat="42.82535" lon="1.48295">
        <ele>1977.09</ele>
        <time>2016-10-31T13:51:25Z</time>
      </trkpt>
      <trkpt lat="42.82534" lon="1.48302">
        <ele>1977.09</ele>
        <time>2016-10-31T13:51:31Z</time>
      </trkpt>
      <trkpt lat="42.82533" lon="1.48307">
        <ele>1977.09</ele>
        <time>2016-10-31T13:51:35Z</time>
      </trkpt>
      <trkpt lat="42.82532" lon="1.48322">
        <ele>1977.09</ele>
        <time>2016-10-31T13:51:46Z</time>
      </trkpt>
      <trkpt lat="42.82531" lon="1.48325">
        <ele>1977.09</ele>
        <time>2016-10-31T13:51:48Z</time>
      </trkpt>
      <trkpt lat="42.8253" lon="1.48331">
        <ele>1977.09</ele>
        <time>2016-10-31T13:51:52Z</time>
      </trkpt>
      <trkpt lat="42.82528" lon="1.48344">
        <ele>1977.09</ele>
        <time>2016-10-31T13:52:01Z</time>
      </trkpt>
      <trkpt lat="42.82528" lon="1.48355">
        <ele>1977.09</ele>
        <time>2016-10-31T13:52:12Z</time>
      </trkpt>
      <trkpt lat="42.82531" lon="1.4836">
        <ele>1975.17</ele>
        <time>2016-10-31T13:52:22Z</time>
      </trkpt>
      <trkpt lat="42.82532" lon="1.48361">
        <ele>1975.17</ele>
        <time>2016-10-31T13:52:23Z</time>
      </trkpt>
      <trkpt lat="42.82536" lon="1.48363">
        <ele>1974.2</ele>
        <time>2016-10-31T13:52:28Z</time>
      </trkpt>
      <trkpt lat="42.82538" lon="1.48367">
        <ele>1970.84</ele>
        <time>2016-10-31T13:52:36Z</time>
      </trkpt>
      <trkpt lat="42.8254" lon="1.4837">
        <ele>1967.48</ele>
        <time>2016-10-31T13:52:41Z</time>
      </trkpt>
      <trkpt lat="42.82544" lon="1.48377">
        <ele>1966.51</ele>
        <time>2016-10-31T13:52:53Z</time>
      </trkpt>
      <trkpt lat="42.82545" lon="1.48379">
        <ele>1966.51</ele>
        <time>2016-10-31T13:52:56Z</time>
      </trkpt>
      <trkpt lat="42.8255" lon="1.48384">
        <ele>1964.59</ele>
        <time>2016-10-31T13:53:08Z</time>
      </trkpt>
      <trkpt lat="42.82551" lon="1.48387">
        <ele>1961.71</ele>
        <time>2016-10-31T13:53:13Z</time>
      </trkpt>
      <trkpt lat="42.82554" lon="1.4839">
        <ele>1958.34</ele>
        <time>2016-10-31T13:53:18Z</time>
      </trkpt>
      <trkpt lat="42.82557" lon="1.48395">
        <ele>1956.9</ele>
        <time>2016-10-31T13:53:31Z</time>
      </trkpt>
      <trkpt lat="42.82563" lon="1.48398">
        <ele>1956.42</ele>
        <time>2016-10-31T13:53:48Z</time>
      </trkpt>
      <trkpt lat="42.82566" lon="1.48404">
        <ele>1954.5</ele>
        <time>2016-10-31T13:53:56Z</time>
      </trkpt>
      <trkpt lat="42.82573" lon="1.48411">
        <ele>1951.13</ele>
        <time>2016-10-31T13:54:06Z</time>
      </trkpt>
      <trkpt lat="42.82573" lon="1.48411">
        <ele>1950.17</ele>
        <time>2016-10-31T13:54:07Z</time>
      </trkpt>
      <trkpt lat="42.82579" lon="1.48413">
        <ele>1946.33</ele>
        <time>2016-10-31T13:54:14Z</time>
      </trkpt>
      <trkpt lat="42.82583" lon="1.48415">
        <ele>1946.33</ele>
        <time>2016-10-31T13:54:26Z</time>
      </trkpt>
      <trkpt lat="42.82585" lon="1.48419">
        <ele>1946.33</ele>
        <time>2016-10-31T13:54:36Z</time>
      </trkpt>
      <trkpt lat="42.82587" lon="1.48428">
        <ele>1945.36</ele>
        <time>2016-10-31T13:54:48Z</time>
      </trkpt>
      <trkpt lat="42.82591" lon="1.48435">
        <ele>1943.92</ele>
        <time>2016-10-31T13:55:00Z</time>
      </trkpt>
      <trkpt lat="42.82591" lon="1.48435">
        <ele>1943.44</ele>
        <time>2016-10-31T13:55:01Z</time>
      </trkpt>
      <trkpt lat="42.82594" lon="1.48445">
        <ele>1941.52</ele>
        <time>2016-10-31T13:55:11Z</time>
      </trkpt>
      <trkpt lat="42.82594" lon="1.48448">
        <ele>1941.04</ele>
        <time>2016-10-31T13:55:14Z</time>
      </trkpt>
      <trkpt lat="42.82595" lon="1.48452">
        <ele>1940.56</ele>
        <time>2016-10-31T13:55:18Z</time>
      </trkpt>
      <trkpt lat="42.82599" lon="1.48457">
        <ele>1936.71</ele>
        <time>2016-10-31T13:55:25Z</time>
      </trkpt>
      <trkpt lat="42.82599" lon="1.48457">
        <ele>1935.27</ele>
        <time>2016-10-31T13:55:33Z</time>
      </trkpt>
      <trkpt lat="42.826" lon="1.48461">
        <ele>1935.27</ele>
        <time>2016-10-31T13:55:36Z</time>
      </trkpt>
      <trkpt lat="42.82604" lon="1.48469">
        <ele>1935.27</ele>
        <time>2016-10-31T13:55:48Z</time>
      </trkpt>
      <trkpt lat="42.82609" lon="1.48477">
        <ele>1935.27</ele>
        <time>2016-10-31T13:55:59Z</time>
      </trkpt>
      <trkpt lat="42.82612" lon="1.48482">
        <ele>1934.31</ele>
        <time>2016-10-31T13:56:10Z</time>
      </trkpt>
      <trkpt lat="42.82612" lon="1.48486">
        <ele>1933.35</ele>
        <time>2016-10-31T13:56:19Z</time>
      </trkpt>
      <trkpt lat="42.82619" lon="1.48495">
        <ele>1932.39</ele>
        <time>2016-10-31T13:56:31Z</time>
      </trkpt>
      <trkpt lat="42.82622" lon="1.48499">
        <ele>1932.39</ele>
        <time>2016-10-31T13:56:43Z</time>
      </trkpt>
      <trkpt lat="42.82623" lon="1.485">
        <ele>1932.39</ele>
        <time>2016-10-31T13:56:45Z</time>
      </trkpt>
      <trkpt lat="42.82627" lon="1.48505">
        <ele>1932.39</ele>
        <time>2016-10-31T13:56:54Z</time>
      </trkpt>
      <trkpt lat="42.82628" lon="1.4851">
        <ele>1931.91</ele>
        <time>2016-10-31T13:57:04Z</time>
      </trkpt>
      <trkpt lat="42.82628" lon="1.48518">
        <ele>1931.91</ele>
        <time>2016-10-31T13:57:15Z</time>
      </trkpt>
      <trkpt lat="42.82627" lon="1.48522">
        <ele>1930.46</ele>
        <time>2016-10-31T13:57:23Z</time>
      </trkpt>
      <trkpt lat="42.82633" lon="1.48531">
        <ele>1928.54</ele>
        <time>2016-10-31T13:57:35Z</time>
      </trkpt>
      <trkpt lat="42.82636" lon="1.48533">
        <ele>1924.7</ele>
        <time>2016-10-31T13:57:39Z</time>
      </trkpt>
      <trkpt lat="42.82637" lon="1.48536">
        <ele>1921.81</ele>
        <time>2016-10-31T13:57:43Z</time>
      </trkpt>
      <trkpt lat="42.82639" lon="1.48539">
        <ele>1921.33</ele>
        <time>2016-10-31T13:57:46Z</time>
      </trkpt>
      <trkpt lat="42.8264" lon="1.48543">
        <ele>1920.85</ele>
        <time>2016-10-31T13:57:49Z</time>
      </trkpt>
      <trkpt lat="42.82648" lon="1.4855">
        <ele>1920.37</ele>
        <time>2016-10-31T13:58:01Z</time>
      </trkpt>
      <trkpt lat="42.82649" lon="1.48548">
        <ele>1919.89</ele>
        <time>2016-10-31T13:58:24Z</time>
      </trkpt>
      <trkpt lat="42.82651" lon="1.48555">
        <ele>1919.41</ele>
        <time>2016-10-31T13:58:40Z</time>
      </trkpt>
      <trkpt lat="42.82654" lon="1.48566">
        <ele>1918.45</ele>
        <time>2016-10-31T13:58:51Z</time>
      </trkpt>
      <trkpt lat="42.82658" lon="1.4857">
        <ele>1917.97</ele>
        <time>2016-10-31T13:58:56Z</time>
      </trkpt>
      <trkpt lat="42.82664" lon="1.48574">
        <ele>1917.01</ele>
        <time>2016-10-31T13:59:04Z</time>
      </trkpt>
      <trkpt lat="42.82665" lon="1.48582">
        <ele>1916.04</ele>
        <time>2016-10-31T13:59:14Z</time>
      </trkpt>
      <trkpt lat="42.82667" lon="1.48583">
        <ele>1915.56</ele>
        <time>2016-10-31T13:59:28Z</time>
      </trkpt>
      <trkpt lat="42.8267" lon="1.48592">
        <ele>1913.64</ele>
        <time>2016-10-31T13:59:39Z</time>
      </trkpt>
      <trkpt lat="42.82672" lon="1.48596">
        <ele>1910.28</ele>
        <time>2016-10-31T13:59:44Z</time>
      </trkpt>
      <trkpt lat="42.82674" lon="1.48598">
        <ele>1907.39</ele>
        <time>2016-10-31T13:59:48Z</time>
      </trkpt>
      <trkpt lat="42.82678" lon="1.48606">
        <ele>1905.47</ele>
        <time>2016-10-31T14:00:00Z</time>
      </trkpt>
      <trkpt lat="42.82679" lon="1.48606">
        <ele>1905.47</ele>
        <time>2016-10-31T14:00:01Z</time>
      </trkpt>
      <trkpt lat="42.82679" lon="1.48612">
        <ele>1904.51</ele>
        <time>2016-10-31T14:00:11Z</time>
      </trkpt>
      <trkpt lat="42.82683" lon="1.48614">
        <ele>1902.11</ele>
        <time>2016-10-31T14:00:24Z</time>
      </trkpt>
      <trkpt lat="42.82684" lon="1.48617">
        <ele>1901.14</ele>
        <time>2016-10-31T14:00:32Z</time>
      </trkpt>
      <trkpt lat="42.82687" lon="1.4862">
        <ele>1897.78</ele>
        <time>2016-10-31T14:00:38Z</time>
      </trkpt>
      <trkpt lat="42.8269" lon="1.48622">
        <ele>1893.93</ele>
        <time>2016-10-31T14:00:42Z</time>
      </trkpt>
      <trkpt lat="42.82693" lon="1.48627">
        <ele>1892.01</ele>
        <time>2016-10-31T14:00:55Z</time>
      </trkpt>
      <trkpt lat="42.82693" lon="1.48634">
        <ele>1890.57</ele>
        <time>2016-10-31T14:01:06Z</time>
      </trkpt>
      <trkpt lat="42.82695" lon="1.48637">
        <ele>1886.72</ele>
        <time>2016-10-31T14:01:14Z</time>
      </trkpt>
      <trkpt lat="42.82695" lon="1.4864">
        <ele>1885.28</ele>
        <time>2016-10-31T14:01:16Z</time>
      </trkpt>
      <trkpt lat="42.82698" lon="1.48643">
        <ele>1882.4</ele>
        <time>2016-10-31T14:01:20Z</time>
      </trkpt>
      <trkpt lat="42.82701" lon="1.48646">
        <ele>1881.44</ele>
        <time>2016-10-31T14:01:26Z</time>
      </trkpt>
      <trkpt lat="42.82706" lon="1.48652">
        <ele>1881.44</ele>
        <time>2016-10-31T14:01:31Z</time>
      </trkpt>
      <trkpt lat="42.82715" lon="1.48661">
        <ele>1880</ele>
        <time>2016-10-31T14:01:42Z</time>
      </trkpt>
      <trkpt lat="42.82717" lon="1.48662">
        <ele>1879.03</ele>
        <time>2016-10-31T14:01:44Z</time>
      </trkpt>
      <trkpt lat="42.82721" lon="1.48666">
        <ele>1878.07</ele>
        <time>2016-10-31T14:01:50Z</time>
      </trkpt>
      <trkpt lat="42.82721" lon="1.48668">
        <ele>1878.07</ele>
        <time>2016-10-31T14:01:52Z</time>
      </trkpt>
      <trkpt lat="42.8272" lon="1.48672">
        <ele>1877.59</ele>
        <time>2016-10-31T14:01:55Z</time>
      </trkpt>
      <trkpt lat="42.82721" lon="1.4868">
        <ele>1875.67</ele>
        <time>2016-10-31T14:02:06Z</time>
      </trkpt>
      <trkpt lat="42.82722" lon="1.48686">
        <ele>1874.71</ele>
        <time>2016-10-31T14:02:18Z</time>
      </trkpt>
      <trkpt lat="42.82724" lon="1.48691">
        <ele>1872.79</ele>
        <time>2016-10-31T14:02:28Z</time>
      </trkpt>
      <trkpt lat="42.82727" lon="1.48695">
        <ele>1870.38</ele>
        <time>2016-10-31T14:02:41Z</time>
      </trkpt>
      <trkpt lat="42.82727" lon="1.48695">
        <ele>1869.42</ele>
        <time>2016-10-31T14:02:47Z</time>
      </trkpt>
      <trkpt lat="42.8273" lon="1.487">
        <ele>1867.5</ele>
        <time>2016-10-31T14:02:58Z</time>
      </trkpt>
      <trkpt lat="42.82737" lon="1.48708">
        <ele>1864.13</ele>
        <time>2016-10-31T14:03:09Z</time>
      </trkpt>
      <trkpt lat="42.82739" lon="1.48712">
        <ele>1860.77</ele>
        <time>2016-10-31T14:03:13Z</time>
      </trkpt>
      <trkpt lat="42.82742" lon="1.48716">
        <ele>1857.4</ele>
        <time>2016-10-31T14:03:18Z</time>
      </trkpt>
      <trkpt lat="42.82747" lon="1.48726">
        <ele>1856.92</ele>
        <time>2016-10-31T14:03:30Z</time>
      </trkpt>
      <trkpt lat="42.82749" lon="1.48736">
        <ele>1853.56</ele>
        <time>2016-10-31T14:03:40Z</time>
      </trkpt>
      <trkpt lat="42.8275" lon="1.48737">
        <ele>1852.12</ele>
        <time>2016-10-31T14:03:42Z</time>
      </trkpt>
      <trkpt lat="42.82751" lon="1.48741">
        <ele>1847.79</ele>
        <time>2016-10-31T14:03:48Z</time>
      </trkpt>
      <trkpt lat="42.82754" lon="1.48743">
        <ele>1847.31</ele>
        <time>2016-10-31T14:03:53Z</time>
      </trkpt>
      <trkpt lat="42.82758" lon="1.48748">
        <ele>1847.31</ele>
        <time>2016-10-31T14:03:59Z</time>
      </trkpt>
      <trkpt lat="42.82758" lon="1.48751">
        <ele>1846.83</ele>
        <time>2016-10-31T14:04:02Z</time>
      </trkpt>
      <trkpt lat="42.82759" lon="1.48755">
        <ele>1845.39</ele>
        <time>2016-10-31T14:04:05Z</time>
      </trkpt>
      <trkpt lat="42.82761" lon="1.48761">
        <ele>1842.02</ele>
        <time>2016-10-31T14:04:09Z</time>
      </trkpt>
      <trkpt lat="42.82765" lon="1.48767">
        <ele>1837.7</ele>
        <time>2016-10-31T14:04:14Z</time>
      </trkpt>
      <trkpt lat="42.82765" lon="1.48768">
        <ele>1837.7</ele>
        <time>2016-10-31T14:04:15Z</time>
      </trkpt>
      <trkpt lat="42.8277" lon="1.48783">
        <ele>1836.74</ele>
        <time>2016-10-31T14:04:27Z</time>
      </trkpt>
      <trkpt lat="42.82772" lon="1.48788">
        <ele>1835.77</ele>
        <time>2016-10-31T14:04:30Z</time>
      </trkpt>
      <trkpt lat="42.82775" lon="1.48795">
        <ele>1835.29</ele>
        <time>2016-10-31T14:04:35Z</time>
      </trkpt>
      <trkpt lat="42.82777" lon="1.48804">
        <ele>1834.33</ele>
        <time>2016-10-31T14:04:41Z</time>
      </trkpt>
      <trkpt lat="42.82782" lon="1.48815">
        <ele>1830.49</ele>
        <time>2016-10-31T14:04:50Z</time>
      </trkpt>
      <trkpt lat="42.82786" lon="1.48821">
        <ele>1827.12</ele>
        <time>2016-10-31T14:04:55Z</time>
      </trkpt>
      <trkpt lat="42.82789" lon="1.48831">
        <ele>1825.68</ele>
        <time>2016-10-31T14:05:03Z</time>
      </trkpt>
      <trkpt lat="42.82797" lon="1.4884">
        <ele>1824.72</ele>
        <time>2016-10-31T14:05:15Z</time>
      </trkpt>
      <trkpt lat="42.82798" lon="1.48841">
        <ele>1824.24</ele>
        <time>2016-10-31T14:05:16Z</time>
      </trkpt>
      <trkpt lat="42.82801" lon="1.48848">
        <ele>1823.28</ele>
        <time>2016-10-31T14:05:23Z</time>
      </trkpt>
      <trkpt lat="42.82805" lon="1.48851">
        <ele>1818.95</ele>
        <time>2016-10-31T14:05:28Z</time>
      </trkpt>
      <trkpt lat="42.82807" lon="1.48853">
        <ele>1816.55</ele>
        <time>2016-10-31T14:05:31Z</time>
      </trkpt>
      <trkpt lat="42.82808" lon="1.48855">
        <ele>1816.07</ele>
        <time>2016-10-31T14:05:33Z</time>
      </trkpt>
      <trkpt lat="42.8281" lon="1.48861">
        <ele>1815.59</ele>
        <time>2016-10-31T14:05:39Z</time>
      </trkpt>
      <trkpt lat="42.82818" lon="1.4887">
        <ele>1815.11</ele>
        <time>2016-10-31T14:05:50Z</time>
      </trkpt>
      <trkpt lat="42.82822" lon="1.48874">
        <ele>1812.7</ele>
        <time>2016-10-31T14:06:03Z</time>
      </trkpt>
      <trkpt lat="42.82822" lon="1.48874">
        <ele>1812.7</ele>
        <time>2016-10-31T14:06:05Z</time>
      </trkpt>
      <trkpt lat="42.82829" lon="1.48875">
        <ele>1808.86</ele>
        <time>2016-10-31T14:06:16Z</time>
      </trkpt>
      <trkpt lat="42.8283" lon="1.48874">
        <ele>1806.45</ele>
        <time>2016-10-31T14:06:19Z</time>
      </trkpt>
      <trkpt lat="42.82833" lon="1.48873">
        <ele>1804.05</ele>
        <time>2016-10-31T14:06:22Z</time>
      </trkpt>
      <trkpt lat="42.82837" lon="1.48876">
        <ele>1803.09</ele>
        <time>2016-10-31T14:06:27Z</time>
      </trkpt>
      <trkpt lat="42.82838" lon="1.48884">
        <ele>1803.09</ele>
        <time>2016-10-31T14:06:39Z</time>
      </trkpt>
      <trkpt lat="42.82837" lon="1.48887">
        <ele>1802.61</ele>
        <time>2016-10-31T14:06:41Z</time>
      </trkpt>
      <trkpt lat="42.82837" lon="1.48893">
        <ele>1802.61</ele>
        <time>2016-10-31T14:06:45Z</time>
      </trkpt>
      <trkpt lat="42.82838" lon="1.48899">
        <ele>1801.17</ele>
        <time>2016-10-31T14:06:53Z</time>
      </trkpt>
      <trkpt lat="42.82837" lon="1.48908">
        <ele>1799.73</ele>
        <time>2016-10-31T14:06:59Z</time>
      </trkpt>
      <trkpt lat="42.82844" lon="1.48914">
        <ele>1797.8</ele>
        <time>2016-10-31T14:07:12Z</time>
      </trkpt>
      <trkpt lat="42.82846" lon="1.48916">
        <ele>1795.88</ele>
        <time>2016-10-31T14:07:22Z</time>
      </trkpt>
      <trkpt lat="42.82848" lon="1.48916">
        <ele>1795.88</ele>
        <time>2016-10-31T14:07:25Z</time>
      </trkpt>
      <trkpt lat="42.82854" lon="1.48918">
        <ele>1793.48</ele>
        <time>2016-10-31T14:07:36Z</time>
      </trkpt>
      <trkpt lat="42.82854" lon="1.48918">
        <ele>1793.48</ele>
        <time>2016-10-31T14:07:37Z</time>
      </trkpt>
      <trkpt lat="42.82857" lon="1.48924">
        <ele>1791.55</ele>
        <time>2016-10-31T14:07:44Z</time>
      </trkpt>
      <trkpt lat="42.82858" lon="1.48925">
        <ele>1791.55</ele>
        <time>2016-10-31T14:07:46Z</time>
      </trkpt>
      <trkpt lat="42.82859" lon="1.48932">
        <ele>1787.23</ele>
        <time>2016-10-31T14:07:52Z</time>
      </trkpt>
      <trkpt lat="42.8286" lon="1.48932">
        <ele>1786.27</ele>
        <time>2016-10-31T14:07:53Z</time>
      </trkpt>
      <trkpt lat="42.82861" lon="1.48933">
        <ele>1784.82</ele>
        <time>2016-10-31T14:07:55Z</time>
      </trkpt>
      <trkpt lat="42.82862" lon="1.48942">
        <ele>1783.86</ele>
        <time>2016-10-31T14:08:06Z</time>
      </trkpt>
      <trkpt lat="42.82864" lon="1.48945">
        <ele>1783.38</ele>
        <time>2016-10-31T14:08:15Z</time>
      </trkpt>
      <trkpt lat="42.82866" lon="1.4895">
        <ele>1781.46</ele>
        <time>2016-10-31T14:08:24Z</time>
      </trkpt>
      <trkpt lat="42.82866" lon="1.48957">
        <ele>1777.61</ele>
        <time>2016-10-31T14:08:33Z</time>
      </trkpt>
      <trkpt lat="42.82868" lon="1.48961">
        <ele>1773.77</ele>
        <time>2016-10-31T14:08:37Z</time>
      </trkpt>
      <trkpt lat="42.82869" lon="1.48963">
        <ele>1772.33</ele>
        <time>2016-10-31T14:08:39Z</time>
      </trkpt>
      <trkpt lat="42.82871" lon="1.48964">
        <ele>1771.37</ele>
        <time>2016-10-31T14:08:41Z</time>
      </trkpt>
      <trkpt lat="42.82876" lon="1.48968">
        <ele>1770.89</ele>
        <time>2016-10-31T14:08:49Z</time>
      </trkpt>
      <trkpt lat="42.82878" lon="1.48972">
        <ele>1770.89</ele>
        <time>2016-10-31T14:08:53Z</time>
      </trkpt>
      <trkpt lat="42.82881" lon="1.48975">
        <ele>1770.89</ele>
        <time>2016-10-31T14:08:58Z</time>
      </trkpt>
      <trkpt lat="42.82882" lon="1.48979">
        <ele>1770.41</ele>
        <time>2016-10-31T14:09:01Z</time>
      </trkpt>
      <trkpt lat="42.82889" lon="1.48994">
        <ele>1768</ele>
        <time>2016-10-31T14:09:14Z</time>
      </trkpt>
      <trkpt lat="42.82892" lon="1.49">
        <ele>1765.6</ele>
        <time>2016-10-31T14:09:21Z</time>
      </trkpt>
      <trkpt lat="42.82894" lon="1.49005">
        <ele>1765.6</ele>
        <time>2016-10-31T14:09:25Z</time>
      </trkpt>
      <trkpt lat="42.82897" lon="1.49006">
        <ele>1764.64</ele>
        <time>2016-10-31T14:09:28Z</time>
      </trkpt>
      <trkpt lat="42.82899" lon="1.49008">
        <ele>1762.23</ele>
        <time>2016-10-31T14:09:31Z</time>
      </trkpt>
      <trkpt lat="42.82904" lon="1.49013">
        <ele>1758.39</ele>
        <time>2016-10-31T14:09:37Z</time>
      </trkpt>
      <trkpt lat="42.82904" lon="1.49013">
        <ele>1758.87</ele>
        <time>2016-10-31T14:09:38Z</time>
      </trkpt>
      <trkpt lat="42.82907" lon="1.49015">
        <ele>1757.91</ele>
        <time>2016-10-31T14:09:42Z</time>
      </trkpt>
      <trkpt lat="42.82909" lon="1.49015">
        <ele>1757.91</ele>
        <time>2016-10-31T14:09:44Z</time>
      </trkpt>
      <trkpt lat="42.82912" lon="1.49022">
        <ele>1757.43</ele>
        <time>2016-10-31T14:09:51Z</time>
      </trkpt>
      <trkpt lat="42.82915" lon="1.49029">
        <ele>1756.95</ele>
        <time>2016-10-31T14:09:57Z</time>
      </trkpt>
      <trkpt lat="42.82918" lon="1.49039">
        <ele>1755.5</ele>
        <time>2016-10-31T14:10:05Z</time>
      </trkpt>
      <trkpt lat="42.82921" lon="1.49046">
        <ele>1754.06</ele>
        <time>2016-10-31T14:10:12Z</time>
      </trkpt>
      <trkpt lat="42.82926" lon="1.49051">
        <ele>1753.1</ele>
        <time>2016-10-31T14:10:19Z</time>
      </trkpt>
      <trkpt lat="42.82927" lon="1.49053">
        <ele>1752.14</ele>
        <time>2016-10-31T14:10:21Z</time>
      </trkpt>
      <trkpt lat="42.82934" lon="1.49067">
        <ele>1750.22</ele>
        <time>2016-10-31T14:10:35Z</time>
      </trkpt>
      <trkpt lat="42.82935" lon="1.49068">
        <ele>1749.74</ele>
        <time>2016-10-31T14:10:36Z</time>
      </trkpt>
      <trkpt lat="42.82943" lon="1.49082">
        <ele>1748.29</ele>
        <time>2016-10-31T14:10:47Z</time>
      </trkpt>
      <trkpt lat="42.82944" lon="1.49086">
        <ele>1747.33</ele>
        <time>2016-10-31T14:10:50Z</time>
      </trkpt>
      <trkpt lat="42.8295" lon="1.49095">
        <ele>1744.93</ele>
        <time>2016-10-31T14:10:58Z</time>
      </trkpt>
      <trkpt lat="42.82956" lon="1.49101">
        <ele>1743.97</ele>
        <time>2016-10-31T14:11:05Z</time>
      </trkpt>
      <trkpt lat="42.82962" lon="1.49108">
        <ele>1741.57</ele>
        <time>2016-10-31T14:11:17Z</time>
      </trkpt>
      <trkpt lat="42.82962" lon="1.49109">
        <ele>1740.6</ele>
        <time>2016-10-31T14:11:41Z</time>
      </trkpt>
      <trkpt lat="42.82962" lon="1.4911">
        <ele>1740.12</ele>
        <time>2016-10-31T14:11:54Z</time>
      </trkpt>
      <trkpt lat="42.82963" lon="1.4911">
        <ele>1740.12</ele>
        <time>2016-10-31T14:12:17Z</time>
      </trkpt>
      <trkpt lat="42.82963" lon="1.4911">
        <ele>1740.12</ele>
        <time>2016-10-31T14:12:39Z</time>
      </trkpt>
      <trkpt lat="42.82963" lon="1.4911">
        <ele>1740.12</ele>
        <time>2016-10-31T14:12:50Z</time>
      </trkpt>
      <trkpt lat="42.82963" lon="1.49111">
        <ele>1739.64</ele>
        <time>2016-10-31T14:13:13Z</time>
      </trkpt>
      <trkpt lat="42.82962" lon="1.49111">
        <ele>1739.64</ele>
        <time>2016-10-31T14:13:34Z</time>
      </trkpt>
      <trkpt lat="42.82965" lon="1.49118">
        <ele>1739.64</ele>
        <time>2016-10-31T14:13:46Z</time>
      </trkpt>
      <trkpt lat="42.82969" lon="1.49126">
        <ele>1739.64</ele>
        <time>2016-10-31T14:13:53Z</time>
      </trkpt>
      <trkpt lat="42.82973" lon="1.49131">
        <ele>1739.16</ele>
        <time>2016-10-31T14:13:58Z</time>
      </trkpt>
      <trkpt lat="42.82973" lon="1.49136">
        <ele>1739.16</ele>
        <time>2016-10-31T14:14:01Z</time>
      </trkpt>
      <trkpt lat="42.82974" lon="1.49143">
        <ele>1738.68</ele>
        <time>2016-10-31T14:14:06Z</time>
      </trkpt>
      <trkpt lat="42.82977" lon="1.49148">
        <ele>1738.2</ele>
        <time>2016-10-31T14:14:10Z</time>
      </trkpt>
      <trkpt lat="42.82977" lon="1.49156">
        <ele>1737.24</ele>
        <time>2016-10-31T14:14:15Z</time>
      </trkpt>
      <trkpt lat="42.82981" lon="1.49166">
        <ele>1736.76</ele>
        <time>2016-10-31T14:14:22Z</time>
      </trkpt>
      <trkpt lat="42.82983" lon="1.49175">
        <ele>1735.8</ele>
        <time>2016-10-31T14:14:29Z</time>
      </trkpt>
      <trkpt lat="42.82988" lon="1.49183">
        <ele>1735.32</ele>
        <time>2016-10-31T14:14:34Z</time>
      </trkpt>
      <trkpt lat="42.82994" lon="1.49194">
        <ele>1733.88</ele>
        <time>2016-10-31T14:14:43Z</time>
      </trkpt>
      <trkpt lat="42.82995" lon="1.49196">
        <ele>1733.39</ele>
        <time>2016-10-31T14:14:45Z</time>
      </trkpt>
      <trkpt lat="42.82996" lon="1.49199">
        <ele>1732.91</ele>
        <time>2016-10-31T14:14:49Z</time>
      </trkpt>
      <trkpt lat="42.82997" lon="1.49205">
        <ele>1732.43</ele>
        <time>2016-10-31T14:14:53Z</time>
      </trkpt>
      <trkpt lat="42.82996" lon="1.49212">
        <ele>1731.95</ele>
        <time>2016-10-31T14:14:59Z</time>
      </trkpt>
      <trkpt lat="42.82997" lon="1.49216">
        <ele>1731.47</ele>
        <time>2016-10-31T14:15:02Z</time>
      </trkpt>
      <trkpt lat="42.83" lon="1.49221">
        <ele>1730.99</ele>
        <time>2016-10-31T14:15:07Z</time>
      </trkpt>
      <trkpt lat="42.83001" lon="1.49226">
        <ele>1730.51</ele>
        <time>2016-10-31T14:15:10Z</time>
      </trkpt>
      <trkpt lat="42.83006" lon="1.49237">
        <ele>1729.07</ele>
        <time>2016-10-31T14:15:18Z</time>
      </trkpt>
      <trkpt lat="42.83013" lon="1.49248">
        <ele>1727.15</ele>
        <time>2016-10-31T14:15:31Z</time>
      </trkpt>
      <trkpt lat="42.83013" lon="1.49248">
        <ele>1725.7</ele>
        <time>2016-10-31T14:15:41Z</time>
      </trkpt>
      <trkpt lat="42.83014" lon="1.49249">
        <ele>1725.7</ele>
        <time>2016-10-31T14:15:43Z</time>
      </trkpt>
      <trkpt lat="42.83015" lon="1.49252">
        <ele>1725.7</ele>
        <time>2016-10-31T14:15:46Z</time>
      </trkpt>
      <trkpt lat="42.83018" lon="1.49255">
        <ele>1725.22</ele>
        <time>2016-10-31T14:15:49Z</time>
      </trkpt>
      <trkpt lat="42.83022" lon="1.49259">
        <ele>1725.22</ele>
        <time>2016-10-31T14:15:55Z</time>
      </trkpt>
      <trkpt lat="42.83027" lon="1.49264">
        <ele>1724.74</ele>
        <time>2016-10-31T14:16:00Z</time>
      </trkpt>
      <trkpt lat="42.83027" lon="1.49267">
        <ele>1724.74</ele>
        <time>2016-10-31T14:16:02Z</time>
      </trkpt>
      <trkpt lat="42.83031" lon="1.49276">
        <ele>1724.74</ele>
        <time>2016-10-31T14:16:14Z</time>
      </trkpt>
      <trkpt lat="42.8303" lon="1.49277">
        <ele>1724.74</ele>
        <time>2016-10-31T14:16:16Z</time>
      </trkpt>
      <trkpt lat="42.83018" lon="1.49278">
        <ele>1721.86</ele>
        <time>2016-10-31T14:16:25Z</time>
      </trkpt>
      <trkpt lat="42.83012" lon="1.49276">
        <ele>1718.01</ele>
        <time>2016-10-31T14:16:29Z</time>
      </trkpt>
      <trkpt lat="42.8301" lon="1.49277">
        <ele>1717.05</ele>
        <time>2016-10-31T14:16:31Z</time>
      </trkpt>
      <trkpt lat="42.82992" lon="1.49269">
        <ele>1715.13</ele>
        <time>2016-10-31T14:16:46Z</time>
      </trkpt>
      <trkpt lat="42.82985" lon="1.49263">
        <ele>1714.17</ele>
        <time>2016-10-31T14:16:53Z</time>
      </trkpt>
      <trkpt lat="42.82983" lon="1.49263">
        <ele>1713.21</ele>
        <time>2016-10-31T14:16:55Z</time>
      </trkpt>
      <trkpt lat="42.82975" lon="1.4926">
        <ele>1712.25</ele>
        <time>2016-10-31T14:17:02Z</time>
      </trkpt>
      <trkpt lat="42.82968" lon="1.49259">
        <ele>1707.92</ele>
        <time>2016-10-31T14:17:08Z</time>
      </trkpt>
      <trkpt lat="42.82964" lon="1.49258">
        <ele>1704.07</ele>
        <time>2016-10-31T14:17:12Z</time>
      </trkpt>
      <trkpt lat="42.82961" lon="1.49258">
        <ele>1702.63</ele>
        <time>2016-10-31T14:17:15Z</time>
      </trkpt>
      <trkpt lat="42.8296" lon="1.49258">
        <ele>1703.11</ele>
        <time>2016-10-31T14:17:16Z</time>
      </trkpt>
      <trkpt lat="42.82951" lon="1.49254">
        <ele>1702.63</ele>
        <time>2016-10-31T14:17:26Z</time>
      </trkpt>
      <trkpt lat="42.82949" lon="1.49254">
        <ele>1702.63</ele>
        <time>2016-10-31T14:17:28Z</time>
      </trkpt>
      <trkpt lat="42.82944" lon="1.49257">
        <ele>1702.15</ele>
        <time>2016-10-31T14:17:33Z</time>
      </trkpt>
      <trkpt lat="42.82941" lon="1.49258">
        <ele>1700.71</ele>
        <time>2016-10-31T14:17:37Z</time>
      </trkpt>
      <trkpt lat="42.82936" lon="1.49258">
        <ele>1700.23</ele>
        <time>2016-10-31T14:17:42Z</time>
      </trkpt>
      <trkpt lat="42.82934" lon="1.49259">
        <ele>1699.75</ele>
        <time>2016-10-31T14:17:44Z</time>
      </trkpt>
      <trkpt lat="42.82932" lon="1.49267">
        <ele>1695.42</ele>
        <time>2016-10-31T14:17:50Z</time>
      </trkpt>
      <trkpt lat="42.8293" lon="1.49275">
        <ele>1692.06</ele>
        <time>2016-10-31T14:17:55Z</time>
      </trkpt>
      <trkpt lat="42.8293" lon="1.49277">
        <ele>1692.06</ele>
        <time>2016-10-31T14:17:57Z</time>
      </trkpt>
      <trkpt lat="42.82937" lon="1.49291">
        <ele>1690.62</ele>
        <time>2016-10-31T14:18:07Z</time>
      </trkpt>
      <trkpt lat="42.82938" lon="1.49292">
        <ele>1690.62</ele>
        <time>2016-10-31T14:18:08Z</time>
      </trkpt>
      <trkpt lat="42.82941" lon="1.49299">
        <ele>1689.65</ele>
        <time>2016-10-31T14:18:12Z</time>
      </trkpt>
      <trkpt lat="42.82947" lon="1.49307">
        <ele>1688.69</ele>
        <time>2016-10-31T14:18:18Z</time>
      </trkpt>
      <trkpt lat="42.82949" lon="1.49317">
        <ele>1687.73</ele>
        <time>2016-10-31T14:18:24Z</time>
      </trkpt>
      <trkpt lat="42.82955" lon="1.4933">
        <ele>1685.33</ele>
        <time>2016-10-31T14:18:33Z</time>
      </trkpt>
      <trkpt lat="42.8296" lon="1.49336">
        <ele>1681.48</ele>
        <time>2016-10-31T14:18:39Z</time>
      </trkpt>
      <trkpt lat="42.82962" lon="1.49341">
        <ele>1679.56</ele>
        <time>2016-10-31T14:18:42Z</time>
      </trkpt>
      <trkpt lat="42.82964" lon="1.49355">
        <ele>1678.6</ele>
        <time>2016-10-31T14:18:51Z</time>
      </trkpt>
      <trkpt lat="42.82969" lon="1.49368">
        <ele>1677.64</ele>
        <time>2016-10-31T14:19:04Z</time>
      </trkpt>
      <trkpt lat="42.82969" lon="1.4937">
        <ele>1677.16</ele>
        <time>2016-10-31T14:19:07Z</time>
      </trkpt>
      <trkpt lat="42.82973" lon="1.49375">
        <ele>1674.75</ele>
        <time>2016-10-31T14:19:18Z</time>
      </trkpt>
      <trkpt lat="42.82974" lon="1.49379">
        <ele>1673.79</ele>
        <time>2016-10-31T14:19:31Z</time>
      </trkpt>
      <trkpt lat="42.82976" lon="1.49383">
        <ele>1672.35</ele>
        <time>2016-10-31T14:19:37Z</time>
      </trkpt>
      <trkpt lat="42.8298" lon="1.49393">
        <ele>1669.95</ele>
        <time>2016-10-31T14:19:47Z</time>
      </trkpt>
      <trkpt lat="42.82984" lon="1.49401">
        <ele>1666.58</ele>
        <time>2016-10-31T14:19:54Z</time>
      </trkpt>
      <trkpt lat="42.82984" lon="1.49402">
        <ele>1665.62</ele>
        <time>2016-10-31T14:19:55Z</time>
      </trkpt>
      <trkpt lat="42.82984" lon="1.49409">
        <ele>1662.74</ele>
        <time>2016-10-31T14:20:02Z</time>
      </trkpt>
      <trkpt lat="42.82978" lon="1.49411">
        <ele>1661.78</ele>
        <time>2016-10-31T14:20:08Z</time>
      </trkpt>
      <trkpt lat="42.82975" lon="1.49412">
        <ele>1661.3</ele>
        <time>2016-10-31T14:20:11Z</time>
      </trkpt>
      <trkpt lat="42.82976" lon="1.49415">
        <ele>1661.3</ele>
        <time>2016-10-31T14:20:14Z</time>
      </trkpt>
      <trkpt lat="42.82971" lon="1.49419">
        <ele>1659.85</ele>
        <time>2016-10-31T14:20:20Z</time>
      </trkpt>
      <trkpt lat="42.82972" lon="1.49421">
        <ele>1659.37</ele>
        <time>2016-10-31T14:20:22Z</time>
      </trkpt>
      <trkpt lat="42.82976" lon="1.49426">
        <ele>1658.89</ele>
        <time>2016-10-31T14:20:27Z</time>
      </trkpt>
      <trkpt lat="42.82971" lon="1.49438">
        <ele>1656.01</ele>
        <time>2016-10-31T14:20:40Z</time>
      </trkpt>
      <trkpt lat="42.8297" lon="1.49441">
        <ele>1653.12</ele>
        <time>2016-10-31T14:20:45Z</time>
      </trkpt>
      <trkpt lat="42.8297" lon="1.49446">
        <ele>1649.28</ele>
        <time>2016-10-31T14:20:50Z</time>
      </trkpt>
      <trkpt lat="42.82971" lon="1.49454">
        <ele>1646.4</ele>
        <time>2016-10-31T14:21:00Z</time>
      </trkpt>
      <trkpt lat="42.82974" lon="1.49459">
        <ele>1646.4</ele>
        <time>2016-10-31T14:21:05Z</time>
      </trkpt>
      <trkpt lat="42.82976" lon="1.49465">
        <ele>1645.43</ele>
        <time>2016-10-31T14:21:14Z</time>
      </trkpt>
      <trkpt lat="42.82978" lon="1.49469">
        <ele>1643.51</ele>
        <time>2016-10-31T14:21:20Z</time>
      </trkpt>
      <trkpt lat="42.8298" lon="1.49471">
        <ele>1642.07</ele>
        <time>2016-10-31T14:21:22Z</time>
      </trkpt>
      <trkpt lat="42.82981" lon="1.49473">
        <ele>1640.63</ele>
        <time>2016-10-31T14:21:24Z</time>
      </trkpt>
      <trkpt lat="42.82982" lon="1.49481">
        <ele>1636.78</ele>
        <time>2016-10-31T14:21:34Z</time>
      </trkpt>
      <trkpt lat="42.82984" lon="1.49489">
        <ele>1635.82</ele>
        <time>2016-10-31T14:21:44Z</time>
      </trkpt>
      <trkpt lat="42.82986" lon="1.49494">
        <ele>1634.86</ele>
        <time>2016-10-31T14:21:48Z</time>
      </trkpt>
      <trkpt lat="42.8299" lon="1.49497">
        <ele>1633.42</ele>
        <time>2016-10-31T14:21:53Z</time>
      </trkpt>
      <trkpt lat="42.8299" lon="1.495">
        <ele>1631.98</ele>
        <time>2016-10-31T14:21:55Z</time>
      </trkpt>
      <trkpt lat="42.82994" lon="1.49503">
        <ele>1627.17</ele>
        <time>2016-10-31T14:22:03Z</time>
      </trkpt>
      <trkpt lat="42.82998" lon="1.49508">
        <ele>1627.17</ele>
        <time>2016-10-31T14:22:13Z</time>
      </trkpt>
      <trkpt lat="42.83003" lon="1.4951">
        <ele>1626.21</ele>
        <time>2016-10-31T14:22:24Z</time>
      </trkpt>
      <trkpt lat="42.83008" lon="1.49518">
        <ele>1622.84</ele>
        <time>2016-10-31T14:22:35Z</time>
      </trkpt>
      <trkpt lat="42.83008" lon="1.49522">
        <ele>1619.96</ele>
        <time>2016-10-31T14:22:41Z</time>
      </trkpt>
      <trkpt lat="42.83007" lon="1.49522">
        <ele>1619.96</ele>
        <time>2016-10-31T14:22:55Z</time>
      </trkpt>
      <trkpt lat="42.83007" lon="1.49528">
        <ele>1619.96</ele>
        <time>2016-10-31T14:23:07Z</time>
      </trkpt>
      <trkpt lat="42.83008" lon="1.4953">
        <ele>1618.52</ele>
        <time>2016-10-31T14:23:18Z</time>
      </trkpt>
      <trkpt lat="42.83004" lon="1.49533">
        <ele>1616.59</ele>
        <time>2016-10-31T14:23:27Z</time>
      </trkpt>
      <trkpt lat="42.83003" lon="1.49533">
        <ele>1614.67</ele>
        <time>2016-10-31T14:23:46Z</time>
      </trkpt>
      <trkpt lat="42.83002" lon="1.49535">
        <ele>1614.19</ele>
        <time>2016-10-31T14:23:57Z</time>
      </trkpt>
      <trkpt lat="42.83003" lon="1.49536">
        <ele>1613.71</ele>
        <time>2016-10-31T14:24:14Z</time>
      </trkpt>
      <trkpt lat="42.83004" lon="1.49538">
        <ele>1612.75</ele>
        <time>2016-10-31T14:24:35Z</time>
      </trkpt>
      <trkpt lat="42.83007" lon="1.49541">
        <ele>1611.31</ele>
        <time>2016-10-31T14:24:46Z</time>
      </trkpt>
      <trkpt lat="42.83008" lon="1.49546">
        <ele>1609.86</ele>
        <time>2016-10-31T14:24:55Z</time>
      </trkpt>
      <trkpt lat="42.83009" lon="1.49548">
        <ele>1608.42</ele>
        <time>2016-10-31T14:25:00Z</time>
      </trkpt>
      <trkpt lat="42.83011" lon="1.49554">
        <ele>1604.58</ele>
        <time>2016-10-31T14:25:07Z</time>
      </trkpt>
      <trkpt lat="42.83011" lon="1.49556">
        <ele>1601.69</ele>
        <time>2016-10-31T14:25:11Z</time>
      </trkpt>
      <trkpt lat="42.83011" lon="1.49557">
        <ele>1600.25</ele>
        <time>2016-10-31T14:25:19Z</time>
      </trkpt>
      <trkpt lat="42.83011" lon="1.49557">
        <ele>1600.25</ele>
        <time>2016-10-31T14:25:20Z</time>
      </trkpt>
      <trkpt lat="42.83009" lon="1.49561">
        <ele>1600.25</ele>
        <time>2016-10-31T14:25:25Z</time>
      </trkpt>
      <trkpt lat="42.83009" lon="1.49565">
        <ele>1600.25</ele>
        <time>2016-10-31T14:25:32Z</time>
      </trkpt>
      <trkpt lat="42.83009" lon="1.4957">
        <ele>1598.81</ele>
        <time>2016-10-31T14:25:41Z</time>
      </trkpt>
      <trkpt lat="42.8301" lon="1.49575">
        <ele>1596.41</ele>
        <time>2016-10-31T14:25:51Z</time>
      </trkpt>
      <trkpt lat="42.83007" lon="1.49578">
        <ele>1594.96</ele>
        <time>2016-10-31T14:26:03Z</time>
      </trkpt>
      <trkpt lat="42.83005" lon="1.49585">
        <ele>1593.04</ele>
        <time>2016-10-31T14:26:09Z</time>
      </trkpt>
      <trkpt lat="42.83008" lon="1.49585">
        <ele>1588.72</ele>
        <time>2016-10-31T14:26:14Z</time>
      </trkpt>
      <trkpt lat="42.83009" lon="1.49585">
        <ele>1585.35</ele>
        <time>2016-10-31T14:26:18Z</time>
      </trkpt>
      <trkpt lat="42.83012" lon="1.49588">
        <ele>1583.43</ele>
        <time>2016-10-31T14:26:28Z</time>
      </trkpt>
      <trkpt lat="42.83021" lon="1.49592">
        <ele>1583.43</ele>
        <time>2016-10-31T14:26:38Z</time>
      </trkpt>
      <trkpt lat="42.83022" lon="1.49594">
        <ele>1581.99</ele>
        <time>2016-10-31T14:26:40Z</time>
      </trkpt>
      <trkpt lat="42.83026" lon="1.49599">
        <ele>1578.62</ele>
        <time>2016-10-31T14:26:44Z</time>
      </trkpt>
      <trkpt lat="42.8303" lon="1.49606">
        <ele>1574.78</ele>
        <time>2016-10-31T14:26:50Z</time>
      </trkpt>
      <trkpt lat="42.83039" lon="1.49614">
        <ele>1574.3</ele>
        <time>2016-10-31T14:26:59Z</time>
      </trkpt>
      <trkpt lat="42.83045" lon="1.4962">
        <ele>1573.82</ele>
        <time>2016-10-31T14:27:04Z</time>
      </trkpt>
      <trkpt lat="42.83048" lon="1.49621">
        <ele>1572.85</ele>
        <time>2016-10-31T14:27:07Z</time>
      </trkpt>
      <trkpt lat="42.83052" lon="1.49623">
        <ele>1572.85</ele>
        <time>2016-10-31T14:27:11Z</time>
      </trkpt>
      <trkpt lat="42.83058" lon="1.49633">
        <ele>1571.41</ele>
        <time>2016-10-31T14:27:18Z</time>
      </trkpt>
      <trkpt lat="42.83063" lon="1.49639">
        <ele>1568.05</ele>
        <time>2016-10-31T14:27:23Z</time>
      </trkpt>
      <trkpt lat="42.83065" lon="1.49641">
        <ele>1566.61</ele>
        <time>2016-10-31T14:27:25Z</time>
      </trkpt>
      <trkpt lat="42.83075" lon="1.49649">
        <ele>1564.2</ele>
        <time>2016-10-31T14:27:34Z</time>
      </trkpt>
      <trkpt lat="42.83077" lon="1.49654">
        <ele>1564.2</ele>
        <time>2016-10-31T14:27:37Z</time>
      </trkpt>
      <trkpt lat="42.83081" lon="1.49668">
        <ele>1563.72</ele>
        <time>2016-10-31T14:27:46Z</time>
      </trkpt>
      <trkpt lat="42.83084" lon="1.49676">
        <ele>1563.24</ele>
        <time>2016-10-31T14:27:50Z</time>
      </trkpt>
      <trkpt lat="42.83094" lon="1.49694">
        <ele>1560.84</ele>
        <time>2016-10-31T14:28:02Z</time>
      </trkpt>
      <trkpt lat="42.83096" lon="1.49697">
        <ele>1560.36</ele>
        <time>2016-10-31T14:28:10Z</time>
      </trkpt>
      <trkpt lat="42.83096" lon="1.49709">
        <ele>1558.92</ele>
        <time>2016-10-31T14:28:17Z</time>
      </trkpt>
      <trkpt lat="42.831" lon="1.49718">
        <ele>1557.95</ele>
        <time>2016-10-31T14:28:22Z</time>
      </trkpt>
      <trkpt lat="42.83107" lon="1.49727">
        <ele>1556.03</ele>
        <time>2016-10-31T14:28:31Z</time>
      </trkpt>
      <trkpt lat="42.8311" lon="1.49733">
        <ele>1555.07</ele>
        <time>2016-10-31T14:28:38Z</time>
      </trkpt>
      <trkpt lat="42.83122" lon="1.49737">
        <ele>1551.22</ele>
        <time>2016-10-31T14:28:46Z</time>
      </trkpt>
      <trkpt lat="42.83124" lon="1.49744">
        <ele>1546.42</ele>
        <time>2016-10-31T14:28:50Z</time>
      </trkpt>
      <trkpt lat="42.83124" lon="1.49751">
        <ele>1543.05</ele>
        <time>2016-10-31T14:28:54Z</time>
      </trkpt>
      <trkpt lat="42.83126" lon="1.49755">
        <ele>1542.57</ele>
        <time>2016-10-31T14:28:57Z</time>
      </trkpt>
      <trkpt lat="42.83133" lon="1.49764">
        <ele>1542.57</ele>
        <time>2016-10-31T14:29:05Z</time>
      </trkpt>
      <trkpt lat="42.83135" lon="1.49765">
        <ele>1542.57</ele>
        <time>2016-10-31T14:29:07Z</time>
      </trkpt>
      <trkpt lat="42.83136" lon="1.4977">
        <ele>1542.57</ele>
        <time>2016-10-31T14:29:11Z</time>
      </trkpt>
      <trkpt lat="42.83142" lon="1.49779">
        <ele>1542.57</ele>
        <time>2016-10-31T14:29:16Z</time>
      </trkpt>
      <trkpt lat="42.83145" lon="1.49784">
        <ele>1542.09</ele>
        <time>2016-10-31T14:29:29Z</time>
      </trkpt>
      <trkpt lat="42.83145" lon="1.49783">
        <ele>1541.61</ele>
        <time>2016-10-31T14:29:47Z</time>
      </trkpt>
      <trkpt lat="42.83144" lon="1.49784">
        <ele>1541.13</ele>
        <time>2016-10-31T14:30:07Z</time>
      </trkpt>
      <trkpt lat="42.83145" lon="1.49783">
        <ele>1541.13</ele>
        <time>2016-10-31T14:30:20Z</time>
      </trkpt>
      <trkpt lat="42.83145" lon="1.49783">
        <ele>1541.13</ele>
        <time>2016-10-31T14:30:29Z</time>
      </trkpt>
      <trkpt lat="42.83149" lon="1.49791">
        <ele>1540.65</ele>
        <time>2016-10-31T14:30:35Z</time>
      </trkpt>
      <trkpt lat="42.83149" lon="1.49795">
        <ele>1540.17</ele>
        <time>2016-10-31T14:30:38Z</time>
      </trkpt>
      <trkpt lat="42.83151" lon="1.49805">
        <ele>1538.73</ele>
        <time>2016-10-31T14:30:45Z</time>
      </trkpt>
      <trkpt lat="42.83152" lon="1.49806">
        <ele>1538.25</ele>
        <time>2016-10-31T14:30:46Z</time>
      </trkpt>
      <trkpt lat="42.83154" lon="1.49814">
        <ele>1534.88</ele>
        <time>2016-10-31T14:30:51Z</time>
      </trkpt>
      <trkpt lat="42.83154" lon="1.49816">
        <ele>1532.96</ele>
        <time>2016-10-31T14:30:53Z</time>
      </trkpt>
      <trkpt lat="42.83157" lon="1.4982">
        <ele>1530.56</ele>
        <time>2016-10-31T14:30:58Z</time>
      </trkpt>
      <trkpt lat="42.83158" lon="1.49832">
        <ele>1529.11</ele>
        <time>2016-10-31T14:31:08Z</time>
      </trkpt>
      <trkpt lat="42.83161" lon="1.49837">
        <ele>1528.15</ele>
        <time>2016-10-31T14:31:14Z</time>
      </trkpt>
      <trkpt lat="42.83164" lon="1.49844">
        <ele>1524.79</ele>
        <time>2016-10-31T14:31:22Z</time>
      </trkpt>
      <trkpt lat="42.83164" lon="1.49848">
        <ele>1522.39</ele>
        <time>2016-10-31T14:31:25Z</time>
      </trkpt>
      <trkpt lat="42.8317" lon="1.49853">
        <ele>1518.54</ele>
        <time>2016-10-31T14:31:30Z</time>
      </trkpt>
      <trkpt lat="42.83173" lon="1.49856">
        <ele>1517.58</ele>
        <time>2016-10-31T14:31:33Z</time>
      </trkpt>
      <trkpt lat="42.83174" lon="1.49859">
        <ele>1516.14</ele>
        <time>2016-10-31T14:31:35Z</time>
      </trkpt>
      <trkpt lat="42.83175" lon="1.49865">
        <ele>1514.21</ele>
        <time>2016-10-31T14:31:41Z</time>
      </trkpt>
      <trkpt lat="42.83177" lon="1.49874">
        <ele>1511.33</ele>
        <time>2016-10-31T14:31:47Z</time>
      </trkpt>
      <trkpt lat="42.83178" lon="1.49876">
        <ele>1508.93</ele>
        <time>2016-10-31T14:31:50Z</time>
      </trkpt>
      <trkpt lat="42.83184" lon="1.49885">
        <ele>1507.48</ele>
        <time>2016-10-31T14:32:01Z</time>
      </trkpt>
      <trkpt lat="42.83188" lon="1.49894">
        <ele>1504.12</ele>
        <time>2016-10-31T14:32:13Z</time>
      </trkpt>
      <trkpt lat="42.83188" lon="1.49901">
        <ele>1500.27</ele>
        <time>2016-10-31T14:32:17Z</time>
      </trkpt>
      <trkpt lat="42.83189" lon="1.49908">
        <ele>1496.43</ele>
        <time>2016-10-31T14:32:21Z</time>
      </trkpt>
      <trkpt lat="42.83191" lon="1.4991">
        <ele>1495.47</ele>
        <time>2016-10-31T14:32:23Z</time>
      </trkpt>
      <trkpt lat="42.83193" lon="1.49913">
        <ele>1494.99</ele>
        <time>2016-10-31T14:32:25Z</time>
      </trkpt>
      <trkpt lat="42.83202" lon="1.49923">
        <ele>1492.1</ele>
        <time>2016-10-31T14:32:35Z</time>
      </trkpt>
      <trkpt lat="42.83205" lon="1.49922">
        <ele>1490.66</ele>
        <time>2016-10-31T14:32:45Z</time>
      </trkpt>
      <trkpt lat="42.83205" lon="1.4992">
        <ele>1490.18</ele>
        <time>2016-10-31T14:33:07Z</time>
      </trkpt>
      <trkpt lat="42.83207" lon="1.49917">
        <ele>1490.18</ele>
        <time>2016-10-31T14:33:32Z</time>
      </trkpt>
      <trkpt lat="42.83208" lon="1.49919">
        <ele>1489.7</ele>
        <time>2016-10-31T14:33:54Z</time>
      </trkpt>
      <trkpt lat="42.8321" lon="1.49921">
        <ele>1489.7</ele>
        <time>2016-10-31T14:34:12Z</time>
      </trkpt>
      <trkpt lat="42.8321" lon="1.49921">
        <ele>1489.7</ele>
        <time>2016-10-31T14:34:25Z</time>
      </trkpt>
      <trkpt lat="42.83213" lon="1.49926">
        <ele>1489.7</ele>
        <time>2016-10-31T14:34:30Z</time>
      </trkpt>
      <trkpt lat="42.83221" lon="1.49937">
        <ele>1488.74</ele>
        <time>2016-10-31T14:34:39Z</time>
      </trkpt>
      <trkpt lat="42.83229" lon="1.49949">
        <ele>1486.34</ele>
        <time>2016-10-31T14:34:48Z</time>
      </trkpt>
      <trkpt lat="42.83233" lon="1.49962">
        <ele>1483.45</ele>
        <time>2016-10-31T14:34:55Z</time>
      </trkpt>
      <trkpt lat="42.83234" lon="1.49963">
        <ele>1482.49</ele>
        <time>2016-10-31T14:34:56Z</time>
      </trkpt>
      <trkpt lat="42.83239" lon="1.49969">
        <ele>1480.09</ele>
        <time>2016-10-31T14:35:02Z</time>
      </trkpt>
      <trkpt lat="42.83241" lon="1.49982">
        <ele>1478.65</ele>
        <time>2016-10-31T14:35:12Z</time>
      </trkpt>
      <trkpt lat="42.83243" lon="1.49993">
        <ele>1477.2</ele>
        <time>2016-10-31T14:35:18Z</time>
      </trkpt>
      <trkpt lat="42.83243" lon="1.50005">
        <ele>1473.84</ele>
        <time>2016-10-31T14:35:26Z</time>
      </trkpt>
      <trkpt lat="42.83244" lon="1.50015">
        <ele>1469.51</ele>
        <time>2016-10-31T14:35:32Z</time>
      </trkpt>
      <trkpt lat="42.83235" lon="1.50021">
        <ele>1468.55</ele>
        <time>2016-10-31T14:35:40Z</time>
      </trkpt>
      <trkpt lat="42.83231" lon="1.5002">
        <ele>1468.55</ele>
        <time>2016-10-31T14:35:43Z</time>
      </trkpt>
      <trkpt lat="42.83229" lon="1.50023">
        <ele>1468.55</ele>
        <time>2016-10-31T14:35:45Z</time>
      </trkpt>
      <trkpt lat="42.83222" lon="1.50032">
        <ele>1466.63</ele>
        <time>2016-10-31T14:35:55Z</time>
      </trkpt>
      <trkpt lat="42.83219" lon="1.50036">
        <ele>1463.74</ele>
        <time>2016-10-31T14:35:59Z</time>
      </trkpt>
      <trkpt lat="42.8322" lon="1.50039">
        <ele>1459.9</ele>
        <time>2016-10-31T14:36:03Z</time>
      </trkpt>
      <trkpt lat="42.83222" lon="1.50046">
        <ele>1458.94</ele>
        <time>2016-10-31T14:36:11Z</time>
      </trkpt>
      <trkpt lat="42.83217" lon="1.50045">
        <ele>1458.94</ele>
        <time>2016-10-31T14:36:16Z</time>
      </trkpt>
      <trkpt lat="42.83214" lon="1.50046">
        <ele>1458.94</ele>
        <time>2016-10-31T14:36:18Z</time>
      </trkpt>
      <trkpt lat="42.83218" lon="1.50053">
        <ele>1457.98</ele>
        <time>2016-10-31T14:36:27Z</time>
      </trkpt>
      <trkpt lat="42.83228" lon="1.50061">
        <ele>1457.02</ele>
        <time>2016-10-31T14:36:35Z</time>
      </trkpt>
      <trkpt lat="42.83229" lon="1.50064">
        <ele>1457.02</ele>
        <time>2016-10-31T14:36:36Z</time>
      </trkpt>
      <trkpt lat="42.83231" lon="1.50065">
        <ele>1456.05</ele>
        <time>2016-10-31T14:36:37Z</time>
      </trkpt>
      <trkpt lat="42.83232" lon="1.50066">
        <ele>1456.53</ele>
        <time>2016-10-31T14:36:38Z</time>
      </trkpt>
      <trkpt lat="42.83234" lon="1.50067">
        <ele>1456.53</ele>
        <time>2016-10-31T14:36:39Z</time>
      </trkpt>
      <trkpt lat="42.83235" lon="1.50069">
        <ele>1455.57</ele>
        <time>2016-10-31T14:36:40Z</time>
      </trkpt>
      <trkpt lat="42.83236" lon="1.5007">
        <ele>1456.05</ele>
        <time>2016-10-31T14:36:41Z</time>
      </trkpt>
      <trkpt lat="42.83237" lon="1.50072">
        <ele>1456.05</ele>
        <time>2016-10-31T14:36:42Z</time>
      </trkpt>
      <trkpt lat="42.83238" lon="1.50073">
        <ele>1455.09</ele>
        <time>2016-10-31T14:36:43Z</time>
      </trkpt>
      <trkpt lat="42.83238" lon="1.50075">
        <ele>1455.09</ele>
        <time>2016-10-31T14:36:44Z</time>
      </trkpt>
      <trkpt lat="42.83243" lon="1.50084">
        <ele>1453.65</ele>
        <time>2016-10-31T14:36:54Z</time>
      </trkpt>
      <trkpt lat="42.83241" lon="1.50086">
        <ele>1453.65</ele>
        <time>2016-10-31T14:36:57Z</time>
      </trkpt>
      <trkpt lat="42.83241" lon="1.50091">
        <ele>1452.21</ele>
        <time>2016-10-31T14:37:02Z</time>
      </trkpt>
      <trkpt lat="42.83244" lon="1.50097">
        <ele>1451.73</ele>
        <time>2016-10-31T14:37:06Z</time>
      </trkpt>
      <trkpt lat="42.83244" lon="1.50099">
        <ele>1451.73</ele>
        <time>2016-10-31T14:37:07Z</time>
      </trkpt>
      <trkpt lat="42.83244" lon="1.50101">
        <ele>1451.73</ele>
        <time>2016-10-31T14:37:08Z</time>
      </trkpt>
      <trkpt lat="42.83245" lon="1.50105">
        <ele>1451.25</ele>
        <time>2016-10-31T14:37:11Z</time>
      </trkpt>
      <trkpt lat="42.83247" lon="1.50107">
        <ele>1450.29</ele>
        <time>2016-10-31T14:37:12Z</time>
      </trkpt>
      <trkpt lat="42.83248" lon="1.50109">
        <ele>1450.77</ele>
        <time>2016-10-31T14:37:13Z</time>
      </trkpt>
      <trkpt lat="42.83249" lon="1.50112">
        <ele>1450.77</ele>
        <time>2016-10-31T14:37:14Z</time>
      </trkpt>
      <trkpt lat="42.8325" lon="1.50116">
        <ele>1450.29</ele>
        <time>2016-10-31T14:37:16Z</time>
      </trkpt>
      <trkpt lat="42.8325" lon="1.50118">
        <ele>1449.32</ele>
        <time>2016-10-31T14:37:17Z</time>
      </trkpt>
      <trkpt lat="42.83251" lon="1.50122">
        <ele>1449.81</ele>
        <time>2016-10-31T14:37:19Z</time>
      </trkpt>
      <trkpt lat="42.83252" lon="1.50123">
        <ele>1448.84</ele>
        <time>2016-10-31T14:37:20Z</time>
      </trkpt>
      <trkpt lat="42.83252" lon="1.50125">
        <ele>1448.84</ele>
        <time>2016-10-31T14:37:21Z</time>
      </trkpt>
      <trkpt lat="42.83251" lon="1.50128">
        <ele>1448.36</ele>
        <time>2016-10-31T14:37:23Z</time>
      </trkpt>
      <trkpt lat="42.83252" lon="1.50129">
        <ele>1448.36</ele>
        <time>2016-10-31T14:37:24Z</time>
      </trkpt>
      <trkpt lat="42.83253" lon="1.50131">
        <ele>1448.36</ele>
        <time>2016-10-31T14:37:25Z</time>
      </trkpt>
      <trkpt lat="42.83253" lon="1.50133">
        <ele>1447.88</ele>
        <time>2016-10-31T14:37:26Z</time>
      </trkpt>
      <trkpt lat="42.83253" lon="1.50134">
        <ele>1447.88</ele>
        <time>2016-10-31T14:37:27Z</time>
      </trkpt>
      <trkpt lat="42.83254" lon="1.50136">
        <ele>1447.88</ele>
        <time>2016-10-31T14:37:28Z</time>
      </trkpt>
      <trkpt lat="42.83255" lon="1.50137">
        <ele>1446.92</ele>
        <time>2016-10-31T14:37:29Z</time>
      </trkpt>
      <trkpt lat="42.83256" lon="1.5014">
        <ele>1446.44</ele>
        <time>2016-10-31T14:37:31Z</time>
      </trkpt>
      <trkpt lat="42.83258" lon="1.50144">
        <ele>1445.96</ele>
        <time>2016-10-31T14:37:34Z</time>
      </trkpt>
      <trkpt lat="42.83258" lon="1.50146">
        <ele>1445.96</ele>
        <time>2016-10-31T14:37:35Z</time>
      </trkpt>
      <trkpt lat="42.83259" lon="1.50147">
        <ele>1445.48</ele>
        <time>2016-10-31T14:37:36Z</time>
      </trkpt>
      <trkpt lat="42.8326" lon="1.50149">
        <ele>1445.48</ele>
        <time>2016-10-31T14:37:37Z</time>
      </trkpt>
      <trkpt lat="42.8326" lon="1.5015">
        <ele>1443.56</ele>
        <time>2016-10-31T14:37:38Z</time>
      </trkpt>
      <trkpt lat="42.83261" lon="1.50152">
        <ele>1443.08</ele>
        <time>2016-10-31T14:37:39Z</time>
      </trkpt>
      <trkpt lat="42.83261" lon="1.50154">
        <ele>1442.11</ele>
        <time>2016-10-31T14:37:40Z</time>
      </trkpt>
      <trkpt lat="42.83261" lon="1.50156">
        <ele>1441.63</ele>
        <time>2016-10-31T14:37:41Z</time>
      </trkpt>
      <trkpt lat="42.83262" lon="1.50157">
        <ele>1440.67</ele>
        <time>2016-10-31T14:37:42Z</time>
      </trkpt>
      <trkpt lat="42.83263" lon="1.50161">
        <ele>1440.67</ele>
        <time>2016-10-31T14:37:45Z</time>
      </trkpt>
      <trkpt lat="42.83263" lon="1.50163">
        <ele>1439.71</ele>
        <time>2016-10-31T14:37:46Z</time>
      </trkpt>
      <trkpt lat="42.83262" lon="1.50165">
        <ele>1439.71</ele>
        <time>2016-10-31T14:37:47Z</time>
      </trkpt>
      <trkpt lat="42.83262" lon="1.50168">
        <ele>1439.71</ele>
        <time>2016-10-31T14:37:49Z</time>
      </trkpt>
      <trkpt lat="42.83263" lon="1.5017">
        <ele>1439.71</ele>
        <time>2016-10-31T14:37:50Z</time>
      </trkpt>
      <trkpt lat="42.83264" lon="1.50172">
        <ele>1439.71</ele>
        <time>2016-10-31T14:37:51Z</time>
      </trkpt>
      <trkpt lat="42.83264" lon="1.50175">
        <ele>1439.71</ele>
        <time>2016-10-31T14:37:53Z</time>
      </trkpt>
      <trkpt lat="42.83264" lon="1.50178">
        <ele>1439.71</ele>
        <time>2016-10-31T14:37:54Z</time>
      </trkpt>
      <trkpt lat="42.83264" lon="1.5018">
        <ele>1439.71</ele>
        <time>2016-10-31T14:37:55Z</time>
      </trkpt>
      <trkpt lat="42.83265" lon="1.50182">
        <ele>1439.23</ele>
        <time>2016-10-31T14:37:56Z</time>
      </trkpt>
      <trkpt lat="42.83265" lon="1.50183">
        <ele>1439.23</ele>
        <time>2016-10-31T14:37:57Z</time>
      </trkpt>
      <trkpt lat="42.83266" lon="1.50185">
        <ele>1439.23</ele>
        <time>2016-10-31T14:37:58Z</time>
      </trkpt>
      <trkpt lat="42.83266" lon="1.50186">
        <ele>1439.23</ele>
        <time>2016-10-31T14:37:59Z</time>
      </trkpt>
      <trkpt lat="42.83265" lon="1.50187">
        <ele>1439.23</ele>
        <time>2016-10-31T14:38:00Z</time>
      </trkpt>
      <trkpt lat="42.83264" lon="1.50195">
        <ele>1438.75</ele>
        <time>2016-10-31T14:38:04Z</time>
      </trkpt>
      <trkpt lat="42.83263" lon="1.50197">
        <ele>1438.27</ele>
        <time>2016-10-31T14:38:05Z</time>
      </trkpt>
      <trkpt lat="42.83263" lon="1.50199">
        <ele>1438.27</ele>
        <time>2016-10-31T14:38:06Z</time>
      </trkpt>
      <trkpt lat="42.83263" lon="1.50203">
        <ele>1437.31</ele>
        <time>2016-10-31T14:38:09Z</time>
      </trkpt>
      <trkpt lat="42.83264" lon="1.50205">
        <ele>1437.79</ele>
        <time>2016-10-31T14:38:10Z</time>
      </trkpt>
      <trkpt lat="42.83264" lon="1.50207">
        <ele>1437.79</ele>
        <time>2016-10-31T14:38:11Z</time>
      </trkpt>
      <trkpt lat="42.83262" lon="1.50213">
        <ele>1436.83</ele>
        <time>2016-10-31T14:38:14Z</time>
      </trkpt>
      <trkpt lat="42.83262" lon="1.50214">
        <ele>1436.83</ele>
        <time>2016-10-31T14:38:15Z</time>
      </trkpt>
      <trkpt lat="42.83262" lon="1.50216">
        <ele>1435.87</ele>
        <time>2016-10-31T14:38:16Z</time>
      </trkpt>
      <trkpt lat="42.83262" lon="1.50218">
        <ele>1435.39</ele>
        <time>2016-10-31T14:38:17Z</time>
      </trkpt>
      <trkpt lat="42.83261" lon="1.5022">
        <ele>1434.42</ele>
        <time>2016-10-31T14:38:18Z</time>
      </trkpt>
      <trkpt lat="42.8326" lon="1.50221">
        <ele>1433.46</ele>
        <time>2016-10-31T14:38:19Z</time>
      </trkpt>
      <trkpt lat="42.83259" lon="1.50225">
        <ele>1432.02</ele>
        <time>2016-10-31T14:38:21Z</time>
      </trkpt>
      <trkpt lat="42.83259" lon="1.5023">
        <ele>1430.58</ele>
        <time>2016-10-31T14:38:23Z</time>
      </trkpt>
      <trkpt lat="42.83259" lon="1.50231">
        <ele>1430.1</ele>
        <time>2016-10-31T14:38:24Z</time>
      </trkpt>
      <trkpt lat="42.8326" lon="1.50234">
        <ele>1429.62</ele>
        <time>2016-10-31T14:38:25Z</time>
      </trkpt>
      <trkpt lat="42.8326" lon="1.50235">
        <ele>1430.58</ele>
        <time>2016-10-31T14:38:26Z</time>
      </trkpt>
      <trkpt lat="42.83261" lon="1.50237">
        <ele>1429.14</ele>
        <time>2016-10-31T14:38:27Z</time>
      </trkpt>
      <trkpt lat="42.83262" lon="1.50239">
        <ele>1429.62</ele>
        <time>2016-10-31T14:38:28Z</time>
      </trkpt>
      <trkpt lat="42.83262" lon="1.50241">
        <ele>1429.62</ele>
        <time>2016-10-31T14:38:29Z</time>
      </trkpt>
      <trkpt lat="42.83262" lon="1.50243">
        <ele>1429.62</ele>
        <time>2016-10-31T14:38:30Z</time>
      </trkpt>
      <trkpt lat="42.83262" lon="1.50245">
        <ele>1429.62</ele>
        <time>2016-10-31T14:38:31Z</time>
      </trkpt>
      <trkpt lat="42.83264" lon="1.50253">
        <ele>1429.62</ele>
        <time>2016-10-31T14:38:35Z</time>
      </trkpt>
      <trkpt lat="42.83264" lon="1.50254">
        <ele>1429.62</ele>
        <time>2016-10-31T14:38:36Z</time>
      </trkpt>
      <trkpt lat="42.83265" lon="1.50256">
        <ele>1429.62</ele>
        <time>2016-10-31T14:38:37Z</time>
      </trkpt>
      <trkpt lat="42.83266" lon="1.50259">
        <ele>1429.62</ele>
        <time>2016-10-31T14:38:39Z</time>
      </trkpt>
      <trkpt lat="42.83268" lon="1.5026">
        <ele>1429.62</ele>
        <time>2016-10-31T14:38:40Z</time>
      </trkpt>
      <trkpt lat="42.83269" lon="1.50261">
        <ele>1429.62</ele>
        <time>2016-10-31T14:38:41Z</time>
      </trkpt>
      <trkpt lat="42.83271" lon="1.50264">
        <ele>1429.14</ele>
        <time>2016-10-31T14:38:43Z</time>
      </trkpt>
      <trkpt lat="42.83272" lon="1.50266">
        <ele>1429.14</ele>
        <time>2016-10-31T14:38:44Z</time>
      </trkpt>
      <trkpt lat="42.83272" lon="1.50274">
        <ele>1428.66</ele>
        <time>2016-10-31T14:38:47Z</time>
      </trkpt>
      <trkpt lat="42.83273" lon="1.50278">
        <ele>1427.7</ele>
        <time>2016-10-31T14:38:49Z</time>
      </trkpt>
      <trkpt lat="42.83274" lon="1.5028">
        <ele>1427.7</ele>
        <time>2016-10-31T14:38:50Z</time>
      </trkpt>
      <trkpt lat="42.83275" lon="1.50282">
        <ele>1427.7</ele>
        <time>2016-10-31T14:38:51Z</time>
      </trkpt>
      <trkpt lat="42.83275" lon="1.50284">
        <ele>1427.21</ele>
        <time>2016-10-31T14:38:52Z</time>
      </trkpt>
      <trkpt lat="42.83276" lon="1.50286">
        <ele>1427.21</ele>
        <time>2016-10-31T14:38:53Z</time>
      </trkpt>
      <trkpt lat="42.83277" lon="1.50287">
        <ele>1427.21</ele>
        <time>2016-10-31T14:38:54Z</time>
      </trkpt>
      <trkpt lat="42.83278" lon="1.50289">
        <ele>1426.73</ele>
        <time>2016-10-31T14:38:55Z</time>
      </trkpt>
      <trkpt lat="42.83279" lon="1.50294">
        <ele>1425.77</ele>
        <time>2016-10-31T14:38:58Z</time>
      </trkpt>
      <trkpt lat="42.83279" lon="1.50296">
        <ele>1426.25</ele>
        <time>2016-10-31T14:38:59Z</time>
      </trkpt>
      <trkpt lat="42.83279" lon="1.50298">
        <ele>1426.25</ele>
        <time>2016-10-31T14:39:00Z</time>
      </trkpt>
      <trkpt lat="42.83279" lon="1.503">
        <ele>1425.29</ele>
        <time>2016-10-31T14:39:01Z</time>
      </trkpt>
      <trkpt lat="42.83279" lon="1.50302">
        <ele>1425.29</ele>
        <time>2016-10-31T14:39:03Z</time>
      </trkpt>
      <trkpt lat="42.83281" lon="1.50307">
        <ele>1424.81</ele>
        <time>2016-10-31T14:39:06Z</time>
      </trkpt>
      <trkpt lat="42.83283" lon="1.50308">
        <ele>1423.85</ele>
        <time>2016-10-31T14:39:07Z</time>
      </trkpt>
      <trkpt lat="42.83284" lon="1.5031">
        <ele>1424.33</ele>
        <time>2016-10-31T14:39:09Z</time>
      </trkpt>
      <trkpt lat="42.83284" lon="1.50312">
        <ele>1423.37</ele>
        <time>2016-10-31T14:39:10Z</time>
      </trkpt>
      <trkpt lat="42.83284" lon="1.50314">
        <ele>1423.85</ele>
        <time>2016-10-31T14:39:11Z</time>
      </trkpt>
      <trkpt lat="42.83283" lon="1.50316">
        <ele>1423.85</ele>
        <time>2016-10-31T14:39:12Z</time>
      </trkpt>
      <trkpt lat="42.83283" lon="1.50318">
        <ele>1422.89</ele>
        <time>2016-10-31T14:39:13Z</time>
      </trkpt>
      <trkpt lat="42.83283" lon="1.5032">
        <ele>1422.89</ele>
        <time>2016-10-31T14:39:14Z</time>
      </trkpt>
      <trkpt lat="42.83282" lon="1.50323">
        <ele>1422.89</ele>
        <time>2016-10-31T14:39:15Z</time>
      </trkpt>
      <trkpt lat="42.83282" lon="1.50325">
        <ele>1422.41</ele>
        <time>2016-10-31T14:39:16Z</time>
      </trkpt>
      <trkpt lat="42.83283" lon="1.50327">
        <ele>1422.41</ele>
        <time>2016-10-31T14:39:17Z</time>
      </trkpt>
      <trkpt lat="42.83282" lon="1.50331">
        <ele>1421.45</ele>
        <time>2016-10-31T14:39:19Z</time>
      </trkpt>
      <trkpt lat="42.83282" lon="1.50333">
        <ele>1421.93</ele>
        <time>2016-10-31T14:39:20Z</time>
      </trkpt>
      <trkpt lat="42.83282" lon="1.50335">
        <ele>1421.93</ele>
        <time>2016-10-31T14:39:21Z</time>
      </trkpt>
      <trkpt lat="42.83283" lon="1.50337">
        <ele>1420.97</ele>
        <time>2016-10-31T14:39:22Z</time>
      </trkpt>
      <trkpt lat="42.83282" lon="1.50339">
        <ele>1420.97</ele>
        <time>2016-10-31T14:39:23Z</time>
      </trkpt>
      <trkpt lat="42.83283" lon="1.50341">
        <ele>1420.97</ele>
        <time>2016-10-31T14:39:24Z</time>
      </trkpt>
      <trkpt lat="42.83282" lon="1.50344">
        <ele>1420.49</ele>
        <time>2016-10-31T14:39:25Z</time>
      </trkpt>
      <trkpt lat="42.83281" lon="1.50345">
        <ele>1420.49</ele>
        <time>2016-10-31T14:39:26Z</time>
      </trkpt>
      <trkpt lat="42.83281" lon="1.50347">
        <ele>1420.49</ele>
        <time>2016-10-31T14:39:27Z</time>
      </trkpt>
      <trkpt lat="42.8328" lon="1.50348">
        <ele>1419.52</ele>
        <time>2016-10-31T14:39:28Z</time>
      </trkpt>
      <trkpt lat="42.8328" lon="1.5035">
        <ele>1420</ele>
        <time>2016-10-31T14:39:29Z</time>
      </trkpt>
      <trkpt lat="42.8328" lon="1.50352">
        <ele>1419.52</ele>
        <time>2016-10-31T14:39:30Z</time>
      </trkpt>
      <trkpt lat="42.83279" lon="1.50354">
        <ele>1419.52</ele>
        <time>2016-10-31T14:39:31Z</time>
      </trkpt>
      <trkpt lat="42.83279" lon="1.50357">
        <ele>1419.52</ele>
        <time>2016-10-31T14:39:32Z</time>
      </trkpt>
      <trkpt lat="42.83278" lon="1.50362">
        <ele>1417.12</ele>
        <time>2016-10-31T14:39:35Z</time>
      </trkpt>
      <trkpt lat="42.83279" lon="1.50363">
        <ele>1416.16</ele>
        <time>2016-10-31T14:39:36Z</time>
      </trkpt>
      <trkpt lat="42.8328" lon="1.50365">
        <ele>1415.2</ele>
        <time>2016-10-31T14:39:37Z</time>
      </trkpt>
      <trkpt lat="42.8328" lon="1.50367">
        <ele>1414.24</ele>
        <time>2016-10-31T14:39:38Z</time>
      </trkpt>
      <trkpt lat="42.8328" lon="1.50369">
        <ele>1413.76</ele>
        <time>2016-10-31T14:39:39Z</time>
      </trkpt>
      <trkpt lat="42.83279" lon="1.50371">
        <ele>1413.28</ele>
        <time>2016-10-31T14:39:40Z</time>
      </trkpt>
      <trkpt lat="42.83279" lon="1.50372">
        <ele>1412.79</ele>
        <time>2016-10-31T14:39:41Z</time>
      </trkpt>
      <trkpt lat="42.83278" lon="1.50374">
        <ele>1412.31</ele>
        <time>2016-10-31T14:39:42Z</time>
      </trkpt>
      <trkpt lat="42.83278" lon="1.50376">
        <ele>1412.79</ele>
        <time>2016-10-31T14:39:43Z</time>
      </trkpt>
      <trkpt lat="42.83278" lon="1.50378">
        <ele>1411.83</ele>
        <time>2016-10-31T14:39:44Z</time>
      </trkpt>
      <trkpt lat="42.83279" lon="1.50379">
        <ele>1412.31</ele>
        <time>2016-10-31T14:39:45Z</time>
      </trkpt>
      <trkpt lat="42.83279" lon="1.50382">
        <ele>1412.31</ele>
        <time>2016-10-31T14:39:46Z</time>
      </trkpt>
      <trkpt lat="42.8328" lon="1.50384">
        <ele>1412.31</ele>
        <time>2016-10-31T14:39:47Z</time>
      </trkpt>
      <trkpt lat="42.8328" lon="1.50391">
        <ele>1412.31</ele>
        <time>2016-10-31T14:39:51Z</time>
      </trkpt>
      <trkpt lat="42.83279" lon="1.50393">
        <ele>1412.31</ele>
        <time>2016-10-31T14:39:52Z</time>
      </trkpt>
      <trkpt lat="42.8328" lon="1.504">
        <ele>1412.31</ele>
        <time>2016-10-31T14:39:55Z</time>
      </trkpt>
      <trkpt lat="42.8328" lon="1.50403">
        <ele>1412.31</ele>
        <time>2016-10-31T14:39:56Z</time>
      </trkpt>
      <trkpt lat="42.83279" lon="1.50409">
        <ele>1412.31</ele>
        <time>2016-10-31T14:39:59Z</time>
      </trkpt>
      <trkpt lat="42.83279" lon="1.50411">
        <ele>1411.35</ele>
        <time>2016-10-31T14:40:00Z</time>
      </trkpt>
      <trkpt lat="42.83278" lon="1.50416">
        <ele>1411.83</ele>
        <time>2016-10-31T14:40:02Z</time>
      </trkpt>
      <trkpt lat="42.83278" lon="1.50419">
        <ele>1411.83</ele>
        <time>2016-10-31T14:40:03Z</time>
      </trkpt>
      <trkpt lat="42.83278" lon="1.50421">
        <ele>1410.87</ele>
        <time>2016-10-31T14:40:04Z</time>
      </trkpt>
      <trkpt lat="42.83278" lon="1.50423">
        <ele>1410.87</ele>
        <time>2016-10-31T14:40:05Z</time>
      </trkpt>
      <trkpt lat="42.83278" lon="1.50425">
        <ele>1410.87</ele>
        <time>2016-10-31T14:40:06Z</time>
      </trkpt>
      <trkpt lat="42.83279" lon="1.50427">
        <ele>1410.87</ele>
        <time>2016-10-31T14:40:07Z</time>
      </trkpt>
      <trkpt lat="42.83278" lon="1.5043">
        <ele>1410.39</ele>
        <time>2016-10-31T14:40:09Z</time>
      </trkpt>
      <trkpt lat="42.83276" lon="1.50435">
        <ele>1409.91</ele>
        <time>2016-10-31T14:40:12Z</time>
      </trkpt>
      <trkpt lat="42.83275" lon="1.50437">
        <ele>1409.91</ele>
        <time>2016-10-31T14:40:13Z</time>
      </trkpt>
      <trkpt lat="42.83275" lon="1.50439">
        <ele>1409.91</ele>
        <time>2016-10-31T14:40:14Z</time>
      </trkpt>
      <trkpt lat="42.83275" lon="1.50441">
        <ele>1409.91</ele>
        <time>2016-10-31T14:40:15Z</time>
      </trkpt>
      <trkpt lat="42.83275" lon="1.50443">
        <ele>1409.91</ele>
        <time>2016-10-31T14:40:16Z</time>
      </trkpt>
      <trkpt lat="42.83275" lon="1.50445">
        <ele>1409.43</ele>
        <time>2016-10-31T14:40:18Z</time>
      </trkpt>
      <trkpt lat="42.83276" lon="1.50448">
        <ele>1409.43</ele>
        <time>2016-10-31T14:40:20Z</time>
      </trkpt>
      <trkpt lat="42.83276" lon="1.5045">
        <ele>1408.47</ele>
        <time>2016-10-31T14:40:21Z</time>
      </trkpt>
      <trkpt lat="42.83276" lon="1.50452">
        <ele>1408.95</ele>
        <time>2016-10-31T14:40:22Z</time>
      </trkpt>
      <trkpt lat="42.83276" lon="1.50454">
        <ele>1408.95</ele>
        <time>2016-10-31T14:40:23Z</time>
      </trkpt>
      <trkpt lat="42.83277" lon="1.50462">
        <ele>1407.99</ele>
        <time>2016-10-31T14:40:29Z</time>
      </trkpt>
      <trkpt lat="42.83277" lon="1.50464">
        <ele>1407.51</ele>
        <time>2016-10-31T14:40:30Z</time>
      </trkpt>
      <trkpt lat="42.83278" lon="1.50465">
        <ele>1407.51</ele>
        <time>2016-10-31T14:40:31Z</time>
      </trkpt>
      <trkpt lat="42.83279" lon="1.50466">
        <ele>1407.51</ele>
        <time>2016-10-31T14:40:32Z</time>
      </trkpt>
      <trkpt lat="42.8328" lon="1.50467">
        <ele>1406.55</ele>
        <time>2016-10-31T14:40:33Z</time>
      </trkpt>
      <trkpt lat="42.83281" lon="1.50469">
        <ele>1407.03</ele>
        <time>2016-10-31T14:40:34Z</time>
      </trkpt>
      <trkpt lat="42.83282" lon="1.50475">
        <ele>1405.58</ele>
        <time>2016-10-31T14:40:45Z</time>
      </trkpt>
      <trkpt lat="42.83283" lon="1.50479">
        <ele>1405.1</ele>
        <time>2016-10-31T14:40:51Z</time>
      </trkpt>
      <trkpt lat="42.83282" lon="1.50481">
        <ele>1405.1</ele>
        <time>2016-10-31T14:40:52Z</time>
      </trkpt>
      <trkpt lat="42.83282" lon="1.50484">
        <ele>1404.62</ele>
        <time>2016-10-31T14:40:54Z</time>
      </trkpt>
      <trkpt lat="42.83282" lon="1.50486">
        <ele>1404.62</ele>
        <time>2016-10-31T14:40:55Z</time>
      </trkpt>
      <trkpt lat="42.83286" lon="1.50491">
        <ele>1404.14</ele>
        <time>2016-10-31T14:40:59Z</time>
      </trkpt>
      <trkpt lat="42.83287" lon="1.50492">
        <ele>1404.14</ele>
        <time>2016-10-31T14:41:00Z</time>
      </trkpt>
      <trkpt lat="42.83288" lon="1.50496">
        <ele>1403.18</ele>
        <time>2016-10-31T14:41:02Z</time>
      </trkpt>
      <trkpt lat="42.83288" lon="1.50498">
        <ele>1403.18</ele>
        <time>2016-10-31T14:41:03Z</time>
      </trkpt>
      <trkpt lat="42.83289" lon="1.505">
        <ele>1403.18</ele>
        <time>2016-10-31T14:41:04Z</time>
      </trkpt>
      <trkpt lat="42.83289" lon="1.50502">
        <ele>1402.7</ele>
        <time>2016-10-31T14:41:05Z</time>
      </trkpt>
      <trkpt lat="42.83289" lon="1.50504">
        <ele>1402.7</ele>
        <time>2016-10-31T14:41:06Z</time>
      </trkpt>
      <trkpt lat="42.8329" lon="1.50506">
        <ele>1402.7</ele>
        <time>2016-10-31T14:41:07Z</time>
      </trkpt>
      <trkpt lat="42.8329" lon="1.50508">
        <ele>1402.22</ele>
        <time>2016-10-31T14:41:08Z</time>
      </trkpt>
      <trkpt lat="42.83294" lon="1.50518">
        <ele>1401.74</ele>
        <time>2016-10-31T14:41:21Z</time>
      </trkpt>
      <trkpt lat="42.83293" lon="1.50524">
        <ele>1400.3</ele>
        <time>2016-10-31T14:41:36Z</time>
      </trkpt>
      <trkpt lat="42.83294" lon="1.50525">
        <ele>1400.3</ele>
        <time>2016-10-31T14:41:38Z</time>
      </trkpt>
      <trkpt lat="42.83296" lon="1.50528">
        <ele>1399.82</ele>
        <time>2016-10-31T14:41:40Z</time>
      </trkpt>
      <trkpt lat="42.83297" lon="1.50534">
        <ele>1399.82</ele>
        <time>2016-10-31T14:41:44Z</time>
      </trkpt>
      <trkpt lat="42.83297" lon="1.50537">
        <ele>1399.82</ele>
        <time>2016-10-31T14:41:45Z</time>
      </trkpt>
      <trkpt lat="42.83298" lon="1.50538">
        <ele>1399.82</ele>
        <time>2016-10-31T14:41:46Z</time>
      </trkpt>
      <trkpt lat="42.833" lon="1.5054">
        <ele>1399.34</ele>
        <time>2016-10-31T14:41:48Z</time>
      </trkpt>
      <trkpt lat="42.83301" lon="1.50544">
        <ele>1399.34</ele>
        <time>2016-10-31T14:41:50Z</time>
      </trkpt>
      <trkpt lat="42.83302" lon="1.50546">
        <ele>1399.34</ele>
        <time>2016-10-31T14:41:52Z</time>
      </trkpt>
      <trkpt lat="42.83303" lon="1.50547">
        <ele>1399.34</ele>
        <time>2016-10-31T14:41:53Z</time>
      </trkpt>
      <trkpt lat="42.83304" lon="1.50548">
        <ele>1399.34</ele>
        <time>2016-10-31T14:41:54Z</time>
      </trkpt>
      <trkpt lat="42.83305" lon="1.50549">
        <ele>1399.34</ele>
        <time>2016-10-31T14:41:55Z</time>
      </trkpt>
      <trkpt lat="42.83306" lon="1.5055">
        <ele>1399.34</ele>
        <time>2016-10-31T14:41:56Z</time>
      </trkpt>
      <trkpt lat="42.83307" lon="1.50552">
        <ele>1399.34</ele>
        <time>2016-10-31T14:41:57Z</time>
      </trkpt>
      <trkpt lat="42.83308" lon="1.50553">
        <ele>1398.37</ele>
        <time>2016-10-31T14:41:58Z</time>
      </trkpt>
      <trkpt lat="42.83309" lon="1.50555">
        <ele>1398.37</ele>
        <time>2016-10-31T14:41:59Z</time>
      </trkpt>
      <trkpt lat="42.83311" lon="1.50557">
        <ele>1398.37</ele>
        <time>2016-10-31T14:42:01Z</time>
      </trkpt>
      <trkpt lat="42.83311" lon="1.5056">
        <ele>1398.37</ele>
        <time>2016-10-31T14:42:02Z</time>
      </trkpt>
      <trkpt lat="42.83312" lon="1.50561">
        <ele>1397.89</ele>
        <time>2016-10-31T14:42:03Z</time>
      </trkpt>
      <trkpt lat="42.83313" lon="1.50563">
        <ele>1397.89</ele>
        <time>2016-10-31T14:42:04Z</time>
      </trkpt>
      <trkpt lat="42.83314" lon="1.50565">
        <ele>1397.89</ele>
        <time>2016-10-31T14:42:05Z</time>
      </trkpt>
      <trkpt lat="42.83315" lon="1.50567">
        <ele>1397.41</ele>
        <time>2016-10-31T14:42:06Z</time>
      </trkpt>
      <trkpt lat="42.83316" lon="1.50568">
        <ele>1397.41</ele>
        <time>2016-10-31T14:42:07Z</time>
      </trkpt>
      <trkpt lat="42.83321" lon="1.50578">
        <ele>1395.97</ele>
        <time>2016-10-31T14:42:13Z</time>
      </trkpt>
      <trkpt lat="42.83322" lon="1.50579">
        <ele>1395.97</ele>
        <time>2016-10-31T14:42:14Z</time>
      </trkpt>
      <trkpt lat="42.83323" lon="1.50581">
        <ele>1395.97</ele>
        <time>2016-10-31T14:42:15Z</time>
      </trkpt>
      <trkpt lat="42.83324" lon="1.50582">
        <ele>1395.97</ele>
        <time>2016-10-31T14:42:16Z</time>
      </trkpt>
      <trkpt lat="42.83324" lon="1.50584">
        <ele>1395.49</ele>
        <time>2016-10-31T14:42:17Z</time>
      </trkpt>
      <trkpt lat="42.83324" lon="1.50586">
        <ele>1395.49</ele>
        <time>2016-10-31T14:42:18Z</time>
      </trkpt>
      <trkpt lat="42.83326" lon="1.50591">
        <ele>1395.49</ele>
        <time>2016-10-31T14:42:20Z</time>
      </trkpt>
      <trkpt lat="42.83327" lon="1.50593">
        <ele>1395.49</ele>
        <time>2016-10-31T14:42:21Z</time>
      </trkpt>
      <trkpt lat="42.83329" lon="1.50596">
        <ele>1395.01</ele>
        <time>2016-10-31T14:42:23Z</time>
      </trkpt>
      <trkpt lat="42.83332" lon="1.506">
        <ele>1395.01</ele>
        <time>2016-10-31T14:42:26Z</time>
      </trkpt>
      <trkpt lat="42.83333" lon="1.50601">
        <ele>1394.53</ele>
        <time>2016-10-31T14:42:27Z</time>
      </trkpt>
      <trkpt lat="42.83336" lon="1.50607">
        <ele>1394.53</ele>
        <time>2016-10-31T14:42:32Z</time>
      </trkpt>
      <trkpt lat="42.83337" lon="1.50609">
        <ele>1394.05</ele>
        <time>2016-10-31T14:42:33Z</time>
      </trkpt>
      <trkpt lat="42.83338" lon="1.5061">
        <ele>1394.05</ele>
        <time>2016-10-31T14:42:34Z</time>
      </trkpt>
      <trkpt lat="42.83338" lon="1.50612">
        <ele>1394.05</ele>
        <time>2016-10-31T14:42:35Z</time>
      </trkpt>
      <trkpt lat="42.83339" lon="1.50614">
        <ele>1394.05</ele>
        <time>2016-10-31T14:42:36Z</time>
      </trkpt>
      <trkpt lat="42.83339" lon="1.50616">
        <ele>1394.05</ele>
        <time>2016-10-31T14:42:37Z</time>
      </trkpt>
      <trkpt lat="42.8334" lon="1.50618">
        <ele>1393.57</ele>
        <time>2016-10-31T14:42:38Z</time>
      </trkpt>
      <trkpt lat="42.83343" lon="1.50629">
        <ele>1392.61</ele>
        <time>2016-10-31T14:42:46Z</time>
      </trkpt>
      <trkpt lat="42.83351" lon="1.50639">
        <ele>1392.61</ele>
        <time>2016-10-31T14:42:54Z</time>
      </trkpt>
      <trkpt lat="42.83354" lon="1.5064">
        <ele>1392.13</ele>
        <time>2016-10-31T14:42:57Z</time>
      </trkpt>
      <trkpt lat="42.83357" lon="1.50644">
        <ele>1391.65</ele>
        <time>2016-10-31T14:43:04Z</time>
      </trkpt>
      <trkpt lat="42.83358" lon="1.50645">
        <ele>1391.65</ele>
        <time>2016-10-31T14:43:06Z</time>
      </trkpt>
      <trkpt lat="42.83373" lon="1.5065">
        <ele>1391.17</ele>
        <time>2016-10-31T14:43:16Z</time>
      </trkpt>
      <trkpt lat="42.83382" lon="1.50653">
        <ele>1391.17</ele>
        <time>2016-10-31T14:43:22Z</time>
      </trkpt>
      <trkpt lat="42.83383" lon="1.50653">
        <ele>1391.17</ele>
        <time>2016-10-31T14:43:23Z</time>
      </trkpt>
      <trkpt lat="42.8339" lon="1.50654">
        <ele>1390.2</ele>
        <time>2016-10-31T14:43:34Z</time>
      </trkpt>
      <trkpt lat="42.83394" lon="1.50659">
        <ele>1389.72</ele>
        <time>2016-10-31T14:43:40Z</time>
      </trkpt>
      <trkpt lat="42.83395" lon="1.50659">
        <ele>1389.72</ele>
        <time>2016-10-31T14:43:41Z</time>
      </trkpt>
      <trkpt lat="42.83405" lon="1.50662">
        <ele>1389.24</ele>
        <time>2016-10-31T14:43:48Z</time>
      </trkpt>
      <trkpt lat="42.83407" lon="1.50662">
        <ele>1388.76</ele>
        <time>2016-10-31T14:43:49Z</time>
      </trkpt>
      <trkpt lat="42.83408" lon="1.50661">
        <ele>1388.76</ele>
        <time>2016-10-31T14:43:50Z</time>
      </trkpt>
      <trkpt lat="42.83409" lon="1.5066">
        <ele>1388.76</ele>
        <time>2016-10-31T14:43:51Z</time>
      </trkpt>
      <trkpt lat="42.8341" lon="1.5066">
        <ele>1387.8</ele>
        <time>2016-10-31T14:43:52Z</time>
      </trkpt>
      <trkpt lat="42.83412" lon="1.50659">
        <ele>1387.8</ele>
        <time>2016-10-31T14:43:53Z</time>
      </trkpt>
      <trkpt lat="42.83413" lon="1.50658">
        <ele>1387.8</ele>
        <time>2016-10-31T14:43:54Z</time>
      </trkpt>
      <trkpt lat="42.83415" lon="1.50657">
        <ele>1387.32</ele>
        <time>2016-10-31T14:43:55Z</time>
      </trkpt>
      <trkpt lat="42.83416" lon="1.50656">
        <ele>1387.32</ele>
        <time>2016-10-31T14:43:56Z</time>
      </trkpt>
      <trkpt lat="42.83431" lon="1.50647">
        <ele>1385.4</ele>
        <time>2016-10-31T14:44:07Z</time>
      </trkpt>
      <trkpt lat="42.83433" lon="1.50647">
        <ele>1384.92</ele>
        <time>2016-10-31T14:44:08Z</time>
      </trkpt>
      <trkpt lat="42.83434" lon="1.50646">
        <ele>1384.92</ele>
        <time>2016-10-31T14:44:09Z</time>
      </trkpt>
      <trkpt lat="42.83436" lon="1.50646">
        <ele>1384.92</ele>
        <time>2016-10-31T14:44:10Z</time>
      </trkpt>
      <trkpt lat="42.83438" lon="1.50646">
        <ele>1384.44</ele>
        <time>2016-10-31T14:44:11Z</time>
      </trkpt>
      <trkpt lat="42.83439" lon="1.50645">
        <ele>1384.44</ele>
        <time>2016-10-31T14:44:12Z</time>
      </trkpt>
      <trkpt lat="42.8344" lon="1.50645">
        <ele>1384.44</ele>
        <time>2016-10-31T14:44:13Z</time>
      </trkpt>
      <trkpt lat="42.83443" lon="1.50643">
        <ele>1383.96</ele>
        <time>2016-10-31T14:44:15Z</time>
      </trkpt>
      <trkpt lat="42.83444" lon="1.50643">
        <ele>1382.99</ele>
        <time>2016-10-31T14:44:16Z</time>
      </trkpt>
      <trkpt lat="42.83445" lon="1.50641">
        <ele>1382.99</ele>
        <time>2016-10-31T14:44:17Z</time>
      </trkpt>
      <trkpt lat="42.83446" lon="1.50641">
        <ele>1382.03</ele>
        <time>2016-10-31T14:44:18Z</time>
      </trkpt>
      <trkpt lat="42.83448" lon="1.50641">
        <ele>1381.07</ele>
        <time>2016-10-31T14:44:19Z</time>
      </trkpt>
      <trkpt lat="42.83453" lon="1.50639">
        <ele>1377.71</ele>
        <time>2016-10-31T14:44:23Z</time>
      </trkpt>
      <trkpt lat="42.83455" lon="1.50637">
        <ele>1376.26</ele>
        <time>2016-10-31T14:44:25Z</time>
      </trkpt>
      <trkpt lat="42.83463" lon="1.50632">
        <ele>1374.34</ele>
        <time>2016-10-31T14:44:30Z</time>
      </trkpt>
      <trkpt lat="42.83474" lon="1.50624">
        <ele>1373.86</ele>
        <time>2016-10-31T14:44:39Z</time>
      </trkpt>
      <trkpt lat="42.83477" lon="1.50622">
        <ele>1373.38</ele>
        <time>2016-10-31T14:44:42Z</time>
      </trkpt>
      <trkpt lat="42.83486" lon="1.50627">
        <ele>1369.54</ele>
        <time>2016-10-31T14:44:49Z</time>
      </trkpt>
      <trkpt lat="42.83493" lon="1.50627">
        <ele>1366.65</ele>
        <time>2016-10-31T14:44:53Z</time>
      </trkpt>
      <trkpt lat="42.83502" lon="1.50628">
        <ele>1363.77</ele>
        <time>2016-10-31T14:44:59Z</time>
      </trkpt>
      <trkpt lat="42.83507" lon="1.5063">
        <ele>1363.29</ele>
        <time>2016-10-31T14:45:03Z</time>
      </trkpt>
      <trkpt lat="42.83515" lon="1.50632">
        <ele>1362.81</ele>
        <time>2016-10-31T14:45:09Z</time>
      </trkpt>
      <trkpt lat="42.8352" lon="1.50632">
        <ele>1362.33</ele>
        <time>2016-10-31T14:45:13Z</time>
      </trkpt>
      <trkpt lat="42.83522" lon="1.50631">
        <ele>1361.36</ele>
        <time>2016-10-31T14:45:15Z</time>
      </trkpt>
      <trkpt lat="42.83525" lon="1.50629">
        <ele>1360.88</ele>
        <time>2016-10-31T14:45:18Z</time>
      </trkpt>
      <trkpt lat="42.83533" lon="1.50627">
        <ele>1358</ele>
        <time>2016-10-31T14:45:24Z</time>
      </trkpt>
      <trkpt lat="42.83539" lon="1.50631">
        <ele>1354.15</ele>
        <time>2016-10-31T14:45:29Z</time>
      </trkpt>
      <trkpt lat="42.8354" lon="1.50631">
        <ele>1353.19</ele>
        <time>2016-10-31T14:45:30Z</time>
      </trkpt>
      <trkpt lat="42.83544" lon="1.50632">
        <ele>1352.23</ele>
        <time>2016-10-31T14:45:33Z</time>
      </trkpt>
      <trkpt lat="42.83558" lon="1.50627">
        <ele>1351.27</ele>
        <time>2016-10-31T14:45:43Z</time>
      </trkpt>
      <trkpt lat="42.83559" lon="1.50626">
        <ele>1351.27</ele>
        <time>2016-10-31T14:45:44Z</time>
      </trkpt>
      <trkpt lat="42.83564" lon="1.50624">
        <ele>1349.83</ele>
        <time>2016-10-31T14:45:48Z</time>
      </trkpt>
      <trkpt lat="42.8357" lon="1.50624">
        <ele>1347.43</ele>
        <time>2016-10-31T14:45:52Z</time>
      </trkpt>
      <trkpt lat="42.83574" lon="1.50623">
        <ele>1344.54</ele>
        <time>2016-10-31T14:45:55Z</time>
      </trkpt>
      <trkpt lat="42.83593" lon="1.50621">
        <ele>1341.18</ele>
        <time>2016-10-31T14:46:08Z</time>
      </trkpt>
      <trkpt lat="42.83594" lon="1.5062">
        <ele>1341.18</ele>
        <time>2016-10-31T14:46:09Z</time>
      </trkpt>
      <trkpt lat="42.83598" lon="1.50619">
        <ele>1341.18</ele>
        <time>2016-10-31T14:46:12Z</time>
      </trkpt>
      <trkpt lat="42.83601" lon="1.5062">
        <ele>1341.18</ele>
        <time>2016-10-31T14:46:15Z</time>
      </trkpt>
      <trkpt lat="42.83606" lon="1.50624">
        <ele>1340.7</ele>
        <time>2016-10-31T14:46:19Z</time>
      </trkpt>
      <trkpt lat="42.83613" lon="1.50637">
        <ele>1336.37</ele>
        <time>2016-10-31T14:46:28Z</time>
      </trkpt>
      <trkpt lat="42.83614" lon="1.50638">
        <ele>1335.41</ele>
        <time>2016-10-31T14:46:29Z</time>
      </trkpt>
      <trkpt lat="42.83618" lon="1.50643">
        <ele>1333.01</ele>
        <time>2016-10-31T14:46:33Z</time>
      </trkpt>
      <trkpt lat="42.83623" lon="1.50647">
        <ele>1332.04</ele>
        <time>2016-10-31T14:46:37Z</time>
      </trkpt>
      <trkpt lat="42.83629" lon="1.50648">
        <ele>1332.04</ele>
        <time>2016-10-31T14:46:42Z</time>
      </trkpt>
      <trkpt lat="42.83638" lon="1.50645">
        <ele>1329.64</ele>
        <time>2016-10-31T14:46:52Z</time>
      </trkpt>
      <trkpt lat="42.83646" lon="1.50651">
        <ele>1325.8</ele>
        <time>2016-10-31T14:46:58Z</time>
      </trkpt>
      <trkpt lat="42.8365" lon="1.50658">
        <ele>1321.47</ele>
        <time>2016-10-31T14:47:03Z</time>
      </trkpt>
      <trkpt lat="42.83653" lon="1.50666">
        <ele>1319.55</ele>
        <time>2016-10-31T14:47:08Z</time>
      </trkpt>
      <trkpt lat="42.83656" lon="1.50682">
        <ele>1319.07</ele>
        <time>2016-10-31T14:47:16Z</time>
      </trkpt>
      <trkpt lat="42.83662" lon="1.50693">
        <ele>1317.14</ele>
        <time>2016-10-31T14:47:24Z</time>
      </trkpt>
      <trkpt lat="42.83664" lon="1.50693">
        <ele>1316.66</ele>
        <time>2016-10-31T14:47:25Z</time>
      </trkpt>
      <trkpt lat="42.8367" lon="1.50693">
        <ele>1312.34</ele>
        <time>2016-10-31T14:47:30Z</time>
      </trkpt>
      <trkpt lat="42.83676" lon="1.50691">
        <ele>1310.41</ele>
        <time>2016-10-31T14:47:36Z</time>
      </trkpt>
      <trkpt lat="42.83685" lon="1.50684">
        <ele>1310.41</ele>
        <time>2016-10-31T14:47:43Z</time>
      </trkpt>
      <trkpt lat="42.83697" lon="1.50675">
        <ele>1309.45</ele>
        <time>2016-10-31T14:47:53Z</time>
      </trkpt>
      <trkpt lat="42.83705" lon="1.50669">
        <ele>1308.01</ele>
        <time>2016-10-31T14:47:59Z</time>
      </trkpt>
      <trkpt lat="42.83714" lon="1.50659">
        <ele>1306.09</ele>
        <time>2016-10-31T14:48:06Z</time>
      </trkpt>
      <trkpt lat="42.83717" lon="1.50657">
        <ele>1305.61</ele>
        <time>2016-10-31T14:48:10Z</time>
      </trkpt>
      <trkpt lat="42.83718" lon="1.50645">
        <ele>1302.24</ele>
        <time>2016-10-31T14:48:17Z</time>
      </trkpt>
      <trkpt lat="42.83722" lon="1.50629">
        <ele>1299.36</ele>
        <time>2016-10-31T14:48:26Z</time>
      </trkpt>
      <trkpt lat="42.83723" lon="1.50625">
        <ele>1298.88</ele>
        <time>2016-10-31T14:48:28Z</time>
      </trkpt>
      <trkpt lat="42.83724" lon="1.50622">
        <ele>1298.88</ele>
        <time>2016-10-31T14:48:29Z</time>
      </trkpt>
      <trkpt lat="42.83724" lon="1.50619">
        <ele>1298.88</ele>
        <time>2016-10-31T14:48:30Z</time>
      </trkpt>
      <trkpt lat="42.83724" lon="1.50617">
        <ele>1298.88</ele>
        <time>2016-10-31T14:48:31Z</time>
      </trkpt>
      <trkpt lat="42.83724" lon="1.50615">
        <ele>1298.88</ele>
        <time>2016-10-31T14:48:32Z</time>
      </trkpt>
      <trkpt lat="42.83724" lon="1.50614">
        <ele>1298.88</ele>
        <time>2016-10-31T14:48:33Z</time>
      </trkpt>
      <trkpt lat="42.83724" lon="1.50606">
        <ele>1298.88</ele>
        <time>2016-10-31T14:48:40Z</time>
      </trkpt>
      <trkpt lat="42.83723" lon="1.50604">
        <ele>1298.4</ele>
        <time>2016-10-31T14:48:46Z</time>
      </trkpt>
      <trkpt lat="42.83722" lon="1.50602">
        <ele>1298.4</ele>
        <time>2016-10-31T14:48:47Z</time>
      </trkpt>
      <trkpt lat="42.83722" lon="1.50601">
        <ele>1298.4</ele>
        <time>2016-10-31T14:48:48Z</time>
      </trkpt>
      <trkpt lat="42.83721" lon="1.50599">
        <ele>1298.4</ele>
        <time>2016-10-31T14:48:49Z</time>
      </trkpt>
      <trkpt lat="42.83721" lon="1.50597">
        <ele>1298.4</ele>
        <time>2016-10-31T14:48:50Z</time>
      </trkpt>
      <trkpt lat="42.83721" lon="1.50595">
        <ele>1298.4</ele>
        <time>2016-10-31T14:48:51Z</time>
      </trkpt>
      <trkpt lat="42.83721" lon="1.50593">
        <ele>1298.4</ele>
        <time>2016-10-31T14:48:52Z</time>
      </trkpt>
      <trkpt lat="42.83721" lon="1.50591">
        <ele>1298.4</ele>
        <time>2016-10-31T14:48:53Z</time>
      </trkpt>
      <trkpt lat="42.8372" lon="1.50589">
        <ele>1298.4</ele>
        <time>2016-10-31T14:48:54Z</time>
      </trkpt>
      <trkpt lat="42.83716" lon="1.50572">
        <ele>1297.44</ele>
        <time>2016-10-31T14:49:03Z</time>
      </trkpt>
      <trkpt lat="42.83716" lon="1.50571">
        <ele>1297.44</ele>
        <time>2016-10-31T14:49:04Z</time>
      </trkpt>
      <trkpt lat="42.83715" lon="1.5057">
        <ele>1296.96</ele>
        <time>2016-10-31T14:49:05Z</time>
      </trkpt>
      <trkpt lat="42.83714" lon="1.50568">
        <ele>1296.96</ele>
        <time>2016-10-31T14:49:06Z</time>
      </trkpt>
      <trkpt lat="42.83713" lon="1.50567">
        <ele>1296.48</ele>
        <time>2016-10-31T14:49:07Z</time>
      </trkpt>
      <trkpt lat="42.83712" lon="1.50564">
        <ele>1296.48</ele>
        <time>2016-10-31T14:49:08Z</time>
      </trkpt>
      <trkpt lat="42.83708" lon="1.50557">
        <ele>1295.99</ele>
        <time>2016-10-31T14:49:13Z</time>
      </trkpt>
      <trkpt lat="42.83707" lon="1.50556">
        <ele>1295.99</ele>
        <time>2016-10-31T14:49:14Z</time>
      </trkpt>
      <trkpt lat="42.83706" lon="1.50555">
        <ele>1295.99</ele>
        <time>2016-10-31T14:49:15Z</time>
      </trkpt>
      <trkpt lat="42.83701" lon="1.5055">
        <ele>1295.51</ele>
        <time>2016-10-31T14:49:19Z</time>
      </trkpt>
      <trkpt lat="42.837" lon="1.50548">
        <ele>1295.51</ele>
        <time>2016-10-31T14:49:20Z</time>
      </trkpt>
      <trkpt lat="42.83699" lon="1.50546">
        <ele>1295.03</ele>
        <time>2016-10-31T14:49:21Z</time>
      </trkpt>
      <trkpt lat="42.83698" lon="1.50545">
        <ele>1295.03</ele>
        <time>2016-10-31T14:49:22Z</time>
      </trkpt>
      <trkpt lat="42.83697" lon="1.50544">
        <ele>1295.03</ele>
        <time>2016-10-31T14:49:23Z</time>
      </trkpt>
      <trkpt lat="42.83693" lon="1.5054">
        <ele>1294.07</ele>
        <time>2016-10-31T14:49:26Z</time>
      </trkpt>
      <trkpt lat="42.83692" lon="1.50539">
        <ele>1294.07</ele>
        <time>2016-10-31T14:49:27Z</time>
      </trkpt>
      <trkpt lat="42.83691" lon="1.50538">
        <ele>1294.07</ele>
        <time>2016-10-31T14:49:28Z</time>
      </trkpt>
      <trkpt lat="42.8369" lon="1.50537">
        <ele>1293.59</ele>
        <time>2016-10-31T14:49:29Z</time>
      </trkpt>
      <trkpt lat="42.83689" lon="1.50536">
        <ele>1293.59</ele>
        <time>2016-10-31T14:49:30Z</time>
      </trkpt>
      <trkpt lat="42.83688" lon="1.50534">
        <ele>1293.59</ele>
        <time>2016-10-31T14:49:31Z</time>
      </trkpt>
      <trkpt lat="42.83686" lon="1.50531">
        <ele>1293.11</ele>
        <time>2016-10-31T14:49:33Z</time>
      </trkpt>
      <trkpt lat="42.83684" lon="1.50529">
        <ele>1293.11</ele>
        <time>2016-10-31T14:49:34Z</time>
      </trkpt>
      <trkpt lat="42.83683" lon="1.50528">
        <ele>1293.11</ele>
        <time>2016-10-31T14:49:35Z</time>
      </trkpt>
      <trkpt lat="42.83682" lon="1.50526">
        <ele>1293.11</ele>
        <time>2016-10-31T14:49:36Z</time>
      </trkpt>
      <trkpt lat="42.83681" lon="1.50524">
        <ele>1292.63</ele>
        <time>2016-10-31T14:49:37Z</time>
      </trkpt>
      <trkpt lat="42.8368" lon="1.50523">
        <ele>1292.63</ele>
        <time>2016-10-31T14:49:38Z</time>
      </trkpt>
      <trkpt lat="42.83679" lon="1.50521">
        <ele>1292.63</ele>
        <time>2016-10-31T14:49:39Z</time>
      </trkpt>
      <trkpt lat="42.83677" lon="1.50519">
        <ele>1292.63</ele>
        <time>2016-10-31T14:49:40Z</time>
      </trkpt>
      <trkpt lat="42.83676" lon="1.50517">
        <ele>1292.63</ele>
        <time>2016-10-31T14:49:41Z</time>
      </trkpt>
      <trkpt lat="42.83675" lon="1.50516">
        <ele>1291.67</ele>
        <time>2016-10-31T14:49:42Z</time>
      </trkpt>
      <trkpt lat="42.83674" lon="1.50513">
        <ele>1291.67</ele>
        <time>2016-10-31T14:49:43Z</time>
      </trkpt>
      <trkpt lat="42.83673" lon="1.50512">
        <ele>1291.67</ele>
        <time>2016-10-31T14:49:44Z</time>
      </trkpt>
      <trkpt lat="42.83667" lon="1.50504">
        <ele>1291.19</ele>
        <time>2016-10-31T14:49:49Z</time>
      </trkpt>
      <trkpt lat="42.83661" lon="1.50499">
        <ele>1290.23</ele>
        <time>2016-10-31T14:49:55Z</time>
      </trkpt>
      <trkpt lat="42.8366" lon="1.50494">
        <ele>1289.75</ele>
        <time>2016-10-31T14:49:58Z</time>
      </trkpt>
      <trkpt lat="42.83659" lon="1.50493">
        <ele>1289.27</ele>
        <time>2016-10-31T14:49:59Z</time>
      </trkpt>
      <trkpt lat="42.83658" lon="1.50492">
        <ele>1289.27</ele>
        <time>2016-10-31T14:50:00Z</time>
      </trkpt>
      <trkpt lat="42.83656" lon="1.50491">
        <ele>1289.27</ele>
        <time>2016-10-31T14:50:01Z</time>
      </trkpt>
      <trkpt lat="42.83654" lon="1.50491">
        <ele>1289.27</ele>
        <time>2016-10-31T14:50:02Z</time>
      </trkpt>
      <trkpt lat="42.83653" lon="1.50489">
        <ele>1288.3</ele>
        <time>2016-10-31T14:50:03Z</time>
      </trkpt>
      <trkpt lat="42.83652" lon="1.50488">
        <ele>1288.3</ele>
        <time>2016-10-31T14:50:04Z</time>
      </trkpt>
      <trkpt lat="42.83652" lon="1.50486">
        <ele>1288.3</ele>
        <time>2016-10-31T14:50:05Z</time>
      </trkpt>
      <trkpt lat="42.83648" lon="1.50475">
        <ele>1287.34</ele>
        <time>2016-10-31T14:50:10Z</time>
      </trkpt>
      <trkpt lat="42.83648" lon="1.50473">
        <ele>1287.34</ele>
        <time>2016-10-31T14:50:11Z</time>
      </trkpt>
      <trkpt lat="42.83647" lon="1.50471">
        <ele>1286.38</ele>
        <time>2016-10-31T14:50:12Z</time>
      </trkpt>
      <trkpt lat="42.83646" lon="1.50469">
        <ele>1286.86</ele>
        <time>2016-10-31T14:50:13Z</time>
      </trkpt>
      <trkpt lat="42.83645" lon="1.50467">
        <ele>1286.86</ele>
        <time>2016-10-31T14:50:14Z</time>
      </trkpt>
      <trkpt lat="42.83644" lon="1.50465">
        <ele>1285.9</ele>
        <time>2016-10-31T14:50:15Z</time>
      </trkpt>
      <trkpt lat="42.83644" lon="1.50463">
        <ele>1285.9</ele>
        <time>2016-10-31T14:50:16Z</time>
      </trkpt>
      <trkpt lat="42.83645" lon="1.5046">
        <ele>1285.9</ele>
        <time>2016-10-31T14:50:17Z</time>
      </trkpt>
      <trkpt lat="42.83645" lon="1.50454">
        <ele>1285.42</ele>
        <time>2016-10-31T14:50:20Z</time>
      </trkpt>
      <trkpt lat="42.83645" lon="1.50452">
        <ele>1284.94</ele>
        <time>2016-10-31T14:50:21Z</time>
      </trkpt>
      <trkpt lat="42.83646" lon="1.5045">
        <ele>1284.94</ele>
        <time>2016-10-31T14:50:22Z</time>
      </trkpt>
      <trkpt lat="42.83646" lon="1.50448">
        <ele>1284.46</ele>
        <time>2016-10-31T14:50:23Z</time>
      </trkpt>
      <trkpt lat="42.83646" lon="1.50447">
        <ele>1284.46</ele>
        <time>2016-10-31T14:50:24Z</time>
      </trkpt>
      <trkpt lat="42.83646" lon="1.50445">
        <ele>1284.46</ele>
        <time>2016-10-31T14:50:25Z</time>
      </trkpt>
      <trkpt lat="42.83646" lon="1.50439">
        <ele>1283.98</ele>
        <time>2016-10-31T14:50:28Z</time>
      </trkpt>
      <trkpt lat="42.83647" lon="1.50437">
        <ele>1283.02</ele>
        <time>2016-10-31T14:50:29Z</time>
      </trkpt>
      <trkpt lat="42.83647" lon="1.50435">
        <ele>1283.02</ele>
        <time>2016-10-31T14:50:30Z</time>
      </trkpt>
      <trkpt lat="42.83647" lon="1.50432">
        <ele>1283.02</ele>
        <time>2016-10-31T14:50:31Z</time>
      </trkpt>
      <trkpt lat="42.83648" lon="1.5043">
        <ele>1282.54</ele>
        <time>2016-10-31T14:50:32Z</time>
      </trkpt>
      <trkpt lat="42.83648" lon="1.50428">
        <ele>1282.54</ele>
        <time>2016-10-31T14:50:33Z</time>
      </trkpt>
      <trkpt lat="42.83649" lon="1.50424">
        <ele>1282.06</ele>
        <time>2016-10-31T14:50:35Z</time>
      </trkpt>
      <trkpt lat="42.8365" lon="1.50422">
        <ele>1282.06</ele>
        <time>2016-10-31T14:50:36Z</time>
      </trkpt>
      <trkpt lat="42.8365" lon="1.5042">
        <ele>1282.06</ele>
        <time>2016-10-31T14:50:37Z</time>
      </trkpt>
      <trkpt lat="42.83651" lon="1.50418">
        <ele>1281.57</ele>
        <time>2016-10-31T14:50:38Z</time>
      </trkpt>
      <trkpt lat="42.83652" lon="1.50417">
        <ele>1281.57</ele>
        <time>2016-10-31T14:50:39Z</time>
      </trkpt>
      <trkpt lat="42.83653" lon="1.50415">
        <ele>1281.57</ele>
        <time>2016-10-31T14:50:40Z</time>
      </trkpt>
      <trkpt lat="42.83653" lon="1.50413">
        <ele>1281.57</ele>
        <time>2016-10-31T14:50:41Z</time>
      </trkpt>
      <trkpt lat="42.83653" lon="1.50411">
        <ele>1281.57</ele>
        <time>2016-10-31T14:50:42Z</time>
      </trkpt>
      <trkpt lat="42.83654" lon="1.5041">
        <ele>1280.61</ele>
        <time>2016-10-31T14:50:43Z</time>
      </trkpt>
      <trkpt lat="42.83655" lon="1.50409">
        <ele>1280.61</ele>
        <time>2016-10-31T14:50:44Z</time>
      </trkpt>
      <trkpt lat="42.83656" lon="1.50407">
        <ele>1280.61</ele>
        <time>2016-10-31T14:50:45Z</time>
      </trkpt>
      <trkpt lat="42.83657" lon="1.50405">
        <ele>1280.61</ele>
        <time>2016-10-31T14:50:46Z</time>
      </trkpt>
      <trkpt lat="42.83658" lon="1.50403">
        <ele>1280.61</ele>
        <time>2016-10-31T14:50:47Z</time>
      </trkpt>
      <trkpt lat="42.83659" lon="1.50402">
        <ele>1280.13</ele>
        <time>2016-10-31T14:50:48Z</time>
      </trkpt>
      <trkpt lat="42.8366" lon="1.504">
        <ele>1280.13</ele>
        <time>2016-10-31T14:50:49Z</time>
      </trkpt>
      <trkpt lat="42.83664" lon="1.50392">
        <ele>1280.13</ele>
        <time>2016-10-31T14:50:54Z</time>
      </trkpt>
      <trkpt lat="42.83664" lon="1.5039">
        <ele>1280.13</ele>
        <time>2016-10-31T14:50:55Z</time>
      </trkpt>
      <trkpt lat="42.83665" lon="1.50388">
        <ele>1280.13</ele>
        <time>2016-10-31T14:50:56Z</time>
      </trkpt>
      <trkpt lat="42.83665" lon="1.50386">
        <ele>1280.13</ele>
        <time>2016-10-31T14:50:57Z</time>
      </trkpt>
      <trkpt lat="42.83666" lon="1.50384">
        <ele>1280.13</ele>
        <time>2016-10-31T14:50:58Z</time>
      </trkpt>
      <trkpt lat="42.83666" lon="1.50382">
        <ele>1280.13</ele>
        <time>2016-10-31T14:50:59Z</time>
      </trkpt>
      <trkpt lat="42.83667" lon="1.50379">
        <ele>1280.13</ele>
        <time>2016-10-31T14:51:00Z</time>
      </trkpt>
      <trkpt lat="42.83669" lon="1.50378">
        <ele>1280.13</ele>
        <time>2016-10-31T14:51:01Z</time>
      </trkpt>
      <trkpt lat="42.83672" lon="1.50375">
        <ele>1280.13</ele>
        <time>2016-10-31T14:51:04Z</time>
      </trkpt>
      <trkpt lat="42.83673" lon="1.50374">
        <ele>1280.13</ele>
        <time>2016-10-31T14:51:05Z</time>
      </trkpt>
      <trkpt lat="42.83674" lon="1.50372">
        <ele>1280.13</ele>
        <time>2016-10-31T14:51:06Z</time>
      </trkpt>
      <trkpt lat="42.83674" lon="1.5037">
        <ele>1280.13</ele>
        <time>2016-10-31T14:51:07Z</time>
      </trkpt>
      <trkpt lat="42.83676" lon="1.50368">
        <ele>1280.13</ele>
        <time>2016-10-31T14:51:08Z</time>
      </trkpt>
      <trkpt lat="42.83677" lon="1.50365">
        <ele>1280.13</ele>
        <time>2016-10-31T14:51:10Z</time>
      </trkpt>
      <trkpt lat="42.83678" lon="1.50364">
        <ele>1280.13</ele>
        <time>2016-10-31T14:51:11Z</time>
      </trkpt>
      <trkpt lat="42.83679" lon="1.50363">
        <ele>1280.13</ele>
        <time>2016-10-31T14:51:12Z</time>
      </trkpt>
      <trkpt lat="42.83681" lon="1.50362">
        <ele>1280.13</ele>
        <time>2016-10-31T14:51:13Z</time>
      </trkpt>
      <trkpt lat="42.83682" lon="1.50361">
        <ele>1280.13</ele>
        <time>2016-10-31T14:51:14Z</time>
      </trkpt>
      <trkpt lat="42.83684" lon="1.50359">
        <ele>1280.13</ele>
        <time>2016-10-31T14:51:15Z</time>
      </trkpt>
      <trkpt lat="42.83685" lon="1.50358">
        <ele>1280.13</ele>
        <time>2016-10-31T14:51:16Z</time>
      </trkpt>
      <trkpt lat="42.83688" lon="1.50354">
        <ele>1280.13</ele>
        <time>2016-10-31T14:51:19Z</time>
      </trkpt>
      <trkpt lat="42.83689" lon="1.50349">
        <ele>1280.13</ele>
        <time>2016-10-31T14:51:22Z</time>
      </trkpt>
      <trkpt lat="42.8369" lon="1.50345">
        <ele>1280.13</ele>
        <time>2016-10-31T14:51:23Z</time>
      </trkpt>
      <trkpt lat="42.8369" lon="1.50343">
        <ele>1280.13</ele>
        <time>2016-10-31T14:51:24Z</time>
      </trkpt>
      <trkpt lat="42.83689" lon="1.5034">
        <ele>1280.13</ele>
        <time>2016-10-31T14:51:25Z</time>
      </trkpt>
      <trkpt lat="42.83689" lon="1.50337">
        <ele>1280.13</ele>
        <time>2016-10-31T14:51:26Z</time>
      </trkpt>
      <trkpt lat="42.83689" lon="1.50336">
        <ele>1280.13</ele>
        <time>2016-10-31T14:51:27Z</time>
      </trkpt>
      <trkpt lat="42.83688" lon="1.50329">
        <ele>1280.13</ele>
        <time>2016-10-31T14:51:30Z</time>
      </trkpt>
      <trkpt lat="42.83688" lon="1.50327">
        <ele>1280.13</ele>
        <time>2016-10-31T14:51:31Z</time>
      </trkpt>
      <trkpt lat="42.83689" lon="1.50325">
        <ele>1280.13</ele>
        <time>2016-10-31T14:51:32Z</time>
      </trkpt>
      <trkpt lat="42.8369" lon="1.50323">
        <ele>1280.13</ele>
        <time>2016-10-31T14:51:33Z</time>
      </trkpt>
      <trkpt lat="42.83691" lon="1.50322">
        <ele>1280.13</ele>
        <time>2016-10-31T14:51:34Z</time>
      </trkpt>
      <trkpt lat="42.83697" lon="1.50305">
        <ele>1279.65</ele>
        <time>2016-10-31T14:51:42Z</time>
      </trkpt>
      <trkpt lat="42.83698" lon="1.50303">
        <ele>1279.17</ele>
        <time>2016-10-31T14:51:43Z</time>
      </trkpt>
      <trkpt lat="42.83699" lon="1.50302">
        <ele>1279.17</ele>
        <time>2016-10-31T14:51:44Z</time>
      </trkpt>
      <trkpt lat="42.83714" lon="1.50291">
        <ele>1276.77</ele>
        <time>2016-10-31T14:51:57Z</time>
      </trkpt>
      <trkpt lat="42.83715" lon="1.5029">
        <ele>1276.77</ele>
        <time>2016-10-31T14:51:58Z</time>
      </trkpt>
      <trkpt lat="42.83718" lon="1.50289">
        <ele>1276.77</ele>
        <time>2016-10-31T14:52:00Z</time>
      </trkpt>
      <trkpt lat="42.83719" lon="1.50288">
        <ele>1275.81</ele>
        <time>2016-10-31T14:52:01Z</time>
      </trkpt>
      <trkpt lat="42.83739" lon="1.50286">
        <ele>1273.88</ele>
        <time>2016-10-31T14:52:15Z</time>
      </trkpt>
      <trkpt lat="42.83744" lon="1.50285">
        <ele>1273.4</ele>
        <time>2016-10-31T14:52:18Z</time>
      </trkpt>
      <trkpt lat="42.83745" lon="1.50285">
        <ele>1273.4</ele>
        <time>2016-10-31T14:52:19Z</time>
      </trkpt>
      <trkpt lat="42.83747" lon="1.50285">
        <ele>1272.92</ele>
        <time>2016-10-31T14:52:20Z</time>
      </trkpt>
      <trkpt lat="42.83759" lon="1.50277">
        <ele>1271.48</ele>
        <time>2016-10-31T14:52:28Z</time>
      </trkpt>
      <trkpt lat="42.8376" lon="1.50276">
        <ele>1271.48</ele>
        <time>2016-10-31T14:52:29Z</time>
      </trkpt>
      <trkpt lat="42.83761" lon="1.50274">
        <ele>1271.48</ele>
        <time>2016-10-31T14:52:30Z</time>
      </trkpt>
      <trkpt lat="42.83762" lon="1.50273">
        <ele>1271</ele>
        <time>2016-10-31T14:52:31Z</time>
      </trkpt>
      <trkpt lat="42.83762" lon="1.50272">
        <ele>1271</ele>
        <time>2016-10-31T14:52:32Z</time>
      </trkpt>
      <trkpt lat="42.83763" lon="1.5027">
        <ele>1271</ele>
        <time>2016-10-31T14:52:33Z</time>
      </trkpt>
      <trkpt lat="42.83763" lon="1.50268">
        <ele>1270.52</ele>
        <time>2016-10-31T14:52:34Z</time>
      </trkpt>
      <trkpt lat="42.83764" lon="1.50266">
        <ele>1270.52</ele>
        <time>2016-10-31T14:52:35Z</time>
      </trkpt>
      <trkpt lat="42.83764" lon="1.50264">
        <ele>1270.52</ele>
        <time>2016-10-31T14:52:36Z</time>
      </trkpt>
      <trkpt lat="42.83765" lon="1.50262">
        <ele>1269.56</ele>
        <time>2016-10-31T14:52:37Z</time>
      </trkpt>
      <trkpt lat="42.83765" lon="1.5026">
        <ele>1270.04</ele>
        <time>2016-10-31T14:52:38Z</time>
      </trkpt>
      <trkpt lat="42.83766" lon="1.50258">
        <ele>1270.04</ele>
        <time>2016-10-31T14:52:39Z</time>
      </trkpt>
      <trkpt lat="42.83766" lon="1.50257">
        <ele>1270.04</ele>
        <time>2016-10-31T14:52:40Z</time>
      </trkpt>
      <trkpt lat="42.83767" lon="1.50255">
        <ele>1269.08</ele>
        <time>2016-10-31T14:52:41Z</time>
      </trkpt>
      <trkpt lat="42.83768" lon="1.50253">
        <ele>1269.08</ele>
        <time>2016-10-31T14:52:42Z</time>
      </trkpt>
      <trkpt lat="42.83771" lon="1.50244">
        <ele>1268.12</ele>
        <time>2016-10-31T14:52:50Z</time>
      </trkpt>
      <trkpt lat="42.83777" lon="1.50225">
        <ele>1266.19</ele>
        <time>2016-10-31T14:53:01Z</time>
      </trkpt>
      <trkpt lat="42.83787" lon="1.50218">
        <ele>1265.23</ele>
        <time>2016-10-31T14:53:11Z</time>
      </trkpt>
      <trkpt lat="42.83796" lon="1.5021">
        <ele>1263.79</ele>
        <time>2016-10-31T14:53:17Z</time>
      </trkpt>
      <trkpt lat="42.83804" lon="1.50197">
        <ele>1262.35</ele>
        <time>2016-10-31T14:53:28Z</time>
      </trkpt>
      <trkpt lat="42.83804" lon="1.50193">
        <ele>1261.87</ele>
        <time>2016-10-31T14:53:31Z</time>
      </trkpt>
      <trkpt lat="42.8382" lon="1.50179">
        <ele>1259.46</ele>
        <time>2016-10-31T14:53:44Z</time>
      </trkpt>
      <trkpt lat="42.83829" lon="1.50169">
        <ele>1258.5</ele>
        <time>2016-10-31T14:53:52Z</time>
      </trkpt>
      <trkpt lat="42.8383" lon="1.50167">
        <ele>1257.54</ele>
        <time>2016-10-31T14:53:53Z</time>
      </trkpt>
      <trkpt lat="42.83832" lon="1.50163">
        <ele>1257.06</ele>
        <time>2016-10-31T14:53:57Z</time>
      </trkpt>
      <trkpt lat="42.83839" lon="1.50161">
        <ele>1256.58</ele>
        <time>2016-10-31T14:54:04Z</time>
      </trkpt>
      <trkpt lat="42.8384" lon="1.50159">
        <ele>1256.58</ele>
        <time>2016-10-31T14:54:05Z</time>
      </trkpt>
      <trkpt lat="42.83841" lon="1.50158">
        <ele>1256.58</ele>
        <time>2016-10-31T14:54:06Z</time>
      </trkpt>
      <trkpt lat="42.83842" lon="1.50156">
        <ele>1256.58</ele>
        <time>2016-10-31T14:54:07Z</time>
      </trkpt>
      <trkpt lat="42.83843" lon="1.50153">
        <ele>1256.58</ele>
        <time>2016-10-31T14:54:09Z</time>
      </trkpt>
      <trkpt lat="42.83844" lon="1.50151">
        <ele>1256.58</ele>
        <time>2016-10-31T14:54:10Z</time>
      </trkpt>
      <trkpt lat="42.83845" lon="1.5015">
        <ele>1256.58</ele>
        <time>2016-10-31T14:54:11Z</time>
      </trkpt>
      <trkpt lat="42.83846" lon="1.50149">
        <ele>1256.58</ele>
        <time>2016-10-31T14:54:12Z</time>
      </trkpt>
      <trkpt lat="42.83848" lon="1.50147">
        <ele>1256.58</ele>
        <time>2016-10-31T14:54:13Z</time>
      </trkpt>
      <trkpt lat="42.83848" lon="1.50146">
        <ele>1256.58</ele>
        <time>2016-10-31T14:54:14Z</time>
      </trkpt>
      <trkpt lat="42.83851" lon="1.50143">
        <ele>1256.1</ele>
        <time>2016-10-31T14:54:17Z</time>
      </trkpt>
      <trkpt lat="42.8386" lon="1.50134">
        <ele>1256.1</ele>
        <time>2016-10-31T14:54:25Z</time>
      </trkpt>
      <trkpt lat="42.83861" lon="1.50133">
        <ele>1256.1</ele>
        <time>2016-10-31T14:54:26Z</time>
      </trkpt>
      <trkpt lat="42.83862" lon="1.50132">
        <ele>1256.1</ele>
        <time>2016-10-31T14:54:27Z</time>
      </trkpt>
      <trkpt lat="42.83864" lon="1.50131">
        <ele>1256.1</ele>
        <time>2016-10-31T14:54:28Z</time>
      </trkpt>
      <trkpt lat="42.83864" lon="1.5013">
        <ele>1256.1</ele>
        <time>2016-10-31T14:54:29Z</time>
      </trkpt>
      <trkpt lat="42.83864" lon="1.50128">
        <ele>1256.1</ele>
        <time>2016-10-31T14:54:30Z</time>
      </trkpt>
      <trkpt lat="42.83865" lon="1.50127">
        <ele>1256.1</ele>
        <time>2016-10-31T14:54:31Z</time>
      </trkpt>
      <trkpt lat="42.83866" lon="1.50126">
        <ele>1256.1</ele>
        <time>2016-10-31T14:54:32Z</time>
      </trkpt>
      <trkpt lat="42.83867" lon="1.50125">
        <ele>1256.1</ele>
        <time>2016-10-31T14:54:33Z</time>
      </trkpt>
      <trkpt lat="42.83868" lon="1.50124">
        <ele>1256.1</ele>
        <time>2016-10-31T14:54:34Z</time>
      </trkpt>
      <trkpt lat="42.83869" lon="1.50123">
        <ele>1256.1</ele>
        <time>2016-10-31T14:54:35Z</time>
      </trkpt>
      <trkpt lat="42.83873" lon="1.50118">
        <ele>1256.1</ele>
        <time>2016-10-31T14:54:39Z</time>
      </trkpt>
      <trkpt lat="42.83874" lon="1.50117">
        <ele>1256.1</ele>
        <time>2016-10-31T14:54:40Z</time>
      </trkpt>
      <trkpt lat="42.83875" lon="1.50115">
        <ele>1256.1</ele>
        <time>2016-10-31T14:54:41Z</time>
      </trkpt>
      <trkpt lat="42.83875" lon="1.50114">
        <ele>1256.1</ele>
        <time>2016-10-31T14:54:42Z</time>
      </trkpt>
      <trkpt lat="42.83876" lon="1.50112">
        <ele>1256.1</ele>
        <time>2016-10-31T14:54:43Z</time>
      </trkpt>
      <trkpt lat="42.83877" lon="1.50111">
        <ele>1256.1</ele>
        <time>2016-10-31T14:54:44Z</time>
      </trkpt>
      <trkpt lat="42.83876" lon="1.50085">
        <ele>1255.62</ele>
        <time>2016-10-31T14:54:58Z</time>
      </trkpt>
      <trkpt lat="42.83876" lon="1.50083">
        <ele>1255.62</ele>
        <time>2016-10-31T14:54:59Z</time>
      </trkpt>
      <trkpt lat="42.83876" lon="1.50081">
        <ele>1255.62</ele>
        <time>2016-10-31T14:55:00Z</time>
      </trkpt>
      <trkpt lat="42.83875" lon="1.50079">
        <ele>1255.62</ele>
        <time>2016-10-31T14:55:01Z</time>
      </trkpt>
      <trkpt lat="42.83874" lon="1.50077">
        <ele>1255.62</ele>
        <time>2016-10-31T14:55:02Z</time>
      </trkpt>
      <trkpt lat="42.83871" lon="1.50047">
        <ele>1255.62</ele>
        <time>2016-10-31T14:55:17Z</time>
      </trkpt>
      <trkpt lat="42.83871" lon="1.50035">
        <ele>1255.14</ele>
        <time>2016-10-31T14:55:23Z</time>
      </trkpt>
      <trkpt lat="42.83868" lon="1.50018">
        <ele>1253.7</ele>
        <time>2016-10-31T14:55:31Z</time>
      </trkpt>
      <trkpt lat="42.83868" lon="1.50016">
        <ele>1253.7</ele>
        <time>2016-10-31T14:55:32Z</time>
      </trkpt>
      <trkpt lat="42.83867" lon="1.50015">
        <ele>1253.7</ele>
        <time>2016-10-31T14:55:33Z</time>
      </trkpt>
      <trkpt lat="42.83866" lon="1.50014">
        <ele>1253.7</ele>
        <time>2016-10-31T14:55:34Z</time>
      </trkpt>
      <trkpt lat="42.83865" lon="1.50012">
        <ele>1253.22</ele>
        <time>2016-10-31T14:55:35Z</time>
      </trkpt>
      <trkpt lat="42.83865" lon="1.50011">
        <ele>1253.22</ele>
        <time>2016-10-31T14:55:36Z</time>
      </trkpt>
      <trkpt lat="42.83864" lon="1.50009">
        <ele>1253.22</ele>
        <time>2016-10-31T14:55:37Z</time>
      </trkpt>
      <trkpt lat="42.83863" lon="1.50007">
        <ele>1253.22</ele>
        <time>2016-10-31T14:55:38Z</time>
      </trkpt>
      <trkpt lat="42.83863" lon="1.50005">
        <ele>1253.22</ele>
        <time>2016-10-31T14:55:39Z</time>
      </trkpt>
      <trkpt lat="42.83863" lon="1.50003">
        <ele>1252.74</ele>
        <time>2016-10-31T14:55:40Z</time>
      </trkpt>
      <trkpt lat="42.83862" lon="1.50001">
        <ele>1252.74</ele>
        <time>2016-10-31T14:55:41Z</time>
      </trkpt>
      <trkpt lat="42.83862" lon="1.49999">
        <ele>1252.74</ele>
        <time>2016-10-31T14:55:42Z</time>
      </trkpt>
      <trkpt lat="42.83861" lon="1.49997">
        <ele>1252.74</ele>
        <time>2016-10-31T14:55:43Z</time>
      </trkpt>
      <trkpt lat="42.8386" lon="1.49996">
        <ele>1252.25</ele>
        <time>2016-10-31T14:55:44Z</time>
      </trkpt>
      <trkpt lat="42.83859" lon="1.49993">
        <ele>1252.25</ele>
        <time>2016-10-31T14:55:46Z</time>
      </trkpt>
      <trkpt lat="42.83858" lon="1.49991">
        <ele>1252.25</ele>
        <time>2016-10-31T14:55:47Z</time>
      </trkpt>
      <trkpt lat="42.83858" lon="1.49989">
        <ele>1251.29</ele>
        <time>2016-10-31T14:55:48Z</time>
      </trkpt>
      <trkpt lat="42.83857" lon="1.49987">
        <ele>1251.77</ele>
        <time>2016-10-31T14:55:49Z</time>
      </trkpt>
      <trkpt lat="42.83857" lon="1.49984">
        <ele>1251.77</ele>
        <time>2016-10-31T14:55:50Z</time>
      </trkpt>
      <trkpt lat="42.83856" lon="1.49982">
        <ele>1251.77</ele>
        <time>2016-10-31T14:55:51Z</time>
      </trkpt>
      <trkpt lat="42.83856" lon="1.4998">
        <ele>1250.81</ele>
        <time>2016-10-31T14:55:52Z</time>
      </trkpt>
      <trkpt lat="42.83856" lon="1.49978">
        <ele>1250.81</ele>
        <time>2016-10-31T14:55:53Z</time>
      </trkpt>
      <trkpt lat="42.83856" lon="1.49976">
        <ele>1250.81</ele>
        <time>2016-10-31T14:55:54Z</time>
      </trkpt>
      <trkpt lat="42.83856" lon="1.49974">
        <ele>1250.81</ele>
        <time>2016-10-31T14:55:55Z</time>
      </trkpt>
      <trkpt lat="42.83856" lon="1.49971">
        <ele>1250.33</ele>
        <time>2016-10-31T14:55:56Z</time>
      </trkpt>
      <trkpt lat="42.83855" lon="1.4996">
        <ele>1249.85</ele>
        <time>2016-10-31T14:56:01Z</time>
      </trkpt>
      <trkpt lat="42.83855" lon="1.49959">
        <ele>1249.85</ele>
        <time>2016-10-31T14:56:02Z</time>
      </trkpt>
      <trkpt lat="42.83856" lon="1.49957">
        <ele>1248.89</ele>
        <time>2016-10-31T14:56:03Z</time>
      </trkpt>
      <trkpt lat="42.83858" lon="1.49949">
        <ele>1248.89</ele>
        <time>2016-10-31T14:56:07Z</time>
      </trkpt>
      <trkpt lat="42.83861" lon="1.49943">
        <ele>1247.93</ele>
        <time>2016-10-31T14:56:10Z</time>
      </trkpt>
      <trkpt lat="42.83863" lon="1.49941">
        <ele>1247.93</ele>
        <time>2016-10-31T14:56:11Z</time>
      </trkpt>
      <trkpt lat="42.83864" lon="1.49939">
        <ele>1247.93</ele>
        <time>2016-10-31T14:56:12Z</time>
      </trkpt>
      <trkpt lat="42.83865" lon="1.49937">
        <ele>1247.45</ele>
        <time>2016-10-31T14:56:13Z</time>
      </trkpt>
      <trkpt lat="42.83869" lon="1.49924">
        <ele>1246.49</ele>
        <time>2016-10-31T14:56:22Z</time>
      </trkpt>
      <trkpt lat="42.8387" lon="1.49922">
        <ele>1246.49</ele>
        <time>2016-10-31T14:56:23Z</time>
      </trkpt>
      <trkpt lat="42.83871" lon="1.49921">
        <ele>1245.53</ele>
        <time>2016-10-31T14:56:24Z</time>
      </trkpt>
      <trkpt lat="42.83872" lon="1.4992">
        <ele>1246.01</ele>
        <time>2016-10-31T14:56:25Z</time>
      </trkpt>
      <trkpt lat="42.83873" lon="1.49919">
        <ele>1246.01</ele>
        <time>2016-10-31T14:56:26Z</time>
      </trkpt>
      <trkpt lat="42.83874" lon="1.49918">
        <ele>1245.04</ele>
        <time>2016-10-31T14:56:27Z</time>
      </trkpt>
      <trkpt lat="42.83875" lon="1.49917">
        <ele>1245.04</ele>
        <time>2016-10-31T14:56:28Z</time>
      </trkpt>
      <trkpt lat="42.83877" lon="1.49917">
        <ele>1245.04</ele>
        <time>2016-10-31T14:56:29Z</time>
      </trkpt>
      <trkpt lat="42.83879" lon="1.49915">
        <ele>1244.56</ele>
        <time>2016-10-31T14:56:31Z</time>
      </trkpt>
      <trkpt lat="42.8388" lon="1.49915">
        <ele>1244.56</ele>
        <time>2016-10-31T14:56:32Z</time>
      </trkpt>
      <trkpt lat="42.83882" lon="1.49915">
        <ele>1244.56</ele>
        <time>2016-10-31T14:56:33Z</time>
      </trkpt>
      <trkpt lat="42.83883" lon="1.49914">
        <ele>1244.56</ele>
        <time>2016-10-31T14:56:34Z</time>
      </trkpt>
      <trkpt lat="42.83885" lon="1.49913">
        <ele>1244.08</ele>
        <time>2016-10-31T14:56:35Z</time>
      </trkpt>
      <trkpt lat="42.83887" lon="1.49911">
        <ele>1244.08</ele>
        <time>2016-10-31T14:56:36Z</time>
      </trkpt>
      <trkpt lat="42.83888" lon="1.4991">
        <ele>1244.08</ele>
        <time>2016-10-31T14:56:37Z</time>
      </trkpt>
      <trkpt lat="42.83896" lon="1.499">
        <ele>1243.12</ele>
        <time>2016-10-31T14:56:43Z</time>
      </trkpt>
      <trkpt lat="42.83897" lon="1.49899">
        <ele>1242.16</ele>
        <time>2016-10-31T14:56:44Z</time>
      </trkpt>
      <trkpt lat="42.83898" lon="1.49898">
        <ele>1242.16</ele>
        <time>2016-10-31T14:56:45Z</time>
      </trkpt>
      <trkpt lat="42.83899" lon="1.49895">
        <ele>1242.16</ele>
        <time>2016-10-31T14:56:46Z</time>
      </trkpt>
      <trkpt lat="42.839" lon="1.49893">
        <ele>1241.68</ele>
        <time>2016-10-31T14:56:47Z</time>
      </trkpt>
      <trkpt lat="42.83901" lon="1.49891">
        <ele>1241.68</ele>
        <time>2016-10-31T14:56:48Z</time>
      </trkpt>
      <trkpt lat="42.83903" lon="1.4989">
        <ele>1241.68</ele>
        <time>2016-10-31T14:56:49Z</time>
      </trkpt>
      <trkpt lat="42.83904" lon="1.49888">
        <ele>1241.2</ele>
        <time>2016-10-31T14:56:50Z</time>
      </trkpt>
      <trkpt lat="42.83905" lon="1.49886">
        <ele>1241.2</ele>
        <time>2016-10-31T14:56:51Z</time>
      </trkpt>
      <trkpt lat="42.83906" lon="1.49884">
        <ele>1241.2</ele>
        <time>2016-10-31T14:56:52Z</time>
      </trkpt>
      <trkpt lat="42.83908" lon="1.49875">
        <ele>1239.76</ele>
        <time>2016-10-31T14:56:57Z</time>
      </trkpt>
      <trkpt lat="42.83909" lon="1.49873">
        <ele>1240.24</ele>
        <time>2016-10-31T14:56:58Z</time>
      </trkpt>
      <trkpt lat="42.83909" lon="1.49871">
        <ele>1240.24</ele>
        <time>2016-10-31T14:56:59Z</time>
      </trkpt>
      <trkpt lat="42.8391" lon="1.49869">
        <ele>1239.76</ele>
        <time>2016-10-31T14:57:00Z</time>
      </trkpt>
      <trkpt lat="42.83911" lon="1.49868">
        <ele>1239.76</ele>
        <time>2016-10-31T14:57:01Z</time>
      </trkpt>
      <trkpt lat="42.83917" lon="1.49864">
        <ele>1239.28</ele>
        <time>2016-10-31T14:57:04Z</time>
      </trkpt>
      <trkpt lat="42.83918" lon="1.49863">
        <ele>1239.28</ele>
        <time>2016-10-31T14:57:05Z</time>
      </trkpt>
      <trkpt lat="42.83919" lon="1.49861">
        <ele>1238.8</ele>
        <time>2016-10-31T14:57:06Z</time>
      </trkpt>
      <trkpt lat="42.83922" lon="1.49852">
        <ele>1238.32</ele>
        <time>2016-10-31T14:57:11Z</time>
      </trkpt>
      <trkpt lat="42.83924" lon="1.49848">
        <ele>1238.32</ele>
        <time>2016-10-31T14:57:13Z</time>
      </trkpt>
      <trkpt lat="42.83925" lon="1.49846">
        <ele>1238.32</ele>
        <time>2016-10-31T14:57:14Z</time>
      </trkpt>
      <trkpt lat="42.83925" lon="1.49844">
        <ele>1238.32</ele>
        <time>2016-10-31T14:57:15Z</time>
      </trkpt>
      <trkpt lat="42.83928" lon="1.49834">
        <ele>1237.83</ele>
        <time>2016-10-31T14:57:20Z</time>
      </trkpt>
      <trkpt lat="42.83929" lon="1.49832">
        <ele>1237.83</ele>
        <time>2016-10-31T14:57:21Z</time>
      </trkpt>
      <trkpt lat="42.83929" lon="1.4983">
        <ele>1237.83</ele>
        <time>2016-10-31T14:57:22Z</time>
      </trkpt>
      <trkpt lat="42.83929" lon="1.49828">
        <ele>1237.35</ele>
        <time>2016-10-31T14:57:23Z</time>
      </trkpt>
      <trkpt lat="42.83929" lon="1.49826">
        <ele>1237.35</ele>
        <time>2016-10-31T14:57:24Z</time>
      </trkpt>
      <trkpt lat="42.8393" lon="1.49824">
        <ele>1237.35</ele>
        <time>2016-10-31T14:57:25Z</time>
      </trkpt>
      <trkpt lat="42.8393" lon="1.49822">
        <ele>1237.35</ele>
        <time>2016-10-31T14:57:26Z</time>
      </trkpt>
      <trkpt lat="42.8393" lon="1.49811">
        <ele>1237.35</ele>
        <time>2016-10-31T14:57:31Z</time>
      </trkpt>
      <trkpt lat="42.83931" lon="1.49809">
        <ele>1237.35</ele>
        <time>2016-10-31T14:57:32Z</time>
      </trkpt>
      <trkpt lat="42.83931" lon="1.49808">
        <ele>1237.35</ele>
        <time>2016-10-31T14:57:33Z</time>
      </trkpt>
      <trkpt lat="42.83932" lon="1.49806">
        <ele>1237.35</ele>
        <time>2016-10-31T14:57:34Z</time>
      </trkpt>
      <trkpt lat="42.83935" lon="1.49797">
        <ele>1237.35</ele>
        <time>2016-10-31T14:57:39Z</time>
      </trkpt>
      <trkpt lat="42.83937" lon="1.49791">
        <ele>1237.35</ele>
        <time>2016-10-31T14:57:43Z</time>
      </trkpt>
      <trkpt lat="42.83937" lon="1.4979">
        <ele>1237.35</ele>
        <time>2016-10-31T14:57:44Z</time>
      </trkpt>
      <trkpt lat="42.83947" lon="1.49776">
        <ele>1236.87</ele>
        <time>2016-10-31T14:57:56Z</time>
      </trkpt>
      <trkpt lat="42.8395" lon="1.49774">
        <ele>1236.87</ele>
        <time>2016-10-31T14:57:58Z</time>
      </trkpt>
      <trkpt lat="42.83952" lon="1.49773">
        <ele>1236.87</ele>
        <time>2016-10-31T14:57:59Z</time>
      </trkpt>
      <trkpt lat="42.83954" lon="1.49772">
        <ele>1236.87</ele>
        <time>2016-10-31T14:58:00Z</time>
      </trkpt>
      <trkpt lat="42.83964" lon="1.49768">
        <ele>1236.87</ele>
        <time>2016-10-31T14:58:05Z</time>
      </trkpt>
      <trkpt lat="42.83967" lon="1.49765">
        <ele>1236.87</ele>
        <time>2016-10-31T14:58:07Z</time>
      </trkpt>
      <trkpt lat="42.83968" lon="1.49764">
        <ele>1236.87</ele>
        <time>2016-10-31T14:58:08Z</time>
      </trkpt>
      <trkpt lat="42.83968" lon="1.49762">
        <ele>1236.87</ele>
        <time>2016-10-31T14:58:09Z</time>
      </trkpt>
      <trkpt lat="42.8397" lon="1.49761">
        <ele>1236.87</ele>
        <time>2016-10-31T14:58:10Z</time>
      </trkpt>
      <trkpt lat="42.83972" lon="1.49759">
        <ele>1236.87</ele>
        <time>2016-10-31T14:58:11Z</time>
      </trkpt>
      <trkpt lat="42.83973" lon="1.49757">
        <ele>1236.87</ele>
        <time>2016-10-31T14:58:12Z</time>
      </trkpt>
      <trkpt lat="42.83974" lon="1.49755">
        <ele>1236.87</ele>
        <time>2016-10-31T14:58:13Z</time>
      </trkpt>
      <trkpt lat="42.83974" lon="1.49753">
        <ele>1236.87</ele>
        <time>2016-10-31T14:58:14Z</time>
      </trkpt>
      <trkpt lat="42.83975" lon="1.49751">
        <ele>1236.87</ele>
        <time>2016-10-31T14:58:15Z</time>
      </trkpt>
      <trkpt lat="42.83975" lon="1.4975">
        <ele>1236.87</ele>
        <time>2016-10-31T14:58:16Z</time>
      </trkpt>
      <trkpt lat="42.83976" lon="1.49748">
        <ele>1236.87</ele>
        <time>2016-10-31T14:58:17Z</time>
      </trkpt>
      <trkpt lat="42.83976" lon="1.49746">
        <ele>1236.87</ele>
        <time>2016-10-31T14:58:18Z</time>
      </trkpt>
      <trkpt lat="42.83978" lon="1.49741">
        <ele>1237.83</ele>
        <time>2016-10-31T14:58:22Z</time>
      </trkpt>
      <trkpt lat="42.83979" lon="1.49739">
        <ele>1237.83</ele>
        <time>2016-10-31T14:58:23Z</time>
      </trkpt>
      <trkpt lat="42.8398" lon="1.49737">
        <ele>1237.83</ele>
        <time>2016-10-31T14:58:24Z</time>
      </trkpt>
      <trkpt lat="42.83983" lon="1.49718">
        <ele>1238.32</ele>
        <time>2016-10-31T14:58:34Z</time>
      </trkpt>
      <trkpt lat="42.83984" lon="1.49716">
        <ele>1238.32</ele>
        <time>2016-10-31T14:58:35Z</time>
      </trkpt>
      <trkpt lat="42.83985" lon="1.49714">
        <ele>1238.32</ele>
        <time>2016-10-31T14:58:36Z</time>
      </trkpt>
      <trkpt lat="42.83985" lon="1.49712">
        <ele>1238.32</ele>
        <time>2016-10-31T14:58:37Z</time>
      </trkpt>
      <trkpt lat="42.83987" lon="1.49702">
        <ele>1238.8</ele>
        <time>2016-10-31T14:58:43Z</time>
      </trkpt>
      <trkpt lat="42.83987" lon="1.497">
        <ele>1238.8</ele>
        <time>2016-10-31T14:58:44Z</time>
      </trkpt>
      <trkpt lat="42.83987" lon="1.49697">
        <ele>1238.8</ele>
        <time>2016-10-31T14:58:45Z</time>
      </trkpt>
      <trkpt lat="42.83986" lon="1.49695">
        <ele>1238.8</ele>
        <time>2016-10-31T14:58:46Z</time>
      </trkpt>
      <trkpt lat="42.83985" lon="1.49692">
        <ele>1238.8</ele>
        <time>2016-10-31T14:58:47Z</time>
      </trkpt>
      <trkpt lat="42.83985" lon="1.4969">
        <ele>1238.8</ele>
        <time>2016-10-31T14:58:48Z</time>
      </trkpt>
      <trkpt lat="42.83986" lon="1.49689">
        <ele>1238.8</ele>
        <time>2016-10-31T14:58:49Z</time>
      </trkpt>
      <trkpt lat="42.83986" lon="1.49687">
        <ele>1239.28</ele>
        <time>2016-10-31T14:58:50Z</time>
      </trkpt>
      <trkpt lat="42.83987" lon="1.49685">
        <ele>1239.28</ele>
        <time>2016-10-31T14:58:51Z</time>
      </trkpt>
      <trkpt lat="42.83987" lon="1.49682">
        <ele>1239.28</ele>
        <time>2016-10-31T14:58:53Z</time>
      </trkpt>
      <trkpt lat="42.8399" lon="1.49676">
        <ele>1239.28</ele>
        <time>2016-10-31T14:58:57Z</time>
      </trkpt>
      <trkpt lat="42.83992" lon="1.49673">
        <ele>1239.76</ele>
        <time>2016-10-31T14:58:59Z</time>
      </trkpt>
      <trkpt lat="42.83992" lon="1.49671">
        <ele>1239.76</ele>
        <time>2016-10-31T14:59:00Z</time>
      </trkpt>
      <trkpt lat="42.83992" lon="1.4967">
        <ele>1239.76</ele>
        <time>2016-10-31T14:59:01Z</time>
      </trkpt>
      <trkpt lat="42.83994" lon="1.49668">
        <ele>1239.76</ele>
        <time>2016-10-31T14:59:03Z</time>
      </trkpt>
      <trkpt lat="42.83995" lon="1.49666">
        <ele>1239.76</ele>
        <time>2016-10-31T14:59:04Z</time>
      </trkpt>
      <trkpt lat="42.83996" lon="1.49664">
        <ele>1239.76</ele>
        <time>2016-10-31T14:59:05Z</time>
      </trkpt>
      <trkpt lat="42.83997" lon="1.49662">
        <ele>1240.24</ele>
        <time>2016-10-31T14:59:06Z</time>
      </trkpt>
      <trkpt lat="42.83998" lon="1.4966">
        <ele>1240.24</ele>
        <time>2016-10-31T14:59:07Z</time>
      </trkpt>
      <trkpt lat="42.83998" lon="1.49659">
        <ele>1240.24</ele>
        <time>2016-10-31T14:59:08Z</time>
      </trkpt>
      <trkpt lat="42.83999" lon="1.49657">
        <ele>1240.24</ele>
        <time>2016-10-31T14:59:09Z</time>
      </trkpt>
      <trkpt lat="42.84001" lon="1.49655">
        <ele>1240.24</ele>
        <time>2016-10-31T14:59:11Z</time>
      </trkpt>
      <trkpt lat="42.84002" lon="1.49654">
        <ele>1240.24</ele>
        <time>2016-10-31T14:59:12Z</time>
      </trkpt>
      <trkpt lat="42.84003" lon="1.49651">
        <ele>1240.24</ele>
        <time>2016-10-31T14:59:13Z</time>
      </trkpt>
      <trkpt lat="42.84003" lon="1.49634">
        <ele>1240.72</ele>
        <time>2016-10-31T14:59:22Z</time>
      </trkpt>
      <trkpt lat="42.84004" lon="1.49633">
        <ele>1240.72</ele>
        <time>2016-10-31T14:59:23Z</time>
      </trkpt>
      <trkpt lat="42.84004" lon="1.4963">
        <ele>1240.72</ele>
        <time>2016-10-31T14:59:24Z</time>
      </trkpt>
      <trkpt lat="42.84004" lon="1.49627">
        <ele>1240.72</ele>
        <time>2016-10-31T14:59:26Z</time>
      </trkpt>
      <trkpt lat="42.84004" lon="1.49625">
        <ele>1240.72</ele>
        <time>2016-10-31T14:59:27Z</time>
      </trkpt>
      <trkpt lat="42.84004" lon="1.49623">
        <ele>1240.72</ele>
        <time>2016-10-31T14:59:28Z</time>
      </trkpt>
      <trkpt lat="42.84003" lon="1.49621">
        <ele>1240.72</ele>
        <time>2016-10-31T14:59:29Z</time>
      </trkpt>
      <trkpt lat="42.84002" lon="1.49619">
        <ele>1240.72</ele>
        <time>2016-10-31T14:59:30Z</time>
      </trkpt>
      <trkpt lat="42.84002" lon="1.49611">
        <ele>1240.72</ele>
        <time>2016-10-31T14:59:35Z</time>
      </trkpt>
      <trkpt lat="42.84002" lon="1.49609">
        <ele>1240.72</ele>
        <time>2016-10-31T14:59:36Z</time>
      </trkpt>
      <trkpt lat="42.84002" lon="1.49606">
        <ele>1240.72</ele>
        <time>2016-10-31T14:59:37Z</time>
      </trkpt>
      <trkpt lat="42.84008" lon="1.49589">
        <ele>1240.72</ele>
        <time>2016-10-31T14:59:47Z</time>
      </trkpt>
      <trkpt lat="42.84011" lon="1.49587">
        <ele>1240.72</ele>
        <time>2016-10-31T14:59:53Z</time>
      </trkpt>
      <trkpt lat="42.84014" lon="1.49582">
        <ele>1240.72</ele>
        <time>2016-10-31T14:59:58Z</time>
      </trkpt>
      <trkpt lat="42.84014" lon="1.4958">
        <ele>1240.72</ele>
        <time>2016-10-31T14:59:59Z</time>
      </trkpt>
      <trkpt lat="42.84014" lon="1.49574">
        <ele>1240.72</ele>
        <time>2016-10-31T15:00:04Z</time>
      </trkpt>
      <trkpt lat="42.84023" lon="1.49568">
        <ele>1240.72</ele>
        <time>2016-10-31T15:00:10Z</time>
      </trkpt>
      <trkpt lat="42.84035" lon="1.49561">
        <ele>1240.72</ele>
        <time>2016-10-31T15:00:17Z</time>
      </trkpt>
      <trkpt lat="42.84037" lon="1.49559">
        <ele>1240.72</ele>
        <time>2016-10-31T15:00:18Z</time>
      </trkpt>
      <trkpt lat="42.84039" lon="1.49558">
        <ele>1240.72</ele>
        <time>2016-10-31T15:00:19Z</time>
      </trkpt>
      <trkpt lat="42.84041" lon="1.49557">
        <ele>1239.28</ele>
        <time>2016-10-31T15:00:20Z</time>
      </trkpt>
      <trkpt lat="42.84043" lon="1.49556">
        <ele>1239.28</ele>
        <time>2016-10-31T15:00:21Z</time>
      </trkpt>
      <trkpt lat="42.84053" lon="1.49551">
        <ele>1239.28</ele>
        <time>2016-10-31T15:00:25Z</time>
      </trkpt>
      <trkpt lat="42.84054" lon="1.49549">
        <ele>1239.28</ele>
        <time>2016-10-31T15:00:26Z</time>
      </trkpt>
      <trkpt lat="42.84055" lon="1.49548">
        <ele>1239.28</ele>
        <time>2016-10-31T15:00:27Z</time>
      </trkpt>
      <trkpt lat="42.84055" lon="1.49546">
        <ele>1238.32</ele>
        <time>2016-10-31T15:00:28Z</time>
      </trkpt>
      <trkpt lat="42.84055" lon="1.49544">
        <ele>1238.32</ele>
        <time>2016-10-31T15:00:29Z</time>
      </trkpt>
      <trkpt lat="42.84055" lon="1.49542">
        <ele>1238.32</ele>
        <time>2016-10-31T15:00:30Z</time>
      </trkpt>
      <trkpt lat="42.84054" lon="1.49539">
        <ele>1237.83</ele>
        <time>2016-10-31T15:00:31Z</time>
      </trkpt>
      <trkpt lat="42.84053" lon="1.49537">
        <ele>1237.83</ele>
        <time>2016-10-31T15:00:32Z</time>
      </trkpt>
      <trkpt lat="42.84054" lon="1.49535">
        <ele>1237.83</ele>
        <time>2016-10-31T15:00:33Z</time>
      </trkpt>
      <trkpt lat="42.84056" lon="1.49526">
        <ele>1237.35</ele>
        <time>2016-10-31T15:00:37Z</time>
      </trkpt>
      <trkpt lat="42.84056" lon="1.49524">
        <ele>1236.87</ele>
        <time>2016-10-31T15:00:38Z</time>
      </trkpt>
      <trkpt lat="42.84056" lon="1.49521">
        <ele>1236.87</ele>
        <time>2016-10-31T15:00:39Z</time>
      </trkpt>
      <trkpt lat="42.84058" lon="1.49519">
        <ele>1236.87</ele>
        <time>2016-10-31T15:00:40Z</time>
      </trkpt>
      <trkpt lat="42.8406" lon="1.49518">
        <ele>1236.87</ele>
        <time>2016-10-31T15:00:41Z</time>
      </trkpt>
      <trkpt lat="42.84061" lon="1.49516">
        <ele>1236.39</ele>
        <time>2016-10-31T15:00:42Z</time>
      </trkpt>
      <trkpt lat="42.84061" lon="1.49514">
        <ele>1236.39</ele>
        <time>2016-10-31T15:00:43Z</time>
      </trkpt>
      <trkpt lat="42.8406" lon="1.49512">
        <ele>1236.39</ele>
        <time>2016-10-31T15:00:44Z</time>
      </trkpt>
      <trkpt lat="42.8406" lon="1.49509">
        <ele>1235.91</ele>
        <time>2016-10-31T15:00:45Z</time>
      </trkpt>
      <trkpt lat="42.84059" lon="1.49507">
        <ele>1235.91</ele>
        <time>2016-10-31T15:00:46Z</time>
      </trkpt>
      <trkpt lat="42.84059" lon="1.49506">
        <ele>1235.91</ele>
        <time>2016-10-31T15:00:47Z</time>
      </trkpt>
      <trkpt lat="42.84059" lon="1.49503">
        <ele>1235.91</ele>
        <time>2016-10-31T15:00:48Z</time>
      </trkpt>
      <trkpt lat="42.84059" lon="1.49501">
        <ele>1235.91</ele>
        <time>2016-10-31T15:00:49Z</time>
      </trkpt>
      <trkpt lat="42.84059" lon="1.49499">
        <ele>1235.91</ele>
        <time>2016-10-31T15:00:50Z</time>
      </trkpt>
      <trkpt lat="42.8406" lon="1.49497">
        <ele>1235.91</ele>
        <time>2016-10-31T15:00:51Z</time>
      </trkpt>
      <trkpt lat="42.8406" lon="1.49495">
        <ele>1235.91</ele>
        <time>2016-10-31T15:00:52Z</time>
      </trkpt>
      <trkpt lat="42.8406" lon="1.49494">
        <ele>1235.91</ele>
        <time>2016-10-31T15:00:53Z</time>
      </trkpt>
      <trkpt lat="42.8406" lon="1.49492">
        <ele>1235.91</ele>
        <time>2016-10-31T15:00:54Z</time>
      </trkpt>
      <trkpt lat="42.8406" lon="1.4949">
        <ele>1235.91</ele>
        <time>2016-10-31T15:00:55Z</time>
      </trkpt>
      <trkpt lat="42.84059" lon="1.49488">
        <ele>1235.91</ele>
        <time>2016-10-31T15:00:56Z</time>
      </trkpt>
      <trkpt lat="42.84058" lon="1.49484">
        <ele>1235.91</ele>
        <time>2016-10-31T15:00:58Z</time>
      </trkpt>
      <trkpt lat="42.84058" lon="1.49482">
        <ele>1235.91</ele>
        <time>2016-10-31T15:00:59Z</time>
      </trkpt>
      <trkpt lat="42.84059" lon="1.4948">
        <ele>1235.91</ele>
        <time>2016-10-31T15:01:00Z</time>
      </trkpt>
      <trkpt lat="42.84059" lon="1.49477">
        <ele>1235.91</ele>
        <time>2016-10-31T15:01:02Z</time>
      </trkpt>
      <trkpt lat="42.84059" lon="1.49476">
        <ele>1235.91</ele>
        <time>2016-10-31T15:01:03Z</time>
      </trkpt>
      <trkpt lat="42.84059" lon="1.49474">
        <ele>1235.91</ele>
        <time>2016-10-31T15:01:04Z</time>
      </trkpt>
      <trkpt lat="42.84059" lon="1.49472">
        <ele>1235.91</ele>
        <time>2016-10-31T15:01:05Z</time>
      </trkpt>
      <trkpt lat="42.84059" lon="1.4946">
        <ele>1235.91</ele>
        <time>2016-10-31T15:01:12Z</time>
      </trkpt>
      <trkpt lat="42.8406" lon="1.49459">
        <ele>1235.91</ele>
        <time>2016-10-31T15:01:13Z</time>
      </trkpt>
      <trkpt lat="42.8406" lon="1.49457">
        <ele>1235.91</ele>
        <time>2016-10-31T15:01:14Z</time>
      </trkpt>
      <trkpt lat="42.8406" lon="1.49455">
        <ele>1236.87</ele>
        <time>2016-10-31T15:01:15Z</time>
      </trkpt>
      <trkpt lat="42.84061" lon="1.49453">
        <ele>1236.87</ele>
        <time>2016-10-31T15:01:16Z</time>
      </trkpt>
      <trkpt lat="42.84061" lon="1.49451">
        <ele>1236.87</ele>
        <time>2016-10-31T15:01:17Z</time>
      </trkpt>
      <trkpt lat="42.8406" lon="1.4944">
        <ele>1237.35</ele>
        <time>2016-10-31T15:01:22Z</time>
      </trkpt>
      <trkpt lat="42.84059" lon="1.49436">
        <ele>1237.83</ele>
        <time>2016-10-31T15:01:24Z</time>
      </trkpt>
      <trkpt lat="42.84059" lon="1.49434">
        <ele>1237.83</ele>
        <time>2016-10-31T15:01:25Z</time>
      </trkpt>
      <trkpt lat="42.8406" lon="1.49432">
        <ele>1237.83</ele>
        <time>2016-10-31T15:01:26Z</time>
      </trkpt>
      <trkpt lat="42.8406" lon="1.4943">
        <ele>1237.83</ele>
        <time>2016-10-31T15:01:27Z</time>
      </trkpt>
      <trkpt lat="42.8406" lon="1.49428">
        <ele>1237.83</ele>
        <time>2016-10-31T15:01:28Z</time>
      </trkpt>
      <trkpt lat="42.8406" lon="1.49426">
        <ele>1237.83</ele>
        <time>2016-10-31T15:01:29Z</time>
      </trkpt>
      <trkpt lat="42.8406" lon="1.49424">
        <ele>1237.83</ele>
        <time>2016-10-31T15:01:30Z</time>
      </trkpt>
      <trkpt lat="42.8406" lon="1.49422">
        <ele>1237.83</ele>
        <time>2016-10-31T15:01:31Z</time>
      </trkpt>
      <trkpt lat="42.8406" lon="1.4942">
        <ele>1238.32</ele>
        <time>2016-10-31T15:01:32Z</time>
      </trkpt>
      <trkpt lat="42.8406" lon="1.49418">
        <ele>1238.32</ele>
        <time>2016-10-31T15:01:33Z</time>
      </trkpt>
      <trkpt lat="42.84059" lon="1.49416">
        <ele>1238.32</ele>
        <time>2016-10-31T15:01:34Z</time>
      </trkpt>
      <trkpt lat="42.84059" lon="1.49414">
        <ele>1238.32</ele>
        <time>2016-10-31T15:01:35Z</time>
      </trkpt>
      <trkpt lat="42.84058" lon="1.49409">
        <ele>1238.32</ele>
        <time>2016-10-31T15:01:38Z</time>
      </trkpt>
      <trkpt lat="42.84058" lon="1.49406">
        <ele>1238.32</ele>
        <time>2016-10-31T15:01:39Z</time>
      </trkpt>
      <trkpt lat="42.84058" lon="1.494">
        <ele>1238.8</ele>
        <time>2016-10-31T15:01:42Z</time>
      </trkpt>
      <trkpt lat="42.84058" lon="1.49397">
        <ele>1238.8</ele>
        <time>2016-10-31T15:01:43Z</time>
      </trkpt>
      <trkpt lat="42.84057" lon="1.49395">
        <ele>1238.8</ele>
        <time>2016-10-31T15:01:44Z</time>
      </trkpt>
      <trkpt lat="42.84056" lon="1.49391">
        <ele>1238.8</ele>
        <time>2016-10-31T15:01:46Z</time>
      </trkpt>
      <trkpt lat="42.84056" lon="1.49388">
        <ele>1238.8</ele>
        <time>2016-10-31T15:01:47Z</time>
      </trkpt>
      <trkpt lat="42.84055" lon="1.49385">
        <ele>1238.8</ele>
        <time>2016-10-31T15:01:48Z</time>
      </trkpt>
      <trkpt lat="42.84055" lon="1.49384">
        <ele>1238.8</ele>
        <time>2016-10-31T15:01:49Z</time>
      </trkpt>
      <trkpt lat="42.84055" lon="1.49382">
        <ele>1238.8</ele>
        <time>2016-10-31T15:01:50Z</time>
      </trkpt>
      <trkpt lat="42.84055" lon="1.49381">
        <ele>1239.28</ele>
        <time>2016-10-31T15:01:51Z</time>
      </trkpt>
      <trkpt lat="42.84055" lon="1.49379">
        <ele>1239.28</ele>
        <time>2016-10-31T15:01:52Z</time>
      </trkpt>
      <trkpt lat="42.84055" lon="1.49377">
        <ele>1239.28</ele>
        <time>2016-10-31T15:01:53Z</time>
      </trkpt>
      <trkpt lat="42.84055" lon="1.49374">
        <ele>1239.28</ele>
        <time>2016-10-31T15:01:54Z</time>
      </trkpt>
      <trkpt lat="42.84055" lon="1.49372">
        <ele>1239.28</ele>
        <time>2016-10-31T15:01:55Z</time>
      </trkpt>
      <trkpt lat="42.84055" lon="1.4937">
        <ele>1239.28</ele>
        <time>2016-10-31T15:01:56Z</time>
      </trkpt>
      <trkpt lat="42.84055" lon="1.49368">
        <ele>1239.28</ele>
        <time>2016-10-31T15:01:57Z</time>
      </trkpt>
      <trkpt lat="42.84055" lon="1.49366">
        <ele>1239.28</ele>
        <time>2016-10-31T15:01:58Z</time>
      </trkpt>
      <trkpt lat="42.8405" lon="1.4935">
        <ele>1239.76</ele>
        <time>2016-10-31T15:02:07Z</time>
      </trkpt>
      <trkpt lat="42.8405" lon="1.49348">
        <ele>1239.76</ele>
        <time>2016-10-31T15:02:08Z</time>
      </trkpt>
      <trkpt lat="42.84049" lon="1.49346">
        <ele>1239.76</ele>
        <time>2016-10-31T15:02:09Z</time>
      </trkpt>
      <trkpt lat="42.84049" lon="1.49344">
        <ele>1239.76</ele>
        <time>2016-10-31T15:02:10Z</time>
      </trkpt>
      <trkpt lat="42.84049" lon="1.49342">
        <ele>1239.76</ele>
        <time>2016-10-31T15:02:11Z</time>
      </trkpt>
      <trkpt lat="42.84049" lon="1.4934">
        <ele>1240.24</ele>
        <time>2016-10-31T15:02:12Z</time>
      </trkpt>
      <trkpt lat="42.84048" lon="1.49338">
        <ele>1240.24</ele>
        <time>2016-10-31T15:02:13Z</time>
      </trkpt>
      <trkpt lat="42.84048" lon="1.49336">
        <ele>1240.24</ele>
        <time>2016-10-31T15:02:14Z</time>
      </trkpt>
      <trkpt lat="42.84048" lon="1.49334">
        <ele>1240.24</ele>
        <time>2016-10-31T15:02:15Z</time>
      </trkpt>
      <trkpt lat="42.84047" lon="1.49332">
        <ele>1240.24</ele>
        <time>2016-10-31T15:02:16Z</time>
      </trkpt>
      <trkpt lat="42.84046" lon="1.4933">
        <ele>1240.24</ele>
        <time>2016-10-31T15:02:17Z</time>
      </trkpt>
      <trkpt lat="42.84045" lon="1.49328">
        <ele>1240.24</ele>
        <time>2016-10-31T15:02:18Z</time>
      </trkpt>
      <trkpt lat="42.84044" lon="1.49327">
        <ele>1240.24</ele>
        <time>2016-10-31T15:02:19Z</time>
      </trkpt>
      <trkpt lat="42.84044" lon="1.49326">
        <ele>1240.24</ele>
        <time>2016-10-31T15:02:20Z</time>
      </trkpt>
      <trkpt lat="42.84043" lon="1.49325">
        <ele>1240.24</ele>
        <time>2016-10-31T15:02:21Z</time>
      </trkpt>
      <trkpt lat="42.84042" lon="1.49323">
        <ele>1240.24</ele>
        <time>2016-10-31T15:02:22Z</time>
      </trkpt>
      <trkpt lat="42.84042" lon="1.49321">
        <ele>1240.72</ele>
        <time>2016-10-31T15:02:23Z</time>
      </trkpt>
      <trkpt lat="42.84042" lon="1.49318">
        <ele>1240.72</ele>
        <time>2016-10-31T15:02:24Z</time>
      </trkpt>
      <trkpt lat="42.84039" lon="1.49313">
        <ele>1240.72</ele>
        <time>2016-10-31T15:02:27Z</time>
      </trkpt>
      <trkpt lat="42.84039" lon="1.49311">
        <ele>1240.72</ele>
        <time>2016-10-31T15:02:28Z</time>
      </trkpt>
      <trkpt lat="42.84038" lon="1.49309">
        <ele>1240.72</ele>
        <time>2016-10-31T15:02:29Z</time>
      </trkpt>
      <trkpt lat="42.84038" lon="1.49307">
        <ele>1240.72</ele>
        <time>2016-10-31T15:02:30Z</time>
      </trkpt>
      <trkpt lat="42.84037" lon="1.49304">
        <ele>1240.72</ele>
        <time>2016-10-31T15:02:31Z</time>
      </trkpt>
      <trkpt lat="42.84037" lon="1.49302">
        <ele>1240.72</ele>
        <time>2016-10-31T15:02:32Z</time>
      </trkpt>
      <trkpt lat="42.84036" lon="1.493">
        <ele>1240.24</ele>
        <time>2016-10-31T15:02:33Z</time>
      </trkpt>
      <trkpt lat="42.84035" lon="1.49298">
        <ele>1240.24</ele>
        <time>2016-10-31T15:02:34Z</time>
      </trkpt>
      <trkpt lat="42.84035" lon="1.49295">
        <ele>1240.24</ele>
        <time>2016-10-31T15:02:35Z</time>
      </trkpt>
      <trkpt lat="42.84034" lon="1.49293">
        <ele>1240.24</ele>
        <time>2016-10-31T15:02:36Z</time>
      </trkpt>
      <trkpt lat="42.84033" lon="1.49291">
        <ele>1240.24</ele>
        <time>2016-10-31T15:02:37Z</time>
      </trkpt>
      <trkpt lat="42.84032" lon="1.49289">
        <ele>1240.24</ele>
        <time>2016-10-31T15:02:38Z</time>
      </trkpt>
      <trkpt lat="42.84031" lon="1.49288">
        <ele>1240.24</ele>
        <time>2016-10-31T15:02:39Z</time>
      </trkpt>
      <trkpt lat="42.8403" lon="1.49287">
        <ele>1240.24</ele>
        <time>2016-10-31T15:02:40Z</time>
      </trkpt>
      <trkpt lat="42.8403" lon="1.49285">
        <ele>1240.24</ele>
        <time>2016-10-31T15:02:41Z</time>
      </trkpt>
      <trkpt lat="42.84029" lon="1.49282">
        <ele>1240.24</ele>
        <time>2016-10-31T15:02:42Z</time>
      </trkpt>
      <trkpt lat="42.84029" lon="1.4928">
        <ele>1240.24</ele>
        <time>2016-10-31T15:02:43Z</time>
      </trkpt>
      <trkpt lat="42.84029" lon="1.49277">
        <ele>1240.24</ele>
        <time>2016-10-31T15:02:44Z</time>
      </trkpt>
      <trkpt lat="42.84029" lon="1.49274">
        <ele>1239.28</ele>
        <time>2016-10-31T15:02:45Z</time>
      </trkpt>
      <trkpt lat="42.84028" lon="1.49272">
        <ele>1239.28</ele>
        <time>2016-10-31T15:02:46Z</time>
      </trkpt>
      <trkpt lat="42.84025" lon="1.49258">
        <ele>1239.28</ele>
        <time>2016-10-31T15:02:53Z</time>
      </trkpt>
      <trkpt lat="42.84025" lon="1.49256">
        <ele>1239.28</ele>
        <time>2016-10-31T15:02:54Z</time>
      </trkpt>
      <trkpt lat="42.84024" lon="1.49253">
        <ele>1238.32</ele>
        <time>2016-10-31T15:02:55Z</time>
      </trkpt>
      <trkpt lat="42.84024" lon="1.49251">
        <ele>1238.32</ele>
        <time>2016-10-31T15:02:56Z</time>
      </trkpt>
      <trkpt lat="42.84023" lon="1.49248">
        <ele>1238.32</ele>
        <time>2016-10-31T15:02:57Z</time>
      </trkpt>
      <trkpt lat="42.84022" lon="1.49246">
        <ele>1238.32</ele>
        <time>2016-10-31T15:02:58Z</time>
      </trkpt>
      <trkpt lat="42.84021" lon="1.49244">
        <ele>1238.32</ele>
        <time>2016-10-31T15:02:59Z</time>
      </trkpt>
      <trkpt lat="42.8402" lon="1.49243">
        <ele>1237.83</ele>
        <time>2016-10-31T15:03:00Z</time>
      </trkpt>
      <trkpt lat="42.84019" lon="1.49242">
        <ele>1237.83</ele>
        <time>2016-10-31T15:03:01Z</time>
      </trkpt>
      <trkpt lat="42.84018" lon="1.49241">
        <ele>1237.83</ele>
        <time>2016-10-31T15:03:02Z</time>
      </trkpt>
      <trkpt lat="42.84018" lon="1.49239">
        <ele>1237.83</ele>
        <time>2016-10-31T15:03:03Z</time>
      </trkpt>
      <trkpt lat="42.84017" lon="1.49237">
        <ele>1237.83</ele>
        <time>2016-10-31T15:03:04Z</time>
      </trkpt>
      <trkpt lat="42.84016" lon="1.49235">
        <ele>1237.83</ele>
        <time>2016-10-31T15:03:05Z</time>
      </trkpt>
      <trkpt lat="42.84015" lon="1.49233">
        <ele>1237.83</ele>
        <time>2016-10-31T15:03:06Z</time>
      </trkpt>
      <trkpt lat="42.84014" lon="1.49231">
        <ele>1237.83</ele>
        <time>2016-10-31T15:03:07Z</time>
      </trkpt>
      <trkpt lat="42.84013" lon="1.49229">
        <ele>1237.83</ele>
        <time>2016-10-31T15:03:08Z</time>
      </trkpt>
      <trkpt lat="42.84012" lon="1.49227">
        <ele>1237.83</ele>
        <time>2016-10-31T15:03:09Z</time>
      </trkpt>
      <trkpt lat="42.84012" lon="1.49226">
        <ele>1237.35</ele>
        <time>2016-10-31T15:03:10Z</time>
      </trkpt>
      <trkpt lat="42.84005" lon="1.49219">
        <ele>1237.35</ele>
        <time>2016-10-31T15:03:16Z</time>
      </trkpt>
      <trkpt lat="42.84004" lon="1.49217">
        <ele>1237.35</ele>
        <time>2016-10-31T15:03:17Z</time>
      </trkpt>
      <trkpt lat="42.84003" lon="1.49216">
        <ele>1237.35</ele>
        <time>2016-10-31T15:03:18Z</time>
      </trkpt>
      <trkpt lat="42.84002" lon="1.49214">
        <ele>1236.87</ele>
        <time>2016-10-31T15:03:19Z</time>
      </trkpt>
      <trkpt lat="42.84001" lon="1.49212">
        <ele>1236.87</ele>
        <time>2016-10-31T15:03:20Z</time>
      </trkpt>
      <trkpt lat="42.84" lon="1.49211">
        <ele>1236.87</ele>
        <time>2016-10-31T15:03:21Z</time>
      </trkpt>
      <trkpt lat="42.83998" lon="1.49207">
        <ele>1236.87</ele>
        <time>2016-10-31T15:03:24Z</time>
      </trkpt>
      <trkpt lat="42.83997" lon="1.49205">
        <ele>1236.87</ele>
        <time>2016-10-31T15:03:25Z</time>
      </trkpt>
      <trkpt lat="42.83996" lon="1.49203">
        <ele>1236.87</ele>
        <time>2016-10-31T15:03:26Z</time>
      </trkpt>
      <trkpt lat="42.83995" lon="1.49201">
        <ele>1236.39</ele>
        <time>2016-10-31T15:03:27Z</time>
      </trkpt>
      <trkpt lat="42.83994" lon="1.49198">
        <ele>1236.39</ele>
        <time>2016-10-31T15:03:28Z</time>
      </trkpt>
      <trkpt lat="42.83993" lon="1.49196">
        <ele>1236.39</ele>
        <time>2016-10-31T15:03:29Z</time>
      </trkpt>
      <trkpt lat="42.83992" lon="1.49194">
        <ele>1236.39</ele>
        <time>2016-10-31T15:03:30Z</time>
      </trkpt>
      <trkpt lat="42.83991" lon="1.49193">
        <ele>1236.39</ele>
        <time>2016-10-31T15:03:31Z</time>
      </trkpt>
      <trkpt lat="42.8399" lon="1.49192">
        <ele>1236.39</ele>
        <time>2016-10-31T15:03:32Z</time>
      </trkpt>
      <trkpt lat="42.83988" lon="1.49191">
        <ele>1236.39</ele>
        <time>2016-10-31T15:03:33Z</time>
      </trkpt>
      <trkpt lat="42.83987" lon="1.49191">
        <ele>1236.39</ele>
        <time>2016-10-31T15:03:34Z</time>
      </trkpt>
      <trkpt lat="42.83985" lon="1.49189">
        <ele>1236.39</ele>
        <time>2016-10-31T15:03:36Z</time>
      </trkpt>
      <trkpt lat="42.83984" lon="1.49188">
        <ele>1236.39</ele>
        <time>2016-10-31T15:03:37Z</time>
      </trkpt>
      <trkpt lat="42.83983" lon="1.49186">
        <ele>1236.39</ele>
        <time>2016-10-31T15:03:38Z</time>
      </trkpt>
      <trkpt lat="42.83982" lon="1.49184">
        <ele>1235.91</ele>
        <time>2016-10-31T15:03:39Z</time>
      </trkpt>
      <trkpt lat="42.8398" lon="1.49182">
        <ele>1235.91</ele>
        <time>2016-10-31T15:03:40Z</time>
      </trkpt>
      <trkpt lat="42.8398" lon="1.4918">
        <ele>1235.43</ele>
        <time>2016-10-31T15:03:41Z</time>
      </trkpt>
      <trkpt lat="42.83979" lon="1.4918">
        <ele>1235.43</ele>
        <time>2016-10-31T15:03:42Z</time>
      </trkpt>
      <trkpt lat="42.83978" lon="1.49179">
        <ele>1235.43</ele>
        <time>2016-10-31T15:03:43Z</time>
      </trkpt>
      <trkpt lat="42.83977" lon="1.49178">
        <ele>1235.43</ele>
        <time>2016-10-31T15:03:44Z</time>
      </trkpt>
      <trkpt lat="42.83976" lon="1.49177">
        <ele>1235.43</ele>
        <time>2016-10-31T15:03:45Z</time>
      </trkpt>
      <trkpt lat="42.83975" lon="1.49174">
        <ele>1235.43</ele>
        <time>2016-10-31T15:03:46Z</time>
      </trkpt>
      <trkpt lat="42.83974" lon="1.49172">
        <ele>1235.43</ele>
        <time>2016-10-31T15:03:47Z</time>
      </trkpt>
      <trkpt lat="42.83973" lon="1.4917">
        <ele>1235.43</ele>
        <time>2016-10-31T15:03:48Z</time>
      </trkpt>
      <trkpt lat="42.83972" lon="1.49168">
        <ele>1235.43</ele>
        <time>2016-10-31T15:03:49Z</time>
      </trkpt>
      <trkpt lat="42.8397" lon="1.49166">
        <ele>1235.43</ele>
        <time>2016-10-31T15:03:51Z</time>
      </trkpt>
      <trkpt lat="42.83969" lon="1.49165">
        <ele>1235.43</ele>
        <time>2016-10-31T15:03:52Z</time>
      </trkpt>
      <trkpt lat="42.83968" lon="1.49165">
        <ele>1235.43</ele>
        <time>2016-10-31T15:03:53Z</time>
      </trkpt>
      <trkpt lat="42.83966" lon="1.49164">
        <ele>1235.43</ele>
        <time>2016-10-31T15:03:54Z</time>
      </trkpt>
      <trkpt lat="42.83965" lon="1.49162">
        <ele>1234.95</ele>
        <time>2016-10-31T15:03:55Z</time>
      </trkpt>
      <trkpt lat="42.83964" lon="1.49161">
        <ele>1234.95</ele>
        <time>2016-10-31T15:03:56Z</time>
      </trkpt>
      <trkpt lat="42.83962" lon="1.4916">
        <ele>1234.95</ele>
        <time>2016-10-31T15:03:57Z</time>
      </trkpt>
      <trkpt lat="42.83961" lon="1.49159">
        <ele>1234.95</ele>
        <time>2016-10-31T15:03:58Z</time>
      </trkpt>
      <trkpt lat="42.83958" lon="1.49157">
        <ele>1234.95</ele>
        <time>2016-10-31T15:04:00Z</time>
      </trkpt>
      <trkpt lat="42.83957" lon="1.49156">
        <ele>1234.95</ele>
        <time>2016-10-31T15:04:01Z</time>
      </trkpt>
      <trkpt lat="42.83956" lon="1.49156">
        <ele>1234.95</ele>
        <time>2016-10-31T15:04:02Z</time>
      </trkpt>
      <trkpt lat="42.8395" lon="1.49152">
        <ele>1234.47</ele>
        <time>2016-10-31T15:04:06Z</time>
      </trkpt>
      <trkpt lat="42.83948" lon="1.4915">
        <ele>1234.47</ele>
        <time>2016-10-31T15:04:07Z</time>
      </trkpt>
      <trkpt lat="42.83947" lon="1.49149">
        <ele>1234.47</ele>
        <time>2016-10-31T15:04:08Z</time>
      </trkpt>
      <trkpt lat="42.83946" lon="1.49148">
        <ele>1234.47</ele>
        <time>2016-10-31T15:04:09Z</time>
      </trkpt>
      <trkpt lat="42.83945" lon="1.49147">
        <ele>1234.47</ele>
        <time>2016-10-31T15:04:10Z</time>
      </trkpt>
      <trkpt lat="42.83943" lon="1.49147">
        <ele>1234.47</ele>
        <time>2016-10-31T15:04:11Z</time>
      </trkpt>
      <trkpt lat="42.83942" lon="1.49146">
        <ele>1234.47</ele>
        <time>2016-10-31T15:04:12Z</time>
      </trkpt>
      <trkpt lat="42.8393" lon="1.49137">
        <ele>1233.51</ele>
        <time>2016-10-31T15:04:21Z</time>
      </trkpt>
      <trkpt lat="42.83929" lon="1.49137">
        <ele>1233.51</ele>
        <time>2016-10-31T15:04:22Z</time>
      </trkpt>
      <trkpt lat="42.83927" lon="1.49137">
        <ele>1233.51</ele>
        <time>2016-10-31T15:04:23Z</time>
      </trkpt>
      <trkpt lat="42.83926" lon="1.49136">
        <ele>1233.51</ele>
        <time>2016-10-31T15:04:24Z</time>
      </trkpt>
      <trkpt lat="42.83924" lon="1.49136">
        <ele>1233.51</ele>
        <time>2016-10-31T15:04:25Z</time>
      </trkpt>
      <trkpt lat="42.83923" lon="1.49134">
        <ele>1233.51</ele>
        <time>2016-10-31T15:04:26Z</time>
      </trkpt>
      <trkpt lat="42.83922" lon="1.49132">
        <ele>1233.03</ele>
        <time>2016-10-31T15:04:27Z</time>
      </trkpt>
      <trkpt lat="42.8392" lon="1.49131">
        <ele>1233.03</ele>
        <time>2016-10-31T15:04:28Z</time>
      </trkpt>
      <trkpt lat="42.83919" lon="1.4913">
        <ele>1233.03</ele>
        <time>2016-10-31T15:04:29Z</time>
      </trkpt>
      <trkpt lat="42.83918" lon="1.49129">
        <ele>1233.03</ele>
        <time>2016-10-31T15:04:30Z</time>
      </trkpt>
      <trkpt lat="42.83916" lon="1.49127">
        <ele>1233.03</ele>
        <time>2016-10-31T15:04:31Z</time>
      </trkpt>
      <trkpt lat="42.83915" lon="1.49126">
        <ele>1233.03</ele>
        <time>2016-10-31T15:04:32Z</time>
      </trkpt>
      <trkpt lat="42.83914" lon="1.49125">
        <ele>1233.03</ele>
        <time>2016-10-31T15:04:33Z</time>
      </trkpt>
      <trkpt lat="42.83913" lon="1.49124">
        <ele>1233.03</ele>
        <time>2016-10-31T15:04:34Z</time>
      </trkpt>
      <trkpt lat="42.83912" lon="1.49123">
        <ele>1233.03</ele>
        <time>2016-10-31T15:04:35Z</time>
      </trkpt>
      <trkpt lat="42.83911" lon="1.49122">
        <ele>1232.55</ele>
        <time>2016-10-31T15:04:36Z</time>
      </trkpt>
      <trkpt lat="42.8391" lon="1.4912">
        <ele>1232.55</ele>
        <time>2016-10-31T15:04:37Z</time>
      </trkpt>
      <trkpt lat="42.83909" lon="1.49118">
        <ele>1232.55</ele>
        <time>2016-10-31T15:04:38Z</time>
      </trkpt>
      <trkpt lat="42.83908" lon="1.49116">
        <ele>1232.55</ele>
        <time>2016-10-31T15:04:39Z</time>
      </trkpt>
      <trkpt lat="42.83907" lon="1.49113">
        <ele>1232.55</ele>
        <time>2016-10-31T15:04:40Z</time>
      </trkpt>
      <trkpt lat="42.83906" lon="1.49111">
        <ele>1232.55</ele>
        <time>2016-10-31T15:04:41Z</time>
      </trkpt>
      <trkpt lat="42.83905" lon="1.4911">
        <ele>1232.55</ele>
        <time>2016-10-31T15:04:42Z</time>
      </trkpt>
      <trkpt lat="42.83904" lon="1.49108">
        <ele>1232.55</ele>
        <time>2016-10-31T15:04:43Z</time>
      </trkpt>
      <trkpt lat="42.83903" lon="1.49106">
        <ele>1232.55</ele>
        <time>2016-10-31T15:04:44Z</time>
      </trkpt>
      <trkpt lat="42.83903" lon="1.49104">
        <ele>1232.55</ele>
        <time>2016-10-31T15:04:45Z</time>
      </trkpt>
      <trkpt lat="42.83902" lon="1.49102">
        <ele>1232.55</ele>
        <time>2016-10-31T15:04:46Z</time>
      </trkpt>
      <trkpt lat="42.83901" lon="1.491">
        <ele>1232.55</ele>
        <time>2016-10-31T15:04:47Z</time>
      </trkpt>
      <trkpt lat="42.83892" lon="1.49078">
        <ele>1231.11</ele>
        <time>2016-10-31T15:05:00Z</time>
      </trkpt>
      <trkpt lat="42.83888" lon="1.49072">
        <ele>1230.62</ele>
        <time>2016-10-31T15:05:04Z</time>
      </trkpt>
      <trkpt lat="42.83884" lon="1.49063">
        <ele>1230.62</ele>
        <time>2016-10-31T15:05:09Z</time>
      </trkpt>
      <trkpt lat="42.83883" lon="1.49062">
        <ele>1230.62</ele>
        <time>2016-10-31T15:05:10Z</time>
      </trkpt>
      <trkpt lat="42.83882" lon="1.4906">
        <ele>1230.14</ele>
        <time>2016-10-31T15:05:11Z</time>
      </trkpt>
      <trkpt lat="42.83881" lon="1.49058">
        <ele>1230.14</ele>
        <time>2016-10-31T15:05:12Z</time>
      </trkpt>
      <trkpt lat="42.8388" lon="1.49056">
        <ele>1230.14</ele>
        <time>2016-10-31T15:05:13Z</time>
      </trkpt>
      <trkpt lat="42.83879" lon="1.49055">
        <ele>1230.14</ele>
        <time>2016-10-31T15:05:14Z</time>
      </trkpt>
      <trkpt lat="42.83878" lon="1.49054">
        <ele>1230.14</ele>
        <time>2016-10-31T15:05:15Z</time>
      </trkpt>
      <trkpt lat="42.83877" lon="1.49053">
        <ele>1230.14</ele>
        <time>2016-10-31T15:05:16Z</time>
      </trkpt>
      <trkpt lat="42.83876" lon="1.49051">
        <ele>1230.14</ele>
        <time>2016-10-31T15:05:17Z</time>
      </trkpt>
      <trkpt lat="42.83871" lon="1.49044">
        <ele>1229.18</ele>
        <time>2016-10-31T15:05:21Z</time>
      </trkpt>
      <trkpt lat="42.8387" lon="1.49042">
        <ele>1229.18</ele>
        <time>2016-10-31T15:05:22Z</time>
      </trkpt>
      <trkpt lat="42.83869" lon="1.49041">
        <ele>1229.18</ele>
        <time>2016-10-31T15:05:23Z</time>
      </trkpt>
      <trkpt lat="42.83868" lon="1.4904">
        <ele>1229.18</ele>
        <time>2016-10-31T15:05:24Z</time>
      </trkpt>
      <trkpt lat="42.83866" lon="1.49038">
        <ele>1229.18</ele>
        <time>2016-10-31T15:05:26Z</time>
      </trkpt>
      <trkpt lat="42.83865" lon="1.49037">
        <ele>1229.18</ele>
        <time>2016-10-31T15:05:27Z</time>
      </trkpt>
      <trkpt lat="42.83864" lon="1.49036">
        <ele>1229.18</ele>
        <time>2016-10-31T15:05:28Z</time>
      </trkpt>
      <trkpt lat="42.83863" lon="1.49035">
        <ele>1229.18</ele>
        <time>2016-10-31T15:05:29Z</time>
      </trkpt>
      <trkpt lat="42.83862" lon="1.49033">
        <ele>1229.18</ele>
        <time>2016-10-31T15:05:30Z</time>
      </trkpt>
      <trkpt lat="42.83861" lon="1.49031">
        <ele>1229.18</ele>
        <time>2016-10-31T15:05:31Z</time>
      </trkpt>
      <trkpt lat="42.8386" lon="1.49028">
        <ele>1229.18</ele>
        <time>2016-10-31T15:05:32Z</time>
      </trkpt>
      <trkpt lat="42.8386" lon="1.49026">
        <ele>1229.18</ele>
        <time>2016-10-31T15:05:33Z</time>
      </trkpt>
      <trkpt lat="42.83854" lon="1.49021">
        <ele>1228.7</ele>
        <time>2016-10-31T15:05:39Z</time>
      </trkpt>
      <trkpt lat="42.83853" lon="1.4902">
        <ele>1228.7</ele>
        <time>2016-10-31T15:05:40Z</time>
      </trkpt>
      <trkpt lat="42.83851" lon="1.49019">
        <ele>1228.7</ele>
        <time>2016-10-31T15:05:41Z</time>
      </trkpt>
      <trkpt lat="42.83842" lon="1.49014">
        <ele>1228.7</ele>
        <time>2016-10-31T15:05:47Z</time>
      </trkpt>
      <trkpt lat="42.8384" lon="1.49012">
        <ele>1228.7</ele>
        <time>2016-10-31T15:05:49Z</time>
      </trkpt>
      <trkpt lat="42.83833" lon="1.49006">
        <ele>1227.74</ele>
        <time>2016-10-31T15:05:54Z</time>
      </trkpt>
      <trkpt lat="42.83831" lon="1.49004">
        <ele>1227.74</ele>
        <time>2016-10-31T15:05:55Z</time>
      </trkpt>
      <trkpt lat="42.8383" lon="1.49003">
        <ele>1227.74</ele>
        <time>2016-10-31T15:05:56Z</time>
      </trkpt>
      <trkpt lat="42.83829" lon="1.49001">
        <ele>1227.74</ele>
        <time>2016-10-31T15:05:57Z</time>
      </trkpt>
      <trkpt lat="42.83828" lon="1.49">
        <ele>1227.74</ele>
        <time>2016-10-31T15:05:58Z</time>
      </trkpt>
      <trkpt lat="42.83826" lon="1.48999">
        <ele>1227.74</ele>
        <time>2016-10-31T15:05:59Z</time>
      </trkpt>
      <trkpt lat="42.83825" lon="1.48998">
        <ele>1227.74</ele>
        <time>2016-10-31T15:06:00Z</time>
      </trkpt>
      <trkpt lat="42.83824" lon="1.48996">
        <ele>1227.74</ele>
        <time>2016-10-31T15:06:01Z</time>
      </trkpt>
      <trkpt lat="42.83823" lon="1.48995">
        <ele>1227.74</ele>
        <time>2016-10-31T15:06:02Z</time>
      </trkpt>
      <trkpt lat="42.83822" lon="1.48994">
        <ele>1227.74</ele>
        <time>2016-10-31T15:06:03Z</time>
      </trkpt>
      <trkpt lat="42.83808" lon="1.48983">
        <ele>1227.26</ele>
        <time>2016-10-31T15:06:12Z</time>
      </trkpt>
      <trkpt lat="42.83807" lon="1.48981">
        <ele>1227.26</ele>
        <time>2016-10-31T15:06:13Z</time>
      </trkpt>
      <trkpt lat="42.83806" lon="1.4898">
        <ele>1227.26</ele>
        <time>2016-10-31T15:06:14Z</time>
      </trkpt>
      <trkpt lat="42.83805" lon="1.48978">
        <ele>1227.26</ele>
        <time>2016-10-31T15:06:15Z</time>
      </trkpt>
      <trkpt lat="42.83804" lon="1.48977">
        <ele>1227.26</ele>
        <time>2016-10-31T15:06:16Z</time>
      </trkpt>
      <trkpt lat="42.83803" lon="1.48975">
        <ele>1227.26</ele>
        <time>2016-10-31T15:06:17Z</time>
      </trkpt>
      <trkpt lat="42.83802" lon="1.48973">
        <ele>1226.78</ele>
        <time>2016-10-31T15:06:18Z</time>
      </trkpt>
      <trkpt lat="42.83802" lon="1.48971">
        <ele>1226.78</ele>
        <time>2016-10-31T15:06:19Z</time>
      </trkpt>
      <trkpt lat="42.83801" lon="1.48968">
        <ele>1226.78</ele>
        <time>2016-10-31T15:06:20Z</time>
      </trkpt>
      <trkpt lat="42.83799" lon="1.48966">
        <ele>1226.78</ele>
        <time>2016-10-31T15:06:21Z</time>
      </trkpt>
      <trkpt lat="42.83799" lon="1.48964">
        <ele>1226.78</ele>
        <time>2016-10-31T15:06:22Z</time>
      </trkpt>
      <trkpt lat="42.83798" lon="1.48962">
        <ele>1226.78</ele>
        <time>2016-10-31T15:06:23Z</time>
      </trkpt>
      <trkpt lat="42.83798" lon="1.4896">
        <ele>1226.78</ele>
        <time>2016-10-31T15:06:24Z</time>
      </trkpt>
      <trkpt lat="42.83797" lon="1.48958">
        <ele>1226.78</ele>
        <time>2016-10-31T15:06:25Z</time>
      </trkpt>
      <trkpt lat="42.83796" lon="1.48957">
        <ele>1226.78</ele>
        <time>2016-10-31T15:06:26Z</time>
      </trkpt>
      <trkpt lat="42.83795" lon="1.48955">
        <ele>1226.3</ele>
        <time>2016-10-31T15:06:27Z</time>
      </trkpt>
      <trkpt lat="42.83795" lon="1.48953">
        <ele>1226.3</ele>
        <time>2016-10-31T15:06:28Z</time>
      </trkpt>
      <trkpt lat="42.83793" lon="1.48951">
        <ele>1226.3</ele>
        <time>2016-10-31T15:06:29Z</time>
      </trkpt>
      <trkpt lat="42.83792" lon="1.48946">
        <ele>1225.82</ele>
        <time>2016-10-31T15:06:31Z</time>
      </trkpt>
      <trkpt lat="42.83791" lon="1.48944">
        <ele>1225.82</ele>
        <time>2016-10-31T15:06:32Z</time>
      </trkpt>
      <trkpt lat="42.83791" lon="1.48942">
        <ele>1225.82</ele>
        <time>2016-10-31T15:06:33Z</time>
      </trkpt>
      <trkpt lat="42.83791" lon="1.4894">
        <ele>1225.82</ele>
        <time>2016-10-31T15:06:34Z</time>
      </trkpt>
      <trkpt lat="42.8379" lon="1.48938">
        <ele>1225.34</ele>
        <time>2016-10-31T15:06:35Z</time>
      </trkpt>
      <trkpt lat="42.8379" lon="1.48936">
        <ele>1225.34</ele>
        <time>2016-10-31T15:06:36Z</time>
      </trkpt>
      <trkpt lat="42.8379" lon="1.48934">
        <ele>1225.34</ele>
        <time>2016-10-31T15:06:37Z</time>
      </trkpt>
      <trkpt lat="42.8379" lon="1.48932">
        <ele>1225.34</ele>
        <time>2016-10-31T15:06:38Z</time>
      </trkpt>
      <trkpt lat="42.8379" lon="1.48929">
        <ele>1225.34</ele>
        <time>2016-10-31T15:06:39Z</time>
      </trkpt>
      <trkpt lat="42.8379" lon="1.48927">
        <ele>1224.86</ele>
        <time>2016-10-31T15:06:40Z</time>
      </trkpt>
      <trkpt lat="42.8379" lon="1.48925">
        <ele>1224.86</ele>
        <time>2016-10-31T15:06:41Z</time>
      </trkpt>
      <trkpt lat="42.83791" lon="1.48923">
        <ele>1224.86</ele>
        <time>2016-10-31T15:06:42Z</time>
      </trkpt>
      <trkpt lat="42.83791" lon="1.4892">
        <ele>1224.86</ele>
        <time>2016-10-31T15:06:43Z</time>
      </trkpt>
      <trkpt lat="42.83791" lon="1.48918">
        <ele>1224.86</ele>
        <time>2016-10-31T15:06:44Z</time>
      </trkpt>
      <trkpt lat="42.83788" lon="1.48898">
        <ele>1223.9</ele>
        <time>2016-10-31T15:06:53Z</time>
      </trkpt>
      <trkpt lat="42.83787" lon="1.48896">
        <ele>1223.9</ele>
        <time>2016-10-31T15:06:54Z</time>
      </trkpt>
      <trkpt lat="42.83786" lon="1.48894">
        <ele>1223.9</ele>
        <time>2016-10-31T15:06:55Z</time>
      </trkpt>
      <trkpt lat="42.83785" lon="1.48892">
        <ele>1223.42</ele>
        <time>2016-10-31T15:06:56Z</time>
      </trkpt>
      <trkpt lat="42.83783" lon="1.48891">
        <ele>1223.42</ele>
        <time>2016-10-31T15:06:57Z</time>
      </trkpt>
      <trkpt lat="42.8378" lon="1.48889">
        <ele>1223.42</ele>
        <time>2016-10-31T15:07:00Z</time>
      </trkpt>
      <trkpt lat="42.83779" lon="1.48888">
        <ele>1222.45</ele>
        <time>2016-10-31T15:07:01Z</time>
      </trkpt>
      <trkpt lat="42.83778" lon="1.48886">
        <ele>1222.45</ele>
        <time>2016-10-31T15:07:02Z</time>
      </trkpt>
      <trkpt lat="42.83777" lon="1.48884">
        <ele>1222.45</ele>
        <time>2016-10-31T15:07:03Z</time>
      </trkpt>
      <trkpt lat="42.83777" lon="1.48883">
        <ele>1222.45</ele>
        <time>2016-10-31T15:07:04Z</time>
      </trkpt>
      <trkpt lat="42.83775" lon="1.48881">
        <ele>1222.45</ele>
        <time>2016-10-31T15:07:05Z</time>
      </trkpt>
      <trkpt lat="42.83774" lon="1.48879">
        <ele>1222.45</ele>
        <time>2016-10-31T15:07:06Z</time>
      </trkpt>
      <trkpt lat="42.83774" lon="1.48877">
        <ele>1222.45</ele>
        <time>2016-10-31T15:07:07Z</time>
      </trkpt>
      <trkpt lat="42.83773" lon="1.48874">
        <ele>1222.45</ele>
        <time>2016-10-31T15:07:08Z</time>
      </trkpt>
      <trkpt lat="42.83773" lon="1.48872">
        <ele>1221.97</ele>
        <time>2016-10-31T15:07:09Z</time>
      </trkpt>
      <trkpt lat="42.8377" lon="1.4887">
        <ele>1221.97</ele>
        <time>2016-10-31T15:07:11Z</time>
      </trkpt>
      <trkpt lat="42.83769" lon="1.48868">
        <ele>1221.97</ele>
        <time>2016-10-31T15:07:12Z</time>
      </trkpt>
      <trkpt lat="42.83768" lon="1.48867">
        <ele>1221.97</ele>
        <time>2016-10-31T15:07:13Z</time>
      </trkpt>
      <trkpt lat="42.83766" lon="1.48866">
        <ele>1221.97</ele>
        <time>2016-10-31T15:07:14Z</time>
      </trkpt>
      <trkpt lat="42.83765" lon="1.48865">
        <ele>1221.49</ele>
        <time>2016-10-31T15:07:15Z</time>
      </trkpt>
      <trkpt lat="42.83764" lon="1.48864">
        <ele>1221.49</ele>
        <time>2016-10-31T15:07:16Z</time>
      </trkpt>
      <trkpt lat="42.83762" lon="1.48863">
        <ele>1221.49</ele>
        <time>2016-10-31T15:07:17Z</time>
      </trkpt>
      <trkpt lat="42.8376" lon="1.48862">
        <ele>1221.49</ele>
        <time>2016-10-31T15:07:18Z</time>
      </trkpt>
      <trkpt lat="42.83758" lon="1.48861">
        <ele>1221.49</ele>
        <time>2016-10-31T15:07:19Z</time>
      </trkpt>
      <trkpt lat="42.83757" lon="1.4886">
        <ele>1221.49</ele>
        <time>2016-10-31T15:07:20Z</time>
      </trkpt>
      <trkpt lat="42.83756" lon="1.48859">
        <ele>1221.01</ele>
        <time>2016-10-31T15:07:21Z</time>
      </trkpt>
      <trkpt lat="42.83755" lon="1.48858">
        <ele>1221.01</ele>
        <time>2016-10-31T15:07:22Z</time>
      </trkpt>
      <trkpt lat="42.83753" lon="1.48858">
        <ele>1221.01</ele>
        <time>2016-10-31T15:07:23Z</time>
      </trkpt>
      <trkpt lat="42.83752" lon="1.48857">
        <ele>1221.01</ele>
        <time>2016-10-31T15:07:24Z</time>
      </trkpt>
      <trkpt lat="42.83751" lon="1.48856">
        <ele>1221.01</ele>
        <time>2016-10-31T15:07:25Z</time>
      </trkpt>
      <trkpt lat="42.83749" lon="1.48855">
        <ele>1221.01</ele>
        <time>2016-10-31T15:07:26Z</time>
      </trkpt>
      <trkpt lat="42.83749" lon="1.48853">
        <ele>1221.01</ele>
        <time>2016-10-31T15:07:27Z</time>
      </trkpt>
      <trkpt lat="42.83748" lon="1.48851">
        <ele>1221.01</ele>
        <time>2016-10-31T15:07:28Z</time>
      </trkpt>
      <trkpt lat="42.83747" lon="1.48849">
        <ele>1221.01</ele>
        <time>2016-10-31T15:07:29Z</time>
      </trkpt>
      <trkpt lat="42.83746" lon="1.48847">
        <ele>1221.01</ele>
        <time>2016-10-31T15:07:30Z</time>
      </trkpt>
      <trkpt lat="42.83744" lon="1.48846">
        <ele>1221.01</ele>
        <time>2016-10-31T15:07:31Z</time>
      </trkpt>
      <trkpt lat="42.83743" lon="1.48844">
        <ele>1221.01</ele>
        <time>2016-10-31T15:07:32Z</time>
      </trkpt>
      <trkpt lat="42.83743" lon="1.48842">
        <ele>1221.01</ele>
        <time>2016-10-31T15:07:33Z</time>
      </trkpt>
      <trkpt lat="42.83742" lon="1.48841">
        <ele>1221.01</ele>
        <time>2016-10-31T15:07:34Z</time>
      </trkpt>
      <trkpt lat="42.83741" lon="1.4884">
        <ele>1220.05</ele>
        <time>2016-10-31T15:07:35Z</time>
      </trkpt>
      <trkpt lat="42.83738" lon="1.48834">
        <ele>1220.05</ele>
        <time>2016-10-31T15:07:38Z</time>
      </trkpt>
      <trkpt lat="42.83738" lon="1.48832">
        <ele>1220.05</ele>
        <time>2016-10-31T15:07:39Z</time>
      </trkpt>
      <trkpt lat="42.83738" lon="1.48825">
        <ele>1220.05</ele>
        <time>2016-10-31T15:07:44Z</time>
      </trkpt>
      <trkpt lat="42.83739" lon="1.48823">
        <ele>1220.05</ele>
        <time>2016-10-31T15:07:45Z</time>
      </trkpt>
      <trkpt lat="42.8374" lon="1.48821">
        <ele>1220.05</ele>
        <time>2016-10-31T15:07:46Z</time>
      </trkpt>
      <trkpt lat="42.83741" lon="1.48818">
        <ele>1220.05</ele>
        <time>2016-10-31T15:07:47Z</time>
      </trkpt>
      <trkpt lat="42.83742" lon="1.48817">
        <ele>1220.05</ele>
        <time>2016-10-31T15:07:48Z</time>
      </trkpt>
      <trkpt lat="42.83742" lon="1.48815">
        <ele>1220.05</ele>
        <time>2016-10-31T15:07:49Z</time>
      </trkpt>
      <trkpt lat="42.83743" lon="1.4881">
        <ele>1220.05</ele>
        <time>2016-10-31T15:07:51Z</time>
      </trkpt>
      <trkpt lat="42.83743" lon="1.48808">
        <ele>1220.05</ele>
        <time>2016-10-31T15:07:52Z</time>
      </trkpt>
      <trkpt lat="42.83743" lon="1.48806">
        <ele>1220.05</ele>
        <time>2016-10-31T15:07:53Z</time>
      </trkpt>
      <trkpt lat="42.83744" lon="1.48804">
        <ele>1220.05</ele>
        <time>2016-10-31T15:07:54Z</time>
      </trkpt>
      <trkpt lat="42.83744" lon="1.488">
        <ele>1219.57</ele>
        <time>2016-10-31T15:08:09Z</time>
      </trkpt>
      <trkpt lat="42.83747" lon="1.48795">
        <ele>1219.09</ele>
        <time>2016-10-31T15:08:15Z</time>
      </trkpt>
      <trkpt lat="42.83749" lon="1.48794">
        <ele>1219.09</ele>
        <time>2016-10-31T15:08:16Z</time>
      </trkpt>
      <trkpt lat="42.83756" lon="1.48787">
        <ele>1218.61</ele>
        <time>2016-10-31T15:08:23Z</time>
      </trkpt>
      <trkpt lat="42.83757" lon="1.48787">
        <ele>1218.13</ele>
        <time>2016-10-31T15:08:24Z</time>
      </trkpt>
      <trkpt lat="42.83759" lon="1.48786">
        <ele>1218.13</ele>
        <time>2016-10-31T15:08:25Z</time>
      </trkpt>
      <trkpt lat="42.8376" lon="1.48785">
        <ele>1218.13</ele>
        <time>2016-10-31T15:08:26Z</time>
      </trkpt>
      <trkpt lat="42.83761" lon="1.48784">
        <ele>1218.13</ele>
        <time>2016-10-31T15:08:27Z</time>
      </trkpt>
      <trkpt lat="42.83762" lon="1.48783">
        <ele>1217.17</ele>
        <time>2016-10-31T15:08:28Z</time>
      </trkpt>
      <trkpt lat="42.8377" lon="1.48776">
        <ele>1216.21</ele>
        <time>2016-10-31T15:08:35Z</time>
      </trkpt>
      <trkpt lat="42.83771" lon="1.48775">
        <ele>1216.21</ele>
        <time>2016-10-31T15:08:36Z</time>
      </trkpt>
      <trkpt lat="42.83771" lon="1.48773">
        <ele>1216.21</ele>
        <time>2016-10-31T15:08:37Z</time>
      </trkpt>
      <trkpt lat="42.83773" lon="1.48772">
        <ele>1216.21</ele>
        <time>2016-10-31T15:08:38Z</time>
      </trkpt>
      <trkpt lat="42.83774" lon="1.4877">
        <ele>1215.72</ele>
        <time>2016-10-31T15:08:39Z</time>
      </trkpt>
      <trkpt lat="42.83775" lon="1.48768">
        <ele>1215.72</ele>
        <time>2016-10-31T15:08:41Z</time>
      </trkpt>
      <trkpt lat="42.83775" lon="1.48766">
        <ele>1215.72</ele>
        <time>2016-10-31T15:08:42Z</time>
      </trkpt>
      <trkpt lat="42.83775" lon="1.48765">
        <ele>1214.76</ele>
        <time>2016-10-31T15:08:43Z</time>
      </trkpt>
      <trkpt lat="42.83776" lon="1.48758">
        <ele>1214.28</ele>
        <time>2016-10-31T15:08:46Z</time>
      </trkpt>
      <trkpt lat="42.83777" lon="1.48756">
        <ele>1214.28</ele>
        <time>2016-10-31T15:08:47Z</time>
      </trkpt>
      <trkpt lat="42.83777" lon="1.48754">
        <ele>1214.28</ele>
        <time>2016-10-31T15:08:48Z</time>
      </trkpt>
      <trkpt lat="42.83777" lon="1.48752">
        <ele>1214.28</ele>
        <time>2016-10-31T15:08:49Z</time>
      </trkpt>
      <trkpt lat="42.83778" lon="1.4875">
        <ele>1213.8</ele>
        <time>2016-10-31T15:08:50Z</time>
      </trkpt>
      <trkpt lat="42.83777" lon="1.48748">
        <ele>1213.8</ele>
        <time>2016-10-31T15:08:51Z</time>
      </trkpt>
      <trkpt lat="42.83778" lon="1.48746">
        <ele>1213.8</ele>
        <time>2016-10-31T15:08:52Z</time>
      </trkpt>
      <trkpt lat="42.83778" lon="1.48744">
        <ele>1213.8</ele>
        <time>2016-10-31T15:08:53Z</time>
      </trkpt>
      <trkpt lat="42.83778" lon="1.4874">
        <ele>1213.32</ele>
        <time>2016-10-31T15:08:56Z</time>
      </trkpt>
      <trkpt lat="42.8378" lon="1.48733">
        <ele>1211.4</ele>
        <time>2016-10-31T15:09:08Z</time>
      </trkpt>
      <trkpt lat="42.83781" lon="1.4873">
        <ele>1210.92</ele>
        <time>2016-10-31T15:09:14Z</time>
      </trkpt>
      <trkpt lat="42.83781" lon="1.48729">
        <ele>1210.92</ele>
        <time>2016-10-31T15:09:15Z</time>
      </trkpt>
      <trkpt lat="42.8378" lon="1.48726">
        <ele>1210.44</ele>
        <time>2016-10-31T15:09:16Z</time>
      </trkpt>
      <trkpt lat="42.8378" lon="1.48723">
        <ele>1210.44</ele>
        <time>2016-10-31T15:09:17Z</time>
      </trkpt>
      <trkpt lat="42.8378" lon="1.4872">
        <ele>1210.44</ele>
        <time>2016-10-31T15:09:18Z</time>
      </trkpt>
      <trkpt lat="42.83779" lon="1.48717">
        <ele>1210.44</ele>
        <time>2016-10-31T15:09:19Z</time>
      </trkpt>
      <trkpt lat="42.8378" lon="1.48713">
        <ele>1210.44</ele>
        <time>2016-10-31T15:09:20Z</time>
      </trkpt>
      <trkpt lat="42.8378" lon="1.48709">
        <ele>1209.48</ele>
        <time>2016-10-31T15:09:21Z</time>
      </trkpt>
      <trkpt lat="42.83781" lon="1.48706">
        <ele>1209.48</ele>
        <time>2016-10-31T15:09:22Z</time>
      </trkpt>
      <trkpt lat="42.83781" lon="1.48702">
        <ele>1209.48</ele>
        <time>2016-10-31T15:09:23Z</time>
      </trkpt>
      <trkpt lat="42.83781" lon="1.48698">
        <ele>1209</ele>
        <time>2016-10-31T15:09:24Z</time>
      </trkpt>
      <trkpt lat="42.83781" lon="1.48695">
        <ele>1209</ele>
        <time>2016-10-31T15:09:25Z</time>
      </trkpt>
      <trkpt lat="42.83782" lon="1.48691">
        <ele>1208.51</ele>
        <time>2016-10-31T15:09:26Z</time>
      </trkpt>
      <trkpt lat="42.83782" lon="1.48687">
        <ele>1208.51</ele>
        <time>2016-10-31T15:09:27Z</time>
      </trkpt>
      <trkpt lat="42.83783" lon="1.48684">
        <ele>1207.55</ele>
        <time>2016-10-31T15:09:28Z</time>
      </trkpt>
      <trkpt lat="42.83783" lon="1.4868">
        <ele>1206.59</ele>
        <time>2016-10-31T15:09:29Z</time>
      </trkpt>
      <trkpt lat="42.83783" lon="1.48676">
        <ele>1205.63</ele>
        <time>2016-10-31T15:09:30Z</time>
      </trkpt>
      <trkpt lat="42.83783" lon="1.48672">
        <ele>1204.67</ele>
        <time>2016-10-31T15:09:31Z</time>
      </trkpt>
      <trkpt lat="42.83784" lon="1.48667">
        <ele>1203.71</ele>
        <time>2016-10-31T15:09:32Z</time>
      </trkpt>
      <trkpt lat="42.83784" lon="1.48663">
        <ele>1202.75</ele>
        <time>2016-10-31T15:09:33Z</time>
      </trkpt>
      <trkpt lat="42.83784" lon="1.48659">
        <ele>1202.27</ele>
        <time>2016-10-31T15:09:34Z</time>
      </trkpt>
      <trkpt lat="42.83787" lon="1.48632">
        <ele>1199.86</ele>
        <time>2016-10-31T15:09:42Z</time>
      </trkpt>
      <trkpt lat="42.83768" lon="1.4859">
        <ele>1198.9</ele>
        <time>2016-10-31T15:09:54Z</time>
      </trkpt>
      <trkpt lat="42.83763" lon="1.48575">
        <ele>1194.58</ele>
        <time>2016-10-31T15:09:59Z</time>
      </trkpt>
      <trkpt lat="42.83759" lon="1.48565">
        <ele>1190.73</ele>
        <time>2016-10-31T15:10:02Z</time>
      </trkpt>
      <trkpt lat="42.83754" lon="1.48553">
        <ele>1187.37</ele>
        <time>2016-10-31T15:10:06Z</time>
      </trkpt>
      <trkpt lat="42.83752" lon="1.48543">
        <ele>1187.85</ele>
        <time>2016-10-31T15:10:09Z</time>
      </trkpt>
      <trkpt lat="42.83753" lon="1.4853">
        <ele>1187.85</ele>
        <time>2016-10-31T15:10:13Z</time>
      </trkpt>
      <trkpt lat="42.83753" lon="1.48526">
        <ele>1187.85</ele>
        <time>2016-10-31T15:10:14Z</time>
      </trkpt>
      <trkpt lat="42.83753" lon="1.48522">
        <ele>1187.85</ele>
        <time>2016-10-31T15:10:15Z</time>
      </trkpt>
      <trkpt lat="42.83749" lon="1.48486">
        <ele>1186.4</ele>
        <time>2016-10-31T15:10:25Z</time>
      </trkpt>
      <trkpt lat="42.83748" lon="1.48467">
        <ele>1183.04</ele>
        <time>2016-10-31T15:10:30Z</time>
      </trkpt>
      <trkpt lat="42.83747" lon="1.4845">
        <ele>1179.67</ele>
        <time>2016-10-31T15:10:35Z</time>
      </trkpt>
      <trkpt lat="42.8375" lon="1.48432">
        <ele>1179.19</ele>
        <time>2016-10-31T15:10:40Z</time>
      </trkpt>
      <trkpt lat="42.83752" lon="1.48426">
        <ele>1179.19</ele>
        <time>2016-10-31T15:10:42Z</time>
      </trkpt>
      <trkpt lat="42.83764" lon="1.48399">
        <ele>1176.31</ele>
        <time>2016-10-31T15:10:50Z</time>
      </trkpt>
      <trkpt lat="42.83769" lon="1.48381">
        <ele>1172.95</ele>
        <time>2016-10-31T15:10:55Z</time>
      </trkpt>
      <trkpt lat="42.83778" lon="1.48344">
        <ele>1170.54</ele>
        <time>2016-10-31T15:11:06Z</time>
      </trkpt>
      <trkpt lat="42.83779" lon="1.48327">
        <ele>1170.06</ele>
        <time>2016-10-31T15:11:11Z</time>
      </trkpt>
      <trkpt lat="42.8378" lon="1.48324">
        <ele>1169.58</ele>
        <time>2016-10-31T15:11:12Z</time>
      </trkpt>
      <trkpt lat="42.83779" lon="1.48306">
        <ele>1165.74</ele>
        <time>2016-10-31T15:11:17Z</time>
      </trkpt>
      <trkpt lat="42.83778" lon="1.48293">
        <ele>1162.85</ele>
        <time>2016-10-31T15:11:21Z</time>
      </trkpt>
      <trkpt lat="42.83781" lon="1.48255">
        <ele>1160.93</ele>
        <time>2016-10-31T15:11:33Z</time>
      </trkpt>
      <trkpt lat="42.83778" lon="1.48244">
        <ele>1159.49</ele>
        <time>2016-10-31T15:11:43Z</time>
      </trkpt>
      <trkpt lat="42.8377" lon="1.48237">
        <ele>1159.01</ele>
        <time>2016-10-31T15:11:56Z</time>
      </trkpt>
      <trkpt lat="42.83769" lon="1.48236">
        <ele>1159.01</ele>
        <time>2016-10-31T15:12:15Z</time>
      </trkpt>
      <trkpt lat="42.83768" lon="1.48232">
        <ele>1159.01</ele>
        <time>2016-10-31T15:12:33Z</time>
      </trkpt>
      <trkpt lat="42.83767" lon="1.4823">
        <ele>1159.01</ele>
        <time>2016-10-31T15:12:48Z</time>
      </trkpt>
      <trkpt lat="42.83767" lon="1.48224">
        <ele>1158.53</ele>
        <time>2016-10-31T15:12:52Z</time>
      </trkpt>
      <trkpt lat="42.83768" lon="1.48212">
        <ele>1157.56</ele>
        <time>2016-10-31T15:13:00Z</time>
      </trkpt>
      <trkpt lat="42.83768" lon="1.48207">
        <ele>1157.08</ele>
        <time>2016-10-31T15:13:04Z</time>
      </trkpt>
      <trkpt lat="42.83768" lon="1.48204">
        <ele>1157.08</ele>
        <time>2016-10-31T15:13:05Z</time>
      </trkpt>
      <trkpt lat="42.83768" lon="1.48195">
        <ele>1156.12</ele>
        <time>2016-10-31T15:13:15Z</time>
      </trkpt>
      <trkpt lat="42.8377" lon="1.48188">
        <ele>1155.64</ele>
        <time>2016-10-31T15:13:19Z</time>
      </trkpt>
      <trkpt lat="42.83771" lon="1.48186">
        <ele>1154.68</ele>
        <time>2016-10-31T15:13:20Z</time>
      </trkpt>
      <trkpt lat="42.83771" lon="1.48183">
        <ele>1155.16</ele>
        <time>2016-10-31T15:13:21Z</time>
      </trkpt>
      <trkpt lat="42.83772" lon="1.48179">
        <ele>1155.16</ele>
        <time>2016-10-31T15:13:22Z</time>
      </trkpt>
      <trkpt lat="42.83773" lon="1.48176">
        <ele>1155.16</ele>
        <time>2016-10-31T15:13:23Z</time>
      </trkpt>
      <trkpt lat="42.83777" lon="1.48163">
        <ele>1151.8</ele>
        <time>2016-10-31T15:13:27Z</time>
      </trkpt>
      <trkpt lat="42.83778" lon="1.4816">
        <ele>1150.84</ele>
        <time>2016-10-31T15:13:28Z</time>
      </trkpt>
      <trkpt lat="42.83778" lon="1.48157">
        <ele>1149.87</ele>
        <time>2016-10-31T15:13:29Z</time>
      </trkpt>
      <trkpt lat="42.8378" lon="1.48144">
        <ele>1146.51</ele>
        <time>2016-10-31T15:13:33Z</time>
      </trkpt>
      <trkpt lat="42.83785" lon="1.48093">
        <ele>1145.07</ele>
        <time>2016-10-31T15:13:47Z</time>
      </trkpt>
      <trkpt lat="42.83784" lon="1.48075">
        <ele>1142.18</ele>
        <time>2016-10-31T15:13:51Z</time>
      </trkpt>
      <trkpt lat="42.8378" lon="1.48058">
        <ele>1138.34</ele>
        <time>2016-10-31T15:13:55Z</time>
      </trkpt>
      <trkpt lat="42.83775" lon="1.48023">
        <ele>1135.45</ele>
        <time>2016-10-31T15:14:06Z</time>
      </trkpt>
      <trkpt lat="42.83777" lon="1.4801">
        <ele>1135.45</ele>
        <time>2016-10-31T15:14:10Z</time>
      </trkpt>
      <trkpt lat="42.83777" lon="1.48006">
        <ele>1134.97</ele>
        <time>2016-10-31T15:14:11Z</time>
      </trkpt>
      <trkpt lat="42.83776" lon="1.48002">
        <ele>1134.97</ele>
        <time>2016-10-31T15:14:12Z</time>
      </trkpt>
      <trkpt lat="42.83776" lon="1.47998">
        <ele>1134.97</ele>
        <time>2016-10-31T15:14:13Z</time>
      </trkpt>
      <trkpt lat="42.83776" lon="1.47994">
        <ele>1134.97</ele>
        <time>2016-10-31T15:14:14Z</time>
      </trkpt>
      <trkpt lat="42.83777" lon="1.47976">
        <ele>1132.09</ele>
        <time>2016-10-31T15:14:19Z</time>
      </trkpt>
      <trkpt lat="42.83777" lon="1.47962">
        <ele>1128.73</ele>
        <time>2016-10-31T15:14:23Z</time>
      </trkpt>
      <trkpt lat="42.8378" lon="1.47936">
        <ele>1125.36</ele>
        <time>2016-10-31T15:14:30Z</time>
      </trkpt>
      <trkpt lat="42.83785" lon="1.479">
        <ele>1122.48</ele>
        <time>2016-10-31T15:14:40Z</time>
      </trkpt>
      <trkpt lat="42.8379" lon="1.47879">
        <ele>1119.11</ele>
        <time>2016-10-31T15:14:46Z</time>
      </trkpt>
      <trkpt lat="42.83791" lon="1.47822">
        <ele>1117.67</ele>
        <time>2016-10-31T15:15:00Z</time>
      </trkpt>
      <trkpt lat="42.83792" lon="1.47808">
        <ele>1114.31</ele>
        <time>2016-10-31T15:15:04Z</time>
      </trkpt>
      <trkpt lat="42.83794" lon="1.47794">
        <ele>1110.46</ele>
        <time>2016-10-31T15:15:09Z</time>
      </trkpt>
      <trkpt lat="42.83799" lon="1.47769">
        <ele>1110.46</ele>
        <time>2016-10-31T15:15:21Z</time>
      </trkpt>
      <trkpt lat="42.83804" lon="1.47747">
        <ele>1107.58</ele>
        <time>2016-10-31T15:15:32Z</time>
      </trkpt>
      <trkpt lat="42.83805" lon="1.47722">
        <ele>1104.69</ele>
        <time>2016-10-31T15:15:37Z</time>
      </trkpt>
      <trkpt lat="42.83808" lon="1.47659">
        <ele>1101.33</ele>
        <time>2016-10-31T15:15:53Z</time>
      </trkpt>
      <trkpt lat="42.83818" lon="1.47609">
        <ele>1098.92</ele>
        <time>2016-10-31T15:16:06Z</time>
      </trkpt>
      <trkpt lat="42.83813" lon="1.47588">
        <ele>1097.48</ele>
        <time>2016-10-31T15:16:11Z</time>
      </trkpt>
      <trkpt lat="42.83811" lon="1.47571">
        <ele>1094.12</ele>
        <time>2016-10-31T15:16:15Z</time>
      </trkpt>
      <trkpt lat="42.83806" lon="1.47554">
        <ele>1090.75</ele>
        <time>2016-10-31T15:16:20Z</time>
      </trkpt>
      <trkpt lat="42.838" lon="1.47518">
        <ele>1089.79</ele>
        <time>2016-10-31T15:16:32Z</time>
      </trkpt>
      <trkpt lat="42.83798" lon="1.47504">
        <ele>1087.39</ele>
        <time>2016-10-31T15:16:37Z</time>
      </trkpt>
      <trkpt lat="42.83799" lon="1.47501">
        <ele>1086.91</ele>
        <time>2016-10-31T15:16:38Z</time>
      </trkpt>
      <trkpt lat="42.83799" lon="1.47478">
        <ele>1084.99</ele>
        <time>2016-10-31T15:16:50Z</time>
      </trkpt>
      <trkpt lat="42.838" lon="1.47473">
        <ele>1084.5</ele>
        <time>2016-10-31T15:17:03Z</time>
      </trkpt>
      <trkpt lat="42.83799" lon="1.47474">
        <ele>1084.5</ele>
        <time>2016-10-31T15:17:04Z</time>
      </trkpt>
      <trkpt lat="42.83794" lon="1.47494">
        <ele>1081.14</ele>
        <time>2016-10-31T15:17:16Z</time>
      </trkpt>
      <trkpt lat="42.83798" lon="1.47502">
        <ele>1081.14</ele>
        <time>2016-10-31T15:17:18Z</time>
      </trkpt>
      <trkpt lat="42.83797" lon="1.47505">
        <ele>1080.18</ele>
        <time>2016-10-31T15:17:19Z</time>
      </trkpt>
      <trkpt lat="42.83808" lon="1.47521">
        <ele>1078.74</ele>
        <time>2016-10-31T15:17:23Z</time>
      </trkpt>
      <trkpt lat="42.83808" lon="1.47523">
        <ele>1079.22</ele>
        <time>2016-10-31T15:17:24Z</time>
      </trkpt>
      <trkpt lat="42.83819" lon="1.47543">
        <ele>1079.22</ele>
        <time>2016-10-31T15:17:30Z</time>
      </trkpt>
      <trkpt lat="42.83844" lon="1.4757">
        <ele>1078.26</ele>
        <time>2016-10-31T15:17:39Z</time>
      </trkpt>
      <trkpt lat="42.83843" lon="1.47567">
        <ele>1078.26</ele>
        <time>2016-10-31T15:17:41Z</time>
      </trkpt>
      <trkpt lat="42.83847" lon="1.47539">
        <ele>1078.26</ele>
        <time>2016-10-31T15:17:53Z</time>
      </trkpt>
      <trkpt lat="42.83865" lon="1.4754">
        <ele>1079.22</ele>
        <time>2016-10-31T15:18:07Z</time>
      </trkpt>
      <trkpt lat="42.83865" lon="1.47544">
        <ele>1080.18</ele>
        <time>2016-10-31T15:18:09Z</time>
      </trkpt>
      <trkpt lat="42.83866" lon="1.47549">
        <ele>1080.18</ele>
        <time>2016-10-31T15:18:11Z</time>
      </trkpt>
      <trkpt lat="42.83874" lon="1.47578">
        <ele>1078.26</ele>
        <time>2016-10-31T15:18:22Z</time>
      </trkpt>
      <trkpt lat="42.83877" lon="1.4759">
        <ele>1075.37</ele>
        <time>2016-10-31T15:18:27Z</time>
      </trkpt>
      <trkpt lat="42.83879" lon="1.47592">
        <ele>1075.85</ele>
        <time>2016-10-31T15:18:28Z</time>
      </trkpt>
      <trkpt lat="42.8388" lon="1.47594">
        <ele>1075.37</ele>
        <time>2016-10-31T15:18:33Z</time>
      </trkpt>
      <trkpt lat="42.83885" lon="1.47607">
        <ele>1075.37</ele>
        <time>2016-10-31T15:18:42Z</time>
      </trkpt>
      <trkpt lat="42.83885" lon="1.47609">
        <ele>1075.37</ele>
        <time>2016-10-31T15:18:43Z</time>
      </trkpt>
      <trkpt lat="42.83887" lon="1.47624">
        <ele>1075.37</ele>
        <time>2016-10-31T15:18:50Z</time>
      </trkpt>
      <trkpt lat="42.83889" lon="1.47629">
        <ele>1075.37</ele>
        <time>2016-10-31T15:18:52Z</time>
      </trkpt>
      <trkpt lat="42.83891" lon="1.47634">
        <ele>1075.37</ele>
        <time>2016-10-31T15:18:54Z</time>
      </trkpt>
      <trkpt lat="42.83892" lon="1.47639">
        <ele>1075.37</ele>
        <time>2016-10-31T15:18:56Z</time>
      </trkpt>
      <trkpt lat="42.83895" lon="1.47659">
        <ele>1074.89</ele>
        <time>2016-10-31T15:19:06Z</time>
      </trkpt>
      <trkpt lat="42.83897" lon="1.47663">
        <ele>1074.89</ele>
        <time>2016-10-31T15:19:07Z</time>
      </trkpt>
      <trkpt lat="42.83899" lon="1.47686">
        <ele>1074.89</ele>
        <time>2016-10-31T15:19:13Z</time>
      </trkpt>
      <trkpt lat="42.83898" lon="1.47689">
        <ele>1074.89</ele>
        <time>2016-10-31T15:19:14Z</time>
      </trkpt>
      <trkpt lat="42.83898" lon="1.47693">
        <ele>1074.89</ele>
        <time>2016-10-31T15:19:15Z</time>
      </trkpt>
      <trkpt lat="42.83898" lon="1.47696">
        <ele>1075.37</ele>
        <time>2016-10-31T15:19:16Z</time>
      </trkpt>
      <trkpt lat="42.83897" lon="1.47706">
        <ele>1075.37</ele>
        <time>2016-10-31T15:19:19Z</time>
      </trkpt>
      <trkpt lat="42.83898" lon="1.47709">
        <ele>1074.89</ele>
        <time>2016-10-31T15:19:20Z</time>
      </trkpt>
      <trkpt lat="42.83898" lon="1.47711">
        <ele>1074.89</ele>
        <time>2016-10-31T15:19:21Z</time>
      </trkpt>
      <trkpt lat="42.83897" lon="1.47717">
        <ele>1075.37</ele>
        <time>2016-10-31T15:19:23Z</time>
      </trkpt>
      <trkpt lat="42.83897" lon="1.4772">
        <ele>1076.33</ele>
        <time>2016-10-31T15:19:24Z</time>
      </trkpt>
      <trkpt lat="42.83896" lon="1.47723">
        <ele>1076.33</ele>
        <time>2016-10-31T15:19:25Z</time>
      </trkpt>
      <trkpt lat="42.83895" lon="1.47726">
        <ele>1076.33</ele>
        <time>2016-10-31T15:19:26Z</time>
      </trkpt>
      <trkpt lat="42.83893" lon="1.47729">
        <ele>1075.85</ele>
        <time>2016-10-31T15:19:27Z</time>
      </trkpt>
      <trkpt lat="42.83891" lon="1.47731">
        <ele>1075.85</ele>
        <time>2016-10-31T15:19:28Z</time>
      </trkpt>
      <trkpt lat="42.83877" lon="1.47755">
        <ele>1076.33</ele>
        <time>2016-10-31T15:19:37Z</time>
      </trkpt>
      <trkpt lat="42.83879" lon="1.4776">
        <ele>1076.33</ele>
        <time>2016-10-31T15:19:38Z</time>
      </trkpt>
      <trkpt lat="42.8388" lon="1.47765">
        <ele>1076.33</ele>
        <time>2016-10-31T15:19:39Z</time>
      </trkpt>
      <trkpt lat="42.83881" lon="1.47769">
        <ele>1076.33</ele>
        <time>2016-10-31T15:19:40Z</time>
      </trkpt>
      <trkpt lat="42.83886" lon="1.47807">
        <ele>1074.89</ele>
        <time>2016-10-31T15:19:51Z</time>
      </trkpt>
      <trkpt lat="42.83891" lon="1.47847">
        <ele>1072.01</ele>
        <time>2016-10-31T15:20:05Z</time>
      </trkpt>
      <trkpt lat="42.83903" lon="1.47863">
        <ele>1068.64</ele>
        <time>2016-10-31T15:20:10Z</time>
      </trkpt>
      <trkpt lat="42.83912" lon="1.47877">
        <ele>1066.72</ele>
        <time>2016-10-31T15:20:14Z</time>
      </trkpt>
      <trkpt lat="42.83915" lon="1.47881">
        <ele>1066.72</ele>
        <time>2016-10-31T15:20:15Z</time>
      </trkpt>
      <trkpt lat="42.83919" lon="1.47891">
        <ele>1066.24</ele>
        <time>2016-10-31T15:20:18Z</time>
      </trkpt>
      <trkpt lat="42.8392" lon="1.47895">
        <ele>1066.24</ele>
        <time>2016-10-31T15:20:19Z</time>
      </trkpt>
      <trkpt lat="42.83921" lon="1.47898">
        <ele>1066.24</ele>
        <time>2016-10-31T15:20:20Z</time>
      </trkpt>
      <trkpt lat="42.83923" lon="1.4792">
        <ele>1066.24</ele>
        <time>2016-10-31T15:20:26Z</time>
      </trkpt>
      <trkpt lat="42.83924" lon="1.47923">
        <ele>1066.24</ele>
        <time>2016-10-31T15:20:27Z</time>
      </trkpt>
      <trkpt lat="42.83925" lon="1.47927">
        <ele>1066.24</ele>
        <time>2016-10-31T15:20:28Z</time>
      </trkpt>
      <trkpt lat="42.83926" lon="1.4793">
        <ele>1065.76</ele>
        <time>2016-10-31T15:20:29Z</time>
      </trkpt>
      <trkpt lat="42.83927" lon="1.47933">
        <ele>1065.76</ele>
        <time>2016-10-31T15:20:30Z</time>
      </trkpt>
      <trkpt lat="42.8393" lon="1.4794">
        <ele>1064.8</ele>
        <time>2016-10-31T15:20:32Z</time>
      </trkpt>
      <trkpt lat="42.8393" lon="1.47943">
        <ele>1063.84</ele>
        <time>2016-10-31T15:20:33Z</time>
      </trkpt>
      <trkpt lat="42.83932" lon="1.47961">
        <ele>1060.47</ele>
        <time>2016-10-31T15:20:38Z</time>
      </trkpt>
      <trkpt lat="42.83933" lon="1.47971">
        <ele>1057.59</ele>
        <time>2016-10-31T15:20:41Z</time>
      </trkpt>
      <trkpt lat="42.83937" lon="1.48011">
        <ele>1056.63</ele>
        <time>2016-10-31T15:20:53Z</time>
      </trkpt>
      <trkpt lat="42.83937" lon="1.48014">
        <ele>1056.63</ele>
        <time>2016-10-31T15:20:54Z</time>
      </trkpt>
      <trkpt lat="42.83936" lon="1.48016">
        <ele>1056.63</ele>
        <time>2016-10-31T15:20:55Z</time>
      </trkpt>
      <trkpt lat="42.83929" lon="1.48049">
        <ele>1056.63</ele>
        <time>2016-10-31T15:21:06Z</time>
      </trkpt>
      <trkpt lat="42.83931" lon="1.48054">
        <ele>1056.63</ele>
        <time>2016-10-31T15:21:08Z</time>
      </trkpt>
      <trkpt lat="42.83932" lon="1.48056">
        <ele>1056.15</ele>
        <time>2016-10-31T15:21:09Z</time>
      </trkpt>
      <trkpt lat="42.83934" lon="1.48059">
        <ele>1056.15</ele>
        <time>2016-10-31T15:21:10Z</time>
      </trkpt>
      <trkpt lat="42.8394" lon="1.4807">
        <ele>1055.67</ele>
        <time>2016-10-31T15:21:16Z</time>
      </trkpt>
      <trkpt lat="42.83947" lon="1.48083">
        <ele>1055.67</ele>
        <time>2016-10-31T15:21:21Z</time>
      </trkpt>
      <trkpt lat="42.8395" lon="1.48107">
        <ele>1053.74</ele>
        <time>2016-10-31T15:21:32Z</time>
      </trkpt>
      <trkpt lat="42.83947" lon="1.4813">
        <ele>1052.3</ele>
        <time>2016-10-31T15:21:47Z</time>
      </trkpt>
      <trkpt lat="42.83951" lon="1.48148">
        <ele>1051.82</ele>
        <time>2016-10-31T15:21:55Z</time>
      </trkpt>
      <trkpt lat="42.83959" lon="1.4816">
        <ele>1051.82</ele>
        <time>2016-10-31T15:22:01Z</time>
      </trkpt>
      <trkpt lat="42.8396" lon="1.48162">
        <ele>1051.34</ele>
        <time>2016-10-31T15:22:02Z</time>
      </trkpt>
      <trkpt lat="42.83961" lon="1.48165">
        <ele>1051.34</ele>
        <time>2016-10-31T15:22:03Z</time>
      </trkpt>
      <trkpt lat="42.8396" lon="1.48167">
        <ele>1051.34</ele>
        <time>2016-10-31T15:22:04Z</time>
      </trkpt>
      <trkpt lat="42.83957" lon="1.48182">
        <ele>1050.86</ele>
        <time>2016-10-31T15:22:13Z</time>
      </trkpt>
      <trkpt lat="42.83957" lon="1.48189">
        <ele>1050.38</ele>
        <time>2016-10-31T15:22:17Z</time>
      </trkpt>
      <trkpt lat="42.83953" lon="1.48212">
        <ele>1049.9</ele>
        <time>2016-10-31T15:22:30Z</time>
      </trkpt>
      <trkpt lat="42.83956" lon="1.48219">
        <ele>1049.9</ele>
        <time>2016-10-31T15:22:33Z</time>
      </trkpt>
      <trkpt lat="42.83954" lon="1.48243">
        <ele>1049.42</ele>
        <time>2016-10-31T15:22:44Z</time>
      </trkpt>
      <trkpt lat="42.83951" lon="1.48265">
        <ele>1048.45</ele>
        <time>2016-10-31T15:22:57Z</time>
      </trkpt>
      <trkpt lat="42.83953" lon="1.48285">
        <ele>1048.45</ele>
        <time>2016-10-31T15:23:06Z</time>
      </trkpt>
      <trkpt lat="42.83959" lon="1.48304">
        <ele>1048.45</ele>
        <time>2016-10-31T15:23:15Z</time>
      </trkpt>
      <trkpt lat="42.83962" lon="1.48311">
        <ele>1047.97</ele>
        <time>2016-10-31T15:23:19Z</time>
      </trkpt>
      <trkpt lat="42.83969" lon="1.48331">
        <ele>1047.49</ele>
        <time>2016-10-31T15:23:31Z</time>
      </trkpt>
      <trkpt lat="42.83971" lon="1.48334">
        <ele>1047.49</ele>
        <time>2016-10-31T15:23:32Z</time>
      </trkpt>
      <trkpt lat="42.83973" lon="1.48338">
        <ele>1047.49</ele>
        <time>2016-10-31T15:23:34Z</time>
      </trkpt>
      <trkpt lat="42.83973" lon="1.48352">
        <ele>1045.57</ele>
        <time>2016-10-31T15:23:43Z</time>
      </trkpt>
      <trkpt lat="42.83975" lon="1.48371">
        <ele>1045.09</ele>
        <time>2016-10-31T15:23:54Z</time>
      </trkpt>
      <trkpt lat="42.83979" lon="1.48401">
        <ele>1044.61</ele>
        <time>2016-10-31T15:24:07Z</time>
      </trkpt>
      <trkpt lat="42.83999" lon="1.48432">
        <ele>1042.21</ele>
        <time>2016-10-31T15:24:22Z</time>
      </trkpt>
      <trkpt lat="42.84006" lon="1.48456">
        <ele>1041.73</ele>
        <time>2016-10-31T15:24:36Z</time>
      </trkpt>
      <trkpt lat="42.84009" lon="1.48477">
        <ele>1038.36</ele>
        <time>2016-10-31T15:24:46Z</time>
      </trkpt>
      <trkpt lat="42.84007" lon="1.48492">
        <ele>1037.4</ele>
        <time>2016-10-31T15:24:56Z</time>
      </trkpt>
      <trkpt lat="42.84008" lon="1.48495">
        <ele>1037.4</ele>
        <time>2016-10-31T15:24:58Z</time>
      </trkpt>
      <trkpt lat="42.84009" lon="1.48505">
        <ele>1036.92</ele>
        <time>2016-10-31T15:25:02Z</time>
      </trkpt>
      <trkpt lat="42.84009" lon="1.48515">
        <ele>1035.96</ele>
        <time>2016-10-31T15:25:07Z</time>
      </trkpt>
      <trkpt lat="42.84048" lon="1.48549">
        <ele>1035.96</ele>
        <time>2016-10-31T15:25:11Z</time>
      </trkpt>
      <trkpt lat="42.84039" lon="1.48541">
        <ele>1035</ele>
        <time>2016-10-31T15:25:26Z</time>
      </trkpt>
      <trkpt lat="42.84036" lon="1.48539">
        <ele>1034.52</ele>
        <time>2016-10-31T15:25:45Z</time>
      </trkpt>
      <trkpt lat="42.84028" lon="1.48531">
        <ele>1034.52</ele>
        <time>2016-10-31T15:26:08Z</time>
      </trkpt>
      <trkpt lat="42.8403" lon="1.48533">
        <ele>1034.52</ele>
        <time>2016-10-31T15:26:19Z</time>
      </trkpt>
    </trkseg>
  </trk>
</gpx>